<?xml version='1.0' encoding='UTF-8'?><gpx version="1.1" creator="JPX - https://github.com/jenetics/jpx" xmlns="http://www.topografix.com/GPX/1/1"><trk><trkseg><trkpt lat="43.7212627" lon="11.382938"><ele>393.0</ele><time>2026-04-19T07:03:45.596Z</time></trkpt><trkpt lat="43.721199" lon="11.3828937"><ele>393.0</ele><time>2026-04-19T07:04:24.65Z</time></trkpt><trkpt lat="43.7212613" lon="11.3830557"><ele>393.0</ele><time>2026-04-19T07:06:18.65Z</time></trkpt><trkpt lat="43.7214387" lon="11.3833774"><ele>392.1666666666667</ele><time>2026-04-19T07:07:23.641Z</time></trkpt><trkpt lat="43.7214764" lon="11.3834915"><ele>391.33333333333337</ele><time>2026-04-19T07:07:24.644Z</time></trkpt><trkpt lat="43.7215214" lon="11.3836058"><ele>390.5</ele><time>2026-04-19T07:07:25.64Z</time></trkpt><trkpt lat="43.7215589" lon="11.3837078"><ele>389.6666666666667</ele><time>2026-04-19T07:07:26.645Z</time></trkpt><trkpt lat="43.7215989" lon="11.3838095"><ele>388.83333333333337</ele><time>2026-04-19T07:07:27.638Z</time></trkpt><trkpt lat="43.7216389" lon="11.3839185"><ele>388.0</ele><time>2026-04-19T07:07:28.636Z</time></trkpt><trkpt lat="43.7216787" lon="11.3840381"><ele>387.79999999999995</ele><time>2026-04-19T07:07:29.633Z</time></trkpt><trkpt lat="43.7217218" lon="11.3841671"><ele>387.6</ele><time>2026-04-19T07:07:30.636Z</time></trkpt><trkpt lat="43.7217731" lon="11.3843102"><ele>387.4</ele><time>2026-04-19T07:07:31.641Z</time></trkpt><trkpt lat="43.721815" lon="11.3844498"><ele>387.20000000000005</ele><time>2026-04-19T07:07:32.638Z</time></trkpt><trkpt lat="43.7218591" lon="11.3845957"><ele>387.0</ele><time>2026-04-19T07:07:33.642Z</time></trkpt><trkpt lat="43.7219072" lon="11.3847387"><ele>387.0</ele><time>2026-04-19T07:07:34.646Z</time></trkpt><trkpt lat="43.7219559" lon="11.3848818"><ele>387.0</ele><time>2026-04-19T07:07:35.639Z</time></trkpt><trkpt lat="43.7220087" lon="11.3850213"><ele>387.0</ele><time>2026-04-19T07:07:36.644Z</time></trkpt><trkpt lat="43.7220629" lon="11.3851594"><ele>387.0</ele><time>2026-04-19T07:07:37.64Z</time></trkpt><trkpt lat="43.7221166" lon="11.3853029"><ele>387.0</ele><time>2026-04-19T07:07:38.641Z</time></trkpt><trkpt lat="43.7221674" lon="11.3854287"><ele>387.0</ele><time>2026-04-19T07:07:39.641Z</time></trkpt><trkpt lat="43.7222288" lon="11.3855581"><ele>387.0</ele><time>2026-04-19T07:07:40.644Z</time></trkpt><trkpt lat="43.7222981" lon="11.3856817"><ele>387.0</ele><time>2026-04-19T07:07:41.642Z</time></trkpt><trkpt lat="43.7224594" lon="11.385948"><ele>387.5</ele><time>2026-04-19T07:07:43.645Z</time></trkpt><trkpt lat="43.7225473" lon="11.3860693"><ele>388.0</ele><time>2026-04-19T07:07:44.644Z</time></trkpt><trkpt lat="43.7226372" lon="11.386197"><ele>388.5</ele><time>2026-04-19T07:07:45.644Z</time></trkpt><trkpt lat="43.7227265" lon="11.3863229"><ele>389.0</ele><time>2026-04-19T07:07:46.642Z</time></trkpt><trkpt lat="43.722823" lon="11.3864476"><ele>389.0</ele><time>2026-04-19T07:07:47.645Z</time></trkpt><trkpt lat="43.7229171" lon="11.3865712"><ele>389.0</ele><time>2026-04-19T07:07:48.644Z</time></trkpt><trkpt lat="43.7230119" lon="11.3866978"><ele>389.0</ele><time>2026-04-19T07:07:49.641Z</time></trkpt><trkpt lat="43.7231055" lon="11.3868204"><ele>389.0</ele><time>2026-04-19T07:07:50.66Z</time></trkpt><trkpt lat="43.7232036" lon="11.3869358"><ele>389.0</ele><time>2026-04-19T07:07:51.644Z</time></trkpt><trkpt lat="43.7233027" lon="11.3870582"><ele>389.0</ele><time>2026-04-19T07:07:52.646Z</time></trkpt><trkpt lat="43.7234039" lon="11.3871702"><ele>389.0</ele><time>2026-04-19T07:07:53.642Z</time></trkpt><trkpt lat="43.7235065" lon="11.3872764"><ele>389.0</ele><time>2026-04-19T07:07:54.64Z</time></trkpt><trkpt lat="43.7236077" lon="11.3873897"><ele>388.0</ele><time>2026-04-19T07:07:55.644Z</time></trkpt><trkpt lat="43.7237073" lon="11.3875117"><ele>387.0</ele><time>2026-04-19T07:07:56.641Z</time></trkpt><trkpt lat="43.7238008" lon="11.38764"><ele>386.0</ele><time>2026-04-19T07:07:57.642Z</time></trkpt><trkpt lat="43.7238896" lon="11.3877693"><ele>385.0</ele><time>2026-04-19T07:07:58.639Z</time></trkpt><trkpt lat="43.7239747" lon="11.38791"><ele>382.5</ele><time>2026-04-19T07:07:59.638Z</time></trkpt><trkpt lat="43.7240503" lon="11.3880621"><ele>380.0</ele><time>2026-04-19T07:08:00.637Z</time></trkpt><trkpt lat="43.7241198" lon="11.3882209"><ele>377.5</ele><time>2026-04-19T07:08:01.643Z</time></trkpt><trkpt lat="43.724178" lon="11.3883749"><ele>375.0</ele><time>2026-04-19T07:08:02.636Z</time></trkpt><trkpt lat="43.7242555" lon="11.3886532"><ele>375.0</ele><time>2026-04-19T07:08:04.644Z</time></trkpt><trkpt lat="43.7242812" lon="11.388794"><ele>375.0</ele><time>2026-04-19T07:08:05.643Z</time></trkpt><trkpt lat="43.7243036" lon="11.3889414"><ele>375.0</ele><time>2026-04-19T07:08:06.646Z</time></trkpt><trkpt lat="43.7243238" lon="11.3890925"><ele>375.0</ele><time>2026-04-19T07:08:07.646Z</time></trkpt><trkpt lat="43.7243402" lon="11.3892418"><ele>375.0</ele><time>2026-04-19T07:08:08.64Z</time></trkpt><trkpt lat="43.7243381" lon="11.3893898"><ele>373.25</ele><time>2026-04-19T07:08:09.638Z</time></trkpt><trkpt lat="43.7243192" lon="11.3895398"><ele>371.5</ele><time>2026-04-19T07:08:10.629Z</time></trkpt><trkpt lat="43.7242669" lon="11.3896794"><ele>369.75</ele><time>2026-04-19T07:08:11.633Z</time></trkpt><trkpt lat="43.7241843" lon="11.3897955"><ele>368.0</ele><time>2026-04-19T07:08:12.635Z</time></trkpt><trkpt lat="43.7240861" lon="11.3899028"><ele>365.0</ele><time>2026-04-19T07:08:13.643Z</time></trkpt><trkpt lat="43.7239923" lon="11.390022"><ele>362.0</ele><time>2026-04-19T07:08:14.642Z</time></trkpt><trkpt lat="43.7238997" lon="11.3901464"><ele>359.0</ele><time>2026-04-19T07:08:15.641Z</time></trkpt><trkpt lat="43.7238121" lon="11.3902762"><ele>356.0</ele><time>2026-04-19T07:08:16.644Z</time></trkpt><trkpt lat="43.7237325" lon="11.3903967"><ele>355.75</ele><time>2026-04-19T07:08:17.647Z</time></trkpt><trkpt lat="43.7236617" lon="11.3905269"><ele>355.5</ele><time>2026-04-19T07:08:18.644Z</time></trkpt><trkpt lat="43.7236023" lon="11.3906673"><ele>355.25</ele><time>2026-04-19T07:08:19.638Z</time></trkpt><trkpt lat="43.7235652" lon="11.3908212"><ele>355.0</ele><time>2026-04-19T07:08:20.651Z</time></trkpt><trkpt lat="43.7235388" lon="11.390981"><ele>355.0</ele><time>2026-04-19T07:08:21.66Z</time></trkpt><trkpt lat="43.7235199" lon="11.3911298"><ele>355.0</ele><time>2026-04-19T07:08:22.648Z</time></trkpt><trkpt lat="43.7234959" lon="11.3912723"><ele>355.0</ele><time>2026-04-19T07:08:23.653Z</time></trkpt><trkpt lat="43.723527" lon="11.3915311"><ele>355.0</ele><time>2026-04-19T07:08:25.651Z</time></trkpt><trkpt lat="43.7235935" lon="11.3916198"><ele>353.4</ele><time>2026-04-19T07:08:26.646Z</time></trkpt><trkpt lat="43.7236645" lon="11.3916543"><ele>351.8</ele><time>2026-04-19T07:08:27.646Z</time></trkpt><trkpt lat="43.7237512" lon="11.3916204"><ele>350.20000000000005</ele><time>2026-04-19T07:08:28.649Z</time></trkpt><trkpt lat="43.7238438" lon="11.3915339"><ele>348.6</ele><time>2026-04-19T07:08:29.648Z</time></trkpt><trkpt lat="43.723947" lon="11.3914116"><ele>347.0</ele><time>2026-04-19T07:08:30.632Z</time></trkpt><trkpt lat="43.7240361" lon="11.3912923"><ele>347.0</ele><time>2026-04-19T07:08:31.642Z</time></trkpt><trkpt lat="43.7241149" lon="11.3911678"><ele>347.0</ele><time>2026-04-19T07:08:32.647Z</time></trkpt><trkpt lat="43.7241863" lon="11.3910487"><ele>347.0</ele><time>2026-04-19T07:08:33.641Z</time></trkpt><trkpt lat="43.7242756" lon="11.390968"><ele>347.0</ele><time>2026-04-19T07:08:34.638Z</time></trkpt><trkpt lat="43.7243908" lon="11.390948"><ele>347.75</ele><time>2026-04-19T07:08:35.637Z</time></trkpt><trkpt lat="43.724525" lon="11.3909735"><ele>348.5</ele><time>2026-04-19T07:08:36.621Z</time></trkpt><trkpt lat="43.7246466" lon="11.3910116"><ele>349.25</ele><time>2026-04-19T07:08:37.623Z</time></trkpt><trkpt lat="43.7247534" lon="11.3910489"><ele>350.0</ele><time>2026-04-19T07:08:38.618Z</time></trkpt><trkpt lat="43.7248383" lon="11.391098"><ele>350.0</ele><time>2026-04-19T07:08:39.621Z</time></trkpt><trkpt lat="43.7248919" lon="11.3911938"><ele>350.0</ele><time>2026-04-19T07:08:40.635Z</time></trkpt><trkpt lat="43.7249082" lon="11.3913467"><ele>350.0</ele><time>2026-04-19T07:08:41.631Z</time></trkpt><trkpt lat="43.7248913" lon="11.3915409"><ele>350.0</ele><time>2026-04-19T07:08:42.618Z</time></trkpt><trkpt lat="43.724859" lon="11.3917615"><ele>346.5</ele><time>2026-04-19T07:08:43.627Z</time></trkpt><trkpt lat="43.7248268" lon="11.3919937"><ele>343.0</ele><time>2026-04-19T07:08:44.629Z</time></trkpt><trkpt lat="43.7247637" lon="11.3924682"><ele>341.3333333333333</ele><time>2026-04-19T07:08:46.629Z</time></trkpt><trkpt lat="43.7247224" lon="11.3927023"><ele>339.6666666666667</ele><time>2026-04-19T07:08:47.632Z</time></trkpt><trkpt lat="43.7246894" lon="11.3929335"><ele>338.0</ele><time>2026-04-19T07:08:48.629Z</time></trkpt><trkpt lat="43.7246555" lon="11.3931585"><ele>336.6666666666667</ele><time>2026-04-19T07:08:49.627Z</time></trkpt><trkpt lat="43.7246269" lon="11.3933774"><ele>335.3333333333333</ele><time>2026-04-19T07:08:50.633Z</time></trkpt><trkpt lat="43.7246046" lon="11.3935929"><ele>334.0</ele><time>2026-04-19T07:08:51.636Z</time></trkpt><trkpt lat="43.7245781" lon="11.3938081"><ele>331.5</ele><time>2026-04-19T07:08:52.652Z</time></trkpt><trkpt lat="43.7245711" lon="11.3940142"><ele>329.0</ele><time>2026-04-19T07:08:53.644Z</time></trkpt><trkpt lat="43.7245893" lon="11.3942154"><ele>326.5</ele><time>2026-04-19T07:08:54.635Z</time></trkpt><trkpt lat="43.7246244" lon="11.3944042"><ele>324.0</ele><time>2026-04-19T07:08:55.645Z</time></trkpt><trkpt lat="43.7246795" lon="11.3946004"><ele>319.3333333333333</ele><time>2026-04-19T07:08:56.643Z</time></trkpt><trkpt lat="43.7247225" lon="11.3947944"><ele>314.66666666666663</ele><time>2026-04-19T07:08:57.64Z</time></trkpt><trkpt lat="43.7247387" lon="11.3950171"><ele>310.0</ele><time>2026-04-19T07:08:58.641Z</time></trkpt><trkpt lat="43.7247235" lon="11.3952369"><ele>310.0</ele><time>2026-04-19T07:08:59.646Z</time></trkpt><trkpt lat="43.7246793" lon="11.3954563"><ele>310.0</ele><time>2026-04-19T07:09:00.65Z</time></trkpt><trkpt lat="43.7246032" lon="11.395667"><ele>310.0</ele><time>2026-04-19T07:09:01.639Z</time></trkpt><trkpt lat="43.724523" lon="11.3958654"><ele>307.3333333333333</ele><time>2026-04-19T07:09:02.642Z</time></trkpt><trkpt lat="43.7244154" lon="11.396039"><ele>304.6666666666667</ele><time>2026-04-19T07:09:03.634Z</time></trkpt><trkpt lat="43.7242794" lon="11.3961929"><ele>302.0</ele><time>2026-04-19T07:09:04.65Z</time></trkpt><trkpt lat="43.7241357" lon="11.3963283"><ele>301.0</ele><time>2026-04-19T07:09:05.637Z</time></trkpt><trkpt lat="43.7238242" lon="11.3965421"><ele>300.0</ele><time>2026-04-19T07:09:07.632Z</time></trkpt><trkpt lat="43.7236598" lon="11.3966272"><ele>298.0</ele><time>2026-04-19T07:09:08.645Z</time></trkpt><trkpt lat="43.7235054" lon="11.3967072"><ele>296.0</ele><time>2026-04-19T07:09:09.648Z</time></trkpt><trkpt lat="43.7233501" lon="11.396789"><ele>294.0</ele><time>2026-04-19T07:09:10.648Z</time></trkpt><trkpt lat="43.7231921" lon="11.3968689"><ele>294.0</ele><time>2026-04-19T07:09:11.649Z</time></trkpt><trkpt lat="43.7230327" lon="11.3969662"><ele>294.0</ele><time>2026-04-19T07:09:12.643Z</time></trkpt><trkpt lat="43.7228817" lon="11.39708"><ele>294.0</ele><time>2026-04-19T07:09:13.638Z</time></trkpt><trkpt lat="43.7227439" lon="11.3972123"><ele>292.0</ele><time>2026-04-19T07:09:14.653Z</time></trkpt><trkpt lat="43.7226054" lon="11.3973561"><ele>290.0</ele><time>2026-04-19T07:09:15.652Z</time></trkpt><trkpt lat="43.72246" lon="11.3974976"><ele>288.0</ele><time>2026-04-19T07:09:16.652Z</time></trkpt><trkpt lat="43.7223231" lon="11.3976478"><ele>288.0</ele><time>2026-04-19T07:09:17.651Z</time></trkpt><trkpt lat="43.7221795" lon="11.3978007"><ele>288.0</ele><time>2026-04-19T07:09:18.645Z</time></trkpt><trkpt lat="43.7220432" lon="11.3979495"><ele>288.0</ele><time>2026-04-19T07:09:19.654Z</time></trkpt><trkpt lat="43.7219087" lon="11.3980972"><ele>285.0</ele><time>2026-04-19T07:09:20.658Z</time></trkpt><trkpt lat="43.7217836" lon="11.3982504"><ele>282.0</ele><time>2026-04-19T07:09:21.649Z</time></trkpt><trkpt lat="43.7216635" lon="11.3984046"><ele>279.0</ele><time>2026-04-19T07:09:22.651Z</time></trkpt><trkpt lat="43.7215607" lon="11.3985764"><ele>279.0</ele><time>2026-04-19T07:09:23.668Z</time></trkpt><trkpt lat="43.721453" lon="11.3987465"><ele>279.0</ele><time>2026-04-19T07:09:24.655Z</time></trkpt><trkpt lat="43.7213548" lon="11.3989221"><ele>279.0</ele><time>2026-04-19T07:09:25.658Z</time></trkpt><trkpt lat="43.7212498" lon="11.3990939"><ele>275.0</ele><time>2026-04-19T07:09:26.651Z</time></trkpt><trkpt lat="43.7209933" lon="11.3993414"><ele>271.0</ele><time>2026-04-19T07:09:28.641Z</time></trkpt><trkpt lat="43.7208474" lon="11.3994291"><ele>271.0</ele><time>2026-04-19T07:09:29.639Z</time></trkpt><trkpt lat="43.7207174" lon="11.3994838"><ele>271.0</ele><time>2026-04-19T07:09:30.637Z</time></trkpt><trkpt lat="43.7205837" lon="11.3995163"><ele>271.0</ele><time>2026-04-19T07:09:31.637Z</time></trkpt><trkpt lat="43.7204578" lon="11.3995369"><ele>271.0</ele><time>2026-04-19T07:09:32.627Z</time></trkpt><trkpt lat="43.7203433" lon="11.3995266"><ele>271.0</ele><time>2026-04-19T07:09:33.641Z</time></trkpt><trkpt lat="43.7202371" lon="11.3994743"><ele>271.0</ele><time>2026-04-19T07:09:34.639Z</time></trkpt><trkpt lat="43.7201358" lon="11.3993674"><ele>271.0</ele><time>2026-04-19T07:09:35.639Z</time></trkpt><trkpt lat="43.720068" lon="11.3992025"><ele>271.0</ele><time>2026-04-19T07:09:36.621Z</time></trkpt><trkpt lat="43.7199841" lon="11.3990235"><ele>271.66666666666663</ele><time>2026-04-19T07:09:37.625Z</time></trkpt><trkpt lat="43.7198969" lon="11.398836"><ele>272.3333333333333</ele><time>2026-04-19T07:09:38.627Z</time></trkpt><trkpt lat="43.7198115" lon="11.3986477"><ele>273.0</ele><time>2026-04-19T07:09:39.63Z</time></trkpt><trkpt lat="43.7197189" lon="11.3984631"><ele>273.0</ele><time>2026-04-19T07:09:40.627Z</time></trkpt><trkpt lat="43.7196149" lon="11.3983004"><ele>273.0</ele><time>2026-04-19T07:09:41.63Z</time></trkpt><trkpt lat="43.7195096" lon="11.3981477"><ele>273.0</ele><time>2026-04-19T07:09:42.627Z</time></trkpt><trkpt lat="43.7193908" lon="11.3980087"><ele>271.75</ele><time>2026-04-19T07:09:43.628Z</time></trkpt><trkpt lat="43.7192598" lon="11.3978991"><ele>270.5</ele><time>2026-04-19T07:09:44.631Z</time></trkpt><trkpt lat="43.7191229" lon="11.3978196"><ele>269.25</ele><time>2026-04-19T07:09:45.631Z</time></trkpt><trkpt lat="43.7189966" lon="11.3977652"><ele>268.0</ele><time>2026-04-19T07:09:46.638Z</time></trkpt><trkpt lat="43.7188692" lon="11.3977075"><ele>268.0</ele><time>2026-04-19T07:09:47.638Z</time></trkpt><trkpt lat="43.718631" lon="11.3975683"><ele>268.0</ele><time>2026-04-19T07:09:49.636Z</time></trkpt><trkpt lat="43.7184967" lon="11.3975017"><ele>268.0</ele><time>2026-04-19T07:09:50.638Z</time></trkpt><trkpt lat="43.718367" lon="11.3974437"><ele>269.0</ele><time>2026-04-19T07:09:51.633Z</time></trkpt><trkpt lat="43.7182371" lon="11.397374"><ele>270.0</ele><time>2026-04-19T07:09:52.64Z</time></trkpt><trkpt lat="43.7181082" lon="11.3973104"><ele>271.0</ele><time>2026-04-19T07:09:53.637Z</time></trkpt><trkpt lat="43.7179831" lon="11.3972422"><ele>272.0</ele><time>2026-04-19T07:09:54.653Z</time></trkpt><trkpt lat="43.7178531" lon="11.3971781"><ele>271.25</ele><time>2026-04-19T07:09:55.642Z</time></trkpt><trkpt lat="43.7177246" lon="11.3971241"><ele>270.5</ele><time>2026-04-19T07:09:56.643Z</time></trkpt><trkpt lat="43.7176037" lon="11.3970775"><ele>269.75</ele><time>2026-04-19T07:09:57.645Z</time></trkpt><trkpt lat="43.7174765" lon="11.3970335"><ele>269.0</ele><time>2026-04-19T07:09:58.642Z</time></trkpt><trkpt lat="43.7173587" lon="11.3970014"><ele>269.0</ele><time>2026-04-19T07:09:59.642Z</time></trkpt><trkpt lat="43.7172347" lon="11.396971"><ele>269.0</ele><time>2026-04-19T07:10:00.639Z</time></trkpt><trkpt lat="43.7171149" lon="11.396949"><ele>269.0</ele><time>2026-04-19T07:10:01.633Z</time></trkpt><trkpt lat="43.7169922" lon="11.3969267"><ele>269.0</ele><time>2026-04-19T07:10:02.636Z</time></trkpt><trkpt lat="43.716863" lon="11.396911"><ele>268.5</ele><time>2026-04-19T07:10:03.64Z</time></trkpt><trkpt lat="43.7167364" lon="11.3968813"><ele>268.0</ele><time>2026-04-19T07:10:04.639Z</time></trkpt><trkpt lat="43.7166069" lon="11.3968631"><ele>267.5</ele><time>2026-04-19T07:10:05.637Z</time></trkpt><trkpt lat="43.71648" lon="11.3968483"><ele>267.0</ele><time>2026-04-19T07:10:06.64Z</time></trkpt><trkpt lat="43.7163542" lon="11.3968228"><ele>267.0</ele><time>2026-04-19T07:10:07.636Z</time></trkpt><trkpt lat="43.7162305" lon="11.3967826"><ele>267.0</ele><time>2026-04-19T07:10:08.636Z</time></trkpt><trkpt lat="43.7159823" lon="11.3967157"><ele>267.0</ele><time>2026-04-19T07:10:10.641Z</time></trkpt><trkpt lat="43.7158497" lon="11.3966877"><ele>267.0</ele><time>2026-04-19T07:10:11.636Z</time></trkpt><trkpt lat="43.7157216" lon="11.3966588"><ele>267.0</ele><time>2026-04-19T07:10:12.634Z</time></trkpt><trkpt lat="43.7155986" lon="11.3966305"><ele>267.0</ele><time>2026-04-19T07:10:13.636Z</time></trkpt><trkpt lat="43.7154739" lon="11.3966086"><ele>267.0</ele><time>2026-04-19T07:10:14.632Z</time></trkpt><trkpt lat="43.7153599" lon="11.3965857"><ele>267.0</ele><time>2026-04-19T07:10:15.633Z</time></trkpt><trkpt lat="43.7152512" lon="11.3965659"><ele>267.0</ele><time>2026-04-19T07:10:16.64Z</time></trkpt><trkpt lat="43.7151481" lon="11.3965266"><ele>267.0</ele><time>2026-04-19T07:10:17.639Z</time></trkpt><trkpt lat="43.7150441" lon="11.3964881"><ele>267.0</ele><time>2026-04-19T07:10:18.635Z</time></trkpt><trkpt lat="43.7149468" lon="11.396456"><ele>267.0</ele><time>2026-04-19T07:10:19.638Z</time></trkpt><trkpt lat="43.7148599" lon="11.3964249"><ele>267.0</ele><time>2026-04-19T07:10:20.638Z</time></trkpt><trkpt lat="43.714773" lon="11.3963847"><ele>267.0</ele><time>2026-04-19T07:10:21.635Z</time></trkpt><trkpt lat="43.7146838" lon="11.3963558"><ele>267.0</ele><time>2026-04-19T07:10:22.637Z</time></trkpt><trkpt lat="43.714598" lon="11.3963308"><ele>267.0</ele><time>2026-04-19T07:10:23.64Z</time></trkpt><trkpt lat="43.7145191" lon="11.396319"><ele>267.0</ele><time>2026-04-19T07:10:24.638Z</time></trkpt><trkpt lat="43.7144478" lon="11.3963059"><ele>267.0</ele><time>2026-04-19T07:10:25.65Z</time></trkpt><trkpt lat="43.7143826" lon="11.3962845"><ele>265.3333333333333</ele><time>2026-04-19T07:10:26.637Z</time></trkpt><trkpt lat="43.7142885" lon="11.3962547"><ele>263.66666666666663</ele><time>2026-04-19T07:10:28.634Z</time></trkpt><trkpt lat="43.7142176" lon="11.3962146"><ele>262.0</ele><time>2026-04-19T07:10:30.626Z</time></trkpt><trkpt lat="43.7139254" lon="11.3961579"><ele>262.0</ele><time>2026-04-19T07:11:20.645Z</time></trkpt><trkpt lat="43.7138044" lon="11.3961597"><ele>262.0</ele><time>2026-04-19T07:11:21.643Z</time></trkpt><trkpt lat="43.7136873" lon="11.3961505"><ele>262.0</ele><time>2026-04-19T07:11:22.643Z</time></trkpt><trkpt lat="43.7135627" lon="11.3961738"><ele>262.0</ele><time>2026-04-19T07:11:23.636Z</time></trkpt><trkpt lat="43.713443" lon="11.3962199"><ele>261.75</ele><time>2026-04-19T07:11:24.631Z</time></trkpt><trkpt lat="43.7133419" lon="11.3962933"><ele>261.5</ele><time>2026-04-19T07:11:25.636Z</time></trkpt><trkpt lat="43.7132161" lon="11.3963348"><ele>261.25</ele><time>2026-04-19T07:11:26.636Z</time></trkpt><trkpt lat="43.7131056" lon="11.3963895"><ele>261.0</ele><time>2026-04-19T07:11:27.657Z</time></trkpt><trkpt lat="43.7129862" lon="11.3964461"><ele>262.25</ele><time>2026-04-19T07:11:28.646Z</time></trkpt><trkpt lat="43.7128715" lon="11.396519"><ele>263.5</ele><time>2026-04-19T07:11:29.653Z</time></trkpt><trkpt lat="43.7127388" lon="11.3965935"><ele>264.75</ele><time>2026-04-19T07:11:30.644Z</time></trkpt><trkpt lat="43.7126039" lon="11.396674"><ele>266.0</ele><time>2026-04-19T07:11:31.652Z</time></trkpt><trkpt lat="43.7124598" lon="11.3967519"><ele>266.0</ele><time>2026-04-19T07:11:32.651Z</time></trkpt><trkpt lat="43.7123138" lon="11.3968332"><ele>266.0</ele><time>2026-04-19T07:11:33.647Z</time></trkpt><trkpt lat="43.7121511" lon="11.3969048"><ele>266.0</ele><time>2026-04-19T07:11:34.646Z</time></trkpt><trkpt lat="43.7120109" lon="11.3969848"><ele>264.0</ele><time>2026-04-19T07:11:35.648Z</time></trkpt><trkpt lat="43.7118624" lon="11.3970508"><ele>262.0</ele><time>2026-04-19T07:11:36.648Z</time></trkpt><trkpt lat="43.7116971" lon="11.3970979"><ele>260.0</ele><time>2026-04-19T07:11:37.648Z</time></trkpt><trkpt lat="43.7115389" lon="11.3971525"><ele>261.33333333333337</ele><time>2026-04-19T07:11:38.647Z</time></trkpt><trkpt lat="43.7112548" lon="11.3972748"><ele>262.6666666666667</ele><time>2026-04-19T07:11:40.651Z</time></trkpt><trkpt lat="43.7111194" lon="11.3973222"><ele>264.0</ele><time>2026-04-19T07:11:41.65Z</time></trkpt><trkpt lat="43.710988" lon="11.3973788"><ele>264.0</ele><time>2026-04-19T07:11:42.649Z</time></trkpt><trkpt lat="43.7108634" lon="11.3974319"><ele>264.0</ele><time>2026-04-19T07:11:43.648Z</time></trkpt><trkpt lat="43.7107607" lon="11.3974791"><ele>264.0</ele><time>2026-04-19T07:11:44.634Z</time></trkpt><trkpt lat="43.7106824" lon="11.3975135"><ele>264.0</ele><time>2026-04-19T07:11:45.641Z</time></trkpt><trkpt lat="43.7106066" lon="11.3975437"><ele>264.0</ele><time>2026-04-19T07:11:46.637Z</time></trkpt><trkpt lat="43.7104971" lon="11.39755"><ele>264.0</ele><time>2026-04-19T07:11:48.636Z</time></trkpt><trkpt lat="43.710365" lon="11.3974843"><ele>264.0</ele><time>2026-04-19T07:11:50.638Z</time></trkpt><trkpt lat="43.7102932" lon="11.3974423"><ele>264.0</ele><time>2026-04-19T07:11:51.634Z</time></trkpt><trkpt lat="43.7102313" lon="11.3973949"><ele>264.0</ele><time>2026-04-19T07:11:52.635Z</time></trkpt><trkpt lat="43.7101588" lon="11.3973381"><ele>264.0</ele><time>2026-04-19T07:11:53.635Z</time></trkpt><trkpt lat="43.7100917" lon="11.397279"><ele>262.6666666666667</ele><time>2026-04-19T07:11:54.648Z</time></trkpt><trkpt lat="43.7100367" lon="11.3971788"><ele>261.3333333333333</ele><time>2026-04-19T07:11:55.627Z</time></trkpt><trkpt lat="43.7099867" lon="11.397076"><ele>260.0</ele><time>2026-04-19T07:11:56.631Z</time></trkpt><trkpt lat="43.7099326" lon="11.396956"><ele>258.66666666666663</ele><time>2026-04-19T07:11:57.633Z</time></trkpt><trkpt lat="43.7098846" lon="11.3968544"><ele>257.3333333333333</ele><time>2026-04-19T07:11:58.646Z</time></trkpt><trkpt lat="43.7098402" lon="11.3967745"><ele>256.0</ele><time>2026-04-19T07:11:59.633Z</time></trkpt><trkpt lat="43.7097368" lon="11.3965454"><ele>255.66666666666666</ele><time>2026-04-19T07:12:02.647Z</time></trkpt><trkpt lat="43.7096969" lon="11.3964673"><ele>255.33333333333331</ele><time>2026-04-19T07:12:03.642Z</time></trkpt><trkpt lat="43.7096587" lon="11.3963886"><ele>255.0</ele><time>2026-04-19T07:12:04.646Z</time></trkpt><trkpt lat="43.7095907" lon="11.3962235"><ele>254.66666666666669</ele><time>2026-04-19T07:12:06.646Z</time></trkpt><trkpt lat="43.7095535" lon="11.3961431"><ele>254.33333333333334</ele><time>2026-04-19T07:12:07.65Z</time></trkpt><trkpt lat="43.709512" lon="11.3960513"><ele>254.0</ele><time>2026-04-19T07:12:08.645Z</time></trkpt><trkpt lat="43.7094696" lon="11.3959635"><ele>254.0</ele><time>2026-04-19T07:12:09.65Z</time></trkpt><trkpt lat="43.7094275" lon="11.3958717"><ele>253.99999999999997</ele><time>2026-04-19T07:12:10.651Z</time></trkpt><trkpt lat="43.7093819" lon="11.3957919"><ele>253.99999999999997</ele><time>2026-04-19T07:12:11.649Z</time></trkpt><trkpt lat="43.7093208" lon="11.3956816"><ele>254.0</ele><time>2026-04-19T07:12:13.65Z</time></trkpt><trkpt lat="43.709267" lon="11.3955764"><ele>254.0</ele><time>2026-04-19T07:12:16.654Z</time></trkpt><trkpt lat="43.7092093" lon="11.3954433"><ele>254.0</ele><time>2026-04-19T07:12:18.658Z</time></trkpt><trkpt lat="43.7091995" lon="11.3955349"><ele>253.99999999999997</ele><time>2026-04-19T07:12:22.646Z</time></trkpt><trkpt lat="43.7093316" lon="11.3956986"><ele>253.99999999999997</ele><time>2026-04-19T07:12:27.655Z</time></trkpt><trkpt lat="43.7093796" lon="11.3958067"><ele>254.0</ele><time>2026-04-19T07:12:29.664Z</time></trkpt><trkpt lat="43.7094184" lon="11.3959135"><ele>254.0</ele><time>2026-04-19T07:12:31.656Z</time></trkpt><trkpt lat="43.7094775" lon="11.3960324"><ele>254.00000000000003</ele><time>2026-04-19T07:12:33.647Z</time></trkpt><trkpt lat="43.7095505" lon="11.3961917"><ele>254.0</ele><time>2026-04-19T07:12:35.649Z</time></trkpt><trkpt lat="43.7095922" lon="11.396275"><ele>254.0</ele><time>2026-04-19T07:12:36.644Z</time></trkpt><trkpt lat="43.7096336" lon="11.3963636"><ele>254.0</ele><time>2026-04-19T07:12:37.645Z</time></trkpt><trkpt lat="43.709677" lon="11.396455"><ele>254.00000000000003</ele><time>2026-04-19T07:12:38.649Z</time></trkpt><trkpt lat="43.7097197" lon="11.3965501"><ele>254.0</ele><time>2026-04-19T07:12:39.649Z</time></trkpt><trkpt lat="43.709768" lon="11.3966594"><ele>253.75</ele><time>2026-04-19T07:12:40.642Z</time></trkpt><trkpt lat="43.7098217" lon="11.3967734"><ele>253.5</ele><time>2026-04-19T07:12:41.643Z</time></trkpt><trkpt lat="43.7098722" lon="11.3968822"><ele>253.25</ele><time>2026-04-19T07:12:42.642Z</time></trkpt><trkpt lat="43.7099195" lon="11.3969804"><ele>253.0</ele><time>2026-04-19T07:12:43.641Z</time></trkpt><trkpt lat="43.7100128" lon="11.3971812"><ele>253.49999999999997</ele><time>2026-04-19T07:12:45.647Z</time></trkpt><trkpt lat="43.7100601" lon="11.3972928"><ele>254.0</ele><time>2026-04-19T07:12:46.643Z</time></trkpt><trkpt lat="43.7101037" lon="11.3973798"><ele>254.5</ele><time>2026-04-19T07:12:47.643Z</time></trkpt><trkpt lat="43.7101628" lon="11.3974324"><ele>255.0</ele><time>2026-04-19T07:12:48.642Z</time></trkpt><trkpt lat="43.7102822" lon="11.3974834"><ele>255.49999999999997</ele><time>2026-04-19T07:12:50.642Z</time></trkpt><trkpt lat="43.710345" lon="11.3975138"><ele>256.0</ele><time>2026-04-19T07:12:51.637Z</time></trkpt><trkpt lat="43.710438" lon="11.3975711"><ele>255.99999999999997</ele><time>2026-04-19T07:12:53.627Z</time></trkpt><trkpt lat="43.7104146" lon="11.3976527"><ele>256.0</ele><time>2026-04-19T07:12:57.65Z</time></trkpt><trkpt lat="43.7103462" lon="11.3976929"><ele>256.0</ele><time>2026-04-19T07:12:58.651Z</time></trkpt><trkpt lat="43.7102798" lon="11.3977311"><ele>256.0</ele><time>2026-04-19T07:12:59.643Z</time></trkpt><trkpt lat="43.7102187" lon="11.3977614"><ele>255.99999999999997</ele><time>2026-04-19T07:13:00.664Z</time></trkpt><trkpt lat="43.7101475" lon="11.3978176"><ele>256.0</ele><time>2026-04-19T07:13:01.645Z</time></trkpt><trkpt lat="43.7100667" lon="11.3978907"><ele>256.0</ele><time>2026-04-19T07:13:02.648Z</time></trkpt><trkpt lat="43.7099807" lon="11.397967"><ele>256.0</ele><time>2026-04-19T07:13:03.644Z</time></trkpt><trkpt lat="43.7098861" lon="11.3980438"><ele>256.0</ele><time>2026-04-19T07:13:04.645Z</time></trkpt><trkpt lat="43.7097049" lon="11.3981716"><ele>256.0</ele><time>2026-04-19T07:13:06.644Z</time></trkpt><trkpt lat="43.7096171" lon="11.3982453"><ele>256.0</ele><time>2026-04-19T07:13:07.646Z</time></trkpt><trkpt lat="43.7095232" lon="11.3983228"><ele>256.0</ele><time>2026-04-19T07:13:08.639Z</time></trkpt><trkpt lat="43.7094151" lon="11.398401"><ele>256.0</ele><time>2026-04-19T07:13:09.643Z</time></trkpt><trkpt lat="43.7092964" lon="11.3984757"><ele>256.0</ele><time>2026-04-19T07:13:10.636Z</time></trkpt><trkpt lat="43.7091749" lon="11.3985465"><ele>256.0</ele><time>2026-04-19T07:13:11.643Z</time></trkpt><trkpt lat="43.7090439" lon="11.3986006"><ele>256.0</ele><time>2026-04-19T07:13:12.642Z</time></trkpt><trkpt lat="43.7089103" lon="11.3986395"><ele>256.0</ele><time>2026-04-19T07:13:13.643Z</time></trkpt><trkpt lat="43.7087812" lon="11.3986907"><ele>256.0</ele><time>2026-04-19T07:13:14.642Z</time></trkpt><trkpt lat="43.7086573" lon="11.3987543"><ele>256.75</ele><time>2026-04-19T07:13:15.647Z</time></trkpt><trkpt lat="43.7085318" lon="11.3988304"><ele>257.5</ele><time>2026-04-19T07:13:16.645Z</time></trkpt><trkpt lat="43.7084123" lon="11.3989149"><ele>258.25</ele><time>2026-04-19T07:13:17.647Z</time></trkpt><trkpt lat="43.7082903" lon="11.3989881"><ele>259.0</ele><time>2026-04-19T07:13:18.646Z</time></trkpt><trkpt lat="43.7081598" lon="11.3990778"><ele>259.0</ele><time>2026-04-19T07:13:19.644Z</time></trkpt><trkpt lat="43.7080308" lon="11.3991544"><ele>259.0</ele><time>2026-04-19T07:13:20.643Z</time></trkpt><trkpt lat="43.7078956" lon="11.3992204"><ele>259.0</ele><time>2026-04-19T07:13:21.637Z</time></trkpt><trkpt lat="43.7077583" lon="11.3992801"><ele>259.0</ele><time>2026-04-19T07:13:22.64Z</time></trkpt><trkpt lat="43.7076306" lon="11.3993668"><ele>258.0</ele><time>2026-04-19T07:13:23.641Z</time></trkpt><trkpt lat="43.707502" lon="11.3994683"><ele>257.0</ele><time>2026-04-19T07:13:24.638Z</time></trkpt><trkpt lat="43.7073768" lon="11.3995647"><ele>256.0</ele><time>2026-04-19T07:13:25.642Z</time></trkpt><trkpt lat="43.7071505" lon="11.3997606"><ele>256.0</ele><time>2026-04-19T07:13:27.647Z</time></trkpt><trkpt lat="43.7070393" lon="11.3998795"><ele>256.0</ele><time>2026-04-19T07:13:28.645Z</time></trkpt><trkpt lat="43.7069524" lon="11.4000256"><ele>256.0</ele><time>2026-04-19T07:13:29.647Z</time></trkpt><trkpt lat="43.7068516" lon="11.4001827"><ele>256.0</ele><time>2026-04-19T07:13:30.654Z</time></trkpt><trkpt lat="43.7067443" lon="11.4003505"><ele>255.33333333333331</ele><time>2026-04-19T07:13:31.642Z</time></trkpt><trkpt lat="43.7066334" lon="11.4005308"><ele>254.66666666666669</ele><time>2026-04-19T07:13:32.635Z</time></trkpt><trkpt lat="43.7065186" lon="11.4007122"><ele>254.0</ele><time>2026-04-19T07:13:33.647Z</time></trkpt><trkpt lat="43.7063913" lon="11.4008949"><ele>254.0</ele><time>2026-04-19T07:13:34.635Z</time></trkpt><trkpt lat="43.7062694" lon="11.4010663"><ele>254.0</ele><time>2026-04-19T07:13:35.651Z</time></trkpt><trkpt lat="43.706142" lon="11.4012387"><ele>254.0</ele><time>2026-04-19T07:13:36.633Z</time></trkpt><trkpt lat="43.7060071" lon="11.4014066"><ele>252.66666666666669</ele><time>2026-04-19T07:13:37.639Z</time></trkpt><trkpt lat="43.7058806" lon="11.4015588"><ele>251.33333333333331</ele><time>2026-04-19T07:13:38.641Z</time></trkpt><trkpt lat="43.7057573" lon="11.401709"><ele>250.0</ele><time>2026-04-19T07:13:39.646Z</time></trkpt><trkpt lat="43.7056605" lon="11.4018701"><ele>250.0</ele><time>2026-04-19T07:13:40.643Z</time></trkpt><trkpt lat="43.7055736" lon="11.4020214"><ele>250.0</ele><time>2026-04-19T07:13:41.641Z</time></trkpt><trkpt lat="43.7055058" lon="11.402191"><ele>250.0</ele><time>2026-04-19T07:13:42.64Z</time></trkpt><trkpt lat="43.7054523" lon="11.4023553"><ele>250.0</ele><time>2026-04-19T07:13:43.642Z</time></trkpt><trkpt lat="43.7053962" lon="11.4024881"><ele>248.25</ele><time>2026-04-19T07:13:44.634Z</time></trkpt><trkpt lat="43.7053448" lon="11.4026082"><ele>246.5</ele><time>2026-04-19T07:13:45.645Z</time></trkpt><trkpt lat="43.7052987" lon="11.4027176"><ele>244.75</ele><time>2026-04-19T07:13:46.639Z</time></trkpt><trkpt lat="43.7051759" lon="11.4028464"><ele>243.0</ele><time>2026-04-19T07:13:49.659Z</time></trkpt><trkpt lat="43.7050572" lon="11.4027285"><ele>243.0</ele><time>2026-04-19T07:13:51.64Z</time></trkpt><trkpt lat="43.7049798" lon="11.4026578"><ele>243.0</ele><time>2026-04-19T07:13:52.644Z</time></trkpt><trkpt lat="43.7049013" lon="11.402585"><ele>243.0</ele><time>2026-04-19T07:13:53.647Z</time></trkpt><trkpt lat="43.704834" lon="11.4025063"><ele>243.0</ele><time>2026-04-19T07:13:54.642Z</time></trkpt><trkpt lat="43.7047566" lon="11.4024435"><ele>243.0</ele><time>2026-04-19T07:13:55.659Z</time></trkpt><trkpt lat="43.7046766" lon="11.4023831"><ele>243.0</ele><time>2026-04-19T07:13:56.653Z</time></trkpt><trkpt lat="43.7045937" lon="11.402326"><ele>243.0</ele><time>2026-04-19T07:13:57.656Z</time></trkpt><trkpt lat="43.7045116" lon="11.4022602"><ele>243.0</ele><time>2026-04-19T07:13:58.659Z</time></trkpt><trkpt lat="43.7044236" lon="11.4021972"><ele>243.0</ele><time>2026-04-19T07:13:59.657Z</time></trkpt><trkpt lat="43.7043324" lon="11.4021444"><ele>243.0</ele><time>2026-04-19T07:14:00.659Z</time></trkpt><trkpt lat="43.7042438" lon="11.4021006"><ele>242.16666666666666</ele><time>2026-04-19T07:14:01.67Z</time></trkpt><trkpt lat="43.7041596" lon="11.4020659"><ele>241.33333333333331</ele><time>2026-04-19T07:14:02.658Z</time></trkpt><trkpt lat="43.7040761" lon="11.4020263"><ele>240.5</ele><time>2026-04-19T07:14:03.667Z</time></trkpt><trkpt lat="43.7039904" lon="11.4019865"><ele>239.66666666666666</ele><time>2026-04-19T07:14:04.66Z</time></trkpt><trkpt lat="43.7039129" lon="11.4019405"><ele>238.83333333333331</ele><time>2026-04-19T07:14:05.666Z</time></trkpt><trkpt lat="43.7038403" lon="11.4018993"><ele>238.0</ele><time>2026-04-19T07:14:06.648Z</time></trkpt><trkpt lat="43.7037645" lon="11.4018502"><ele>238.0</ele><time>2026-04-19T07:14:07.659Z</time></trkpt><trkpt lat="43.7035824" lon="11.4017592"><ele>238.0</ele><time>2026-04-19T07:14:09.659Z</time></trkpt><trkpt lat="43.7034775" lon="11.4017219"><ele>238.0</ele><time>2026-04-19T07:14:10.653Z</time></trkpt><trkpt lat="43.7033657" lon="11.4016834"><ele>238.0</ele><time>2026-04-19T07:14:11.655Z</time></trkpt><trkpt lat="43.7032503" lon="11.4016431"><ele>239.75</ele><time>2026-04-19T07:14:12.654Z</time></trkpt><trkpt lat="43.7031271" lon="11.4015962"><ele>241.5</ele><time>2026-04-19T07:14:13.652Z</time></trkpt><trkpt lat="43.7030042" lon="11.4015497"><ele>243.25</ele><time>2026-04-19T07:14:14.651Z</time></trkpt><trkpt lat="43.7028746" lon="11.4015083"><ele>245.0</ele><time>2026-04-19T07:14:15.656Z</time></trkpt><trkpt lat="43.7027606" lon="11.401457"><ele>247.4</ele><time>2026-04-19T07:14:16.65Z</time></trkpt><trkpt lat="43.702661" lon="11.4014054"><ele>249.8</ele><time>2026-04-19T07:14:17.656Z</time></trkpt><trkpt lat="43.702558" lon="11.4013903"><ele>252.2</ele><time>2026-04-19T07:14:18.654Z</time></trkpt><trkpt lat="43.7024557" lon="11.4014021"><ele>254.6</ele><time>2026-04-19T07:14:19.648Z</time></trkpt><trkpt lat="43.7023576" lon="11.4014273"><ele>257.0</ele><time>2026-04-19T07:14:20.656Z</time></trkpt><trkpt lat="43.7022534" lon="11.4014544"><ele>257.0</ele><time>2026-04-19T07:14:21.725Z</time></trkpt><trkpt lat="43.7021475" lon="11.4015062"><ele>257.0</ele><time>2026-04-19T07:14:22.737Z</time></trkpt><trkpt lat="43.7020326" lon="11.4015494"><ele>257.0</ele><time>2026-04-19T07:14:23.733Z</time></trkpt><trkpt lat="43.70193" lon="11.401606"><ele>257.0</ele><time>2026-04-19T07:14:24.73Z</time></trkpt><trkpt lat="43.7018394" lon="11.4016575"><ele>257.0</ele><time>2026-04-19T07:14:25.75Z</time></trkpt><trkpt lat="43.7017576" lon="11.401717"><ele>258.0</ele><time>2026-04-19T07:14:26.717Z</time></trkpt><trkpt lat="43.7016706" lon="11.4016775"><ele>259.0</ele><time>2026-04-19T07:14:28.722Z</time></trkpt><trkpt lat="43.7014513" lon="11.4015021"><ele>260.0</ele><time>2026-04-19T07:14:31.734Z</time></trkpt><trkpt lat="43.7013593" lon="11.4013998"><ele>260.6666666666667</ele><time>2026-04-19T07:14:33.714Z</time></trkpt><trkpt lat="43.70129" lon="11.401312"><ele>261.33333333333337</ele><time>2026-04-19T07:14:34.715Z</time></trkpt><trkpt lat="43.7012307" lon="11.4011966"><ele>262.0</ele><time>2026-04-19T07:14:36.726Z</time></trkpt><trkpt lat="43.7012134" lon="11.4010514"><ele>262.6666666666667</ele><time>2026-04-19T07:14:38.736Z</time></trkpt><trkpt lat="43.7012461" lon="11.400968"><ele>263.3333333333333</ele><time>2026-04-19T07:14:39.722Z</time></trkpt><trkpt lat="43.7012989" lon="11.4008964"><ele>264.0</ele><time>2026-04-19T07:14:40.721Z</time></trkpt><trkpt lat="43.7013713" lon="11.4008043"><ele>264.0</ele><time>2026-04-19T07:14:41.726Z</time></trkpt><trkpt lat="43.7014555" lon="11.4007303"><ele>264.0</ele><time>2026-04-19T07:14:42.726Z</time></trkpt><trkpt lat="43.7016539" lon="11.4004146"><ele>264.0</ele><time>2026-04-19T07:14:44.728Z</time></trkpt><trkpt lat="43.7016916" lon="11.4002888"><ele>268.0</ele><time>2026-04-19T07:14:46.654Z</time></trkpt><trkpt lat="43.7016322" lon="11.4001109"><ele>272.0</ele><time>2026-04-19T07:14:48.649Z</time></trkpt><trkpt lat="43.7015807" lon="11.4000317"><ele>276.0</ele><time>2026-04-19T07:14:49.65Z</time></trkpt><trkpt lat="43.7014407" lon="11.399849"><ele>280.0</ele><time>2026-04-19T07:14:52.654Z</time></trkpt><trkpt lat="43.7013497" lon="11.3997805"><ele>280.0</ele><time>2026-04-19T07:14:54.655Z</time></trkpt><trkpt lat="43.7012486" lon="11.3996878"><ele>280.0</ele><time>2026-04-19T07:14:56.658Z</time></trkpt><trkpt lat="43.7011911" lon="11.3996303"><ele>280.0</ele><time>2026-04-19T07:14:57.646Z</time></trkpt><trkpt lat="43.7011282" lon="11.3995673"><ele>280.0</ele><time>2026-04-19T07:14:58.648Z</time></trkpt><trkpt lat="43.7010558" lon="11.3994975"><ele>280.0</ele><time>2026-04-19T07:14:59.65Z</time></trkpt><trkpt lat="43.7009852" lon="11.3994266"><ele>280.0</ele><time>2026-04-19T07:15:00.65Z</time></trkpt><trkpt lat="43.7009143" lon="11.3993464"><ele>282.2</ele><time>2026-04-19T07:15:01.653Z</time></trkpt><trkpt lat="43.7008419" lon="11.399253"><ele>284.4</ele><time>2026-04-19T07:15:02.652Z</time></trkpt><trkpt lat="43.7007764" lon="11.3991502"><ele>286.6</ele><time>2026-04-19T07:15:03.664Z</time></trkpt><trkpt lat="43.7007254" lon="11.3990307"><ele>288.8</ele><time>2026-04-19T07:15:04.652Z</time></trkpt><trkpt lat="43.7006813" lon="11.3989002"><ele>291.0</ele><time>2026-04-19T07:15:05.656Z</time></trkpt><trkpt lat="43.7006437" lon="11.3987638"><ele>293.2</ele><time>2026-04-19T07:15:06.653Z</time></trkpt><trkpt lat="43.7006114" lon="11.3986347"><ele>295.40000000000003</ele><time>2026-04-19T07:15:07.651Z</time></trkpt><trkpt lat="43.700576" lon="11.3985062"><ele>297.6</ele><time>2026-04-19T07:15:08.651Z</time></trkpt><trkpt lat="43.7005365" lon="11.3984011"><ele>299.8</ele><time>2026-04-19T07:15:09.65Z</time></trkpt><trkpt lat="43.7004865" lon="11.3983187"><ele>302.0</ele><time>2026-04-19T07:15:10.633Z</time></trkpt><trkpt lat="43.7003547" lon="11.3982581"><ele>302.0</ele><time>2026-04-19T07:15:12.639Z</time></trkpt><trkpt lat="43.7002705" lon="11.3982993"><ele>302.0</ele><time>2026-04-19T07:15:13.632Z</time></trkpt><trkpt lat="43.7001916" lon="11.3983672"><ele>302.0</ele><time>2026-04-19T07:15:14.622Z</time></trkpt><trkpt lat="43.700118" lon="11.3984646"><ele>302.0</ele><time>2026-04-19T07:15:15.639Z</time></trkpt><trkpt lat="43.7000465" lon="11.3985407"><ele>302.0</ele><time>2026-04-19T07:15:16.638Z</time></trkpt><trkpt lat="43.6999742" lon="11.3985647"><ele>302.0</ele><time>2026-04-19T07:15:17.64Z</time></trkpt><trkpt lat="43.6998811" lon="11.3985642"><ele>302.6</ele><time>2026-04-19T07:15:18.637Z</time></trkpt><trkpt lat="43.6997694" lon="11.3985425"><ele>303.2</ele><time>2026-04-19T07:15:19.633Z</time></trkpt><trkpt lat="43.699664" lon="11.3985045"><ele>303.8</ele><time>2026-04-19T07:15:20.637Z</time></trkpt><trkpt lat="43.6995648" lon="11.398455"><ele>304.4</ele><time>2026-04-19T07:15:21.645Z</time></trkpt><trkpt lat="43.6994855" lon="11.3983983"><ele>305.0</ele><time>2026-04-19T07:15:22.638Z</time></trkpt><trkpt lat="43.6994274" lon="11.3983117"><ele>304.8</ele><time>2026-04-19T07:15:23.629Z</time></trkpt><trkpt lat="43.6993764" lon="11.3981997"><ele>304.6</ele><time>2026-04-19T07:15:24.632Z</time></trkpt><trkpt lat="43.6993173" lon="11.3980973"><ele>304.4</ele><time>2026-04-19T07:15:25.633Z</time></trkpt><trkpt lat="43.6992541" lon="11.3979912"><ele>304.2</ele><time>2026-04-19T07:15:26.636Z</time></trkpt><trkpt lat="43.6991975" lon="11.3978858"><ele>304.0</ele><time>2026-04-19T07:15:27.635Z</time></trkpt><trkpt lat="43.6991373" lon="11.39779"><ele>306.75</ele><time>2026-04-19T07:15:28.638Z</time></trkpt><trkpt lat="43.6990702" lon="11.3977087"><ele>309.5</ele><time>2026-04-19T07:15:29.634Z</time></trkpt><trkpt lat="43.6989977" lon="11.3976276"><ele>312.25</ele><time>2026-04-19T07:15:30.636Z</time></trkpt><trkpt lat="43.6989151" lon="11.3975382"><ele>315.0</ele><time>2026-04-19T07:15:31.641Z</time></trkpt><trkpt lat="43.6987532" lon="11.3973516"><ele>315.0</ele><time>2026-04-19T07:15:33.636Z</time></trkpt><trkpt lat="43.6986602" lon="11.3972817"><ele>315.0</ele><time>2026-04-19T07:15:34.645Z</time></trkpt><trkpt lat="43.6985712" lon="11.3972221"><ele>315.0</ele><time>2026-04-19T07:15:35.635Z</time></trkpt><trkpt lat="43.6984891" lon="11.3971606"><ele>315.0</ele><time>2026-04-19T07:15:36.634Z</time></trkpt><trkpt lat="43.6984219" lon="11.3970891"><ele>315.0</ele><time>2026-04-19T07:15:37.625Z</time></trkpt><trkpt lat="43.6983682" lon="11.3969946"><ele>315.6</ele><time>2026-04-19T07:15:38.625Z</time></trkpt><trkpt lat="43.6982936" lon="11.3968814"><ele>316.2</ele><time>2026-04-19T07:15:40.629Z</time></trkpt><trkpt lat="43.6981709" lon="11.3969724"><ele>316.8</ele><time>2026-04-19T07:15:42.632Z</time></trkpt><trkpt lat="43.698127" lon="11.3970655"><ele>317.4</ele><time>2026-04-19T07:15:43.63Z</time></trkpt><trkpt lat="43.6981137" lon="11.3971751"><ele>318.0</ele><time>2026-04-19T07:15:44.617Z</time></trkpt><trkpt lat="43.6981076" lon="11.3973021"><ele>318.0</ele><time>2026-04-19T07:15:45.626Z</time></trkpt><trkpt lat="43.6980706" lon="11.3974073"><ele>318.0</ele><time>2026-04-19T07:15:46.623Z</time></trkpt><trkpt lat="43.6980066" lon="11.3974962"><ele>318.0</ele><time>2026-04-19T07:15:47.627Z</time></trkpt><trkpt lat="43.6979561" lon="11.3976025"><ele>318.0</ele><time>2026-04-19T07:15:48.63Z</time></trkpt><trkpt lat="43.6979248" lon="11.3977145"><ele>318.0</ele><time>2026-04-19T07:15:49.635Z</time></trkpt><trkpt lat="43.6978937" lon="11.3978263"><ele>318.0</ele><time>2026-04-19T07:15:50.631Z</time></trkpt><trkpt lat="43.6978479" lon="11.3979276"><ele>317.25</ele><time>2026-04-19T07:15:51.633Z</time></trkpt><trkpt lat="43.6977911" lon="11.3980324"><ele>316.5</ele><time>2026-04-19T07:15:52.64Z</time></trkpt><trkpt lat="43.6977046" lon="11.3982773"><ele>315.75</ele><time>2026-04-19T07:15:54.645Z</time></trkpt><trkpt lat="43.6976696" lon="11.3984008"><ele>315.0</ele><time>2026-04-19T07:15:55.646Z</time></trkpt><trkpt lat="43.6976387" lon="11.3985136"><ele>317.2857142857143</ele><time>2026-04-19T07:15:56.645Z</time></trkpt><trkpt lat="43.6976124" lon="11.3986218"><ele>319.57142857142856</ele><time>2026-04-19T07:15:57.644Z</time></trkpt><trkpt lat="43.6975823" lon="11.3987118"><ele>321.8571428571429</ele><time>2026-04-19T07:15:58.633Z</time></trkpt><trkpt lat="43.6975266" lon="11.3987593"><ele>324.1428571428571</ele><time>2026-04-19T07:15:59.648Z</time></trkpt><trkpt lat="43.6974583" lon="11.3987689"><ele>326.42857142857144</ele><time>2026-04-19T07:16:00.665Z</time></trkpt><trkpt lat="43.6973967" lon="11.3987444"><ele>328.7142857142857</ele><time>2026-04-19T07:16:01.643Z</time></trkpt><trkpt lat="43.6973365" lon="11.398679"><ele>331.0</ele><time>2026-04-19T07:16:02.644Z</time></trkpt><trkpt lat="43.6972799" lon="11.398583"><ele>331.0</ele><time>2026-04-19T07:16:03.657Z</time></trkpt><trkpt lat="43.6972301" lon="11.3984741"><ele>331.0</ele><time>2026-04-19T07:16:04.652Z</time></trkpt><trkpt lat="43.6971979" lon="11.3983606"><ele>331.0</ele><time>2026-04-19T07:16:05.659Z</time></trkpt><trkpt lat="43.6971925" lon="11.3982412"><ele>331.0</ele><time>2026-04-19T07:16:06.641Z</time></trkpt><trkpt lat="43.6971923" lon="11.3981256"><ele>331.0</ele><time>2026-04-19T07:16:07.65Z</time></trkpt><trkpt lat="43.6971745" lon="11.3980362"><ele>331.0</ele><time>2026-04-19T07:16:08.655Z</time></trkpt><trkpt lat="43.6970776" lon="11.3979157"><ele>333.5</ele><time>2026-04-19T07:16:10.649Z</time></trkpt><trkpt lat="43.6969941" lon="11.3978719"><ele>336.0</ele><time>2026-04-19T07:16:11.649Z</time></trkpt><trkpt lat="43.696902" lon="11.3978249"><ele>338.5</ele><time>2026-04-19T07:16:12.65Z</time></trkpt><trkpt lat="43.6968093" lon="11.3977634"><ele>341.0</ele><time>2026-04-19T07:16:13.649Z</time></trkpt><trkpt lat="43.6966331" lon="11.3976502"><ele>342.33333333333337</ele><time>2026-04-19T07:16:15.646Z</time></trkpt><trkpt lat="43.6965527" lon="11.397605"><ele>343.6666666666667</ele><time>2026-04-19T07:16:16.645Z</time></trkpt><trkpt lat="43.6964808" lon="11.3975714"><ele>345.0</ele><time>2026-04-19T07:16:17.65Z</time></trkpt><trkpt lat="43.696411" lon="11.3975802"><ele>346.3333333333333</ele><time>2026-04-19T07:16:18.649Z</time></trkpt><trkpt lat="43.6963337" lon="11.3976323"><ele>347.66666666666663</ele><time>2026-04-19T07:16:19.633Z</time></trkpt><trkpt lat="43.6962566" lon="11.3976954"><ele>349.0</ele><time>2026-04-19T07:16:20.658Z</time></trkpt><trkpt lat="43.6961795" lon="11.3977402"><ele>349.0</ele><time>2026-04-19T07:16:21.638Z</time></trkpt><trkpt lat="43.6960981" lon="11.3977467"><ele>349.0</ele><time>2026-04-19T07:16:22.641Z</time></trkpt><trkpt lat="43.69601" lon="11.3977293"><ele>349.0</ele><time>2026-04-19T07:16:23.636Z</time></trkpt><trkpt lat="43.6959246" lon="11.3977117"><ele>349.0</ele><time>2026-04-19T07:16:24.638Z</time></trkpt><trkpt lat="43.6958456" lon="11.3976691"><ele>349.0</ele><time>2026-04-19T07:16:25.627Z</time></trkpt><trkpt lat="43.6957549" lon="11.3976044"><ele>349.0</ele><time>2026-04-19T07:16:26.631Z</time></trkpt><trkpt lat="43.6956504" lon="11.397535"><ele>348.75</ele><time>2026-04-19T07:16:27.633Z</time></trkpt><trkpt lat="43.6955366" lon="11.3974621"><ele>348.5</ele><time>2026-04-19T07:16:28.631Z</time></trkpt><trkpt lat="43.6954203" lon="11.3973824"><ele>348.25</ele><time>2026-04-19T07:16:29.634Z</time></trkpt><trkpt lat="43.6952968" lon="11.397303"><ele>348.0</ele><time>2026-04-19T07:16:30.648Z</time></trkpt><trkpt lat="43.6951739" lon="11.397229"><ele>349.0</ele><time>2026-04-19T07:16:31.639Z</time></trkpt><trkpt lat="43.6950491" lon="11.3971516"><ele>350.0</ele><time>2026-04-19T07:16:32.638Z</time></trkpt><trkpt lat="43.6949326" lon="11.3970656"><ele>351.0</ele><time>2026-04-19T07:16:33.639Z</time></trkpt><trkpt lat="43.6948326" lon="11.3969767"><ele>352.0</ele><time>2026-04-19T07:16:34.637Z</time></trkpt><trkpt lat="43.6946693" lon="11.3968093"><ele>352.0</ele><time>2026-04-19T07:16:36.65Z</time></trkpt><trkpt lat="43.6946006" lon="11.3967365"><ele>352.0</ele><time>2026-04-19T07:16:37.638Z</time></trkpt><trkpt lat="43.6945307" lon="11.3966844"><ele>352.0</ele><time>2026-04-19T07:16:38.642Z</time></trkpt><trkpt lat="43.6944662" lon="11.3966591"><ele>352.0</ele><time>2026-04-19T07:16:39.642Z</time></trkpt><trkpt lat="43.694404" lon="11.3966437"><ele>352.0</ele><time>2026-04-19T07:16:40.654Z</time></trkpt><trkpt lat="43.6943087" lon="11.3965745"><ele>352.0</ele><time>2026-04-19T07:16:42.641Z</time></trkpt><trkpt lat="43.6942353" lon="11.3964559"><ele>349.6</ele><time>2026-04-19T07:16:44.637Z</time></trkpt><trkpt lat="43.6942205" lon="11.3962689"><ele>347.20000000000005</ele><time>2026-04-19T07:16:46.64Z</time></trkpt><trkpt lat="43.6942331" lon="11.3961788"><ele>344.8</ele><time>2026-04-19T07:16:47.643Z</time></trkpt><trkpt lat="43.6942347" lon="11.3960305"><ele>342.4</ele><time>2026-04-19T07:16:49.645Z</time></trkpt><trkpt lat="43.6942384" lon="11.3959395"><ele>340.0</ele><time>2026-04-19T07:16:50.659Z</time></trkpt><trkpt lat="43.6942508" lon="11.3957957"><ele>340.0</ele><time>2026-04-19T07:16:52.633Z</time></trkpt><trkpt lat="43.694257" lon="11.3956725"><ele>340.0</ele><time>2026-04-19T07:16:54.635Z</time></trkpt><trkpt lat="43.69425" lon="11.3955256"><ele>340.0</ele><time>2026-04-19T07:16:56.624Z</time></trkpt><trkpt lat="43.694126" lon="11.3953197"><ele>340.0</ele><time>2026-04-19T07:17:00.623Z</time></trkpt><trkpt lat="43.6940275" lon="11.3953171"><ele>340.0</ele><time>2026-04-19T07:17:02.608Z</time></trkpt><trkpt lat="43.6939654" lon="11.3953557"><ele>340.0</ele><time>2026-04-19T07:17:03.629Z</time></trkpt><trkpt lat="43.6938639" lon="11.3954264"><ele>340.0</ele><time>2026-04-19T07:17:04.612Z</time></trkpt><trkpt lat="43.6937751" lon="11.3954854"><ele>340.0</ele><time>2026-04-19T07:17:05.62Z</time></trkpt><trkpt lat="43.6936861" lon="11.3955239"><ele>340.0</ele><time>2026-04-19T07:17:06.621Z</time></trkpt><trkpt lat="43.6936017" lon="11.3955164"><ele>343.25</ele><time>2026-04-19T07:17:07.649Z</time></trkpt><trkpt lat="43.6935124" lon="11.3954906"><ele>346.5</ele><time>2026-04-19T07:17:08.629Z</time></trkpt><trkpt lat="43.6934105" lon="11.3954177"><ele>349.75</ele><time>2026-04-19T07:17:09.626Z</time></trkpt><trkpt lat="43.6933058" lon="11.3953341"><ele>353.0</ele><time>2026-04-19T07:17:10.636Z</time></trkpt><trkpt lat="43.6931957" lon="11.3952544"><ele>353.0</ele><time>2026-04-19T07:17:11.622Z</time></trkpt><trkpt lat="43.6930875" lon="11.3951852"><ele>353.0</ele><time>2026-04-19T07:17:12.618Z</time></trkpt><trkpt lat="43.6929926" lon="11.3951068"><ele>353.0</ele><time>2026-04-19T07:17:13.621Z</time></trkpt><trkpt lat="43.6929049" lon="11.3950331"><ele>353.0</ele><time>2026-04-19T07:17:14.62Z</time></trkpt><trkpt lat="43.692829" lon="11.3949764"><ele>353.0</ele><time>2026-04-19T07:17:15.642Z</time></trkpt><trkpt lat="43.6927578" lon="11.3949221"><ele>353.2</ele><time>2026-04-19T07:17:16.626Z</time></trkpt><trkpt lat="43.6926884" lon="11.3948474"><ele>353.4</ele><time>2026-04-19T07:17:17.63Z</time></trkpt><trkpt lat="43.6925486" lon="11.3946992"><ele>353.59999999999997</ele><time>2026-04-19T07:17:19.629Z</time></trkpt><trkpt lat="43.6924766" lon="11.3946243"><ele>353.79999999999995</ele><time>2026-04-19T07:17:20.645Z</time></trkpt><trkpt lat="43.6924007" lon="11.3945487"><ele>354.0</ele><time>2026-04-19T07:17:21.629Z</time></trkpt><trkpt lat="43.6923343" lon="11.3944791"><ele>358.79999999999995</ele><time>2026-04-19T07:17:22.631Z</time></trkpt><trkpt lat="43.692266" lon="11.3944079"><ele>363.59999999999997</ele><time>2026-04-19T07:17:23.634Z</time></trkpt><trkpt lat="43.6921961" lon="11.3943296"><ele>368.4</ele><time>2026-04-19T07:17:24.638Z</time></trkpt><trkpt lat="43.6921194" lon="11.3942544"><ele>373.2</ele><time>2026-04-19T07:17:25.715Z</time></trkpt><trkpt lat="43.6920465" lon="11.3941726"><ele>378.0</ele><time>2026-04-19T07:17:26.629Z</time></trkpt><trkpt lat="43.6919776" lon="11.3940961"><ele>377.3333333333333</ele><time>2026-04-19T07:17:27.628Z</time></trkpt><trkpt lat="43.6919214" lon="11.3940191"><ele>376.6666666666667</ele><time>2026-04-19T07:17:28.635Z</time></trkpt><trkpt lat="43.6918785" lon="11.3939213"><ele>376.0</ele><time>2026-04-19T07:17:29.633Z</time></trkpt><trkpt lat="43.6918532" lon="11.393828"><ele>375.33333333333337</ele><time>2026-04-19T07:17:30.627Z</time></trkpt><trkpt lat="43.6918613" lon="11.3936766"><ele>374.6666666666667</ele><time>2026-04-19T07:17:32.635Z</time></trkpt><trkpt lat="43.6919158" lon="11.39362"><ele>374.0</ele><time>2026-04-19T07:17:33.632Z</time></trkpt><trkpt lat="43.6919858" lon="11.3935514"><ele>378.2</ele><time>2026-04-19T07:17:34.638Z</time></trkpt><trkpt lat="43.6920681" lon="11.3934695"><ele>382.4</ele><time>2026-04-19T07:17:35.638Z</time></trkpt><trkpt lat="43.6921552" lon="11.3933804"><ele>386.6</ele><time>2026-04-19T07:17:36.636Z</time></trkpt><trkpt lat="43.6922395" lon="11.3933073"><ele>390.8</ele><time>2026-04-19T07:17:37.652Z</time></trkpt><trkpt lat="43.6923121" lon="11.3932178"><ele>395.0</ele><time>2026-04-19T07:17:38.639Z</time></trkpt><trkpt lat="43.692385" lon="11.3929837"><ele>396.5</ele><time>2026-04-19T07:17:40.641Z</time></trkpt><trkpt lat="43.692393" lon="11.3928402"><ele>398.0</ele><time>2026-04-19T07:17:41.635Z</time></trkpt><trkpt lat="43.6924027" lon="11.392681"><ele>399.5</ele><time>2026-04-19T07:17:42.639Z</time></trkpt><trkpt lat="43.692417" lon="11.3925222"><ele>401.0</ele><time>2026-04-19T07:17:43.642Z</time></trkpt><trkpt lat="43.6924262" lon="11.3923631"><ele>401.0</ele><time>2026-04-19T07:17:44.641Z</time></trkpt><trkpt lat="43.6924298" lon="11.3922006"><ele>401.0</ele><time>2026-04-19T07:17:45.642Z</time></trkpt><trkpt lat="43.6924293" lon="11.3920472"><ele>401.0</ele><time>2026-04-19T07:17:46.632Z</time></trkpt><trkpt lat="43.6924163" lon="11.3919161"><ele>401.0</ele><time>2026-04-19T07:17:47.632Z</time></trkpt><trkpt lat="43.6923892" lon="11.3918035"><ele>401.0</ele><time>2026-04-19T07:17:48.634Z</time></trkpt><trkpt lat="43.6923321" lon="11.3917075"><ele>401.8</ele><time>2026-04-19T07:17:49.621Z</time></trkpt><trkpt lat="43.6922539" lon="11.3916258"><ele>402.6</ele><time>2026-04-19T07:17:50.632Z</time></trkpt><trkpt lat="43.6922007" lon="11.3915116"><ele>403.4</ele><time>2026-04-19T07:17:51.629Z</time></trkpt><trkpt lat="43.6921716" lon="11.3913812"><ele>404.2</ele><time>2026-04-19T07:17:52.632Z</time></trkpt><trkpt lat="43.6921684" lon="11.3912449"><ele>405.0</ele><time>2026-04-19T07:17:53.632Z</time></trkpt><trkpt lat="43.6921907" lon="11.3911164"><ele>405.0</ele><time>2026-04-19T07:17:54.625Z</time></trkpt><trkpt lat="43.6922442" lon="11.3909694"><ele>405.0</ele><time>2026-04-19T07:17:55.63Z</time></trkpt><trkpt lat="43.692297" lon="11.3908245"><ele>405.0</ele><time>2026-04-19T07:17:56.625Z</time></trkpt><trkpt lat="43.6923421" lon="11.3906996"><ele>405.0</ele><time>2026-04-19T07:17:57.62Z</time></trkpt><trkpt lat="43.6924021" lon="11.3905932"><ele>405.0</ele><time>2026-04-19T07:17:58.617Z</time></trkpt><trkpt lat="43.692478" lon="11.3905047"><ele>406.2</ele><time>2026-04-19T07:17:59.615Z</time></trkpt><trkpt lat="43.6926296" lon="11.3903172"><ele>407.4</ele><time>2026-04-19T07:18:01.609Z</time></trkpt><trkpt lat="43.6926734" lon="11.3902311"><ele>408.6</ele><time>2026-04-19T07:18:02.605Z</time></trkpt><trkpt lat="43.6926891" lon="11.390133"><ele>409.8</ele><time>2026-04-19T07:18:03.609Z</time></trkpt><trkpt lat="43.6926845" lon="11.3900368"><ele>411.0</ele><time>2026-04-19T07:18:04.609Z</time></trkpt><trkpt lat="43.6926053" lon="11.3899297"><ele>411.0</ele><time>2026-04-19T07:18:06.612Z</time></trkpt><trkpt lat="43.6925434" lon="11.3899063"><ele>411.0</ele><time>2026-04-19T07:18:07.61Z</time></trkpt><trkpt lat="43.6924482" lon="11.3898873"><ele>411.0</ele><time>2026-04-19T07:18:08.625Z</time></trkpt><trkpt lat="43.6923464" lon="11.3898623"><ele>411.0</ele><time>2026-04-19T07:18:09.607Z</time></trkpt><trkpt lat="43.6922459" lon="11.3898015"><ele>411.0</ele><time>2026-04-19T07:18:10.609Z</time></trkpt><trkpt lat="43.6921399" lon="11.3897321"><ele>411.0</ele><time>2026-04-19T07:18:11.621Z</time></trkpt><trkpt lat="43.6920407" lon="11.3896807"><ele>411.0</ele><time>2026-04-19T07:18:12.615Z</time></trkpt><trkpt lat="43.6919364" lon="11.3896574"><ele>411.0</ele><time>2026-04-19T07:18:13.625Z</time></trkpt><trkpt lat="43.6918424" lon="11.3896278"><ele>411.0</ele><time>2026-04-19T07:18:14.628Z</time></trkpt><trkpt lat="43.6917616" lon="11.3895744"><ele>411.0</ele><time>2026-04-19T07:18:15.624Z</time></trkpt><trkpt lat="43.69169" lon="11.3895034"><ele>412.6666666666667</ele><time>2026-04-19T07:18:16.624Z</time></trkpt><trkpt lat="43.691637" lon="11.3894191"><ele>414.33333333333337</ele><time>2026-04-19T07:18:17.63Z</time></trkpt><trkpt lat="43.6915975" lon="11.3893326"><ele>416.0</ele><time>2026-04-19T07:18:18.62Z</time></trkpt><trkpt lat="43.6915753" lon="11.389232"><ele>417.6666666666667</ele><time>2026-04-19T07:18:19.633Z</time></trkpt><trkpt lat="43.691555" lon="11.3891406"><ele>419.33333333333337</ele><time>2026-04-19T07:18:20.642Z</time></trkpt><trkpt lat="43.6915533" lon="11.3889339"><ele>421.0</ele><time>2026-04-19T07:18:22.629Z</time></trkpt><trkpt lat="43.6915864" lon="11.3888063"><ele>421.1666666666667</ele><time>2026-04-19T07:18:23.648Z</time></trkpt><trkpt lat="43.6916067" lon="11.3886718"><ele>421.33333333333337</ele><time>2026-04-19T07:18:24.641Z</time></trkpt><trkpt lat="43.6916103" lon="11.3885532"><ele>421.5</ele><time>2026-04-19T07:18:25.643Z</time></trkpt><trkpt lat="43.691591" lon="11.3884562"><ele>421.66666666666663</ele><time>2026-04-19T07:18:26.636Z</time></trkpt><trkpt lat="43.6915383" lon="11.3883621"><ele>421.8333333333333</ele><time>2026-04-19T07:18:27.633Z</time></trkpt><trkpt lat="43.6914852" lon="11.3882654"><ele>422.0</ele><time>2026-04-19T07:18:28.641Z</time></trkpt><trkpt lat="43.6914619" lon="11.3881575"><ele>421.99999999999994</ele><time>2026-04-19T07:18:29.638Z</time></trkpt><trkpt lat="43.6914652" lon="11.3880508"><ele>422.0</ele><time>2026-04-19T07:18:30.634Z</time></trkpt><trkpt lat="43.6914902" lon="11.3879449"><ele>422.0</ele><time>2026-04-19T07:18:31.631Z</time></trkpt><trkpt lat="43.691511" lon="11.3878216"><ele>422.0</ele><time>2026-04-19T07:18:32.64Z</time></trkpt><trkpt lat="43.6915379" lon="11.3877092"><ele>421.99999999999994</ele><time>2026-04-19T07:18:33.643Z</time></trkpt><trkpt lat="43.6915589" lon="11.3876034"><ele>422.0</ele><time>2026-04-19T07:18:34.636Z</time></trkpt><trkpt lat="43.6915713" lon="11.3874909"><ele>421.3333333333333</ele><time>2026-04-19T07:18:35.621Z</time></trkpt><trkpt lat="43.6916159" lon="11.3873202"><ele>420.66666666666663</ele><time>2026-04-19T07:18:37.63Z</time></trkpt><trkpt lat="43.6916597" lon="11.387215"><ele>420.0</ele><time>2026-04-19T07:18:38.636Z</time></trkpt><trkpt lat="43.6916905" lon="11.3871151"><ele>419.33333333333337</ele><time>2026-04-19T07:18:39.644Z</time></trkpt><trkpt lat="43.691716" lon="11.3870274"><ele>418.6666666666667</ele><time>2026-04-19T07:18:40.631Z</time></trkpt><trkpt lat="43.6917251" lon="11.3869392"><ele>418.0</ele><time>2026-04-19T07:18:41.628Z</time></trkpt><trkpt lat="43.691667" lon="11.3867764"><ele>418.50000000000006</ele><time>2026-04-19T07:18:43.631Z</time></trkpt><trkpt lat="43.6916253" lon="11.3867011"><ele>419.0</ele><time>2026-04-19T07:18:44.626Z</time></trkpt><trkpt lat="43.6916054" lon="11.386608"><ele>419.5</ele><time>2026-04-19T07:18:45.625Z</time></trkpt><trkpt lat="43.6915867" lon="11.3864883"><ele>420.0</ele><time>2026-04-19T07:18:46.615Z</time></trkpt><trkpt lat="43.6915794" lon="11.3863656"><ele>420.50000000000006</ele><time>2026-04-19T07:18:47.618Z</time></trkpt><trkpt lat="43.6915769" lon="11.3862444"><ele>421.0</ele><time>2026-04-19T07:18:48.618Z</time></trkpt><trkpt lat="43.691566" lon="11.386148"><ele>421.00000000000006</ele><time>2026-04-19T07:18:49.615Z</time></trkpt><trkpt lat="43.6915218" lon="11.3860523"><ele>421.0</ele><time>2026-04-19T07:18:51.616Z</time></trkpt><trkpt lat="43.6914416" lon="11.3860723"><ele>421.0</ele><time>2026-04-19T07:18:54.609Z</time></trkpt><trkpt lat="43.691341" lon="11.3861435"><ele>421.0</ele><time>2026-04-19T07:18:56.603Z</time></trkpt><trkpt lat="43.6912834" lon="11.3861919"><ele>421.00000000000006</ele><time>2026-04-19T07:18:57.607Z</time></trkpt><trkpt lat="43.6912189" lon="11.3862146"><ele>421.0</ele><time>2026-04-19T07:18:58.614Z</time></trkpt><trkpt lat="43.6910879" lon="11.3862592"><ele>422.4</ele><time>2026-04-19T07:19:00.609Z</time></trkpt><trkpt lat="43.691011" lon="11.386297"><ele>423.8</ele><time>2026-04-19T07:19:01.619Z</time></trkpt><trkpt lat="43.6909271" lon="11.3863347"><ele>425.19999999999993</ele><time>2026-04-19T07:19:02.618Z</time></trkpt><trkpt lat="43.6907644" lon="11.3864421"><ele>426.59999999999997</ele><time>2026-04-19T07:19:04.629Z</time></trkpt><trkpt lat="43.6906808" lon="11.3865077"><ele>428.0</ele><time>2026-04-19T07:19:05.624Z</time></trkpt><trkpt lat="43.6905928" lon="11.3865312"><ele>425.8333333333333</ele><time>2026-04-19T07:19:06.62Z</time></trkpt><trkpt lat="43.6905281" lon="11.3865457"><ele>423.66666666666663</ele><time>2026-04-19T07:19:07.631Z</time></trkpt><trkpt lat="43.6904573" lon="11.3865475"><ele>421.5</ele><time>2026-04-19T07:19:08.636Z</time></trkpt><trkpt lat="43.6903896" lon="11.3865191"><ele>419.33333333333337</ele><time>2026-04-19T07:19:09.647Z</time></trkpt><trkpt lat="43.6903202" lon="11.3864755"><ele>417.1666666666667</ele><time>2026-04-19T07:19:10.649Z</time></trkpt><trkpt lat="43.6902586" lon="11.3864249"><ele>415.0</ele><time>2026-04-19T07:19:11.644Z</time></trkpt><trkpt lat="43.6902284" lon="11.3863003"><ele>415.0</ele><time>2026-04-19T07:19:13.651Z</time></trkpt><trkpt lat="43.6902316" lon="11.3861881"><ele>415.0</ele><time>2026-04-19T07:19:15.658Z</time></trkpt><trkpt lat="43.6902635" lon="11.3860927"><ele>415.0</ele><time>2026-04-19T07:19:17.657Z</time></trkpt><trkpt lat="43.6903096" lon="11.3859468"><ele>415.0</ele><time>2026-04-19T07:19:19.653Z</time></trkpt><trkpt lat="43.6903542" lon="11.3858131"><ele>415.0</ele><time>2026-04-19T07:19:21.657Z</time></trkpt><trkpt lat="43.6904045" lon="11.3856585"><ele>418.6666666666667</ele><time>2026-04-19T07:19:23.656Z</time></trkpt><trkpt lat="43.6904654" lon="11.3855002"><ele>422.33333333333337</ele><time>2026-04-19T07:19:25.646Z</time></trkpt><trkpt lat="43.6904813" lon="11.3854049"><ele>426.0</ele><time>2026-04-19T07:19:26.647Z</time></trkpt><trkpt lat="43.6904884" lon="11.3853027"><ele>429.66666666666663</ele><time>2026-04-19T07:19:27.657Z</time></trkpt><trkpt lat="43.6905156" lon="11.3852175"><ele>433.3333333333333</ele><time>2026-04-19T07:19:28.657Z</time></trkpt><trkpt lat="43.6905483" lon="11.385124"><ele>437.0</ele><time>2026-04-19T07:19:29.65Z</time></trkpt><trkpt lat="43.69058" lon="11.3850207"><ele>436.99999999999994</ele><time>2026-04-19T07:19:30.647Z</time></trkpt><trkpt lat="43.6906141" lon="11.3849289"><ele>437.0</ele><time>2026-04-19T07:19:31.644Z</time></trkpt><trkpt lat="43.6906567" lon="11.384857"><ele>437.0</ele><time>2026-04-19T07:19:32.647Z</time></trkpt><trkpt lat="43.6906984" lon="11.3847678"><ele>437.0</ele><time>2026-04-19T07:19:33.644Z</time></trkpt><trkpt lat="43.6907307" lon="11.3846744"><ele>436.99999999999994</ele><time>2026-04-19T07:19:34.636Z</time></trkpt><trkpt lat="43.6907512" lon="11.3845838"><ele>437.0</ele><time>2026-04-19T07:19:35.637Z</time></trkpt><trkpt lat="43.6907536" lon="11.3844483"><ele>438.49999999999994</ele><time>2026-04-19T07:19:37.623Z</time></trkpt><trkpt lat="43.6906878" lon="11.3843378"><ele>440.0</ele><time>2026-04-19T07:19:39.623Z</time></trkpt><trkpt lat="43.6906173" lon="11.384291"><ele>441.5</ele><time>2026-04-19T07:19:40.627Z</time></trkpt><trkpt lat="43.6905387" lon="11.3842536"><ele>443.0</ele><time>2026-04-19T07:19:41.643Z</time></trkpt><trkpt lat="43.690469" lon="11.3842094"><ele>444.49999999999994</ele><time>2026-04-19T07:19:42.621Z</time></trkpt><trkpt lat="43.6904068" lon="11.3841563"><ele>446.0</ele><time>2026-04-19T07:19:43.627Z</time></trkpt><trkpt lat="43.690338" lon="11.3841037"><ele>444.4</ele><time>2026-04-19T07:19:44.631Z</time></trkpt><trkpt lat="43.690195" lon="11.3840185"><ele>442.8</ele><time>2026-04-19T07:19:46.637Z</time></trkpt><trkpt lat="43.6901461" lon="11.3839507"><ele>441.19999999999993</ele><time>2026-04-19T07:19:47.636Z</time></trkpt><trkpt lat="43.690103" lon="11.3838523"><ele>439.59999999999997</ele><time>2026-04-19T07:19:48.631Z</time></trkpt><trkpt lat="43.6900634" lon="11.3837388"><ele>438.0</ele><time>2026-04-19T07:19:49.64Z</time></trkpt><trkpt lat="43.6900277" lon="11.3836287"><ele>438.0</ele><time>2026-04-19T07:19:50.643Z</time></trkpt><trkpt lat="43.6899963" lon="11.3835161"><ele>438.0</ele><time>2026-04-19T07:19:51.637Z</time></trkpt><trkpt lat="43.6899759" lon="11.3834043"><ele>438.0</ele><time>2026-04-19T07:19:52.633Z</time></trkpt><trkpt lat="43.6899597" lon="11.3833043"><ele>438.0</ele><time>2026-04-19T07:19:53.635Z</time></trkpt><trkpt lat="43.6899386" lon="11.3832109"><ele>438.0</ele><time>2026-04-19T07:19:54.62Z</time></trkpt><trkpt lat="43.6899266" lon="11.3830379"><ele>438.0</ele><time>2026-04-19T07:19:56.621Z</time></trkpt><trkpt lat="43.6898667" lon="11.3829082"><ele>438.0</ele><time>2026-04-19T07:19:58.625Z</time></trkpt><trkpt lat="43.6898045" lon="11.3828669"><ele>438.0</ele><time>2026-04-19T07:19:59.619Z</time></trkpt><trkpt lat="43.6897355" lon="11.3828526"><ele>438.0</ele><time>2026-04-19T07:20:00.614Z</time></trkpt><trkpt lat="43.6896651" lon="11.3828704"><ele>438.0</ele><time>2026-04-19T07:20:01.614Z</time></trkpt><trkpt lat="43.6895884" lon="11.3829158"><ele>438.0</ele><time>2026-04-19T07:20:02.618Z</time></trkpt><trkpt lat="43.6895229" lon="11.3829759"><ele>438.0</ele><time>2026-04-19T07:20:03.617Z</time></trkpt><trkpt lat="43.6894613" lon="11.3830537"><ele>437.1666666666667</ele><time>2026-04-19T07:20:04.618Z</time></trkpt><trkpt lat="43.6894029" lon="11.383117"><ele>436.33333333333337</ele><time>2026-04-19T07:20:05.621Z</time></trkpt><trkpt lat="43.6892933" lon="11.3832038"><ele>435.5</ele><time>2026-04-19T07:20:07.626Z</time></trkpt><trkpt lat="43.6892251" lon="11.3832415"><ele>434.6666666666667</ele><time>2026-04-19T07:20:08.629Z</time></trkpt><trkpt lat="43.6891475" lon="11.3832695"><ele>433.83333333333337</ele><time>2026-04-19T07:20:09.628Z</time></trkpt><trkpt lat="43.6890645" lon="11.3832967"><ele>433.0</ele><time>2026-04-19T07:20:10.631Z</time></trkpt><trkpt lat="43.6889837" lon="11.3833195"><ele>433.00000000000006</ele><time>2026-04-19T07:20:11.639Z</time></trkpt><trkpt lat="43.6889027" lon="11.3833166"><ele>433.0</ele><time>2026-04-19T07:20:12.658Z</time></trkpt><trkpt lat="43.6888318" lon="11.3832954"><ele>433.0</ele><time>2026-04-19T07:20:13.648Z</time></trkpt><trkpt lat="43.6887272" lon="11.3831897"><ele>433.0</ele><time>2026-04-19T07:20:15.653Z</time></trkpt><trkpt lat="43.6886606" lon="11.3831221"><ele>433.00000000000006</ele><time>2026-04-19T07:20:16.651Z</time></trkpt><trkpt lat="43.688591" lon="11.3830631"><ele>433.0</ele><time>2026-04-19T07:20:17.652Z</time></trkpt><trkpt lat="43.6885351" lon="11.3829992"><ele>433.85714285714283</ele><time>2026-04-19T07:20:18.649Z</time></trkpt><trkpt lat="43.6884987" lon="11.3829185"><ele>434.7142857142857</ele><time>2026-04-19T07:20:19.643Z</time></trkpt><trkpt lat="43.6884714" lon="11.3828204"><ele>435.57142857142856</ele><time>2026-04-19T07:20:20.649Z</time></trkpt><trkpt lat="43.6884671" lon="11.3827273"><ele>436.42857142857144</ele><time>2026-04-19T07:20:21.651Z</time></trkpt><trkpt lat="43.688469" lon="11.3826234"><ele>437.2857142857143</ele><time>2026-04-19T07:20:22.65Z</time></trkpt><trkpt lat="43.6884789" lon="11.3825143"><ele>438.1428571428571</ele><time>2026-04-19T07:20:23.646Z</time></trkpt><trkpt lat="43.688495" lon="11.382405"><ele>439.0</ele><time>2026-04-19T07:20:24.649Z</time></trkpt><trkpt lat="43.688504" lon="11.3822925"><ele>439.0</ele><time>2026-04-19T07:20:25.654Z</time></trkpt><trkpt lat="43.6884992" lon="11.3821867"><ele>439.0</ele><time>2026-04-19T07:20:26.649Z</time></trkpt><trkpt lat="43.6884379" lon="11.3820103"><ele>439.0</ele><time>2026-04-19T07:20:28.644Z</time></trkpt><trkpt lat="43.6883691" lon="11.3819315"><ele>439.0</ele><time>2026-04-19T07:20:29.632Z</time></trkpt><trkpt lat="43.688274" lon="11.3818539"><ele>439.0</ele><time>2026-04-19T07:20:30.639Z</time></trkpt><trkpt lat="43.6881843" lon="11.381775"><ele>441.4</ele><time>2026-04-19T07:20:31.649Z</time></trkpt><trkpt lat="43.6881109" lon="11.3816847"><ele>443.79999999999995</ele><time>2026-04-19T07:20:32.642Z</time></trkpt><trkpt lat="43.6880401" lon="11.3815794"><ele>446.20000000000005</ele><time>2026-04-19T07:20:33.647Z</time></trkpt><trkpt lat="43.6879733" lon="11.3814735"><ele>448.6</ele><time>2026-04-19T07:20:34.646Z</time></trkpt><trkpt lat="43.6879165" lon="11.3813781"><ele>451.0</ele><time>2026-04-19T07:20:35.644Z</time></trkpt><trkpt lat="43.6878688" lon="11.3812763"><ele>449.20000000000005</ele><time>2026-04-19T07:20:36.642Z</time></trkpt><trkpt lat="43.6878284" lon="11.381159"><ele>447.40000000000003</ele><time>2026-04-19T07:20:37.641Z</time></trkpt><trkpt lat="43.6877747" lon="11.3810424"><ele>445.6</ele><time>2026-04-19T07:20:38.638Z</time></trkpt><trkpt lat="43.6877126" lon="11.3809294"><ele>443.8</ele><time>2026-04-19T07:20:39.642Z</time></trkpt><trkpt lat="43.6876446" lon="11.3808162"><ele>442.0</ele><time>2026-04-19T07:20:40.644Z</time></trkpt><trkpt lat="43.6875847" lon="11.380697"><ele>442.0</ele><time>2026-04-19T07:20:41.65Z</time></trkpt><trkpt lat="43.6875358" lon="11.3805617"><ele>442.00000000000006</ele><time>2026-04-19T07:20:42.648Z</time></trkpt><trkpt lat="43.6874868" lon="11.3804204"><ele>442.00000000000006</ele><time>2026-04-19T07:20:43.662Z</time></trkpt><trkpt lat="43.6874319" lon="11.3802998"><ele>442.0</ele><time>2026-04-19T07:20:44.646Z</time></trkpt><trkpt lat="43.687373" lon="11.3801847"><ele>442.0</ele><time>2026-04-19T07:20:45.646Z</time></trkpt><trkpt lat="43.6873102" lon="11.3800632"><ele>443.20000000000005</ele><time>2026-04-19T07:20:46.649Z</time></trkpt><trkpt lat="43.6872526" lon="11.3799493"><ele>444.40000000000003</ele><time>2026-04-19T07:20:47.649Z</time></trkpt><trkpt lat="43.6871688" lon="11.3797391"><ele>445.59999999999997</ele><time>2026-04-19T07:20:49.637Z</time></trkpt><trkpt lat="43.6871587" lon="11.3796261"><ele>446.79999999999995</ele><time>2026-04-19T07:20:50.644Z</time></trkpt><trkpt lat="43.6871703" lon="11.3795019"><ele>448.0</ele><time>2026-04-19T07:20:51.646Z</time></trkpt><trkpt lat="43.6872039" lon="11.3793828"><ele>448.0</ele><time>2026-04-19T07:20:52.646Z</time></trkpt><trkpt lat="43.6872393" lon="11.3792652"><ele>447.99999999999994</ele><time>2026-04-19T07:20:53.644Z</time></trkpt><trkpt lat="43.6872424" lon="11.379147"><ele>447.99999999999994</ele><time>2026-04-19T07:20:54.632Z</time></trkpt><trkpt lat="43.6872183" lon="11.3790164"><ele>448.0</ele><time>2026-04-19T07:20:55.637Z</time></trkpt><trkpt lat="43.6871788" lon="11.3788884"><ele>448.0</ele><time>2026-04-19T07:20:56.636Z</time></trkpt><trkpt lat="43.687153" lon="11.3787622"><ele>446.33333333333337</ele><time>2026-04-19T07:20:57.631Z</time></trkpt><trkpt lat="43.6871538" lon="11.3786423"><ele>444.6666666666667</ele><time>2026-04-19T07:20:58.629Z</time></trkpt><trkpt lat="43.6871734" lon="11.3785335"><ele>443.0</ele><time>2026-04-19T07:20:59.624Z</time></trkpt><trkpt lat="43.6872215" lon="11.3784507"><ele>441.33333333333337</ele><time>2026-04-19T07:21:00.643Z</time></trkpt><trkpt lat="43.6872984" lon="11.3783951"><ele>439.6666666666667</ele><time>2026-04-19T07:21:01.628Z</time></trkpt><trkpt lat="43.6873938" lon="11.3783425"><ele>438.0</ele><time>2026-04-19T07:21:02.635Z</time></trkpt><trkpt lat="43.6875162" lon="11.3782781"><ele>438.0</ele><time>2026-04-19T07:21:03.617Z</time></trkpt><trkpt lat="43.6876347" lon="11.3782364"><ele>437.99999999999994</ele><time>2026-04-19T07:21:04.626Z</time></trkpt><trkpt lat="43.6877329" lon="11.378221"><ele>437.99999999999994</ele><time>2026-04-19T07:21:05.623Z</time></trkpt><trkpt lat="43.6878284" lon="11.3782257"><ele>438.0</ele><time>2026-04-19T07:21:06.624Z</time></trkpt><trkpt lat="43.6879181" lon="11.3782393"><ele>438.0</ele><time>2026-04-19T07:21:07.624Z</time></trkpt><trkpt lat="43.6880064" lon="11.3782372"><ele>441.75</ele><time>2026-04-19T07:21:08.626Z</time></trkpt><trkpt lat="43.6881802" lon="11.3781408"><ele>445.5</ele><time>2026-04-19T07:21:10.623Z</time></trkpt><trkpt lat="43.6882743" lon="11.3780435"><ele>449.25</ele><time>2026-04-19T07:21:11.619Z</time></trkpt><trkpt lat="43.6883672" lon="11.3779483"><ele>453.0</ele><time>2026-04-19T07:21:12.617Z</time></trkpt><trkpt lat="43.6884405" lon="11.377865"><ele>453.0</ele><time>2026-04-19T07:21:13.617Z</time></trkpt><trkpt lat="43.6884931" lon="11.3777879"><ele>452.99999999999994</ele><time>2026-04-19T07:21:14.625Z</time></trkpt><trkpt lat="43.6885385" lon="11.3777238"><ele>452.99999999999994</ele><time>2026-04-19T07:21:15.624Z</time></trkpt><trkpt lat="43.6885685" lon="11.3776136"><ele>453.0</ele><time>2026-04-19T07:21:17.612Z</time></trkpt><trkpt lat="43.6885553" lon="11.3774781"><ele>453.0</ele><time>2026-04-19T07:21:19.607Z</time></trkpt><trkpt lat="43.6884289" lon="11.377445"><ele>453.0</ele><time>2026-04-19T07:21:21.616Z</time></trkpt><trkpt lat="43.6883545" lon="11.3774298"><ele>453.0</ele><time>2026-04-19T07:21:22.621Z</time></trkpt><trkpt lat="43.6882899" lon="11.3773835"><ele>453.0</ele><time>2026-04-19T07:21:23.621Z</time></trkpt><trkpt lat="43.6882495" lon="11.3772948"><ele>453.0</ele><time>2026-04-19T07:21:24.624Z</time></trkpt><trkpt lat="43.6882136" lon="11.3771989"><ele>453.0</ele><time>2026-04-19T07:21:25.624Z</time></trkpt><trkpt lat="43.688199" lon="11.3770714"><ele>453.0</ele><time>2026-04-19T07:21:26.635Z</time></trkpt><trkpt lat="43.6881789" lon="11.3769451"><ele>457.25</ele><time>2026-04-19T07:21:27.634Z</time></trkpt><trkpt lat="43.6881329" lon="11.3768247"><ele>461.5</ele><time>2026-04-19T07:21:28.64Z</time></trkpt><trkpt lat="43.6880748" lon="11.3767002"><ele>465.75</ele><time>2026-04-19T07:21:29.667Z</time></trkpt><trkpt lat="43.687947" lon="11.376462"><ele>470.0</ele><time>2026-04-19T07:21:31.734Z</time></trkpt><trkpt lat="43.6878799" lon="11.3763357"><ele>468.6</ele><time>2026-04-19T07:21:32.734Z</time></trkpt><trkpt lat="43.6878085" lon="11.3762126"><ele>467.2</ele><time>2026-04-19T07:21:33.731Z</time></trkpt><trkpt lat="43.6877294" lon="11.3760983"><ele>465.79999999999995</ele><time>2026-04-19T07:21:34.725Z</time></trkpt><trkpt lat="43.6876466" lon="11.3759943"><ele>464.4</ele><time>2026-04-19T07:21:35.723Z</time></trkpt><trkpt lat="43.6875645" lon="11.3759032"><ele>463.0</ele><time>2026-04-19T07:21:36.724Z</time></trkpt><trkpt lat="43.6874882" lon="11.3758214"><ele>463.0</ele><time>2026-04-19T07:21:37.723Z</time></trkpt><trkpt lat="43.6873999" lon="11.375724"><ele>462.99999999999994</ele><time>2026-04-19T07:21:38.629Z</time></trkpt><trkpt lat="43.6873467" lon="11.375623"><ele>462.99999999999994</ele><time>2026-04-19T07:21:39.637Z</time></trkpt><trkpt lat="43.687312" lon="11.3755015"><ele>463.0</ele><time>2026-04-19T07:21:40.635Z</time></trkpt><trkpt lat="43.6872948" lon="11.3753607"><ele>463.0</ele><time>2026-04-19T07:21:41.633Z</time></trkpt><trkpt lat="43.6872851" lon="11.3751987"><ele>466.75</ele><time>2026-04-19T07:21:42.639Z</time></trkpt><trkpt lat="43.6872703" lon="11.3750325"><ele>470.5</ele><time>2026-04-19T07:21:43.638Z</time></trkpt><trkpt lat="43.6872485" lon="11.3748808"><ele>474.25</ele><time>2026-04-19T07:21:44.646Z</time></trkpt><trkpt lat="43.6872184" lon="11.3747368"><ele>478.0</ele><time>2026-04-19T07:21:45.652Z</time></trkpt><trkpt lat="43.6871701" lon="11.3745855"><ele>480.25</ele><time>2026-04-19T07:21:46.636Z</time></trkpt><trkpt lat="43.6871146" lon="11.3744456"><ele>482.5</ele><time>2026-04-19T07:21:47.639Z</time></trkpt><trkpt lat="43.68706" lon="11.3743051"><ele>484.75</ele><time>2026-04-19T07:21:48.644Z</time></trkpt><trkpt lat="43.6870197" lon="11.3741605"><ele>487.0</ele><time>2026-04-19T07:21:49.641Z</time></trkpt><trkpt lat="43.6869778" lon="11.3740152"><ele>481.0</ele><time>2026-04-19T07:21:50.648Z</time></trkpt><trkpt lat="43.6868808" lon="11.3737438"><ele>475.0</ele><time>2026-04-19T07:21:52.636Z</time></trkpt><trkpt lat="43.6868437" lon="11.3736081"><ele>469.0</ele><time>2026-04-19T07:21:53.641Z</time></trkpt><trkpt lat="43.6868186" lon="11.3734774"><ele>463.0</ele><time>2026-04-19T07:21:54.633Z</time></trkpt><trkpt lat="43.6868102" lon="11.373365"><ele>463.00000000000006</ele><time>2026-04-19T07:21:55.635Z</time></trkpt><trkpt lat="43.6868183" lon="11.3732597"><ele>463.0</ele><time>2026-04-19T07:21:56.635Z</time></trkpt><trkpt lat="43.6868519" lon="11.3731662"><ele>463.0</ele><time>2026-04-19T07:21:57.629Z</time></trkpt><trkpt lat="43.6869178" lon="11.3730828"><ele>463.0</ele><time>2026-04-19T07:21:58.648Z</time></trkpt><trkpt lat="43.6870123" lon="11.3730341"><ele>463.00000000000006</ele><time>2026-04-19T07:21:59.637Z</time></trkpt><trkpt lat="43.6871139" lon="11.3730204"><ele>463.0</ele><time>2026-04-19T07:22:00.64Z</time></trkpt><trkpt lat="43.6872251" lon="11.3730231"><ele>466.0</ele><time>2026-04-19T07:22:01.633Z</time></trkpt><trkpt lat="43.6873475" lon="11.3730277"><ele>468.99999999999994</ele><time>2026-04-19T07:22:02.626Z</time></trkpt><trkpt lat="43.6874547" lon="11.3730181"><ele>471.99999999999994</ele><time>2026-04-19T07:22:03.63Z</time></trkpt><trkpt lat="43.6875573" lon="11.373022"><ele>475.0</ele><time>2026-04-19T07:22:04.641Z</time></trkpt><trkpt lat="43.6876354" lon="11.3730314"><ele>478.0</ele><time>2026-04-19T07:22:05.626Z</time></trkpt><trkpt lat="43.6877412" lon="11.3730107"><ele>478.0</ele><time>2026-04-19T07:22:07.623Z</time></trkpt><trkpt lat="43.6877746" lon="11.3729128"><ele>477.99999999999994</ele><time>2026-04-19T07:22:09.632Z</time></trkpt><trkpt lat="43.6877506" lon="11.3728237"><ele>477.99999999999994</ele><time>2026-04-19T07:22:10.626Z</time></trkpt><trkpt lat="43.6876919" lon="11.3727297"><ele>478.0</ele><time>2026-04-19T07:22:11.627Z</time></trkpt><trkpt lat="43.687605" lon="11.3724926"><ele>478.0</ele><time>2026-04-19T07:22:13.637Z</time></trkpt><trkpt lat="43.6875722" lon="11.3724037"><ele>478.0</ele><time>2026-04-19T07:22:14.633Z</time></trkpt><trkpt lat="43.6875739" lon="11.3722722"><ele>477.99999999999994</ele><time>2026-04-19T07:22:16.648Z</time></trkpt><trkpt lat="43.6876832" lon="11.3722052"><ele>477.99999999999994</ele><time>2026-04-19T07:22:18.639Z</time></trkpt><trkpt lat="43.6877687" lon="11.3722065"><ele>478.0</ele><time>2026-04-19T07:22:19.635Z</time></trkpt><trkpt lat="43.6878576" lon="11.3722102"><ele>478.0</ele><time>2026-04-19T07:22:20.636Z</time></trkpt><trkpt lat="43.6879399" lon="11.3722055"><ele>479.00000000000006</ele><time>2026-04-19T07:22:21.626Z</time></trkpt><trkpt lat="43.6880274" lon="11.3722004"><ele>480.0</ele><time>2026-04-19T07:22:22.629Z</time></trkpt><trkpt lat="43.688107" lon="11.3721959"><ele>481.0</ele><time>2026-04-19T07:22:23.63Z</time></trkpt><trkpt lat="43.6881754" lon="11.3721886"><ele>482.0</ele><time>2026-04-19T07:22:24.626Z</time></trkpt><trkpt lat="43.6882794" lon="11.3721664"><ele>483.00000000000006</ele><time>2026-04-19T07:22:26.629Z</time></trkpt><trkpt lat="43.6883512" lon="11.3720877"><ele>484.0</ele><time>2026-04-19T07:22:28.627Z</time></trkpt><trkpt lat="43.6883599" lon="11.371971"><ele>484.0</ele><time>2026-04-19T07:22:30.612Z</time></trkpt><trkpt lat="43.6883056" lon="11.3718147"><ele>484.0</ele><time>2026-04-19T07:22:32.621Z</time></trkpt><trkpt lat="43.6882319" lon="11.3716643"><ele>484.0</ele><time>2026-04-19T07:22:34.623Z</time></trkpt><trkpt lat="43.6881692" lon="11.3715189"><ele>484.0</ele><time>2026-04-19T07:22:36.618Z</time></trkpt><trkpt lat="43.6881193" lon="11.3713809"><ele>486.4</ele><time>2026-04-19T07:22:38.625Z</time></trkpt><trkpt lat="43.6880706" lon="11.3712508"><ele>488.79999999999995</ele><time>2026-04-19T07:22:40.631Z</time></trkpt><trkpt lat="43.6880168" lon="11.3711319"><ele>491.20000000000005</ele><time>2026-04-19T07:22:42.633Z</time></trkpt><trkpt lat="43.6879731" lon="11.3710263"><ele>493.6</ele><time>2026-04-19T07:22:44.637Z</time></trkpt><trkpt lat="43.6879049" lon="11.370967"><ele>496.0</ele><time>2026-04-19T07:22:46.644Z</time></trkpt><trkpt lat="43.6878153" lon="11.370946"><ele>491.20000000000005</ele><time>2026-04-19T07:22:48.639Z</time></trkpt><trkpt lat="43.687734" lon="11.3709004"><ele>486.40000000000003</ele><time>2026-04-19T07:22:50.65Z</time></trkpt><trkpt lat="43.6876394" lon="11.3708257"><ele>481.6</ele><time>2026-04-19T07:22:52.638Z</time></trkpt><trkpt lat="43.6875546" lon="11.3707813"><ele>476.8</ele><time>2026-04-19T07:22:54.645Z</time></trkpt><trkpt lat="43.6874354" lon="11.3706483"><ele>472.0</ele><time>2026-04-19T07:23:01.662Z</time></trkpt><trkpt lat="43.6875133" lon="11.3706259"><ele>472.0</ele><time>2026-04-19T07:30:33.654Z</time></trkpt><trkpt lat="43.6876524" lon="11.3706414"><ele>472.00000000000006</ele><time>2026-04-19T07:30:43.66Z</time></trkpt><trkpt lat="43.6876941" lon="11.370575"><ele>472.00000000000006</ele><time>2026-04-19T07:30:57.654Z</time></trkpt><trkpt lat="43.6876778" lon="11.3703553"><ele>472.0</ele><time>2026-04-19T07:31:00.648Z</time></trkpt><trkpt lat="43.6876957" lon="11.3702668"><ele>472.0</ele><time>2026-04-19T07:31:01.649Z</time></trkpt><trkpt lat="43.6877309" lon="11.370177"><ele>474.33333333333337</ele><time>2026-04-19T07:31:02.657Z</time></trkpt><trkpt lat="43.6877747" lon="11.3700747"><ele>476.6666666666667</ele><time>2026-04-19T07:31:03.65Z</time></trkpt><trkpt lat="43.687817" lon="11.3699724"><ele>479.0</ele><time>2026-04-19T07:31:04.651Z</time></trkpt><trkpt lat="43.6878419" lon="11.3698676"><ele>481.33333333333337</ele><time>2026-04-19T07:31:05.658Z</time></trkpt><trkpt lat="43.6878691" lon="11.3697748"><ele>483.6666666666667</ele><time>2026-04-19T07:31:06.65Z</time></trkpt><trkpt lat="43.6879063" lon="11.3696824"><ele>486.0</ele><time>2026-04-19T07:31:07.651Z</time></trkpt><trkpt lat="43.6879583" lon="11.3695735"><ele>486.0</ele><time>2026-04-19T07:31:08.636Z</time></trkpt><trkpt lat="43.688017" lon="11.3694686"><ele>486.0</ele><time>2026-04-19T07:31:09.647Z</time></trkpt><trkpt lat="43.6880808" lon="11.3693709"><ele>486.0</ele><time>2026-04-19T07:31:10.65Z</time></trkpt><trkpt lat="43.6881512" lon="11.3692889"><ele>486.0</ele><time>2026-04-19T07:31:11.648Z</time></trkpt><trkpt lat="43.6882335" lon="11.3692186"><ele>486.0</ele><time>2026-04-19T07:31:12.648Z</time></trkpt><trkpt lat="43.6883239" lon="11.3691448"><ele>486.0</ele><time>2026-04-19T07:31:13.647Z</time></trkpt><trkpt lat="43.6884083" lon="11.3690598"><ele>486.0</ele><time>2026-04-19T07:31:14.639Z</time></trkpt><trkpt lat="43.6884981" lon="11.3689724"><ele>486.0</ele><time>2026-04-19T07:31:15.638Z</time></trkpt><trkpt lat="43.6885942" lon="11.368871"><ele>486.0</ele><time>2026-04-19T07:31:16.643Z</time></trkpt><trkpt lat="43.6886877" lon="11.3687792"><ele>482.5</ele><time>2026-04-19T07:31:17.64Z</time></trkpt><trkpt lat="43.6887824" lon="11.3687138"><ele>479.0</ele><time>2026-04-19T07:31:18.634Z</time></trkpt><trkpt lat="43.6889668" lon="11.3686494"><ele>475.5</ele><time>2026-04-19T07:31:20.637Z</time></trkpt><trkpt lat="43.6890678" lon="11.3686404"><ele>472.0</ele><time>2026-04-19T07:31:21.639Z</time></trkpt><trkpt lat="43.6891697" lon="11.3686458"><ele>472.0</ele><time>2026-04-19T07:31:22.646Z</time></trkpt><trkpt lat="43.6892654" lon="11.3686513"><ele>472.00000000000006</ele><time>2026-04-19T07:31:23.644Z</time></trkpt><trkpt lat="43.6893612" lon="11.3686624"><ele>472.00000000000006</ele><time>2026-04-19T07:31:24.634Z</time></trkpt><trkpt lat="43.6894472" lon="11.3686942"><ele>472.0</ele><time>2026-04-19T07:31:25.642Z</time></trkpt><trkpt lat="43.689533" lon="11.3687447"><ele>472.0</ele><time>2026-04-19T07:31:26.64Z</time></trkpt><trkpt lat="43.6896199" lon="11.3687992"><ele>471.20000000000005</ele><time>2026-04-19T07:31:27.639Z</time></trkpt><trkpt lat="43.6897036" lon="11.3688415"><ele>470.40000000000003</ele><time>2026-04-19T07:31:28.648Z</time></trkpt><trkpt lat="43.6897861" lon="11.3688844"><ele>469.59999999999997</ele><time>2026-04-19T07:31:29.642Z</time></trkpt><trkpt lat="43.6898526" lon="11.3689427"><ele>468.79999999999995</ele><time>2026-04-19T07:31:30.639Z</time></trkpt><trkpt lat="43.6899277" lon="11.3690287"><ele>468.0</ele><time>2026-04-19T07:31:31.639Z</time></trkpt><trkpt lat="43.6900097" lon="11.3691369"><ele>471.4</ele><time>2026-04-19T07:31:32.636Z</time></trkpt><trkpt lat="43.6900894" lon="11.3692317"><ele>474.79999999999995</ele><time>2026-04-19T07:31:33.649Z</time></trkpt><trkpt lat="43.6901723" lon="11.3692985"><ele>478.2</ele><time>2026-04-19T07:31:34.64Z</time></trkpt><trkpt lat="43.6902545" lon="11.3693602"><ele>481.6</ele><time>2026-04-19T07:31:35.639Z</time></trkpt><trkpt lat="43.6903293" lon="11.369385"><ele>485.0</ele><time>2026-04-19T07:31:36.646Z</time></trkpt><trkpt lat="43.6904224" lon="11.3693742"><ele>485.0</ele><time>2026-04-19T07:31:37.633Z</time></trkpt><trkpt lat="43.690515" lon="11.3693686"><ele>485.0</ele><time>2026-04-19T07:31:38.64Z</time></trkpt><trkpt lat="43.6906123" lon="11.3693836"><ele>485.0</ele><time>2026-04-19T07:31:39.643Z</time></trkpt><trkpt lat="43.6908176" lon="11.3694787"><ele>485.0</ele><time>2026-04-19T07:31:41.637Z</time></trkpt><trkpt lat="43.6909314" lon="11.369538"><ele>485.0</ele><time>2026-04-19T07:31:42.641Z</time></trkpt><trkpt lat="43.6910409" lon="11.3695987"><ele>485.0</ele><time>2026-04-19T07:31:43.641Z</time></trkpt><trkpt lat="43.691128" lon="11.3696584"><ele>485.0</ele><time>2026-04-19T07:31:44.637Z</time></trkpt><trkpt lat="43.6911984" lon="11.3697056"><ele>485.0</ele><time>2026-04-19T07:31:45.637Z</time></trkpt><trkpt lat="43.6912797" lon="11.3697164"><ele>485.0</ele><time>2026-04-19T07:31:47.641Z</time></trkpt><trkpt lat="43.6913118" lon="11.3695325"><ele>489.25</ele><time>2026-04-19T07:31:49.64Z</time></trkpt><trkpt lat="43.6913025" lon="11.369387"><ele>493.5</ele><time>2026-04-19T07:31:50.631Z</time></trkpt><trkpt lat="43.6912826" lon="11.3692339"><ele>497.75</ele><time>2026-04-19T07:31:51.628Z</time></trkpt><trkpt lat="43.6912587" lon="11.3690642"><ele>502.0</ele><time>2026-04-19T07:31:52.638Z</time></trkpt><trkpt lat="43.6912453" lon="11.3689153"><ele>498.40000000000003</ele><time>2026-04-19T07:31:53.634Z</time></trkpt><trkpt lat="43.6912419" lon="11.368768"><ele>494.80000000000007</ele><time>2026-04-19T07:31:54.634Z</time></trkpt><trkpt lat="43.691244" lon="11.3686228"><ele>491.2</ele><time>2026-04-19T07:31:55.641Z</time></trkpt><trkpt lat="43.6912558" lon="11.3685086"><ele>487.6</ele><time>2026-04-19T07:31:56.65Z</time></trkpt><trkpt lat="43.691299" lon="11.3684352"><ele>484.0</ele><time>2026-04-19T07:31:58.643Z</time></trkpt><trkpt lat="43.6914233" lon="11.3684343"><ele>484.0</ele><time>2026-04-19T07:32:00.644Z</time></trkpt><trkpt lat="43.6916058" lon="11.3684924"><ele>484.0</ele><time>2026-04-19T07:32:02.644Z</time></trkpt><trkpt lat="43.6916906" lon="11.3685369"><ele>484.0</ele><time>2026-04-19T07:32:03.648Z</time></trkpt><trkpt lat="43.6917702" lon="11.3685806"><ele>484.0</ele><time>2026-04-19T07:32:04.653Z</time></trkpt><trkpt lat="43.6918442" lon="11.3686221"><ele>484.0</ele><time>2026-04-19T07:32:05.641Z</time></trkpt><trkpt lat="43.6919108" lon="11.3686677"><ele>483.83333333333337</ele><time>2026-04-19T07:32:06.648Z</time></trkpt><trkpt lat="43.6919685" lon="11.3687175"><ele>483.6666666666667</ele><time>2026-04-19T07:32:07.645Z</time></trkpt><trkpt lat="43.692029" lon="11.3687854"><ele>483.5</ele><time>2026-04-19T07:32:08.646Z</time></trkpt><trkpt lat="43.692096" lon="11.3688537"><ele>483.33333333333337</ele><time>2026-04-19T07:32:09.642Z</time></trkpt><trkpt lat="43.6921701" lon="11.3689086"><ele>483.1666666666667</ele><time>2026-04-19T07:32:10.644Z</time></trkpt><trkpt lat="43.6922526" lon="11.3689574"><ele>483.0</ele><time>2026-04-19T07:32:11.636Z</time></trkpt><trkpt lat="43.6923337" lon="11.3690139"><ele>487.4</ele><time>2026-04-19T07:32:12.643Z</time></trkpt><trkpt lat="43.6924098" lon="11.3690706"><ele>491.79999999999995</ele><time>2026-04-19T07:32:13.641Z</time></trkpt><trkpt lat="43.6924804" lon="11.3691136"><ele>496.2</ele><time>2026-04-19T07:32:14.645Z</time></trkpt><trkpt lat="43.6926056" lon="11.3691069"><ele>500.6</ele><time>2026-04-19T07:32:16.638Z</time></trkpt><trkpt lat="43.6927138" lon="11.368991"><ele>505.0</ele><time>2026-04-19T07:32:18.646Z</time></trkpt><trkpt lat="43.6927654" lon="11.3689322"><ele>505.25</ele><time>2026-04-19T07:32:19.647Z</time></trkpt><trkpt lat="43.6928594" lon="11.3688721"><ele>505.5</ele><time>2026-04-19T07:32:21.647Z</time></trkpt><trkpt lat="43.6930658" lon="11.3689296"><ele>505.75</ele><time>2026-04-19T07:32:25.646Z</time></trkpt><trkpt lat="43.6931982" lon="11.3689578"><ele>506.0</ele><time>2026-04-19T07:32:27.646Z</time></trkpt><trkpt lat="43.6932794" lon="11.3689569"><ele>505.99999999999994</ele><time>2026-04-19T07:32:28.658Z</time></trkpt><trkpt lat="43.6933642" lon="11.3689675"><ele>506.0</ele><time>2026-04-19T07:32:29.646Z</time></trkpt><trkpt lat="43.6934479" lon="11.3689849"><ele>506.0</ele><time>2026-04-19T07:32:30.648Z</time></trkpt><trkpt lat="43.6935289" lon="11.3690085"><ele>506.0</ele><time>2026-04-19T07:32:31.647Z</time></trkpt><trkpt lat="43.6935987" lon="11.3690341"><ele>505.99999999999994</ele><time>2026-04-19T07:32:32.641Z</time></trkpt><trkpt lat="43.693672" lon="11.3690759"><ele>506.0</ele><time>2026-04-19T07:32:33.637Z</time></trkpt><trkpt lat="43.6937497" lon="11.3691148"><ele>506.99999999999994</ele><time>2026-04-19T07:32:34.645Z</time></trkpt><trkpt lat="43.6938269" lon="11.3691545"><ele>508.0</ele><time>2026-04-19T07:32:35.652Z</time></trkpt><trkpt lat="43.6938963" lon="11.3691672"><ele>509.0</ele><time>2026-04-19T07:32:36.643Z</time></trkpt><trkpt lat="43.6939617" lon="11.369149"><ele>510.0</ele><time>2026-04-19T07:32:37.637Z</time></trkpt><trkpt lat="43.6940305" lon="11.3690887"><ele>510.99999999999994</ele><time>2026-04-19T07:32:38.634Z</time></trkpt><trkpt lat="43.6941131" lon="11.3689961"><ele>512.0</ele><time>2026-04-19T07:32:39.632Z</time></trkpt><trkpt lat="43.694192" lon="11.3689254"><ele>512.0</ele><time>2026-04-19T07:32:40.633Z</time></trkpt><trkpt lat="43.6942704" lon="11.3688642"><ele>512.0</ele><time>2026-04-19T07:32:41.633Z</time></trkpt><trkpt lat="43.6943423" lon="11.3687962"><ele>512.0</ele><time>2026-04-19T07:32:42.635Z</time></trkpt><trkpt lat="43.6944846" lon="11.3686944"><ele>512.0</ele><time>2026-04-19T07:32:44.636Z</time></trkpt><trkpt lat="43.6945897" lon="11.3686638"><ele>512.0</ele><time>2026-04-19T07:32:46.636Z</time></trkpt><trkpt lat="43.6946532" lon="11.3686683"><ele>510.99999999999994</ele><time>2026-04-19T07:32:47.638Z</time></trkpt><trkpt lat="43.6947271" lon="11.3686483"><ele>510.0</ele><time>2026-04-19T07:32:48.642Z</time></trkpt><trkpt lat="43.6948051" lon="11.3686115"><ele>509.0</ele><time>2026-04-19T07:32:49.646Z</time></trkpt><trkpt lat="43.6948824" lon="11.3685941"><ele>508.0</ele><time>2026-04-19T07:32:50.646Z</time></trkpt><trkpt lat="43.6949557" lon="11.3685934"><ele>506.99999999999994</ele><time>2026-04-19T07:32:51.647Z</time></trkpt><trkpt lat="43.6950237" lon="11.3686115"><ele>506.0</ele><time>2026-04-19T07:32:52.638Z</time></trkpt><trkpt lat="43.6950987" lon="11.3686499"><ele>505.99999999999994</ele><time>2026-04-19T07:32:53.638Z</time></trkpt><trkpt lat="43.695184" lon="11.3686938"><ele>506.0</ele><time>2026-04-19T07:32:54.63Z</time></trkpt><trkpt lat="43.6952685" lon="11.368745"><ele>506.0</ele><time>2026-04-19T07:32:55.638Z</time></trkpt><trkpt lat="43.6953427" lon="11.3687838"><ele>506.0</ele><time>2026-04-19T07:32:56.633Z</time></trkpt><trkpt lat="43.6954146" lon="11.3688134"><ele>505.99999999999994</ele><time>2026-04-19T07:32:57.629Z</time></trkpt><trkpt lat="43.6954956" lon="11.3687947"><ele>506.0</ele><time>2026-04-19T07:32:59.628Z</time></trkpt><trkpt lat="43.6955415" lon="11.3686794"><ele>510.6</ele><time>2026-04-19T07:33:01.631Z</time></trkpt><trkpt lat="43.6955572" lon="11.3685878"><ele>515.2</ele><time>2026-04-19T07:33:15.634Z</time></trkpt><trkpt lat="43.695479" lon="11.3683135"><ele>519.8</ele><time>2026-04-19T07:34:12.626Z</time></trkpt><trkpt lat="43.695446" lon="11.3682043"><ele>524.4</ele><time>2026-04-19T07:34:13.624Z</time></trkpt><trkpt lat="43.6954301" lon="11.3681073"><ele>529.0</ele><time>2026-04-19T07:34:14.629Z</time></trkpt><trkpt lat="43.695425" lon="11.3679878"><ele>529.0</ele><time>2026-04-19T07:34:15.623Z</time></trkpt><trkpt lat="43.6954086" lon="11.3678822"><ele>529.0</ele><time>2026-04-19T07:34:16.621Z</time></trkpt><trkpt lat="43.6953756" lon="11.367772"><ele>529.0</ele><time>2026-04-19T07:34:17.621Z</time></trkpt><trkpt lat="43.6953392" lon="11.367639"><ele>529.0</ele><time>2026-04-19T07:34:18.63Z</time></trkpt><trkpt lat="43.6953114" lon="11.367511"><ele>529.0</ele><time>2026-04-19T07:34:19.631Z</time></trkpt><trkpt lat="43.6952883" lon="11.3673808"><ele>529.0</ele><time>2026-04-19T07:34:20.638Z</time></trkpt><trkpt lat="43.6952647" lon="11.3672564"><ele>529.0</ele><time>2026-04-19T07:34:21.631Z</time></trkpt><trkpt lat="43.6952446" lon="11.3671392"><ele>529.0</ele><time>2026-04-19T07:34:22.635Z</time></trkpt><trkpt lat="43.6952238" lon="11.3670445"><ele>529.0</ele><time>2026-04-19T07:34:23.638Z</time></trkpt><trkpt lat="43.6952148" lon="11.3669524"><ele>529.0</ele><time>2026-04-19T07:34:24.627Z</time></trkpt><trkpt lat="43.695219" lon="11.3668643"><ele>529.0</ele><time>2026-04-19T07:34:25.644Z</time></trkpt><trkpt lat="43.6952484" lon="11.3667789"><ele>525.5</ele><time>2026-04-19T07:34:26.633Z</time></trkpt><trkpt lat="43.6952954" lon="11.3666954"><ele>522.0</ele><time>2026-04-19T07:34:27.63Z</time></trkpt><trkpt lat="43.6953859" lon="11.366608"><ele>518.5</ele><time>2026-04-19T07:34:28.642Z</time></trkpt><trkpt lat="43.6955554" lon="11.3664666"><ele>515.0</ele><time>2026-04-19T07:34:30.636Z</time></trkpt><trkpt lat="43.695641" lon="11.3663849"><ele>513.8333333333333</ele><time>2026-04-19T07:34:31.64Z</time></trkpt><trkpt lat="43.6957114" lon="11.3663164"><ele>512.6666666666666</ele><time>2026-04-19T07:34:32.638Z</time></trkpt><trkpt lat="43.6957786" lon="11.3662504"><ele>511.5</ele><time>2026-04-19T07:34:33.632Z</time></trkpt><trkpt lat="43.6958248" lon="11.3661569"><ele>510.33333333333337</ele><time>2026-04-19T07:34:34.629Z</time></trkpt><trkpt lat="43.6958479" lon="11.3660392"><ele>509.1666666666667</ele><time>2026-04-19T07:34:35.632Z</time></trkpt><trkpt lat="43.6958614" lon="11.3659132"><ele>508.0</ele><time>2026-04-19T07:34:36.633Z</time></trkpt><trkpt lat="43.6958888" lon="11.3657955"><ele>508.0</ele><time>2026-04-19T07:34:37.634Z</time></trkpt><trkpt lat="43.6959109" lon="11.3656804"><ele>508.0</ele><time>2026-04-19T07:34:38.636Z</time></trkpt><trkpt lat="43.6959261" lon="11.3655691"><ele>508.0</ele><time>2026-04-19T07:34:39.654Z</time></trkpt><trkpt lat="43.6959429" lon="11.3654713"><ele>508.0</ele><time>2026-04-19T07:34:40.642Z</time></trkpt><trkpt lat="43.6959653" lon="11.3653817"><ele>508.0</ele><time>2026-04-19T07:34:41.644Z</time></trkpt><trkpt lat="43.6959837" lon="11.3652959"><ele>508.0</ele><time>2026-04-19T07:34:42.634Z</time></trkpt><trkpt lat="43.6959721" lon="11.3652091"><ele>508.0</ele><time>2026-04-19T07:34:43.636Z</time></trkpt><trkpt lat="43.6959453" lon="11.3651199"><ele>508.83333333333337</ele><time>2026-04-19T07:34:44.632Z</time></trkpt><trkpt lat="43.6958968" lon="11.3650159"><ele>509.6666666666667</ele><time>2026-04-19T07:34:45.617Z</time></trkpt><trkpt lat="43.6958341" lon="11.3649185"><ele>510.5</ele><time>2026-04-19T07:34:46.629Z</time></trkpt><trkpt lat="43.69579" lon="11.3648068"><ele>511.33333333333337</ele><time>2026-04-19T07:34:47.625Z</time></trkpt><trkpt lat="43.6957543" lon="11.3646952"><ele>512.1666666666666</ele><time>2026-04-19T07:34:48.626Z</time></trkpt><trkpt lat="43.695711" lon="11.3645945"><ele>513.0</ele><time>2026-04-19T07:34:49.628Z</time></trkpt><trkpt lat="43.6955958" lon="11.3644223"><ele>514.4</ele><time>2026-04-19T07:34:51.636Z</time></trkpt><trkpt lat="43.6955165" lon="11.3643636"><ele>515.8</ele><time>2026-04-19T07:34:52.629Z</time></trkpt><trkpt lat="43.6954448" lon="11.3642772"><ele>517.2</ele><time>2026-04-19T07:34:53.634Z</time></trkpt><trkpt lat="43.6953867" lon="11.3641709"><ele>518.6</ele><time>2026-04-19T07:34:54.633Z</time></trkpt><trkpt lat="43.695326" lon="11.3640495"><ele>520.0</ele><time>2026-04-19T07:34:55.634Z</time></trkpt><trkpt lat="43.6952635" lon="11.3639404"><ele>515.4</ele><time>2026-04-19T07:34:56.628Z</time></trkpt><trkpt lat="43.6951959" lon="11.3638438"><ele>510.8</ele><time>2026-04-19T07:34:57.629Z</time></trkpt><trkpt lat="43.6951205" lon="11.3637577"><ele>506.20000000000005</ele><time>2026-04-19T07:34:58.637Z</time></trkpt><trkpt lat="43.6950535" lon="11.3636704"><ele>501.6</ele><time>2026-04-19T07:34:59.635Z</time></trkpt><trkpt lat="43.695002" lon="11.3635784"><ele>497.0</ele><time>2026-04-19T07:35:00.631Z</time></trkpt><trkpt lat="43.6949508" lon="11.3634877"><ele>497.0</ele><time>2026-04-19T07:35:01.635Z</time></trkpt><trkpt lat="43.6949097" lon="11.3633965"><ele>497.0</ele><time>2026-04-19T07:35:02.638Z</time></trkpt><trkpt lat="43.6948672" lon="11.3632912"><ele>497.0</ele><time>2026-04-19T07:35:03.64Z</time></trkpt><trkpt lat="43.6948368" lon="11.3632005"><ele>497.0</ele><time>2026-04-19T07:35:04.639Z</time></trkpt><trkpt lat="43.6948136" lon="11.3631109"><ele>497.0</ele><time>2026-04-19T07:35:05.64Z</time></trkpt><trkpt lat="43.694791" lon="11.3630131"><ele>497.0</ele><time>2026-04-19T07:35:06.639Z</time></trkpt><trkpt lat="43.6947678" lon="11.3629259"><ele>497.0</ele><time>2026-04-19T07:35:07.643Z</time></trkpt><trkpt lat="43.6946784" lon="11.362811"><ele>497.0</ele><time>2026-04-19T07:35:09.631Z</time></trkpt><trkpt lat="43.6946175" lon="11.3627759"><ele>497.0</ele><time>2026-04-19T07:35:10.658Z</time></trkpt><trkpt lat="43.6943739" lon="11.3626579"><ele>497.0</ele><time>2026-04-19T07:35:14.65Z</time></trkpt><trkpt lat="43.694308" lon="11.3626122"><ele>497.0</ele><time>2026-04-19T07:35:15.65Z</time></trkpt><trkpt lat="43.6942388" lon="11.362573"><ele>493.66666666666663</ele><time>2026-04-19T07:35:16.658Z</time></trkpt><trkpt lat="43.6941705" lon="11.3625467"><ele>490.3333333333333</ele><time>2026-04-19T07:35:17.648Z</time></trkpt><trkpt lat="43.6940999" lon="11.3625302"><ele>487.0</ele><time>2026-04-19T07:35:18.647Z</time></trkpt><trkpt lat="43.6939868" lon="11.3625338"><ele>483.66666666666663</ele><time>2026-04-19T07:35:20.654Z</time></trkpt><trkpt lat="43.693921" lon="11.3624742"><ele>480.3333333333333</ele><time>2026-04-19T07:35:22.638Z</time></trkpt><trkpt lat="43.6939338" lon="11.3623565"><ele>477.0</ele><time>2026-04-19T07:35:24.654Z</time></trkpt><trkpt lat="43.6939938" lon="11.362235"><ele>475.40000000000003</ele><time>2026-04-19T07:35:26.663Z</time></trkpt><trkpt lat="43.6940403" lon="11.3621359"><ele>473.80000000000007</ele><time>2026-04-19T07:35:28.655Z</time></trkpt><trkpt lat="43.6940691" lon="11.3620565"><ele>472.2</ele><time>2026-04-19T07:35:30.654Z</time></trkpt><trkpt lat="43.6941012" lon="11.3619379"><ele>470.6</ele><time>2026-04-19T07:35:32.658Z</time></trkpt><trkpt lat="43.6941713" lon="11.3617019"><ele>469.0</ele><time>2026-04-19T07:35:35.646Z</time></trkpt><trkpt lat="43.6941783" lon="11.3616127"><ele>469.00000000000006</ele><time>2026-04-19T07:35:36.642Z</time></trkpt><trkpt lat="43.6941803" lon="11.3614345"><ele>469.0</ele><time>2026-04-19T07:35:38.638Z</time></trkpt><trkpt lat="43.6942014" lon="11.3613351"><ele>469.0</ele><time>2026-04-19T07:35:39.64Z</time></trkpt><trkpt lat="43.6942113" lon="11.3612179"><ele>469.0</ele><time>2026-04-19T07:35:40.644Z</time></trkpt><trkpt lat="43.6942279" lon="11.3611183"><ele>469.00000000000006</ele><time>2026-04-19T07:35:41.654Z</time></trkpt><trkpt lat="43.6942365" lon="11.3610221"><ele>469.0</ele><time>2026-04-19T07:35:42.642Z</time></trkpt><trkpt lat="43.6942459" lon="11.3609306"><ele>469.7142857142857</ele><time>2026-04-19T07:35:43.646Z</time></trkpt><trkpt lat="43.6942611" lon="11.3608398"><ele>470.42857142857144</ele><time>2026-04-19T07:35:44.645Z</time></trkpt><trkpt lat="43.6942648" lon="11.3607495"><ele>471.1428571428571</ele><time>2026-04-19T07:35:45.645Z</time></trkpt><trkpt lat="43.6942822" lon="11.3606461"><ele>471.85714285714283</ele><time>2026-04-19T07:35:46.642Z</time></trkpt><trkpt lat="43.6943189" lon="11.3605528"><ele>472.57142857142856</ele><time>2026-04-19T07:35:47.643Z</time></trkpt><trkpt lat="43.694365" lon="11.3604569"><ele>473.2857142857142</ele><time>2026-04-19T07:35:48.646Z</time></trkpt><trkpt lat="43.6944009" lon="11.3603609"><ele>473.99999999999994</ele><time>2026-04-19T07:35:49.645Z</time></trkpt><trkpt lat="43.6944363" lon="11.3602697"><ele>474.0</ele><time>2026-04-19T07:35:50.642Z</time></trkpt><trkpt lat="43.6944527" lon="11.3601806"><ele>474.0</ele><time>2026-04-19T07:35:51.633Z</time></trkpt><trkpt lat="43.6944241" lon="11.3600229"><ele>474.0</ele><time>2026-04-19T07:35:53.624Z</time></trkpt><trkpt lat="43.694331" lon="11.3598747"><ele>474.0</ele><time>2026-04-19T07:35:55.64Z</time></trkpt><trkpt lat="43.6942779" lon="11.3597962"><ele>474.0</ele><time>2026-04-19T07:35:56.639Z</time></trkpt><trkpt lat="43.6942358" lon="11.3597144"><ele>469.3333333333333</ele><time>2026-04-19T07:35:57.63Z</time></trkpt><trkpt lat="43.6942066" lon="11.3596212"><ele>464.66666666666663</ele><time>2026-04-19T07:35:58.638Z</time></trkpt><trkpt lat="43.6941899" lon="11.3595245"><ele>460.0</ele><time>2026-04-19T07:35:59.637Z</time></trkpt><trkpt lat="43.6941573" lon="11.3594315"><ele>455.3333333333333</ele><time>2026-04-19T07:36:00.631Z</time></trkpt><trkpt lat="43.6941145" lon="11.3593288"><ele>450.66666666666663</ele><time>2026-04-19T07:36:01.638Z</time></trkpt><trkpt lat="43.6940722" lon="11.3592298"><ele>446.0</ele><time>2026-04-19T07:36:02.634Z</time></trkpt><trkpt lat="43.6940237" lon="11.3591376"><ele>445.99999999999994</ele><time>2026-04-19T07:36:03.635Z</time></trkpt><trkpt lat="43.6939834" lon="11.3590477"><ele>446.0</ele><time>2026-04-19T07:36:04.636Z</time></trkpt><trkpt lat="43.6939398" lon="11.358957"><ele>446.0</ele><time>2026-04-19T07:36:05.636Z</time></trkpt><trkpt lat="43.6939036" lon="11.3588797"><ele>446.0</ele><time>2026-04-19T07:36:06.635Z</time></trkpt><trkpt lat="43.6938611" lon="11.3587896"><ele>445.99999999999994</ele><time>2026-04-19T07:36:07.636Z</time></trkpt><trkpt lat="43.6938242" lon="11.3586863"><ele>446.0</ele><time>2026-04-19T07:36:08.639Z</time></trkpt><trkpt lat="43.6937908" lon="11.3585803"><ele>444.8333333333333</ele><time>2026-04-19T07:36:09.639Z</time></trkpt><trkpt lat="43.6937576" lon="11.3584637"><ele>443.66666666666663</ele><time>2026-04-19T07:36:10.64Z</time></trkpt><trkpt lat="43.6937147" lon="11.358348"><ele>442.5</ele><time>2026-04-19T07:36:11.639Z</time></trkpt><trkpt lat="43.6936769" lon="11.3582391"><ele>441.33333333333337</ele><time>2026-04-19T07:36:12.649Z</time></trkpt><trkpt lat="43.6936562" lon="11.3581239"><ele>440.1666666666667</ele><time>2026-04-19T07:36:13.639Z</time></trkpt><trkpt lat="43.6936482" lon="11.3580105"><ele>439.0</ele><time>2026-04-19T07:36:14.644Z</time></trkpt><trkpt lat="43.6936408" lon="11.3577481"><ele>436.83333333333337</ele><time>2026-04-19T07:36:16.641Z</time></trkpt><trkpt lat="43.6936351" lon="11.3576375"><ele>434.6666666666667</ele><time>2026-04-19T07:36:17.643Z</time></trkpt><trkpt lat="43.6936327" lon="11.3575225"><ele>432.5</ele><time>2026-04-19T07:36:18.645Z</time></trkpt><trkpt lat="43.6936311" lon="11.3574038"><ele>430.33333333333337</ele><time>2026-04-19T07:36:19.649Z</time></trkpt><trkpt lat="43.6936084" lon="11.3572796"><ele>428.1666666666667</ele><time>2026-04-19T07:36:20.646Z</time></trkpt><trkpt lat="43.6935724" lon="11.3571652"><ele>426.0</ele><time>2026-04-19T07:36:21.649Z</time></trkpt><trkpt lat="43.6935318" lon="11.3570514"><ele>424.8333333333333</ele><time>2026-04-19T07:36:22.643Z</time></trkpt><trkpt lat="43.6934892" lon="11.3569387"><ele>423.66666666666663</ele><time>2026-04-19T07:36:23.645Z</time></trkpt><trkpt lat="43.6934605" lon="11.3568248"><ele>422.5</ele><time>2026-04-19T07:36:24.649Z</time></trkpt><trkpt lat="43.6934285" lon="11.3567054"><ele>421.3333333333333</ele><time>2026-04-19T07:36:25.65Z</time></trkpt><trkpt lat="43.693395" lon="11.3566007"><ele>420.16666666666663</ele><time>2026-04-19T07:36:26.65Z</time></trkpt><trkpt lat="43.6933555" lon="11.3564975"><ele>419.0</ele><time>2026-04-19T07:36:27.652Z</time></trkpt><trkpt lat="43.6932981" lon="11.3563945"><ele>417.4</ele><time>2026-04-19T07:36:28.658Z</time></trkpt><trkpt lat="43.6932331" lon="11.3562926"><ele>415.79999999999995</ele><time>2026-04-19T07:36:29.655Z</time></trkpt><trkpt lat="43.6931688" lon="11.3561996"><ele>414.20000000000005</ele><time>2026-04-19T07:36:30.65Z</time></trkpt><trkpt lat="43.693106" lon="11.3561042"><ele>412.6</ele><time>2026-04-19T07:36:31.649Z</time></trkpt><trkpt lat="43.6930525" lon="11.3560067"><ele>411.0</ele><time>2026-04-19T07:36:32.649Z</time></trkpt><trkpt lat="43.6930028" lon="11.3559074"><ele>411.0</ele><time>2026-04-19T07:36:33.645Z</time></trkpt><trkpt lat="43.6929519" lon="11.3558161"><ele>411.0</ele><time>2026-04-19T07:36:34.642Z</time></trkpt><trkpt lat="43.6929152" lon="11.355676"><ele>411.0</ele><time>2026-04-19T07:36:36.648Z</time></trkpt><trkpt lat="43.6929959" lon="11.3554583"><ele>411.0</ele><time>2026-04-19T07:36:39.648Z</time></trkpt><trkpt lat="43.6930213" lon="11.3553714"><ele>411.0</ele><time>2026-04-19T07:36:40.655Z</time></trkpt><trkpt lat="43.6930169" lon="11.3552729"><ele>409.5</ele><time>2026-04-19T07:36:41.654Z</time></trkpt><trkpt lat="43.6929868" lon="11.3551807"><ele>408.0</ele><time>2026-04-19T07:36:42.658Z</time></trkpt><trkpt lat="43.6929453" lon="11.3551003"><ele>406.5</ele><time>2026-04-19T07:36:43.662Z</time></trkpt><trkpt lat="43.692899" lon="11.3550223"><ele>405.0</ele><time>2026-04-19T07:36:44.654Z</time></trkpt><trkpt lat="43.6928344" lon="11.354959"><ele>403.5</ele><time>2026-04-19T07:36:45.662Z</time></trkpt><trkpt lat="43.6927684" lon="11.3548946"><ele>402.0</ele><time>2026-04-19T07:36:46.653Z</time></trkpt><trkpt lat="43.6926948" lon="11.354824"><ele>402.0</ele><time>2026-04-19T07:36:47.661Z</time></trkpt><trkpt lat="43.6926266" lon="11.3547363"><ele>402.0</ele><time>2026-04-19T07:36:48.659Z</time></trkpt><trkpt lat="43.6925617" lon="11.3546463"><ele>402.0</ele><time>2026-04-19T07:36:49.66Z</time></trkpt><trkpt lat="43.6925009" lon="11.3545488"><ele>402.0</ele><time>2026-04-19T07:36:50.66Z</time></trkpt><trkpt lat="43.6924386" lon="11.3544553"><ele>402.0</ele><time>2026-04-19T07:36:51.658Z</time></trkpt><trkpt lat="43.6923749" lon="11.3543458"><ele>401.0</ele><time>2026-04-19T07:36:52.654Z</time></trkpt><trkpt lat="43.6923185" lon="11.3542293"><ele>400.0</ele><time>2026-04-19T07:36:53.653Z</time></trkpt><trkpt lat="43.6922743" lon="11.3541162"><ele>399.0</ele><time>2026-04-19T07:36:54.651Z</time></trkpt><trkpt lat="43.6922409" lon="11.3540066"><ele>398.0</ele><time>2026-04-19T07:36:55.659Z</time></trkpt><trkpt lat="43.6922012" lon="11.3538983"><ele>397.0</ele><time>2026-04-19T07:36:56.658Z</time></trkpt><trkpt lat="43.6921573" lon="11.3538241"><ele>396.0</ele><time>2026-04-19T07:36:57.653Z</time></trkpt><trkpt lat="43.6920344" lon="11.3536302"><ele>393.25</ele><time>2026-04-19T07:37:21.664Z</time></trkpt><trkpt lat="43.6919197" lon="11.3534405"><ele>390.5</ele><time>2026-04-19T07:37:27.662Z</time></trkpt><trkpt lat="43.6918925" lon="11.3533219"><ele>387.75</ele><time>2026-04-19T07:37:29.66Z</time></trkpt><trkpt lat="43.6918731" lon="11.353223"><ele>385.0</ele><time>2026-04-19T07:37:31.668Z</time></trkpt><trkpt lat="43.6918757" lon="11.3530605"><ele>384.6666666666667</ele><time>2026-04-19T07:37:33.659Z</time></trkpt><trkpt lat="43.6918646" lon="11.3529399"><ele>384.33333333333337</ele><time>2026-04-19T07:37:34.663Z</time></trkpt><trkpt lat="43.6918604" lon="11.3528233"><ele>384.0</ele><time>2026-04-19T07:37:35.661Z</time></trkpt><trkpt lat="43.6918546" lon="11.3527161"><ele>383.6666666666667</ele><time>2026-04-19T07:37:36.659Z</time></trkpt><trkpt lat="43.6918444" lon="11.3526145"><ele>383.33333333333337</ele><time>2026-04-19T07:37:37.654Z</time></trkpt><trkpt lat="43.6918381" lon="11.3524848"><ele>383.0</ele><time>2026-04-19T07:37:38.654Z</time></trkpt><trkpt lat="43.6918352" lon="11.3523779"><ele>383.0</ele><time>2026-04-19T07:37:39.655Z</time></trkpt><trkpt lat="43.6918242" lon="11.352258"><ele>383.0</ele><time>2026-04-19T07:37:40.656Z</time></trkpt><trkpt lat="43.6918251" lon="11.3521383"><ele>383.0</ele><time>2026-04-19T07:37:41.651Z</time></trkpt><trkpt lat="43.6918314" lon="11.3520189"><ele>383.0</ele><time>2026-04-19T07:37:42.658Z</time></trkpt><trkpt lat="43.69184" lon="11.351783"><ele>383.0</ele><time>2026-04-19T07:37:44.66Z</time></trkpt><trkpt lat="43.6918374" lon="11.3516655"><ele>382.1666666666667</ele><time>2026-04-19T07:37:45.674Z</time></trkpt><trkpt lat="43.6918351" lon="11.3515408"><ele>381.33333333333337</ele><time>2026-04-19T07:37:46.661Z</time></trkpt><trkpt lat="43.6918395" lon="11.3514157"><ele>380.5</ele><time>2026-04-19T07:37:47.667Z</time></trkpt><trkpt lat="43.6918554" lon="11.3512935"><ele>379.6666666666667</ele><time>2026-04-19T07:37:48.665Z</time></trkpt><trkpt lat="43.6918702" lon="11.3511708"><ele>378.8333333333333</ele><time>2026-04-19T07:37:49.663Z</time></trkpt><trkpt lat="43.6918956" lon="11.3510583"><ele>378.0</ele><time>2026-04-19T07:37:50.665Z</time></trkpt><trkpt lat="43.6919265" lon="11.3509364"><ele>374.5</ele><time>2026-04-19T07:37:51.662Z</time></trkpt><trkpt lat="43.6919662" lon="11.3508375"><ele>371.0</ele><time>2026-04-19T07:37:52.663Z</time></trkpt><trkpt lat="43.6920128" lon="11.3507497"><ele>367.5</ele><time>2026-04-19T07:37:53.664Z</time></trkpt><trkpt lat="43.6920594" lon="11.3506578"><ele>364.0</ele><time>2026-04-19T07:37:54.654Z</time></trkpt><trkpt lat="43.6921114" lon="11.3505737"><ele>360.5</ele><time>2026-04-19T07:37:55.663Z</time></trkpt><trkpt lat="43.692181" lon="11.3504903"><ele>357.0</ele><time>2026-04-19T07:37:56.658Z</time></trkpt><trkpt lat="43.6922592" lon="11.3504085"><ele>356.40000000000003</ele><time>2026-04-19T07:37:57.645Z</time></trkpt><trkpt lat="43.6923333" lon="11.3503267"><ele>355.8</ele><time>2026-04-19T07:37:58.656Z</time></trkpt><trkpt lat="43.6924095" lon="11.3502451"><ele>355.2</ele><time>2026-04-19T07:37:59.66Z</time></trkpt><trkpt lat="43.6924835" lon="11.3501527"><ele>354.6</ele><time>2026-04-19T07:38:00.662Z</time></trkpt><trkpt lat="43.6925634" lon="11.3500598"><ele>354.0</ele><time>2026-04-19T07:38:01.661Z</time></trkpt><trkpt lat="43.6926475" lon="11.3499698"><ele>354.0</ele><time>2026-04-19T07:38:02.657Z</time></trkpt><trkpt lat="43.6927269" lon="11.349869"><ele>354.0</ele><time>2026-04-19T07:38:03.656Z</time></trkpt><trkpt lat="43.6928448" lon="11.3496576"><ele>354.0</ele><time>2026-04-19T07:38:05.661Z</time></trkpt><trkpt lat="43.6928998" lon="11.3495433"><ele>354.0</ele><time>2026-04-19T07:38:06.665Z</time></trkpt><trkpt lat="43.6929606" lon="11.3494208"><ele>350.25</ele><time>2026-04-19T07:38:07.666Z</time></trkpt><trkpt lat="43.6930281" lon="11.3492942"><ele>346.5</ele><time>2026-04-19T07:38:08.664Z</time></trkpt><trkpt lat="43.6930966" lon="11.3491675"><ele>342.75</ele><time>2026-04-19T07:38:09.656Z</time></trkpt><trkpt lat="43.6931672" lon="11.3490433"><ele>339.0</ele><time>2026-04-19T07:38:10.663Z</time></trkpt><trkpt lat="43.6932399" lon="11.3489129"><ele>337.0</ele><time>2026-04-19T07:38:11.664Z</time></trkpt><trkpt lat="43.6933058" lon="11.3487827"><ele>335.0</ele><time>2026-04-19T07:38:12.666Z</time></trkpt><trkpt lat="43.6933684" lon="11.3486509"><ele>333.0</ele><time>2026-04-19T07:38:13.664Z</time></trkpt><trkpt lat="43.6934329" lon="11.348532"><ele>331.0</ele><time>2026-04-19T07:38:14.655Z</time></trkpt><trkpt lat="43.6934863" lon="11.3484245"><ele>329.0</ele><time>2026-04-19T07:38:15.662Z</time></trkpt><trkpt lat="43.6935363" lon="11.348323"><ele>326.4</ele><time>2026-04-19T07:38:16.682Z</time></trkpt><trkpt lat="43.6935903" lon="11.3482126"><ele>323.79999999999995</ele><time>2026-04-19T07:38:17.666Z</time></trkpt><trkpt lat="43.693637" lon="11.3480997"><ele>321.20000000000005</ele><time>2026-04-19T07:38:18.667Z</time></trkpt><trkpt lat="43.6936814" lon="11.3479783"><ele>318.6</ele><time>2026-04-19T07:38:19.669Z</time></trkpt><trkpt lat="43.6937154" lon="11.3478731"><ele>316.0</ele><time>2026-04-19T07:38:20.665Z</time></trkpt><trkpt lat="43.6937427" lon="11.3477698"><ele>316.0</ele><time>2026-04-19T07:38:21.655Z</time></trkpt><trkpt lat="43.693785" lon="11.3476723"><ele>316.0</ele><time>2026-04-19T07:38:22.653Z</time></trkpt><trkpt lat="43.6938349" lon="11.3475855"><ele>316.0</ele><time>2026-04-19T07:38:23.651Z</time></trkpt><trkpt lat="43.6939051" lon="11.3475099"><ele>316.0</ele><time>2026-04-19T07:38:24.653Z</time></trkpt><trkpt lat="43.6939845" lon="11.3473314"><ele>316.0</ele><time>2026-04-19T07:38:26.659Z</time></trkpt><trkpt lat="43.6940002" lon="11.347228"><ele>314.5</ele><time>2026-04-19T07:38:27.656Z</time></trkpt><trkpt lat="43.6940159" lon="11.3471204"><ele>313.0</ele><time>2026-04-19T07:38:28.66Z</time></trkpt><trkpt lat="43.6940443" lon="11.347026"><ele>311.5</ele><time>2026-04-19T07:38:29.658Z</time></trkpt><trkpt lat="43.6941013" lon="11.3469412"><ele>310.0</ele><time>2026-04-19T07:38:30.664Z</time></trkpt><trkpt lat="43.6941573" lon="11.3468554"><ele>308.5</ele><time>2026-04-19T07:38:31.664Z</time></trkpt><trkpt lat="43.6942134" lon="11.3467839"><ele>307.0</ele><time>2026-04-19T07:38:32.665Z</time></trkpt><trkpt lat="43.6942744" lon="11.3466916"><ele>307.0</ele><time>2026-04-19T07:38:34.661Z</time></trkpt><trkpt lat="43.6942158" lon="11.3466036"><ele>307.0</ele><time>2026-04-19T07:38:37.659Z</time></trkpt><trkpt lat="43.6940931" lon="11.3466438"><ele>307.0</ele><time>2026-04-19T07:38:39.656Z</time></trkpt><trkpt lat="43.694016" lon="11.3466658"><ele>307.0</ele><time>2026-04-19T07:38:40.677Z</time></trkpt><trkpt lat="43.6939461" lon="11.3466914"><ele>307.0</ele><time>2026-04-19T07:38:41.666Z</time></trkpt><trkpt lat="43.6938775" lon="11.3467025"><ele>307.0</ele><time>2026-04-19T07:38:42.664Z</time></trkpt><trkpt lat="43.6937671" lon="11.3467028"><ele>307.0</ele><time>2026-04-19T07:38:44.657Z</time></trkpt><trkpt lat="43.6937231" lon="11.3466222"><ele>307.0</ele><time>2026-04-19T07:38:46.659Z</time></trkpt><trkpt lat="43.6938505" lon="11.3463598"><ele>307.0</ele><time>2026-04-19T07:38:49.665Z</time></trkpt><trkpt lat="43.6938985" lon="11.346267"><ele>307.0</ele><time>2026-04-19T07:38:50.663Z</time></trkpt><trkpt lat="43.6939293" lon="11.3461855"><ele>305.8333333333333</ele><time>2026-04-19T07:38:51.656Z</time></trkpt><trkpt lat="43.6939345" lon="11.3460773"><ele>304.66666666666663</ele><time>2026-04-19T07:38:53.655Z</time></trkpt><trkpt lat="43.6938438" lon="11.3459692"><ele>303.5</ele><time>2026-04-19T07:38:55.649Z</time></trkpt><trkpt lat="43.6938141" lon="11.3458904"><ele>302.3333333333333</ele><time>2026-04-19T07:38:56.652Z</time></trkpt><trkpt lat="43.6937962" lon="11.3457802"><ele>301.1666666666667</ele><time>2026-04-19T07:38:57.666Z</time></trkpt><trkpt lat="43.6937782" lon="11.3456566"><ele>300.0</ele><time>2026-04-19T07:38:58.667Z</time></trkpt><trkpt lat="43.6937579" lon="11.3455447"><ele>299.1666666666667</ele><time>2026-04-19T07:38:59.665Z</time></trkpt><trkpt lat="43.6937394" lon="11.3454508"><ele>298.3333333333333</ele><time>2026-04-19T07:39:00.666Z</time></trkpt><trkpt lat="43.693739" lon="11.3453377"><ele>297.5</ele><time>2026-04-19T07:39:01.665Z</time></trkpt><trkpt lat="43.6937556" lon="11.3452278"><ele>296.66666666666663</ele><time>2026-04-19T07:39:02.664Z</time></trkpt><trkpt lat="43.6937757" lon="11.345111"><ele>295.8333333333333</ele><time>2026-04-19T07:39:03.66Z</time></trkpt><trkpt lat="43.693769" lon="11.344995"><ele>295.0</ele><time>2026-04-19T07:39:04.669Z</time></trkpt><trkpt lat="43.6937593" lon="11.3448617"><ele>295.0</ele><time>2026-04-19T07:39:05.75Z</time></trkpt><trkpt lat="43.6937519" lon="11.3447479"><ele>295.0</ele><time>2026-04-19T07:39:06.731Z</time></trkpt><trkpt lat="43.6937275" lon="11.3446286"><ele>295.0</ele><time>2026-04-19T07:39:07.746Z</time></trkpt><trkpt lat="43.6936718" lon="11.3440442"><ele>293.2</ele><time>2026-04-19T07:39:11.642Z</time></trkpt><trkpt lat="43.6936755" lon="11.3438923"><ele>291.4</ele><time>2026-04-19T07:39:12.642Z</time></trkpt><trkpt lat="43.6936603" lon="11.3437611"><ele>289.6</ele><time>2026-04-19T07:39:13.655Z</time></trkpt><trkpt lat="43.6936255" lon="11.343647"><ele>287.8</ele><time>2026-04-19T07:39:14.659Z</time></trkpt><trkpt lat="43.6935821" lon="11.3435399"><ele>286.0</ele><time>2026-04-19T07:39:15.658Z</time></trkpt><trkpt lat="43.6935331" lon="11.3434298"><ele>285.8</ele><time>2026-04-19T07:39:16.66Z</time></trkpt><trkpt lat="43.6934905" lon="11.3433149"><ele>285.6</ele><time>2026-04-19T07:39:17.662Z</time></trkpt><trkpt lat="43.693453" lon="11.3432015"><ele>285.4</ele><time>2026-04-19T07:39:18.689Z</time></trkpt><trkpt lat="43.6934044" lon="11.3431033"><ele>285.2</ele><time>2026-04-19T07:39:19.662Z</time></trkpt><trkpt lat="43.6933332" lon="11.3430082"><ele>285.0</ele><time>2026-04-19T07:39:20.665Z</time></trkpt><trkpt lat="43.6932452" lon="11.3429246"><ele>282.8</ele><time>2026-04-19T07:39:21.665Z</time></trkpt><trkpt lat="43.6931519" lon="11.3428418"><ele>280.6</ele><time>2026-04-19T07:39:22.665Z</time></trkpt><trkpt lat="43.6930585" lon="11.3427564"><ele>278.4</ele><time>2026-04-19T07:39:23.662Z</time></trkpt><trkpt lat="43.6929788" lon="11.3426686"><ele>276.2</ele><time>2026-04-19T07:39:24.658Z</time></trkpt><trkpt lat="43.6929155" lon="11.3425641"><ele>274.0</ele><time>2026-04-19T07:39:25.657Z</time></trkpt><trkpt lat="43.6928858" lon="11.3424409"><ele>274.0</ele><time>2026-04-19T07:39:26.659Z</time></trkpt><trkpt lat="43.6928767" lon="11.3423268"><ele>274.0</ele><time>2026-04-19T07:39:27.663Z</time></trkpt><trkpt lat="43.6928529" lon="11.3422323"><ele>274.0</ele><time>2026-04-19T07:39:28.661Z</time></trkpt><trkpt lat="43.6927555" lon="11.3420968"><ele>274.0</ele><time>2026-04-19T07:39:30.663Z</time></trkpt><trkpt lat="43.6926917" lon="11.3420506"><ele>274.0</ele><time>2026-04-19T07:39:31.658Z</time></trkpt><trkpt lat="43.692616" lon="11.342023"><ele>274.0</ele><time>2026-04-19T07:39:32.663Z</time></trkpt><trkpt lat="43.6925531" lon="11.3420048"><ele>273.8</ele><time>2026-04-19T07:39:33.66Z</time></trkpt><trkpt lat="43.6924597" lon="11.3419177"><ele>273.59999999999997</ele><time>2026-04-19T07:39:35.664Z</time></trkpt><trkpt lat="43.6924384" lon="11.3418074"><ele>273.4</ele><time>2026-04-19T07:39:36.655Z</time></trkpt><trkpt lat="43.6924171" lon="11.3416528"><ele>273.2</ele><time>2026-04-19T07:39:37.653Z</time></trkpt><trkpt lat="43.6924088" lon="11.3415087"><ele>273.0</ele><time>2026-04-19T07:39:38.644Z</time></trkpt><trkpt lat="43.6923938" lon="11.341395"><ele>270.2</ele><time>2026-04-19T07:39:39.655Z</time></trkpt><trkpt lat="43.6923701" lon="11.3413106"><ele>267.4</ele><time>2026-04-19T07:39:40.647Z</time></trkpt><trkpt lat="43.6923205" lon="11.341242"><ele>264.59999999999997</ele><time>2026-04-19T07:39:41.649Z</time></trkpt><trkpt lat="43.6922357" lon="11.3411707"><ele>261.8</ele><time>2026-04-19T07:39:42.64Z</time></trkpt><trkpt lat="43.6921259" lon="11.3410817"><ele>259.0</ele><time>2026-04-19T07:39:43.644Z</time></trkpt><trkpt lat="43.6919951" lon="11.3409778"><ele>258.4</ele><time>2026-04-19T07:39:44.657Z</time></trkpt><trkpt lat="43.6918713" lon="11.3408931"><ele>257.79999999999995</ele><time>2026-04-19T07:39:45.649Z</time></trkpt><trkpt lat="43.6917731" lon="11.3408266"><ele>257.20000000000005</ele><time>2026-04-19T07:39:46.649Z</time></trkpt><trkpt lat="43.6916851" lon="11.3407429"><ele>256.6</ele><time>2026-04-19T07:39:47.648Z</time></trkpt><trkpt lat="43.6916435" lon="11.3406406"><ele>256.0</ele><time>2026-04-19T07:39:48.661Z</time></trkpt><trkpt lat="43.6916141" lon="11.3405248"><ele>256.0</ele><time>2026-04-19T07:39:49.649Z</time></trkpt><trkpt lat="43.691554" lon="11.3403259"><ele>256.0</ele><time>2026-04-19T07:39:51.66Z</time></trkpt><trkpt lat="43.6914938" lon="11.3402326"><ele>256.0</ele><time>2026-04-19T07:39:52.649Z</time></trkpt><trkpt lat="43.6914326" lon="11.3401508"><ele>256.0</ele><time>2026-04-19T07:39:53.644Z</time></trkpt><trkpt lat="43.6913594" lon="11.3400765"><ele>256.0</ele><time>2026-04-19T07:39:54.645Z</time></trkpt><trkpt lat="43.6912828" lon="11.3400264"><ele>255.99999999999997</ele><time>2026-04-19T07:39:55.651Z</time></trkpt><trkpt lat="43.6912008" lon="11.3399913"><ele>256.0</ele><time>2026-04-19T07:39:56.647Z</time></trkpt><trkpt lat="43.691124" lon="11.3399592"><ele>256.0</ele><time>2026-04-19T07:39:57.642Z</time></trkpt><trkpt lat="43.691062" lon="11.3399076"><ele>256.0</ele><time>2026-04-19T07:39:58.65Z</time></trkpt><trkpt lat="43.6910143" lon="11.3398481"><ele>255.99999999999997</ele><time>2026-04-19T07:39:59.642Z</time></trkpt><trkpt lat="43.6909778" lon="11.3397166"><ele>256.0</ele><time>2026-04-19T07:40:01.638Z</time></trkpt><trkpt lat="43.6910004" lon="11.3396219"><ele>258.2</ele><time>2026-04-19T07:40:02.637Z</time></trkpt><trkpt lat="43.6910305" lon="11.3395136"><ele>260.40000000000003</ele><time>2026-04-19T07:40:03.644Z</time></trkpt><trkpt lat="43.6910583" lon="11.3394084"><ele>262.6</ele><time>2026-04-19T07:40:04.648Z</time></trkpt><trkpt lat="43.6911016" lon="11.3393161"><ele>264.8</ele><time>2026-04-19T07:40:05.645Z</time></trkpt><trkpt lat="43.691157" lon="11.3392244"><ele>267.0</ele><time>2026-04-19T07:40:06.633Z</time></trkpt><trkpt lat="43.6912553" lon="11.3391283"><ele>261.25</ele><time>2026-04-19T07:40:07.643Z</time></trkpt><trkpt lat="43.6913525" lon="11.3390384"><ele>255.5</ele><time>2026-04-19T07:40:08.655Z</time></trkpt><trkpt lat="43.6914301" lon="11.3389462"><ele>249.75</ele><time>2026-04-19T07:40:09.651Z</time></trkpt><trkpt lat="43.6914983" lon="11.3388434"><ele>244.0</ele><time>2026-04-19T07:40:10.653Z</time></trkpt><trkpt lat="43.6916057" lon="11.3385312"><ele>243.75</ele><time>2026-04-19T07:40:12.665Z</time></trkpt><trkpt lat="43.6916496" lon="11.3383771"><ele>243.5</ele><time>2026-04-19T07:40:13.653Z</time></trkpt><trkpt lat="43.6916958" lon="11.3382595"><ele>243.25</ele><time>2026-04-19T07:40:14.656Z</time></trkpt><trkpt lat="43.6917659" lon="11.3381431"><ele>243.0</ele><time>2026-04-19T07:40:15.649Z</time></trkpt><trkpt lat="43.6918555" lon="11.338022"><ele>240.60000000000002</ele><time>2026-04-19T07:40:16.657Z</time></trkpt><trkpt lat="43.691935" lon="11.3378971"><ele>238.20000000000002</ele><time>2026-04-19T07:40:17.661Z</time></trkpt><trkpt lat="43.6920155" lon="11.3377892"><ele>235.8</ele><time>2026-04-19T07:40:18.662Z</time></trkpt><trkpt lat="43.6920783" lon="11.3376799"><ele>233.4</ele><time>2026-04-19T07:40:19.669Z</time></trkpt><trkpt lat="43.6921471" lon="11.3375862"><ele>231.0</ele><time>2026-04-19T07:40:20.663Z</time></trkpt><trkpt lat="43.6922137" lon="11.3375005"><ele>231.0</ele><time>2026-04-19T07:40:21.671Z</time></trkpt><trkpt lat="43.6922797" lon="11.3374047"><ele>231.00000000000003</ele><time>2026-04-19T07:40:22.667Z</time></trkpt><trkpt lat="43.6923339" lon="11.337292"><ele>231.00000000000003</ele><time>2026-04-19T07:40:23.658Z</time></trkpt><trkpt lat="43.6923791" lon="11.3371638"><ele>231.0</ele><time>2026-04-19T07:40:24.666Z</time></trkpt><trkpt lat="43.6924238" lon="11.3370114"><ele>231.0</ele><time>2026-04-19T07:40:25.671Z</time></trkpt><trkpt lat="43.6924663" lon="11.3368062"><ele>232.66666666666669</ele><time>2026-04-19T07:40:26.67Z</time></trkpt><trkpt lat="43.6925051" lon="11.3365658"><ele>234.33333333333334</ele><time>2026-04-19T07:40:27.663Z</time></trkpt><trkpt lat="43.6925407" lon="11.3363575"><ele>236.0</ele><time>2026-04-19T07:40:28.669Z</time></trkpt><trkpt lat="43.6925726" lon="11.3361577"><ele>237.0</ele><time>2026-04-19T07:40:29.657Z</time></trkpt><trkpt lat="43.692607" lon="11.3359738"><ele>238.0</ele><time>2026-04-19T07:40:30.663Z</time></trkpt><trkpt lat="43.6926411" lon="11.3357986"><ele>239.0</ele><time>2026-04-19T07:40:31.659Z</time></trkpt><trkpt lat="43.6926869" lon="11.3355367"><ele>239.16666666666669</ele><time>2026-04-19T07:40:33.666Z</time></trkpt><trkpt lat="43.6927211" lon="11.3354378"><ele>239.33333333333334</ele><time>2026-04-19T07:40:34.66Z</time></trkpt><trkpt lat="43.6927813" lon="11.3353292"><ele>239.5</ele><time>2026-04-19T07:40:35.656Z</time></trkpt><trkpt lat="43.6928381" lon="11.3352327"><ele>239.66666666666669</ele><time>2026-04-19T07:40:36.669Z</time></trkpt><trkpt lat="43.6928829" lon="11.3351288"><ele>239.83333333333334</ele><time>2026-04-19T07:40:37.668Z</time></trkpt><trkpt lat="43.692927" lon="11.3350387"><ele>240.0</ele><time>2026-04-19T07:40:38.668Z</time></trkpt><trkpt lat="43.6929658" lon="11.3349596"><ele>238.0</ele><time>2026-04-19T07:40:39.662Z</time></trkpt><trkpt lat="43.6930065" lon="11.334879"><ele>236.0</ele><time>2026-04-19T07:40:40.67Z</time></trkpt><trkpt lat="43.6930397" lon="11.3347969"><ele>234.0</ele><time>2026-04-19T07:40:41.671Z</time></trkpt><trkpt lat="43.6930806" lon="11.3347061"><ele>232.0</ele><time>2026-04-19T07:40:42.67Z</time></trkpt><trkpt lat="43.6931179" lon="11.3346055"><ele>230.0</ele><time>2026-04-19T07:40:43.668Z</time></trkpt><trkpt lat="43.6931606" lon="11.3345032"><ele>228.0</ele><time>2026-04-19T07:40:44.669Z</time></trkpt><trkpt lat="43.6932022" lon="11.3344194"><ele>228.0</ele><time>2026-04-19T07:40:45.668Z</time></trkpt><trkpt lat="43.6932393" lon="11.3343353"><ele>228.0</ele><time>2026-04-19T07:40:46.667Z</time></trkpt><trkpt lat="43.693286" lon="11.3342445"><ele>228.0</ele><time>2026-04-19T07:40:47.662Z</time></trkpt><trkpt lat="43.6933149" lon="11.3341385"><ele>228.0</ele><time>2026-04-19T07:40:48.668Z</time></trkpt><trkpt lat="43.6933429" lon="11.3340391"><ele>228.0</ele><time>2026-04-19T07:40:49.663Z</time></trkpt><trkpt lat="43.693369" lon="11.3339417"><ele>228.0</ele><time>2026-04-19T07:40:50.678Z</time></trkpt><trkpt lat="43.6933998" lon="11.3338489"><ele>227.0</ele><time>2026-04-19T07:40:51.657Z</time></trkpt><trkpt lat="43.693416" lon="11.333756"><ele>226.0</ele><time>2026-04-19T07:40:52.67Z</time></trkpt><trkpt lat="43.6934827" lon="11.3335469"><ele>225.0</ele><time>2026-04-19T07:40:55.658Z</time></trkpt><trkpt lat="43.6934802" lon="11.3334505"><ele>224.0</ele><time>2026-04-19T07:41:17.669Z</time></trkpt><trkpt lat="43.6933325" lon="11.3333312"><ele>224.0</ele><time>2026-04-19T07:41:20.67Z</time></trkpt><trkpt lat="43.6932519" lon="11.333293"><ele>223.99999999999997</ele><time>2026-04-19T07:41:21.682Z</time></trkpt><trkpt lat="43.6931611" lon="11.3332587"><ele>223.99999999999997</ele><time>2026-04-19T07:41:22.667Z</time></trkpt><trkpt lat="43.693066" lon="11.3332438"><ele>224.0</ele><time>2026-04-19T07:41:23.668Z</time></trkpt><trkpt lat="43.6929682" lon="11.3332435"><ele>224.0</ele><time>2026-04-19T07:41:24.665Z</time></trkpt><trkpt lat="43.6928677" lon="11.3332666"><ele>224.00000000000003</ele><time>2026-04-19T07:41:25.667Z</time></trkpt><trkpt lat="43.6927662" lon="11.3332977"><ele>224.0</ele><time>2026-04-19T07:41:26.661Z</time></trkpt><trkpt lat="43.6926765" lon="11.3333156"><ele>224.0</ele><time>2026-04-19T07:41:27.662Z</time></trkpt><trkpt lat="43.692599" lon="11.3333421"><ele>224.0</ele><time>2026-04-19T07:41:28.668Z</time></trkpt><trkpt lat="43.6925251" lon="11.3333788"><ele>224.00000000000003</ele><time>2026-04-19T07:41:29.666Z</time></trkpt><trkpt lat="43.6924631" lon="11.3334195"><ele>224.0</ele><time>2026-04-19T07:41:30.664Z</time></trkpt><trkpt lat="43.6923494" lon="11.3334978"><ele>224.16666666666669</ele><time>2026-04-19T07:41:32.67Z</time></trkpt><trkpt lat="43.6922932" lon="11.3335391"><ele>224.33333333333334</ele><time>2026-04-19T07:41:33.669Z</time></trkpt><trkpt lat="43.6921872" lon="11.3336027"><ele>224.5</ele><time>2026-04-19T07:41:35.663Z</time></trkpt><trkpt lat="43.6921269" lon="11.3336357"><ele>224.66666666666669</ele><time>2026-04-19T07:41:36.666Z</time></trkpt><trkpt lat="43.69207" lon="11.3336802"><ele>224.83333333333334</ele><time>2026-04-19T07:41:37.661Z</time></trkpt><trkpt lat="43.6919827" lon="11.3338173"><ele>225.0</ele><time>2026-04-19T07:41:39.663Z</time></trkpt><trkpt lat="43.6918609" lon="11.3339193"><ele>225.14285714285717</ele><time>2026-04-19T07:41:41.659Z</time></trkpt><trkpt lat="43.6917954" lon="11.3339447"><ele>225.28571428571428</ele><time>2026-04-19T07:41:42.657Z</time></trkpt><trkpt lat="43.6917209" lon="11.3339386"><ele>225.42857142857144</ele><time>2026-04-19T07:41:43.669Z</time></trkpt><trkpt lat="43.6916466" lon="11.3339049"><ele>225.57142857142858</ele><time>2026-04-19T07:41:44.656Z</time></trkpt><trkpt lat="43.6915809" lon="11.333844"><ele>225.71428571428572</ele><time>2026-04-19T07:41:45.659Z</time></trkpt><trkpt lat="43.6915296" lon="11.3337858"><ele>225.85714285714286</ele><time>2026-04-19T07:41:46.66Z</time></trkpt><trkpt lat="43.691478" lon="11.3337347"><ele>226.0</ele><time>2026-04-19T07:41:47.649Z</time></trkpt><trkpt lat="43.6914059" lon="11.3336782"><ele>226.0</ele><time>2026-04-19T07:41:49.658Z</time></trkpt><trkpt lat="43.6914015" lon="11.3335719"><ele>226.00000000000003</ele><time>2026-04-19T07:41:51.663Z</time></trkpt><trkpt lat="43.6914299" lon="11.3334449"><ele>226.00000000000003</ele><time>2026-04-19T07:41:53.661Z</time></trkpt><trkpt lat="43.6914475" lon="11.3333427"><ele>226.0</ele><time>2026-04-19T07:41:56.658Z</time></trkpt><trkpt lat="43.6914702" lon="11.3332116"><ele>226.0</ele><time>2026-04-19T07:41:59.649Z</time></trkpt><trkpt lat="43.6915251" lon="11.3330739"><ele>225.20000000000002</ele><time>2026-04-19T07:42:01.643Z</time></trkpt><trkpt lat="43.6916082" lon="11.332924"><ele>224.40000000000003</ele><time>2026-04-19T07:42:03.654Z</time></trkpt><trkpt lat="43.6916575" lon="11.3328334"><ele>223.6</ele><time>2026-04-19T07:42:04.662Z</time></trkpt><trkpt lat="43.6917099" lon="11.3327385"><ele>222.8</ele><time>2026-04-19T07:42:05.664Z</time></trkpt><trkpt lat="43.6917575" lon="11.3326511"><ele>222.0</ele><time>2026-04-19T07:42:06.658Z</time></trkpt><trkpt lat="43.6917977" lon="11.3325532"><ele>222.0</ele><time>2026-04-19T07:42:07.664Z</time></trkpt><trkpt lat="43.691835" lon="11.332462"><ele>222.0</ele><time>2026-04-19T07:42:08.657Z</time></trkpt><trkpt lat="43.6918692" lon="11.3323782"><ele>222.0</ele><time>2026-04-19T07:42:09.663Z</time></trkpt><trkpt lat="43.6919129" lon="11.3322979"><ele>222.0</ele><time>2026-04-19T07:42:10.664Z</time></trkpt><trkpt lat="43.6919598" lon="11.3322237"><ele>222.0</ele><time>2026-04-19T07:42:11.662Z</time></trkpt><trkpt lat="43.6920069" lon="11.3321372"><ele>222.0</ele><time>2026-04-19T07:42:12.661Z</time></trkpt><trkpt lat="43.6920519" lon="11.3320439"><ele>222.0</ele><time>2026-04-19T07:42:13.662Z</time></trkpt><trkpt lat="43.6920946" lon="11.3319605"><ele>220.83333333333334</ele><time>2026-04-19T07:42:14.651Z</time></trkpt><trkpt lat="43.6921442" lon="11.3318659"><ele>219.66666666666669</ele><time>2026-04-19T07:42:15.661Z</time></trkpt><trkpt lat="43.6921874" lon="11.331762"><ele>218.5</ele><time>2026-04-19T07:42:16.665Z</time></trkpt><trkpt lat="43.6922263" lon="11.3316665"><ele>217.33333333333334</ele><time>2026-04-19T07:42:17.665Z</time></trkpt><trkpt lat="43.6922468" lon="11.3315655"><ele>216.16666666666669</ele><time>2026-04-19T07:42:18.656Z</time></trkpt><trkpt lat="43.6922429" lon="11.3314488"><ele>215.0</ele><time>2026-04-19T07:42:19.657Z</time></trkpt><trkpt lat="43.6922244" lon="11.3313127"><ele>213.5</ele><time>2026-04-19T07:42:20.667Z</time></trkpt><trkpt lat="43.692209" lon="11.3311667"><ele>212.0</ele><time>2026-04-19T07:42:21.664Z</time></trkpt><trkpt lat="43.6922063" lon="11.3310231"><ele>210.5</ele><time>2026-04-19T07:42:22.664Z</time></trkpt><trkpt lat="43.6921968" lon="11.3307439"><ele>209.0</ele><time>2026-04-19T07:42:24.665Z</time></trkpt><trkpt lat="43.692196" lon="11.3306176"><ele>207.79999999999998</ele><time>2026-04-19T07:42:25.667Z</time></trkpt><trkpt lat="43.6922029" lon="11.3304878"><ele>206.6</ele><time>2026-04-19T07:42:26.657Z</time></trkpt><trkpt lat="43.6922242" lon="11.3303587"><ele>205.4</ele><time>2026-04-19T07:42:27.664Z</time></trkpt><trkpt lat="43.6922598" lon="11.3302285"><ele>204.2</ele><time>2026-04-19T07:42:28.666Z</time></trkpt><trkpt lat="43.6922872" lon="11.3300999"><ele>203.0</ele><time>2026-04-19T07:42:29.663Z</time></trkpt><trkpt lat="43.6923019" lon="11.3299617"><ele>203.0</ele><time>2026-04-19T07:42:30.656Z</time></trkpt><trkpt lat="43.6922963" lon="11.3298125"><ele>203.0</ele><time>2026-04-19T07:42:31.659Z</time></trkpt><trkpt lat="43.6922762" lon="11.3296656"><ele>203.0</ele><time>2026-04-19T07:42:32.67Z</time></trkpt><trkpt lat="43.6922513" lon="11.3295185"><ele>203.0</ele><time>2026-04-19T07:42:33.669Z</time></trkpt><trkpt lat="43.6922285" lon="11.3293698"><ele>203.0</ele><time>2026-04-19T07:42:34.668Z</time></trkpt><trkpt lat="43.6922133" lon="11.3292231"><ele>201.8</ele><time>2026-04-19T07:42:35.668Z</time></trkpt><trkpt lat="43.6922004" lon="11.3290818"><ele>200.60000000000002</ele><time>2026-04-19T07:42:36.669Z</time></trkpt><trkpt lat="43.6921908" lon="11.3289436"><ele>199.39999999999998</ele><time>2026-04-19T07:42:37.667Z</time></trkpt><trkpt lat="43.6921923" lon="11.3288261"><ele>198.2</ele><time>2026-04-19T07:42:38.668Z</time></trkpt><trkpt lat="43.6921984" lon="11.3287206"><ele>197.0</ele><time>2026-04-19T07:42:39.666Z</time></trkpt><trkpt lat="43.6922064" lon="11.3285699"><ele>195.66666666666669</ele><time>2026-04-19T07:42:41.646Z</time></trkpt><trkpt lat="43.6921781" lon="11.3284137"><ele>194.33333333333331</ele><time>2026-04-19T07:42:48.665Z</time></trkpt><trkpt lat="43.6920734" lon="11.3281487"><ele>193.0</ele><time>2026-04-19T07:42:52.667Z</time></trkpt><trkpt lat="43.6919627" lon="11.3280863"><ele>191.66666666666666</ele><time>2026-04-19T07:42:54.685Z</time></trkpt><trkpt lat="43.6918912" lon="11.3280528"><ele>190.33333333333331</ele><time>2026-04-19T07:42:55.672Z</time></trkpt><trkpt lat="43.6918134" lon="11.3280155"><ele>189.0</ele><time>2026-04-19T07:42:56.675Z</time></trkpt><trkpt lat="43.6917387" lon="11.3279801"><ele>187.66666666666666</ele><time>2026-04-19T07:42:57.667Z</time></trkpt><trkpt lat="43.6916653" lon="11.3279333"><ele>186.33333333333331</ele><time>2026-04-19T07:42:58.67Z</time></trkpt><trkpt lat="43.6915837" lon="11.3278851"><ele>185.0</ele><time>2026-04-19T07:42:59.668Z</time></trkpt><trkpt lat="43.6914934" lon="11.3278374"><ele>185.0</ele><time>2026-04-19T07:43:00.666Z</time></trkpt><trkpt lat="43.6914031" lon="11.3277949"><ele>185.0</ele><time>2026-04-19T07:43:01.668Z</time></trkpt><trkpt lat="43.6913158" lon="11.32775"><ele>185.0</ele><time>2026-04-19T07:43:02.663Z</time></trkpt><trkpt lat="43.6912332" lon="11.3277049"><ele>185.0</ele><time>2026-04-19T07:43:03.658Z</time></trkpt><trkpt lat="43.6911505" lon="11.3276584"><ele>185.0</ele><time>2026-04-19T07:43:04.659Z</time></trkpt><trkpt lat="43.6910739" lon="11.3276188"><ele>185.0</ele><time>2026-04-19T07:43:05.657Z</time></trkpt><trkpt lat="43.6909993" lon="11.32757"><ele>184.0</ele><time>2026-04-19T07:43:06.655Z</time></trkpt><trkpt lat="43.6909333" lon="11.3275033"><ele>183.0</ele><time>2026-04-19T07:43:07.645Z</time></trkpt><trkpt lat="43.6908649" lon="11.3274021"><ele>182.0</ele><time>2026-04-19T07:43:08.655Z</time></trkpt><trkpt lat="43.6907991" lon="11.3272919"><ele>181.0</ele><time>2026-04-19T07:43:09.65Z</time></trkpt><trkpt lat="43.6906428" lon="11.3270973"><ele>180.33333333333334</ele><time>2026-04-19T07:43:11.653Z</time></trkpt><trkpt lat="43.6905667" lon="11.3270197"><ele>179.66666666666669</ele><time>2026-04-19T07:43:12.654Z</time></trkpt><trkpt lat="43.6904982" lon="11.3269481"><ele>179.0</ele><time>2026-04-19T07:43:13.658Z</time></trkpt><trkpt lat="43.6904134" lon="11.3268869"><ele>178.33333333333334</ele><time>2026-04-19T07:43:14.647Z</time></trkpt><trkpt lat="43.6903387" lon="11.326864"><ele>177.66666666666666</ele><time>2026-04-19T07:43:15.654Z</time></trkpt><trkpt lat="43.6902651" lon="11.3268344"><ele>177.0</ele><time>2026-04-19T07:43:17.661Z</time></trkpt><trkpt lat="43.6902051" lon="11.3267704"><ele>177.0</ele><time>2026-04-19T07:43:22.669Z</time></trkpt><trkpt lat="43.6901402" lon="11.3267405"><ele>177.0</ele><time>2026-04-19T07:43:36.67Z</time></trkpt><trkpt lat="43.690308" lon="11.3268668"><ele>177.0</ele><time>2026-04-19T07:46:01.607Z</time></trkpt><trkpt lat="43.6904131" lon="11.3269337"><ele>177.0</ele><time>2026-04-19T07:46:03.601Z</time></trkpt><trkpt lat="43.6904799" lon="11.3269736"><ele>177.0</ele><time>2026-04-19T07:46:04.605Z</time></trkpt><trkpt lat="43.6905551" lon="11.3270222"><ele>177.0</ele><time>2026-04-19T07:46:05.605Z</time></trkpt><trkpt lat="43.6906515" lon="11.3271139"><ele>177.0</ele><time>2026-04-19T07:46:07.612Z</time></trkpt><trkpt lat="43.6907532" lon="11.3272035"><ele>177.0</ele><time>2026-04-19T07:46:09.61Z</time></trkpt><trkpt lat="43.6908062" lon="11.3272658"><ele>177.0</ele><time>2026-04-19T07:46:10.608Z</time></trkpt><trkpt lat="43.6908643" lon="11.3273448"><ele>177.0</ele><time>2026-04-19T07:46:11.608Z</time></trkpt><trkpt lat="43.6909278" lon="11.3274148"><ele>177.8</ele><time>2026-04-19T07:46:12.612Z</time></trkpt><trkpt lat="43.690982" lon="11.3274844"><ele>178.6</ele><time>2026-04-19T07:46:13.611Z</time></trkpt><trkpt lat="43.691035" lon="11.327542"><ele>179.4</ele><time>2026-04-19T07:46:14.612Z</time></trkpt><trkpt lat="43.6911572" lon="11.3276304"><ele>180.20000000000002</ele><time>2026-04-19T07:46:16.614Z</time></trkpt><trkpt lat="43.6912342" lon="11.3276757"><ele>181.0</ele><time>2026-04-19T07:46:17.617Z</time></trkpt><trkpt lat="43.69131" lon="11.3277388"><ele>182.33333333333334</ele><time>2026-04-19T07:46:18.614Z</time></trkpt><trkpt lat="43.6915346" lon="11.3278744"><ele>183.66666666666666</ele><time>2026-04-19T07:46:20.614Z</time></trkpt><trkpt lat="43.6916756" lon="11.3279367"><ele>185.0</ele><time>2026-04-19T07:46:21.614Z</time></trkpt><trkpt lat="43.6918378" lon="11.3280128"><ele>186.6</ele><time>2026-04-19T07:46:22.613Z</time></trkpt><trkpt lat="43.6919637" lon="11.3280749"><ele>188.2</ele><time>2026-04-19T07:46:23.608Z</time></trkpt><trkpt lat="43.692047" lon="11.3281304"><ele>189.8</ele><time>2026-04-19T07:46:24.606Z</time></trkpt><trkpt lat="43.6921286" lon="11.3281793"><ele>191.4</ele><time>2026-04-19T07:46:26.61Z</time></trkpt><trkpt lat="43.6921604" lon="11.3282579"><ele>193.0</ele><time>2026-04-19T07:46:28.618Z</time></trkpt><trkpt lat="43.6921557" lon="11.328364"><ele>193.0</ele><time>2026-04-19T07:46:31.627Z</time></trkpt><trkpt lat="43.69215" lon="11.3284541"><ele>193.0</ele><time>2026-04-19T07:46:37.62Z</time></trkpt><trkpt lat="43.6920633" lon="11.3286014"><ele>193.0</ele><time>2026-04-19T07:46:39.607Z</time></trkpt><trkpt lat="43.6919391" lon="11.3288201"><ele>193.0</ele><time>2026-04-19T07:46:41.602Z</time></trkpt><trkpt lat="43.6918803" lon="11.3289316"><ele>192.60000000000002</ele><time>2026-04-19T07:46:42.598Z</time></trkpt><trkpt lat="43.6918242" lon="11.3290458"><ele>192.20000000000002</ele><time>2026-04-19T07:46:43.599Z</time></trkpt><trkpt lat="43.6917691" lon="11.3291617"><ele>191.8</ele><time>2026-04-19T07:46:44.599Z</time></trkpt><trkpt lat="43.6917156" lon="11.3292744"><ele>191.4</ele><time>2026-04-19T07:46:45.595Z</time></trkpt><trkpt lat="43.6916667" lon="11.3293936"><ele>191.0</ele><time>2026-04-19T07:46:46.598Z</time></trkpt><trkpt lat="43.6916192" lon="11.3295125"><ele>191.0</ele><time>2026-04-19T07:46:47.601Z</time></trkpt><trkpt lat="43.6915715" lon="11.3296463"><ele>191.0</ele><time>2026-04-19T07:46:48.599Z</time></trkpt><trkpt lat="43.6915156" lon="11.3297814"><ele>191.0</ele><time>2026-04-19T07:46:49.606Z</time></trkpt><trkpt lat="43.6914472" lon="11.3299065"><ele>191.0</ele><time>2026-04-19T07:46:50.606Z</time></trkpt><trkpt lat="43.6913634" lon="11.3300283"><ele>191.20000000000002</ele><time>2026-04-19T07:46:51.622Z</time></trkpt><trkpt lat="43.6912733" lon="11.3301434"><ele>191.4</ele><time>2026-04-19T07:46:52.618Z</time></trkpt><trkpt lat="43.6912246" lon="11.330202"><ele>191.6</ele><time>2026-04-19T07:46:53.688Z</time></trkpt><trkpt lat="43.6911311" lon="11.3303075"><ele>191.8</ele><time>2026-04-19T07:46:55.694Z</time></trkpt><trkpt lat="43.6910311" lon="11.3304235"><ele>192.0</ele><time>2026-04-19T07:46:57.68Z</time></trkpt><trkpt lat="43.6909864" lon="11.3304856"><ele>193.39999999999998</ele><time>2026-04-19T07:46:58.684Z</time></trkpt><trkpt lat="43.6909318" lon="11.3305581"><ele>194.79999999999998</ele><time>2026-04-19T07:46:59.678Z</time></trkpt><trkpt lat="43.6908774" lon="11.3306385"><ele>196.2</ele><time>2026-04-19T07:47:00.691Z</time></trkpt><trkpt lat="43.6907459" lon="11.3308471"><ele>197.6</ele><time>2026-04-19T07:47:02.705Z</time></trkpt><trkpt lat="43.690689" lon="11.3309483"><ele>199.0</ele><time>2026-04-19T07:47:03.696Z</time></trkpt><trkpt lat="43.6901027" lon="11.3320554"><ele>199.0</ele><time>2026-04-19T07:47:04.701Z</time></trkpt><trkpt lat="43.6900303" lon="11.3322137"><ele>199.0</ele><time>2026-04-19T07:47:05.697Z</time></trkpt><trkpt lat="43.6899162" lon="11.3324628"><ele>199.0</ele><time>2026-04-19T07:47:06.706Z</time></trkpt><trkpt lat="43.6898219" lon="11.3326753"><ele>201.0</ele><time>2026-04-19T07:47:07.7Z</time></trkpt><trkpt lat="43.689725" lon="11.3328907"><ele>203.0</ele><time>2026-04-19T07:47:08.692Z</time></trkpt><trkpt lat="43.6896108" lon="11.3331223"><ele>205.0</ele><time>2026-04-19T07:47:09.693Z</time></trkpt><trkpt lat="43.6894934" lon="11.333357"><ele>206.66666666666666</ele><time>2026-04-19T07:47:10.695Z</time></trkpt><trkpt lat="43.6893682" lon="11.3335756"><ele>208.33333333333331</ele><time>2026-04-19T07:47:11.687Z</time></trkpt><trkpt lat="43.6892434" lon="11.3337699"><ele>210.0</ele><time>2026-04-19T07:47:12.689Z</time></trkpt><trkpt lat="43.6891331" lon="11.3339534"><ele>212.0</ele><time>2026-04-19T07:47:13.688Z</time></trkpt><trkpt lat="43.6890266" lon="11.3341182"><ele>214.0</ele><time>2026-04-19T07:47:14.696Z</time></trkpt><trkpt lat="43.6889188" lon="11.3342592"><ele>216.0</ele><time>2026-04-19T07:47:15.687Z</time></trkpt><trkpt lat="43.6888174" lon="11.3343862"><ele>218.0</ele><time>2026-04-19T07:47:16.685Z</time></trkpt><trkpt lat="43.6887081" lon="11.3345103"><ele>218.0</ele><time>2026-04-19T07:47:17.685Z</time></trkpt><trkpt lat="43.6886027" lon="11.3346251"><ele>218.0</ele><time>2026-04-19T07:47:18.691Z</time></trkpt><trkpt lat="43.6885231" lon="11.3347142"><ele>218.0</ele><time>2026-04-19T07:47:19.692Z</time></trkpt><trkpt lat="43.6884246" lon="11.3348289"><ele>218.0</ele><time>2026-04-19T07:47:20.699Z</time></trkpt><trkpt lat="43.6883191" lon="11.3349488"><ele>219.0</ele><time>2026-04-19T07:47:21.699Z</time></trkpt><trkpt lat="43.6881" lon="11.3351982"><ele>220.0</ele><time>2026-04-19T07:47:23.694Z</time></trkpt><trkpt lat="43.6879849" lon="11.3353232"><ele>221.0</ele><time>2026-04-19T07:47:24.691Z</time></trkpt><trkpt lat="43.6878669" lon="11.3354463"><ele>221.5</ele><time>2026-04-19T07:47:25.689Z</time></trkpt><trkpt lat="43.6877454" lon="11.3355575"><ele>222.0</ele><time>2026-04-19T07:47:26.689Z</time></trkpt><trkpt lat="43.6876183" lon="11.3356581"><ele>222.5</ele><time>2026-04-19T07:47:27.688Z</time></trkpt><trkpt lat="43.6874903" lon="11.3357484"><ele>223.0</ele><time>2026-04-19T07:47:28.688Z</time></trkpt><trkpt lat="43.6873615" lon="11.3358212"><ele>223.0</ele><time>2026-04-19T07:47:29.685Z</time></trkpt><trkpt lat="43.6872298" lon="11.3358915"><ele>223.0</ele><time>2026-04-19T07:47:30.688Z</time></trkpt><trkpt lat="43.6870979" lon="11.3359604"><ele>223.0</ele><time>2026-04-19T07:47:31.693Z</time></trkpt><trkpt lat="43.6869656" lon="11.3360367"><ele>223.0</ele><time>2026-04-19T07:47:32.691Z</time></trkpt><trkpt lat="43.686838" lon="11.3361114"><ele>225.25</ele><time>2026-04-19T07:47:33.7Z</time></trkpt><trkpt lat="43.6867118" lon="11.3361886"><ele>227.5</ele><time>2026-04-19T07:47:34.69Z</time></trkpt><trkpt lat="43.6865881" lon="11.3362511"><ele>229.75</ele><time>2026-04-19T07:47:35.685Z</time></trkpt><trkpt lat="43.6864562" lon="11.33631"><ele>232.0</ele><time>2026-04-19T07:47:36.683Z</time></trkpt><trkpt lat="43.6863158" lon="11.3363535"><ele>234.25</ele><time>2026-04-19T07:47:37.698Z</time></trkpt><trkpt lat="43.6861632" lon="11.3364049"><ele>236.5</ele><time>2026-04-19T07:47:38.676Z</time></trkpt><trkpt lat="43.6860133" lon="11.3364117"><ele>238.75</ele><time>2026-04-19T07:47:39.662Z</time></trkpt><trkpt lat="43.6858765" lon="11.3363594"><ele>241.0</ele><time>2026-04-19T07:47:40.676Z</time></trkpt><trkpt lat="43.6857646" lon="11.3362071"><ele>241.66666666666666</ele><time>2026-04-19T07:47:41.688Z</time></trkpt><trkpt lat="43.6856436" lon="11.336096"><ele>242.33333333333331</ele><time>2026-04-19T07:47:42.703Z</time></trkpt><trkpt lat="43.6854171" lon="11.3358215"><ele>243.0</ele><time>2026-04-19T07:47:44.688Z</time></trkpt><trkpt lat="43.6853087" lon="11.335638"><ele>243.33333333333331</ele><time>2026-04-19T07:47:45.684Z</time></trkpt><trkpt lat="43.6852922" lon="11.3354174"><ele>243.66666666666666</ele><time>2026-04-19T07:47:46.683Z</time></trkpt><trkpt lat="43.6852891" lon="11.3351634"><ele>244.0</ele><time>2026-04-19T07:47:47.657Z</time></trkpt><trkpt lat="43.6853369" lon="11.335008"><ele>244.0</ele><time>2026-04-19T07:47:48.67Z</time></trkpt><trkpt lat="43.6853963" lon="11.3348629"><ele>243.99999999999997</ele><time>2026-04-19T07:47:49.676Z</time></trkpt><trkpt lat="43.6854565" lon="11.3347474"><ele>243.99999999999997</ele><time>2026-04-19T07:47:50.691Z</time></trkpt><trkpt lat="43.6855383" lon="11.334655"><ele>244.0</ele><time>2026-04-19T07:47:51.686Z</time></trkpt><trkpt lat="43.685626" lon="11.33459"><ele>244.0</ele><time>2026-04-19T07:47:52.681Z</time></trkpt><trkpt lat="43.6857029" lon="11.3345353"><ele>246.5</ele><time>2026-04-19T07:47:53.688Z</time></trkpt><trkpt lat="43.6858757" lon="11.3344719"><ele>249.0</ele><time>2026-04-19T07:47:54.683Z</time></trkpt><trkpt lat="43.6857988" lon="11.3344111"><ele>251.5</ele><time>2026-04-19T07:47:55.684Z</time></trkpt><trkpt lat="43.685741" lon="11.3343292"><ele>254.0</ele><time>2026-04-19T07:47:56.702Z</time></trkpt><trkpt lat="43.6858255" lon="11.3341817"><ele>254.0</ele><time>2026-04-19T07:47:58.691Z</time></trkpt><trkpt lat="43.6858824" lon="11.3341197"><ele>253.99999999999997</ele><time>2026-04-19T07:47:59.677Z</time></trkpt><trkpt lat="43.6859332" lon="11.3340543"><ele>253.99999999999997</ele><time>2026-04-19T07:48:00.677Z</time></trkpt><trkpt lat="43.6860022" lon="11.3339706"><ele>254.0</ele><time>2026-04-19T07:48:01.711Z</time></trkpt><trkpt lat="43.6860731" lon="11.3338853"><ele>254.0</ele><time>2026-04-19T07:48:02.705Z</time></trkpt><trkpt lat="43.6862307" lon="11.3336639"><ele>254.33333333333334</ele><time>2026-04-19T07:48:04.627Z</time></trkpt><trkpt lat="43.6863547" lon="11.3334078"><ele>254.66666666666669</ele><time>2026-04-19T07:48:06.605Z</time></trkpt><trkpt lat="43.6864078" lon="11.3332674"><ele>255.0</ele><time>2026-04-19T07:48:07.62Z</time></trkpt><trkpt lat="43.686452" lon="11.3331194"><ele>256.25</ele><time>2026-04-19T07:48:08.616Z</time></trkpt><trkpt lat="43.686491" lon="11.3329597"><ele>257.5</ele><time>2026-04-19T07:48:09.614Z</time></trkpt><trkpt lat="43.6865329" lon="11.3328038"><ele>258.75</ele><time>2026-04-19T07:48:10.618Z</time></trkpt><trkpt lat="43.6865753" lon="11.3326542"><ele>260.0</ele><time>2026-04-19T07:48:11.606Z</time></trkpt><trkpt lat="43.6865978" lon="11.3324991"><ele>260.0</ele><time>2026-04-19T07:48:12.614Z</time></trkpt><trkpt lat="43.6866071" lon="11.3323435"><ele>260.0</ele><time>2026-04-19T07:48:13.613Z</time></trkpt><trkpt lat="43.6866001" lon="11.3321845"><ele>260.0</ele><time>2026-04-19T07:48:14.614Z</time></trkpt><trkpt lat="43.6865805" lon="11.3320342"><ele>260.0</ele><time>2026-04-19T07:48:15.613Z</time></trkpt><trkpt lat="43.6865676" lon="11.331894"><ele>260.0</ele><time>2026-04-19T07:48:16.611Z</time></trkpt><trkpt lat="43.686556" lon="11.3317717"><ele>260.6</ele><time>2026-04-19T07:48:17.605Z</time></trkpt><trkpt lat="43.6865372" lon="11.3316793"><ele>261.2</ele><time>2026-04-19T07:48:18.614Z</time></trkpt><trkpt lat="43.6865092" lon="11.331554"><ele>261.8</ele><time>2026-04-19T07:48:20.619Z</time></trkpt><trkpt lat="43.6865039" lon="11.3314243"><ele>262.4</ele><time>2026-04-19T07:48:23.613Z</time></trkpt><trkpt lat="43.6865723" lon="11.3313274"><ele>263.0</ele><time>2026-04-19T07:48:25.616Z</time></trkpt><trkpt lat="43.6867965" lon="11.3311764"><ele>261.6</ele><time>2026-04-19T07:49:35.615Z</time></trkpt><trkpt lat="43.6868797" lon="11.3311148"><ele>260.20000000000005</ele><time>2026-04-19T07:49:37.618Z</time></trkpt><trkpt lat="43.6869696" lon="11.3310541"><ele>258.8</ele><time>2026-04-19T07:49:39.613Z</time></trkpt><trkpt lat="43.687069" lon="11.3309887"><ele>257.40000000000003</ele><time>2026-04-19T07:49:41.613Z</time></trkpt><trkpt lat="43.6871637" lon="11.3309242"><ele>256.0</ele><time>2026-04-19T07:49:43.619Z</time></trkpt><trkpt lat="43.687228" lon="11.3308796"><ele>256.0</ele><time>2026-04-19T07:49:45.624Z</time></trkpt><trkpt lat="43.6872845" lon="11.3308371"><ele>256.0</ele><time>2026-04-19T07:49:48.624Z</time></trkpt><trkpt lat="43.6871958" lon="11.330884"><ele>256.0</ele><time>2026-04-19T07:50:35.617Z</time></trkpt><trkpt lat="43.6870434" lon="11.3310044"><ele>256.0</ele><time>2026-04-19T07:50:37.619Z</time></trkpt><trkpt lat="43.6869577" lon="11.3310645"><ele>256.0</ele><time>2026-04-19T07:50:38.631Z</time></trkpt><trkpt lat="43.6868695" lon="11.3311294"><ele>256.0</ele><time>2026-04-19T07:50:39.62Z</time></trkpt><trkpt lat="43.6867782" lon="11.3311862"><ele>256.0</ele><time>2026-04-19T07:50:40.621Z</time></trkpt><trkpt lat="43.6867043" lon="11.3312416"><ele>256.0</ele><time>2026-04-19T07:50:41.617Z</time></trkpt><trkpt lat="43.6866405" lon="11.3312907"><ele>256.0</ele><time>2026-04-19T07:50:42.617Z</time></trkpt><trkpt lat="43.6865352" lon="11.3313752"><ele>256.0</ele><time>2026-04-19T07:50:44.618Z</time></trkpt><trkpt lat="43.6864834" lon="11.3314571"><ele>257.40000000000003</ele><time>2026-04-19T07:50:46.613Z</time></trkpt><trkpt lat="43.6864963" lon="11.3315491"><ele>258.8</ele><time>2026-04-19T07:51:11.627Z</time></trkpt><trkpt lat="43.6865552" lon="11.3317845"><ele>260.20000000000005</ele><time>2026-04-19T07:51:15.613Z</time></trkpt><trkpt lat="43.6865562" lon="11.3318927"><ele>261.6</ele><time>2026-04-19T07:51:17.613Z</time></trkpt><trkpt lat="43.6865646" lon="11.3320086"><ele>263.0</ele><time>2026-04-19T07:51:19.618Z</time></trkpt><trkpt lat="43.6865853" lon="11.3321886"><ele>262.5</ele><time>2026-04-19T07:51:21.611Z</time></trkpt><trkpt lat="43.6865918" lon="11.3323007"><ele>262.0</ele><time>2026-04-19T07:51:22.612Z</time></trkpt><trkpt lat="43.6865902" lon="11.3324296"><ele>261.5</ele><time>2026-04-19T07:51:23.615Z</time></trkpt><trkpt lat="43.6865856" lon="11.3325457"><ele>261.0</ele><time>2026-04-19T07:51:24.612Z</time></trkpt><trkpt lat="43.6865625" lon="11.3326578"><ele>260.5</ele><time>2026-04-19T07:51:25.617Z</time></trkpt><trkpt lat="43.6865454" lon="11.3327725"><ele>260.0</ele><time>2026-04-19T07:51:26.613Z</time></trkpt><trkpt lat="43.6865264" lon="11.3328844"><ele>260.0</ele><time>2026-04-19T07:51:27.619Z</time></trkpt><trkpt lat="43.6865031" lon="11.3329832"><ele>260.0</ele><time>2026-04-19T07:51:28.621Z</time></trkpt><trkpt lat="43.6864673" lon="11.3330672"><ele>260.0</ele><time>2026-04-19T07:51:29.624Z</time></trkpt><trkpt lat="43.6864257" lon="11.3331622"><ele>260.0</ele><time>2026-04-19T07:51:30.612Z</time></trkpt><trkpt lat="43.686392" lon="11.3332689"><ele>260.0</ele><time>2026-04-19T07:51:31.62Z</time></trkpt><trkpt lat="43.6863537" lon="11.3333778"><ele>260.0</ele><time>2026-04-19T07:51:32.619Z</time></trkpt><trkpt lat="43.6862716" lon="11.3335904"><ele>260.0</ele><time>2026-04-19T07:51:34.618Z</time></trkpt><trkpt lat="43.6862232" lon="11.3337031"><ele>260.0</ele><time>2026-04-19T07:51:35.62Z</time></trkpt><trkpt lat="43.6861556" lon="11.333806"><ele>260.0</ele><time>2026-04-19T07:51:36.62Z</time></trkpt><trkpt lat="43.686083" lon="11.3338884"><ele>260.0</ele><time>2026-04-19T07:51:37.622Z</time></trkpt><trkpt lat="43.6859931" lon="11.3339886"><ele>260.0</ele><time>2026-04-19T07:51:38.623Z</time></trkpt><trkpt lat="43.6859066" lon="11.3340787"><ele>259.0</ele><time>2026-04-19T07:51:39.622Z</time></trkpt><trkpt lat="43.6858287" lon="11.3341573"><ele>258.0</ele><time>2026-04-19T07:51:40.636Z</time></trkpt><trkpt lat="43.6857598" lon="11.3342291"><ele>257.0</ele><time>2026-04-19T07:51:41.619Z</time></trkpt><trkpt lat="43.685698" lon="11.3342942"><ele>256.0</ele><time>2026-04-19T07:51:42.621Z</time></trkpt><trkpt lat="43.6856453" lon="11.3343477"><ele>255.00000000000003</ele><time>2026-04-19T07:51:43.613Z</time></trkpt><trkpt lat="43.6855832" lon="11.3343956"><ele>254.0</ele><time>2026-04-19T07:51:45.614Z</time></trkpt><trkpt lat="43.6855244" lon="11.3344726"><ele>251.5</ele><time>2026-04-19T07:51:56.617Z</time></trkpt><trkpt lat="43.6854513" lon="11.3347729"><ele>249.0</ele><time>2026-04-19T07:51:59.624Z</time></trkpt><trkpt lat="43.685414" lon="11.3349107"><ele>246.5</ele><time>2026-04-19T07:52:00.622Z</time></trkpt><trkpt lat="43.6853737" lon="11.3350521"><ele>244.0</ele><time>2026-04-19T07:52:01.617Z</time></trkpt><trkpt lat="43.6853448" lon="11.3351906"><ele>244.0</ele><time>2026-04-19T07:52:02.615Z</time></trkpt><trkpt lat="43.6853318" lon="11.3353339"><ele>243.99999999999997</ele><time>2026-04-19T07:52:03.612Z</time></trkpt><trkpt lat="43.6853329" lon="11.3354878"><ele>243.99999999999997</ele><time>2026-04-19T07:52:04.606Z</time></trkpt><trkpt lat="43.6853582" lon="11.3356349"><ele>244.0</ele><time>2026-04-19T07:52:05.605Z</time></trkpt><trkpt lat="43.6854143" lon="11.3357722"><ele>244.0</ele><time>2026-04-19T07:52:06.613Z</time></trkpt><trkpt lat="43.6855184" lon="11.3358941"><ele>243.66666666666666</ele><time>2026-04-19T07:52:07.605Z</time></trkpt><trkpt lat="43.6856434" lon="11.3360021"><ele>243.33333333333331</ele><time>2026-04-19T07:52:08.601Z</time></trkpt><trkpt lat="43.6857882" lon="11.3360912"><ele>243.0</ele><time>2026-04-19T07:52:09.602Z</time></trkpt><trkpt lat="43.6859454" lon="11.3361754"><ele>243.0</ele><time>2026-04-19T07:52:10.607Z</time></trkpt><trkpt lat="43.6860826" lon="11.3362513"><ele>243.0</ele><time>2026-04-19T07:52:11.644Z</time></trkpt><trkpt lat="43.686214" lon="11.3363127"><ele>243.0</ele><time>2026-04-19T07:52:12.698Z</time></trkpt><trkpt lat="43.6863464" lon="11.3363409"><ele>243.0</ele><time>2026-04-19T07:52:13.691Z</time></trkpt><trkpt lat="43.6864798" lon="11.3363246"><ele>239.33333333333331</ele><time>2026-04-19T07:52:14.698Z</time></trkpt><trkpt lat="43.6866288" lon="11.336267"><ele>235.66666666666666</ele><time>2026-04-19T07:52:15.677Z</time></trkpt><trkpt lat="43.6867714" lon="11.336188"><ele>232.0</ele><time>2026-04-19T07:52:16.674Z</time></trkpt><trkpt lat="43.686914" lon="11.3361035"><ele>227.5</ele><time>2026-04-19T07:52:17.672Z</time></trkpt><trkpt lat="43.6872038" lon="11.3359524"><ele>223.0</ele><time>2026-04-19T07:52:19.682Z</time></trkpt><trkpt lat="43.6873458" lon="11.3358795"><ele>223.0</ele><time>2026-04-19T07:52:20.687Z</time></trkpt><trkpt lat="43.6874846" lon="11.3358014"><ele>223.0</ele><time>2026-04-19T07:52:21.682Z</time></trkpt><trkpt lat="43.6876078" lon="11.3357174"><ele>223.0</ele><time>2026-04-19T07:52:22.685Z</time></trkpt><trkpt lat="43.6877174" lon="11.3355794"><ele>223.0</ele><time>2026-04-19T07:52:23.682Z</time></trkpt><trkpt lat="43.6878189" lon="11.3354807"><ele>222.5</ele><time>2026-04-19T07:52:24.686Z</time></trkpt><trkpt lat="43.6879218" lon="11.3353869"><ele>222.0</ele><time>2026-04-19T07:52:25.687Z</time></trkpt><trkpt lat="43.6880192" lon="11.3352949"><ele>221.5</ele><time>2026-04-19T07:52:26.694Z</time></trkpt><trkpt lat="43.6881077" lon="11.3352033"><ele>221.0</ele><time>2026-04-19T07:52:27.69Z</time></trkpt><trkpt lat="43.6881864" lon="11.3351156"><ele>221.0</ele><time>2026-04-19T07:52:28.69Z</time></trkpt><trkpt lat="43.6882625" lon="11.3350317"><ele>221.00000000000003</ele><time>2026-04-19T07:52:29.687Z</time></trkpt><trkpt lat="43.6883332" lon="11.3349483"><ele>221.00000000000003</ele><time>2026-04-19T07:52:30.683Z</time></trkpt><trkpt lat="43.6884005" lon="11.3348768"><ele>221.0</ele><time>2026-04-19T07:52:31.682Z</time></trkpt><trkpt lat="43.6884664" lon="11.3348021"><ele>221.0</ele><time>2026-04-19T07:52:32.682Z</time></trkpt><trkpt lat="43.6885409" lon="11.3347248"><ele>220.50000000000003</ele><time>2026-04-19T07:52:33.681Z</time></trkpt><trkpt lat="43.6886145" lon="11.3346482"><ele>220.0</ele><time>2026-04-19T07:52:34.668Z</time></trkpt><trkpt lat="43.68868" lon="11.3345754"><ele>219.5</ele><time>2026-04-19T07:52:35.666Z</time></trkpt><trkpt lat="43.6887437" lon="11.3345025"><ele>219.0</ele><time>2026-04-19T07:52:36.668Z</time></trkpt><trkpt lat="43.6888024" lon="11.3344315"><ele>218.50000000000003</ele><time>2026-04-19T07:52:37.671Z</time></trkpt><trkpt lat="43.6888521" lon="11.3343757"><ele>218.0</ele><time>2026-04-19T07:52:38.68Z</time></trkpt><trkpt lat="43.6890057" lon="11.3344149"><ele>218.0</ele><time>2026-04-19T07:52:42.708Z</time></trkpt><trkpt lat="43.6890394" lon="11.3344962"><ele>218.0</ele><time>2026-04-19T07:52:43.678Z</time></trkpt><trkpt lat="43.6890812" lon="11.3345804"><ele>218.0</ele><time>2026-04-19T07:52:44.68Z</time></trkpt><trkpt lat="43.6891279" lon="11.3346762"><ele>218.0</ele><time>2026-04-19T07:52:45.66Z</time></trkpt><trkpt lat="43.6891797" lon="11.3347753"><ele>218.0</ele><time>2026-04-19T07:52:46.667Z</time></trkpt><trkpt lat="43.6892163" lon="11.3348515"><ele>218.0</ele><time>2026-04-19T07:52:47.659Z</time></trkpt><trkpt lat="43.6892608" lon="11.334914"><ele>218.0</ele><time>2026-04-19T07:52:48.663Z</time></trkpt><trkpt lat="43.6893734" lon="11.3349266"><ele>221.60000000000002</ele><time>2026-04-19T07:52:50.682Z</time></trkpt><trkpt lat="43.6894539" lon="11.3349426"><ele>225.20000000000002</ele><time>2026-04-19T07:52:51.658Z</time></trkpt><trkpt lat="43.6895324" lon="11.3349186"><ele>228.8</ele><time>2026-04-19T07:52:52.661Z</time></trkpt><trkpt lat="43.6896189" lon="11.3348943"><ele>232.4</ele><time>2026-04-19T07:52:53.661Z</time></trkpt><trkpt lat="43.6897185" lon="11.3348789"><ele>236.0</ele><time>2026-04-19T07:52:54.657Z</time></trkpt><trkpt lat="43.6898202" lon="11.3348564"><ele>236.0</ele><time>2026-04-19T07:52:55.671Z</time></trkpt><trkpt lat="43.6899077" lon="11.3348162"><ele>236.00000000000003</ele><time>2026-04-19T07:52:56.673Z</time></trkpt><trkpt lat="43.6899971" lon="11.3347675"><ele>236.00000000000003</ele><time>2026-04-19T07:52:57.681Z</time></trkpt><trkpt lat="43.6900776" lon="11.334719"><ele>236.0</ele><time>2026-04-19T07:52:58.674Z</time></trkpt><trkpt lat="43.6901604" lon="11.334672"><ele>236.0</ele><time>2026-04-19T07:52:59.672Z</time></trkpt><trkpt lat="43.6903252" lon="11.3345926"><ele>235.50000000000003</ele><time>2026-04-19T07:53:01.674Z</time></trkpt><trkpt lat="43.690419" lon="11.3345643"><ele>235.0</ele><time>2026-04-19T07:53:02.68Z</time></trkpt><trkpt lat="43.6905008" lon="11.3345558"><ele>234.5</ele><time>2026-04-19T07:53:03.677Z</time></trkpt><trkpt lat="43.6906021" lon="11.3345801"><ele>234.0</ele><time>2026-04-19T07:53:05.665Z</time></trkpt><trkpt lat="43.6906853" lon="11.3345786"><ele>233.50000000000003</ele><time>2026-04-19T07:53:08.692Z</time></trkpt><trkpt lat="43.6907257" lon="11.3345045"><ele>233.0</ele><time>2026-04-19T07:53:14.701Z</time></trkpt><trkpt lat="43.6908003" lon="11.334454"><ele>233.0</ele><time>2026-04-19T07:53:20.712Z</time></trkpt><trkpt lat="43.6909476" lon="11.3342794"><ele>233.0</ele><time>2026-04-19T07:53:24.693Z</time></trkpt><trkpt lat="43.6910137" lon="11.3342114"><ele>233.0</ele><time>2026-04-19T07:53:25.691Z</time></trkpt><trkpt lat="43.691067" lon="11.3341414"><ele>233.0</ele><time>2026-04-19T07:53:26.694Z</time></trkpt><trkpt lat="43.6911257" lon="11.3340751"><ele>233.0</ele><time>2026-04-19T07:53:27.707Z</time></trkpt><trkpt lat="43.6911833" lon="11.3340101"><ele>232.66666666666669</ele><time>2026-04-19T07:53:28.702Z</time></trkpt><trkpt lat="43.6912469" lon="11.3339493"><ele>232.33333333333334</ele><time>2026-04-19T07:53:29.705Z</time></trkpt><trkpt lat="43.6912851" lon="11.3338793"><ele>232.0</ele><time>2026-04-19T07:53:30.701Z</time></trkpt><trkpt lat="43.691295" lon="11.3337251"><ele>231.66666666666669</ele><time>2026-04-19T07:53:32.685Z</time></trkpt><trkpt lat="43.6913753" lon="11.3336619"><ele>231.33333333333334</ele><time>2026-04-19T07:53:34.689Z</time></trkpt><trkpt lat="43.6914565" lon="11.333686"><ele>231.0</ele><time>2026-04-19T07:53:36.591Z</time></trkpt><trkpt lat="43.691549" lon="11.3337772"><ele>231.0</ele><time>2026-04-19T07:53:38.585Z</time></trkpt><trkpt lat="43.6915906" lon="11.3338434"><ele>231.00000000000003</ele><time>2026-04-19T07:53:39.599Z</time></trkpt><trkpt lat="43.6916634" lon="11.3339321"><ele>231.00000000000003</ele><time>2026-04-19T07:53:41.596Z</time></trkpt><trkpt lat="43.6918333" lon="11.3339561"><ele>231.0</ele><time>2026-04-19T07:53:44.615Z</time></trkpt><trkpt lat="43.6918899" lon="11.3339065"><ele>231.0</ele><time>2026-04-19T07:53:45.601Z</time></trkpt><trkpt lat="43.6919567" lon="11.3338481"><ele>230.0</ele><time>2026-04-19T07:53:46.606Z</time></trkpt><trkpt lat="43.6920114" lon="11.3337678"><ele>229.0</ele><time>2026-04-19T07:53:47.604Z</time></trkpt><trkpt lat="43.692062" lon="11.3336847"><ele>228.0</ele><time>2026-04-19T07:53:48.606Z</time></trkpt><trkpt lat="43.6921234" lon="11.3336214"><ele>227.0</ele><time>2026-04-19T07:53:49.6Z</time></trkpt><trkpt lat="43.6922015" lon="11.333571"><ele>226.0</ele><time>2026-04-19T07:53:50.605Z</time></trkpt><trkpt lat="43.6922848" lon="11.3335352"><ele>225.0</ele><time>2026-04-19T07:53:51.608Z</time></trkpt><trkpt lat="43.6923614" lon="11.333487"><ele>225.0</ele><time>2026-04-19T07:53:52.605Z</time></trkpt><trkpt lat="43.692444" lon="11.3334348"><ele>225.0</ele><time>2026-04-19T07:53:53.603Z</time></trkpt><trkpt lat="43.6925267" lon="11.3333902"><ele>225.0</ele><time>2026-04-19T07:53:54.609Z</time></trkpt><trkpt lat="43.6926185" lon="11.3333488"><ele>225.0</ele><time>2026-04-19T07:53:55.608Z</time></trkpt><trkpt lat="43.6927149" lon="11.3333164"><ele>225.0</ele><time>2026-04-19T07:53:56.603Z</time></trkpt><trkpt lat="43.6928131" lon="11.3332904"><ele>224.83333333333334</ele><time>2026-04-19T07:53:57.606Z</time></trkpt><trkpt lat="43.6929069" lon="11.3332501"><ele>224.66666666666669</ele><time>2026-04-19T07:53:58.607Z</time></trkpt><trkpt lat="43.6930021" lon="11.3332432"><ele>224.5</ele><time>2026-04-19T07:53:59.606Z</time></trkpt><trkpt lat="43.6930873" lon="11.3332554"><ele>224.33333333333334</ele><time>2026-04-19T07:54:00.599Z</time></trkpt><trkpt lat="43.693169" lon="11.3332768"><ele>224.16666666666669</ele><time>2026-04-19T07:54:01.598Z</time></trkpt><trkpt lat="43.6932407" lon="11.3333101"><ele>224.0</ele><time>2026-04-19T07:54:02.602Z</time></trkpt><trkpt lat="43.6933698" lon="11.3333689"><ele>224.00000000000003</ele><time>2026-04-19T07:54:04.601Z</time></trkpt><trkpt lat="43.6934619" lon="11.3334318"><ele>224.0</ele><time>2026-04-19T07:54:06.602Z</time></trkpt><trkpt lat="43.6934967" lon="11.3335629"><ele>224.0</ele><time>2026-04-19T07:54:08.611Z</time></trkpt><trkpt lat="43.6934736" lon="11.3336504"><ele>224.0</ele><time>2026-04-19T07:54:09.603Z</time></trkpt><trkpt lat="43.6934403" lon="11.3337381"><ele>224.00000000000003</ele><time>2026-04-19T07:54:10.602Z</time></trkpt><trkpt lat="43.6934166" lon="11.3338486"><ele>224.0</ele><time>2026-04-19T07:54:11.601Z</time></trkpt><trkpt lat="43.6933911" lon="11.3339454"><ele>224.57142857142856</ele><time>2026-04-19T07:54:12.6Z</time></trkpt><trkpt lat="43.6933758" lon="11.3340353"><ele>225.14285714285714</ele><time>2026-04-19T07:54:13.596Z</time></trkpt><trkpt lat="43.6933636" lon="11.3341273"><ele>225.71428571428572</ele><time>2026-04-19T07:54:14.597Z</time></trkpt><trkpt lat="43.6933451" lon="11.3342125"><ele>226.28571428571428</ele><time>2026-04-19T07:54:15.61Z</time></trkpt><trkpt lat="43.6933251" lon="11.3343065"><ele>226.85714285714283</ele><time>2026-04-19T07:54:16.598Z</time></trkpt><trkpt lat="43.6932933" lon="11.3344069"><ele>227.42857142857142</ele><time>2026-04-19T07:54:17.604Z</time></trkpt><trkpt lat="43.6932509" lon="11.3344947"><ele>228.0</ele><time>2026-04-19T07:54:18.609Z</time></trkpt><trkpt lat="43.6932098" lon="11.3345852"><ele>228.0</ele><time>2026-04-19T07:54:19.608Z</time></trkpt><trkpt lat="43.6931706" lon="11.3346744"><ele>228.0</ele><time>2026-04-19T07:54:20.612Z</time></trkpt><trkpt lat="43.6931356" lon="11.3347717"><ele>228.0</ele><time>2026-04-19T07:54:21.61Z</time></trkpt><trkpt lat="43.6930945" lon="11.3348678"><ele>228.0</ele><time>2026-04-19T07:54:22.608Z</time></trkpt><trkpt lat="43.6930422" lon="11.3349543"><ele>228.0</ele><time>2026-04-19T07:54:23.607Z</time></trkpt><trkpt lat="43.6929336" lon="11.3351402"><ele>227.66666666666666</ele><time>2026-04-19T07:54:25.606Z</time></trkpt><trkpt lat="43.6928827" lon="11.3352234"><ele>227.33333333333331</ele><time>2026-04-19T07:54:26.607Z</time></trkpt><trkpt lat="43.6928301" lon="11.3353078"><ele>227.0</ele><time>2026-04-19T07:54:27.608Z</time></trkpt><trkpt lat="43.6927737" lon="11.3353899"><ele>226.66666666666666</ele><time>2026-04-19T07:54:28.61Z</time></trkpt><trkpt lat="43.6927255" lon="11.3354679"><ele>226.33333333333331</ele><time>2026-04-19T07:54:29.611Z</time></trkpt><trkpt lat="43.6926857" lon="11.335556"><ele>226.0</ele><time>2026-04-19T07:54:30.595Z</time></trkpt><trkpt lat="43.6926533" lon="11.3356774"><ele>228.0</ele><time>2026-04-19T07:54:31.601Z</time></trkpt><trkpt lat="43.6926272" lon="11.335819"><ele>230.00000000000003</ele><time>2026-04-19T07:54:32.598Z</time></trkpt><trkpt lat="43.6926009" lon="11.3359617"><ele>232.00000000000003</ele><time>2026-04-19T07:54:33.604Z</time></trkpt><trkpt lat="43.6925753" lon="11.3361135"><ele>234.0</ele><time>2026-04-19T07:54:34.603Z</time></trkpt><trkpt lat="43.6925507" lon="11.3362706"><ele>236.0</ele><time>2026-04-19T07:54:35.602Z</time></trkpt><trkpt lat="43.6925288" lon="11.3364223"><ele>236.0</ele><time>2026-04-19T07:54:36.601Z</time></trkpt><trkpt lat="43.6925033" lon="11.3365721"><ele>236.00000000000003</ele><time>2026-04-19T07:54:37.599Z</time></trkpt><trkpt lat="43.6924675" lon="11.3367234"><ele>236.00000000000003</ele><time>2026-04-19T07:54:38.611Z</time></trkpt><trkpt lat="43.6924375" lon="11.336871"><ele>236.0</ele><time>2026-04-19T07:54:39.606Z</time></trkpt><trkpt lat="43.6924059" lon="11.3370109"><ele>236.0</ele><time>2026-04-19T07:54:40.606Z</time></trkpt><trkpt lat="43.6923732" lon="11.3371433"><ele>234.75</ele><time>2026-04-19T07:54:41.605Z</time></trkpt><trkpt lat="43.6923292" lon="11.3372707"><ele>233.5</ele><time>2026-04-19T07:54:42.607Z</time></trkpt><trkpt lat="43.6922751" lon="11.3373849"><ele>232.25</ele><time>2026-04-19T07:54:43.605Z</time></trkpt><trkpt lat="43.6922143" lon="11.3375018"><ele>231.0</ele><time>2026-04-19T07:54:44.618Z</time></trkpt><trkpt lat="43.6920767" lon="11.337743"><ele>231.0</ele><time>2026-04-19T07:54:46.632Z</time></trkpt><trkpt lat="43.6919924" lon="11.3378713"><ele>231.0</ele><time>2026-04-19T07:54:47.617Z</time></trkpt><trkpt lat="43.6919035" lon="11.3379925"><ele>231.0</ele><time>2026-04-19T07:54:48.629Z</time></trkpt><trkpt lat="43.6918229" lon="11.3380973"><ele>231.0</ele><time>2026-04-19T07:54:49.612Z</time></trkpt><trkpt lat="43.6917382" lon="11.3382125"><ele>234.0</ele><time>2026-04-19T07:54:50.62Z</time></trkpt><trkpt lat="43.6916617" lon="11.3383196"><ele>237.0</ele><time>2026-04-19T07:54:51.62Z</time></trkpt><trkpt lat="43.691604" lon="11.3384465"><ele>240.0</ele><time>2026-04-19T07:54:52.627Z</time></trkpt><trkpt lat="43.6915614" lon="11.3386155"><ele>243.0</ele><time>2026-04-19T07:54:53.622Z</time></trkpt><trkpt lat="43.6915149" lon="11.3387695"><ele>243.2</ele><time>2026-04-19T07:54:54.625Z</time></trkpt><trkpt lat="43.6914576" lon="11.3388967"><ele>243.4</ele><time>2026-04-19T07:54:55.613Z</time></trkpt><trkpt lat="43.6913868" lon="11.3389955"><ele>243.59999999999997</ele><time>2026-04-19T07:54:56.617Z</time></trkpt><trkpt lat="43.6912898" lon="11.3390858"><ele>243.79999999999998</ele><time>2026-04-19T07:54:57.613Z</time></trkpt><trkpt lat="43.6911876" lon="11.3391618"><ele>244.0</ele><time>2026-04-19T07:54:58.617Z</time></trkpt><trkpt lat="43.6911146" lon="11.3392295"><ele>247.83333333333331</ele><time>2026-04-19T07:54:59.611Z</time></trkpt><trkpt lat="43.6910557" lon="11.3393114"><ele>251.66666666666666</ele><time>2026-04-19T07:55:00.606Z</time></trkpt><trkpt lat="43.6910233" lon="11.3394228"><ele>255.5</ele><time>2026-04-19T07:55:01.597Z</time></trkpt><trkpt lat="43.6909952" lon="11.3395421"><ele>259.3333333333333</ele><time>2026-04-19T07:55:02.6Z</time></trkpt><trkpt lat="43.6909735" lon="11.3396464"><ele>263.1666666666667</ele><time>2026-04-19T07:55:03.6Z</time></trkpt><trkpt lat="43.6909662" lon="11.3397331"><ele>267.0</ele><time>2026-04-19T07:55:04.595Z</time></trkpt><trkpt lat="43.6910187" lon="11.3398333"><ele>264.25</ele><time>2026-04-19T07:55:06.597Z</time></trkpt><trkpt lat="43.6911819" lon="11.3399166"><ele>261.5</ele><time>2026-04-19T07:55:08.595Z</time></trkpt><trkpt lat="43.6912899" lon="11.339972"><ele>258.75</ele><time>2026-04-19T07:55:09.595Z</time></trkpt><trkpt lat="43.6914001" lon="11.340055"><ele>256.0</ele><time>2026-04-19T07:55:10.599Z</time></trkpt><trkpt lat="43.691481" lon="11.340145"><ele>256.0</ele><time>2026-04-19T07:55:11.598Z</time></trkpt><trkpt lat="43.6915373" lon="11.3402571"><ele>256.0</ele><time>2026-04-19T07:55:12.603Z</time></trkpt><trkpt lat="43.6915795" lon="11.3403878"><ele>256.0</ele><time>2026-04-19T07:55:13.599Z</time></trkpt><trkpt lat="43.6916191" lon="11.3405314"><ele>256.0</ele><time>2026-04-19T07:55:14.604Z</time></trkpt><trkpt lat="43.6916704" lon="11.3406535"><ele>256.0</ele><time>2026-04-19T07:55:15.6Z</time></trkpt><trkpt lat="43.6917328" lon="11.3407643"><ele>256.75</ele><time>2026-04-19T07:55:16.605Z</time></trkpt><trkpt lat="43.6918202" lon="11.3408693"><ele>257.5</ele><time>2026-04-19T07:55:17.612Z</time></trkpt><trkpt lat="43.6919104" lon="11.3409615"><ele>258.25</ele><time>2026-04-19T07:55:18.596Z</time></trkpt><trkpt lat="43.6920239" lon="11.3410481"><ele>259.0</ele><time>2026-04-19T07:55:19.61Z</time></trkpt><trkpt lat="43.6921417" lon="11.341126"><ele>259.0</ele><time>2026-04-19T07:55:20.619Z</time></trkpt><trkpt lat="43.6922345" lon="11.3411893"><ele>259.0</ele><time>2026-04-19T07:55:21.61Z</time></trkpt><trkpt lat="43.6923086" lon="11.3412597"><ele>259.0</ele><time>2026-04-19T07:55:22.62Z</time></trkpt><trkpt lat="43.6923549" lon="11.3413406"><ele>259.0</ele><time>2026-04-19T07:55:23.61Z</time></trkpt><trkpt lat="43.6923811" lon="11.3414568"><ele>259.0</ele><time>2026-04-19T07:55:24.617Z</time></trkpt><trkpt lat="43.6924023" lon="11.3416183"><ele>261.8</ele><time>2026-04-19T07:55:25.619Z</time></trkpt><trkpt lat="43.692429" lon="11.341777"><ele>264.59999999999997</ele><time>2026-04-19T07:55:26.617Z</time></trkpt><trkpt lat="43.6924609" lon="11.3418886"><ele>267.4</ele><time>2026-04-19T07:55:27.62Z</time></trkpt><trkpt lat="43.6925557" lon="11.3420164"><ele>270.2</ele><time>2026-04-19T07:55:29.614Z</time></trkpt><trkpt lat="43.6926426" lon="11.342035"><ele>273.0</ele><time>2026-04-19T07:55:30.608Z</time></trkpt><trkpt lat="43.6927213" lon="11.3420691"><ele>273.1666666666667</ele><time>2026-04-19T07:55:31.608Z</time></trkpt><trkpt lat="43.6927867" lon="11.3421352"><ele>273.3333333333333</ele><time>2026-04-19T07:55:32.621Z</time></trkpt><trkpt lat="43.6928467" lon="11.3422265"><ele>273.5</ele><time>2026-04-19T07:55:33.622Z</time></trkpt><trkpt lat="43.6928913" lon="11.3423315"><ele>273.66666666666663</ele><time>2026-04-19T07:55:34.623Z</time></trkpt><trkpt lat="43.6929265" lon="11.3424466"><ele>273.8333333333333</ele><time>2026-04-19T07:55:35.625Z</time></trkpt><trkpt lat="43.6929551" lon="11.3425559"><ele>274.0</ele><time>2026-04-19T07:55:36.616Z</time></trkpt><trkpt lat="43.6929902" lon="11.3426416"><ele>274.0</ele><time>2026-04-19T07:55:37.626Z</time></trkpt><trkpt lat="43.6930528" lon="11.3427078"><ele>274.0</ele><time>2026-04-19T07:55:38.611Z</time></trkpt><trkpt lat="43.6931074" lon="11.3427539"><ele>274.0</ele><time>2026-04-19T07:55:39.61Z</time></trkpt><trkpt lat="43.6931853" lon="11.3428369"><ele>274.0</ele><time>2026-04-19T07:55:41.609Z</time></trkpt><trkpt lat="43.6932453" lon="11.3428968"><ele>274.0</ele><time>2026-04-19T07:55:43.613Z</time></trkpt><trkpt lat="43.69332" lon="11.3429733"><ele>274.0</ele><time>2026-04-19T07:55:45.606Z</time></trkpt><trkpt lat="43.6933834" lon="11.3430515"><ele>274.4</ele><time>2026-04-19T07:55:47.614Z</time></trkpt><trkpt lat="43.6934442" lon="11.3431629"><ele>274.79999999999995</ele><time>2026-04-19T07:55:49.616Z</time></trkpt><trkpt lat="43.6935086" lon="11.3433171"><ele>275.20000000000005</ele><time>2026-04-19T07:55:51.612Z</time></trkpt><trkpt lat="43.6935404" lon="11.3434122"><ele>275.6</ele><time>2026-04-19T07:55:52.612Z</time></trkpt><trkpt lat="43.6935859" lon="11.3435146"><ele>276.0</ele><time>2026-04-19T07:55:53.606Z</time></trkpt><trkpt lat="43.6936328" lon="11.3436203"><ele>276.0</ele><time>2026-04-19T07:55:54.613Z</time></trkpt><trkpt lat="43.693665" lon="11.3437402"><ele>276.0</ele><time>2026-04-19T07:55:55.612Z</time></trkpt><trkpt lat="43.6936767" lon="11.3438699"><ele>276.0</ele><time>2026-04-19T07:55:56.619Z</time></trkpt><trkpt lat="43.6936769" lon="11.3440285"><ele>276.0</ele><time>2026-04-19T07:55:57.612Z</time></trkpt><trkpt lat="43.6936824" lon="11.3441652"><ele>276.0</ele><time>2026-04-19T07:55:58.623Z</time></trkpt><trkpt lat="43.6936906" lon="11.344292"><ele>277.6666666666667</ele><time>2026-04-19T07:55:59.608Z</time></trkpt><trkpt lat="43.6937091" lon="11.3443986"><ele>279.3333333333333</ele><time>2026-04-19T07:56:00.607Z</time></trkpt><trkpt lat="43.6937398" lon="11.3444842"><ele>281.0</ele><time>2026-04-19T07:56:01.607Z</time></trkpt><trkpt lat="43.6937796" lon="11.3445898"><ele>282.66666666666663</ele><time>2026-04-19T07:56:02.606Z</time></trkpt><trkpt lat="43.6938066" lon="11.3447239"><ele>284.3333333333333</ele><time>2026-04-19T07:56:03.605Z</time></trkpt><trkpt lat="43.6938146" lon="11.3448651"><ele>286.0</ele><time>2026-04-19T07:56:04.61Z</time></trkpt><trkpt lat="43.6938293" lon="11.3450143"><ele>287.8</ele><time>2026-04-19T07:56:05.611Z</time></trkpt><trkpt lat="43.6938312" lon="11.3451515"><ele>289.6</ele><time>2026-04-19T07:56:06.604Z</time></trkpt><trkpt lat="43.6938418" lon="11.345277"><ele>291.4</ele><time>2026-04-19T07:56:07.61Z</time></trkpt><trkpt lat="43.6938134" lon="11.345402"><ele>293.2</ele><time>2026-04-19T07:56:08.616Z</time></trkpt><trkpt lat="43.6937976" lon="11.3455165"><ele>295.0</ele><time>2026-04-19T07:56:09.609Z</time></trkpt><trkpt lat="43.6938226" lon="11.3456514"><ele>296.25</ele><time>2026-04-19T07:56:10.609Z</time></trkpt><trkpt lat="43.6938515" lon="11.3459107"><ele>297.5</ele><time>2026-04-19T07:56:12.611Z</time></trkpt><trkpt lat="43.6938746" lon="11.3460134"><ele>298.75</ele><time>2026-04-19T07:56:13.608Z</time></trkpt><trkpt lat="43.6939531" lon="11.3461307"><ele>300.0</ele><time>2026-04-19T07:56:15.602Z</time></trkpt><trkpt lat="43.6939135" lon="11.3462897"><ele>301.1666666666667</ele><time>2026-04-19T07:56:17.602Z</time></trkpt><trkpt lat="43.693865" lon="11.3463988"><ele>302.3333333333333</ele><time>2026-04-19T07:56:18.604Z</time></trkpt><trkpt lat="43.6938042" lon="11.3465141"><ele>303.5</ele><time>2026-04-19T07:56:19.618Z</time></trkpt><trkpt lat="43.6937554" lon="11.3466005"><ele>304.66666666666663</ele><time>2026-04-19T07:56:20.607Z</time></trkpt><trkpt lat="43.6937242" lon="11.3467035"><ele>305.8333333333333</ele><time>2026-04-19T07:56:22.605Z</time></trkpt><trkpt lat="43.6937717" lon="11.3467626"><ele>307.0</ele><time>2026-04-19T07:56:23.584Z</time></trkpt><trkpt lat="43.6938546" lon="11.3467639"><ele>307.0</ele><time>2026-04-19T07:56:24.593Z</time></trkpt><trkpt lat="43.6939537" lon="11.3467041"><ele>307.0</ele><time>2026-04-19T07:56:25.593Z</time></trkpt><trkpt lat="43.6940709" lon="11.3466595"><ele>307.0</ele><time>2026-04-19T07:56:26.599Z</time></trkpt><trkpt lat="43.6941648" lon="11.3466379"><ele>307.0</ele><time>2026-04-19T07:56:27.6Z</time></trkpt><trkpt lat="43.6942323" lon="11.3466331"><ele>307.0</ele><time>2026-04-19T07:56:28.599Z</time></trkpt><trkpt lat="43.6942935" lon="11.3466932"><ele>307.0</ele><time>2026-04-19T07:56:30.612Z</time></trkpt><trkpt lat="43.6942334" lon="11.3467491"><ele>307.0</ele><time>2026-04-19T07:56:36.623Z</time></trkpt><trkpt lat="43.6941042" lon="11.3469217"><ele>307.0</ele><time>2026-04-19T07:56:39.614Z</time></trkpt><trkpt lat="43.6940388" lon="11.3470252"><ele>307.0</ele><time>2026-04-19T07:56:40.612Z</time></trkpt><trkpt lat="43.6940154" lon="11.3471409"><ele>307.0</ele><time>2026-04-19T07:56:41.613Z</time></trkpt><trkpt lat="43.6940074" lon="11.3472796"><ele>308.8</ele><time>2026-04-19T07:56:42.611Z</time></trkpt><trkpt lat="43.6939953" lon="11.3474092"><ele>310.6</ele><time>2026-04-19T07:56:43.605Z</time></trkpt><trkpt lat="43.6939668" lon="11.3475195"><ele>312.40000000000003</ele><time>2026-04-19T07:56:44.608Z</time></trkpt><trkpt lat="43.6938968" lon="11.3476266"><ele>314.2</ele><time>2026-04-19T07:56:45.605Z</time></trkpt><trkpt lat="43.6938218" lon="11.3477215"><ele>316.0</ele><time>2026-04-19T07:56:46.613Z</time></trkpt><trkpt lat="43.6937577" lon="11.3478234"><ele>316.0</ele><time>2026-04-19T07:56:47.615Z</time></trkpt><trkpt lat="43.6937024" lon="11.3479624"><ele>316.0</ele><time>2026-04-19T07:56:48.606Z</time></trkpt><trkpt lat="43.6936602" lon="11.3481083"><ele>316.0</ele><time>2026-04-19T07:56:49.608Z</time></trkpt><trkpt lat="43.693612" lon="11.3482565"><ele>316.0</ele><time>2026-04-19T07:56:50.642Z</time></trkpt><trkpt lat="43.6935444" lon="11.3483883"><ele>319.25</ele><time>2026-04-19T07:56:51.625Z</time></trkpt><trkpt lat="43.6934688" lon="11.3485117"><ele>322.5</ele><time>2026-04-19T07:56:52.622Z</time></trkpt><trkpt lat="43.6933993" lon="11.3486433"><ele>325.75</ele><time>2026-04-19T07:56:53.618Z</time></trkpt><trkpt lat="43.6933269" lon="11.3487794"><ele>329.0</ele><time>2026-04-19T07:56:54.619Z</time></trkpt><trkpt lat="43.693265" lon="11.3489116"><ele>332.33333333333337</ele><time>2026-04-19T07:56:55.622Z</time></trkpt><trkpt lat="43.6932002" lon="11.3490439"><ele>335.6666666666667</ele><time>2026-04-19T07:56:56.624Z</time></trkpt><trkpt lat="43.6931318" lon="11.3491692"><ele>339.0</ele><time>2026-04-19T07:56:57.617Z</time></trkpt><trkpt lat="43.6929878" lon="11.3494224"><ele>339.0</ele><time>2026-04-19T07:56:59.621Z</time></trkpt><trkpt lat="43.6929297" lon="11.3495564"><ele>339.0</ele><time>2026-04-19T07:57:00.622Z</time></trkpt><trkpt lat="43.692869" lon="11.3496895"><ele>339.0</ele><time>2026-04-19T07:57:01.619Z</time></trkpt><trkpt lat="43.6928002" lon="11.3498161"><ele>339.0</ele><time>2026-04-19T07:57:02.623Z</time></trkpt><trkpt lat="43.6927114" lon="11.3499322"><ele>342.75</ele><time>2026-04-19T07:57:03.618Z</time></trkpt><trkpt lat="43.6926187" lon="11.3500466"><ele>346.5</ele><time>2026-04-19T07:57:04.622Z</time></trkpt><trkpt lat="43.6925183" lon="11.3501481"><ele>350.25</ele><time>2026-04-19T07:57:05.622Z</time></trkpt><trkpt lat="43.6924274" lon="11.3502616"><ele>354.0</ele><time>2026-04-19T07:57:06.629Z</time></trkpt><trkpt lat="43.6923385" lon="11.3503634"><ele>354.0</ele><time>2026-04-19T07:57:07.621Z</time></trkpt><trkpt lat="43.6922605" lon="11.3504475"><ele>354.0</ele><time>2026-04-19T07:57:08.62Z</time></trkpt><trkpt lat="43.6921881" lon="11.350523"><ele>354.0</ele><time>2026-04-19T07:57:09.61Z</time></trkpt><trkpt lat="43.6921114" lon="11.3506119"><ele>354.0</ele><time>2026-04-19T07:57:10.617Z</time></trkpt><trkpt lat="43.6920337" lon="11.3507254"><ele>354.0</ele><time>2026-04-19T07:57:11.613Z</time></trkpt><trkpt lat="43.6919645" lon="11.3508445"><ele>356.2</ele><time>2026-04-19T07:57:12.628Z</time></trkpt><trkpt lat="43.6919107" lon="11.3509637"><ele>358.4</ele><time>2026-04-19T07:57:13.622Z</time></trkpt><trkpt lat="43.6918689" lon="11.3510915"><ele>360.6</ele><time>2026-04-19T07:57:14.618Z</time></trkpt><trkpt lat="43.691842" lon="11.3512287"><ele>362.8</ele><time>2026-04-19T07:57:15.619Z</time></trkpt><trkpt lat="43.6918317" lon="11.3514007"><ele>365.0</ele><time>2026-04-19T07:57:16.623Z</time></trkpt><trkpt lat="43.6918266" lon="11.3515775"><ele>369.33333333333337</ele><time>2026-04-19T07:57:17.625Z</time></trkpt><trkpt lat="43.6918156" lon="11.3517549"><ele>373.6666666666667</ele><time>2026-04-19T07:57:18.621Z</time></trkpt><trkpt lat="43.6917945" lon="11.3520861"><ele>378.0</ele><time>2026-04-19T07:57:20.632Z</time></trkpt><trkpt lat="43.6917862" lon="11.3522416"><ele>379.25</ele><time>2026-04-19T07:57:21.612Z</time></trkpt><trkpt lat="43.6918023" lon="11.3524044"><ele>380.5</ele><time>2026-04-19T07:57:22.612Z</time></trkpt><trkpt lat="43.691825" lon="11.3525631"><ele>381.75</ele><time>2026-04-19T07:57:23.619Z</time></trkpt><trkpt lat="43.6918405" lon="11.3527125"><ele>383.0</ele><time>2026-04-19T07:57:24.609Z</time></trkpt><trkpt lat="43.691857" lon="11.352862"><ele>383.0</ele><time>2026-04-19T07:57:25.621Z</time></trkpt><trkpt lat="43.6918732" lon="11.3530077"><ele>383.0</ele><time>2026-04-19T07:57:26.614Z</time></trkpt><trkpt lat="43.6918672" lon="11.3531206"><ele>383.0</ele><time>2026-04-19T07:57:27.605Z</time></trkpt><trkpt lat="43.6918356" lon="11.3531989"><ele>383.0</ele><time>2026-04-19T07:57:37.634Z</time></trkpt><trkpt lat="43.6917975" lon="11.3531102"><ele>383.0</ele><time>2026-04-19T07:58:36.628Z</time></trkpt><trkpt lat="43.6917133" lon="11.3529275"><ele>383.0</ele><time>2026-04-19T07:58:39.611Z</time></trkpt><trkpt lat="43.6916523" lon="11.3528324"><ele>383.0</ele><time>2026-04-19T07:58:40.626Z</time></trkpt><trkpt lat="43.6915815" lon="11.3527189"><ele>383.0</ele><time>2026-04-19T07:58:41.631Z</time></trkpt><trkpt lat="43.6915209" lon="11.3525937"><ele>383.0</ele><time>2026-04-19T07:58:42.629Z</time></trkpt><trkpt lat="43.6914647" lon="11.3524669"><ele>383.0</ele><time>2026-04-19T07:58:43.621Z</time></trkpt><trkpt lat="43.6914123" lon="11.3523401"><ele>383.0</ele><time>2026-04-19T07:58:44.62Z</time></trkpt><trkpt lat="43.6913754" lon="11.3522194"><ele>383.0</ele><time>2026-04-19T07:58:45.622Z</time></trkpt><trkpt lat="43.6913346" lon="11.3521149"><ele>383.0</ele><time>2026-04-19T07:58:46.624Z</time></trkpt><trkpt lat="43.6912874" lon="11.3520117"><ele>383.0</ele><time>2026-04-19T07:58:47.615Z</time></trkpt><trkpt lat="43.6912262" lon="11.3518966"><ele>383.0</ele><time>2026-04-19T07:58:48.625Z</time></trkpt><trkpt lat="43.69116" lon="11.351786"><ele>381.75</ele><time>2026-04-19T07:58:49.631Z</time></trkpt><trkpt lat="43.6910909" lon="11.3516672"><ele>380.5</ele><time>2026-04-19T07:58:50.631Z</time></trkpt><trkpt lat="43.6910258" lon="11.3515453"><ele>379.25</ele><time>2026-04-19T07:58:51.631Z</time></trkpt><trkpt lat="43.6909678" lon="11.351392"><ele>378.0</ele><time>2026-04-19T07:58:52.622Z</time></trkpt><trkpt lat="43.6909075" lon="11.3512563"><ele>377.5</ele><time>2026-04-19T07:58:53.64Z</time></trkpt><trkpt lat="43.6908456" lon="11.3511252"><ele>377.0</ele><time>2026-04-19T07:58:54.619Z</time></trkpt><trkpt lat="43.6907662" lon="11.3510039"><ele>376.5</ele><time>2026-04-19T07:58:55.628Z</time></trkpt><trkpt lat="43.6906734" lon="11.3508836"><ele>376.0</ele><time>2026-04-19T07:58:56.629Z</time></trkpt><trkpt lat="43.6905758" lon="11.3507721"><ele>376.66666666666663</ele><time>2026-04-19T07:58:57.62Z</time></trkpt><trkpt lat="43.6904108" lon="11.3505135"><ele>377.3333333333333</ele><time>2026-04-19T07:58:59.628Z</time></trkpt><trkpt lat="43.6903276" lon="11.3503694"><ele>378.0</ele><time>2026-04-19T07:59:00.628Z</time></trkpt><trkpt lat="43.6902462" lon="11.3502114"><ele>378.0</ele><time>2026-04-19T07:59:01.619Z</time></trkpt><trkpt lat="43.690159" lon="11.3500549"><ele>378.0</ele><time>2026-04-19T07:59:02.619Z</time></trkpt><trkpt lat="43.6900498" lon="11.3499171"><ele>378.0</ele><time>2026-04-19T07:59:03.632Z</time></trkpt><trkpt lat="43.6899574" lon="11.3497633"><ele>378.0</ele><time>2026-04-19T07:59:04.63Z</time></trkpt><trkpt lat="43.6898839" lon="11.3496343"><ele>379.5</ele><time>2026-04-19T07:59:05.626Z</time></trkpt><trkpt lat="43.6898153" lon="11.3495086"><ele>381.0</ele><time>2026-04-19T07:59:06.623Z</time></trkpt><trkpt lat="43.6897448" lon="11.3493593"><ele>382.5</ele><time>2026-04-19T07:59:07.63Z</time></trkpt><trkpt lat="43.6896486" lon="11.3492271"><ele>384.0</ele><time>2026-04-19T07:59:08.625Z</time></trkpt><trkpt lat="43.6895519" lon="11.3491063"><ele>384.0</ele><time>2026-04-19T07:59:09.625Z</time></trkpt><trkpt lat="43.6894603" lon="11.348989"><ele>384.0</ele><time>2026-04-19T07:59:10.626Z</time></trkpt><trkpt lat="43.6893787" lon="11.3488762"><ele>384.0</ele><time>2026-04-19T07:59:11.625Z</time></trkpt><trkpt lat="43.6893171" lon="11.3487662"><ele>384.0</ele><time>2026-04-19T07:59:12.629Z</time></trkpt><trkpt lat="43.6892579" lon="11.3486562"><ele>384.0</ele><time>2026-04-19T07:59:13.626Z</time></trkpt><trkpt lat="43.6892121" lon="11.3485331"><ele>387.5</ele><time>2026-04-19T07:59:14.625Z</time></trkpt><trkpt lat="43.6891646" lon="11.3483927"><ele>391.0</ele><time>2026-04-19T07:59:15.625Z</time></trkpt><trkpt lat="43.6891012" lon="11.3482802"><ele>394.5</ele><time>2026-04-19T07:59:16.625Z</time></trkpt><trkpt lat="43.6890007" lon="11.3481923"><ele>398.0</ele><time>2026-04-19T07:59:17.619Z</time></trkpt><trkpt lat="43.6889012" lon="11.3480986"><ele>402.3333333333333</ele><time>2026-04-19T07:59:18.628Z</time></trkpt><trkpt lat="43.6887103" lon="11.34792"><ele>406.66666666666663</ele><time>2026-04-19T07:59:20.628Z</time></trkpt><trkpt lat="43.688605" lon="11.3478467"><ele>411.0</ele><time>2026-04-19T07:59:21.627Z</time></trkpt><trkpt lat="43.6885098" lon="11.3477891"><ele>411.0</ele><time>2026-04-19T07:59:22.623Z</time></trkpt><trkpt lat="43.6884253" lon="11.3477392"><ele>411.0</ele><time>2026-04-19T07:59:23.622Z</time></trkpt><trkpt lat="43.6883629" lon="11.3476971"><ele>411.0</ele><time>2026-04-19T07:59:24.633Z</time></trkpt><trkpt lat="43.6882721" lon="11.3476196"><ele>411.0</ele><time>2026-04-19T07:59:26.629Z</time></trkpt><trkpt lat="43.6881575" lon="11.3476393"><ele>411.0</ele><time>2026-04-19T07:59:28.624Z</time></trkpt><trkpt lat="43.6880798" lon="11.3476746"><ele>411.0</ele><time>2026-04-19T07:59:29.619Z</time></trkpt><trkpt lat="43.6879906" lon="11.347729"><ele>411.0</ele><time>2026-04-19T07:59:30.625Z</time></trkpt><trkpt lat="43.687887" lon="11.3477826"><ele>411.0</ele><time>2026-04-19T07:59:31.626Z</time></trkpt><trkpt lat="43.6877797" lon="11.3478254"><ele>411.0</ele><time>2026-04-19T07:59:32.622Z</time></trkpt><trkpt lat="43.6876679" lon="11.3478711"><ele>411.0</ele><time>2026-04-19T07:59:33.635Z</time></trkpt><trkpt lat="43.6875618" lon="11.3479146"><ele>412.0</ele><time>2026-04-19T07:59:34.634Z</time></trkpt><trkpt lat="43.6874626" lon="11.3479392"><ele>413.0</ele><time>2026-04-19T07:59:35.629Z</time></trkpt><trkpt lat="43.6873715" lon="11.3479413"><ele>414.0</ele><time>2026-04-19T07:59:36.632Z</time></trkpt><trkpt lat="43.6872719" lon="11.3478987"><ele>415.0</ele><time>2026-04-19T07:59:37.633Z</time></trkpt><trkpt lat="43.6871601" lon="11.3478649"><ele>416.0</ele><time>2026-04-19T07:59:38.619Z</time></trkpt><trkpt lat="43.6870535" lon="11.3478314"><ele>418.5</ele><time>2026-04-19T07:59:39.625Z</time></trkpt><trkpt lat="43.6868647" lon="11.3477754"><ele>421.0</ele><time>2026-04-19T07:59:41.623Z</time></trkpt><trkpt lat="43.6867687" lon="11.3477356"><ele>423.5</ele><time>2026-04-19T07:59:42.63Z</time></trkpt><trkpt lat="43.6866795" lon="11.3476853"><ele>426.0</ele><time>2026-04-19T07:59:43.624Z</time></trkpt><trkpt lat="43.6865897" lon="11.3476334"><ele>426.0</ele><time>2026-04-19T07:59:44.63Z</time></trkpt><trkpt lat="43.6865088" lon="11.3475904"><ele>426.0</ele><time>2026-04-19T07:59:45.628Z</time></trkpt><trkpt lat="43.6864306" lon="11.3475727"><ele>426.0</ele><time>2026-04-19T07:59:46.635Z</time></trkpt><trkpt lat="43.6863537" lon="11.3475799"><ele>426.0</ele><time>2026-04-19T07:59:47.629Z</time></trkpt><trkpt lat="43.6862906" lon="11.3476119"><ele>426.0</ele><time>2026-04-19T07:59:48.631Z</time></trkpt><trkpt lat="43.6862492" lon="11.3477956"><ele>426.0</ele><time>2026-04-19T07:59:50.633Z</time></trkpt><trkpt lat="43.686252" lon="11.34796"><ele>429.5</ele><time>2026-04-19T07:59:51.629Z</time></trkpt><trkpt lat="43.6862359" lon="11.3481631"><ele>433.0</ele><time>2026-04-19T07:59:52.606Z</time></trkpt><trkpt lat="43.6862071" lon="11.3483213"><ele>436.5</ele><time>2026-04-19T07:59:53.605Z</time></trkpt><trkpt lat="43.6861792" lon="11.3484476"><ele>440.0</ele><time>2026-04-19T07:59:54.613Z</time></trkpt><trkpt lat="43.6861514" lon="11.3485734"><ele>440.0</ele><time>2026-04-19T07:59:55.621Z</time></trkpt><trkpt lat="43.6861216" lon="11.3486922"><ele>440.0</ele><time>2026-04-19T07:59:56.614Z</time></trkpt><trkpt lat="43.686055" lon="11.3487988"><ele>440.0</ele><time>2026-04-19T07:59:57.612Z</time></trkpt><trkpt lat="43.6859683" lon="11.3488794"><ele>440.0</ele><time>2026-04-19T07:59:58.616Z</time></trkpt><trkpt lat="43.6858857" lon="11.3489581"><ele>440.0</ele><time>2026-04-19T07:59:59.609Z</time></trkpt><trkpt lat="43.6858096" lon="11.3490449"><ele>441.8</ele><time>2026-04-19T08:00:00.617Z</time></trkpt><trkpt lat="43.6856908" lon="11.3491625"><ele>443.6</ele><time>2026-04-19T08:00:02.636Z</time></trkpt><trkpt lat="43.6855973" lon="11.349239"><ele>445.4</ele><time>2026-04-19T08:00:03.63Z</time></trkpt><trkpt lat="43.685533" lon="11.3493154"><ele>447.2</ele><time>2026-04-19T08:00:04.629Z</time></trkpt><trkpt lat="43.685516" lon="11.3494076"><ele>449.0</ele><time>2026-04-19T08:00:16.643Z</time></trkpt><trkpt lat="43.6855743" lon="11.3495147"><ele>449.0</ele><time>2026-04-19T08:00:19.623Z</time></trkpt><trkpt lat="43.6856455" lon="11.3495971"><ele>449.0</ele><time>2026-04-19T08:00:21.627Z</time></trkpt><trkpt lat="43.6856206" lon="11.34986"><ele>449.0</ele><time>2026-04-19T08:02:12.647Z</time></trkpt><trkpt lat="43.6855788" lon="11.3500376"><ele>449.0</ele><time>2026-04-19T08:18:39.645Z</time></trkpt><trkpt lat="43.6854665" lon="11.3500331"><ele>449.79999999999995</ele><time>2026-04-19T08:18:41.64Z</time></trkpt><trkpt lat="43.6853714" lon="11.3499861"><ele>450.59999999999997</ele><time>2026-04-19T08:18:43.635Z</time></trkpt><trkpt lat="43.6853024" lon="11.3499191"><ele>451.4</ele><time>2026-04-19T08:18:45.647Z</time></trkpt><trkpt lat="43.6852424" lon="11.349848"><ele>452.2</ele><time>2026-04-19T08:18:47.645Z</time></trkpt><trkpt lat="43.6851776" lon="11.349769"><ele>453.0</ele><time>2026-04-19T08:18:49.641Z</time></trkpt><trkpt lat="43.6850934" lon="11.3496372"><ele>449.0</ele><time>2026-04-19T08:18:51.637Z</time></trkpt><trkpt lat="43.6850416" lon="11.3495135"><ele>444.99999999999994</ele><time>2026-04-19T08:18:53.635Z</time></trkpt><trkpt lat="43.684999" lon="11.3494305"><ele>440.99999999999994</ele><time>2026-04-19T08:18:55.629Z</time></trkpt><trkpt lat="43.684873" lon="11.3493434"><ele>437.0</ele><time>2026-04-19T08:19:02.648Z</time></trkpt><trkpt lat="43.6848233" lon="11.3494894"><ele>433.0</ele><time>2026-04-19T08:19:05.645Z</time></trkpt><trkpt lat="43.6848024" lon="11.3496515"><ele>433.00000000000006</ele><time>2026-04-19T08:19:07.637Z</time></trkpt><trkpt lat="43.6847695" lon="11.3497778"><ele>433.0</ele><time>2026-04-19T08:19:09.633Z</time></trkpt><trkpt lat="43.6847402" lon="11.3498875"><ele>433.0</ele><time>2026-04-19T08:19:11.627Z</time></trkpt><trkpt lat="43.684708" lon="11.3499699"><ele>433.0</ele><time>2026-04-19T08:19:13.631Z</time></trkpt><trkpt lat="43.6846536" lon="11.3500243"><ele>433.00000000000006</ele><time>2026-04-19T08:19:16.641Z</time></trkpt><trkpt lat="43.6845231" lon="11.3500103"><ele>433.0</ele><time>2026-04-19T08:19:23.639Z</time></trkpt><trkpt lat="43.6844628" lon="11.3499265"><ele>430.00000000000006</ele><time>2026-04-19T08:19:25.643Z</time></trkpt><trkpt lat="43.6843911" lon="11.3498422"><ele>427.0</ele><time>2026-04-19T08:19:27.641Z</time></trkpt><trkpt lat="43.6842999" lon="11.3498156"><ele>424.0</ele><time>2026-04-19T08:19:29.648Z</time></trkpt><trkpt lat="43.6842355" lon="11.3498489"><ele>421.0</ele><time>2026-04-19T08:19:30.642Z</time></trkpt><trkpt lat="43.6841752" lon="11.3498907"><ele>418.00000000000006</ele><time>2026-04-19T08:19:31.647Z</time></trkpt><trkpt lat="43.6841099" lon="11.3499193"><ele>415.0</ele><time>2026-04-19T08:19:32.653Z</time></trkpt><trkpt lat="43.6840371" lon="11.349923"><ele>415.00000000000006</ele><time>2026-04-19T08:19:33.637Z</time></trkpt><trkpt lat="43.6839619" lon="11.3499182"><ele>415.0</ele><time>2026-04-19T08:19:34.649Z</time></trkpt><trkpt lat="43.6838868" lon="11.3499083"><ele>415.0</ele><time>2026-04-19T08:19:35.643Z</time></trkpt><trkpt lat="43.6838187" lon="11.3498817"><ele>415.0</ele><time>2026-04-19T08:19:36.641Z</time></trkpt><trkpt lat="43.6837558" lon="11.3498589"><ele>415.00000000000006</ele><time>2026-04-19T08:19:37.64Z</time></trkpt><trkpt lat="43.683618" lon="11.3498072"><ele>415.0</ele><time>2026-04-19T08:19:39.63Z</time></trkpt><trkpt lat="43.6835442" lon="11.3497869"><ele>413.83333333333337</ele><time>2026-04-19T08:19:40.645Z</time></trkpt><trkpt lat="43.6834624" lon="11.3497928"><ele>412.6666666666667</ele><time>2026-04-19T08:19:41.642Z</time></trkpt><trkpt lat="43.6833843" lon="11.3498208"><ele>411.5</ele><time>2026-04-19T08:19:42.643Z</time></trkpt><trkpt lat="43.6833062" lon="11.3498533"><ele>410.33333333333337</ele><time>2026-04-19T08:19:43.637Z</time></trkpt><trkpt lat="43.6832369" lon="11.349904"><ele>409.1666666666667</ele><time>2026-04-19T08:19:44.646Z</time></trkpt><trkpt lat="43.6831643" lon="11.3499487"><ele>408.0</ele><time>2026-04-19T08:19:45.647Z</time></trkpt><trkpt lat="43.6831011" lon="11.3500027"><ele>408.0</ele><time>2026-04-19T08:19:46.641Z</time></trkpt><trkpt lat="43.6830527" lon="11.3500595"><ele>408.0</ele><time>2026-04-19T08:19:47.639Z</time></trkpt><trkpt lat="43.6830074" lon="11.350134"><ele>408.0</ele><time>2026-04-19T08:19:48.645Z</time></trkpt><trkpt lat="43.6829676" lon="11.3502285"><ele>408.0</ele><time>2026-04-19T08:19:49.64Z</time></trkpt><trkpt lat="43.6829364" lon="11.350336"><ele>408.0</ele><time>2026-04-19T08:19:50.642Z</time></trkpt><trkpt lat="43.6829247" lon="11.3504463"><ele>408.0</ele><time>2026-04-19T08:19:51.644Z</time></trkpt><trkpt lat="43.68292" lon="11.3505576"><ele>408.1666666666667</ele><time>2026-04-19T08:19:52.643Z</time></trkpt><trkpt lat="43.6829073" lon="11.3506688"><ele>408.33333333333337</ele><time>2026-04-19T08:19:53.639Z</time></trkpt><trkpt lat="43.682904" lon="11.3507765"><ele>408.5</ele><time>2026-04-19T08:19:54.645Z</time></trkpt><trkpt lat="43.68291" lon="11.3508938"><ele>408.6666666666667</ele><time>2026-04-19T08:19:55.64Z</time></trkpt><trkpt lat="43.6829086" lon="11.3509891"><ele>408.83333333333337</ele><time>2026-04-19T08:19:56.629Z</time></trkpt><trkpt lat="43.6829041" lon="11.3510899"><ele>409.0</ele><time>2026-04-19T08:19:57.641Z</time></trkpt><trkpt lat="43.6829116" lon="11.3511956"><ele>407.50000000000006</ele><time>2026-04-19T08:19:58.637Z</time></trkpt><trkpt lat="43.6829538" lon="11.3513912"><ele>406.0</ele><time>2026-04-19T08:20:00.644Z</time></trkpt><trkpt lat="43.6829911" lon="11.351482"><ele>404.5</ele><time>2026-04-19T08:20:01.642Z</time></trkpt><trkpt lat="43.683042" lon="11.3515585"><ele>403.0</ele><time>2026-04-19T08:20:02.641Z</time></trkpt><trkpt lat="43.6830873" lon="11.3516299"><ele>401.50000000000006</ele><time>2026-04-19T08:20:03.654Z</time></trkpt><trkpt lat="43.6831309" lon="11.3516955"><ele>400.0</ele><time>2026-04-19T08:20:04.642Z</time></trkpt><trkpt lat="43.6832048" lon="11.3518"><ele>400.00000000000006</ele><time>2026-04-19T08:20:06.649Z</time></trkpt><trkpt lat="43.6832234" lon="11.3519389"><ele>400.0</ele><time>2026-04-19T08:20:08.65Z</time></trkpt><trkpt lat="43.6831779" lon="11.3520103"><ele>400.0</ele><time>2026-04-19T08:20:09.654Z</time></trkpt><trkpt lat="43.6831008" lon="11.3520698"><ele>400.0</ele><time>2026-04-19T08:20:10.644Z</time></trkpt><trkpt lat="43.683016" lon="11.3521157"><ele>400.00000000000006</ele><time>2026-04-19T08:20:11.654Z</time></trkpt><trkpt lat="43.6829477" lon="11.3521669"><ele>400.0</ele><time>2026-04-19T08:20:12.64Z</time></trkpt><trkpt lat="43.682873" lon="11.3522249"><ele>397.33333333333337</ele><time>2026-04-19T08:20:13.641Z</time></trkpt><trkpt lat="43.6828036" lon="11.3522787"><ele>394.6666666666667</ele><time>2026-04-19T08:20:14.639Z</time></trkpt><trkpt lat="43.6827509" lon="11.3523576"><ele>392.0</ele><time>2026-04-19T08:20:15.643Z</time></trkpt><trkpt lat="43.6826994" lon="11.3524225"><ele>389.33333333333337</ele><time>2026-04-19T08:20:16.649Z</time></trkpt><trkpt lat="43.6825887" lon="11.3524956"><ele>386.6666666666667</ele><time>2026-04-19T08:20:18.648Z</time></trkpt><trkpt lat="43.6825225" lon="11.3524742"><ele>384.0</ele><time>2026-04-19T08:20:19.639Z</time></trkpt><trkpt lat="43.682411" lon="11.3523392"><ele>384.0</ele><time>2026-04-19T08:20:21.647Z</time></trkpt><trkpt lat="43.6823573" lon="11.3522552"><ele>384.0</ele><time>2026-04-19T08:20:22.634Z</time></trkpt><trkpt lat="43.6823066" lon="11.3521789"><ele>384.0</ele><time>2026-04-19T08:20:23.626Z</time></trkpt><trkpt lat="43.6822245" lon="11.3520611"><ele>384.0</ele><time>2026-04-19T08:20:25.633Z</time></trkpt><trkpt lat="43.6821317" lon="11.3519708"><ele>384.0</ele><time>2026-04-19T08:20:27.64Z</time></trkpt><trkpt lat="43.6820054" lon="11.3519504"><ele>382.5</ele><time>2026-04-19T08:20:29.64Z</time></trkpt><trkpt lat="43.6818789" lon="11.3519159"><ele>381.0</ele><time>2026-04-19T08:20:31.653Z</time></trkpt><trkpt lat="43.681817" lon="11.3518767"><ele>379.5</ele><time>2026-04-19T08:20:32.64Z</time></trkpt><trkpt lat="43.6817657" lon="11.3518196"><ele>378.0</ele><time>2026-04-19T08:20:33.637Z</time></trkpt><trkpt lat="43.6817202" lon="11.3517342"><ele>376.5</ele><time>2026-04-19T08:20:34.649Z</time></trkpt><trkpt lat="43.6816818" lon="11.3516446"><ele>375.0</ele><time>2026-04-19T08:20:35.637Z</time></trkpt><trkpt lat="43.6816548" lon="11.351549"><ele>375.0</ele><time>2026-04-19T08:20:36.638Z</time></trkpt><trkpt lat="43.6816294" lon="11.3514508"><ele>375.0</ele><time>2026-04-19T08:20:37.637Z</time></trkpt><trkpt lat="43.681607" lon="11.3513584"><ele>375.0</ele><time>2026-04-19T08:20:38.642Z</time></trkpt><trkpt lat="43.6815827" lon="11.351266"><ele>375.0</ele><time>2026-04-19T08:20:39.638Z</time></trkpt><trkpt lat="43.6815513" lon="11.3511744"><ele>375.0</ele><time>2026-04-19T08:20:40.641Z</time></trkpt><trkpt lat="43.6814521" lon="11.3509893"><ele>374.8</ele><time>2026-04-19T08:20:42.645Z</time></trkpt><trkpt lat="43.6813879" lon="11.3508931"><ele>374.6</ele><time>2026-04-19T08:20:43.646Z</time></trkpt><trkpt lat="43.6813281" lon="11.3507916"><ele>374.4</ele><time>2026-04-19T08:20:44.644Z</time></trkpt><trkpt lat="43.681268" lon="11.3506918"><ele>374.2</ele><time>2026-04-19T08:20:45.645Z</time></trkpt><trkpt lat="43.6812166" lon="11.3505711"><ele>374.0</ele><time>2026-04-19T08:20:46.651Z</time></trkpt><trkpt lat="43.6811691" lon="11.350431"><ele>374.0</ele><time>2026-04-19T08:20:47.641Z</time></trkpt><trkpt lat="43.6811321" lon="11.3502823"><ele>374.0</ele><time>2026-04-19T08:20:48.64Z</time></trkpt><trkpt lat="43.6810929" lon="11.350139"><ele>374.0</ele><time>2026-04-19T08:20:49.639Z</time></trkpt><trkpt lat="43.681046" lon="11.3500069"><ele>374.0</ele><time>2026-04-19T08:20:50.636Z</time></trkpt><trkpt lat="43.680984" lon="11.3498906"><ele>374.0</ele><time>2026-04-19T08:20:51.628Z</time></trkpt><trkpt lat="43.6808859" lon="11.3497681"><ele>371.0</ele><time>2026-04-19T08:20:52.632Z</time></trkpt><trkpt lat="43.6807712" lon="11.3496611"><ele>368.0</ele><time>2026-04-19T08:20:53.631Z</time></trkpt><trkpt lat="43.6806755" lon="11.3495583"><ele>365.0</ele><time>2026-04-19T08:20:54.627Z</time></trkpt><trkpt lat="43.680598" lon="11.3494828"><ele>362.0</ele><time>2026-04-19T08:20:55.629Z</time></trkpt><trkpt lat="43.680504" lon="11.3494048"><ele>362.0</ele><time>2026-04-19T08:20:56.633Z</time></trkpt><trkpt lat="43.6804207" lon="11.3493331"><ele>362.0</ele><time>2026-04-19T08:20:57.631Z</time></trkpt><trkpt lat="43.6803401" lon="11.3492884"><ele>362.0</ele><time>2026-04-19T08:20:58.627Z</time></trkpt><trkpt lat="43.6802592" lon="11.34923"><ele>362.0</ele><time>2026-04-19T08:20:59.63Z</time></trkpt><trkpt lat="43.6801747" lon="11.3492084"><ele>362.0</ele><time>2026-04-19T08:21:00.622Z</time></trkpt><trkpt lat="43.6800834" lon="11.3491855"><ele>357.0</ele><time>2026-04-19T08:21:01.626Z</time></trkpt><trkpt lat="43.6798931" lon="11.3491429"><ele>352.0</ele><time>2026-04-19T08:21:03.634Z</time></trkpt><trkpt lat="43.6798022" lon="11.3491403"><ele>347.0</ele><time>2026-04-19T08:21:04.634Z</time></trkpt><trkpt lat="43.6797087" lon="11.3491396"><ele>342.0</ele><time>2026-04-19T08:21:05.649Z</time></trkpt><trkpt lat="43.6796217" lon="11.3491416"><ele>342.0</ele><time>2026-04-19T08:21:06.634Z</time></trkpt><trkpt lat="43.6795264" lon="11.3491404"><ele>342.0</ele><time>2026-04-19T08:21:07.642Z</time></trkpt><trkpt lat="43.6794355" lon="11.3491375"><ele>342.0</ele><time>2026-04-19T08:21:08.635Z</time></trkpt><trkpt lat="43.6793469" lon="11.3491214"><ele>342.0</ele><time>2026-04-19T08:21:09.638Z</time></trkpt><trkpt lat="43.6792633" lon="11.3491087"><ele>342.0</ele><time>2026-04-19T08:21:10.633Z</time></trkpt><trkpt lat="43.6791748" lon="11.3490853"><ele>339.6</ele><time>2026-04-19T08:21:11.634Z</time></trkpt><trkpt lat="43.6790858" lon="11.3490507"><ele>337.20000000000005</ele><time>2026-04-19T08:21:12.631Z</time></trkpt><trkpt lat="43.6789934" lon="11.348999"><ele>334.8</ele><time>2026-04-19T08:21:13.636Z</time></trkpt><trkpt lat="43.6789103" lon="11.3489229"><ele>332.4</ele><time>2026-04-19T08:21:14.633Z</time></trkpt><trkpt lat="43.6788275" lon="11.3488517"><ele>330.0</ele><time>2026-04-19T08:21:15.639Z</time></trkpt><trkpt lat="43.6787407" lon="11.3487784"><ele>330.0</ele><time>2026-04-19T08:21:16.638Z</time></trkpt><trkpt lat="43.678647" lon="11.3487069"><ele>330.0</ele><time>2026-04-19T08:21:17.636Z</time></trkpt><trkpt lat="43.6785548" lon="11.3486335"><ele>330.0</ele><time>2026-04-19T08:21:18.636Z</time></trkpt><trkpt lat="43.6784642" lon="11.3485587"><ele>330.0</ele><time>2026-04-19T08:21:19.635Z</time></trkpt><trkpt lat="43.6783759" lon="11.3484803"><ele>330.0</ele><time>2026-04-19T08:21:20.635Z</time></trkpt><trkpt lat="43.6782717" lon="11.348414"><ele>324.6666666666667</ele><time>2026-04-19T08:21:21.635Z</time></trkpt><trkpt lat="43.6781515" lon="11.3483587"><ele>319.33333333333337</ele><time>2026-04-19T08:21:22.636Z</time></trkpt><trkpt lat="43.6779021" lon="11.3482912"><ele>314.0</ele><time>2026-04-19T08:21:24.634Z</time></trkpt><trkpt lat="43.6777867" lon="11.3482687"><ele>313.2</ele><time>2026-04-19T08:21:25.63Z</time></trkpt><trkpt lat="43.6776684" lon="11.3482444"><ele>312.4</ele><time>2026-04-19T08:21:26.639Z</time></trkpt><trkpt lat="43.6775597" lon="11.3482132"><ele>311.6</ele><time>2026-04-19T08:21:27.64Z</time></trkpt><trkpt lat="43.6774587" lon="11.3481898"><ele>310.8</ele><time>2026-04-19T08:21:28.643Z</time></trkpt><trkpt lat="43.6773642" lon="11.3481699"><ele>310.0</ele><time>2026-04-19T08:21:29.644Z</time></trkpt><trkpt lat="43.6772718" lon="11.3481548"><ele>310.0</ele><time>2026-04-19T08:21:30.634Z</time></trkpt><trkpt lat="43.6771837" lon="11.3481341"><ele>310.0</ele><time>2026-04-19T08:21:31.635Z</time></trkpt><trkpt lat="43.6770935" lon="11.3481153"><ele>310.0</ele><time>2026-04-19T08:21:32.633Z</time></trkpt><trkpt lat="43.6770135" lon="11.348084"><ele>310.0</ele><time>2026-04-19T08:21:33.631Z</time></trkpt><trkpt lat="43.6769425" lon="11.3480295"><ele>310.0</ele><time>2026-04-19T08:21:34.634Z</time></trkpt><trkpt lat="43.6768729" lon="11.3479762"><ele>310.0</ele><time>2026-04-19T08:21:35.634Z</time></trkpt><trkpt lat="43.6768014" lon="11.3479535"><ele>308.0</ele><time>2026-04-19T08:21:36.646Z</time></trkpt><trkpt lat="43.6766892" lon="11.3479449"><ele>306.0</ele><time>2026-04-19T08:21:38.623Z</time></trkpt><trkpt lat="43.6766053" lon="11.3479513"><ele>304.0</ele><time>2026-04-19T08:21:40.636Z</time></trkpt><trkpt lat="43.6765171" lon="11.3479037"><ele>302.0</ele><time>2026-04-19T08:21:43.633Z</time></trkpt><trkpt lat="43.6764818" lon="11.3477093"><ele>300.0</ele><time>2026-04-19T08:21:47.636Z</time></trkpt><trkpt lat="43.6765436" lon="11.3476015"><ele>300.0</ele><time>2026-04-19T08:21:49.624Z</time></trkpt><trkpt lat="43.6766238" lon="11.3475253"><ele>300.0</ele><time>2026-04-19T08:21:51.629Z</time></trkpt><trkpt lat="43.6767257" lon="11.347451"><ele>300.0</ele><time>2026-04-19T08:21:53.629Z</time></trkpt><trkpt lat="43.6768276" lon="11.3473462"><ele>300.0</ele><time>2026-04-19T08:21:55.629Z</time></trkpt><trkpt lat="43.6768866" lon="11.3473045"><ele>300.0</ele><time>2026-04-19T08:21:56.634Z</time></trkpt><trkpt lat="43.6769482" lon="11.3472588"><ele>297.6</ele><time>2026-04-19T08:21:57.629Z</time></trkpt><trkpt lat="43.6770285" lon="11.34721"><ele>295.2</ele><time>2026-04-19T08:21:58.626Z</time></trkpt><trkpt lat="43.6771196" lon="11.3471569"><ele>292.8</ele><time>2026-04-19T08:21:59.63Z</time></trkpt><trkpt lat="43.6772068" lon="11.3471137"><ele>290.4</ele><time>2026-04-19T08:22:00.626Z</time></trkpt><trkpt lat="43.6772923" lon="11.3470751"><ele>288.0</ele><time>2026-04-19T08:22:01.627Z</time></trkpt><trkpt lat="43.6773793" lon="11.3470389"><ele>288.0</ele><time>2026-04-19T08:22:02.624Z</time></trkpt><trkpt lat="43.6774672" lon="11.3469775"><ele>288.0</ele><time>2026-04-19T08:22:03.621Z</time></trkpt><trkpt lat="43.6775561" lon="11.3469086"><ele>288.0</ele><time>2026-04-19T08:22:04.617Z</time></trkpt><trkpt lat="43.6777595" lon="11.3467485"><ele>288.0</ele><time>2026-04-19T08:22:06.616Z</time></trkpt><trkpt lat="43.67787" lon="11.3466719"><ele>289.0</ele><time>2026-04-19T08:22:07.634Z</time></trkpt><trkpt lat="43.6779741" lon="11.346578"><ele>290.0</ele><time>2026-04-19T08:22:08.616Z</time></trkpt><trkpt lat="43.6780741" lon="11.3464718"><ele>291.0</ele><time>2026-04-19T08:22:09.614Z</time></trkpt><trkpt lat="43.6781555" lon="11.3463191"><ele>292.0</ele><time>2026-04-19T08:22:10.62Z</time></trkpt><trkpt lat="43.6782101" lon="11.3461095"><ele>288.3333333333333</ele><time>2026-04-19T08:22:11.61Z</time></trkpt><trkpt lat="43.678233" lon="11.3458482"><ele>284.6666666666667</ele><time>2026-04-19T08:22:12.606Z</time></trkpt><trkpt lat="43.6782572" lon="11.3456031"><ele>281.0</ele><time>2026-04-19T08:22:13.616Z</time></trkpt><trkpt lat="43.6782907" lon="11.3454012"><ele>279.25</ele><time>2026-04-19T08:22:14.617Z</time></trkpt><trkpt lat="43.6783072" lon="11.3452071"><ele>277.5</ele><time>2026-04-19T08:22:15.619Z</time></trkpt><trkpt lat="43.678336" lon="11.3450386"><ele>275.75</ele><time>2026-04-19T08:22:16.619Z</time></trkpt><trkpt lat="43.6783986" lon="11.344881"><ele>274.0</ele><time>2026-04-19T08:22:17.619Z</time></trkpt><trkpt lat="43.6784832" lon="11.3447428"><ele>274.5</ele><time>2026-04-19T08:22:18.628Z</time></trkpt><trkpt lat="43.6786036" lon="11.3446152"><ele>275.0</ele><time>2026-04-19T08:22:19.617Z</time></trkpt><trkpt lat="43.6787106" lon="11.3444587"><ele>275.5</ele><time>2026-04-19T08:22:20.616Z</time></trkpt><trkpt lat="43.6788139" lon="11.3443271"><ele>276.0</ele><time>2026-04-19T08:22:21.619Z</time></trkpt><trkpt lat="43.6789124" lon="11.3441984"><ele>276.0</ele><time>2026-04-19T08:22:22.614Z</time></trkpt><trkpt lat="43.6790128" lon="11.3440596"><ele>276.0</ele><time>2026-04-19T08:22:23.617Z</time></trkpt><trkpt lat="43.6791321" lon="11.3439121"><ele>276.0</ele><time>2026-04-19T08:22:24.621Z</time></trkpt><trkpt lat="43.6792485" lon="11.343781"><ele>279.3333333333333</ele><time>2026-04-19T08:22:25.621Z</time></trkpt><trkpt lat="43.6794568" lon="11.3435741"><ele>282.66666666666663</ele><time>2026-04-19T08:22:27.614Z</time></trkpt><trkpt lat="43.6795408" lon="11.3434497"><ele>286.0</ele><time>2026-04-19T08:22:28.622Z</time></trkpt><trkpt lat="43.6795943" lon="11.3432941"><ele>286.0</ele><time>2026-04-19T08:22:29.627Z</time></trkpt><trkpt lat="43.6796356" lon="11.343127"><ele>286.0</ele><time>2026-04-19T08:22:30.623Z</time></trkpt><trkpt lat="43.6796649" lon="11.3429597"><ele>286.0</ele><time>2026-04-19T08:22:31.625Z</time></trkpt><trkpt lat="43.6796879" lon="11.34278"><ele>286.0</ele><time>2026-04-19T08:22:32.624Z</time></trkpt><trkpt lat="43.6797019" lon="11.3426025"><ele>284.75</ele><time>2026-04-19T08:22:33.621Z</time></trkpt><trkpt lat="43.6797231" lon="11.3424366"><ele>283.5</ele><time>2026-04-19T08:22:34.622Z</time></trkpt><trkpt lat="43.6797577" lon="11.3422835"><ele>282.25</ele><time>2026-04-19T08:22:35.624Z</time></trkpt><trkpt lat="43.6798255" lon="11.3421402"><ele>281.0</ele><time>2026-04-19T08:22:36.629Z</time></trkpt><trkpt lat="43.6799091" lon="11.3420248"><ele>279.2</ele><time>2026-04-19T08:22:37.627Z</time></trkpt><trkpt lat="43.6799913" lon="11.3419471"><ele>277.40000000000003</ele><time>2026-04-19T08:22:38.64Z</time></trkpt><trkpt lat="43.6801008" lon="11.3419334"><ele>275.6</ele><time>2026-04-19T08:22:39.634Z</time></trkpt><trkpt lat="43.6802196" lon="11.3419754"><ele>273.8</ele><time>2026-04-19T08:22:40.619Z</time></trkpt><trkpt lat="43.6803238" lon="11.342043"><ele>272.0</ele><time>2026-04-19T08:22:41.614Z</time></trkpt><trkpt lat="43.6804071" lon="11.3421347"><ele>274.25</ele><time>2026-04-19T08:22:42.624Z</time></trkpt><trkpt lat="43.6804987" lon="11.3422594"><ele>276.5</ele><time>2026-04-19T08:22:43.621Z</time></trkpt><trkpt lat="43.680604" lon="11.3423906"><ele>278.75</ele><time>2026-04-19T08:22:44.613Z</time></trkpt><trkpt lat="43.6807262" lon="11.3425427"><ele>281.0</ele><time>2026-04-19T08:22:45.613Z</time></trkpt><trkpt lat="43.6808653" lon="11.3426794"><ele>280.0</ele><time>2026-04-19T08:22:46.61Z</time></trkpt><trkpt lat="43.6811228" lon="11.3429214"><ele>279.0</ele><time>2026-04-19T08:22:48.61Z</time></trkpt><trkpt lat="43.6812685" lon="11.3430203"><ele>281.25</ele><time>2026-04-19T08:22:49.61Z</time></trkpt><trkpt lat="43.6814227" lon="11.3431058"><ele>283.5</ele><time>2026-04-19T08:22:50.614Z</time></trkpt><trkpt lat="43.6815392" lon="11.3431973"><ele>285.75</ele><time>2026-04-19T08:22:51.614Z</time></trkpt><trkpt lat="43.681633" lon="11.3433048"><ele>288.0</ele><time>2026-04-19T08:22:52.614Z</time></trkpt><trkpt lat="43.6817267" lon="11.3433697"><ele>288.0</ele><time>2026-04-19T08:22:53.61Z</time></trkpt><trkpt lat="43.6818027" lon="11.3434255"><ele>288.0</ele><time>2026-04-19T08:22:54.611Z</time></trkpt><trkpt lat="43.6818793" lon="11.343452"><ele>288.0</ele><time>2026-04-19T08:22:55.62Z</time></trkpt><trkpt lat="43.681935" lon="11.3433833"><ele>288.0</ele><time>2026-04-19T08:22:56.609Z</time></trkpt><trkpt lat="43.6819696" lon="11.3432736"><ele>288.0</ele><time>2026-04-19T08:22:57.612Z</time></trkpt><trkpt lat="43.6819866" lon="11.3431393"><ele>288.0</ele><time>2026-04-19T08:22:58.606Z</time></trkpt><trkpt lat="43.6819856" lon="11.3429795"><ele>291.0</ele><time>2026-04-19T08:22:59.61Z</time></trkpt><trkpt lat="43.6819644" lon="11.3428058"><ele>294.0</ele><time>2026-04-19T08:23:00.602Z</time></trkpt><trkpt lat="43.6819582" lon="11.3426398"><ele>297.0</ele><time>2026-04-19T08:23:01.612Z</time></trkpt><trkpt lat="43.6819703" lon="11.3424977"><ele>300.0</ele><time>2026-04-19T08:23:02.616Z</time></trkpt><trkpt lat="43.6819817" lon="11.3423684"><ele>303.0</ele><time>2026-04-19T08:23:03.616Z</time></trkpt><trkpt lat="43.6819965" lon="11.3422244"><ele>300.5</ele><time>2026-04-19T08:23:04.613Z</time></trkpt><trkpt lat="43.6820225" lon="11.342088"><ele>298.0</ele><time>2026-04-19T08:23:05.614Z</time></trkpt><trkpt lat="43.6820634" lon="11.3419631"><ele>295.5</ele><time>2026-04-19T08:23:06.615Z</time></trkpt><trkpt lat="43.6820936" lon="11.3418275"><ele>293.0</ele><time>2026-04-19T08:23:07.618Z</time></trkpt><trkpt lat="43.6821635" lon="11.3415754"><ele>293.0</ele><time>2026-04-19T08:23:09.633Z</time></trkpt><trkpt lat="43.6822243" lon="11.3414492"><ele>293.0</ele><time>2026-04-19T08:23:10.624Z</time></trkpt><trkpt lat="43.6822972" lon="11.3413323"><ele>293.0</ele><time>2026-04-19T08:23:11.625Z</time></trkpt><trkpt lat="43.6823845" lon="11.3412417"><ele>293.0</ele><time>2026-04-19T08:23:12.62Z</time></trkpt><trkpt lat="43.6824978" lon="11.3411846"><ele>292.25</ele><time>2026-04-19T08:23:13.619Z</time></trkpt><trkpt lat="43.6826218" lon="11.341135"><ele>291.5</ele><time>2026-04-19T08:23:14.616Z</time></trkpt><trkpt lat="43.6827495" lon="11.3410797"><ele>290.75</ele><time>2026-04-19T08:23:15.618Z</time></trkpt><trkpt lat="43.6828795" lon="11.3410285"><ele>290.0</ele><time>2026-04-19T08:23:16.624Z</time></trkpt><trkpt lat="43.6830112" lon="11.3409742"><ele>290.0</ele><time>2026-04-19T08:23:17.623Z</time></trkpt><trkpt lat="43.6831415" lon="11.3409045"><ele>290.0</ele><time>2026-04-19T08:23:18.625Z</time></trkpt><trkpt lat="43.6832614" lon="11.3408084"><ele>290.0</ele><time>2026-04-19T08:23:19.62Z</time></trkpt><trkpt lat="43.6833596" lon="11.3406786"><ele>290.0</ele><time>2026-04-19T08:23:20.628Z</time></trkpt><trkpt lat="43.6834388" lon="11.3405244"><ele>288.75</ele><time>2026-04-19T08:23:21.627Z</time></trkpt><trkpt lat="43.6835008" lon="11.3403541"><ele>287.5</ele><time>2026-04-19T08:23:22.625Z</time></trkpt><trkpt lat="43.6835329" lon="11.3401708"><ele>286.25</ele><time>2026-04-19T08:23:23.624Z</time></trkpt><trkpt lat="43.6835381" lon="11.3399839"><ele>285.0</ele><time>2026-04-19T08:23:24.616Z</time></trkpt><trkpt lat="43.6835144" lon="11.3398384"><ele>285.2</ele><time>2026-04-19T08:23:25.626Z</time></trkpt><trkpt lat="43.6834927" lon="11.339712"><ele>285.4</ele><time>2026-04-19T08:23:26.624Z</time></trkpt><trkpt lat="43.6834671" lon="11.3395865"><ele>285.6</ele><time>2026-04-19T08:23:27.633Z</time></trkpt><trkpt lat="43.6834323" lon="11.3394773"><ele>285.8</ele><time>2026-04-19T08:23:28.633Z</time></trkpt><trkpt lat="43.6833931" lon="11.3392574"><ele>286.0</ele><time>2026-04-19T08:23:30.638Z</time></trkpt><trkpt lat="43.6833767" lon="11.3391538"><ele>286.0</ele><time>2026-04-19T08:23:31.633Z</time></trkpt><trkpt lat="43.683331" lon="11.3389891"><ele>286.0</ele><time>2026-04-19T08:23:33.625Z</time></trkpt><trkpt lat="43.6832737" lon="11.3388938"><ele>286.0</ele><time>2026-04-19T08:23:34.63Z</time></trkpt><trkpt lat="43.6832127" lon="11.3388039"><ele>286.0</ele><time>2026-04-19T08:23:35.633Z</time></trkpt><trkpt lat="43.6831618" lon="11.3387169"><ele>286.0</ele><time>2026-04-19T08:23:36.631Z</time></trkpt><trkpt lat="43.6831226" lon="11.3386383"><ele>286.0</ele><time>2026-04-19T08:23:37.63Z</time></trkpt><trkpt lat="43.6830763" lon="11.3385493"><ele>286.0</ele><time>2026-04-19T08:23:38.64Z</time></trkpt><trkpt lat="43.6830315" lon="11.3384597"><ele>286.0</ele><time>2026-04-19T08:23:39.638Z</time></trkpt><trkpt lat="43.6829929" lon="11.3383731"><ele>286.0</ele><time>2026-04-19T08:23:40.665Z</time></trkpt><trkpt lat="43.6829397" lon="11.3382853"><ele>286.0</ele><time>2026-04-19T08:23:41.635Z</time></trkpt><trkpt lat="43.682891" lon="11.3381933"><ele>286.0</ele><time>2026-04-19T08:23:42.644Z</time></trkpt><trkpt lat="43.6828429" lon="11.338099"><ele>286.5</ele><time>2026-04-19T08:23:43.639Z</time></trkpt><trkpt lat="43.6827917" lon="11.3380124"><ele>287.0</ele><time>2026-04-19T08:23:44.63Z</time></trkpt><trkpt lat="43.6827439" lon="11.3379148"><ele>287.5</ele><time>2026-04-19T08:23:45.634Z</time></trkpt><trkpt lat="43.6826924" lon="11.3378054"><ele>288.0</ele><time>2026-04-19T08:23:46.633Z</time></trkpt><trkpt lat="43.6826365" lon="11.33771"><ele>288.5</ele><time>2026-04-19T08:23:47.626Z</time></trkpt><trkpt lat="43.6825855" lon="11.3376195"><ele>289.0</ele><time>2026-04-19T08:23:48.63Z</time></trkpt><trkpt lat="43.6825235" lon="11.3375289"><ele>291.0</ele><time>2026-04-19T08:23:49.634Z</time></trkpt><trkpt lat="43.6824162" lon="11.3373777"><ele>293.0</ele><time>2026-04-19T08:23:51.632Z</time></trkpt><trkpt lat="43.6823525" lon="11.337338"><ele>295.0</ele><time>2026-04-19T08:23:52.632Z</time></trkpt><trkpt lat="43.6822723" lon="11.3373111"><ele>297.0</ele><time>2026-04-19T08:23:53.624Z</time></trkpt><trkpt lat="43.6821857" lon="11.3372737"><ele>299.0</ele><time>2026-04-19T08:23:54.631Z</time></trkpt><trkpt lat="43.6820924" lon="11.337255"><ele>299.2</ele><time>2026-04-19T08:23:55.63Z</time></trkpt><trkpt lat="43.6820092" lon="11.3372059"><ele>299.4</ele><time>2026-04-19T08:23:56.623Z</time></trkpt><trkpt lat="43.6819189" lon="11.3371577"><ele>299.6</ele><time>2026-04-19T08:23:57.631Z</time></trkpt><trkpt lat="43.6818259" lon="11.3371245"><ele>299.8</ele><time>2026-04-19T08:23:58.631Z</time></trkpt><trkpt lat="43.6817375" lon="11.337069"><ele>300.0</ele><time>2026-04-19T08:23:59.631Z</time></trkpt><trkpt lat="43.68165" lon="11.3370136"><ele>302.0</ele><time>2026-04-19T08:24:00.63Z</time></trkpt><trkpt lat="43.6815651" lon="11.3369737"><ele>304.0</ele><time>2026-04-19T08:24:01.628Z</time></trkpt><trkpt lat="43.6814912" lon="11.3369361"><ele>306.0</ele><time>2026-04-19T08:24:02.629Z</time></trkpt><trkpt lat="43.6814155" lon="11.3368825"><ele>308.0</ele><time>2026-04-19T08:24:03.62Z</time></trkpt><trkpt lat="43.681326" lon="11.3367932"><ele>310.0</ele><time>2026-04-19T08:24:04.626Z</time></trkpt><trkpt lat="43.6812499" lon="11.3366932"><ele>310.0</ele><time>2026-04-19T08:24:05.625Z</time></trkpt><trkpt lat="43.6811767" lon="11.3365865"><ele>310.0</ele><time>2026-04-19T08:24:06.625Z</time></trkpt><trkpt lat="43.6811007" lon="11.3364829"><ele>310.0</ele><time>2026-04-19T08:24:07.623Z</time></trkpt><trkpt lat="43.681026" lon="11.3363966"><ele>310.0</ele><time>2026-04-19T08:24:08.619Z</time></trkpt><trkpt lat="43.6809423" lon="11.3362985"><ele>310.0</ele><time>2026-04-19T08:24:09.611Z</time></trkpt><trkpt lat="43.6808617" lon="11.3361978"><ele>309.75</ele><time>2026-04-19T08:24:10.634Z</time></trkpt><trkpt lat="43.6807187" lon="11.3360043"><ele>309.5</ele><time>2026-04-19T08:24:12.618Z</time></trkpt><trkpt lat="43.680658" lon="11.3358897"><ele>309.25</ele><time>2026-04-19T08:24:13.626Z</time></trkpt><trkpt lat="43.6806026" lon="11.3357929"><ele>309.0</ele><time>2026-04-19T08:24:14.617Z</time></trkpt><trkpt lat="43.6805486" lon="11.3357182"><ele>309.0</ele><time>2026-04-19T08:24:15.617Z</time></trkpt><trkpt lat="43.6804486" lon="11.3356437"><ele>309.0</ele><time>2026-04-19T08:24:17.628Z</time></trkpt><trkpt lat="43.6803767" lon="11.3356335"><ele>309.0</ele><time>2026-04-19T08:24:18.621Z</time></trkpt><trkpt lat="43.6802922" lon="11.3356438"><ele>309.0</ele><time>2026-04-19T08:24:19.623Z</time></trkpt><trkpt lat="43.6802115" lon="11.3356469"><ele>309.0</ele><time>2026-04-19T08:24:20.622Z</time></trkpt><trkpt lat="43.6801359" lon="11.3356214"><ele>309.0</ele><time>2026-04-19T08:24:21.626Z</time></trkpt><trkpt lat="43.6800638" lon="11.3355673"><ele>308.8333333333333</ele><time>2026-04-19T08:24:22.618Z</time></trkpt><trkpt lat="43.6799881" lon="11.3354999"><ele>308.6666666666667</ele><time>2026-04-19T08:24:23.615Z</time></trkpt><trkpt lat="43.6799197" lon="11.3354204"><ele>308.5</ele><time>2026-04-19T08:24:24.621Z</time></trkpt><trkpt lat="43.6798638" lon="11.3353223"><ele>308.33333333333337</ele><time>2026-04-19T08:24:25.622Z</time></trkpt><trkpt lat="43.6798192" lon="11.3352236"><ele>308.1666666666667</ele><time>2026-04-19T08:24:26.621Z</time></trkpt><trkpt lat="43.6797811" lon="11.3351341"><ele>308.0</ele><time>2026-04-19T08:24:27.619Z</time></trkpt><trkpt lat="43.6797524" lon="11.3350322"><ele>308.0</ele><time>2026-04-19T08:24:28.618Z</time></trkpt><trkpt lat="43.6797124" lon="11.3349269"><ele>308.0</ele><time>2026-04-19T08:24:29.629Z</time></trkpt><trkpt lat="43.679667" lon="11.3348282"><ele>308.0</ele><time>2026-04-19T08:24:30.624Z</time></trkpt><trkpt lat="43.6796093" lon="11.3347495"><ele>308.0</ele><time>2026-04-19T08:24:31.627Z</time></trkpt><trkpt lat="43.6794955" lon="11.3345826"><ele>308.0</ele><time>2026-04-19T08:24:33.621Z</time></trkpt><trkpt lat="43.6794386" lon="11.3344995"><ele>306.5</ele><time>2026-04-19T08:24:34.62Z</time></trkpt><trkpt lat="43.6793766" lon="11.3344239"><ele>305.0</ele><time>2026-04-19T08:24:35.624Z</time></trkpt><trkpt lat="43.679325" lon="11.334356"><ele>303.5</ele><time>2026-04-19T08:24:36.621Z</time></trkpt><trkpt lat="43.6792697" lon="11.3342797"><ele>302.0</ele><time>2026-04-19T08:24:37.627Z</time></trkpt><trkpt lat="43.6792295" lon="11.3341916"><ele>300.5</ele><time>2026-04-19T08:24:38.62Z</time></trkpt><trkpt lat="43.6791986" lon="11.3340884"><ele>299.0</ele><time>2026-04-19T08:24:39.615Z</time></trkpt><trkpt lat="43.6791495" lon="11.3339693"><ele>298.4</ele><time>2026-04-19T08:24:40.62Z</time></trkpt><trkpt lat="43.679103" lon="11.3338475"><ele>297.79999999999995</ele><time>2026-04-19T08:24:41.633Z</time></trkpt><trkpt lat="43.67907" lon="11.3337275"><ele>297.20000000000005</ele><time>2026-04-19T08:24:42.626Z</time></trkpt><trkpt lat="43.6790268" lon="11.3336017"><ele>296.6</ele><time>2026-04-19T08:24:43.63Z</time></trkpt><trkpt lat="43.6789866" lon="11.3334757"><ele>296.0</ele><time>2026-04-19T08:24:44.626Z</time></trkpt><trkpt lat="43.6789501" lon="11.3333463"><ele>296.0</ele><time>2026-04-19T08:24:45.628Z</time></trkpt><trkpt lat="43.6789196" lon="11.3332285"><ele>296.0</ele><time>2026-04-19T08:24:46.63Z</time></trkpt><trkpt lat="43.6789121" lon="11.3331248"><ele>296.0</ele><time>2026-04-19T08:24:47.618Z</time></trkpt><trkpt lat="43.6789216" lon="11.3330197"><ele>296.0</ele><time>2026-04-19T08:24:48.638Z</time></trkpt><trkpt lat="43.6789421" lon="11.332929"><ele>296.0</ele><time>2026-04-19T08:24:49.627Z</time></trkpt><trkpt lat="43.6788526" lon="11.3327862"><ele>296.0</ele><time>2026-04-19T08:24:51.638Z</time></trkpt><trkpt lat="43.6787645" lon="11.3327115"><ele>293.0</ele><time>2026-04-19T08:24:52.637Z</time></trkpt><trkpt lat="43.6785751" lon="11.3325768"><ele>290.0</ele><time>2026-04-19T08:24:54.639Z</time></trkpt><trkpt lat="43.6784719" lon="11.3325204"><ele>287.0</ele><time>2026-04-19T08:24:55.72Z</time></trkpt><trkpt lat="43.6784184" lon="11.3324404"><ele>284.0</ele><time>2026-04-19T08:24:56.633Z</time></trkpt><trkpt lat="43.6783397" lon="11.3323523"><ele>284.0</ele><time>2026-04-19T08:24:57.632Z</time></trkpt><trkpt lat="43.6782508" lon="11.3322467"><ele>284.0</ele><time>2026-04-19T08:24:58.633Z</time></trkpt><trkpt lat="43.6781659" lon="11.3321288"><ele>284.0</ele><time>2026-04-19T08:24:59.638Z</time></trkpt><trkpt lat="43.6780764" lon="11.3320054"><ele>284.0</ele><time>2026-04-19T08:25:00.632Z</time></trkpt><trkpt lat="43.677987" lon="11.3318817"><ele>282.5</ele><time>2026-04-19T08:25:01.635Z</time></trkpt><trkpt lat="43.6778898" lon="11.3317482"><ele>281.0</ele><time>2026-04-19T08:25:02.631Z</time></trkpt><trkpt lat="43.6777983" lon="11.3316101"><ele>279.5</ele><time>2026-04-19T08:25:03.629Z</time></trkpt><trkpt lat="43.6777219" lon="11.3314816"><ele>278.0</ele><time>2026-04-19T08:25:04.632Z</time></trkpt><trkpt lat="43.6776379" lon="11.3313592"><ele>278.0</ele><time>2026-04-19T08:25:05.615Z</time></trkpt><trkpt lat="43.6775551" lon="11.3312353"><ele>278.0</ele><time>2026-04-19T08:25:06.632Z</time></trkpt><trkpt lat="43.677469" lon="11.3311185"><ele>278.0</ele><time>2026-04-19T08:25:07.633Z</time></trkpt><trkpt lat="43.6773865" lon="11.3310013"><ele>278.0</ele><time>2026-04-19T08:25:08.637Z</time></trkpt><trkpt lat="43.6773125" lon="11.3308834"><ele>278.0</ele><time>2026-04-19T08:25:09.632Z</time></trkpt><trkpt lat="43.6772309" lon="11.3307631"><ele>278.0</ele><time>2026-04-19T08:25:10.628Z</time></trkpt><trkpt lat="43.6771603" lon="11.3306252"><ele>278.0</ele><time>2026-04-19T08:25:11.63Z</time></trkpt><trkpt lat="43.6771115" lon="11.3304852"><ele>278.0</ele><time>2026-04-19T08:25:12.642Z</time></trkpt><trkpt lat="43.6770842" lon="11.3303347"><ele>277.25</ele><time>2026-04-19T08:25:13.629Z</time></trkpt><trkpt lat="43.677028" lon="11.3300712"><ele>276.5</ele><time>2026-04-19T08:25:15.637Z</time></trkpt><trkpt lat="43.6769876" lon="11.3299386"><ele>275.75</ele><time>2026-04-19T08:25:16.644Z</time></trkpt><trkpt lat="43.6769043" lon="11.3298232"><ele>275.0</ele><time>2026-04-19T08:25:17.634Z</time></trkpt><trkpt lat="43.6768189" lon="11.3297075"><ele>274.2</ele><time>2026-04-19T08:25:18.644Z</time></trkpt><trkpt lat="43.676721" lon="11.3296227"><ele>273.4</ele><time>2026-04-19T08:25:19.636Z</time></trkpt><trkpt lat="43.6766377" lon="11.3295525"><ele>272.6</ele><time>2026-04-19T08:25:20.629Z</time></trkpt><trkpt lat="43.6765439" lon="11.3294995"><ele>271.8</ele><time>2026-04-19T08:25:21.629Z</time></trkpt><trkpt lat="43.676444" lon="11.3294469"><ele>271.0</ele><time>2026-04-19T08:25:22.629Z</time></trkpt><trkpt lat="43.676336" lon="11.329405"><ele>271.0</ele><time>2026-04-19T08:25:23.634Z</time></trkpt><trkpt lat="43.6762195" lon="11.3293664"><ele>271.0</ele><time>2026-04-19T08:25:24.634Z</time></trkpt><trkpt lat="43.6761128" lon="11.3293418"><ele>271.0</ele><time>2026-04-19T08:25:25.624Z</time></trkpt><trkpt lat="43.6760064" lon="11.329315"><ele>271.0</ele><time>2026-04-19T08:25:26.623Z</time></trkpt><trkpt lat="43.6759053" lon="11.3292971"><ele>271.0</ele><time>2026-04-19T08:25:27.635Z</time></trkpt><trkpt lat="43.6758015" lon="11.3292528"><ele>269.6</ele><time>2026-04-19T08:25:28.634Z</time></trkpt><trkpt lat="43.6757055" lon="11.3292007"><ele>268.20000000000005</ele><time>2026-04-19T08:25:29.638Z</time></trkpt><trkpt lat="43.6756035" lon="11.3291538"><ele>266.79999999999995</ele><time>2026-04-19T08:25:30.639Z</time></trkpt><trkpt lat="43.6755016" lon="11.3291017"><ele>265.4</ele><time>2026-04-19T08:25:31.644Z</time></trkpt><trkpt lat="43.6754019" lon="11.3290444"><ele>264.0</ele><time>2026-04-19T08:25:32.639Z</time></trkpt><trkpt lat="43.6753052" lon="11.32897"><ele>261.3333333333333</ele><time>2026-04-19T08:25:33.634Z</time></trkpt><trkpt lat="43.6752026" lon="11.3289012"><ele>258.66666666666663</ele><time>2026-04-19T08:25:34.638Z</time></trkpt><trkpt lat="43.674996" lon="11.3287558"><ele>256.0</ele><time>2026-04-19T08:25:36.641Z</time></trkpt><trkpt lat="43.6748937" lon="11.3286781"><ele>255.20000000000002</ele><time>2026-04-19T08:25:37.642Z</time></trkpt><trkpt lat="43.6747897" lon="11.3286029"><ele>254.40000000000003</ele><time>2026-04-19T08:25:38.643Z</time></trkpt><trkpt lat="43.6746979" lon="11.3285289"><ele>253.6</ele><time>2026-04-19T08:25:39.645Z</time></trkpt><trkpt lat="43.6746201" lon="11.3284564"><ele>252.8</ele><time>2026-04-19T08:25:40.643Z</time></trkpt><trkpt lat="43.674561" lon="11.3283437"><ele>252.0</ele><time>2026-04-19T08:25:41.634Z</time></trkpt><trkpt lat="43.6744968" lon="11.3282315"><ele>252.0</ele><time>2026-04-19T08:25:42.632Z</time></trkpt><trkpt lat="43.6744449" lon="11.3280855"><ele>252.0</ele><time>2026-04-19T08:25:43.646Z</time></trkpt><trkpt lat="43.6743966" lon="11.3279327"><ele>252.0</ele><time>2026-04-19T08:25:44.634Z</time></trkpt><trkpt lat="43.674346" lon="11.3277841"><ele>252.0</ele><time>2026-04-19T08:25:45.639Z</time></trkpt><trkpt lat="43.6742889" lon="11.3276434"><ele>252.8</ele><time>2026-04-19T08:25:46.639Z</time></trkpt><trkpt lat="43.6742331" lon="11.3275026"><ele>253.6</ele><time>2026-04-19T08:25:47.637Z</time></trkpt><trkpt lat="43.6741869" lon="11.3273616"><ele>254.40000000000003</ele><time>2026-04-19T08:25:48.629Z</time></trkpt><trkpt lat="43.6741388" lon="11.3272404"><ele>255.20000000000002</ele><time>2026-04-19T08:25:49.628Z</time></trkpt><trkpt lat="43.6740874" lon="11.3271181"><ele>256.0</ele><time>2026-04-19T08:25:50.634Z</time></trkpt><trkpt lat="43.6740222" lon="11.3270046"><ele>254.4</ele><time>2026-04-19T08:25:51.635Z</time></trkpt><trkpt lat="43.6739499" lon="11.3269041"><ele>252.8</ele><time>2026-04-19T08:25:52.64Z</time></trkpt><trkpt lat="43.6738658" lon="11.3268344"><ele>251.20000000000002</ele><time>2026-04-19T08:25:53.635Z</time></trkpt><trkpt lat="43.6737901" lon="11.3267803"><ele>249.60000000000002</ele><time>2026-04-19T08:25:54.641Z</time></trkpt><trkpt lat="43.6736914" lon="11.326778"><ele>248.0</ele><time>2026-04-19T08:25:55.64Z</time></trkpt><trkpt lat="43.6734743" lon="11.326841"><ele>247.0</ele><time>2026-04-19T08:25:57.634Z</time></trkpt><trkpt lat="43.6733739" lon="11.3268755"><ele>246.0</ele><time>2026-04-19T08:25:58.634Z</time></trkpt><trkpt lat="43.6732742" lon="11.326905"><ele>245.0</ele><time>2026-04-19T08:25:59.625Z</time></trkpt><trkpt lat="43.6731722" lon="11.3269297"><ele>244.0</ele><time>2026-04-19T08:26:00.637Z</time></trkpt><trkpt lat="43.673077" lon="11.326927"><ele>243.0</ele><time>2026-04-19T08:26:01.623Z</time></trkpt><trkpt lat="43.6729808" lon="11.3268846"><ele>243.0</ele><time>2026-04-19T08:26:02.637Z</time></trkpt><trkpt lat="43.6728856" lon="11.3268167"><ele>243.0</ele><time>2026-04-19T08:26:03.634Z</time></trkpt><trkpt lat="43.6728038" lon="11.3267416"><ele>243.0</ele><time>2026-04-19T08:26:04.63Z</time></trkpt><trkpt lat="43.6727201" lon="11.3266785"><ele>243.0</ele><time>2026-04-19T08:26:05.633Z</time></trkpt><trkpt lat="43.6726427" lon="11.3266229"><ele>243.0</ele><time>2026-04-19T08:26:06.631Z</time></trkpt><trkpt lat="43.67256" lon="11.3265604"><ele>243.0</ele><time>2026-04-19T08:26:07.628Z</time></trkpt><trkpt lat="43.6724971" lon="11.3264844"><ele>243.0</ele><time>2026-04-19T08:26:08.631Z</time></trkpt><trkpt lat="43.6724299" lon="11.3263852"><ele>243.0</ele><time>2026-04-19T08:26:09.622Z</time></trkpt><trkpt lat="43.6723592" lon="11.3262672"><ele>243.0</ele><time>2026-04-19T08:26:10.63Z</time></trkpt><trkpt lat="43.6723003" lon="11.3261329"><ele>243.0</ele><time>2026-04-19T08:26:11.633Z</time></trkpt><trkpt lat="43.6722528" lon="11.3259951"><ele>241.4</ele><time>2026-04-19T08:26:12.638Z</time></trkpt><trkpt lat="43.672205" lon="11.3258638"><ele>239.8</ele><time>2026-04-19T08:26:13.634Z</time></trkpt><trkpt lat="43.6721476" lon="11.3257486"><ele>238.2</ele><time>2026-04-19T08:26:14.65Z</time></trkpt><trkpt lat="43.6720887" lon="11.3256388"><ele>236.6</ele><time>2026-04-19T08:26:15.636Z</time></trkpt><trkpt lat="43.6720302" lon="11.3255179"><ele>235.0</ele><time>2026-04-19T08:26:16.653Z</time></trkpt><trkpt lat="43.6718848" lon="11.3252836"><ele>234.2</ele><time>2026-04-19T08:26:18.636Z</time></trkpt><trkpt lat="43.6717994" lon="11.3251838"><ele>233.4</ele><time>2026-04-19T08:26:19.631Z</time></trkpt><trkpt lat="43.6717223" lon="11.325081"><ele>232.60000000000002</ele><time>2026-04-19T08:26:20.638Z</time></trkpt><trkpt lat="43.6716447" lon="11.3249916"><ele>231.8</ele><time>2026-04-19T08:26:21.636Z</time></trkpt><trkpt lat="43.6715756" lon="11.3249114"><ele>231.0</ele><time>2026-04-19T08:26:22.637Z</time></trkpt><trkpt lat="43.6714759" lon="11.3248493"><ele>231.0</ele><time>2026-04-19T08:26:23.643Z</time></trkpt><trkpt lat="43.6713593" lon="11.3248107"><ele>231.0</ele><time>2026-04-19T08:26:24.639Z</time></trkpt><trkpt lat="43.6712404" lon="11.3247717"><ele>231.0</ele><time>2026-04-19T08:26:25.639Z</time></trkpt><trkpt lat="43.6711256" lon="11.3247339"><ele>231.0</ele><time>2026-04-19T08:26:26.641Z</time></trkpt><trkpt lat="43.6710188" lon="11.3246813"><ele>228.60000000000002</ele><time>2026-04-19T08:26:27.642Z</time></trkpt><trkpt lat="43.6709148" lon="11.3246422"><ele>226.20000000000002</ele><time>2026-04-19T08:26:28.642Z</time></trkpt><trkpt lat="43.6708164" lon="11.324598"><ele>223.79999999999998</ele><time>2026-04-19T08:26:29.644Z</time></trkpt><trkpt lat="43.6707275" lon="11.3245373"><ele>221.39999999999998</ele><time>2026-04-19T08:26:30.633Z</time></trkpt><trkpt lat="43.6706377" lon="11.3244601"><ele>219.0</ele><time>2026-04-19T08:26:31.639Z</time></trkpt><trkpt lat="43.6705666" lon="11.3243611"><ele>219.0</ele><time>2026-04-19T08:26:32.638Z</time></trkpt><trkpt lat="43.6705005" lon="11.3242459"><ele>218.99999999999997</ele><time>2026-04-19T08:26:33.634Z</time></trkpt><trkpt lat="43.670446" lon="11.3241374"><ele>218.99999999999997</ele><time>2026-04-19T08:26:34.633Z</time></trkpt><trkpt lat="43.670397" lon="11.3240276"><ele>219.0</ele><time>2026-04-19T08:26:35.63Z</time></trkpt><trkpt lat="43.6703607" lon="11.3238979"><ele>219.0</ele><time>2026-04-19T08:26:36.632Z</time></trkpt><trkpt lat="43.6703384" lon="11.3237687"><ele>217.79999999999998</ele><time>2026-04-19T08:26:37.634Z</time></trkpt><trkpt lat="43.6702907" lon="11.3235562"><ele>216.59999999999997</ele><time>2026-04-19T08:26:39.626Z</time></trkpt><trkpt lat="43.6702762" lon="11.3234652"><ele>215.4</ele><time>2026-04-19T08:26:40.637Z</time></trkpt><trkpt lat="43.6703033" lon="11.3233077"><ele>214.2</ele><time>2026-04-19T08:26:42.631Z</time></trkpt><trkpt lat="43.6703544" lon="11.3232521"><ele>213.0</ele><time>2026-04-19T08:26:43.639Z</time></trkpt><trkpt lat="43.6704211" lon="11.3232279"><ele>213.0</ele><time>2026-04-19T08:26:44.633Z</time></trkpt><trkpt lat="43.6704979" lon="11.323201"><ele>213.0</ele><time>2026-04-19T08:26:45.649Z</time></trkpt><trkpt lat="43.6705646" lon="11.3231732"><ele>213.0</ele><time>2026-04-19T08:26:46.63Z</time></trkpt><trkpt lat="43.6706198" lon="11.3231089"><ele>213.0</ele><time>2026-04-19T08:26:47.635Z</time></trkpt><trkpt lat="43.670667" lon="11.3230435"><ele>213.0</ele><time>2026-04-19T08:26:48.64Z</time></trkpt><trkpt lat="43.6706826" lon="11.3229531"><ele>213.0</ele><time>2026-04-19T08:26:49.641Z</time></trkpt><trkpt lat="43.6706582" lon="11.322821"><ele>212.60000000000002</ele><time>2026-04-19T08:26:50.643Z</time></trkpt><trkpt lat="43.6706173" lon="11.3226904"><ele>212.20000000000002</ele><time>2026-04-19T08:26:51.626Z</time></trkpt><trkpt lat="43.670591" lon="11.3225651"><ele>211.8</ele><time>2026-04-19T08:26:52.623Z</time></trkpt><trkpt lat="43.6705873" lon="11.3224354"><ele>211.4</ele><time>2026-04-19T08:26:53.628Z</time></trkpt><trkpt lat="43.6706111" lon="11.3223091"><ele>211.0</ele><time>2026-04-19T08:26:54.633Z</time></trkpt><trkpt lat="43.6706627" lon="11.3221159"><ele>211.0</ele><time>2026-04-19T08:26:55.624Z</time></trkpt><trkpt lat="43.6707348" lon="11.3218715"><ele>211.0</ele><time>2026-04-19T08:26:56.627Z</time></trkpt><trkpt lat="43.6707724" lon="11.321684"><ele>211.0</ele><time>2026-04-19T08:26:57.632Z</time></trkpt><trkpt lat="43.6708217" lon="11.3214684"><ele>211.66666666666666</ele><time>2026-04-19T08:26:58.631Z</time></trkpt><trkpt lat="43.6709139" lon="11.3211284"><ele>212.33333333333331</ele><time>2026-04-19T08:27:00.639Z</time></trkpt><trkpt lat="43.6709463" lon="11.3209654"><ele>213.0</ele><time>2026-04-19T08:27:01.639Z</time></trkpt><trkpt lat="43.6709835" lon="11.3208043"><ele>213.0</ele><time>2026-04-19T08:27:02.64Z</time></trkpt><trkpt lat="43.6710285" lon="11.3206418"><ele>213.0</ele><time>2026-04-19T08:27:03.64Z</time></trkpt><trkpt lat="43.6710692" lon="11.3204839"><ele>213.0</ele><time>2026-04-19T08:27:04.637Z</time></trkpt><trkpt lat="43.6711139" lon="11.3203294"><ele>213.0</ele><time>2026-04-19T08:27:05.64Z</time></trkpt><trkpt lat="43.6711515" lon="11.3201817"><ele>213.75</ele><time>2026-04-19T08:27:06.63Z</time></trkpt><trkpt lat="43.6711836" lon="11.3200331"><ele>214.5</ele><time>2026-04-19T08:27:07.637Z</time></trkpt><trkpt lat="43.6712027" lon="11.31987"><ele>215.25</ele><time>2026-04-19T08:27:08.643Z</time></trkpt><trkpt lat="43.6712097" lon="11.3197028"><ele>216.0</ele><time>2026-04-19T08:27:09.641Z</time></trkpt><trkpt lat="43.6712015" lon="11.3195283"><ele>216.0</ele><time>2026-04-19T08:27:10.643Z</time></trkpt><trkpt lat="43.6711871" lon="11.3193544"><ele>216.0</ele><time>2026-04-19T08:27:11.642Z</time></trkpt><trkpt lat="43.671168" lon="11.3191907"><ele>216.0</ele><time>2026-04-19T08:27:12.642Z</time></trkpt><trkpt lat="43.6711592" lon="11.3190316"><ele>216.0</ele><time>2026-04-19T08:27:13.642Z</time></trkpt><trkpt lat="43.6711387" lon="11.3188768"><ele>215.8</ele><time>2026-04-19T08:27:14.643Z</time></trkpt><trkpt lat="43.6711333" lon="11.3187428"><ele>215.60000000000002</ele><time>2026-04-19T08:27:15.657Z</time></trkpt><trkpt lat="43.6711411" lon="11.3186266"><ele>215.4</ele><time>2026-04-19T08:27:16.734Z</time></trkpt><trkpt lat="43.6711607" lon="11.3185393"><ele>215.2</ele><time>2026-04-19T08:27:17.728Z</time></trkpt><trkpt lat="43.6711923" lon="11.318461"><ele>215.0</ele><time>2026-04-19T08:27:18.738Z</time></trkpt><trkpt lat="43.6712803" lon="11.3182693"><ele>215.0</ele><time>2026-04-19T08:27:20.712Z</time></trkpt><trkpt lat="43.6713194" lon="11.3181565"><ele>215.0</ele><time>2026-04-19T08:27:21.714Z</time></trkpt><trkpt lat="43.6712752" lon="11.3182255"><ele>215.0</ele><time>2026-04-19T08:27:22.626Z</time></trkpt><trkpt lat="43.6712314" lon="11.3181459"><ele>215.0</ele><time>2026-04-19T08:28:06.65Z</time></trkpt><trkpt lat="43.6710053" lon="11.3182337"><ele>214.5</ele><time>2026-04-19T08:28:09.642Z</time></trkpt><trkpt lat="43.6708893" lon="11.3182718"><ele>214.0</ele><time>2026-04-19T08:28:10.631Z</time></trkpt><trkpt lat="43.6707592" lon="11.3182789"><ele>213.5</ele><time>2026-04-19T08:28:11.63Z</time></trkpt><trkpt lat="43.6706083" lon="11.3182719"><ele>213.0</ele><time>2026-04-19T08:28:12.633Z</time></trkpt><trkpt lat="43.6704597" lon="11.3182507"><ele>213.0</ele><time>2026-04-19T08:28:13.633Z</time></trkpt><trkpt lat="43.670308" lon="11.3182037"><ele>213.0</ele><time>2026-04-19T08:28:14.63Z</time></trkpt><trkpt lat="43.6701634" lon="11.3181339"><ele>213.0</ele><time>2026-04-19T08:28:15.639Z</time></trkpt><trkpt lat="43.6700203" lon="11.3180595"><ele>213.0</ele><time>2026-04-19T08:28:16.638Z</time></trkpt><trkpt lat="43.6698897" lon="11.3179993"><ele>213.0</ele><time>2026-04-19T08:28:17.631Z</time></trkpt><trkpt lat="43.6697641" lon="11.3179379"><ele>213.0</ele><time>2026-04-19T08:28:18.648Z</time></trkpt><trkpt lat="43.6696522" lon="11.3178963"><ele>213.0</ele><time>2026-04-19T08:28:19.641Z</time></trkpt><trkpt lat="43.6695674" lon="11.3178533"><ele>213.0</ele><time>2026-04-19T08:28:20.644Z</time></trkpt><trkpt lat="43.6694787" lon="11.3178281"><ele>213.0</ele><time>2026-04-19T08:28:21.64Z</time></trkpt><trkpt lat="43.6694164" lon="11.3178154"><ele>213.0</ele><time>2026-04-19T08:28:22.636Z</time></trkpt><trkpt lat="43.6693395" lon="11.3177916"><ele>213.0</ele><time>2026-04-19T08:28:23.619Z</time></trkpt><trkpt lat="43.6692909" lon="11.3178871"><ele>213.0</ele><time>2026-04-19T08:28:25.64Z</time></trkpt><trkpt lat="43.6693361" lon="11.3180573"><ele>213.0</ele><time>2026-04-19T08:28:27.627Z</time></trkpt><trkpt lat="43.6694511" lon="11.3182365"><ele>211.2</ele><time>2026-04-19T08:28:29.629Z</time></trkpt><trkpt lat="43.6695022" lon="11.3183389"><ele>209.4</ele><time>2026-04-19T08:28:30.625Z</time></trkpt><trkpt lat="43.669526" lon="11.3184583"><ele>207.6</ele><time>2026-04-19T08:28:31.634Z</time></trkpt><trkpt lat="43.6695131" lon="11.3185655"><ele>205.79999999999998</ele><time>2026-04-19T08:28:32.63Z</time></trkpt><trkpt lat="43.6694581" lon="11.3186681"><ele>204.0</ele><time>2026-04-19T08:28:33.621Z</time></trkpt><trkpt lat="43.6693538" lon="11.3187453"><ele>200.0</ele><time>2026-04-19T08:28:34.622Z</time></trkpt><trkpt lat="43.6692187" lon="11.318804"><ele>196.0</ele><time>2026-04-19T08:28:35.619Z</time></trkpt><trkpt lat="43.6690721" lon="11.3188685"><ele>192.0</ele><time>2026-04-19T08:28:36.629Z</time></trkpt><trkpt lat="43.668915" lon="11.3189413"><ele>190.5</ele><time>2026-04-19T08:28:37.631Z</time></trkpt><trkpt lat="43.6687716" lon="11.3190017"><ele>189.0</ele><time>2026-04-19T08:28:38.632Z</time></trkpt><trkpt lat="43.6686542" lon="11.3190687"><ele>187.5</ele><time>2026-04-19T08:28:39.628Z</time></trkpt><trkpt lat="43.6685637" lon="11.3191375"><ele>186.0</ele><time>2026-04-19T08:28:40.627Z</time></trkpt><trkpt lat="43.6684739" lon="11.3192605"><ele>186.0</ele><time>2026-04-19T08:28:42.627Z</time></trkpt><trkpt lat="43.6684934" lon="11.3194475"><ele>186.0</ele><time>2026-04-19T08:28:44.632Z</time></trkpt><trkpt lat="43.6685576" lon="11.3195741"><ele>186.0</ele><time>2026-04-19T08:28:45.625Z</time></trkpt><trkpt lat="43.6686251" lon="11.3196826"><ele>186.0</ele><time>2026-04-19T08:28:46.63Z</time></trkpt><trkpt lat="43.6686756" lon="11.3197831"><ele>186.0</ele><time>2026-04-19T08:28:47.631Z</time></trkpt><trkpt lat="43.6686928" lon="11.3198897"><ele>182.0</ele><time>2026-04-19T08:28:48.632Z</time></trkpt><trkpt lat="43.6685746" lon="11.3200818"><ele>178.0</ele><time>2026-04-19T08:28:50.629Z</time></trkpt><trkpt lat="43.668469" lon="11.3201396"><ele>174.0</ele><time>2026-04-19T08:28:51.633Z</time></trkpt><trkpt lat="43.6683596" lon="11.3201742"><ele>170.0</ele><time>2026-04-19T08:28:52.628Z</time></trkpt><trkpt lat="43.6682526" lon="11.320206"><ele>170.0</ele><time>2026-04-19T08:28:53.63Z</time></trkpt><trkpt lat="43.6681414" lon="11.3202132"><ele>170.0</ele><time>2026-04-19T08:28:54.63Z</time></trkpt><trkpt lat="43.6680434" lon="11.3201843"><ele>170.0</ele><time>2026-04-19T08:28:55.631Z</time></trkpt><trkpt lat="43.6679578" lon="11.3201036"><ele>170.0</ele><time>2026-04-19T08:28:56.624Z</time></trkpt><trkpt lat="43.667885" lon="11.3200032"><ele>170.0</ele><time>2026-04-19T08:28:57.629Z</time></trkpt><trkpt lat="43.667825" lon="11.3199042"><ele>167.6</ele><time>2026-04-19T08:28:58.629Z</time></trkpt><trkpt lat="43.6677643" lon="11.319831"><ele>165.2</ele><time>2026-04-19T08:28:59.628Z</time></trkpt><trkpt lat="43.6676449" lon="11.319801"><ele>162.8</ele><time>2026-04-19T08:29:01.638Z</time></trkpt><trkpt lat="43.6675834" lon="11.3198719"><ele>160.4</ele><time>2026-04-19T08:29:02.638Z</time></trkpt><trkpt lat="43.6675561" lon="11.3200023"><ele>158.0</ele><time>2026-04-19T08:29:03.634Z</time></trkpt><trkpt lat="43.6675473" lon="11.3201614"><ele>158.0</ele><time>2026-04-19T08:29:04.632Z</time></trkpt><trkpt lat="43.6675206" lon="11.3203119"><ele>158.0</ele><time>2026-04-19T08:29:05.634Z</time></trkpt><trkpt lat="43.6674394" lon="11.3204282"><ele>158.0</ele><time>2026-04-19T08:29:06.634Z</time></trkpt><trkpt lat="43.6673186" lon="11.3205062"><ele>158.0</ele><time>2026-04-19T08:29:07.63Z</time></trkpt><trkpt lat="43.6671969" lon="11.3205401"><ele>158.60000000000002</ele><time>2026-04-19T08:29:08.629Z</time></trkpt><trkpt lat="43.6670916" lon="11.3205811"><ele>159.20000000000002</ele><time>2026-04-19T08:29:09.632Z</time></trkpt><trkpt lat="43.6669138" lon="11.3206957"><ele>159.8</ele><time>2026-04-19T08:29:11.625Z</time></trkpt><trkpt lat="43.6668647" lon="11.3207666"><ele>160.4</ele><time>2026-04-19T08:29:12.624Z</time></trkpt><trkpt lat="43.6668495" lon="11.3208628"><ele>161.0</ele><time>2026-04-19T08:29:13.621Z</time></trkpt><trkpt lat="43.6668528" lon="11.3209675"><ele>159.33333333333331</ele><time>2026-04-19T08:29:14.623Z</time></trkpt><trkpt lat="43.6668673" lon="11.3210815"><ele>157.66666666666666</ele><time>2026-04-19T08:29:15.627Z</time></trkpt><trkpt lat="43.6668867" lon="11.3211886"><ele>156.0</ele><time>2026-04-19T08:29:16.624Z</time></trkpt><trkpt lat="43.666888" lon="11.3212984"><ele>154.33333333333334</ele><time>2026-04-19T08:29:17.619Z</time></trkpt><trkpt lat="43.6668719" lon="11.3213909"><ele>152.66666666666669</ele><time>2026-04-19T08:29:18.633Z</time></trkpt><trkpt lat="43.666844" lon="11.3215462"><ele>151.0</ele><time>2026-04-19T08:29:20.643Z</time></trkpt><trkpt lat="43.6668189" lon="11.3216695"><ele>151.0</ele><time>2026-04-19T08:29:22.635Z</time></trkpt><trkpt lat="43.6668143" lon="11.3218468"><ele>151.0</ele><time>2026-04-19T08:29:24.624Z</time></trkpt><trkpt lat="43.6668296" lon="11.3219597"><ele>151.0</ele><time>2026-04-19T08:29:25.629Z</time></trkpt><trkpt lat="43.6668356" lon="11.3220844"><ele>151.0</ele><time>2026-04-19T08:29:26.632Z</time></trkpt><trkpt lat="43.6668347" lon="11.322219"><ele>151.0</ele><time>2026-04-19T08:29:27.631Z</time></trkpt><trkpt lat="43.6668344" lon="11.3223454"><ele>151.4</ele><time>2026-04-19T08:29:28.632Z</time></trkpt><trkpt lat="43.6668255" lon="11.3224689"><ele>151.8</ele><time>2026-04-19T08:29:29.637Z</time></trkpt><trkpt lat="43.6668169" lon="11.3225924"><ele>152.20000000000002</ele><time>2026-04-19T08:29:30.63Z</time></trkpt><trkpt lat="43.6667831" lon="11.3228297"><ele>152.6</ele><time>2026-04-19T08:29:32.625Z</time></trkpt><trkpt lat="43.666755" lon="11.3229132"><ele>153.0</ele><time>2026-04-19T08:29:33.632Z</time></trkpt><trkpt lat="43.6666735" lon="11.3229834"><ele>153.0</ele><time>2026-04-19T08:29:34.634Z</time></trkpt><trkpt lat="43.6665782" lon="11.3230168"><ele>153.0</ele><time>2026-04-19T08:29:35.623Z</time></trkpt><trkpt lat="43.6664637" lon="11.3230148"><ele>153.0</ele><time>2026-04-19T08:29:36.63Z</time></trkpt><trkpt lat="43.6663404" lon="11.3229844"><ele>153.0</ele><time>2026-04-19T08:29:37.63Z</time></trkpt><trkpt lat="43.6662405" lon="11.3229478"><ele>153.0</ele><time>2026-04-19T08:29:38.627Z</time></trkpt><trkpt lat="43.6661599" lon="11.322903"><ele>152.5</ele><time>2026-04-19T08:29:39.632Z</time></trkpt><trkpt lat="43.6660968" lon="11.3228677"><ele>152.0</ele><time>2026-04-19T08:29:40.637Z</time></trkpt><trkpt lat="43.6660167" lon="11.3228164"><ele>151.5</ele><time>2026-04-19T08:29:42.637Z</time></trkpt><trkpt lat="43.6659484" lon="11.3228035"><ele>151.0</ele><time>2026-04-19T08:29:58.654Z</time></trkpt><trkpt lat="43.6657281" lon="11.3228877"><ele>151.0</ele><time>2026-04-19T08:30:01.639Z</time></trkpt><trkpt lat="43.6656242" lon="11.3229474"><ele>151.0</ele><time>2026-04-19T08:30:02.639Z</time></trkpt><trkpt lat="43.6655246" lon="11.323021"><ele>151.0</ele><time>2026-04-19T08:30:03.645Z</time></trkpt><trkpt lat="43.665434" lon="11.3230998"><ele>151.0</ele><time>2026-04-19T08:30:04.721Z</time></trkpt><trkpt lat="43.6653213" lon="11.3231656"><ele>155.5</ele><time>2026-04-19T08:30:05.716Z</time></trkpt><trkpt lat="43.6652207" lon="11.3232037"><ele>160.0</ele><time>2026-04-19T08:30:06.719Z</time></trkpt><trkpt lat="43.6651288" lon="11.3232207"><ele>164.5</ele><time>2026-04-19T08:30:07.714Z</time></trkpt><trkpt lat="43.6649897" lon="11.3233148"><ele>169.0</ele><time>2026-04-19T08:30:09.706Z</time></trkpt><trkpt lat="43.6647031" lon="11.3235801"><ele>169.0</ele><time>2026-04-19T08:30:12.631Z</time></trkpt><trkpt lat="43.6646396" lon="11.3236511"><ele>169.0</ele><time>2026-04-19T08:30:13.628Z</time></trkpt><trkpt lat="43.6645765" lon="11.3237279"><ele>169.0</ele><time>2026-04-19T08:30:14.635Z</time></trkpt><trkpt lat="43.6645193" lon="11.3237947"><ele>169.0</ele><time>2026-04-19T08:30:15.625Z</time></trkpt><trkpt lat="43.6644881" lon="11.323874"><ele>169.0</ele><time>2026-04-19T08:30:16.636Z</time></trkpt><trkpt lat="43.6644913" lon="11.3240061"><ele>169.0</ele><time>2026-04-19T08:30:17.625Z</time></trkpt><trkpt lat="43.6645211" lon="11.3241647"><ele>170.0</ele><time>2026-04-19T08:30:18.628Z</time></trkpt><trkpt lat="43.6645371" lon="11.3243172"><ele>171.0</ele><time>2026-04-19T08:30:19.626Z</time></trkpt><trkpt lat="43.6645145" lon="11.3245964"><ele>172.0</ele><time>2026-04-19T08:30:21.628Z</time></trkpt><trkpt lat="43.6645078" lon="11.3247401"><ele>173.0</ele><time>2026-04-19T08:30:22.643Z</time></trkpt><trkpt lat="43.6644776" lon="11.3248895"><ele>176.75</ele><time>2026-04-19T08:30:23.631Z</time></trkpt><trkpt lat="43.6644375" lon="11.3250338"><ele>180.5</ele><time>2026-04-19T08:30:24.636Z</time></trkpt><trkpt lat="43.6643804" lon="11.3251695"><ele>184.25</ele><time>2026-04-19T08:30:25.631Z</time></trkpt><trkpt lat="43.6643089" lon="11.325296"><ele>188.0</ele><time>2026-04-19T08:30:26.628Z</time></trkpt><trkpt lat="43.6642306" lon="11.3254217"><ele>188.0</ele><time>2026-04-19T08:30:27.633Z</time></trkpt><trkpt lat="43.6641689" lon="11.3255519"><ele>188.0</ele><time>2026-04-19T08:30:28.631Z</time></trkpt><trkpt lat="43.6641191" lon="11.3256814"><ele>188.0</ele><time>2026-04-19T08:30:29.636Z</time></trkpt><trkpt lat="43.6640588" lon="11.3258139"><ele>188.0</ele><time>2026-04-19T08:30:30.633Z</time></trkpt><trkpt lat="43.6639976" lon="11.3259432"><ele>188.0</ele><time>2026-04-19T08:30:31.634Z</time></trkpt><trkpt lat="43.6639533" lon="11.3260756"><ele>188.2</ele><time>2026-04-19T08:30:32.635Z</time></trkpt><trkpt lat="43.663907" lon="11.3262045"><ele>188.4</ele><time>2026-04-19T08:30:33.636Z</time></trkpt><trkpt lat="43.6638626" lon="11.3263437"><ele>188.6</ele><time>2026-04-19T08:30:34.636Z</time></trkpt><trkpt lat="43.6638224" lon="11.3264713"><ele>188.79999999999998</ele><time>2026-04-19T08:30:35.631Z</time></trkpt><trkpt lat="43.6637833" lon="11.3265919"><ele>189.0</ele><time>2026-04-19T08:30:36.629Z</time></trkpt><trkpt lat="43.6637484" lon="11.3266888"><ele>190.2</ele><time>2026-04-19T08:30:37.622Z</time></trkpt><trkpt lat="43.6636987" lon="11.3267593"><ele>191.39999999999998</ele><time>2026-04-19T08:30:38.623Z</time></trkpt><trkpt lat="43.6636357" lon="11.3268127"><ele>192.6</ele><time>2026-04-19T08:30:39.622Z</time></trkpt><trkpt lat="43.6635726" lon="11.326845"><ele>193.8</ele><time>2026-04-19T08:30:40.625Z</time></trkpt><trkpt lat="43.6634692" lon="11.3270312"><ele>195.0</ele><time>2026-04-19T08:30:43.623Z</time></trkpt><trkpt lat="43.6635316" lon="11.3272233"><ele>196.6</ele><time>2026-04-19T08:30:45.623Z</time></trkpt><trkpt lat="43.6635742" lon="11.32735"><ele>198.2</ele><time>2026-04-19T08:30:46.622Z</time></trkpt><trkpt lat="43.6636059" lon="11.3274686"><ele>199.8</ele><time>2026-04-19T08:30:47.62Z</time></trkpt><trkpt lat="43.6636212" lon="11.3275878"><ele>201.4</ele><time>2026-04-19T08:30:48.621Z</time></trkpt><trkpt lat="43.6636264" lon="11.3277106"><ele>203.0</ele><time>2026-04-19T08:30:49.617Z</time></trkpt><trkpt lat="43.6636165" lon="11.3278347"><ele>205.8</ele><time>2026-04-19T08:30:50.616Z</time></trkpt><trkpt lat="43.6635995" lon="11.3279783"><ele>208.60000000000002</ele><time>2026-04-19T08:30:51.626Z</time></trkpt><trkpt lat="43.6635612" lon="11.3281213"><ele>211.39999999999998</ele><time>2026-04-19T08:30:52.628Z</time></trkpt><trkpt lat="43.66351" lon="11.328264"><ele>214.2</ele><time>2026-04-19T08:30:53.638Z</time></trkpt><trkpt lat="43.663463" lon="11.328386"><ele>217.0</ele><time>2026-04-19T08:30:54.63Z</time></trkpt><trkpt lat="43.663419" lon="11.3284938"><ele>218.83333333333331</ele><time>2026-04-19T08:30:55.629Z</time></trkpt><trkpt lat="43.6633602" lon="11.3285926"><ele>220.66666666666666</ele><time>2026-04-19T08:30:56.621Z</time></trkpt><trkpt lat="43.6633023" lon="11.3286727"><ele>222.5</ele><time>2026-04-19T08:30:57.623Z</time></trkpt><trkpt lat="43.6632114" lon="11.3287298"><ele>224.33333333333331</ele><time>2026-04-19T08:30:58.624Z</time></trkpt><trkpt lat="43.6631272" lon="11.3287796"><ele>226.16666666666666</ele><time>2026-04-19T08:30:59.631Z</time></trkpt><trkpt lat="43.663067" lon="11.3288259"><ele>228.0</ele><time>2026-04-19T08:31:00.615Z</time></trkpt><trkpt lat="43.6630315" lon="11.3289037"><ele>229.4</ele><time>2026-04-19T08:31:01.632Z</time></trkpt><trkpt lat="43.6630041" lon="11.3291449"><ele>230.8</ele><time>2026-04-19T08:31:03.624Z</time></trkpt><trkpt lat="43.6629762" lon="11.3292654"><ele>232.2</ele><time>2026-04-19T08:31:04.623Z</time></trkpt><trkpt lat="43.6629427" lon="11.3293596"><ele>233.6</ele><time>2026-04-19T08:31:05.623Z</time></trkpt><trkpt lat="43.662898" lon="11.3294677"><ele>235.0</ele><time>2026-04-19T08:31:06.621Z</time></trkpt><trkpt lat="43.6628454" lon="11.3295554"><ele>234.99999999999997</ele><time>2026-04-19T08:31:07.623Z</time></trkpt><trkpt lat="43.6627931" lon="11.3296394"><ele>235.0</ele><time>2026-04-19T08:31:08.619Z</time></trkpt><trkpt lat="43.6627481" lon="11.3297141"><ele>235.0</ele><time>2026-04-19T08:31:09.623Z</time></trkpt><trkpt lat="43.662744" lon="11.3298576"><ele>235.0</ele><time>2026-04-19T08:31:11.619Z</time></trkpt><trkpt lat="43.6627659" lon="11.3299563"><ele>234.99999999999997</ele><time>2026-04-19T08:31:12.631Z</time></trkpt><trkpt lat="43.6627933" lon="11.330076"><ele>235.0</ele><time>2026-04-19T08:31:13.628Z</time></trkpt><trkpt lat="43.6628132" lon="11.3301919"><ele>235.16666666666666</ele><time>2026-04-19T08:31:14.629Z</time></trkpt><trkpt lat="43.6628309" lon="11.3302978"><ele>235.33333333333331</ele><time>2026-04-19T08:31:15.635Z</time></trkpt><trkpt lat="43.6628389" lon="11.33042"><ele>235.5</ele><time>2026-04-19T08:31:16.63Z</time></trkpt><trkpt lat="43.6628473" lon="11.3305434"><ele>235.66666666666669</ele><time>2026-04-19T08:31:17.63Z</time></trkpt><trkpt lat="43.6628542" lon="11.3306517"><ele>235.83333333333334</ele><time>2026-04-19T08:31:18.629Z</time></trkpt><trkpt lat="43.6628436" lon="11.3307623"><ele>236.0</ele><time>2026-04-19T08:31:19.628Z</time></trkpt><trkpt lat="43.6628385" lon="11.330865"><ele>235.66666666666669</ele><time>2026-04-19T08:31:20.63Z</time></trkpt><trkpt lat="43.6628408" lon="11.3309677"><ele>235.33333333333334</ele><time>2026-04-19T08:31:21.631Z</time></trkpt><trkpt lat="43.6628702" lon="11.3310616"><ele>235.0</ele><time>2026-04-19T08:31:22.624Z</time></trkpt><trkpt lat="43.6629604" lon="11.3312021"><ele>234.66666666666669</ele><time>2026-04-19T08:31:24.637Z</time></trkpt><trkpt lat="43.6630251" lon="11.3312854"><ele>234.33333333333334</ele><time>2026-04-19T08:31:26.626Z</time></trkpt><trkpt lat="43.663016" lon="11.3313819"><ele>234.0</ele><time>2026-04-19T08:31:28.623Z</time></trkpt><trkpt lat="43.6629104" lon="11.331405"><ele>233.79999999999998</ele><time>2026-04-19T08:31:30.626Z</time></trkpt><trkpt lat="43.6628319" lon="11.331411"><ele>233.59999999999997</ele><time>2026-04-19T08:31:31.626Z</time></trkpt><trkpt lat="43.6627376" lon="11.3314047"><ele>233.4</ele><time>2026-04-19T08:31:32.626Z</time></trkpt><trkpt lat="43.6626288" lon="11.3313971"><ele>233.2</ele><time>2026-04-19T08:31:33.627Z</time></trkpt><trkpt lat="43.6625147" lon="11.331422"><ele>233.0</ele><time>2026-04-19T08:31:34.634Z</time></trkpt><trkpt lat="43.6624107" lon="11.3314658"><ele>238.0</ele><time>2026-04-19T08:31:35.619Z</time></trkpt><trkpt lat="43.6623086" lon="11.3315259"><ele>243.0</ele><time>2026-04-19T08:31:36.626Z</time></trkpt><trkpt lat="43.6622175" lon="11.331631"><ele>248.0</ele><time>2026-04-19T08:31:37.624Z</time></trkpt><trkpt lat="43.6621255" lon="11.331739"><ele>253.0</ele><time>2026-04-19T08:31:38.629Z</time></trkpt><trkpt lat="43.6620287" lon="11.3318237"><ele>256.5</ele><time>2026-04-19T08:31:39.624Z</time></trkpt><trkpt lat="43.6619354" lon="11.3318699"><ele>260.0</ele><time>2026-04-19T08:31:40.626Z</time></trkpt><trkpt lat="43.6618297" lon="11.3318881"><ele>263.5</ele><time>2026-04-19T08:31:41.622Z</time></trkpt><trkpt lat="43.6616967" lon="11.3319071"><ele>267.0</ele><time>2026-04-19T08:31:42.622Z</time></trkpt><trkpt lat="43.6615584" lon="11.3319131"><ele>267.0</ele><time>2026-04-19T08:31:43.62Z</time></trkpt><trkpt lat="43.6613032" lon="11.331912"><ele>267.0</ele><time>2026-04-19T08:31:45.623Z</time></trkpt><trkpt lat="43.6611709" lon="11.3319242"><ele>267.0</ele><time>2026-04-19T08:31:46.63Z</time></trkpt><trkpt lat="43.661048" lon="11.3319368"><ele>267.75</ele><time>2026-04-19T08:31:47.626Z</time></trkpt><trkpt lat="43.6609203" lon="11.3319522"><ele>268.5</ele><time>2026-04-19T08:31:48.635Z</time></trkpt><trkpt lat="43.6607843" lon="11.3319814"><ele>269.25</ele><time>2026-04-19T08:31:49.634Z</time></trkpt><trkpt lat="43.6606668" lon="11.3320182"><ele>270.0</ele><time>2026-04-19T08:31:50.633Z</time></trkpt><trkpt lat="43.6605511" lon="11.3320782"><ele>270.0</ele><time>2026-04-19T08:31:51.635Z</time></trkpt><trkpt lat="43.6604398" lon="11.3321415"><ele>270.0</ele><time>2026-04-19T08:31:52.632Z</time></trkpt><trkpt lat="43.660336" lon="11.3321975"><ele>270.0</ele><time>2026-04-19T08:31:53.637Z</time></trkpt><trkpt lat="43.6602414" lon="11.3322308"><ele>270.0</ele><time>2026-04-19T08:31:54.634Z</time></trkpt><trkpt lat="43.660138" lon="11.3322354"><ele>270.0</ele><time>2026-04-19T08:31:55.638Z</time></trkpt><trkpt lat="43.6600177" lon="11.332217"><ele>269.5</ele><time>2026-04-19T08:31:56.63Z</time></trkpt><trkpt lat="43.659876" lon="11.3322183"><ele>269.0</ele><time>2026-04-19T08:31:57.629Z</time></trkpt><trkpt lat="43.6597429" lon="11.3322466"><ele>268.5</ele><time>2026-04-19T08:31:58.629Z</time></trkpt><trkpt lat="43.6596195" lon="11.3322761"><ele>268.0</ele><time>2026-04-19T08:31:59.63Z</time></trkpt><trkpt lat="43.659509" lon="11.3322906"><ele>268.0</ele><time>2026-04-19T08:32:00.635Z</time></trkpt><trkpt lat="43.6594056" lon="11.3322524"><ele>268.0</ele><time>2026-04-19T08:32:01.633Z</time></trkpt><trkpt lat="43.6592953" lon="11.3322324"><ele>268.0</ele><time>2026-04-19T08:32:02.636Z</time></trkpt><trkpt lat="43.6592041" lon="11.3322111"><ele>268.0</ele><time>2026-04-19T08:32:03.63Z</time></trkpt><trkpt lat="43.6591129" lon="11.3321703"><ele>268.0</ele><time>2026-04-19T08:32:04.634Z</time></trkpt><trkpt lat="43.6589265" lon="11.3320427"><ele>268.6</ele><time>2026-04-19T08:32:06.63Z</time></trkpt><trkpt lat="43.6588404" lon="11.3319609"><ele>269.20000000000005</ele><time>2026-04-19T08:32:07.632Z</time></trkpt><trkpt lat="43.6587635" lon="11.3319062"><ele>269.8</ele><time>2026-04-19T08:32:08.626Z</time></trkpt><trkpt lat="43.6586756" lon="11.3318832"><ele>270.40000000000003</ele><time>2026-04-19T08:32:09.628Z</time></trkpt><trkpt lat="43.6585747" lon="11.3319148"><ele>271.0</ele><time>2026-04-19T08:32:10.624Z</time></trkpt><trkpt lat="43.6584726" lon="11.3319655"><ele>273.8</ele><time>2026-04-19T08:32:11.627Z</time></trkpt><trkpt lat="43.6583839" lon="11.3320109"><ele>276.6</ele><time>2026-04-19T08:32:12.625Z</time></trkpt><trkpt lat="43.6583055" lon="11.3320666"><ele>279.4</ele><time>2026-04-19T08:32:13.633Z</time></trkpt><trkpt lat="43.6582487" lon="11.3321698"><ele>282.2</ele><time>2026-04-19T08:32:14.628Z</time></trkpt><trkpt lat="43.6582248" lon="11.3323081"><ele>285.0</ele><time>2026-04-19T08:32:15.632Z</time></trkpt><trkpt lat="43.6582322" lon="11.3324651"><ele>285.2</ele><time>2026-04-19T08:32:16.632Z</time></trkpt><trkpt lat="43.6582601" lon="11.3326283"><ele>285.4</ele><time>2026-04-19T08:32:17.628Z</time></trkpt><trkpt lat="43.6582817" lon="11.3327871"><ele>285.6</ele><time>2026-04-19T08:32:18.622Z</time></trkpt><trkpt lat="43.6583021" lon="11.3329084"><ele>285.8</ele><time>2026-04-19T08:32:19.626Z</time></trkpt><trkpt lat="43.6583328" lon="11.3330286"><ele>286.0</ele><time>2026-04-19T08:32:20.626Z</time></trkpt><trkpt lat="43.6583713" lon="11.3331378"><ele>286.5</ele><time>2026-04-19T08:32:21.629Z</time></trkpt><trkpt lat="43.6583801" lon="11.3332297"><ele>287.0</ele><time>2026-04-19T08:32:22.626Z</time></trkpt><trkpt lat="43.6583054" lon="11.3334023"><ele>287.5</ele><time>2026-04-19T08:32:24.624Z</time></trkpt><trkpt lat="43.658267" lon="11.3335194"><ele>288.0</ele><time>2026-04-19T08:32:25.622Z</time></trkpt><trkpt lat="43.6582428" lon="11.3337895"><ele>288.5</ele><time>2026-04-19T08:32:27.619Z</time></trkpt><trkpt lat="43.6582371" lon="11.3339067"><ele>289.0</ele><time>2026-04-19T08:32:28.619Z</time></trkpt><trkpt lat="43.658232" lon="11.334016"><ele>289.5</ele><time>2026-04-19T08:32:29.619Z</time></trkpt><trkpt lat="43.6582325" lon="11.3341047"><ele>290.0</ele><time>2026-04-19T08:32:30.616Z</time></trkpt><trkpt lat="43.6582338" lon="11.3341926"><ele>290.5</ele><time>2026-04-19T08:32:36.628Z</time></trkpt><trkpt lat="43.6582002" lon="11.334278"><ele>291.0</ele><time>2026-04-19T08:32:56.631Z</time></trkpt><trkpt lat="43.6580899" lon="11.3340181"><ele>291.0</ele><time>2026-04-19T08:33:01.613Z</time></trkpt><trkpt lat="43.6580569" lon="11.3339245"><ele>291.0</ele><time>2026-04-19T08:33:02.617Z</time></trkpt><trkpt lat="43.6580216" lon="11.3338271"><ele>291.0</ele><time>2026-04-19T08:33:03.616Z</time></trkpt><trkpt lat="43.6579954" lon="11.3337257"><ele>291.0</ele><time>2026-04-19T08:33:04.613Z</time></trkpt><trkpt lat="43.6579653" lon="11.333627"><ele>291.0</ele><time>2026-04-19T08:33:05.618Z</time></trkpt><trkpt lat="43.6579263" lon="11.3335577"><ele>291.0</ele><time>2026-04-19T08:33:06.617Z</time></trkpt><trkpt lat="43.6578581" lon="11.3335023"><ele>294.0</ele><time>2026-04-19T08:33:07.62Z</time></trkpt><trkpt lat="43.6577802" lon="11.3334533"><ele>297.0</ele><time>2026-04-19T08:33:08.617Z</time></trkpt><trkpt lat="43.6577029" lon="11.3334173"><ele>300.0</ele><time>2026-04-19T08:33:09.613Z</time></trkpt><trkpt lat="43.6576121" lon="11.3333919"><ele>303.0</ele><time>2026-04-19T08:33:10.619Z</time></trkpt><trkpt lat="43.6575233" lon="11.3333706"><ele>306.0</ele><time>2026-04-19T08:33:11.621Z</time></trkpt><trkpt lat="43.657412" lon="11.3333443"><ele>306.0</ele><time>2026-04-19T08:33:13.622Z</time></trkpt><trkpt lat="43.6573052" lon="11.33335"><ele>306.0</ele><time>2026-04-19T08:33:15.624Z</time></trkpt><trkpt lat="43.6572291" lon="11.3333936"><ele>306.0</ele><time>2026-04-19T08:33:34.618Z</time></trkpt><trkpt lat="43.657049" lon="11.3334911"><ele>306.0</ele><time>2026-04-19T08:33:39.626Z</time></trkpt><trkpt lat="43.6569564" lon="11.3334103"><ele>305.1666666666667</ele><time>2026-04-19T08:33:41.632Z</time></trkpt><trkpt lat="43.656904" lon="11.3333055"><ele>304.3333333333333</ele><time>2026-04-19T08:33:42.623Z</time></trkpt><trkpt lat="43.6568637" lon="11.3331975"><ele>303.5</ele><time>2026-04-19T08:33:43.624Z</time></trkpt><trkpt lat="43.6568239" lon="11.3331109"><ele>302.66666666666663</ele><time>2026-04-19T08:33:44.621Z</time></trkpt><trkpt lat="43.656778" lon="11.333046"><ele>301.8333333333333</ele><time>2026-04-19T08:33:45.624Z</time></trkpt><trkpt lat="43.6566882" lon="11.3329234"><ele>301.0</ele><time>2026-04-19T08:33:47.622Z</time></trkpt><trkpt lat="43.6566217" lon="11.3328743"><ele>301.0</ele><time>2026-04-19T08:33:48.626Z</time></trkpt><trkpt lat="43.6565615" lon="11.3328318"><ele>301.0</ele><time>2026-04-19T08:33:49.623Z</time></trkpt><trkpt lat="43.6565071" lon="11.3327822"><ele>301.0</ele><time>2026-04-19T08:33:50.625Z</time></trkpt><trkpt lat="43.6564468" lon="11.3327379"><ele>301.0</ele><time>2026-04-19T08:33:51.623Z</time></trkpt><trkpt lat="43.6563757" lon="11.3327119"><ele>301.0</ele><time>2026-04-19T08:33:52.627Z</time></trkpt><trkpt lat="43.6563051" lon="11.3326978"><ele>301.0</ele><time>2026-04-19T08:33:53.631Z</time></trkpt><trkpt lat="43.6562364" lon="11.3326785"><ele>301.0</ele><time>2026-04-19T08:33:54.629Z</time></trkpt><trkpt lat="43.6561143" lon="11.3326485"><ele>302.0</ele><time>2026-04-19T08:33:56.622Z</time></trkpt><trkpt lat="43.6559008" lon="11.3327763"><ele>303.0</ele><time>2026-04-19T08:34:00.623Z</time></trkpt><trkpt lat="43.6558401" lon="11.3328164"><ele>304.0</ele><time>2026-04-19T08:34:01.632Z</time></trkpt><trkpt lat="43.6557833" lon="11.3328601"><ele>305.0</ele><time>2026-04-19T08:34:02.629Z</time></trkpt><trkpt lat="43.6557223" lon="11.3329113"><ele>306.0</ele><time>2026-04-19T08:34:03.624Z</time></trkpt><trkpt lat="43.6556701" lon="11.3329608"><ele>306.0</ele><time>2026-04-19T08:34:04.625Z</time></trkpt><trkpt lat="43.6556061" lon="11.3329883"><ele>306.0</ele><time>2026-04-19T08:34:05.619Z</time></trkpt><trkpt lat="43.6555416" lon="11.3329925"><ele>306.0</ele><time>2026-04-19T08:34:06.62Z</time></trkpt><trkpt lat="43.6554709" lon="11.3329564"><ele>306.0</ele><time>2026-04-19T08:34:07.615Z</time></trkpt><trkpt lat="43.6553972" lon="11.3329073"><ele>306.0</ele><time>2026-04-19T08:34:08.618Z</time></trkpt><trkpt lat="43.6553192" lon="11.3328814"><ele>306.0</ele><time>2026-04-19T08:34:09.62Z</time></trkpt><trkpt lat="43.6551941" lon="11.3328295"><ele>306.0</ele><time>2026-04-19T08:34:11.626Z</time></trkpt><trkpt lat="43.6550872" lon="11.3327713"><ele>306.0</ele><time>2026-04-19T08:34:13.625Z</time></trkpt><trkpt lat="43.6549836" lon="11.3327916"><ele>306.0</ele><time>2026-04-19T08:34:15.63Z</time></trkpt><trkpt lat="43.654883" lon="11.3328918"><ele>306.0</ele><time>2026-04-19T08:34:17.628Z</time></trkpt><trkpt lat="43.6547579" lon="11.3330125"><ele>306.0</ele><time>2026-04-19T08:34:19.633Z</time></trkpt><trkpt lat="43.6547015" lon="11.3330579"><ele>306.0</ele><time>2026-04-19T08:34:20.63Z</time></trkpt><trkpt lat="43.6546336" lon="11.3331245"><ele>306.0</ele><time>2026-04-19T08:34:22.619Z</time></trkpt><trkpt lat="43.6545944" lon="11.333204"><ele>306.0</ele><time>2026-04-19T08:37:08.651Z</time></trkpt><trkpt lat="43.6545578" lon="11.3331779"><ele>306.0</ele><time>2026-04-19T08:39:32.644Z</time></trkpt><trkpt lat="43.6546481" lon="11.3330883"><ele>306.0</ele><time>2026-04-19T08:40:29.625Z</time></trkpt><trkpt lat="43.6548009" lon="11.3329168"><ele>306.0</ele><time>2026-04-19T08:46:44.651Z</time></trkpt><trkpt lat="43.6548775" lon="11.3328235"><ele>306.0</ele><time>2026-04-19T08:46:46.645Z</time></trkpt><trkpt lat="43.6549963" lon="11.3327629"><ele>306.0</ele><time>2026-04-19T08:46:48.651Z</time></trkpt><trkpt lat="43.6550578" lon="11.3327429"><ele>306.0</ele><time>2026-04-19T08:46:49.653Z</time></trkpt><trkpt lat="43.6551225" lon="11.3327431"><ele>306.0</ele><time>2026-04-19T08:46:50.648Z</time></trkpt><trkpt lat="43.6551871" lon="11.3327672"><ele>306.0</ele><time>2026-04-19T08:46:51.653Z</time></trkpt><trkpt lat="43.6552505" lon="11.3328113"><ele>306.0</ele><time>2026-04-19T08:46:52.653Z</time></trkpt><trkpt lat="43.655314" lon="11.3328652"><ele>306.0</ele><time>2026-04-19T08:46:55.662Z</time></trkpt><trkpt lat="43.6553816" lon="11.3329138"><ele>306.0</ele><time>2026-04-19T08:47:03.656Z</time></trkpt><trkpt lat="43.6555588" lon="11.3329559"><ele>306.0</ele><time>2026-04-19T08:47:07.655Z</time></trkpt><trkpt lat="43.6556439" lon="11.3328883"><ele>306.0</ele><time>2026-04-19T08:47:09.64Z</time></trkpt><trkpt lat="43.6557137" lon="11.3328391"><ele>306.0</ele><time>2026-04-19T08:47:10.644Z</time></trkpt><trkpt lat="43.6557816" lon="11.3328157"><ele>306.0</ele><time>2026-04-19T08:47:11.632Z</time></trkpt><trkpt lat="43.6558406" lon="11.3327708"><ele>306.0</ele><time>2026-04-19T08:47:12.634Z</time></trkpt><trkpt lat="43.6559047" lon="11.3327279"><ele>306.0</ele><time>2026-04-19T08:47:13.642Z</time></trkpt><trkpt lat="43.6559644" lon="11.3326832"><ele>306.0</ele><time>2026-04-19T08:47:14.636Z</time></trkpt><trkpt lat="43.6561273" lon="11.3326522"><ele>306.0</ele><time>2026-04-19T08:47:17.64Z</time></trkpt><trkpt lat="43.6561938" lon="11.3326511"><ele>305.0</ele><time>2026-04-19T08:47:18.645Z</time></trkpt><trkpt lat="43.6562971" lon="11.3326506"><ele>304.0</ele><time>2026-04-19T08:47:20.646Z</time></trkpt><trkpt lat="43.656361" lon="11.3326601"><ele>303.0</ele><time>2026-04-19T08:47:21.648Z</time></trkpt><trkpt lat="43.6564718" lon="11.3327197"><ele>302.0</ele><time>2026-04-19T08:47:23.649Z</time></trkpt><trkpt lat="43.6565623" lon="11.3327791"><ele>301.0</ele><time>2026-04-19T08:47:25.649Z</time></trkpt><trkpt lat="43.6567708" lon="11.3329316"><ele>302.0</ele><time>2026-04-19T08:47:29.66Z</time></trkpt><trkpt lat="43.6568428" lon="11.3330877"><ele>303.0</ele><time>2026-04-19T08:47:31.652Z</time></trkpt><trkpt lat="43.6568747" lon="11.3331729"><ele>304.0</ele><time>2026-04-19T08:47:32.649Z</time></trkpt><trkpt lat="43.6569084" lon="11.3332568"><ele>305.0</ele><time>2026-04-19T08:47:33.638Z</time></trkpt><trkpt lat="43.6569702" lon="11.3333787"><ele>306.0</ele><time>2026-04-19T08:47:35.64Z</time></trkpt><trkpt lat="43.6570438" lon="11.3334507"><ele>306.0</ele><time>2026-04-19T08:47:37.651Z</time></trkpt><trkpt lat="43.6571415" lon="11.3334103"><ele>306.0</ele><time>2026-04-19T08:47:39.641Z</time></trkpt><trkpt lat="43.6572162" lon="11.3333953"><ele>306.0</ele><time>2026-04-19T08:47:41.651Z</time></trkpt><trkpt lat="43.6572783" lon="11.3333651"><ele>306.0</ele><time>2026-04-19T08:48:41.65Z</time></trkpt><trkpt lat="43.6574142" lon="11.3333264"><ele>306.0</ele><time>2026-04-19T08:48:46.642Z</time></trkpt><trkpt lat="43.6575208" lon="11.3333273"><ele>306.0</ele><time>2026-04-19T08:48:48.646Z</time></trkpt><trkpt lat="43.6576154" lon="11.3333585"><ele>306.0</ele><time>2026-04-19T08:48:50.646Z</time></trkpt><trkpt lat="43.6576926" lon="11.3334013"><ele>306.0</ele><time>2026-04-19T08:48:52.643Z</time></trkpt><trkpt lat="43.6577878" lon="11.3334415"><ele>306.0</ele><time>2026-04-19T08:48:54.648Z</time></trkpt><trkpt lat="43.6578804" lon="11.3335216"><ele>306.0</ele><time>2026-04-19T08:48:56.648Z</time></trkpt><trkpt lat="43.65795" lon="11.3336256"><ele>302.25</ele><time>2026-04-19T08:48:58.643Z</time></trkpt><trkpt lat="43.6580006" lon="11.3337717"><ele>298.5</ele><time>2026-04-19T08:49:00.632Z</time></trkpt><trkpt lat="43.6580517" lon="11.3339088"><ele>294.75</ele><time>2026-04-19T08:49:02.64Z</time></trkpt><trkpt lat="43.6581426" lon="11.3341103"><ele>291.0</ele><time>2026-04-19T08:49:05.627Z</time></trkpt><trkpt lat="43.6581629" lon="11.3342371"><ele>291.0</ele><time>2026-04-19T08:49:07.632Z</time></trkpt><trkpt lat="43.6581656" lon="11.3343714"><ele>291.0</ele><time>2026-04-19T08:49:09.636Z</time></trkpt><trkpt lat="43.6581804" lon="11.3345181"><ele>291.0</ele><time>2026-04-19T08:49:11.63Z</time></trkpt><trkpt lat="43.6582447" lon="11.3345602"><ele>291.0</ele><time>2026-04-19T08:49:13.626Z</time></trkpt><trkpt lat="43.6583092" lon="11.3345393"><ele>291.0</ele><time>2026-04-19T08:49:14.638Z</time></trkpt><trkpt lat="43.658378" lon="11.3345008"><ele>291.0</ele><time>2026-04-19T08:49:15.635Z</time></trkpt><trkpt lat="43.6584504" lon="11.3344667"><ele>291.0</ele><time>2026-04-19T08:49:16.635Z</time></trkpt><trkpt lat="43.6585321" lon="11.3344538"><ele>291.0</ele><time>2026-04-19T08:49:17.636Z</time></trkpt><trkpt lat="43.6586112" lon="11.3344256"><ele>291.0</ele><time>2026-04-19T08:49:18.638Z</time></trkpt><trkpt lat="43.6587017" lon="11.3344033"><ele>291.0</ele><time>2026-04-19T08:49:19.641Z</time></trkpt><trkpt lat="43.6587886" lon="11.334383"><ele>291.0</ele><time>2026-04-19T08:49:20.64Z</time></trkpt><trkpt lat="43.6588662" lon="11.3343806"><ele>291.0</ele><time>2026-04-19T08:49:21.635Z</time></trkpt><trkpt lat="43.659019" lon="11.3344397"><ele>291.40000000000003</ele><time>2026-04-19T08:49:23.639Z</time></trkpt><trkpt lat="43.6591237" lon="11.3345742"><ele>291.8</ele><time>2026-04-19T08:49:25.638Z</time></trkpt><trkpt lat="43.6591636" lon="11.3346767"><ele>292.20000000000005</ele><time>2026-04-19T08:49:26.638Z</time></trkpt><trkpt lat="43.6591905" lon="11.3347867"><ele>292.6</ele><time>2026-04-19T08:49:27.648Z</time></trkpt><trkpt lat="43.6592157" lon="11.3349099"><ele>293.0</ele><time>2026-04-19T08:49:28.646Z</time></trkpt><trkpt lat="43.6592323" lon="11.3350371"><ele>293.0</ele><time>2026-04-19T08:49:29.638Z</time></trkpt><trkpt lat="43.6592549" lon="11.3351804"><ele>293.0</ele><time>2026-04-19T08:49:30.651Z</time></trkpt><trkpt lat="43.659297" lon="11.3353236"><ele>293.0</ele><time>2026-04-19T08:49:31.642Z</time></trkpt><trkpt lat="43.6593581" lon="11.335445"><ele>293.0</ele><time>2026-04-19T08:49:32.64Z</time></trkpt><trkpt lat="43.6594221" lon="11.3355684"><ele>293.0</ele><time>2026-04-19T08:49:33.642Z</time></trkpt><trkpt lat="43.6594514" lon="11.3357134"><ele>291.4</ele><time>2026-04-19T08:49:34.642Z</time></trkpt><trkpt lat="43.6594672" lon="11.335863"><ele>289.8</ele><time>2026-04-19T08:49:35.645Z</time></trkpt><trkpt lat="43.6594724" lon="11.3360128"><ele>288.2</ele><time>2026-04-19T08:49:36.654Z</time></trkpt><trkpt lat="43.6594646" lon="11.3361497"><ele>286.6</ele><time>2026-04-19T08:49:37.642Z</time></trkpt><trkpt lat="43.6594384" lon="11.336272"><ele>285.0</ele><time>2026-04-19T08:49:38.64Z</time></trkpt><trkpt lat="43.6593813" lon="11.3363919"><ele>291.0</ele><time>2026-04-19T08:49:39.649Z</time></trkpt><trkpt lat="43.6593175" lon="11.3365026"><ele>297.0</ele><time>2026-04-19T08:49:40.64Z</time></trkpt><trkpt lat="43.6592506" lon="11.3366046"><ele>303.0</ele><time>2026-04-19T08:49:41.625Z</time></trkpt><trkpt lat="43.6591831" lon="11.336706"><ele>309.0</ele><time>2026-04-19T08:49:42.618Z</time></trkpt><trkpt lat="43.6591324" lon="11.3367996"><ele>315.0</ele><time>2026-04-19T08:49:43.613Z</time></trkpt><trkpt lat="43.6590945" lon="11.3368939"><ele>315.0</ele><time>2026-04-19T08:49:44.618Z</time></trkpt><trkpt lat="43.6590725" lon="11.3370876"><ele>315.0</ele><time>2026-04-19T08:49:46.625Z</time></trkpt><trkpt lat="43.659107" lon="11.3371636"><ele>315.0</ele><time>2026-04-19T08:49:47.613Z</time></trkpt><trkpt lat="43.6592388" lon="11.3372134"><ele>315.0</ele><time>2026-04-19T08:49:49.619Z</time></trkpt><trkpt lat="43.6593371" lon="11.3371727"><ele>315.0</ele><time>2026-04-19T08:49:50.614Z</time></trkpt><trkpt lat="43.6594435" lon="11.3371408"><ele>315.0</ele><time>2026-04-19T08:49:51.607Z</time></trkpt><trkpt lat="43.6595411" lon="11.3371501"><ele>315.0</ele><time>2026-04-19T08:49:52.611Z</time></trkpt><trkpt lat="43.6596124" lon="11.337231"><ele>315.0</ele><time>2026-04-19T08:49:53.617Z</time></trkpt><trkpt lat="43.6596661" lon="11.3373415"><ele>315.0</ele><time>2026-04-19T08:49:54.614Z</time></trkpt><trkpt lat="43.6597226" lon="11.3374538"><ele>315.0</ele><time>2026-04-19T08:49:55.618Z</time></trkpt><trkpt lat="43.6597795" lon="11.3375621"><ele>315.0</ele><time>2026-04-19T08:49:56.616Z</time></trkpt><trkpt lat="43.6598316" lon="11.3376659"><ele>315.0</ele><time>2026-04-19T08:49:57.62Z</time></trkpt><trkpt lat="43.6598906" lon="11.337747"><ele>315.0</ele><time>2026-04-19T08:49:58.624Z</time></trkpt><trkpt lat="43.6599587" lon="11.3377574"><ele>315.0</ele><time>2026-04-19T08:49:59.649Z</time></trkpt><trkpt lat="43.6600133" lon="11.3377042"><ele>315.0</ele><time>2026-04-19T08:50:00.629Z</time></trkpt><trkpt lat="43.6600655" lon="11.337587"><ele>315.0</ele><time>2026-04-19T08:50:01.64Z</time></trkpt><trkpt lat="43.6600908" lon="11.3374359"><ele>315.0</ele><time>2026-04-19T08:50:02.63Z</time></trkpt><trkpt lat="43.6601292" lon="11.3372897"><ele>315.0</ele><time>2026-04-19T08:50:03.63Z</time></trkpt><trkpt lat="43.6601764" lon="11.3371658"><ele>315.0</ele><time>2026-04-19T08:50:04.629Z</time></trkpt><trkpt lat="43.6602139" lon="11.3370639"><ele>315.0</ele><time>2026-04-19T08:50:05.633Z</time></trkpt><trkpt lat="43.6603194" lon="11.3369613"><ele>315.0</ele><time>2026-04-19T08:50:07.638Z</time></trkpt><trkpt lat="43.6604069" lon="11.336975"><ele>312.0</ele><time>2026-04-19T08:50:08.63Z</time></trkpt><trkpt lat="43.6605113" lon="11.3369992"><ele>309.0</ele><time>2026-04-19T08:50:09.63Z</time></trkpt><trkpt lat="43.6606173" lon="11.3370046"><ele>306.0</ele><time>2026-04-19T08:50:10.628Z</time></trkpt><trkpt lat="43.6607137" lon="11.3369925"><ele>303.0</ele><time>2026-04-19T08:50:11.625Z</time></trkpt><trkpt lat="43.660802" lon="11.3369703"><ele>300.0</ele><time>2026-04-19T08:50:12.629Z</time></trkpt><trkpt lat="43.6608921" lon="11.3369394"><ele>300.0</ele><time>2026-04-19T08:50:13.619Z</time></trkpt><trkpt lat="43.6609834" lon="11.3368968"><ele>300.0</ele><time>2026-04-19T08:50:14.632Z</time></trkpt><trkpt lat="43.6610645" lon="11.3368482"><ele>300.0</ele><time>2026-04-19T08:50:15.627Z</time></trkpt><trkpt lat="43.6611428" lon="11.3367901"><ele>300.0</ele><time>2026-04-19T08:50:16.626Z</time></trkpt><trkpt lat="43.6612213" lon="11.3367151"><ele>300.0</ele><time>2026-04-19T08:50:17.627Z</time></trkpt><trkpt lat="43.6613008" lon="11.3366421"><ele>299.8333333333333</ele><time>2026-04-19T08:50:18.63Z</time></trkpt><trkpt lat="43.6613845" lon="11.3365838"><ele>299.6666666666667</ele><time>2026-04-19T08:50:19.625Z</time></trkpt><trkpt lat="43.6614662" lon="11.3365458"><ele>299.5</ele><time>2026-04-19T08:50:20.637Z</time></trkpt><trkpt lat="43.6615453" lon="11.3365639"><ele>299.33333333333337</ele><time>2026-04-19T08:50:21.632Z</time></trkpt><trkpt lat="43.6616255" lon="11.3366235"><ele>299.1666666666667</ele><time>2026-04-19T08:50:22.628Z</time></trkpt><trkpt lat="43.6616934" lon="11.3366993"><ele>299.0</ele><time>2026-04-19T08:50:23.63Z</time></trkpt><trkpt lat="43.6617407" lon="11.3367905"><ele>299.0</ele><time>2026-04-19T08:50:24.645Z</time></trkpt><trkpt lat="43.6617546" lon="11.336905"><ele>299.0</ele><time>2026-04-19T08:50:25.634Z</time></trkpt><trkpt lat="43.6617605" lon="11.3370356"><ele>299.0</ele><time>2026-04-19T08:50:26.624Z</time></trkpt><trkpt lat="43.6617533" lon="11.3373559"><ele>299.0</ele><time>2026-04-19T08:50:28.637Z</time></trkpt><trkpt lat="43.6617405" lon="11.3375258"><ele>301.25</ele><time>2026-04-19T08:50:29.719Z</time></trkpt><trkpt lat="43.6617261" lon="11.3377003"><ele>303.5</ele><time>2026-04-19T08:50:30.718Z</time></trkpt><trkpt lat="43.6617117" lon="11.3378858"><ele>305.75</ele><time>2026-04-19T08:50:31.712Z</time></trkpt><trkpt lat="43.6617027" lon="11.3380341"><ele>308.0</ele><time>2026-04-19T08:50:32.712Z</time></trkpt><trkpt lat="43.6616978" lon="11.338161"><ele>308.83333333333337</ele><time>2026-04-19T08:50:33.709Z</time></trkpt><trkpt lat="43.6617062" lon="11.3382764"><ele>309.6666666666667</ele><time>2026-04-19T08:50:34.708Z</time></trkpt><trkpt lat="43.6617399" lon="11.3383734"><ele>310.5</ele><time>2026-04-19T08:50:35.705Z</time></trkpt><trkpt lat="43.6617881" lon="11.3384686"><ele>311.3333333333333</ele><time>2026-04-19T08:50:36.692Z</time></trkpt><trkpt lat="43.6618356" lon="11.3385594"><ele>312.16666666666663</ele><time>2026-04-19T08:50:37.701Z</time></trkpt><trkpt lat="43.661886" lon="11.3386609"><ele>313.0</ele><time>2026-04-19T08:50:38.7Z</time></trkpt><trkpt lat="43.6619382" lon="11.3387398"><ele>310.0</ele><time>2026-04-19T08:50:39.695Z</time></trkpt><trkpt lat="43.662003" lon="11.3387777"><ele>307.0</ele><time>2026-04-19T08:50:40.715Z</time></trkpt><trkpt lat="43.6622437" lon="11.3389458"><ele>304.0</ele><time>2026-04-19T08:50:43.613Z</time></trkpt><trkpt lat="43.6623297" lon="11.3390656"><ele>304.0</ele><time>2026-04-19T08:50:44.608Z</time></trkpt><trkpt lat="43.6623888" lon="11.3392142"><ele>304.0</ele><time>2026-04-19T08:50:45.621Z</time></trkpt><trkpt lat="43.6624026" lon="11.3393813"><ele>304.0</ele><time>2026-04-19T08:50:46.63Z</time></trkpt><trkpt lat="43.6623748" lon="11.3395494"><ele>304.0</ele><time>2026-04-19T08:50:47.62Z</time></trkpt><trkpt lat="43.6622723" lon="11.3399138"><ele>304.25</ele><time>2026-04-19T08:50:49.632Z</time></trkpt><trkpt lat="43.6622133" lon="11.3400982"><ele>304.5</ele><time>2026-04-19T08:50:50.634Z</time></trkpt><trkpt lat="43.6621645" lon="11.3402621"><ele>304.75</ele><time>2026-04-19T08:50:51.633Z</time></trkpt><trkpt lat="43.6621234" lon="11.3404111"><ele>305.0</ele><time>2026-04-19T08:50:52.631Z</time></trkpt><trkpt lat="43.6620924" lon="11.3405552"><ele>306.0</ele><time>2026-04-19T08:50:53.635Z</time></trkpt><trkpt lat="43.6620786" lon="11.3406887"><ele>307.0</ele><time>2026-04-19T08:50:54.632Z</time></trkpt><trkpt lat="43.6621059" lon="11.3408122"><ele>308.0</ele><time>2026-04-19T08:50:55.627Z</time></trkpt><trkpt lat="43.6621507" lon="11.3409425"><ele>309.0</ele><time>2026-04-19T08:50:56.634Z</time></trkpt><trkpt lat="43.6621922" lon="11.3410794"><ele>310.0</ele><time>2026-04-19T08:50:57.633Z</time></trkpt><trkpt lat="43.6622346" lon="11.3412113"><ele>310.0</ele><time>2026-04-19T08:50:58.63Z</time></trkpt><trkpt lat="43.6622634" lon="11.3413465"><ele>310.0</ele><time>2026-04-19T08:50:59.629Z</time></trkpt><trkpt lat="43.6622791" lon="11.3414662"><ele>310.0</ele><time>2026-04-19T08:51:00.631Z</time></trkpt><trkpt lat="43.6622869" lon="11.3415612"><ele>310.0</ele><time>2026-04-19T08:51:01.626Z</time></trkpt><trkpt lat="43.6622596" lon="11.3417337"><ele>310.0</ele><time>2026-04-19T08:51:03.624Z</time></trkpt><trkpt lat="43.6622204" lon="11.3418428"><ele>311.4</ele><time>2026-04-19T08:51:04.623Z</time></trkpt><trkpt lat="43.6621873" lon="11.3419491"><ele>312.8</ele><time>2026-04-19T08:51:05.621Z</time></trkpt><trkpt lat="43.6621554" lon="11.3420478"><ele>314.2</ele><time>2026-04-19T08:51:06.627Z</time></trkpt><trkpt lat="43.6621171" lon="11.3421276"><ele>315.6</ele><time>2026-04-19T08:51:07.62Z</time></trkpt><trkpt lat="43.6620629" lon="11.3422093"><ele>317.0</ele><time>2026-04-19T08:51:08.62Z</time></trkpt><trkpt lat="43.6619394" lon="11.3424079"><ele>320.6</ele><time>2026-04-19T08:51:10.617Z</time></trkpt><trkpt lat="43.66187" lon="11.3425018"><ele>324.2</ele><time>2026-04-19T08:51:11.619Z</time></trkpt><trkpt lat="43.6618039" lon="11.3426078"><ele>327.8</ele><time>2026-04-19T08:51:12.62Z</time></trkpt><trkpt lat="43.6617337" lon="11.342711"><ele>331.4</ele><time>2026-04-19T08:51:13.615Z</time></trkpt><trkpt lat="43.6616546" lon="11.3428013"><ele>335.0</ele><time>2026-04-19T08:51:14.616Z</time></trkpt><trkpt lat="43.6615753" lon="11.3428895"><ele>335.0</ele><time>2026-04-19T08:51:15.62Z</time></trkpt><trkpt lat="43.6614947" lon="11.3429648"><ele>335.0</ele><time>2026-04-19T08:51:16.616Z</time></trkpt><trkpt lat="43.6614037" lon="11.3429944"><ele>335.0</ele><time>2026-04-19T08:51:17.612Z</time></trkpt><trkpt lat="43.6613084" lon="11.3430063"><ele>335.0</ele><time>2026-04-19T08:51:18.624Z</time></trkpt><trkpt lat="43.661232" lon="11.3429754"><ele>335.0</ele><time>2026-04-19T08:51:19.615Z</time></trkpt><trkpt lat="43.6611815" lon="11.3428951"><ele>335.0</ele><time>2026-04-19T08:51:20.612Z</time></trkpt><trkpt lat="43.6611488" lon="11.3427863"><ele>335.0</ele><time>2026-04-19T08:51:21.619Z</time></trkpt><trkpt lat="43.661143" lon="11.3426328"><ele>335.0</ele><time>2026-04-19T08:51:22.618Z</time></trkpt><trkpt lat="43.6611366" lon="11.3424692"><ele>335.0</ele><time>2026-04-19T08:51:23.622Z</time></trkpt><trkpt lat="43.6611131" lon="11.3423083"><ele>335.0</ele><time>2026-04-19T08:51:24.614Z</time></trkpt><trkpt lat="43.6610732" lon="11.3421638"><ele>338.8</ele><time>2026-04-19T08:51:25.619Z</time></trkpt><trkpt lat="43.6610263" lon="11.3420382"><ele>342.6</ele><time>2026-04-19T08:51:26.619Z</time></trkpt><trkpt lat="43.6609769" lon="11.3419295"><ele>346.4</ele><time>2026-04-19T08:51:27.621Z</time></trkpt><trkpt lat="43.6609221" lon="11.341828"><ele>350.2</ele><time>2026-04-19T08:51:28.613Z</time></trkpt><trkpt lat="43.6608495" lon="11.3417461"><ele>354.0</ele><time>2026-04-19T08:51:29.624Z</time></trkpt><trkpt lat="43.6606587" lon="11.3416446"><ele>354.0</ele><time>2026-04-19T08:51:31.626Z</time></trkpt><trkpt lat="43.6605537" lon="11.3416289"><ele>354.0</ele><time>2026-04-19T08:51:32.619Z</time></trkpt><trkpt lat="43.6604441" lon="11.3416242"><ele>354.0</ele><time>2026-04-19T08:51:33.624Z</time></trkpt><trkpt lat="43.660358" lon="11.3416168"><ele>354.0</ele><time>2026-04-19T08:51:34.62Z</time></trkpt><trkpt lat="43.6602735" lon="11.3416072"><ele>354.0</ele><time>2026-04-19T08:51:35.615Z</time></trkpt><trkpt lat="43.6601899" lon="11.3415855"><ele>357.6</ele><time>2026-04-19T08:51:36.619Z</time></trkpt><trkpt lat="43.6601229" lon="11.341526"><ele>361.2</ele><time>2026-04-19T08:51:37.626Z</time></trkpt><trkpt lat="43.6600689" lon="11.3414254"><ele>364.8</ele><time>2026-04-19T08:51:38.617Z</time></trkpt><trkpt lat="43.6600282" lon="11.3413064"><ele>368.40000000000003</ele><time>2026-04-19T08:51:39.622Z</time></trkpt><trkpt lat="43.6600091" lon="11.3411646"><ele>372.0</ele><time>2026-04-19T08:51:40.625Z</time></trkpt><trkpt lat="43.6599913" lon="11.341019"><ele>372.0</ele><time>2026-04-19T08:51:41.624Z</time></trkpt><trkpt lat="43.6599703" lon="11.3408845"><ele>372.0</ele><time>2026-04-19T08:51:42.624Z</time></trkpt><trkpt lat="43.6599376" lon="11.3407652"><ele>372.0</ele><time>2026-04-19T08:51:43.62Z</time></trkpt><trkpt lat="43.6599046" lon="11.3406595"><ele>372.0</ele><time>2026-04-19T08:51:44.622Z</time></trkpt><trkpt lat="43.6598673" lon="11.3405735"><ele>372.0</ele><time>2026-04-19T08:51:45.623Z</time></trkpt><trkpt lat="43.6598098" lon="11.3404963"><ele>372.0</ele><time>2026-04-19T08:51:46.624Z</time></trkpt><trkpt lat="43.6597506" lon="11.3404551"><ele>372.0</ele><time>2026-04-19T08:51:47.626Z</time></trkpt><trkpt lat="43.6596889" lon="11.3404787"><ele>372.0</ele><time>2026-04-19T08:51:48.634Z</time></trkpt><trkpt lat="43.6596342" lon="11.3405568"><ele>372.0</ele><time>2026-04-19T08:51:49.631Z</time></trkpt><trkpt lat="43.6595786" lon="11.3406466"><ele>372.0</ele><time>2026-04-19T08:51:50.629Z</time></trkpt><trkpt lat="43.6594456" lon="11.3408098"><ele>372.0</ele><time>2026-04-19T08:51:52.624Z</time></trkpt><trkpt lat="43.6593709" lon="11.3408486"><ele>372.75</ele><time>2026-04-19T08:51:53.621Z</time></trkpt><trkpt lat="43.6592471" lon="11.3408493"><ele>373.5</ele><time>2026-04-19T08:51:55.624Z</time></trkpt><trkpt lat="43.659152" lon="11.3407595"><ele>374.25</ele><time>2026-04-19T08:51:57.625Z</time></trkpt><trkpt lat="43.6591715" lon="11.3405796"><ele>375.0</ele><time>2026-04-19T08:51:59.625Z</time></trkpt><trkpt lat="43.6591888" lon="11.3404725"><ele>375.0</ele><time>2026-04-19T08:52:00.61Z</time></trkpt><trkpt lat="43.6591927" lon="11.3403559"><ele>375.0</ele><time>2026-04-19T08:52:01.614Z</time></trkpt><trkpt lat="43.6591656" lon="11.3402511"><ele>375.0</ele><time>2026-04-19T08:52:02.617Z</time></trkpt><trkpt lat="43.6590905" lon="11.3401568"><ele>375.0</ele><time>2026-04-19T08:52:03.609Z</time></trkpt><trkpt lat="43.6590115" lon="11.3400639"><ele>375.0</ele><time>2026-04-19T08:52:04.621Z</time></trkpt><trkpt lat="43.6589416" lon="11.3399732"><ele>375.0</ele><time>2026-04-19T08:52:05.62Z</time></trkpt><trkpt lat="43.6588765" lon="11.3398842"><ele>375.0</ele><time>2026-04-19T08:52:06.619Z</time></trkpt><trkpt lat="43.6588155" lon="11.3398317"><ele>375.0</ele><time>2026-04-19T08:52:07.618Z</time></trkpt><trkpt lat="43.658736" lon="11.3397736"><ele>375.0</ele><time>2026-04-19T08:52:08.618Z</time></trkpt><trkpt lat="43.6586521" lon="11.3397175"><ele>375.0</ele><time>2026-04-19T08:52:09.61Z</time></trkpt><trkpt lat="43.6585679" lon="11.3396649"><ele>375.0</ele><time>2026-04-19T08:52:10.617Z</time></trkpt><trkpt lat="43.6584791" lon="11.3396354"><ele>375.0</ele><time>2026-04-19T08:52:11.616Z</time></trkpt><trkpt lat="43.6583235" lon="11.3395903"><ele>375.0</ele><time>2026-04-19T08:52:13.618Z</time></trkpt><trkpt lat="43.6582318" lon="11.3395677"><ele>375.0</ele><time>2026-04-19T08:52:14.624Z</time></trkpt><trkpt lat="43.6581361" lon="11.3395341"><ele>375.0</ele><time>2026-04-19T08:52:15.625Z</time></trkpt><trkpt lat="43.6580407" lon="11.3395224"><ele>375.0</ele><time>2026-04-19T08:52:16.62Z</time></trkpt><trkpt lat="43.6579512" lon="11.3395238"><ele>375.0</ele><time>2026-04-19T08:52:17.617Z</time></trkpt><trkpt lat="43.6578723" lon="11.3395373"><ele>375.0</ele><time>2026-04-19T08:52:18.62Z</time></trkpt><trkpt lat="43.657799" lon="11.3395642"><ele>375.0</ele><time>2026-04-19T08:52:19.624Z</time></trkpt><trkpt lat="43.6577284" lon="11.3396146"><ele>375.0</ele><time>2026-04-19T08:52:20.624Z</time></trkpt><trkpt lat="43.6576674" lon="11.3396774"><ele>375.0</ele><time>2026-04-19T08:52:21.622Z</time></trkpt><trkpt lat="43.6575899" lon="11.3397764"><ele>375.0</ele><time>2026-04-19T08:52:23.621Z</time></trkpt><trkpt lat="43.657592" lon="11.3399002"><ele>378.5</ele><time>2026-04-19T08:52:25.624Z</time></trkpt><trkpt lat="43.6576956" lon="11.3399285"><ele>382.0</ele><time>2026-04-19T08:52:27.618Z</time></trkpt><trkpt lat="43.6577721" lon="11.3399286"><ele>385.5</ele><time>2026-04-19T08:52:28.618Z</time></trkpt><trkpt lat="43.6578501" lon="11.3399495"><ele>389.0</ele><time>2026-04-19T08:52:29.622Z</time></trkpt><trkpt lat="43.6579204" lon="11.3399787"><ele>392.5</ele><time>2026-04-19T08:52:30.613Z</time></trkpt><trkpt lat="43.6579818" lon="11.3400257"><ele>396.0</ele><time>2026-04-19T08:52:31.614Z</time></trkpt><trkpt lat="43.6580504" lon="11.3400689"><ele>396.6</ele><time>2026-04-19T08:52:32.619Z</time></trkpt><trkpt lat="43.6581801" lon="11.3401823"><ele>397.20000000000005</ele><time>2026-04-19T08:52:34.614Z</time></trkpt><trkpt lat="43.6582471" lon="11.340248"><ele>397.79999999999995</ele><time>2026-04-19T08:52:35.62Z</time></trkpt><trkpt lat="43.6583069" lon="11.3403001"><ele>398.4</ele><time>2026-04-19T08:52:36.611Z</time></trkpt><trkpt lat="43.6583612" lon="11.3403513"><ele>399.0</ele><time>2026-04-19T08:52:37.611Z</time></trkpt><trkpt lat="43.6584471" lon="11.3404605"><ele>399.0</ele><time>2026-04-19T08:52:39.615Z</time></trkpt><trkpt lat="43.658469" lon="11.3405507"><ele>399.0</ele><time>2026-04-19T08:52:41.629Z</time></trkpt><trkpt lat="43.6583666" lon="11.3405134"><ele>399.0</ele><time>2026-04-19T08:52:43.625Z</time></trkpt><trkpt lat="43.6583095" lon="11.3404602"><ele>399.0</ele><time>2026-04-19T08:52:44.617Z</time></trkpt><trkpt lat="43.6582355" lon="11.3404151"><ele>399.0</ele><time>2026-04-19T08:52:45.626Z</time></trkpt><trkpt lat="43.6581539" lon="11.3403679"><ele>399.0</ele><time>2026-04-19T08:52:46.619Z</time></trkpt><trkpt lat="43.658084" lon="11.3403411"><ele>399.0</ele><time>2026-04-19T08:52:47.624Z</time></trkpt><trkpt lat="43.6580191" lon="11.3403424"><ele>399.0</ele><time>2026-04-19T08:52:48.621Z</time></trkpt><trkpt lat="43.6579076" lon="11.3403624"><ele>399.0</ele><time>2026-04-19T08:52:50.62Z</time></trkpt><trkpt lat="43.6578518" lon="11.3404064"><ele>399.0</ele><time>2026-04-19T08:52:51.622Z</time></trkpt><trkpt lat="43.6577874" lon="11.3405556"><ele>399.0</ele><time>2026-04-19T08:52:53.623Z</time></trkpt><trkpt lat="43.6577235" lon="11.340755"><ele>402.0</ele><time>2026-04-19T08:52:55.625Z</time></trkpt><trkpt lat="43.6576916" lon="11.3408395"><ele>405.0</ele><time>2026-04-19T08:52:56.621Z</time></trkpt><trkpt lat="43.6576685" lon="11.3409263"><ele>408.0</ele><time>2026-04-19T08:52:57.624Z</time></trkpt><trkpt lat="43.6576738" lon="11.3410801"><ele>411.0</ele><time>2026-04-19T08:52:59.629Z</time></trkpt><trkpt lat="43.6577768" lon="11.3411246"><ele>414.0</ele><time>2026-04-19T08:53:01.621Z</time></trkpt><trkpt lat="43.6578622" lon="11.3411645"><ele>417.0</ele><time>2026-04-19T08:53:03.621Z</time></trkpt><trkpt lat="43.6578529" lon="11.3412612"><ele>420.6</ele><time>2026-04-19T08:53:17.626Z</time></trkpt><trkpt lat="43.6577221" lon="11.3414141"><ele>424.20000000000005</ele><time>2026-04-19T08:53:21.617Z</time></trkpt><trkpt lat="43.657725" lon="11.3415457"><ele>427.8</ele><time>2026-04-19T08:53:23.624Z</time></trkpt><trkpt lat="43.6577319" lon="11.3416646"><ele>431.4</ele><time>2026-04-19T08:53:26.622Z</time></trkpt><trkpt lat="43.6576843" lon="11.3417766"><ele>435.0</ele><time>2026-04-19T08:53:28.63Z</time></trkpt><trkpt lat="43.6576641" lon="11.341885"><ele>435.0</ele><time>2026-04-19T08:53:30.627Z</time></trkpt><trkpt lat="43.6576497" lon="11.3419831"><ele>435.0</ele><time>2026-04-19T08:53:32.625Z</time></trkpt><trkpt lat="43.6575805" lon="11.3420616"><ele>435.0</ele><time>2026-04-19T08:53:34.628Z</time></trkpt><trkpt lat="43.6575089" lon="11.3421243"><ele>435.0</ele><time>2026-04-19T08:53:36.622Z</time></trkpt><trkpt lat="43.6574216" lon="11.3422082"><ele>435.0</ele><time>2026-04-19T08:53:38.626Z</time></trkpt><trkpt lat="43.6572677" lon="11.3424141"><ele>439.1666666666667</ele><time>2026-04-19T08:53:42.625Z</time></trkpt><trkpt lat="43.6572036" lon="11.3424982"><ele>443.33333333333337</ele><time>2026-04-19T08:53:44.617Z</time></trkpt><trkpt lat="43.657284" lon="11.3424618"><ele>447.5</ele><time>2026-04-19T08:53:49.625Z</time></trkpt><trkpt lat="43.657346" lon="11.3424253"><ele>451.6666666666667</ele><time>2026-04-19T08:53:52.624Z</time></trkpt><trkpt lat="43.6574261" lon="11.3424096"><ele>455.83333333333337</ele><time>2026-04-19T08:53:54.625Z</time></trkpt><trkpt lat="43.6575259" lon="11.3424469"><ele>460.0</ele><time>2026-04-19T08:53:56.627Z</time></trkpt><trkpt lat="43.6575927" lon="11.3425142"><ele>460.0</ele><time>2026-04-19T08:53:58.623Z</time></trkpt><trkpt lat="43.6576536" lon="11.3426092"><ele>460.0</ele><time>2026-04-19T08:54:00.624Z</time></trkpt><trkpt lat="43.6577725" lon="11.3428171"><ele>460.0</ele><time>2026-04-19T08:54:04.625Z</time></trkpt><trkpt lat="43.6577848" lon="11.3429295"><ele>460.0</ele><time>2026-04-19T08:54:06.633Z</time></trkpt><trkpt lat="43.6577648" lon="11.3430552"><ele>462.6666666666667</ele><time>2026-04-19T08:54:08.625Z</time></trkpt><trkpt lat="43.6577463" lon="11.3431387"><ele>465.33333333333337</ele><time>2026-04-19T08:54:10.631Z</time></trkpt><trkpt lat="43.6577312" lon="11.3432374"><ele>468.0</ele><time>2026-04-19T08:54:12.632Z</time></trkpt><trkpt lat="43.6577214" lon="11.3433349"><ele>470.66666666666663</ele><time>2026-04-19T08:54:14.631Z</time></trkpt><trkpt lat="43.6576306" lon="11.3433843"><ele>473.3333333333333</ele><time>2026-04-19T08:54:17.628Z</time></trkpt><trkpt lat="43.6575275" lon="11.343371"><ele>476.0</ele><time>2026-04-19T08:54:19.627Z</time></trkpt><trkpt lat="43.6574455" lon="11.3433561"><ele>476.0</ele><time>2026-04-19T08:54:21.629Z</time></trkpt><trkpt lat="43.6573128" lon="11.3434095"><ele>476.0</ele><time>2026-04-19T08:54:27.623Z</time></trkpt><trkpt lat="43.6572878" lon="11.3435425"><ele>476.0</ele><time>2026-04-19T08:54:29.632Z</time></trkpt><trkpt lat="43.657249" lon="11.343667"><ele>476.0</ele><time>2026-04-19T08:54:31.622Z</time></trkpt><trkpt lat="43.6572565" lon="11.3437561"><ele>476.0</ele><time>2026-04-19T08:54:33.626Z</time></trkpt><trkpt lat="43.6572591" lon="11.343846"><ele>476.0</ele><time>2026-04-19T08:54:35.623Z</time></trkpt><trkpt lat="43.6571971" lon="11.3438875"><ele>476.0</ele><time>2026-04-19T08:54:48.628Z</time></trkpt><trkpt lat="43.6570391" lon="11.343873"><ele>476.0</ele><time>2026-04-19T08:54:52.621Z</time></trkpt><trkpt lat="43.6569898" lon="11.3439341"><ele>476.0</ele><time>2026-04-19T08:54:53.626Z</time></trkpt><trkpt lat="43.6569375" lon="11.3440196"><ele>476.0</ele><time>2026-04-19T08:54:54.634Z</time></trkpt><trkpt lat="43.6568853" lon="11.3441012"><ele>479.49999999999994</ele><time>2026-04-19T08:54:55.625Z</time></trkpt><trkpt lat="43.6568361" lon="11.3441923"><ele>483.0</ele><time>2026-04-19T08:54:56.627Z</time></trkpt><trkpt lat="43.6568054" lon="11.3443029"><ele>486.5</ele><time>2026-04-19T08:54:57.63Z</time></trkpt><trkpt lat="43.6568003" lon="11.3444219"><ele>490.0</ele><time>2026-04-19T08:54:58.623Z</time></trkpt><trkpt lat="43.6568086" lon="11.3445302"><ele>493.49999999999994</ele><time>2026-04-19T08:54:59.626Z</time></trkpt><trkpt lat="43.6568262" lon="11.344628"><ele>497.0</ele><time>2026-04-19T08:55:00.622Z</time></trkpt><trkpt lat="43.6568565" lon="11.3447075"><ele>496.8</ele><time>2026-04-19T08:55:01.628Z</time></trkpt><trkpt lat="43.656948" lon="11.3448189"><ele>496.6</ele><time>2026-04-19T08:55:03.627Z</time></trkpt><trkpt lat="43.6570109" lon="11.3449209"><ele>496.40000000000003</ele><time>2026-04-19T08:55:05.619Z</time></trkpt><trkpt lat="43.6569826" lon="11.345014"><ele>496.20000000000005</ele><time>2026-04-19T08:55:07.628Z</time></trkpt><trkpt lat="43.6568904" lon="11.3450199"><ele>496.0</ele><time>2026-04-19T08:55:09.636Z</time></trkpt><trkpt lat="43.6567829" lon="11.3451821"><ele>498.33333333333337</ele><time>2026-04-19T08:55:13.633Z</time></trkpt><trkpt lat="43.6567973" lon="11.3452941"><ele>500.6666666666667</ele><time>2026-04-19T08:55:14.635Z</time></trkpt><trkpt lat="43.6567995" lon="11.3454113"><ele>503.0</ele><time>2026-04-19T08:55:15.63Z</time></trkpt><trkpt lat="43.6567909" lon="11.3455272"><ele>505.33333333333337</ele><time>2026-04-19T08:55:16.63Z</time></trkpt><trkpt lat="43.6567743" lon="11.3456222"><ele>507.6666666666667</ele><time>2026-04-19T08:55:17.621Z</time></trkpt><trkpt lat="43.6567111" lon="11.345754"><ele>510.0</ele><time>2026-04-19T08:55:19.632Z</time></trkpt><trkpt lat="43.6566522" lon="11.3458291"><ele>513.25</ele><time>2026-04-19T08:55:21.622Z</time></trkpt><trkpt lat="43.6565733" lon="11.345944"><ele>516.5</ele><time>2026-04-19T08:56:36.645Z</time></trkpt><trkpt lat="43.6564402" lon="11.3461344"><ele>519.75</ele><time>2026-04-19T08:56:38.651Z</time></trkpt><trkpt lat="43.6563615" lon="11.3462467"><ele>523.0</ele><time>2026-04-19T08:56:39.635Z</time></trkpt><trkpt lat="43.6563004" lon="11.3463934"><ele>523.4</ele><time>2026-04-19T08:56:40.653Z</time></trkpt><trkpt lat="43.6562329" lon="11.3465266"><ele>523.8</ele><time>2026-04-19T08:56:41.644Z</time></trkpt><trkpt lat="43.6561588" lon="11.3466381"><ele>524.2</ele><time>2026-04-19T08:56:42.639Z</time></trkpt><trkpt lat="43.6560876" lon="11.3467367"><ele>524.6</ele><time>2026-04-19T08:56:43.648Z</time></trkpt><trkpt lat="43.6560264" lon="11.3468458"><ele>525.0</ele><time>2026-04-19T08:56:44.64Z</time></trkpt><trkpt lat="43.655976" lon="11.3469786"><ele>525.2</ele><time>2026-04-19T08:56:45.65Z</time></trkpt><trkpt lat="43.6559253" lon="11.347124"><ele>525.4</ele><time>2026-04-19T08:56:46.654Z</time></trkpt><trkpt lat="43.6558867" lon="11.3472654"><ele>525.6</ele><time>2026-04-19T08:56:47.653Z</time></trkpt><trkpt lat="43.6558474" lon="11.3473928"><ele>525.8</ele><time>2026-04-19T08:56:48.654Z</time></trkpt><trkpt lat="43.6557961" lon="11.3475172"><ele>526.0</ele><time>2026-04-19T08:56:49.646Z</time></trkpt><trkpt lat="43.6557373" lon="11.3476516"><ele>527.25</ele><time>2026-04-19T08:56:50.649Z</time></trkpt><trkpt lat="43.6556838" lon="11.3477899"><ele>528.5</ele><time>2026-04-19T08:56:51.647Z</time></trkpt><trkpt lat="43.6556464" lon="11.3478936"><ele>529.75</ele><time>2026-04-19T08:56:52.646Z</time></trkpt><trkpt lat="43.6556823" lon="11.3480561"><ele>531.0</ele><time>2026-04-19T08:57:38.664Z</time></trkpt><trkpt lat="43.6557072" lon="11.3482577"><ele>531.8333333333334</ele><time>2026-04-19T08:57:40.666Z</time></trkpt><trkpt lat="43.6557113" lon="11.3483687"><ele>532.6666666666666</ele><time>2026-04-19T08:57:41.666Z</time></trkpt><trkpt lat="43.6557066" lon="11.3484963"><ele>533.5</ele><time>2026-04-19T08:57:42.667Z</time></trkpt><trkpt lat="43.6556968" lon="11.3485931"><ele>534.3333333333333</ele><time>2026-04-19T08:57:43.664Z</time></trkpt><trkpt lat="43.6556743" lon="11.3486821"><ele>535.1666666666666</ele><time>2026-04-19T08:57:44.664Z</time></trkpt><trkpt lat="43.65565" lon="11.3487841"><ele>536.0</ele><time>2026-04-19T08:57:45.675Z</time></trkpt><trkpt lat="43.6556252" lon="11.3488918"><ele>536.0</ele><time>2026-04-19T08:57:46.664Z</time></trkpt><trkpt lat="43.6555813" lon="11.3489973"><ele>536.0</ele><time>2026-04-19T08:57:47.668Z</time></trkpt><trkpt lat="43.6555259" lon="11.3491182"><ele>536.0</ele><time>2026-04-19T08:57:48.665Z</time></trkpt><trkpt lat="43.6554554" lon="11.3492473"><ele>536.0</ele><time>2026-04-19T08:57:49.657Z</time></trkpt><trkpt lat="43.655356" lon="11.3493831"><ele>536.0</ele><time>2026-04-19T08:57:50.673Z</time></trkpt><trkpt lat="43.6552757" lon="11.3494971"><ele>539.8</ele><time>2026-04-19T08:57:51.661Z</time></trkpt><trkpt lat="43.6552141" lon="11.3496152"><ele>543.6</ele><time>2026-04-19T08:57:52.649Z</time></trkpt><trkpt lat="43.6551713" lon="11.3497262"><ele>547.4</ele><time>2026-04-19T08:57:53.661Z</time></trkpt><trkpt lat="43.6551387" lon="11.3498242"><ele>551.2</ele><time>2026-04-19T08:57:54.659Z</time></trkpt><trkpt lat="43.6551253" lon="11.3499201"><ele>555.0</ele><time>2026-04-19T08:57:55.65Z</time></trkpt><trkpt lat="43.6551441" lon="11.3500868"><ele>553.4</ele><time>2026-04-19T08:57:57.66Z</time></trkpt><trkpt lat="43.6552082" lon="11.3501757"><ele>551.8</ele><time>2026-04-19T08:57:58.658Z</time></trkpt><trkpt lat="43.6552813" lon="11.3502483"><ele>550.2</ele><time>2026-04-19T08:57:59.652Z</time></trkpt><trkpt lat="43.655396" lon="11.3504324"><ele>548.6</ele><time>2026-04-19T08:58:01.651Z</time></trkpt><trkpt lat="43.6554307" lon="11.3505255"><ele>547.0</ele><time>2026-04-19T08:58:02.654Z</time></trkpt><trkpt lat="43.655461" lon="11.3506506"><ele>547.0</ele><time>2026-04-19T08:58:04.659Z</time></trkpt><trkpt lat="43.6554044" lon="11.3508075"><ele>547.0</ele><time>2026-04-19T08:58:06.655Z</time></trkpt><trkpt lat="43.6553877" lon="11.350927"><ele>547.0</ele><time>2026-04-19T08:58:07.657Z</time></trkpt><trkpt lat="43.6553854" lon="11.3510598"><ele>547.0</ele><time>2026-04-19T08:58:08.663Z</time></trkpt><trkpt lat="43.6553993" lon="11.3511994"><ele>547.0</ele><time>2026-04-19T08:58:09.659Z</time></trkpt><trkpt lat="43.6554244" lon="11.3513353"><ele>548.8000000000001</ele><time>2026-04-19T08:58:10.673Z</time></trkpt><trkpt lat="43.6554519" lon="11.351478"><ele>550.6</ele><time>2026-04-19T08:58:11.663Z</time></trkpt><trkpt lat="43.6554716" lon="11.3516222"><ele>552.4000000000001</ele><time>2026-04-19T08:58:12.654Z</time></trkpt><trkpt lat="43.6554932" lon="11.3517537"><ele>554.2</ele><time>2026-04-19T08:58:13.659Z</time></trkpt><trkpt lat="43.6555145" lon="11.3518745"><ele>556.0</ele><time>2026-04-19T08:58:14.667Z</time></trkpt><trkpt lat="43.6555347" lon="11.3519975"><ele>556.0</ele><time>2026-04-19T08:58:15.665Z</time></trkpt><trkpt lat="43.6555577" lon="11.3521143"><ele>556.0</ele><time>2026-04-19T08:58:16.665Z</time></trkpt><trkpt lat="43.6555824" lon="11.3522349"><ele>556.0</ele><time>2026-04-19T08:58:17.663Z</time></trkpt><trkpt lat="43.6556119" lon="11.3523453"><ele>556.0</ele><time>2026-04-19T08:58:18.665Z</time></trkpt><trkpt lat="43.6556292" lon="11.3524604"><ele>556.0</ele><time>2026-04-19T08:58:19.662Z</time></trkpt><trkpt lat="43.6556453" lon="11.3525829"><ele>556.0</ele><time>2026-04-19T08:58:20.665Z</time></trkpt><trkpt lat="43.6556622" lon="11.3528056"><ele>558.8333333333334</ele><time>2026-04-19T08:58:22.679Z</time></trkpt><trkpt lat="43.655667" lon="11.3529178"><ele>561.6666666666667</ele><time>2026-04-19T08:58:23.67Z</time></trkpt><trkpt lat="43.6556729" lon="11.3530246"><ele>564.5</ele><time>2026-04-19T08:58:24.672Z</time></trkpt><trkpt lat="43.655696" lon="11.3531222"><ele>567.3333333333334</ele><time>2026-04-19T08:58:25.664Z</time></trkpt><trkpt lat="43.6557162" lon="11.3532146"><ele>570.1666666666666</ele><time>2026-04-19T08:58:26.659Z</time></trkpt><trkpt lat="43.6556813" lon="11.3533511"><ele>573.0</ele><time>2026-04-19T08:58:28.67Z</time></trkpt><trkpt lat="43.6556135" lon="11.3533511"><ele>575.3333333333334</ele><time>2026-04-19T08:58:29.651Z</time></trkpt><trkpt lat="43.6555483" lon="11.3533069"><ele>577.6666666666666</ele><time>2026-04-19T08:58:30.666Z</time></trkpt><trkpt lat="43.6554387" lon="11.3533152"><ele>580.0</ele><time>2026-04-19T08:58:32.653Z</time></trkpt><trkpt lat="43.6553497" lon="11.3533931"><ele>582.3333333333333</ele><time>2026-04-19T08:58:34.665Z</time></trkpt><trkpt lat="43.6553144" lon="11.3534822"><ele>584.6666666666666</ele><time>2026-04-19T08:58:35.665Z</time></trkpt><trkpt lat="43.65528" lon="11.3535828"><ele>587.0</ele><time>2026-04-19T08:58:36.667Z</time></trkpt><trkpt lat="43.6552433" lon="11.3537054"><ele>587.2</ele><time>2026-04-19T08:58:37.658Z</time></trkpt><trkpt lat="43.6552209" lon="11.3538388"><ele>587.4000000000001</ele><time>2026-04-19T08:58:38.665Z</time></trkpt><trkpt lat="43.6552084" lon="11.3539884"><ele>587.5999999999999</ele><time>2026-04-19T08:58:39.66Z</time></trkpt><trkpt lat="43.6551912" lon="11.3541044"><ele>587.8</ele><time>2026-04-19T08:58:40.666Z</time></trkpt><trkpt lat="43.6551653" lon="11.354206"><ele>588.0</ele><time>2026-04-19T08:58:41.667Z</time></trkpt><trkpt lat="43.6550633" lon="11.3544219"><ele>589.1666666666666</ele><time>2026-04-19T08:58:43.668Z</time></trkpt><trkpt lat="43.6549954" lon="11.3545229"><ele>590.3333333333334</ele><time>2026-04-19T08:58:44.671Z</time></trkpt><trkpt lat="43.6549294" lon="11.3545984"><ele>591.5</ele><time>2026-04-19T08:58:45.67Z</time></trkpt><trkpt lat="43.6548639" lon="11.3546622"><ele>592.6666666666667</ele><time>2026-04-19T08:58:46.656Z</time></trkpt><trkpt lat="43.6548027" lon="11.3547008"><ele>593.8333333333334</ele><time>2026-04-19T08:58:47.672Z</time></trkpt><trkpt lat="43.6547293" lon="11.3547336"><ele>595.0</ele><time>2026-04-19T08:58:48.656Z</time></trkpt><trkpt lat="43.6546369" lon="11.3547406"><ele>596.2</ele><time>2026-04-19T08:58:49.654Z</time></trkpt><trkpt lat="43.6545344" lon="11.3547356"><ele>597.4</ele><time>2026-04-19T08:58:50.665Z</time></trkpt><trkpt lat="43.6544257" lon="11.3547244"><ele>598.6</ele><time>2026-04-19T08:58:51.678Z</time></trkpt><trkpt lat="43.6543392" lon="11.3547216"><ele>599.8</ele><time>2026-04-19T08:58:52.668Z</time></trkpt><trkpt lat="43.6542438" lon="11.3547347"><ele>601.0</ele><time>2026-04-19T08:58:53.674Z</time></trkpt><trkpt lat="43.6541389" lon="11.3547501"><ele>601.0</ele><time>2026-04-19T08:58:54.675Z</time></trkpt><trkpt lat="43.6540389" lon="11.354774"><ele>601.0</ele><time>2026-04-19T08:58:55.672Z</time></trkpt><trkpt lat="43.6539331" lon="11.3548078"><ele>601.0</ele><time>2026-04-19T08:58:56.675Z</time></trkpt><trkpt lat="43.6538255" lon="11.354839"><ele>601.0</ele><time>2026-04-19T08:58:57.671Z</time></trkpt><trkpt lat="43.653728" lon="11.3548689"><ele>601.0</ele><time>2026-04-19T08:58:58.67Z</time></trkpt><trkpt lat="43.6536356" lon="11.3549028"><ele>599.4</ele><time>2026-04-19T08:58:59.668Z</time></trkpt><trkpt lat="43.6535559" lon="11.3549406"><ele>597.8</ele><time>2026-04-19T08:59:00.665Z</time></trkpt><trkpt lat="43.6534934" lon="11.3549914"><ele>596.1999999999999</ele><time>2026-04-19T08:59:01.668Z</time></trkpt><trkpt lat="43.6534437" lon="11.3550509"><ele>594.6</ele><time>2026-04-19T08:59:02.677Z</time></trkpt><trkpt lat="43.6533681" lon="11.355251"><ele>593.0</ele><time>2026-04-19T08:59:04.666Z</time></trkpt><trkpt lat="43.6533474" lon="11.355414"><ele>594.6</ele><time>2026-04-19T08:59:05.655Z</time></trkpt><trkpt lat="43.6533286" lon="11.3555879"><ele>596.1999999999999</ele><time>2026-04-19T08:59:06.665Z</time></trkpt><trkpt lat="43.6532948" lon="11.3557328"><ele>597.8</ele><time>2026-04-19T08:59:07.658Z</time></trkpt><trkpt lat="43.6532525" lon="11.3558565"><ele>599.4</ele><time>2026-04-19T08:59:08.653Z</time></trkpt><trkpt lat="43.653205" lon="11.355955"><ele>601.0</ele><time>2026-04-19T08:59:09.652Z</time></trkpt><trkpt lat="43.6531363" lon="11.3560496"><ele>601.0</ele><time>2026-04-19T08:59:10.657Z</time></trkpt><trkpt lat="43.6530746" lon="11.3561231"><ele>601.0</ele><time>2026-04-19T08:59:11.663Z</time></trkpt><trkpt lat="43.6530291" lon="11.3562155"><ele>601.0</ele><time>2026-04-19T08:59:12.648Z</time></trkpt><trkpt lat="43.652997" lon="11.3563151"><ele>601.0</ele><time>2026-04-19T08:59:13.662Z</time></trkpt><trkpt lat="43.6529739" lon="11.3563997"><ele>601.0</ele><time>2026-04-19T08:59:14.668Z</time></trkpt><trkpt lat="43.6529771" lon="11.3564948"><ele>601.0</ele><time>2026-04-19T08:59:15.665Z</time></trkpt><trkpt lat="43.6530143" lon="11.3566245"><ele>601.3333333333334</ele><time>2026-04-19T08:59:16.675Z</time></trkpt><trkpt lat="43.6530431" lon="11.3567421"><ele>601.6666666666667</ele><time>2026-04-19T08:59:17.661Z</time></trkpt><trkpt lat="43.6530498" lon="11.3568488"><ele>602.0</ele><time>2026-04-19T08:59:18.658Z</time></trkpt><trkpt lat="43.6530412" lon="11.356959"><ele>602.3333333333334</ele><time>2026-04-19T08:59:19.655Z</time></trkpt><trkpt lat="43.6530248" lon="11.3570563"><ele>602.6666666666666</ele><time>2026-04-19T08:59:20.669Z</time></trkpt><trkpt lat="43.6529903" lon="11.3571603"><ele>603.0</ele><time>2026-04-19T08:59:22.662Z</time></trkpt><trkpt lat="43.6529382" lon="11.3572314"><ele>601.4</ele><time>2026-04-19T08:59:58.665Z</time></trkpt><trkpt lat="43.6528162" lon="11.3573241"><ele>599.8</ele><time>2026-04-19T09:00:02.657Z</time></trkpt><trkpt lat="43.6527563" lon="11.3574007"><ele>598.2</ele><time>2026-04-19T09:00:05.662Z</time></trkpt><trkpt lat="43.6527049" lon="11.3574752"><ele>596.6</ele><time>2026-04-19T09:00:07.678Z</time></trkpt><trkpt lat="43.6526217" lon="11.3575241"><ele>595.0</ele><time>2026-04-19T09:00:09.663Z</time></trkpt><trkpt lat="43.6525637" lon="11.357603"><ele>593.6</ele><time>2026-04-19T09:00:11.661Z</time></trkpt><trkpt lat="43.6525162" lon="11.3576821"><ele>592.2</ele><time>2026-04-19T09:00:13.666Z</time></trkpt><trkpt lat="43.6524437" lon="11.3577395"><ele>590.8</ele><time>2026-04-19T09:00:15.664Z</time></trkpt><trkpt lat="43.6523308" lon="11.3577653"><ele>589.4</ele><time>2026-04-19T09:00:17.667Z</time></trkpt><trkpt lat="43.652224" lon="11.3578856"><ele>588.0</ele><time>2026-04-19T09:00:19.662Z</time></trkpt><trkpt lat="43.6521242" lon="11.3580742"><ele>587.0</ele><time>2026-04-19T09:00:21.663Z</time></trkpt><trkpt lat="43.6520817" lon="11.3581624"><ele>586.0</ele><time>2026-04-19T09:00:22.661Z</time></trkpt><trkpt lat="43.6520491" lon="11.35824"><ele>585.0</ele><time>2026-04-19T09:00:23.656Z</time></trkpt><trkpt lat="43.65203" lon="11.3583421"><ele>584.0</ele><time>2026-04-19T09:00:24.658Z</time></trkpt><trkpt lat="43.6520211" lon="11.3584666"><ele>583.0</ele><time>2026-04-19T09:00:25.663Z</time></trkpt><trkpt lat="43.6519994" lon="11.3585715"><ele>582.0</ele><time>2026-04-19T09:00:26.671Z</time></trkpt><trkpt lat="43.651971" lon="11.3586746"><ele>582.1666666666666</ele><time>2026-04-19T09:00:27.662Z</time></trkpt><trkpt lat="43.6519287" lon="11.3587789"><ele>582.3333333333334</ele><time>2026-04-19T09:00:28.671Z</time></trkpt><trkpt lat="43.6518803" lon="11.3588785"><ele>582.5</ele><time>2026-04-19T09:00:29.674Z</time></trkpt><trkpt lat="43.6518415" lon="11.3589726"><ele>582.6666666666667</ele><time>2026-04-19T09:00:30.659Z</time></trkpt><trkpt lat="43.6518053" lon="11.3590565"><ele>582.8333333333334</ele><time>2026-04-19T09:00:31.655Z</time></trkpt><trkpt lat="43.651713" lon="11.359143"><ele>583.0</ele><time>2026-04-19T09:00:33.66Z</time></trkpt><trkpt lat="43.6515983" lon="11.3591559"><ele>584.0</ele><time>2026-04-19T09:00:35.663Z</time></trkpt><trkpt lat="43.6514883" lon="11.3591195"><ele>585.0</ele><time>2026-04-19T09:00:37.673Z</time></trkpt><trkpt lat="43.6514235" lon="11.3591006"><ele>586.0</ele><time>2026-04-19T09:00:38.67Z</time></trkpt><trkpt lat="43.6513565" lon="11.3591082"><ele>587.0</ele><time>2026-04-19T09:00:39.664Z</time></trkpt><trkpt lat="43.6512911" lon="11.3591264"><ele>588.0</ele><time>2026-04-19T09:00:40.668Z</time></trkpt><trkpt lat="43.6510844" lon="11.3590695"><ele>588.0</ele><time>2026-04-19T09:00:44.656Z</time></trkpt><trkpt lat="43.6510265" lon="11.3591226"><ele>588.0</ele><time>2026-04-19T09:00:46.681Z</time></trkpt><trkpt lat="43.6509596" lon="11.3592482"><ele>588.0</ele><time>2026-04-19T09:00:48.663Z</time></trkpt><trkpt lat="43.6508744" lon="11.3593786"><ele>588.0</ele><time>2026-04-19T09:00:50.669Z</time></trkpt><trkpt lat="43.6508307" lon="11.3594429"><ele>588.0</ele><time>2026-04-19T09:00:51.661Z</time></trkpt><trkpt lat="43.65077" lon="11.3594991"><ele>588.0</ele><time>2026-04-19T09:00:53.656Z</time></trkpt><trkpt lat="43.6507063" lon="11.3595988"><ele>591.5</ele><time>2026-04-19T09:00:57.67Z</time></trkpt><trkpt lat="43.6506494" lon="11.3597253"><ele>595.0</ele><time>2026-04-19T09:00:59.666Z</time></trkpt><trkpt lat="43.650577" lon="11.3598295"><ele>598.5</ele><time>2026-04-19T09:01:01.671Z</time></trkpt><trkpt lat="43.6504478" lon="11.3600357"><ele>602.0</ele><time>2026-04-19T09:01:05.654Z</time></trkpt><trkpt lat="43.6504611" lon="11.3601683"><ele>602.0</ele><time>2026-04-19T09:01:07.665Z</time></trkpt><trkpt lat="43.6504747" lon="11.3603432"><ele>602.0</ele><time>2026-04-19T09:01:09.658Z</time></trkpt><trkpt lat="43.650467" lon="11.3604866"><ele>602.0</ele><time>2026-04-19T09:01:11.67Z</time></trkpt><trkpt lat="43.6504521" lon="11.3605802"><ele>602.0</ele><time>2026-04-19T09:01:12.657Z</time></trkpt><trkpt lat="43.650447" lon="11.3606824"><ele>602.0</ele><time>2026-04-19T09:01:13.661Z</time></trkpt><trkpt lat="43.6504454" lon="11.3607847"><ele>602.0</ele><time>2026-04-19T09:01:14.66Z</time></trkpt><trkpt lat="43.6504361" lon="11.3608876"><ele>602.5</ele><time>2026-04-19T09:01:15.667Z</time></trkpt><trkpt lat="43.6504119" lon="11.360996"><ele>603.0</ele><time>2026-04-19T09:01:16.672Z</time></trkpt><trkpt lat="43.6503792" lon="11.3611003"><ele>603.5</ele><time>2026-04-19T09:01:17.661Z</time></trkpt><trkpt lat="43.6503482" lon="11.3611974"><ele>604.0</ele><time>2026-04-19T09:01:18.668Z</time></trkpt><trkpt lat="43.6503213" lon="11.3612802"><ele>604.5</ele><time>2026-04-19T09:01:19.669Z</time></trkpt><trkpt lat="43.6502775" lon="11.3614219"><ele>605.0</ele><time>2026-04-19T09:01:21.662Z</time></trkpt><trkpt lat="43.6502209" lon="11.3615403"><ele>605.0</ele><time>2026-04-19T09:01:23.659Z</time></trkpt><trkpt lat="43.6500986" lon="11.3617683"><ele>605.0</ele><time>2026-04-19T09:01:26.662Z</time></trkpt><trkpt lat="43.6500427" lon="11.3618699"><ele>605.0</ele><time>2026-04-19T09:01:27.661Z</time></trkpt><trkpt lat="43.6499903" lon="11.3619795"><ele>605.0</ele><time>2026-04-19T09:01:28.67Z</time></trkpt><trkpt lat="43.6499463" lon="11.3621023"><ele>605.5</ele><time>2026-04-19T09:01:29.675Z</time></trkpt><trkpt lat="43.649906" lon="11.3622226"><ele>606.0</ele><time>2026-04-19T09:01:30.661Z</time></trkpt><trkpt lat="43.6498723" lon="11.362329"><ele>606.5</ele><time>2026-04-19T09:01:31.66Z</time></trkpt><trkpt lat="43.6498386" lon="11.3624306"><ele>607.0</ele><time>2026-04-19T09:01:32.658Z</time></trkpt><trkpt lat="43.6498" lon="11.3625432"><ele>607.5</ele><time>2026-04-19T09:01:33.658Z</time></trkpt><trkpt lat="43.6497628" lon="11.3626357"><ele>608.0</ele><time>2026-04-19T09:01:34.658Z</time></trkpt><trkpt lat="43.6496865" lon="11.3627632"><ele>608.0</ele><time>2026-04-19T09:01:36.69Z</time></trkpt><trkpt lat="43.64963" lon="11.3628267"><ele>608.0</ele><time>2026-04-19T09:01:37.675Z</time></trkpt><trkpt lat="43.6495587" lon="11.3628931"><ele>608.0</ele><time>2026-04-19T09:01:38.679Z</time></trkpt><trkpt lat="43.6494916" lon="11.3629738"><ele>608.0</ele><time>2026-04-19T09:01:39.673Z</time></trkpt><trkpt lat="43.6494354" lon="11.3630751"><ele>608.0</ele><time>2026-04-19T09:01:40.744Z</time></trkpt><trkpt lat="43.6493795" lon="11.3631937"><ele>608.0</ele><time>2026-04-19T09:01:41.749Z</time></trkpt><trkpt lat="43.6493009" lon="11.3633549"><ele>608.6666666666666</ele><time>2026-04-19T09:01:42.75Z</time></trkpt><trkpt lat="43.6492016" lon="11.3635434"><ele>609.3333333333334</ele><time>2026-04-19T09:01:43.753Z</time></trkpt><trkpt lat="43.6490989" lon="11.3637575"><ele>610.0</ele><time>2026-04-19T09:01:44.752Z</time></trkpt><trkpt lat="43.6490015" lon="11.3639799"><ele>611.5</ele><time>2026-04-19T09:01:46.764Z</time></trkpt><trkpt lat="43.6488572" lon="11.3642486"><ele>613.0</ele><time>2026-04-19T09:01:47.747Z</time></trkpt><trkpt lat="43.6487075" lon="11.3645787"><ele>625.0</ele><time>2026-04-19T09:01:48.734Z</time></trkpt><trkpt lat="43.6485755" lon="11.3649125"><ele>637.0</ele><time>2026-04-19T09:01:49.73Z</time></trkpt><trkpt lat="43.6484561" lon="11.3652398"><ele>613.0</ele><time>2026-04-19T09:01:50.729Z</time></trkpt><trkpt lat="43.6489258" lon="11.3640306"><ele>613.0</ele><time>2026-04-19T09:01:51.722Z</time></trkpt><trkpt lat="43.6488775" lon="11.3639444"><ele>613.0</ele><time>2026-04-19T09:01:52.747Z</time></trkpt><trkpt lat="43.6487279" lon="11.3639596"><ele>613.0</ele><time>2026-04-19T09:01:54.644Z</time></trkpt><trkpt lat="43.648667" lon="11.3640179"><ele>613.0</ele><time>2026-04-19T09:01:56.647Z</time></trkpt><trkpt lat="43.6485841" lon="11.3640772"><ele>613.0</ele><time>2026-04-19T09:01:58.661Z</time></trkpt><trkpt lat="43.6484569" lon="11.3641457"><ele>613.6666666666667</ele><time>2026-04-19T09:02:00.656Z</time></trkpt><trkpt lat="43.6483796" lon="11.3641777"><ele>614.3333333333334</ele><time>2026-04-19T09:02:01.647Z</time></trkpt><trkpt lat="43.6483134" lon="11.3642033"><ele>615.0</ele><time>2026-04-19T09:02:02.658Z</time></trkpt><trkpt lat="43.6482276" lon="11.3642272"><ele>615.6666666666666</ele><time>2026-04-19T09:02:03.662Z</time></trkpt><trkpt lat="43.6481378" lon="11.3642567"><ele>616.3333333333333</ele><time>2026-04-19T09:02:04.655Z</time></trkpt><trkpt lat="43.6480511" lon="11.3643001"><ele>617.0</ele><time>2026-04-19T09:02:05.662Z</time></trkpt><trkpt lat="43.6479047" lon="11.364457"><ele>617.0</ele><time>2026-04-19T09:02:07.654Z</time></trkpt><trkpt lat="43.6478602" lon="11.3645261"><ele>617.0</ele><time>2026-04-19T09:02:08.657Z</time></trkpt><trkpt lat="43.6478371" lon="11.3646749"><ele>617.0</ele><time>2026-04-19T09:02:10.661Z</time></trkpt><trkpt lat="43.6478294" lon="11.3647728"><ele>617.0</ele><time>2026-04-19T09:02:11.65Z</time></trkpt><trkpt lat="43.6478142" lon="11.3648663"><ele>617.0</ele><time>2026-04-19T09:02:12.649Z</time></trkpt><trkpt lat="43.6477873" lon="11.3649628"><ele>617.0</ele><time>2026-04-19T09:02:13.646Z</time></trkpt><trkpt lat="43.6477047" lon="11.3650865"><ele>618.6666666666666</ele><time>2026-04-19T09:02:15.646Z</time></trkpt><trkpt lat="43.6476211" lon="11.3651365"><ele>620.3333333333333</ele><time>2026-04-19T09:02:16.646Z</time></trkpt><trkpt lat="43.6475501" lon="11.3651898"><ele>622.0</ele><time>2026-04-19T09:02:17.655Z</time></trkpt><trkpt lat="43.6474878" lon="11.3652298"><ele>623.6666666666666</ele><time>2026-04-19T09:02:18.655Z</time></trkpt><trkpt lat="43.6474147" lon="11.3652523"><ele>625.3333333333334</ele><time>2026-04-19T09:02:19.655Z</time></trkpt><trkpt lat="43.6473263" lon="11.3652553"><ele>627.0</ele><time>2026-04-19T09:02:20.645Z</time></trkpt><trkpt lat="43.647226" lon="11.365219"><ele>627.0</ele><time>2026-04-19T09:02:21.645Z</time></trkpt><trkpt lat="43.6471567" lon="11.3651898"><ele>627.0</ele><time>2026-04-19T09:02:22.645Z</time></trkpt><trkpt lat="43.6470791" lon="11.3651772"><ele>627.0</ele><time>2026-04-19T09:02:24.661Z</time></trkpt><trkpt lat="43.6470158" lon="11.3651535"><ele>627.0</ele><time>2026-04-19T09:03:42.676Z</time></trkpt><trkpt lat="43.6472125" lon="11.3651807"><ele>627.0</ele><time>2026-04-19T09:03:54.657Z</time></trkpt><trkpt lat="43.6472906" lon="11.3652074"><ele>627.0</ele><time>2026-04-19T09:03:55.647Z</time></trkpt><trkpt lat="43.6473665" lon="11.3652334"><ele>627.0</ele><time>2026-04-19T09:03:56.661Z</time></trkpt><trkpt lat="43.6474929" lon="11.3652381"><ele>627.0</ele><time>2026-04-19T09:03:58.66Z</time></trkpt><trkpt lat="43.6475578" lon="11.3652183"><ele>627.0</ele><time>2026-04-19T09:03:59.653Z</time></trkpt><trkpt lat="43.6476173" lon="11.3651665"><ele>627.0</ele><time>2026-04-19T09:04:00.654Z</time></trkpt><trkpt lat="43.6476894" lon="11.3651053"><ele>627.0</ele><time>2026-04-19T09:04:01.647Z</time></trkpt><trkpt lat="43.6477456" lon="11.3650545"><ele>629.5</ele><time>2026-04-19T09:04:02.636Z</time></trkpt><trkpt lat="43.6478146" lon="11.364905"><ele>632.0</ele><time>2026-04-19T09:04:04.654Z</time></trkpt><trkpt lat="43.6478596" lon="11.3646613"><ele>634.5</ele><time>2026-04-19T09:04:08.65Z</time></trkpt><trkpt lat="43.6478533" lon="11.3645514"><ele>637.0</ele><time>2026-04-19T09:04:10.665Z</time></trkpt><trkpt lat="43.6478916" lon="11.3644571"><ele>633.0</ele><time>2026-04-19T09:04:12.664Z</time></trkpt><trkpt lat="43.6479693" lon="11.3643575"><ele>629.0</ele><time>2026-04-19T09:04:14.659Z</time></trkpt><trkpt lat="43.6480789" lon="11.3642559"><ele>625.0</ele><time>2026-04-19T09:04:16.665Z</time></trkpt><trkpt lat="43.6481473" lon="11.3642279"><ele>621.0</ele><time>2026-04-19T09:04:17.654Z</time></trkpt><trkpt lat="43.6482164" lon="11.3642073"><ele>617.0</ele><time>2026-04-19T09:04:18.654Z</time></trkpt><trkpt lat="43.6482839" lon="11.3641742"><ele>617.0</ele><time>2026-04-19T09:04:19.653Z</time></trkpt><trkpt lat="43.6483459" lon="11.364151"><ele>617.0</ele><time>2026-04-19T09:04:20.654Z</time></trkpt><trkpt lat="43.6484415" lon="11.3641014"><ele>617.0</ele><time>2026-04-19T09:04:22.655Z</time></trkpt><trkpt lat="43.6485352" lon="11.3640412"><ele>617.0</ele><time>2026-04-19T09:04:24.654Z</time></trkpt><trkpt lat="43.6486399" lon="11.3639837"><ele>617.0</ele><time>2026-04-19T09:04:26.651Z</time></trkpt><trkpt lat="43.6488034" lon="11.3638954"><ele>616.3333333333333</ele><time>2026-04-19T09:04:29.673Z</time></trkpt><trkpt lat="43.6489064" lon="11.3638441"><ele>615.6666666666666</ele><time>2026-04-19T09:04:31.658Z</time></trkpt><trkpt lat="43.6489798" lon="11.363806"><ele>615.0</ele><time>2026-04-19T09:04:33.664Z</time></trkpt><trkpt lat="43.6490489" lon="11.363768"><ele>614.3333333333334</ele><time>2026-04-19T09:04:36.665Z</time></trkpt><trkpt lat="43.6491094" lon="11.3637344"><ele>613.6666666666667</ele><time>2026-04-19T09:04:39.668Z</time></trkpt><trkpt lat="43.6491487" lon="11.3638263"><ele>613.0</ele><time>2026-04-19T09:05:04.655Z</time></trkpt><trkpt lat="43.6491216" lon="11.3641313"><ele>613.0</ele><time>2026-04-19T09:05:07.648Z</time></trkpt><trkpt lat="43.6491141" lon="11.3642533"><ele>613.0</ele><time>2026-04-19T09:05:08.645Z</time></trkpt><trkpt lat="43.6491139" lon="11.3643476"><ele>613.0</ele><time>2026-04-19T09:05:09.646Z</time></trkpt><trkpt lat="43.6491112" lon="11.3644359"><ele>613.0</ele><time>2026-04-19T09:05:10.643Z</time></trkpt><trkpt lat="43.6491067" lon="11.3645241"><ele>613.0</ele><time>2026-04-19T09:05:11.635Z</time></trkpt><trkpt lat="43.6491268" lon="11.3646819"><ele>613.0</ele><time>2026-04-19T09:05:13.638Z</time></trkpt><trkpt lat="43.649157" lon="11.3647804"><ele>615.8</ele><time>2026-04-19T09:05:14.646Z</time></trkpt><trkpt lat="43.6491724" lon="11.3648746"><ele>618.5999999999999</ele><time>2026-04-19T09:05:15.638Z</time></trkpt><trkpt lat="43.649174" lon="11.3650091"><ele>621.4000000000001</ele><time>2026-04-19T09:05:17.643Z</time></trkpt><trkpt lat="43.649152" lon="11.3651296"><ele>624.2</ele><time>2026-04-19T09:05:19.646Z</time></trkpt><trkpt lat="43.6491107" lon="11.3653003"><ele>627.0</ele><time>2026-04-19T09:05:21.65Z</time></trkpt><trkpt lat="43.6490957" lon="11.3653977"><ele>627.0</ele><time>2026-04-19T09:05:22.649Z</time></trkpt><trkpt lat="43.6490885" lon="11.3654942"><ele>627.0</ele><time>2026-04-19T09:05:23.649Z</time></trkpt><trkpt lat="43.64907" lon="11.3655824"><ele>627.0</ele><time>2026-04-19T09:05:24.65Z</time></trkpt><trkpt lat="43.6490427" lon="11.3656683"><ele>627.0</ele><time>2026-04-19T09:05:25.647Z</time></trkpt><trkpt lat="43.648979" lon="11.3659202"><ele>627.0</ele><time>2026-04-19T09:05:29.655Z</time></trkpt><trkpt lat="43.6489795" lon="11.3660528"><ele>629.6</ele><time>2026-04-19T09:05:31.638Z</time></trkpt><trkpt lat="43.6490447" lon="11.3661854"><ele>632.2</ele><time>2026-04-19T09:05:33.641Z</time></trkpt><trkpt lat="43.6491319" lon="11.3662774"><ele>634.8</ele><time>2026-04-19T09:05:35.649Z</time></trkpt><trkpt lat="43.6491963" lon="11.3663807"><ele>637.4</ele><time>2026-04-19T09:05:37.642Z</time></trkpt><trkpt lat="43.649237" lon="11.3664476"><ele>640.0</ele><time>2026-04-19T09:05:39.654Z</time></trkpt><trkpt lat="43.6492955" lon="11.3665356"><ele>642.75</ele><time>2026-04-19T09:07:03.65Z</time></trkpt><trkpt lat="43.6493539" lon="11.3667443"><ele>645.5</ele><time>2026-04-19T09:07:08.644Z</time></trkpt><trkpt lat="43.6493783" lon="11.3668508"><ele>648.25</ele><time>2026-04-19T09:07:39.65Z</time></trkpt><trkpt lat="43.6494059" lon="11.3671134"><ele>651.0</ele><time>2026-04-19T09:07:43.649Z</time></trkpt><trkpt lat="43.6493926" lon="11.3672472"><ele>651.5999999999999</ele><time>2026-04-19T09:07:45.649Z</time></trkpt><trkpt lat="43.6493562" lon="11.3673978"><ele>652.2</ele><time>2026-04-19T09:07:47.643Z</time></trkpt><trkpt lat="43.6493169" lon="11.3675374"><ele>652.8</ele><time>2026-04-19T09:07:49.642Z</time></trkpt><trkpt lat="43.6492777" lon="11.3676841"><ele>653.4000000000001</ele><time>2026-04-19T09:07:51.645Z</time></trkpt><trkpt lat="43.6492259" lon="11.3678145"><ele>654.0</ele><time>2026-04-19T09:07:53.647Z</time></trkpt><trkpt lat="43.6491504" lon="11.3679497"><ele>654.0</ele><time>2026-04-19T09:07:55.641Z</time></trkpt><trkpt lat="43.64906" lon="11.3680266"><ele>654.0</ele><time>2026-04-19T09:07:57.643Z</time></trkpt><trkpt lat="43.6489271" lon="11.3680309"><ele>654.0</ele><time>2026-04-19T09:07:59.655Z</time></trkpt><trkpt lat="43.6488508" lon="11.3680411"><ele>654.0</ele><time>2026-04-19T09:08:00.64Z</time></trkpt><trkpt lat="43.6487448" lon="11.3681722"><ele>653.8333333333334</ele><time>2026-04-19T09:08:02.639Z</time></trkpt><trkpt lat="43.6487054" lon="11.3682694"><ele>653.6666666666666</ele><time>2026-04-19T09:08:03.642Z</time></trkpt><trkpt lat="43.6486862" lon="11.3683827"><ele>653.5</ele><time>2026-04-19T09:08:04.638Z</time></trkpt><trkpt lat="43.6486724" lon="11.3684922"><ele>653.3333333333333</ele><time>2026-04-19T09:08:05.647Z</time></trkpt><trkpt lat="43.6486548" lon="11.3685891"><ele>653.1666666666666</ele><time>2026-04-19T09:08:06.646Z</time></trkpt><trkpt lat="43.6485883" lon="11.3687306"><ele>653.0</ele><time>2026-04-19T09:08:08.652Z</time></trkpt><trkpt lat="43.6485673" lon="11.3688917"><ele>653.0000000000001</ele><time>2026-04-19T09:08:10.649Z</time></trkpt><trkpt lat="43.6485936" lon="11.3689912"><ele>653.0</ele><time>2026-04-19T09:08:11.645Z</time></trkpt><trkpt lat="43.6486291" lon="11.3690747"><ele>653.0</ele><time>2026-04-19T09:08:12.649Z</time></trkpt><trkpt lat="43.6486678" lon="11.3691596"><ele>653.0</ele><time>2026-04-19T09:08:13.647Z</time></trkpt><trkpt lat="43.648699" lon="11.3692421"><ele>653.0</ele><time>2026-04-19T09:08:14.649Z</time></trkpt><trkpt lat="43.6487315" lon="11.3693249"><ele>653.0000000000001</ele><time>2026-04-19T09:08:15.646Z</time></trkpt><trkpt lat="43.648721" lon="11.3694454"><ele>653.0</ele><time>2026-04-19T09:08:17.639Z</time></trkpt><trkpt lat="43.6486061" lon="11.3694974"><ele>654.8333333333333</ele><time>2026-04-19T09:08:19.648Z</time></trkpt><trkpt lat="43.6485343" lon="11.3695239"><ele>656.6666666666666</ele><time>2026-04-19T09:08:20.647Z</time></trkpt><trkpt lat="43.6484733" lon="11.3695889"><ele>658.5</ele><time>2026-04-19T09:08:21.64Z</time></trkpt><trkpt lat="43.648385" lon="11.3697315"><ele>660.3333333333334</ele><time>2026-04-19T09:08:23.641Z</time></trkpt><trkpt lat="43.6483626" lon="11.3698317"><ele>662.1666666666667</ele><time>2026-04-19T09:08:24.635Z</time></trkpt><trkpt lat="43.6483527" lon="11.3699311"><ele>664.0</ele><time>2026-04-19T09:08:25.648Z</time></trkpt><trkpt lat="43.6483315" lon="11.3700355"><ele>665.75</ele><time>2026-04-19T09:08:26.652Z</time></trkpt><trkpt lat="43.6482763" lon="11.3701675"><ele>667.5</ele><time>2026-04-19T09:08:28.65Z</time></trkpt><trkpt lat="43.6481903" lon="11.3702688"><ele>669.25</ele><time>2026-04-19T09:08:30.65Z</time></trkpt><trkpt lat="43.6480955" lon="11.3703756"><ele>671.0</ele><time>2026-04-19T09:08:32.649Z</time></trkpt><trkpt lat="43.6480019" lon="11.3704431"><ele>671.0</ele><time>2026-04-19T09:08:34.646Z</time></trkpt><trkpt lat="43.6479366" lon="11.3704613"><ele>671.0</ele><time>2026-04-19T09:08:35.649Z</time></trkpt><trkpt lat="43.6478622" lon="11.3704813"><ele>671.0</ele><time>2026-04-19T09:08:36.643Z</time></trkpt><trkpt lat="43.6477828" lon="11.3705202"><ele>671.0</ele><time>2026-04-19T09:08:37.645Z</time></trkpt><trkpt lat="43.6477149" lon="11.3705631"><ele>671.0</ele><time>2026-04-19T09:08:38.645Z</time></trkpt><trkpt lat="43.6476488" lon="11.3705961"><ele>671.0</ele><time>2026-04-19T09:08:39.651Z</time></trkpt><trkpt lat="43.6475818" lon="11.3706263"><ele>671.0</ele><time>2026-04-19T09:08:40.648Z</time></trkpt><trkpt lat="43.647515" lon="11.370647"><ele>673.75</ele><time>2026-04-19T09:08:41.649Z</time></trkpt><trkpt lat="43.6474557" lon="11.3706769"><ele>676.5</ele><time>2026-04-19T09:08:42.648Z</time></trkpt><trkpt lat="43.6472892" lon="11.3708873"><ele>679.25</ele><time>2026-04-19T09:08:46.643Z</time></trkpt><trkpt lat="43.647233" lon="11.370996"><ele>682.0</ele><time>2026-04-19T09:08:48.646Z</time></trkpt><trkpt lat="43.6471831" lon="11.3710857"><ele>682.0</ele><time>2026-04-19T09:08:50.654Z</time></trkpt><trkpt lat="43.6471282" lon="11.3711857"><ele>682.0</ele><time>2026-04-19T09:08:52.647Z</time></trkpt><trkpt lat="43.6470563" lon="11.3712795"><ele>682.0</ele><time>2026-04-19T09:08:54.65Z</time></trkpt><trkpt lat="43.6470065" lon="11.3713604"><ele>682.0</ele><time>2026-04-19T09:08:57.653Z</time></trkpt><trkpt lat="43.6469495" lon="11.3714122"><ele>682.0</ele><time>2026-04-19T09:08:59.651Z</time></trkpt><trkpt lat="43.6468588" lon="11.3714282"><ele>682.0</ele><time>2026-04-19T09:09:01.642Z</time></trkpt><trkpt lat="43.6467384" lon="11.3714189"><ele>680.6666666666667</ele><time>2026-04-19T09:09:03.636Z</time></trkpt><trkpt lat="43.6466084" lon="11.3713443"><ele>679.3333333333334</ele><time>2026-04-19T09:09:05.639Z</time></trkpt><trkpt lat="43.6465474" lon="11.3713013"><ele>678.0</ele><time>2026-04-19T09:09:06.64Z</time></trkpt><trkpt lat="43.6464874" lon="11.3712494"><ele>676.6666666666666</ele><time>2026-04-19T09:09:07.637Z</time></trkpt><trkpt lat="43.6464265" lon="11.3711903"><ele>675.3333333333333</ele><time>2026-04-19T09:09:08.634Z</time></trkpt><trkpt lat="43.6463679" lon="11.3711371"><ele>674.0</ele><time>2026-04-19T09:09:09.638Z</time></trkpt><trkpt lat="43.6463056" lon="11.3710813"><ele>674.0</ele><time>2026-04-19T09:09:10.635Z</time></trkpt><trkpt lat="43.6462029" lon="11.371005"><ele>674.0</ele><time>2026-04-19T09:09:12.643Z</time></trkpt><trkpt lat="43.646109" lon="11.3709334"><ele>674.0</ele><time>2026-04-19T09:09:14.636Z</time></trkpt><trkpt lat="43.6460481" lon="11.3709096"><ele>674.0</ele><time>2026-04-19T09:09:15.633Z</time></trkpt><trkpt lat="43.6459383" lon="11.3708637"><ele>674.0</ele><time>2026-04-19T09:09:17.638Z</time></trkpt><trkpt lat="43.6458331" lon="11.3708561"><ele>675.75</ele><time>2026-04-19T09:09:19.639Z</time></trkpt><trkpt lat="43.6457211" lon="11.370861"><ele>677.5</ele><time>2026-04-19T09:09:21.641Z</time></trkpt><trkpt lat="43.6456116" lon="11.3708908"><ele>679.25</ele><time>2026-04-19T09:09:23.638Z</time></trkpt><trkpt lat="43.6455112" lon="11.3708847"><ele>681.0</ele><time>2026-04-19T09:09:25.639Z</time></trkpt><trkpt lat="43.6453259" lon="11.3709726"><ele>681.0</ele><time>2026-04-19T09:09:29.657Z</time></trkpt><trkpt lat="43.6452216" lon="11.3710245"><ele>681.0</ele><time>2026-04-19T09:09:31.646Z</time></trkpt><trkpt lat="43.6451576" lon="11.3710398"><ele>681.0</ele><time>2026-04-19T09:09:32.64Z</time></trkpt><trkpt lat="43.6450321" lon="11.3710504"><ele>681.0</ele><time>2026-04-19T09:09:34.639Z</time></trkpt><trkpt lat="43.64492" lon="11.3710693"><ele>681.0</ele><time>2026-04-19T09:09:36.637Z</time></trkpt><trkpt lat="43.6448413" lon="11.3710748"><ele>681.0</ele><time>2026-04-19T09:09:38.644Z</time></trkpt><trkpt lat="43.6447852" lon="11.3711971"><ele>681.0</ele><time>2026-04-19T09:09:52.646Z</time></trkpt><trkpt lat="43.6447141" lon="11.3714108"><ele>681.0</ele><time>2026-04-19T09:09:54.637Z</time></trkpt><trkpt lat="43.6446863" lon="11.3715256"><ele>681.0</ele><time>2026-04-19T09:09:55.635Z</time></trkpt><trkpt lat="43.6446244" lon="11.3716001"><ele>681.0</ele><time>2026-04-19T09:09:56.635Z</time></trkpt><trkpt lat="43.6445542" lon="11.3716499"><ele>681.5999999999999</ele><time>2026-04-19T09:09:57.645Z</time></trkpt><trkpt lat="43.6444869" lon="11.3717"><ele>682.2</ele><time>2026-04-19T09:09:58.649Z</time></trkpt><trkpt lat="43.6444465" lon="11.3717916"><ele>682.8</ele><time>2026-04-19T09:09:59.652Z</time></trkpt><trkpt lat="43.6444021" lon="11.3719264"><ele>683.4000000000001</ele><time>2026-04-19T09:10:00.643Z</time></trkpt><trkpt lat="43.6443627" lon="11.3720754"><ele>684.0</ele><time>2026-04-19T09:10:01.638Z</time></trkpt><trkpt lat="43.6443235" lon="11.3721915"><ele>684.0</ele><time>2026-04-19T09:10:02.641Z</time></trkpt><trkpt lat="43.6443067" lon="11.3723102"><ele>684.0</ele><time>2026-04-19T09:10:03.636Z</time></trkpt><trkpt lat="43.6443075" lon="11.3724261"><ele>684.0</ele><time>2026-04-19T09:10:04.634Z</time></trkpt><trkpt lat="43.644352" lon="11.3725574"><ele>684.0</ele><time>2026-04-19T09:10:06.637Z</time></trkpt><trkpt lat="43.644426" lon="11.372687"><ele>684.0</ele><time>2026-04-19T09:10:08.643Z</time></trkpt><trkpt lat="43.6444887" lon="11.3727787"><ele>686.5</ele><time>2026-04-19T09:10:10.643Z</time></trkpt><trkpt lat="43.6445654" lon="11.3728896"><ele>689.0</ele><time>2026-04-19T09:10:12.64Z</time></trkpt><trkpt lat="43.6445558" lon="11.3730159"><ele>691.5</ele><time>2026-04-19T09:10:14.643Z</time></trkpt><trkpt lat="43.6444711" lon="11.3731644"><ele>694.0</ele><time>2026-04-19T09:10:16.644Z</time></trkpt><trkpt lat="43.6444235" lon="11.3733247"><ele>694.0</ele><time>2026-04-19T09:10:18.645Z</time></trkpt><trkpt lat="43.6443875" lon="11.3734347"><ele>694.0</ele><time>2026-04-19T09:10:20.64Z</time></trkpt><trkpt lat="43.6443043" lon="11.3734712"><ele>694.0</ele><time>2026-04-19T09:10:22.646Z</time></trkpt><trkpt lat="43.6442353" lon="11.3734439"><ele>694.0</ele><time>2026-04-19T09:10:23.641Z</time></trkpt><trkpt lat="43.644152" lon="11.3734012"><ele>694.0</ele><time>2026-04-19T09:10:24.637Z</time></trkpt><trkpt lat="43.6440615" lon="11.3733526"><ele>694.0</ele><time>2026-04-19T09:10:25.635Z</time></trkpt><trkpt lat="43.64398" lon="11.3733115"><ele>694.0</ele><time>2026-04-19T09:10:26.637Z</time></trkpt><trkpt lat="43.6439129" lon="11.3732995"><ele>694.0</ele><time>2026-04-19T09:10:27.645Z</time></trkpt><trkpt lat="43.6438372" lon="11.373312"><ele>694.0</ele><time>2026-04-19T09:10:28.637Z</time></trkpt><trkpt lat="43.6437439" lon="11.3733074"><ele>694.0</ele><time>2026-04-19T09:10:29.645Z</time></trkpt><trkpt lat="43.643656" lon="11.3732867"><ele>694.0</ele><time>2026-04-19T09:10:30.637Z</time></trkpt><trkpt lat="43.643594" lon="11.3732614"><ele>694.0</ele><time>2026-04-19T09:10:31.632Z</time></trkpt><trkpt lat="43.6435249" lon="11.3731707"><ele>694.25</ele><time>2026-04-19T09:10:33.644Z</time></trkpt><trkpt lat="43.6435111" lon="11.3730612"><ele>694.5</ele><time>2026-04-19T09:10:34.633Z</time></trkpt><trkpt lat="43.6435031" lon="11.3729685"><ele>694.75</ele><time>2026-04-19T09:10:35.644Z</time></trkpt><trkpt lat="43.6432857" lon="11.372995"><ele>695.0</ele><time>2026-04-19T09:10:38.644Z</time></trkpt><trkpt lat="43.6431738" lon="11.3730572"><ele>695.0</ele><time>2026-04-19T09:10:39.644Z</time></trkpt><trkpt lat="43.6430773" lon="11.3731098"><ele>695.0</ele><time>2026-04-19T09:10:40.645Z</time></trkpt><trkpt lat="43.6429901" lon="11.3731538"><ele>695.0</ele><time>2026-04-19T09:10:41.642Z</time></trkpt><trkpt lat="43.6429229" lon="11.3732126"><ele>695.0</ele><time>2026-04-19T09:10:42.651Z</time></trkpt><trkpt lat="43.6429051" lon="11.3733134"><ele>695.0</ele><time>2026-04-19T09:10:43.645Z</time></trkpt><trkpt lat="43.6429219" lon="11.3734315"><ele>695.0</ele><time>2026-04-19T09:10:44.634Z</time></trkpt><trkpt lat="43.6429214" lon="11.3735322"><ele>695.0</ele><time>2026-04-19T09:10:45.642Z</time></trkpt><trkpt lat="43.6429095" lon="11.3736274"><ele>695.0</ele><time>2026-04-19T09:10:46.643Z</time></trkpt><trkpt lat="43.6428866" lon="11.3737193"><ele>695.0</ele><time>2026-04-19T09:10:47.642Z</time></trkpt><trkpt lat="43.6428592" lon="11.3738062"><ele>695.0</ele><time>2026-04-19T09:10:48.645Z</time></trkpt><trkpt lat="43.6427847" lon="11.3739337"><ele>695.0</ele><time>2026-04-19T09:10:50.644Z</time></trkpt><trkpt lat="43.6427226" lon="11.3740011"><ele>695.0</ele><time>2026-04-19T09:10:51.642Z</time></trkpt><trkpt lat="43.642647" lon="11.3740641"><ele>696.8</ele><time>2026-04-19T09:10:52.647Z</time></trkpt><trkpt lat="43.642575" lon="11.3741169"><ele>698.6</ele><time>2026-04-19T09:10:53.644Z</time></trkpt><trkpt lat="43.64251" lon="11.3741421"><ele>700.4000000000001</ele><time>2026-04-19T09:10:54.646Z</time></trkpt><trkpt lat="43.6423867" lon="11.3741297"><ele>702.2</ele><time>2026-04-19T09:10:56.644Z</time></trkpt><trkpt lat="43.6422366" lon="11.3740469"><ele>704.0</ele><time>2026-04-19T09:10:58.648Z</time></trkpt><trkpt lat="43.6421579" lon="11.3740162"><ele>704.0</ele><time>2026-04-19T09:10:59.646Z</time></trkpt><trkpt lat="43.6420583" lon="11.3739371"><ele>704.0</ele><time>2026-04-19T09:11:01.645Z</time></trkpt><trkpt lat="43.6419342" lon="11.3739617"><ele>704.0</ele><time>2026-04-19T09:11:03.635Z</time></trkpt><trkpt lat="43.6418625" lon="11.3739619"><ele>704.0</ele><time>2026-04-19T09:11:04.644Z</time></trkpt><trkpt lat="43.641798" lon="11.3739489"><ele>704.0</ele><time>2026-04-19T09:11:05.642Z</time></trkpt><trkpt lat="43.6416839" lon="11.3740117"><ele>703.6</ele><time>2026-04-19T09:11:07.649Z</time></trkpt><trkpt lat="43.6416346" lon="11.3741258"><ele>703.2</ele><time>2026-04-19T09:11:08.651Z</time></trkpt><trkpt lat="43.6415635" lon="11.3742299"><ele>702.8000000000001</ele><time>2026-04-19T09:11:09.647Z</time></trkpt><trkpt lat="43.6414815" lon="11.3743147"><ele>702.4000000000001</ele><time>2026-04-19T09:11:10.641Z</time></trkpt><trkpt lat="43.6414087" lon="11.3743825"><ele>702.0</ele><time>2026-04-19T09:11:11.636Z</time></trkpt><trkpt lat="43.6413524" lon="11.3744474"><ele>702.0</ele><time>2026-04-19T09:11:12.646Z</time></trkpt><trkpt lat="43.6413062" lon="11.3745295"><ele>702.0</ele><time>2026-04-19T09:11:13.646Z</time></trkpt><trkpt lat="43.6412603" lon="11.3746274"><ele>702.0</ele><time>2026-04-19T09:11:14.64Z</time></trkpt><trkpt lat="43.6412267" lon="11.374749"><ele>702.0</ele><time>2026-04-19T09:11:15.641Z</time></trkpt><trkpt lat="43.6411986" lon="11.3748635"><ele>702.0</ele><time>2026-04-19T09:11:16.639Z</time></trkpt><trkpt lat="43.6411636" lon="11.3749593"><ele>702.0</ele><time>2026-04-19T09:11:17.641Z</time></trkpt><trkpt lat="43.6411841" lon="11.3752616"><ele>702.6</ele><time>2026-04-19T09:11:20.642Z</time></trkpt><trkpt lat="43.6412098" lon="11.3753649"><ele>703.2</ele><time>2026-04-19T09:11:21.646Z</time></trkpt><trkpt lat="43.6412209" lon="11.3754752"><ele>703.8</ele><time>2026-04-19T09:11:22.639Z</time></trkpt><trkpt lat="43.6412297" lon="11.3755679"><ele>704.4</ele><time>2026-04-19T09:11:23.632Z</time></trkpt><trkpt lat="43.6412108" lon="11.3757314"><ele>705.0</ele><time>2026-04-19T09:11:25.641Z</time></trkpt><trkpt lat="43.6411741" lon="11.375868"><ele>705.0</ele><time>2026-04-19T09:11:27.639Z</time></trkpt><trkpt lat="43.6411326" lon="11.3759489"><ele>705.0</ele><time>2026-04-19T09:11:29.638Z</time></trkpt><trkpt lat="43.6410617" lon="11.3759723"><ele>705.0</ele><time>2026-04-19T09:11:32.646Z</time></trkpt><trkpt lat="43.6409913" lon="11.3759881"><ele>705.0</ele><time>2026-04-19T09:12:22.64Z</time></trkpt><trkpt lat="43.6408565" lon="11.3759044"><ele>705.0</ele><time>2026-04-19T09:12:25.636Z</time></trkpt><trkpt lat="43.6407571" lon="11.375808"><ele>705.0</ele><time>2026-04-19T09:12:27.642Z</time></trkpt><trkpt lat="43.6407064" lon="11.3757467"><ele>705.0</ele><time>2026-04-19T09:12:28.638Z</time></trkpt><trkpt lat="43.6406444" lon="11.3756869"><ele>705.0</ele><time>2026-04-19T09:12:29.64Z</time></trkpt><trkpt lat="43.6405723" lon="11.3756195"><ele>705.0</ele><time>2026-04-19T09:12:30.638Z</time></trkpt><trkpt lat="43.6405012" lon="11.3755446"><ele>705.0</ele><time>2026-04-19T09:12:31.636Z</time></trkpt><trkpt lat="43.6404248" lon="11.3754986"><ele>705.0</ele><time>2026-04-19T09:12:32.632Z</time></trkpt><trkpt lat="43.6403509" lon="11.3754624"><ele>704.5</ele><time>2026-04-19T09:12:33.635Z</time></trkpt><trkpt lat="43.6402557" lon="11.375418"><ele>704.0</ele><time>2026-04-19T09:12:34.631Z</time></trkpt><trkpt lat="43.6401543" lon="11.3753621"><ele>703.5</ele><time>2026-04-19T09:12:35.641Z</time></trkpt><trkpt lat="43.6400315" lon="11.3753022"><ele>703.0</ele><time>2026-04-19T09:12:36.643Z</time></trkpt><trkpt lat="43.6399151" lon="11.3752542"><ele>703.0</ele><time>2026-04-19T09:12:37.642Z</time></trkpt><trkpt lat="43.6398157" lon="11.3752254"><ele>703.0</ele><time>2026-04-19T09:12:38.64Z</time></trkpt><trkpt lat="43.6397137" lon="11.375214"><ele>703.0</ele><time>2026-04-19T09:12:39.643Z</time></trkpt><trkpt lat="43.6396232" lon="11.3752072"><ele>703.0</ele><time>2026-04-19T09:12:40.637Z</time></trkpt><trkpt lat="43.6395475" lon="11.3751991"><ele>703.0</ele><time>2026-04-19T09:12:41.637Z</time></trkpt><trkpt lat="43.6394462" lon="11.3751889"><ele>703.0</ele><time>2026-04-19T09:12:43.641Z</time></trkpt><trkpt lat="43.6392262" lon="11.3751371"><ele>703.0</ele><time>2026-04-19T09:12:47.646Z</time></trkpt><trkpt lat="43.6391505" lon="11.3751261"><ele>703.0</ele><time>2026-04-19T09:12:48.645Z</time></trkpt><trkpt lat="43.6390494" lon="11.3751242"><ele>703.0</ele><time>2026-04-19T09:12:50.635Z</time></trkpt><trkpt lat="43.6389402" lon="11.3751517"><ele>703.0</ele><time>2026-04-19T09:13:49.65Z</time></trkpt><trkpt lat="43.6387996" lon="11.3751752"><ele>703.0</ele><time>2026-04-19T09:13:51.638Z</time></trkpt><trkpt lat="43.6387257" lon="11.3751903"><ele>703.0</ele><time>2026-04-19T09:13:52.64Z</time></trkpt><trkpt lat="43.6386528" lon="11.3752"><ele>703.0</ele><time>2026-04-19T09:13:53.631Z</time></trkpt><trkpt lat="43.6385751" lon="11.3752071"><ele>703.0</ele><time>2026-04-19T09:13:54.638Z</time></trkpt><trkpt lat="43.6385023" lon="11.3751817"><ele>703.0</ele><time>2026-04-19T09:13:55.64Z</time></trkpt><trkpt lat="43.638432" lon="11.375141"><ele>701.7142857142857</ele><time>2026-04-19T09:13:56.638Z</time></trkpt><trkpt lat="43.6383724" lon="11.3750682"><ele>700.4285714285714</ele><time>2026-04-19T09:13:57.646Z</time></trkpt><trkpt lat="43.6383128" lon="11.3749989"><ele>699.1428571428571</ele><time>2026-04-19T09:13:58.644Z</time></trkpt><trkpt lat="43.6382564" lon="11.3749452"><ele>697.8571428571429</ele><time>2026-04-19T09:13:59.649Z</time></trkpt><trkpt lat="43.6381932" lon="11.3749336"><ele>696.5714285714286</ele><time>2026-04-19T09:14:00.634Z</time></trkpt><trkpt lat="43.6381292" lon="11.3749499"><ele>695.2857142857143</ele><time>2026-04-19T09:14:01.637Z</time></trkpt><trkpt lat="43.6380596" lon="11.3749826"><ele>694.0</ele><time>2026-04-19T09:14:02.638Z</time></trkpt><trkpt lat="43.6379745" lon="11.3750287"><ele>694.0</ele><time>2026-04-19T09:14:03.64Z</time></trkpt><trkpt lat="43.637893" lon="11.3750603"><ele>694.0</ele><time>2026-04-19T09:14:04.639Z</time></trkpt><trkpt lat="43.6378167" lon="11.3750749"><ele>694.0</ele><time>2026-04-19T09:14:05.64Z</time></trkpt><trkpt lat="43.6377483" lon="11.3750547"><ele>694.0</ele><time>2026-04-19T09:14:06.647Z</time></trkpt><trkpt lat="43.6376822" lon="11.3750009"><ele>694.0</ele><time>2026-04-19T09:14:07.642Z</time></trkpt><trkpt lat="43.637609" lon="11.3749376"><ele>694.0</ele><time>2026-04-19T09:14:08.638Z</time></trkpt><trkpt lat="43.6375277" lon="11.3748914"><ele>693.0</ele><time>2026-04-19T09:14:09.646Z</time></trkpt><trkpt lat="43.6374518" lon="11.3748445"><ele>692.0</ele><time>2026-04-19T09:14:10.637Z</time></trkpt><trkpt lat="43.6373113" lon="11.374856"><ele>691.0</ele><time>2026-04-19T09:14:12.639Z</time></trkpt><trkpt lat="43.6372523" lon="11.3749051"><ele>690.0</ele><time>2026-04-19T09:14:13.642Z</time></trkpt><trkpt lat="43.6371964" lon="11.3749576"><ele>689.0</ele><time>2026-04-19T09:14:14.646Z</time></trkpt><trkpt lat="43.6370771" lon="11.3749817"><ele>689.0</ele><time>2026-04-19T09:14:16.645Z</time></trkpt><trkpt lat="43.6369857" lon="11.3749246"><ele>689.0</ele><time>2026-04-19T09:14:17.645Z</time></trkpt><trkpt lat="43.6368886" lon="11.3748473"><ele>689.0</ele><time>2026-04-19T09:14:18.631Z</time></trkpt><trkpt lat="43.6367907" lon="11.3747708"><ele>689.0</ele><time>2026-04-19T09:14:19.638Z</time></trkpt><trkpt lat="43.6367032" lon="11.3746999"><ele>689.0</ele><time>2026-04-19T09:14:20.635Z</time></trkpt><trkpt lat="43.6366389" lon="11.3746313"><ele>686.1666666666666</ele><time>2026-04-19T09:14:21.649Z</time></trkpt><trkpt lat="43.6365536" lon="11.3745663"><ele>683.3333333333333</ele><time>2026-04-19T09:14:23.638Z</time></trkpt><trkpt lat="43.636456" lon="11.3745572"><ele>680.5</ele><time>2026-04-19T09:14:25.643Z</time></trkpt><trkpt lat="43.6363494" lon="11.3745085"><ele>677.6666666666666</ele><time>2026-04-19T09:14:27.644Z</time></trkpt><trkpt lat="43.6362853" lon="11.3744808"><ele>674.8333333333334</ele><time>2026-04-19T09:14:28.647Z</time></trkpt><trkpt lat="43.6362202" lon="11.3744479"><ele>672.0</ele><time>2026-04-19T09:14:29.646Z</time></trkpt><trkpt lat="43.6361517" lon="11.3743991"><ele>673.8</ele><time>2026-04-19T09:14:30.634Z</time></trkpt><trkpt lat="43.6360813" lon="11.3743241"><ele>675.6</ele><time>2026-04-19T09:14:31.638Z</time></trkpt><trkpt lat="43.6359551" lon="11.3741579"><ele>677.4</ele><time>2026-04-19T09:14:33.639Z</time></trkpt><trkpt lat="43.6358868" lon="11.3740894"><ele>679.1999999999999</ele><time>2026-04-19T09:14:34.646Z</time></trkpt><trkpt lat="43.6358246" lon="11.3740249"><ele>681.0</ele><time>2026-04-19T09:14:35.644Z</time></trkpt><trkpt lat="43.6357586" lon="11.3739786"><ele>681.0</ele><time>2026-04-19T09:14:36.637Z</time></trkpt><trkpt lat="43.6356867" lon="11.3739442"><ele>681.0</ele><time>2026-04-19T09:14:37.645Z</time></trkpt><trkpt lat="43.6356128" lon="11.3739218"><ele>681.0</ele><time>2026-04-19T09:14:38.635Z</time></trkpt><trkpt lat="43.6355388" lon="11.3739007"><ele>681.0</ele><time>2026-04-19T09:14:39.641Z</time></trkpt><trkpt lat="43.635464" lon="11.373872"><ele>681.0</ele><time>2026-04-19T09:14:40.638Z</time></trkpt><trkpt lat="43.6353402" lon="11.3738294"><ele>681.0</ele><time>2026-04-19T09:14:42.643Z</time></trkpt><trkpt lat="43.6352715" lon="11.3738211"><ele>680.8</ele><time>2026-04-19T09:14:43.646Z</time></trkpt><trkpt lat="43.6351985" lon="11.3737891"><ele>680.5999999999999</ele><time>2026-04-19T09:14:45.647Z</time></trkpt><trkpt lat="43.6351246" lon="11.3737595"><ele>680.4</ele><time>2026-04-19T09:14:49.646Z</time></trkpt><trkpt lat="43.6350731" lon="11.3737066"><ele>680.2</ele><time>2026-04-19T09:14:51.644Z</time></trkpt><trkpt lat="43.6350299" lon="11.3736184"><ele>680.0</ele><time>2026-04-19T09:14:54.65Z</time></trkpt><trkpt lat="43.6348214" lon="11.3733741"><ele>680.0</ele><time>2026-04-19T09:15:26.638Z</time></trkpt><trkpt lat="43.6347556" lon="11.3733217"><ele>680.0</ele><time>2026-04-19T09:15:27.641Z</time></trkpt><trkpt lat="43.6347032" lon="11.3732586"><ele>680.0</ele><time>2026-04-19T09:15:29.637Z</time></trkpt><trkpt lat="43.6346579" lon="11.3731694"><ele>680.0</ele><time>2026-04-19T09:15:51.634Z</time></trkpt><trkpt lat="43.6345673" lon="11.3730357"><ele>680.0</ele><time>2026-04-19T09:15:53.622Z</time></trkpt><trkpt lat="43.634492" lon="11.3729708"><ele>680.0</ele><time>2026-04-19T09:15:55.64Z</time></trkpt><trkpt lat="43.6344258" lon="11.3728807"><ele>684.0</ele><time>2026-04-19T09:15:57.643Z</time></trkpt><trkpt lat="43.6343649" lon="11.3727291"><ele>688.0</ele><time>2026-04-19T09:15:59.644Z</time></trkpt><trkpt lat="43.6343309" lon="11.3726382"><ele>692.0</ele><time>2026-04-19T09:16:00.641Z</time></trkpt><trkpt lat="43.6342937" lon="11.3725271"><ele>696.0</ele><time>2026-04-19T09:16:01.633Z</time></trkpt><trkpt lat="43.6342678" lon="11.3724286"><ele>700.0</ele><time>2026-04-19T09:16:02.631Z</time></trkpt><trkpt lat="43.6342595" lon="11.3723203"><ele>704.0</ele><time>2026-04-19T09:16:03.631Z</time></trkpt><trkpt lat="43.6342481" lon="11.372221"><ele>703.8000000000001</ele><time>2026-04-19T09:16:04.638Z</time></trkpt><trkpt lat="43.6342458" lon="11.3721295"><ele>703.6</ele><time>2026-04-19T09:16:05.639Z</time></trkpt><trkpt lat="43.634155" lon="11.3719069"><ele>703.4</ele><time>2026-04-19T09:16:08.639Z</time></trkpt><trkpt lat="43.6341009" lon="11.3718216"><ele>703.2</ele><time>2026-04-19T09:16:09.636Z</time></trkpt><trkpt lat="43.6340504" lon="11.371744"><ele>703.0</ele><time>2026-04-19T09:16:10.641Z</time></trkpt><trkpt lat="43.6340127" lon="11.3716551"><ele>703.0</ele><time>2026-04-19T09:16:11.637Z</time></trkpt><trkpt lat="43.633972" lon="11.3715802"><ele>703.0</ele><time>2026-04-19T09:16:12.632Z</time></trkpt><trkpt lat="43.6338422" lon="11.371484"><ele>703.0</ele><time>2026-04-19T09:16:14.641Z</time></trkpt><trkpt lat="43.6337649" lon="11.3714348"><ele>703.0</ele><time>2026-04-19T09:16:15.639Z</time></trkpt><trkpt lat="43.6336862" lon="11.3714024"><ele>703.0</ele><time>2026-04-19T09:16:16.647Z</time></trkpt><trkpt lat="43.6336029" lon="11.3713642"><ele>703.1666666666667</ele><time>2026-04-19T09:16:17.644Z</time></trkpt><trkpt lat="43.6335157" lon="11.3713348"><ele>703.3333333333334</ele><time>2026-04-19T09:16:18.637Z</time></trkpt><trkpt lat="43.6334284" lon="11.3712969"><ele>703.5</ele><time>2026-04-19T09:16:19.643Z</time></trkpt><trkpt lat="43.6333416" lon="11.3712611"><ele>703.6666666666666</ele><time>2026-04-19T09:16:20.644Z</time></trkpt><trkpt lat="43.6332733" lon="11.3712077"><ele>703.8333333333333</ele><time>2026-04-19T09:16:21.636Z</time></trkpt><trkpt lat="43.6332287" lon="11.371142"><ele>704.0</ele><time>2026-04-19T09:16:22.633Z</time></trkpt><trkpt lat="43.6331892" lon="11.3709634"><ele>704.0</ele><time>2026-04-19T09:16:24.641Z</time></trkpt><trkpt lat="43.6332132" lon="11.370752"><ele>704.0</ele><time>2026-04-19T09:16:26.639Z</time></trkpt><trkpt lat="43.6332288" lon="11.3706665"><ele>704.0</ele><time>2026-04-19T09:16:27.649Z</time></trkpt><trkpt lat="43.633249" lon="11.3705064"><ele>704.0</ele><time>2026-04-19T09:16:29.649Z</time></trkpt><trkpt lat="43.6332475" lon="11.3704128"><ele>704.0</ele><time>2026-04-19T09:16:30.638Z</time></trkpt><trkpt lat="43.6332435" lon="11.3703149"><ele>704.2</ele><time>2026-04-19T09:16:31.647Z</time></trkpt><trkpt lat="43.6332326" lon="11.3702153"><ele>704.4000000000001</ele><time>2026-04-19T09:16:32.646Z</time></trkpt><trkpt lat="43.6332249" lon="11.3701146"><ele>704.6</ele><time>2026-04-19T09:16:33.646Z</time></trkpt><trkpt lat="43.6332181" lon="11.3699188"><ele>704.8</ele><time>2026-04-19T09:16:35.642Z</time></trkpt><trkpt lat="43.6332538" lon="11.3697673"><ele>705.0</ele><time>2026-04-19T09:16:37.642Z</time></trkpt><trkpt lat="43.6332704" lon="11.3696828"><ele>705.1666666666666</ele><time>2026-04-19T09:16:38.642Z</time></trkpt><trkpt lat="43.6332321" lon="11.3695448"><ele>705.3333333333334</ele><time>2026-04-19T09:16:40.634Z</time></trkpt><trkpt lat="43.6331697" lon="11.3695104"><ele>705.5</ele><time>2026-04-19T09:16:41.63Z</time></trkpt><trkpt lat="43.6331097" lon="11.369438"><ele>705.6666666666667</ele><time>2026-04-19T09:16:42.641Z</time></trkpt><trkpt lat="43.6330501" lon="11.3693433"><ele>705.8333333333334</ele><time>2026-04-19T09:16:43.641Z</time></trkpt><trkpt lat="43.6330011" lon="11.3692493"><ele>706.0</ele><time>2026-04-19T09:16:44.642Z</time></trkpt><trkpt lat="43.6329371" lon="11.369185"><ele>706.0</ele><time>2026-04-19T09:16:45.639Z</time></trkpt><trkpt lat="43.6328639" lon="11.369131"><ele>706.0</ele><time>2026-04-19T09:16:46.644Z</time></trkpt><trkpt lat="43.6327945" lon="11.3690913"><ele>706.0</ele><time>2026-04-19T09:16:47.638Z</time></trkpt><trkpt lat="43.632739" lon="11.3690393"><ele>706.0</ele><time>2026-04-19T09:16:48.642Z</time></trkpt><trkpt lat="43.6326667" lon="11.3689139"><ele>706.0</ele><time>2026-04-19T09:16:50.634Z</time></trkpt><trkpt lat="43.6326717" lon="11.3688156"><ele>706.0</ele><time>2026-04-19T09:16:51.634Z</time></trkpt><trkpt lat="43.6326918" lon="11.3687269"><ele>705.5</ele><time>2026-04-19T09:16:52.646Z</time></trkpt><trkpt lat="43.6327246" lon="11.368632"><ele>705.0</ele><time>2026-04-19T09:16:54.636Z</time></trkpt><trkpt lat="43.6326549" lon="11.3687614"><ele>704.5</ele><time>2026-04-19T09:19:29.656Z</time></trkpt><trkpt lat="43.6325452" lon="11.3690219"><ele>704.0</ele><time>2026-04-19T09:19:34.625Z</time></trkpt><trkpt lat="43.6324919" lon="11.3691089"><ele>704.6666666666666</ele><time>2026-04-19T09:19:35.633Z</time></trkpt><trkpt lat="43.632446" lon="11.3691938"><ele>705.3333333333333</ele><time>2026-04-19T09:19:36.631Z</time></trkpt><trkpt lat="43.6323972" lon="11.369277"><ele>706.0</ele><time>2026-04-19T09:19:37.628Z</time></trkpt><trkpt lat="43.6323462" lon="11.3693545"><ele>706.6666666666666</ele><time>2026-04-19T09:19:38.626Z</time></trkpt><trkpt lat="43.6322849" lon="11.3694256"><ele>707.3333333333334</ele><time>2026-04-19T09:19:39.626Z</time></trkpt><trkpt lat="43.6322157" lon="11.3695076"><ele>708.0</ele><time>2026-04-19T09:19:40.636Z</time></trkpt><trkpt lat="43.6321501" lon="11.3695856"><ele>708.0</ele><time>2026-04-19T09:19:41.637Z</time></trkpt><trkpt lat="43.6320893" lon="11.3696641"><ele>708.0</ele><time>2026-04-19T09:19:42.64Z</time></trkpt><trkpt lat="43.6320285" lon="11.369754"><ele>708.0</ele><time>2026-04-19T09:19:43.64Z</time></trkpt><trkpt lat="43.63198" lon="11.3698346"><ele>708.0</ele><time>2026-04-19T09:19:44.637Z</time></trkpt><trkpt lat="43.6319338" lon="11.369917"><ele>708.0</ele><time>2026-04-19T09:19:45.642Z</time></trkpt><trkpt lat="43.6318853" lon="11.3699977"><ele>708.0</ele><time>2026-04-19T09:19:46.638Z</time></trkpt><trkpt lat="43.6318353" lon="11.3700891"><ele>706.0</ele><time>2026-04-19T09:19:47.638Z</time></trkpt><trkpt lat="43.6317875" lon="11.3701901"><ele>704.0</ele><time>2026-04-19T09:19:48.633Z</time></trkpt><trkpt lat="43.6317444" lon="11.3703011"><ele>702.0</ele><time>2026-04-19T09:19:49.636Z</time></trkpt><trkpt lat="43.6317032" lon="11.3704177"><ele>700.0</ele><time>2026-04-19T09:19:50.646Z</time></trkpt><trkpt lat="43.6316284" lon="11.3706482"><ele>699.8</ele><time>2026-04-19T09:19:52.639Z</time></trkpt><trkpt lat="43.6316093" lon="11.3707743"><ele>699.6</ele><time>2026-04-19T09:19:53.639Z</time></trkpt><trkpt lat="43.6316047" lon="11.3708979"><ele>699.4000000000001</ele><time>2026-04-19T09:19:54.639Z</time></trkpt><trkpt lat="43.631605" lon="11.3710284"><ele>699.2</ele><time>2026-04-19T09:19:55.635Z</time></trkpt><trkpt lat="43.6316263" lon="11.3711436"><ele>699.0</ele><time>2026-04-19T09:19:56.636Z</time></trkpt><trkpt lat="43.6316646" lon="11.3712626"><ele>698.1666666666666</ele><time>2026-04-19T09:19:57.634Z</time></trkpt><trkpt lat="43.6317012" lon="11.3713595"><ele>697.3333333333334</ele><time>2026-04-19T09:19:58.635Z</time></trkpt><trkpt lat="43.6317457" lon="11.3714569"><ele>696.5</ele><time>2026-04-19T09:19:59.642Z</time></trkpt><trkpt lat="43.6317776" lon="11.3715344"><ele>695.6666666666667</ele><time>2026-04-19T09:20:00.631Z</time></trkpt><trkpt lat="43.6318115" lon="11.3716117"><ele>694.8333333333334</ele><time>2026-04-19T09:20:01.635Z</time></trkpt><trkpt lat="43.6319033" lon="11.3717241"><ele>694.0</ele><time>2026-04-19T09:20:03.644Z</time></trkpt><trkpt lat="43.6319726" lon="11.3717301"><ele>695.3333333333334</ele><time>2026-04-19T09:20:04.632Z</time></trkpt><trkpt lat="43.6320525" lon="11.3717358"><ele>696.6666666666667</ele><time>2026-04-19T09:20:05.636Z</time></trkpt><trkpt lat="43.6321324" lon="11.3717514"><ele>698.0</ele><time>2026-04-19T09:20:06.633Z</time></trkpt><trkpt lat="43.632207" lon="11.3717911"><ele>699.3333333333334</ele><time>2026-04-19T09:20:07.635Z</time></trkpt><trkpt lat="43.6322737" lon="11.3718593"><ele>700.6666666666666</ele><time>2026-04-19T09:20:08.631Z</time></trkpt><trkpt lat="43.6323333" lon="11.3719218"><ele>702.0</ele><time>2026-04-19T09:20:09.634Z</time></trkpt><trkpt lat="43.6323909" lon="11.3719941"><ele>702.0</ele><time>2026-04-19T09:20:10.634Z</time></trkpt><trkpt lat="43.6324533" lon="11.3720648"><ele>702.0</ele><time>2026-04-19T09:20:11.639Z</time></trkpt><trkpt lat="43.6325752" lon="11.3721064"><ele>702.0</ele><time>2026-04-19T09:20:13.634Z</time></trkpt><trkpt lat="43.6326521" lon="11.3720817"><ele>702.0</ele><time>2026-04-19T09:20:14.634Z</time></trkpt><trkpt lat="43.6327213" lon="11.3720411"><ele>702.0</ele><time>2026-04-19T09:20:15.635Z</time></trkpt><trkpt lat="43.6327896" lon="11.372017"><ele>702.0</ele><time>2026-04-19T09:20:16.633Z</time></trkpt><trkpt lat="43.6329243" lon="11.3720423"><ele>702.1666666666666</ele><time>2026-04-19T09:20:18.634Z</time></trkpt><trkpt lat="43.6330093" lon="11.3720786"><ele>702.3333333333334</ele><time>2026-04-19T09:20:19.638Z</time></trkpt><trkpt lat="43.633096" lon="11.3721117"><ele>702.5</ele><time>2026-04-19T09:20:20.639Z</time></trkpt><trkpt lat="43.63318" lon="11.3721553"><ele>702.6666666666667</ele><time>2026-04-19T09:20:21.633Z</time></trkpt><trkpt lat="43.6332466" lon="11.3722128"><ele>702.8333333333334</ele><time>2026-04-19T09:20:22.633Z</time></trkpt><trkpt lat="43.6333" lon="11.3722764"><ele>703.0</ele><time>2026-04-19T09:20:23.638Z</time></trkpt><trkpt lat="43.633336" lon="11.3723654"><ele>701.6666666666667</ele><time>2026-04-19T09:20:24.641Z</time></trkpt><trkpt lat="43.63337" lon="11.3724721"><ele>700.3333333333334</ele><time>2026-04-19T09:20:25.644Z</time></trkpt><trkpt lat="43.6333934" lon="11.3725785"><ele>699.0</ele><time>2026-04-19T09:20:26.636Z</time></trkpt><trkpt lat="43.6334146" lon="11.3726931"><ele>697.6666666666666</ele><time>2026-04-19T09:20:27.644Z</time></trkpt><trkpt lat="43.6334411" lon="11.3728106"><ele>696.3333333333333</ele><time>2026-04-19T09:20:28.64Z</time></trkpt><trkpt lat="43.6334744" lon="11.3729348"><ele>695.0</ele><time>2026-04-19T09:20:29.645Z</time></trkpt><trkpt lat="43.6335084" lon="11.3730639"><ele>692.75</ele><time>2026-04-19T09:20:30.633Z</time></trkpt><trkpt lat="43.6335328" lon="11.3731696"><ele>690.5</ele><time>2026-04-19T09:20:31.634Z</time></trkpt><trkpt lat="43.6335275" lon="11.3733205"><ele>688.25</ele><time>2026-04-19T09:20:33.635Z</time></trkpt><trkpt lat="43.6335383" lon="11.3735823"><ele>686.0</ele><time>2026-04-19T09:20:37.641Z</time></trkpt><trkpt lat="43.6335947" lon="11.3737068"><ele>687.1999999999999</ele><time>2026-04-19T09:20:39.64Z</time></trkpt><trkpt lat="43.6336844" lon="11.3737802"><ele>688.4</ele><time>2026-04-19T09:20:41.64Z</time></trkpt><trkpt lat="43.6337885" lon="11.3737136"><ele>689.6</ele><time>2026-04-19T09:20:43.637Z</time></trkpt><trkpt lat="43.6338441" lon="11.3736464"><ele>690.8</ele><time>2026-04-19T09:20:44.636Z</time></trkpt><trkpt lat="43.633898" lon="11.3735825"><ele>692.0</ele><time>2026-04-19T09:20:45.644Z</time></trkpt><trkpt lat="43.6339855" lon="11.3734823"><ele>692.0</ele><time>2026-04-19T09:20:47.638Z</time></trkpt><trkpt lat="43.6340461" lon="11.3734284"><ele>692.0</ele><time>2026-04-19T09:20:48.632Z</time></trkpt><trkpt lat="43.6341093" lon="11.3733938"><ele>692.0</ele><time>2026-04-19T09:20:49.642Z</time></trkpt><trkpt lat="43.6341858" lon="11.3734273"><ele>692.0</ele><time>2026-04-19T09:20:50.639Z</time></trkpt><trkpt lat="43.6342655" lon="11.3734657"><ele>692.0</ele><time>2026-04-19T09:20:51.627Z</time></trkpt><trkpt lat="43.6343346" lon="11.3734741"><ele>692.0</ele><time>2026-04-19T09:20:52.628Z</time></trkpt><trkpt lat="43.6344094" lon="11.3734432"><ele>689.6</ele><time>2026-04-19T09:20:53.625Z</time></trkpt><trkpt lat="43.6344879" lon="11.3734195"><ele>687.2</ele><time>2026-04-19T09:20:54.628Z</time></trkpt><trkpt lat="43.6346212" lon="11.3734156"><ele>684.8</ele><time>2026-04-19T09:20:56.64Z</time></trkpt><trkpt lat="43.6347447" lon="11.3734334"><ele>682.4</ele><time>2026-04-19T09:20:58.641Z</time></trkpt><trkpt lat="43.6348223" lon="11.3734265"><ele>680.0</ele><time>2026-04-19T09:21:00.633Z</time></trkpt><trkpt lat="43.6348865" lon="11.3734449"><ele>680.0</ele><time>2026-04-19T09:21:08.63Z</time></trkpt><trkpt lat="43.6349673" lon="11.3735385"><ele>680.0</ele><time>2026-04-19T09:21:10.641Z</time></trkpt><trkpt lat="43.6350606" lon="11.3736721"><ele>680.0</ele><time>2026-04-19T09:21:12.635Z</time></trkpt><trkpt lat="43.6351027" lon="11.3738476"><ele>680.0</ele><time>2026-04-19T09:21:14.637Z</time></trkpt><trkpt lat="43.6351037" lon="11.3739565"><ele>678.3333333333333</ele><time>2026-04-19T09:21:15.642Z</time></trkpt><trkpt lat="43.6351206" lon="11.3741665"><ele>676.6666666666666</ele><time>2026-04-19T09:22:15.636Z</time></trkpt><trkpt lat="43.6352406" lon="11.3744512"><ele>675.0</ele><time>2026-04-19T09:22:18.643Z</time></trkpt><trkpt lat="43.6352851" lon="11.374555"><ele>676.0</ele><time>2026-04-19T09:22:19.642Z</time></trkpt><trkpt lat="43.6353375" lon="11.3746474"><ele>677.0</ele><time>2026-04-19T09:22:20.634Z</time></trkpt><trkpt lat="43.6353934" lon="11.3747494"><ele>678.0</ele><time>2026-04-19T09:22:21.635Z</time></trkpt><trkpt lat="43.6354339" lon="11.3748514"><ele>679.0</ele><time>2026-04-19T09:22:22.643Z</time></trkpt><trkpt lat="43.6354616" lon="11.3749496"><ele>680.0</ele><time>2026-04-19T09:22:23.639Z</time></trkpt><trkpt lat="43.6354736" lon="11.3750524"><ele>681.0</ele><time>2026-04-19T09:22:24.643Z</time></trkpt><trkpt lat="43.635468" lon="11.3751591"><ele>682.1428571428572</ele><time>2026-04-19T09:22:25.651Z</time></trkpt><trkpt lat="43.6354502" lon="11.3752617"><ele>683.2857142857143</ele><time>2026-04-19T09:22:26.648Z</time></trkpt><trkpt lat="43.6354338" lon="11.3753655"><ele>684.4285714285714</ele><time>2026-04-19T09:22:27.65Z</time></trkpt><trkpt lat="43.6354274" lon="11.375456"><ele>685.5714285714287</ele><time>2026-04-19T09:22:28.645Z</time></trkpt><trkpt lat="43.6354262" lon="11.3755577"><ele>686.7142857142858</ele><time>2026-04-19T09:22:29.648Z</time></trkpt><trkpt lat="43.6354372" lon="11.375654"><ele>687.8571428571429</ele><time>2026-04-19T09:22:30.632Z</time></trkpt><trkpt lat="43.6354596" lon="11.375742"><ele>689.0</ele><time>2026-04-19T09:22:31.647Z</time></trkpt><trkpt lat="43.6354933" lon="11.3758443"><ele>689.3333333333333</ele><time>2026-04-19T09:22:32.645Z</time></trkpt><trkpt lat="43.635525" lon="11.3759363"><ele>689.6666666666666</ele><time>2026-04-19T09:22:33.644Z</time></trkpt><trkpt lat="43.6355679" lon="11.3760031"><ele>690.0</ele><time>2026-04-19T09:22:34.647Z</time></trkpt><trkpt lat="43.6356181" lon="11.376068"><ele>690.3333333333334</ele><time>2026-04-19T09:22:35.644Z</time></trkpt><trkpt lat="43.6356716" lon="11.3761331"><ele>690.6666666666667</ele><time>2026-04-19T09:22:36.645Z</time></trkpt><trkpt lat="43.6357734" lon="11.3762765"><ele>691.0</ele><time>2026-04-19T09:22:38.642Z</time></trkpt><trkpt lat="43.6358307" lon="11.3763272"><ele>690.8333333333334</ele><time>2026-04-19T09:22:39.645Z</time></trkpt><trkpt lat="43.6358839" lon="11.3763803"><ele>690.6666666666667</ele><time>2026-04-19T09:22:40.646Z</time></trkpt><trkpt lat="43.6359671" lon="11.3764995"><ele>690.5</ele><time>2026-04-19T09:22:42.642Z</time></trkpt><trkpt lat="43.6359902" lon="11.3765997"><ele>690.3333333333334</ele><time>2026-04-19T09:22:43.64Z</time></trkpt><trkpt lat="43.6359904" lon="11.3766917"><ele>690.1666666666666</ele><time>2026-04-19T09:22:44.634Z</time></trkpt><trkpt lat="43.6359594" lon="11.3767839"><ele>690.0</ele><time>2026-04-19T09:22:45.646Z</time></trkpt><trkpt lat="43.6359046" lon="11.3768757"><ele>690.0</ele><time>2026-04-19T09:22:46.65Z</time></trkpt><trkpt lat="43.6358584" lon="11.3769582"><ele>690.0</ele><time>2026-04-19T09:22:47.645Z</time></trkpt><trkpt lat="43.6358189" lon="11.377043"><ele>690.0</ele><time>2026-04-19T09:22:48.643Z</time></trkpt><trkpt lat="43.6358055" lon="11.377134"><ele>690.0</ele><time>2026-04-19T09:22:49.635Z</time></trkpt><trkpt lat="43.6358049" lon="11.3772387"><ele>690.0</ele><time>2026-04-19T09:22:50.633Z</time></trkpt><trkpt lat="43.6358257" lon="11.3773486"><ele>690.0</ele><time>2026-04-19T09:22:51.644Z</time></trkpt><trkpt lat="43.6358506" lon="11.3774506"><ele>690.0</ele><time>2026-04-19T09:22:52.642Z</time></trkpt><trkpt lat="43.6359128" lon="11.3775506"><ele>690.0</ele><time>2026-04-19T09:22:54.631Z</time></trkpt><trkpt lat="43.6359838" lon="11.3775743"><ele>690.0</ele><time>2026-04-19T09:22:55.634Z</time></trkpt><trkpt lat="43.6360602" lon="11.3776069"><ele>690.0</ele><time>2026-04-19T09:22:56.643Z</time></trkpt><trkpt lat="43.6361201" lon="11.3776522"><ele>690.0</ele><time>2026-04-19T09:22:57.642Z</time></trkpt><trkpt lat="43.6363205" lon="11.3778099"><ele>691.6666666666666</ele><time>2026-04-19T09:23:01.646Z</time></trkpt><trkpt lat="43.6363804" lon="11.3778371"><ele>693.3333333333334</ele><time>2026-04-19T09:23:02.647Z</time></trkpt><trkpt lat="43.6364749" lon="11.3779058"><ele>695.0</ele><time>2026-04-19T09:23:04.642Z</time></trkpt><trkpt lat="43.6365502" lon="11.3779896"><ele>696.6666666666667</ele><time>2026-04-19T09:23:06.646Z</time></trkpt><trkpt lat="43.636636" lon="11.3780667"><ele>698.3333333333334</ele><time>2026-04-19T09:23:08.644Z</time></trkpt><trkpt lat="43.6366907" lon="11.3781337"><ele>700.0</ele><time>2026-04-19T09:23:09.636Z</time></trkpt><trkpt lat="43.6367365" lon="11.378215"><ele>700.0</ele><time>2026-04-19T09:23:10.635Z</time></trkpt><trkpt lat="43.6367652" lon="11.3783034"><ele>700.0</ele><time>2026-04-19T09:23:11.645Z</time></trkpt><trkpt lat="43.6367792" lon="11.3783968"><ele>700.0</ele><time>2026-04-19T09:23:12.643Z</time></trkpt><trkpt lat="43.6367893" lon="11.3785022"><ele>700.0</ele><time>2026-04-19T09:23:13.638Z</time></trkpt><trkpt lat="43.6367814" lon="11.3785975"><ele>700.0</ele><time>2026-04-19T09:23:14.63Z</time></trkpt><trkpt lat="43.6367679" lon="11.3786875"><ele>700.0</ele><time>2026-04-19T09:23:15.635Z</time></trkpt><trkpt lat="43.6367202" lon="11.378863"><ele>700.25</ele><time>2026-04-19T09:23:17.632Z</time></trkpt><trkpt lat="43.6367329" lon="11.3790253"><ele>700.5</ele><time>2026-04-19T09:23:19.635Z</time></trkpt><trkpt lat="43.6367784" lon="11.3793145"><ele>700.75</ele><time>2026-04-19T09:23:22.632Z</time></trkpt><trkpt lat="43.6367963" lon="11.3794077"><ele>701.0</ele><time>2026-04-19T09:23:23.636Z</time></trkpt><trkpt lat="43.6368212" lon="11.3795096"><ele>701.0</ele><time>2026-04-19T09:23:24.642Z</time></trkpt><trkpt lat="43.6368509" lon="11.3795975"><ele>701.0</ele><time>2026-04-19T09:23:25.638Z</time></trkpt><trkpt lat="43.6369361" lon="11.3796725"><ele>701.0</ele><time>2026-04-19T09:23:27.642Z</time></trkpt><trkpt lat="43.6370311" lon="11.3797682"><ele>701.0</ele><time>2026-04-19T09:23:29.636Z</time></trkpt><trkpt lat="43.6370756" lon="11.3798301"><ele>701.0</ele><time>2026-04-19T09:23:30.638Z</time></trkpt><trkpt lat="43.6371317" lon="11.3799143"><ele>701.0</ele><time>2026-04-19T09:23:33.648Z</time></trkpt><trkpt lat="43.6371899" lon="11.3799576"><ele>703.25</ele><time>2026-04-19T09:23:36.641Z</time></trkpt><trkpt lat="43.6372529" lon="11.3799852"><ele>705.5</ele><time>2026-04-19T09:23:38.644Z</time></trkpt><trkpt lat="43.6373406" lon="11.3800386"><ele>707.75</ele><time>2026-04-19T09:23:40.635Z</time></trkpt><trkpt lat="43.6374667" lon="11.3802389"><ele>710.0</ele><time>2026-04-19T09:23:44.643Z</time></trkpt><trkpt lat="43.6375201" lon="11.3803585"><ele>710.0</ele><time>2026-04-19T09:23:46.644Z</time></trkpt><trkpt lat="43.6375509" lon="11.3804887"><ele>710.0</ele><time>2026-04-19T09:23:48.642Z</time></trkpt><trkpt lat="43.637587" lon="11.3805783"><ele>710.0</ele><time>2026-04-19T09:23:50.643Z</time></trkpt><trkpt lat="43.6376542" lon="11.3807201"><ele>710.0</ele><time>2026-04-19T09:23:52.636Z</time></trkpt><trkpt lat="43.6376883" lon="11.3808311"><ele>710.0</ele><time>2026-04-19T09:23:53.635Z</time></trkpt><trkpt lat="43.637723" lon="11.3809395"><ele>709.5714285714286</ele><time>2026-04-19T09:23:54.64Z</time></trkpt><trkpt lat="43.6377479" lon="11.3810506"><ele>709.1428571428571</ele><time>2026-04-19T09:23:55.64Z</time></trkpt><trkpt lat="43.6377669" lon="11.381156"><ele>708.7142857142858</ele><time>2026-04-19T09:23:56.64Z</time></trkpt><trkpt lat="43.6377805" lon="11.3812549"><ele>708.2857142857142</ele><time>2026-04-19T09:23:57.644Z</time></trkpt><trkpt lat="43.6377833" lon="11.3813473"><ele>707.8571428571429</ele><time>2026-04-19T09:23:58.646Z</time></trkpt><trkpt lat="43.6377877" lon="11.38145"><ele>707.4285714285714</ele><time>2026-04-19T09:23:59.644Z</time></trkpt><trkpt lat="43.6378173" lon="11.3815414"><ele>707.0</ele><time>2026-04-19T09:24:00.639Z</time></trkpt><trkpt lat="43.6378851" lon="11.3816214"><ele>707.0</ele><time>2026-04-19T09:24:01.642Z</time></trkpt><trkpt lat="43.63802" lon="11.3817145"><ele>707.0</ele><time>2026-04-19T09:24:03.645Z</time></trkpt><trkpt lat="43.6380836" lon="11.381751"><ele>707.0</ele><time>2026-04-19T09:24:06.644Z</time></trkpt><trkpt lat="43.6381487" lon="11.3818075"><ele>707.0</ele><time>2026-04-19T09:24:59.643Z</time></trkpt><trkpt lat="43.6383117" lon="11.3819745"><ele>707.0</ele><time>2026-04-19T09:25:02.643Z</time></trkpt><trkpt lat="43.6383806" lon="11.3820725"><ele>707.0</ele><time>2026-04-19T09:25:03.64Z</time></trkpt><trkpt lat="43.6384451" lon="11.3821673"><ele>707.0</ele><time>2026-04-19T09:25:04.639Z</time></trkpt><trkpt lat="43.638486" lon="11.382266"><ele>707.0</ele><time>2026-04-19T09:25:05.64Z</time></trkpt><trkpt lat="43.6385035" lon="11.3823733"><ele>707.0</ele><time>2026-04-19T09:25:06.638Z</time></trkpt><trkpt lat="43.6385277" lon="11.3824764"><ele>707.0</ele><time>2026-04-19T09:25:07.638Z</time></trkpt><trkpt lat="43.6385605" lon="11.3825786"><ele>707.0</ele><time>2026-04-19T09:25:08.636Z</time></trkpt><trkpt lat="43.6386111" lon="11.3826761"><ele>707.0</ele><time>2026-04-19T09:25:09.635Z</time></trkpt><trkpt lat="43.6386826" lon="11.3827649"><ele>707.0</ele><time>2026-04-19T09:25:10.633Z</time></trkpt><trkpt lat="43.6387665" lon="11.3828505"><ele>707.0</ele><time>2026-04-19T09:25:11.637Z</time></trkpt><trkpt lat="43.6388383" lon="11.382945"><ele>707.0</ele><time>2026-04-19T09:25:12.632Z</time></trkpt><trkpt lat="43.6388971" lon="11.383039"><ele>707.0</ele><time>2026-04-19T09:25:13.63Z</time></trkpt><trkpt lat="43.6389614" lon="11.3831148"><ele>707.0</ele><time>2026-04-19T09:25:14.635Z</time></trkpt><trkpt lat="43.6390179" lon="11.3831907"><ele>707.0</ele><time>2026-04-19T09:25:15.641Z</time></trkpt><trkpt lat="43.6390473" lon="11.3833353"><ele>707.0</ele><time>2026-04-19T09:25:17.646Z</time></trkpt><trkpt lat="43.6389852" lon="11.3834512"><ele>707.0</ele><time>2026-04-19T09:25:19.644Z</time></trkpt><trkpt lat="43.6389004" lon="11.3834726"><ele>707.0</ele><time>2026-04-19T09:25:20.641Z</time></trkpt><trkpt lat="43.6386943" lon="11.3834979"><ele>707.0</ele><time>2026-04-19T09:25:22.638Z</time></trkpt><trkpt lat="43.6386088" lon="11.3835135"><ele>707.0</ele><time>2026-04-19T09:25:23.627Z</time></trkpt><trkpt lat="43.6384832" lon="11.3835429"><ele>707.0</ele><time>2026-04-19T09:25:25.633Z</time></trkpt><trkpt lat="43.6383775" lon="11.3836045"><ele>706.2</ele><time>2026-04-19T09:25:27.638Z</time></trkpt><trkpt lat="43.638279" lon="11.3836304"><ele>705.4000000000001</ele><time>2026-04-19T09:25:29.628Z</time></trkpt><trkpt lat="43.6381548" lon="11.3835787"><ele>704.5999999999999</ele><time>2026-04-19T09:25:31.634Z</time></trkpt><trkpt lat="43.6380903" lon="11.3835471"><ele>703.8</ele><time>2026-04-19T09:25:32.639Z</time></trkpt><trkpt lat="43.6380231" lon="11.383523"><ele>703.0</ele><time>2026-04-19T09:25:33.639Z</time></trkpt><trkpt lat="43.6379372" lon="11.3835087"><ele>703.0</ele><time>2026-04-19T09:25:34.637Z</time></trkpt><trkpt lat="43.6378522" lon="11.3835189"><ele>703.0</ele><time>2026-04-19T09:25:35.64Z</time></trkpt><trkpt lat="43.6377826" lon="11.383538"><ele>703.0</ele><time>2026-04-19T09:25:36.628Z</time></trkpt><trkpt lat="43.6377001" lon="11.3836076"><ele>703.0</ele><time>2026-04-19T09:25:38.64Z</time></trkpt><trkpt lat="43.6376156" lon="11.3836769"><ele>703.0</ele><time>2026-04-19T09:25:40.636Z</time></trkpt><trkpt lat="43.637526" lon="11.3837465"><ele>706.3333333333334</ele><time>2026-04-19T09:25:42.64Z</time></trkpt><trkpt lat="43.6373861" lon="11.3838516"><ele>709.6666666666667</ele><time>2026-04-19T09:25:45.642Z</time></trkpt><trkpt lat="43.6373245" lon="11.3838956"><ele>713.0</ele><time>2026-04-19T09:25:46.635Z</time></trkpt><trkpt lat="43.637257" lon="11.3839219"><ele>716.3333333333334</ele><time>2026-04-19T09:25:47.633Z</time></trkpt><trkpt lat="43.6371947" lon="11.383961"><ele>719.6666666666666</ele><time>2026-04-19T09:25:48.635Z</time></trkpt><trkpt lat="43.6371341" lon="11.3839946"><ele>723.0</ele><time>2026-04-19T09:25:49.631Z</time></trkpt><trkpt lat="43.6370668" lon="11.3840092"><ele>723.0</ele><time>2026-04-19T09:25:50.631Z</time></trkpt><trkpt lat="43.6369916" lon="11.3840253"><ele>723.0</ele><time>2026-04-19T09:25:51.634Z</time></trkpt><trkpt lat="43.6369177" lon="11.384043"><ele>723.0</ele><time>2026-04-19T09:25:52.641Z</time></trkpt><trkpt lat="43.6368448" lon="11.3840436"><ele>723.0</ele><time>2026-04-19T09:25:53.633Z</time></trkpt><trkpt lat="43.6367789" lon="11.3840534"><ele>723.0</ele><time>2026-04-19T09:25:54.63Z</time></trkpt><trkpt lat="43.6367181" lon="11.384081"><ele>723.0</ele><time>2026-04-19T09:25:55.636Z</time></trkpt><trkpt lat="43.6366117" lon="11.3841416"><ele>723.5999999999999</ele><time>2026-04-19T09:25:57.639Z</time></trkpt><trkpt lat="43.6365486" lon="11.3841785"><ele>724.1999999999999</ele><time>2026-04-19T09:25:58.634Z</time></trkpt><trkpt lat="43.6364785" lon="11.3842197"><ele>724.8</ele><time>2026-04-19T09:25:59.644Z</time></trkpt><trkpt lat="43.6363645" lon="11.3842893"><ele>725.4</ele><time>2026-04-19T09:26:01.641Z</time></trkpt><trkpt lat="43.6362537" lon="11.3843637"><ele>726.0</ele><time>2026-04-19T09:26:03.643Z</time></trkpt><trkpt lat="43.6361049" lon="11.38451"><ele>724.8</ele><time>2026-04-19T09:26:06.638Z</time></trkpt><trkpt lat="43.636026" lon="11.3846598"><ele>723.5999999999999</ele><time>2026-04-19T09:26:08.638Z</time></trkpt><trkpt lat="43.6359849" lon="11.3847671"><ele>722.4</ele><time>2026-04-19T09:26:09.636Z</time></trkpt><trkpt lat="43.635957" lon="11.3848674"><ele>721.2</ele><time>2026-04-19T09:26:10.641Z</time></trkpt><trkpt lat="43.6359296" lon="11.3849723"><ele>720.0</ele><time>2026-04-19T09:26:11.641Z</time></trkpt><trkpt lat="43.6359018" lon="11.385072"><ele>720.0</ele><time>2026-04-19T09:26:12.638Z</time></trkpt><trkpt lat="43.6358644" lon="11.3851753"><ele>720.0</ele><time>2026-04-19T09:26:13.633Z</time></trkpt><trkpt lat="43.6358188" lon="11.3852684"><ele>720.0</ele><time>2026-04-19T09:26:14.632Z</time></trkpt><trkpt lat="43.6357495" lon="11.3854108"><ele>720.0</ele><time>2026-04-19T09:26:16.636Z</time></trkpt><trkpt lat="43.6357096" lon="11.3854899"><ele>720.0</ele><time>2026-04-19T09:26:17.633Z</time></trkpt><trkpt lat="43.6356659" lon="11.3855621"><ele>720.0</ele><time>2026-04-19T09:26:18.633Z</time></trkpt><trkpt lat="43.635624" lon="11.3856425"><ele>717.6</ele><time>2026-04-19T09:26:19.631Z</time></trkpt><trkpt lat="43.6355678" lon="11.3857278"><ele>715.2</ele><time>2026-04-19T09:26:20.635Z</time></trkpt><trkpt lat="43.6355037" lon="11.3858083"><ele>712.8</ele><time>2026-04-19T09:26:21.632Z</time></trkpt><trkpt lat="43.6354428" lon="11.3858762"><ele>710.4</ele><time>2026-04-19T09:26:22.634Z</time></trkpt><trkpt lat="43.6353614" lon="11.3859976"><ele>708.0</ele><time>2026-04-19T09:26:24.631Z</time></trkpt><trkpt lat="43.6352576" lon="11.3861911"><ele>708.0</ele><time>2026-04-19T09:26:28.639Z</time></trkpt><trkpt lat="43.6351908" lon="11.3863121"><ele>708.0</ele><time>2026-04-19T09:26:30.638Z</time></trkpt><trkpt lat="43.6351477" lon="11.3863841"><ele>708.0</ele><time>2026-04-19T09:26:31.63Z</time></trkpt><trkpt lat="43.635095" lon="11.386455"><ele>708.0</ele><time>2026-04-19T09:26:32.629Z</time></trkpt><trkpt lat="43.6350055" lon="11.3865448"><ele>708.0</ele><time>2026-04-19T09:26:34.626Z</time></trkpt><trkpt lat="43.6349205" lon="11.3866566"><ele>712.4</ele><time>2026-04-19T09:26:36.63Z</time></trkpt><trkpt lat="43.63487" lon="11.3867138"><ele>716.8</ele><time>2026-04-19T09:26:37.631Z</time></trkpt><trkpt lat="43.6347687" lon="11.3867377"><ele>721.2</ele><time>2026-04-19T09:26:39.628Z</time></trkpt><trkpt lat="43.6346753" lon="11.3866989"><ele>725.6</ele><time>2026-04-19T09:26:40.628Z</time></trkpt><trkpt lat="43.6345817" lon="11.3866418"><ele>730.0</ele><time>2026-04-19T09:26:41.631Z</time></trkpt><trkpt lat="43.6345086" lon="11.3865861"><ele>727.8</ele><time>2026-04-19T09:26:42.633Z</time></trkpt><trkpt lat="43.634447" lon="11.3865156"><ele>725.6</ele><time>2026-04-19T09:26:43.638Z</time></trkpt><trkpt lat="43.6343626" lon="11.3864235"><ele>723.4000000000001</ele><time>2026-04-19T09:26:45.634Z</time></trkpt><trkpt lat="43.6342114" lon="11.3864618"><ele>721.2</ele><time>2026-04-19T09:26:48.627Z</time></trkpt><trkpt lat="43.6341267" lon="11.3865128"><ele>719.0</ele><time>2026-04-19T09:26:49.628Z</time></trkpt><trkpt lat="43.6340428" lon="11.386573"><ele>719.0</ele><time>2026-04-19T09:26:50.629Z</time></trkpt><trkpt lat="43.6339641" lon="11.3866414"><ele>719.0</ele><time>2026-04-19T09:26:51.628Z</time></trkpt><trkpt lat="43.6338852" lon="11.3867112"><ele>719.0</ele><time>2026-04-19T09:26:52.634Z</time></trkpt><trkpt lat="43.6338159" lon="11.3867881"><ele>719.0</ele><time>2026-04-19T09:26:53.638Z</time></trkpt><trkpt lat="43.6337488" lon="11.3868618"><ele>719.0</ele><time>2026-04-19T09:26:54.638Z</time></trkpt><trkpt lat="43.6336865" lon="11.3869382"><ele>719.0</ele><time>2026-04-19T09:26:55.637Z</time></trkpt><trkpt lat="43.6336346" lon="11.3870136"><ele>717.1666666666666</ele><time>2026-04-19T09:26:56.638Z</time></trkpt><trkpt lat="43.6335874" lon="11.3871"><ele>715.3333333333333</ele><time>2026-04-19T09:26:57.637Z</time></trkpt><trkpt lat="43.6335304" lon="11.3871762"><ele>713.5</ele><time>2026-04-19T09:26:58.638Z</time></trkpt><trkpt lat="43.6334671" lon="11.3872465"><ele>711.6666666666666</ele><time>2026-04-19T09:26:59.642Z</time></trkpt><trkpt lat="43.6334027" lon="11.3873327"><ele>709.8333333333334</ele><time>2026-04-19T09:27:00.638Z</time></trkpt><trkpt lat="43.6333496" lon="11.3874228"><ele>708.0</ele><time>2026-04-19T09:27:01.635Z</time></trkpt><trkpt lat="43.6333106" lon="11.3875212"><ele>708.0</ele><time>2026-04-19T09:27:02.628Z</time></trkpt><trkpt lat="43.6332813" lon="11.3876421"><ele>708.0</ele><time>2026-04-19T09:27:03.632Z</time></trkpt><trkpt lat="43.6332541" lon="11.3877728"><ele>708.0</ele><time>2026-04-19T09:27:04.636Z</time></trkpt><trkpt lat="43.6332433" lon="11.3879023"><ele>708.0</ele><time>2026-04-19T09:27:05.636Z</time></trkpt><trkpt lat="43.6332384" lon="11.3880248"><ele>708.0</ele><time>2026-04-19T09:27:06.631Z</time></trkpt><trkpt lat="43.6332519" lon="11.3882501"><ele>709.3333333333334</ele><time>2026-04-19T09:27:08.629Z</time></trkpt><trkpt lat="43.6332657" lon="11.388353"><ele>710.6666666666666</ele><time>2026-04-19T09:27:09.627Z</time></trkpt><trkpt lat="43.6332702" lon="11.3884652"><ele>712.0</ele><time>2026-04-19T09:27:10.631Z</time></trkpt><trkpt lat="43.6332735" lon="11.3885705"><ele>713.3333333333333</ele><time>2026-04-19T09:27:11.628Z</time></trkpt><trkpt lat="43.6332767" lon="11.3886695"><ele>714.6666666666666</ele><time>2026-04-19T09:27:12.632Z</time></trkpt><trkpt lat="43.6332842" lon="11.3887582"><ele>716.0</ele><time>2026-04-19T09:27:13.628Z</time></trkpt><trkpt lat="43.6332778" lon="11.3889104"><ele>717.0</ele><time>2026-04-19T09:27:15.631Z</time></trkpt><trkpt lat="43.6332025" lon="11.3889969"><ele>718.0</ele><time>2026-04-19T09:27:17.646Z</time></trkpt><trkpt lat="43.6331174" lon="11.3890218"><ele>719.0</ele><time>2026-04-19T09:27:18.641Z</time></trkpt><trkpt lat="43.6330201" lon="11.3890166"><ele>720.0</ele><time>2026-04-19T09:27:19.633Z</time></trkpt><trkpt lat="43.6329138" lon="11.388982"><ele>721.0</ele><time>2026-04-19T09:27:20.64Z</time></trkpt><trkpt lat="43.6328246" lon="11.3889921"><ele>718.8333333333334</ele><time>2026-04-19T09:27:21.629Z</time></trkpt><trkpt lat="43.6327434" lon="11.3890208"><ele>716.6666666666667</ele><time>2026-04-19T09:27:22.634Z</time></trkpt><trkpt lat="43.6326552" lon="11.3890674"><ele>714.5</ele><time>2026-04-19T09:27:23.625Z</time></trkpt><trkpt lat="43.6325929" lon="11.3891367"><ele>712.3333333333334</ele><time>2026-04-19T09:27:24.637Z</time></trkpt><trkpt lat="43.6325191" lon="11.3891981"><ele>710.1666666666666</ele><time>2026-04-19T09:27:25.637Z</time></trkpt><trkpt lat="43.6324452" lon="11.3892663"><ele>708.0</ele><time>2026-04-19T09:27:26.631Z</time></trkpt><trkpt lat="43.6323888" lon="11.3893304"><ele>708.0</ele><time>2026-04-19T09:27:27.634Z</time></trkpt><trkpt lat="43.6322897" lon="11.3895474"><ele>708.0</ele><time>2026-04-19T09:27:29.633Z</time></trkpt><trkpt lat="43.6322399" lon="11.3896429"><ele>708.0</ele><time>2026-04-19T09:27:30.641Z</time></trkpt><trkpt lat="43.6321992" lon="11.3897412"><ele>708.0</ele><time>2026-04-19T09:27:31.634Z</time></trkpt><trkpt lat="43.6321933" lon="11.3898409"><ele>708.0</ele><time>2026-04-19T09:27:32.638Z</time></trkpt><trkpt lat="43.6322253" lon="11.3899394"><ele>708.5</ele><time>2026-04-19T09:27:33.629Z</time></trkpt><trkpt lat="43.6322773" lon="11.3900073"><ele>709.0</ele><time>2026-04-19T09:27:34.633Z</time></trkpt><trkpt lat="43.6323409" lon="11.3900835"><ele>709.5</ele><time>2026-04-19T09:27:35.636Z</time></trkpt><trkpt lat="43.6323929" lon="11.3901353"><ele>710.0</ele><time>2026-04-19T09:27:36.64Z</time></trkpt><trkpt lat="43.6324446" lon="11.3901868"><ele>710.5</ele><time>2026-04-19T09:27:37.634Z</time></trkpt><trkpt lat="43.6325637" lon="11.3902602"><ele>711.0</ele><time>2026-04-19T09:27:39.631Z</time></trkpt><trkpt lat="43.6326489" lon="11.3903825"><ele>711.0</ele><time>2026-04-19T09:27:41.637Z</time></trkpt><trkpt lat="43.6326809" lon="11.3904754"><ele>711.0</ele><time>2026-04-19T09:27:42.641Z</time></trkpt><trkpt lat="43.6327224" lon="11.3905564"><ele>711.0</ele><time>2026-04-19T09:27:43.632Z</time></trkpt><trkpt lat="43.6327662" lon="11.390623"><ele>711.0</ele><time>2026-04-19T09:27:44.632Z</time></trkpt><trkpt lat="43.6328208" lon="11.3906819"><ele>711.0</ele><time>2026-04-19T09:27:45.638Z</time></trkpt><trkpt lat="43.6328961" lon="11.3907294"><ele>711.0</ele><time>2026-04-19T09:27:46.634Z</time></trkpt><trkpt lat="43.6329684" lon="11.3907944"><ele>714.1999999999999</ele><time>2026-04-19T09:27:47.639Z</time></trkpt><trkpt lat="43.6330342" lon="11.3908547"><ele>717.4</ele><time>2026-04-19T09:27:48.637Z</time></trkpt><trkpt lat="43.6331662" lon="11.3909466"><ele>720.6</ele><time>2026-04-19T09:27:50.638Z</time></trkpt><trkpt lat="43.6332314" lon="11.3909871"><ele>723.8</ele><time>2026-04-19T09:27:51.636Z</time></trkpt><trkpt lat="43.6333052" lon="11.3910286"><ele>727.0</ele><time>2026-04-19T09:27:52.635Z</time></trkpt><trkpt lat="43.6333803" lon="11.3910674"><ele>727.0</ele><time>2026-04-19T09:27:53.634Z</time></trkpt><trkpt lat="43.6334576" lon="11.3911001"><ele>727.0</ele><time>2026-04-19T09:27:54.638Z</time></trkpt><trkpt lat="43.6335364" lon="11.3911155"><ele>727.0</ele><time>2026-04-19T09:27:55.632Z</time></trkpt><trkpt lat="43.6336178" lon="11.3911232"><ele>727.0</ele><time>2026-04-19T09:27:56.637Z</time></trkpt><trkpt lat="43.6336924" lon="11.3911424"><ele>727.0</ele><time>2026-04-19T09:27:57.636Z</time></trkpt><trkpt lat="43.633773" lon="11.3911646"><ele>727.0</ele><time>2026-04-19T09:27:58.635Z</time></trkpt><trkpt lat="43.6338556" lon="11.3912037"><ele>725.8333333333334</ele><time>2026-04-19T09:27:59.634Z</time></trkpt><trkpt lat="43.6339288" lon="11.391242"><ele>724.6666666666667</ele><time>2026-04-19T09:28:00.63Z</time></trkpt><trkpt lat="43.634012" lon="11.3912762"><ele>723.5</ele><time>2026-04-19T09:28:01.632Z</time></trkpt><trkpt lat="43.6340868" lon="11.3913076"><ele>722.3333333333334</ele><time>2026-04-19T09:28:02.624Z</time></trkpt><trkpt lat="43.6341651" lon="11.3913308"><ele>721.1666666666666</ele><time>2026-04-19T09:28:03.638Z</time></trkpt><trkpt lat="43.6342452" lon="11.3913438"><ele>720.0</ele><time>2026-04-19T09:28:04.633Z</time></trkpt><trkpt lat="43.6343321" lon="11.391373"><ele>720.0</ele><time>2026-04-19T09:28:05.632Z</time></trkpt><trkpt lat="43.6344154" lon="11.3913853"><ele>720.0</ele><time>2026-04-19T09:28:06.631Z</time></trkpt><trkpt lat="43.634493" lon="11.3913891"><ele>720.0</ele><time>2026-04-19T09:28:07.63Z</time></trkpt><trkpt lat="43.6345799" lon="11.391391"><ele>720.0</ele><time>2026-04-19T09:28:08.633Z</time></trkpt><trkpt lat="43.6346516" lon="11.3914018"><ele>720.0</ele><time>2026-04-19T09:28:09.634Z</time></trkpt><trkpt lat="43.6347912" lon="11.3915279"><ele>721.6666666666666</ele><time>2026-04-19T09:28:11.635Z</time></trkpt><trkpt lat="43.634846" lon="11.3916084"><ele>723.3333333333334</ele><time>2026-04-19T09:28:12.636Z</time></trkpt><trkpt lat="43.6348951" lon="11.3916737"><ele>725.0</ele><time>2026-04-19T09:28:13.633Z</time></trkpt><trkpt lat="43.6349607" lon="11.3917207"><ele>726.6666666666667</ele><time>2026-04-19T09:28:14.63Z</time></trkpt><trkpt lat="43.6350369" lon="11.3917591"><ele>728.3333333333334</ele><time>2026-04-19T09:28:15.628Z</time></trkpt><trkpt lat="43.6351189" lon="11.3917811"><ele>730.0</ele><time>2026-04-19T09:28:16.628Z</time></trkpt><trkpt lat="43.6351942" lon="11.3917899"><ele>730.0</ele><time>2026-04-19T09:28:17.634Z</time></trkpt><trkpt lat="43.6352684" lon="11.3918112"><ele>730.0</ele><time>2026-04-19T09:28:18.635Z</time></trkpt><trkpt lat="43.6353553" lon="11.3918231"><ele>730.0</ele><time>2026-04-19T09:28:19.634Z</time></trkpt><trkpt lat="43.6354232" lon="11.3918313"><ele>730.0</ele><time>2026-04-19T09:28:20.638Z</time></trkpt><trkpt lat="43.635546" lon="11.3918077"><ele>730.0</ele><time>2026-04-19T09:28:22.63Z</time></trkpt><trkpt lat="43.635658" lon="11.3918039"><ele>729.4</ele><time>2026-04-19T09:28:24.633Z</time></trkpt><trkpt lat="43.6357753" lon="11.3917278"><ele>728.8</ele><time>2026-04-19T09:28:26.635Z</time></trkpt><trkpt lat="43.6358387" lon="11.391688"><ele>728.2</ele><time>2026-04-19T09:28:27.634Z</time></trkpt><trkpt lat="43.6359068" lon="11.3916722"><ele>727.6</ele><time>2026-04-19T09:28:28.621Z</time></trkpt><trkpt lat="43.6359896" lon="11.3916667"><ele>727.0</ele><time>2026-04-19T09:28:30.636Z</time></trkpt><trkpt lat="43.6362095" lon="11.3917744"><ele>727.8571428571428</ele><time>2026-04-19T09:31:01.638Z</time></trkpt><trkpt lat="43.6362171" lon="11.3918632"><ele>728.7142857142858</ele><time>2026-04-19T09:31:04.637Z</time></trkpt><trkpt lat="43.6361966" lon="11.3919497"><ele>729.5714285714286</ele><time>2026-04-19T09:31:06.635Z</time></trkpt><trkpt lat="43.6361752" lon="11.3920853"><ele>730.4285714285713</ele><time>2026-04-19T09:31:08.629Z</time></trkpt><trkpt lat="43.636151" lon="11.3921741"><ele>731.2857142857142</ele><time>2026-04-19T09:31:09.619Z</time></trkpt><trkpt lat="43.636118" lon="11.3922591"><ele>732.1428571428571</ele><time>2026-04-19T09:31:10.63Z</time></trkpt><trkpt lat="43.6360852" lon="11.392354"><ele>733.0</ele><time>2026-04-19T09:31:11.631Z</time></trkpt><trkpt lat="43.636061" lon="11.3924518"><ele>728.2</ele><time>2026-04-19T09:31:12.626Z</time></trkpt><trkpt lat="43.6360378" lon="11.3925499"><ele>723.4</ele><time>2026-04-19T09:31:13.621Z</time></trkpt><trkpt lat="43.636013" lon="11.3926378"><ele>718.6</ele><time>2026-04-19T09:31:14.631Z</time></trkpt><trkpt lat="43.6359532" lon="11.3927766"><ele>713.8000000000001</ele><time>2026-04-19T09:31:16.633Z</time></trkpt><trkpt lat="43.6358436" lon="11.3929039"><ele>709.0</ele><time>2026-04-19T09:31:18.63Z</time></trkpt><trkpt lat="43.6357864" lon="11.392965"><ele>710.0</ele><time>2026-04-19T09:31:19.621Z</time></trkpt><trkpt lat="43.6357216" lon="11.3930205"><ele>711.0</ele><time>2026-04-19T09:31:20.626Z</time></trkpt><trkpt lat="43.6356655" lon="11.3930685"><ele>712.0</ele><time>2026-04-19T09:31:21.623Z</time></trkpt><trkpt lat="43.6356143" lon="11.3931363"><ele>713.0</ele><time>2026-04-19T09:31:22.623Z</time></trkpt><trkpt lat="43.6355476" lon="11.3932149"><ele>714.0</ele><time>2026-04-19T09:31:23.627Z</time></trkpt><trkpt lat="43.6354742" lon="11.3932848"><ele>715.0</ele><time>2026-04-19T09:31:24.629Z</time></trkpt><trkpt lat="43.6354077" lon="11.3933599"><ele>715.0</ele><time>2026-04-19T09:31:25.624Z</time></trkpt><trkpt lat="43.6353296" lon="11.3934247"><ele>715.0</ele><time>2026-04-19T09:31:26.625Z</time></trkpt><trkpt lat="43.6352641" lon="11.3935029"><ele>715.0</ele><time>2026-04-19T09:31:27.634Z</time></trkpt><trkpt lat="43.6351996" lon="11.3935752"><ele>715.0</ele><time>2026-04-19T09:31:28.63Z</time></trkpt><trkpt lat="43.6351353" lon="11.3936577"><ele>715.0</ele><time>2026-04-19T09:31:29.632Z</time></trkpt><trkpt lat="43.6350724" lon="11.3937367"><ele>715.0</ele><time>2026-04-19T09:31:30.631Z</time></trkpt><trkpt lat="43.6350249" lon="11.3938141"><ele>712.8571428571429</ele><time>2026-04-19T09:31:31.627Z</time></trkpt><trkpt lat="43.6349911" lon="11.3938944"><ele>710.7142857142857</ele><time>2026-04-19T09:31:32.625Z</time></trkpt><trkpt lat="43.6349767" lon="11.3939819"><ele>708.5714285714286</ele><time>2026-04-19T09:31:33.622Z</time></trkpt><trkpt lat="43.6349674" lon="11.394076"><ele>706.4285714285714</ele><time>2026-04-19T09:31:34.63Z</time></trkpt><trkpt lat="43.6349774" lon="11.394178"><ele>704.2857142857142</ele><time>2026-04-19T09:31:35.634Z</time></trkpt><trkpt lat="43.6349891" lon="11.3942877"><ele>702.1428571428571</ele><time>2026-04-19T09:31:36.634Z</time></trkpt><trkpt lat="43.634998" lon="11.394388"><ele>700.0</ele><time>2026-04-19T09:31:37.639Z</time></trkpt><trkpt lat="43.6350527" lon="11.394588"><ele>698.5</ele><time>2026-04-19T09:31:39.637Z</time></trkpt><trkpt lat="43.6350881" lon="11.3946823"><ele>697.0</ele><time>2026-04-19T09:31:40.632Z</time></trkpt><trkpt lat="43.6351388" lon="11.3947705"><ele>695.5</ele><time>2026-04-19T09:31:41.631Z</time></trkpt><trkpt lat="43.6351882" lon="11.3948668"><ele>694.0</ele><time>2026-04-19T09:31:42.628Z</time></trkpt><trkpt lat="43.6352351" lon="11.3949467"><ele>692.5</ele><time>2026-04-19T09:31:43.625Z</time></trkpt><trkpt lat="43.6352854" lon="11.3950188"><ele>691.0</ele><time>2026-04-19T09:31:44.625Z</time></trkpt><trkpt lat="43.6353276" lon="11.3950981"><ele>691.8333333333334</ele><time>2026-04-19T09:31:45.631Z</time></trkpt><trkpt lat="43.6353646" lon="11.3951849"><ele>692.6666666666667</ele><time>2026-04-19T09:31:46.627Z</time></trkpt><trkpt lat="43.6353983" lon="11.3952812"><ele>693.5</ele><time>2026-04-19T09:31:47.621Z</time></trkpt><trkpt lat="43.6354337" lon="11.3953794"><ele>694.3333333333334</ele><time>2026-04-19T09:31:48.619Z</time></trkpt><trkpt lat="43.6354761" lon="11.3954894"><ele>695.1666666666666</ele><time>2026-04-19T09:31:49.625Z</time></trkpt><trkpt lat="43.6355166" lon="11.395588"><ele>696.0</ele><time>2026-04-19T09:31:50.626Z</time></trkpt><trkpt lat="43.6355472" lon="11.3956903"><ele>696.0</ele><time>2026-04-19T09:31:51.627Z</time></trkpt><trkpt lat="43.6355736" lon="11.3957861"><ele>696.0</ele><time>2026-04-19T09:31:52.624Z</time></trkpt><trkpt lat="43.6355758" lon="11.3959473"><ele>696.0</ele><time>2026-04-19T09:31:54.623Z</time></trkpt><trkpt lat="43.6355386" lon="11.3960341"><ele>696.0</ele><time>2026-04-19T09:31:55.621Z</time></trkpt><trkpt lat="43.6354754" lon="11.3961355"><ele>696.0</ele><time>2026-04-19T09:31:56.622Z</time></trkpt><trkpt lat="43.6353916" lon="11.3962432"><ele>693.0</ele><time>2026-04-19T09:31:57.636Z</time></trkpt><trkpt lat="43.6352677" lon="11.3963627"><ele>690.0</ele><time>2026-04-19T09:31:58.634Z</time></trkpt><trkpt lat="43.6350726" lon="11.3965573"><ele>687.0</ele><time>2026-04-19T09:32:00.631Z</time></trkpt><trkpt lat="43.6349979" lon="11.3966378"><ele>687.0</ele><time>2026-04-19T09:32:01.629Z</time></trkpt><trkpt lat="43.6349265" lon="11.396707"><ele>687.0</ele><time>2026-04-19T09:32:02.632Z</time></trkpt><trkpt lat="43.6348539" lon="11.3967577"><ele>687.0</ele><time>2026-04-19T09:32:03.623Z</time></trkpt><trkpt lat="43.6347776" lon="11.3967727"><ele>687.0</ele><time>2026-04-19T09:32:04.622Z</time></trkpt><trkpt lat="43.6346995" lon="11.3967744"><ele>687.0</ele><time>2026-04-19T09:32:05.629Z</time></trkpt><trkpt lat="43.6346227" lon="11.396762"><ele>687.0</ele><time>2026-04-19T09:32:06.626Z</time></trkpt><trkpt lat="43.6345438" lon="11.3967419"><ele>688.0</ele><time>2026-04-19T09:32:07.633Z</time></trkpt><trkpt lat="43.6344513" lon="11.396722"><ele>689.0</ele><time>2026-04-19T09:32:08.628Z</time></trkpt><trkpt lat="43.6343494" lon="11.3967041"><ele>690.0</ele><time>2026-04-19T09:32:09.625Z</time></trkpt><trkpt lat="43.6342609" lon="11.3966649"><ele>691.0</ele><time>2026-04-19T09:32:10.63Z</time></trkpt><trkpt lat="43.6341817" lon="11.3966293"><ele>692.0</ele><time>2026-04-19T09:32:11.626Z</time></trkpt><trkpt lat="43.6341173" lon="11.3965943"><ele>693.0</ele><time>2026-04-19T09:32:12.623Z</time></trkpt><trkpt lat="43.6340351" lon="11.3966113"><ele>693.0</ele><time>2026-04-19T09:32:14.631Z</time></trkpt><trkpt lat="43.6340598" lon="11.3967749"><ele>693.0</ele><time>2026-04-19T09:32:16.625Z</time></trkpt><trkpt lat="43.634077" lon="11.3968866"><ele>693.0</ele><time>2026-04-19T09:32:17.615Z</time></trkpt><trkpt lat="43.6340699" lon="11.3969823"><ele>693.0</ele><time>2026-04-19T09:32:18.61Z</time></trkpt><trkpt lat="43.6340678" lon="11.3970739"><ele>693.0</ele><time>2026-04-19T09:32:21.621Z</time></trkpt><trkpt lat="43.6337795" lon="11.3972669"><ele>694.0</ele><time>2026-04-19T09:33:23.629Z</time></trkpt><trkpt lat="43.6336676" lon="11.3972771"><ele>695.0</ele><time>2026-04-19T09:33:24.629Z</time></trkpt><trkpt lat="43.6335842" lon="11.3972745"><ele>696.0</ele><time>2026-04-19T09:33:25.623Z</time></trkpt><trkpt lat="43.63352" lon="11.3972684"><ele>697.0</ele><time>2026-04-19T09:33:26.625Z</time></trkpt><trkpt lat="43.6334494" lon="11.3973016"><ele>698.0</ele><time>2026-04-19T09:33:27.624Z</time></trkpt><trkpt lat="43.6333738" lon="11.3973481"><ele>699.0</ele><time>2026-04-19T09:33:28.628Z</time></trkpt><trkpt lat="43.6332958" lon="11.3974006"><ele>699.0</ele><time>2026-04-19T09:33:29.631Z</time></trkpt><trkpt lat="43.6332263" lon="11.3974325"><ele>699.0</ele><time>2026-04-19T09:33:30.622Z</time></trkpt><trkpt lat="43.6331334" lon="11.397461"><ele>699.0</ele><time>2026-04-19T09:33:31.625Z</time></trkpt><trkpt lat="43.633026" lon="11.3974841"><ele>699.0</ele><time>2026-04-19T09:33:32.624Z</time></trkpt><trkpt lat="43.6328998" lon="11.3975092"><ele>699.0</ele><time>2026-04-19T09:33:33.624Z</time></trkpt><trkpt lat="43.6327697" lon="11.397532"><ele>698.2</ele><time>2026-04-19T09:33:34.627Z</time></trkpt><trkpt lat="43.6326543" lon="11.3975839"><ele>697.4000000000001</ele><time>2026-04-19T09:33:35.622Z</time></trkpt><trkpt lat="43.6325489" lon="11.3976114"><ele>696.6</ele><time>2026-04-19T09:33:36.629Z</time></trkpt><trkpt lat="43.6324609" lon="11.3976474"><ele>695.8</ele><time>2026-04-19T09:33:37.63Z</time></trkpt><trkpt lat="43.6323922" lon="11.3976958"><ele>695.0</ele><time>2026-04-19T09:33:38.634Z</time></trkpt><trkpt lat="43.6323233" lon="11.3977637"><ele>695.0</ele><time>2026-04-19T09:33:39.629Z</time></trkpt><trkpt lat="43.6322494" lon="11.39786"><ele>695.0</ele><time>2026-04-19T09:33:40.632Z</time></trkpt><trkpt lat="43.6321679" lon="11.3979533"><ele>695.0</ele><time>2026-04-19T09:33:41.634Z</time></trkpt><trkpt lat="43.6320058" lon="11.3981264"><ele>695.0</ele><time>2026-04-19T09:33:43.629Z</time></trkpt><trkpt lat="43.6319318" lon="11.398216"><ele>693.4</ele><time>2026-04-19T09:33:44.634Z</time></trkpt><trkpt lat="43.6318709" lon="11.3983091"><ele>691.8</ele><time>2026-04-19T09:33:45.629Z</time></trkpt><trkpt lat="43.6318196" lon="11.3983822"><ele>690.2</ele><time>2026-04-19T09:33:46.633Z</time></trkpt><trkpt lat="43.6317662" lon="11.3985265"><ele>688.6</ele><time>2026-04-19T09:33:48.636Z</time></trkpt><trkpt lat="43.6318017" lon="11.3986968"><ele>687.0</ele><time>2026-04-19T09:33:50.622Z</time></trkpt><trkpt lat="43.6318465" lon="11.3987744"><ele>688.1666666666666</ele><time>2026-04-19T09:33:51.632Z</time></trkpt><trkpt lat="43.6318941" lon="11.3988552"><ele>689.3333333333334</ele><time>2026-04-19T09:33:52.632Z</time></trkpt><trkpt lat="43.6319361" lon="11.3989293"><ele>690.5</ele><time>2026-04-19T09:33:53.633Z</time></trkpt><trkpt lat="43.6320118" lon="11.3990465"><ele>691.6666666666667</ele><time>2026-04-19T09:33:55.628Z</time></trkpt><trkpt lat="43.6320568" lon="11.3991127"><ele>692.8333333333334</ele><time>2026-04-19T09:33:56.628Z</time></trkpt><trkpt lat="43.632116" lon="11.3991871"><ele>694.0</ele><time>2026-04-19T09:33:57.627Z</time></trkpt><trkpt lat="43.6321787" lon="11.399252"><ele>694.0</ele><time>2026-04-19T09:33:58.629Z</time></trkpt><trkpt lat="43.6322566" lon="11.3993086"><ele>694.0</ele><time>2026-04-19T09:33:59.629Z</time></trkpt><trkpt lat="43.6323216" lon="11.3993606"><ele>694.0</ele><time>2026-04-19T09:34:00.625Z</time></trkpt><trkpt lat="43.6323768" lon="11.3994206"><ele>694.0</ele><time>2026-04-19T09:34:01.619Z</time></trkpt><trkpt lat="43.6324278" lon="11.3994991"><ele>694.0</ele><time>2026-04-19T09:34:02.619Z</time></trkpt><trkpt lat="43.6325011" lon="11.3996998"><ele>691.1666666666667</ele><time>2026-04-19T09:34:04.62Z</time></trkpt><trkpt lat="43.6325444" lon="11.3997898"><ele>688.3333333333334</ele><time>2026-04-19T09:34:05.625Z</time></trkpt><trkpt lat="43.6325879" lon="11.3998918"><ele>685.5</ele><time>2026-04-19T09:34:06.631Z</time></trkpt><trkpt lat="43.6326223" lon="11.400005"><ele>682.6666666666666</ele><time>2026-04-19T09:34:07.629Z</time></trkpt><trkpt lat="43.6326519" lon="11.4001118"><ele>679.8333333333333</ele><time>2026-04-19T09:34:08.629Z</time></trkpt><trkpt lat="43.6326702" lon="11.4002219"><ele>677.0</ele><time>2026-04-19T09:34:09.628Z</time></trkpt><trkpt lat="43.6326982" lon="11.4003305"><ele>676.9999999999999</ele><time>2026-04-19T09:34:10.625Z</time></trkpt><trkpt lat="43.6327356" lon="11.4004273"><ele>677.0</ele><time>2026-04-19T09:34:11.63Z</time></trkpt><trkpt lat="43.632779" lon="11.4005216"><ele>677.0</ele><time>2026-04-19T09:34:12.63Z</time></trkpt><trkpt lat="43.6328134" lon="11.4006162"><ele>677.0</ele><time>2026-04-19T09:34:13.63Z</time></trkpt><trkpt lat="43.632841" lon="11.4007069"><ele>677.0</ele><time>2026-04-19T09:34:14.631Z</time></trkpt><trkpt lat="43.6328585" lon="11.4007979"><ele>676.9999999999999</ele><time>2026-04-19T09:34:15.622Z</time></trkpt><trkpt lat="43.6328487" lon="11.4008862"><ele>677.0</ele><time>2026-04-19T09:34:16.629Z</time></trkpt><trkpt lat="43.6328227" lon="11.400978"><ele>676.8</ele><time>2026-04-19T09:34:17.629Z</time></trkpt><trkpt lat="43.6327851" lon="11.4010701"><ele>676.6</ele><time>2026-04-19T09:34:18.629Z</time></trkpt><trkpt lat="43.6327415" lon="11.4011714"><ele>676.4</ele><time>2026-04-19T09:34:19.627Z</time></trkpt><trkpt lat="43.6326991" lon="11.4012826"><ele>676.1999999999999</ele><time>2026-04-19T09:34:20.634Z</time></trkpt><trkpt lat="43.6326509" lon="11.4013975"><ele>676.0</ele><time>2026-04-19T09:34:21.635Z</time></trkpt><trkpt lat="43.6326028" lon="11.401522"><ele>676.0</ele><time>2026-04-19T09:34:22.633Z</time></trkpt><trkpt lat="43.6325578" lon="11.4016449"><ele>676.0</ele><time>2026-04-19T09:34:23.63Z</time></trkpt><trkpt lat="43.6324978" lon="11.4018335"><ele>676.0</ele><time>2026-04-19T09:34:25.626Z</time></trkpt><trkpt lat="43.6324034" lon="11.401908"><ele>676.0</ele><time>2026-04-19T09:34:27.622Z</time></trkpt><trkpt lat="43.6323241" lon="11.4019077"><ele>676.0</ele><time>2026-04-19T09:34:28.624Z</time></trkpt><trkpt lat="43.6322307" lon="11.4018989"><ele>676.0</ele><time>2026-04-19T09:34:29.628Z</time></trkpt><trkpt lat="43.6321582" lon="11.401892"><ele>676.0</ele><time>2026-04-19T09:34:30.626Z</time></trkpt><trkpt lat="43.6320926" lon="11.4019291"><ele>676.0</ele><time>2026-04-19T09:34:31.635Z</time></trkpt><trkpt lat="43.6320706" lon="11.4020462"><ele>676.0</ele><time>2026-04-19T09:34:33.628Z</time></trkpt><trkpt lat="43.632167" lon="11.4020895"><ele>676.0</ele><time>2026-04-19T09:34:35.622Z</time></trkpt><trkpt lat="43.632236" lon="11.4021196"><ele>676.0</ele><time>2026-04-19T09:34:36.623Z</time></trkpt><trkpt lat="43.632298" lon="11.4021583"><ele>677.5</ele><time>2026-04-19T09:34:37.626Z</time></trkpt><trkpt lat="43.6323631" lon="11.4022074"><ele>679.0</ele><time>2026-04-19T09:34:38.627Z</time></trkpt><trkpt lat="43.6324359" lon="11.402279"><ele>680.5</ele><time>2026-04-19T09:34:39.631Z</time></trkpt><trkpt lat="43.6325116" lon="11.4023683"><ele>682.0</ele><time>2026-04-19T09:34:40.636Z</time></trkpt><trkpt lat="43.6325816" lon="11.4024598"><ele>683.5</ele><time>2026-04-19T09:34:41.627Z</time></trkpt><trkpt lat="43.63262" lon="11.4025558"><ele>685.0</ele><time>2026-04-19T09:34:42.631Z</time></trkpt><trkpt lat="43.6326396" lon="11.4026479"><ele>685.0</ele><time>2026-04-19T09:34:43.628Z</time></trkpt><trkpt lat="43.6326519" lon="11.4027858"><ele>685.0</ele><time>2026-04-19T09:34:44.627Z</time></trkpt><trkpt lat="43.6326576" lon="11.4031076"><ele>685.0</ele><time>2026-04-19T09:34:46.631Z</time></trkpt><trkpt lat="43.6326739" lon="11.4032364"><ele>685.0</ele><time>2026-04-19T09:34:47.62Z</time></trkpt><trkpt lat="43.632681" lon="11.4033432"><ele>685.5</ele><time>2026-04-19T09:34:48.625Z</time></trkpt><trkpt lat="43.6326869" lon="11.4034426"><ele>686.0</ele><time>2026-04-19T09:34:49.621Z</time></trkpt><trkpt lat="43.6326875" lon="11.4035485"><ele>686.5</ele><time>2026-04-19T09:34:50.626Z</time></trkpt><trkpt lat="43.6326825" lon="11.4036701"><ele>687.0</ele><time>2026-04-19T09:34:51.625Z</time></trkpt><trkpt lat="43.6326805" lon="11.403805"><ele>687.5</ele><time>2026-04-19T09:34:52.633Z</time></trkpt><trkpt lat="43.632668" lon="11.4039349"><ele>688.0</ele><time>2026-04-19T09:34:53.633Z</time></trkpt><trkpt lat="43.6326559" lon="11.4040409"><ele>688.5</ele><time>2026-04-19T09:34:54.637Z</time></trkpt><trkpt lat="43.6326377" lon="11.4041257"><ele>689.0</ele><time>2026-04-19T09:34:56.626Z</time></trkpt><trkpt lat="43.632612" lon="11.4042563"><ele>689.5</ele><time>2026-04-19T09:35:39.636Z</time></trkpt><trkpt lat="43.6325391" lon="11.4044903"><ele>690.0</ele><time>2026-04-19T09:35:42.632Z</time></trkpt><trkpt lat="43.6325287" lon="11.4046605"><ele>688.2</ele><time>2026-04-19T09:35:44.637Z</time></trkpt><trkpt lat="43.6325617" lon="11.4048102"><ele>686.4</ele><time>2026-04-19T09:35:46.643Z</time></trkpt><trkpt lat="43.6325976" lon="11.4049516"><ele>684.5999999999999</ele><time>2026-04-19T09:35:48.628Z</time></trkpt><trkpt lat="43.6325913" lon="11.4050423"><ele>682.8</ele><time>2026-04-19T09:35:49.638Z</time></trkpt><trkpt lat="43.6325947" lon="11.4051313"><ele>681.0</ele><time>2026-04-19T09:35:50.636Z</time></trkpt><trkpt lat="43.6326153" lon="11.4052808"><ele>681.0000000000001</ele><time>2026-04-19T09:35:52.634Z</time></trkpt><trkpt lat="43.6325575" lon="11.4053532"><ele>681.0</ele><time>2026-04-19T09:35:54.645Z</time></trkpt><trkpt lat="43.6324902" lon="11.4053394"><ele>681.0</ele><time>2026-04-19T09:35:55.626Z</time></trkpt><trkpt lat="43.6324162" lon="11.4053071"><ele>681.0</ele><time>2026-04-19T09:35:56.634Z</time></trkpt><trkpt lat="43.6323361" lon="11.4052934"><ele>681.0</ele><time>2026-04-19T09:35:57.639Z</time></trkpt><trkpt lat="43.6322655" lon="11.4053169"><ele>681.0000000000001</ele><time>2026-04-19T09:35:58.632Z</time></trkpt><trkpt lat="43.632214" lon="11.4053754"><ele>681.0</ele><time>2026-04-19T09:35:59.625Z</time></trkpt><trkpt lat="43.6321809" lon="11.4054568"><ele>678.5999999999999</ele><time>2026-04-19T09:36:00.63Z</time></trkpt><trkpt lat="43.6320946" lon="11.4056185"><ele>676.2</ele><time>2026-04-19T09:36:02.636Z</time></trkpt><trkpt lat="43.6320506" lon="11.4056817"><ele>673.8</ele><time>2026-04-19T09:36:03.63Z</time></trkpt><trkpt lat="43.6319979" lon="11.4057353"><ele>671.4000000000001</ele><time>2026-04-19T09:36:04.635Z</time></trkpt><trkpt lat="43.6319413" lon="11.4057791"><ele>669.0</ele><time>2026-04-19T09:36:05.638Z</time></trkpt><trkpt lat="43.631859" lon="11.405889"><ele>666.8000000000001</ele><time>2026-04-19T09:36:07.627Z</time></trkpt><trkpt lat="43.6318502" lon="11.406029"><ele>664.6</ele><time>2026-04-19T09:36:09.634Z</time></trkpt><trkpt lat="43.6318554" lon="11.4061456"><ele>662.4</ele><time>2026-04-19T09:36:11.638Z</time></trkpt><trkpt lat="43.6318925" lon="11.4062659"><ele>660.2</ele><time>2026-04-19T09:36:13.636Z</time></trkpt><trkpt lat="43.6319659" lon="11.4063683"><ele>658.0</ele><time>2026-04-19T09:36:15.638Z</time></trkpt><trkpt lat="43.6320063" lon="11.4064381"><ele>657.25</ele><time>2026-04-19T09:36:16.637Z</time></trkpt><trkpt lat="43.6320798" lon="11.4065711"><ele>656.5</ele><time>2026-04-19T09:36:18.641Z</time></trkpt><trkpt lat="43.6321619" lon="11.406648"><ele>655.75</ele><time>2026-04-19T09:36:20.64Z</time></trkpt><trkpt lat="43.6322598" lon="11.4066838"><ele>655.0</ele><time>2026-04-19T09:36:22.637Z</time></trkpt><trkpt lat="43.6324355" lon="11.4067314"><ele>655.0</ele><time>2026-04-19T09:36:26.633Z</time></trkpt><trkpt lat="43.6325101" lon="11.4067426"><ele>655.0</ele><time>2026-04-19T09:36:28.644Z</time></trkpt><trkpt lat="43.6325742" lon="11.4068195"><ele>655.0</ele><time>2026-04-19T09:36:31.632Z</time></trkpt><trkpt lat="43.6325238" lon="11.4069176"><ele>655.0</ele><time>2026-04-19T09:36:33.634Z</time></trkpt><trkpt lat="43.6324196" lon="11.40699"><ele>655.0</ele><time>2026-04-19T09:36:35.634Z</time></trkpt><trkpt lat="43.6323109" lon="11.4070566"><ele>655.0</ele><time>2026-04-19T09:36:37.637Z</time></trkpt><trkpt lat="43.6322288" lon="11.4071164"><ele>655.0</ele><time>2026-04-19T09:36:39.638Z</time></trkpt><trkpt lat="43.6321628" lon="11.4071496"><ele>655.0</ele><time>2026-04-19T09:36:41.636Z</time></trkpt><trkpt lat="43.6320768" lon="11.4071234"><ele>655.0</ele><time>2026-04-19T09:36:43.642Z</time></trkpt><trkpt lat="43.6320047" lon="11.4072355"><ele>655.0</ele><time>2026-04-19T09:36:48.651Z</time></trkpt><trkpt lat="43.6320557" lon="11.4073062"><ele>655.0</ele><time>2026-04-19T09:36:50.644Z</time></trkpt><trkpt lat="43.6321638" lon="11.4074024"><ele>652.0</ele><time>2026-04-19T09:36:52.643Z</time></trkpt><trkpt lat="43.6322496" lon="11.4075"><ele>649.0</ele><time>2026-04-19T09:36:54.637Z</time></trkpt><trkpt lat="43.6323039" lon="11.4076121"><ele>646.0</ele><time>2026-04-19T09:36:56.64Z</time></trkpt><trkpt lat="43.632304" lon="11.4077482"><ele>643.0</ele><time>2026-04-19T09:36:58.624Z</time></trkpt><trkpt lat="43.6322376" lon="11.4078888"><ele>640.0</ele><time>2026-04-19T09:37:00.626Z</time></trkpt><trkpt lat="43.6321606" lon="11.4079582"><ele>637.6</ele><time>2026-04-19T09:37:02.632Z</time></trkpt><trkpt lat="43.6320771" lon="11.4080163"><ele>635.2</ele><time>2026-04-19T09:37:04.639Z</time></trkpt><trkpt lat="43.6318817" lon="11.4080249"><ele>632.8</ele><time>2026-04-19T09:37:07.641Z</time></trkpt><trkpt lat="43.6318203" lon="11.408004"><ele>630.4</ele><time>2026-04-19T09:37:08.639Z</time></trkpt><trkpt lat="43.6317592" lon="11.4079755"><ele>628.0</ele><time>2026-04-19T09:37:09.634Z</time></trkpt><trkpt lat="43.6317003" lon="11.4079425"><ele>628.0</ele><time>2026-04-19T09:37:10.639Z</time></trkpt><trkpt lat="43.6316325" lon="11.4079196"><ele>628.0</ele><time>2026-04-19T09:37:11.638Z</time></trkpt><trkpt lat="43.6315149" lon="11.4078843"><ele>628.0</ele><time>2026-04-19T09:37:13.631Z</time></trkpt><trkpt lat="43.6314112" lon="11.4078997"><ele>628.0</ele><time>2026-04-19T09:37:15.64Z</time></trkpt><trkpt lat="43.6313071" lon="11.4079518"><ele>628.0</ele><time>2026-04-19T09:37:17.638Z</time></trkpt><trkpt lat="43.631201" lon="11.4080181"><ele>622.5</ele><time>2026-04-19T09:37:19.636Z</time></trkpt><trkpt lat="43.631128" lon="11.4081168"><ele>617.0</ele><time>2026-04-19T09:37:21.631Z</time></trkpt><trkpt lat="43.631107" lon="11.4082315"><ele>611.5</ele><time>2026-04-19T09:37:23.642Z</time></trkpt><trkpt lat="43.6310735" lon="11.4083443"><ele>606.0</ele><time>2026-04-19T09:37:25.64Z</time></trkpt><trkpt lat="43.6309643" lon="11.4085924"><ele>606.0</ele><time>2026-04-19T09:37:29.643Z</time></trkpt><trkpt lat="43.6309297" lon="11.4087347"><ele>606.0</ele><time>2026-04-19T09:37:31.635Z</time></trkpt><trkpt lat="43.6308956" lon="11.4088773"><ele>606.0</ele><time>2026-04-19T09:37:33.636Z</time></trkpt><trkpt lat="43.6308461" lon="11.4089765"><ele>606.0</ele><time>2026-04-19T09:37:35.636Z</time></trkpt><trkpt lat="43.6307762" lon="11.4090275"><ele>606.0</ele><time>2026-04-19T09:37:37.638Z</time></trkpt><trkpt lat="43.6306684" lon="11.4090409"><ele>606.0</ele><time>2026-04-19T09:37:39.621Z</time></trkpt><trkpt lat="43.630603" lon="11.409039"><ele>606.0</ele><time>2026-04-19T09:37:40.633Z</time></trkpt><trkpt lat="43.6305038" lon="11.4090199"><ele>606.0</ele><time>2026-04-19T09:37:42.634Z</time></trkpt><trkpt lat="43.630443" lon="11.4089398"><ele>606.0</ele><time>2026-04-19T09:37:44.646Z</time></trkpt><trkpt lat="43.6304179" lon="11.4088248"><ele>606.0</ele><time>2026-04-19T09:37:46.643Z</time></trkpt><trkpt lat="43.6302997" lon="11.4088392"><ele>605.1666666666666</ele><time>2026-04-19T09:37:50.637Z</time></trkpt><trkpt lat="43.630255" lon="11.4089587"><ele>604.3333333333334</ele><time>2026-04-19T09:37:52.635Z</time></trkpt><trkpt lat="43.6302667" lon="11.4090664"><ele>603.5</ele><time>2026-04-19T09:37:54.642Z</time></trkpt><trkpt lat="43.6302985" lon="11.4091616"><ele>602.6666666666667</ele><time>2026-04-19T09:37:56.643Z</time></trkpt><trkpt lat="43.6303258" lon="11.4092685"><ele>601.8333333333334</ele><time>2026-04-19T09:37:58.644Z</time></trkpt><trkpt lat="43.6303465" lon="11.4093942"><ele>601.0</ele><time>2026-04-19T09:38:00.639Z</time></trkpt><trkpt lat="43.6303728" lon="11.4095166"><ele>597.6</ele><time>2026-04-19T09:38:02.646Z</time></trkpt><trkpt lat="43.630419" lon="11.4096896"><ele>594.2</ele><time>2026-04-19T09:38:04.638Z</time></trkpt><trkpt lat="43.6304507" lon="11.4097846"><ele>590.8</ele><time>2026-04-19T09:38:05.639Z</time></trkpt><trkpt lat="43.6304887" lon="11.4098837"><ele>587.4</ele><time>2026-04-19T09:38:06.64Z</time></trkpt><trkpt lat="43.6305123" lon="11.4099708"><ele>584.0</ele><time>2026-04-19T09:38:07.637Z</time></trkpt><trkpt lat="43.6305307" lon="11.4102942"><ele>584.0</ele><time>2026-04-19T09:38:11.631Z</time></trkpt><trkpt lat="43.6304793" lon="11.4104392"><ele>584.0</ele><time>2026-04-19T09:38:13.64Z</time></trkpt><trkpt lat="43.6304084" lon="11.4105664"><ele>584.0</ele><time>2026-04-19T09:38:15.635Z</time></trkpt><trkpt lat="43.6303576" lon="11.4106218"><ele>584.0</ele><time>2026-04-19T09:38:16.641Z</time></trkpt><trkpt lat="43.6303145" lon="11.4106891"><ele>584.0</ele><time>2026-04-19T09:38:17.625Z</time></trkpt><trkpt lat="43.6303034" lon="11.4108349"><ele>580.4</ele><time>2026-04-19T09:38:19.63Z</time></trkpt><trkpt lat="43.6303572" lon="11.410977"><ele>576.8</ele><time>2026-04-19T09:38:21.632Z</time></trkpt><trkpt lat="43.6303801" lon="11.411089"><ele>573.2</ele><time>2026-04-19T09:38:23.638Z</time></trkpt><trkpt lat="43.6303979" lon="11.4112114"><ele>569.6</ele><time>2026-04-19T09:38:25.643Z</time></trkpt><trkpt lat="43.630394" lon="11.4113362"><ele>566.0</ele><time>2026-04-19T09:38:27.645Z</time></trkpt><trkpt lat="43.6304005" lon="11.4114657"><ele>561.0</ele><time>2026-04-19T09:38:29.649Z</time></trkpt><trkpt lat="43.63043" lon="11.411752"><ele>556.0</ele><time>2026-04-19T09:38:33.633Z</time></trkpt><trkpt lat="43.6304485" lon="11.4118991"><ele>551.0</ele><time>2026-04-19T09:38:35.628Z</time></trkpt><trkpt lat="43.6305058" lon="11.4120195"><ele>546.0</ele><time>2026-04-19T09:38:37.638Z</time></trkpt><trkpt lat="43.6305461" lon="11.412142"><ele>544.2</ele><time>2026-04-19T09:38:39.623Z</time></trkpt><trkpt lat="43.6305499" lon="11.4122317"><ele>542.4000000000001</ele><time>2026-04-19T09:38:42.638Z</time></trkpt><trkpt lat="43.6306043" lon="11.4123208"><ele>540.6</ele><time>2026-04-19T09:38:46.642Z</time></trkpt><trkpt lat="43.6306852" lon="11.4123972"><ele>538.8000000000001</ele><time>2026-04-19T09:38:48.646Z</time></trkpt><trkpt lat="43.6307516" lon="11.4125193"><ele>537.0</ele><time>2026-04-19T09:38:50.645Z</time></trkpt><trkpt lat="43.6308326" lon="11.4127374"><ele>537.0</ele><time>2026-04-19T09:38:54.64Z</time></trkpt><trkpt lat="43.6308257" lon="11.4128574"><ele>537.0</ele><time>2026-04-19T09:38:56.643Z</time></trkpt><trkpt lat="43.630838" lon="11.4129431"><ele>537.0</ele><time>2026-04-19T09:38:58.628Z</time></trkpt><trkpt lat="43.6309064" lon="11.4129573"><ele>537.0</ele><time>2026-04-19T09:39:00.638Z</time></trkpt><trkpt lat="43.6310063" lon="11.4128801"><ele>537.0</ele><time>2026-04-19T09:39:02.631Z</time></trkpt><trkpt lat="43.6310964" lon="11.4128597"><ele>537.0</ele><time>2026-04-19T09:39:04.624Z</time></trkpt><trkpt lat="43.6311604" lon="11.4129012"><ele>535.25</ele><time>2026-04-19T09:39:06.637Z</time></trkpt><trkpt lat="43.631225" lon="11.4129592"><ele>533.5</ele><time>2026-04-19T09:39:55.642Z</time></trkpt><trkpt lat="43.631413" lon="11.4131715"><ele>531.75</ele><time>2026-04-19T10:02:08.645Z</time></trkpt><trkpt lat="43.6314935" lon="11.4132841"><ele>530.0</ele><time>2026-04-19T10:02:10.648Z</time></trkpt><trkpt lat="43.6315076" lon="11.4133866"><ele>528.0</ele><time>2026-04-19T10:02:12.647Z</time></trkpt><trkpt lat="43.6315176" lon="11.4134948"><ele>526.0</ele><time>2026-04-19T10:02:14.651Z</time></trkpt><trkpt lat="43.6315504" lon="11.4135691"><ele>524.0</ele><time>2026-04-19T10:02:15.657Z</time></trkpt><trkpt lat="43.6316128" lon="11.4136997"><ele>522.0</ele><time>2026-04-19T10:02:17.643Z</time></trkpt><trkpt lat="43.6316207" lon="11.4137919"><ele>520.0</ele><time>2026-04-19T10:02:18.652Z</time></trkpt><trkpt lat="43.6316281" lon="11.4138882"><ele>518.0</ele><time>2026-04-19T10:02:19.648Z</time></trkpt><trkpt lat="43.6316258" lon="11.4140476"><ele>516.25</ele><time>2026-04-19T10:02:21.648Z</time></trkpt><trkpt lat="43.6315658" lon="11.4141427"><ele>514.5</ele><time>2026-04-19T10:02:23.654Z</time></trkpt><trkpt lat="43.6314628" lon="11.4141667"><ele>512.75</ele><time>2026-04-19T10:02:25.653Z</time></trkpt><trkpt lat="43.6312445" lon="11.4140788"><ele>511.0</ele><time>2026-04-19T10:02:29.654Z</time></trkpt><trkpt lat="43.6311504" lon="11.4140149"><ele>510.2857142857143</ele><time>2026-04-19T10:02:31.653Z</time></trkpt><trkpt lat="43.6310724" lon="11.4139623"><ele>509.57142857142856</ele><time>2026-04-19T10:02:33.653Z</time></trkpt><trkpt lat="43.6310007" lon="11.4139381"><ele>508.8571428571429</ele><time>2026-04-19T10:02:35.642Z</time></trkpt><trkpt lat="43.6309191" lon="11.4139619"><ele>508.14285714285717</ele><time>2026-04-19T10:02:37.649Z</time></trkpt><trkpt lat="43.6308599" lon="11.414006"><ele>507.42857142857144</ele><time>2026-04-19T10:02:38.643Z</time></trkpt><trkpt lat="43.6308255" lon="11.414084"><ele>506.7142857142858</ele><time>2026-04-19T10:02:39.634Z</time></trkpt><trkpt lat="43.6308" lon="11.4141685"><ele>506.00000000000006</ele><time>2026-04-19T10:02:40.643Z</time></trkpt><trkpt lat="43.6307737" lon="11.4142571"><ele>506.0</ele><time>2026-04-19T10:02:41.638Z</time></trkpt><trkpt lat="43.6307608" lon="11.4143436"><ele>506.0</ele><time>2026-04-19T10:02:42.636Z</time></trkpt><trkpt lat="43.6307731" lon="11.4144761"><ele>506.0</ele><time>2026-04-19T10:02:44.641Z</time></trkpt><trkpt lat="43.6307926" lon="11.4145943"><ele>506.0</ele><time>2026-04-19T10:02:46.651Z</time></trkpt><trkpt lat="43.6308392" lon="11.4148321"><ele>506.0</ele><time>2026-04-19T10:02:50.652Z</time></trkpt><trkpt lat="43.6308463" lon="11.4150065"><ele>502.8333333333333</ele><time>2026-04-19T10:02:52.643Z</time></trkpt><trkpt lat="43.6308385" lon="11.415108"><ele>499.66666666666663</ele><time>2026-04-19T10:02:53.65Z</time></trkpt><trkpt lat="43.6308279" lon="11.4152093"><ele>496.5</ele><time>2026-04-19T10:02:54.644Z</time></trkpt><trkpt lat="43.6308173" lon="11.4153072"><ele>493.33333333333337</ele><time>2026-04-19T10:02:55.642Z</time></trkpt><trkpt lat="43.6308045" lon="11.4154063"><ele>490.1666666666667</ele><time>2026-04-19T10:02:56.65Z</time></trkpt><trkpt lat="43.6307398" lon="11.4155242"><ele>487.0</ele><time>2026-04-19T10:02:58.646Z</time></trkpt><trkpt lat="43.6306801" lon="11.4155686"><ele>483.50000000000006</ele><time>2026-04-19T10:02:59.646Z</time></trkpt><trkpt lat="43.6306087" lon="11.4156277"><ele>480.0</ele><time>2026-04-19T10:03:00.651Z</time></trkpt><trkpt lat="43.6305338" lon="11.4156796"><ele>476.5</ele><time>2026-04-19T10:03:01.645Z</time></trkpt><trkpt lat="43.6304646" lon="11.4157252"><ele>473.0</ele><time>2026-04-19T10:03:02.642Z</time></trkpt><trkpt lat="43.6303928" lon="11.4157677"><ele>469.50000000000006</ele><time>2026-04-19T10:03:03.65Z</time></trkpt><trkpt lat="43.6303282" lon="11.4158009"><ele>466.0</ele><time>2026-04-19T10:03:04.649Z</time></trkpt><trkpt lat="43.6302414" lon="11.415878"><ele>465.0</ele><time>2026-04-19T10:03:06.654Z</time></trkpt><trkpt lat="43.630142" lon="11.4159429"><ele>464.0</ele><time>2026-04-19T10:03:08.647Z</time></trkpt><trkpt lat="43.6299468" lon="11.4158839"><ele>463.0</ele><time>2026-04-19T10:03:11.651Z</time></trkpt><trkpt lat="43.6298945" lon="11.4158317"><ele>462.0</ele><time>2026-04-19T10:03:12.653Z</time></trkpt><trkpt lat="43.6298384" lon="11.4157819"><ele>461.0</ele><time>2026-04-19T10:03:13.653Z</time></trkpt><trkpt lat="43.6297465" lon="11.4157372"><ele>460.99999999999994</ele><time>2026-04-19T10:03:15.641Z</time></trkpt><trkpt lat="43.6296896" lon="11.4157788"><ele>461.0</ele><time>2026-04-19T10:03:17.643Z</time></trkpt><trkpt lat="43.6296623" lon="11.4159064"><ele>461.0</ele><time>2026-04-19T10:03:19.631Z</time></trkpt><trkpt lat="43.6296524" lon="11.4160041"><ele>461.0</ele><time>2026-04-19T10:03:20.632Z</time></trkpt><trkpt lat="43.6296341" lon="11.4161041"><ele>460.99999999999994</ele><time>2026-04-19T10:03:21.633Z</time></trkpt><trkpt lat="43.6295992" lon="11.4161824"><ele>461.0</ele><time>2026-04-19T10:03:22.628Z</time></trkpt><trkpt lat="43.6295405" lon="11.4162496"><ele>460.3333333333333</ele><time>2026-04-19T10:03:23.634Z</time></trkpt><trkpt lat="43.62947" lon="11.4163046"><ele>459.66666666666663</ele><time>2026-04-19T10:03:24.634Z</time></trkpt><trkpt lat="43.6294082" lon="11.4163654"><ele>459.0</ele><time>2026-04-19T10:03:25.648Z</time></trkpt><trkpt lat="43.6293349" lon="11.4164198"><ele>458.33333333333337</ele><time>2026-04-19T10:03:26.648Z</time></trkpt><trkpt lat="43.6292676" lon="11.4164624"><ele>457.6666666666667</ele><time>2026-04-19T10:03:27.642Z</time></trkpt><trkpt lat="43.6291941" lon="11.4165072"><ele>457.0</ele><time>2026-04-19T10:03:29.646Z</time></trkpt><trkpt lat="43.6292397" lon="11.4166138"><ele>457.00000000000006</ele><time>2026-04-19T10:03:38.632Z</time></trkpt><trkpt lat="43.6293041" lon="11.4166644"><ele>457.0</ele><time>2026-04-19T10:03:41.645Z</time></trkpt><trkpt lat="43.6293446" lon="11.4167747"><ele>457.0</ele><time>2026-04-19T10:03:45.637Z</time></trkpt><trkpt lat="43.6293507" lon="11.4168681"><ele>457.0</ele><time>2026-04-19T10:03:47.637Z</time></trkpt><trkpt lat="43.6293411" lon="11.4169757"><ele>457.00000000000006</ele><time>2026-04-19T10:03:49.643Z</time></trkpt><trkpt lat="43.6293292" lon="11.4171097"><ele>457.0</ele><time>2026-04-19T10:03:51.647Z</time></trkpt><trkpt lat="43.6292844" lon="11.4173282"><ele>456.6</ele><time>2026-04-19T10:03:54.638Z</time></trkpt><trkpt lat="43.6292545" lon="11.4174334"><ele>456.20000000000005</ele><time>2026-04-19T10:03:55.625Z</time></trkpt><trkpt lat="43.6291995" lon="11.4175407"><ele>455.8</ele><time>2026-04-19T10:03:56.641Z</time></trkpt><trkpt lat="43.6291493" lon="11.41767"><ele>455.4</ele><time>2026-04-19T10:03:57.635Z</time></trkpt><trkpt lat="43.6290766" lon="11.4178101"><ele>455.0</ele><time>2026-04-19T10:03:58.639Z</time></trkpt><trkpt lat="43.6289923" lon="11.4179526"><ele>450.75</ele><time>2026-04-19T10:03:59.635Z</time></trkpt><trkpt lat="43.6289247" lon="11.4181017"><ele>446.5</ele><time>2026-04-19T10:04:00.635Z</time></trkpt><trkpt lat="43.6288554" lon="11.418238"><ele>442.25</ele><time>2026-04-19T10:04:01.636Z</time></trkpt><trkpt lat="43.628783" lon="11.4183673"><ele>438.0</ele><time>2026-04-19T10:04:02.632Z</time></trkpt><trkpt lat="43.6287079" lon="11.4184873"><ele>439.4</ele><time>2026-04-19T10:04:03.635Z</time></trkpt><trkpt lat="43.6286343" lon="11.4185953"><ele>440.79999999999995</ele><time>2026-04-19T10:04:04.644Z</time></trkpt><trkpt lat="43.628576" lon="11.4187237"><ele>442.2</ele><time>2026-04-19T10:04:05.638Z</time></trkpt><trkpt lat="43.6285305" lon="11.4188672"><ele>443.6</ele><time>2026-04-19T10:04:06.638Z</time></trkpt><trkpt lat="43.6284754" lon="11.4189775"><ele>445.0</ele><time>2026-04-19T10:04:07.646Z</time></trkpt><trkpt lat="43.628401" lon="11.4190811"><ele>445.0</ele><time>2026-04-19T10:04:08.637Z</time></trkpt><trkpt lat="43.6283337" lon="11.4191508"><ele>445.0</ele><time>2026-04-19T10:04:09.625Z</time></trkpt><trkpt lat="43.6282762" lon="11.4191916"><ele>445.0</ele><time>2026-04-19T10:04:10.636Z</time></trkpt><trkpt lat="43.628201" lon="11.4192157"><ele>445.0</ele><time>2026-04-19T10:04:11.626Z</time></trkpt><trkpt lat="43.6281118" lon="11.4192239"><ele>445.0</ele><time>2026-04-19T10:04:13.643Z</time></trkpt><trkpt lat="43.6280233" lon="11.4193959"><ele>445.00000000000006</ele><time>2026-04-19T10:04:17.632Z</time></trkpt><trkpt lat="43.6280446" lon="11.41957"><ele>445.0</ele><time>2026-04-19T10:04:19.638Z</time></trkpt><trkpt lat="43.6280396" lon="11.4196589"><ele>445.0</ele><time>2026-04-19T10:04:20.631Z</time></trkpt><trkpt lat="43.6280413" lon="11.4198158"><ele>445.0</ele><time>2026-04-19T10:04:22.634Z</time></trkpt><trkpt lat="43.6280495" lon="11.4199107"><ele>445.00000000000006</ele><time>2026-04-19T10:04:23.636Z</time></trkpt><trkpt lat="43.6280441" lon="11.4200127"><ele>445.0</ele><time>2026-04-19T10:04:24.637Z</time></trkpt><trkpt lat="43.6280401" lon="11.4201088"><ele>442.8</ele><time>2026-04-19T10:04:25.641Z</time></trkpt><trkpt lat="43.6280346" lon="11.4202768"><ele>440.6</ele><time>2026-04-19T10:04:27.641Z</time></trkpt><trkpt lat="43.6280342" lon="11.4204354"><ele>438.4</ele><time>2026-04-19T10:04:29.644Z</time></trkpt><trkpt lat="43.6280303" lon="11.4205778"><ele>436.2</ele><time>2026-04-19T10:04:31.642Z</time></trkpt><trkpt lat="43.628046" lon="11.4206873"><ele>434.0</ele><time>2026-04-19T10:04:33.635Z</time></trkpt><trkpt lat="43.6280748" lon="11.4207957"><ele>432.6</ele><time>2026-04-19T10:04:35.649Z</time></trkpt><trkpt lat="43.6281979" lon="11.4208643"><ele>431.2</ele><time>2026-04-19T10:04:39.648Z</time></trkpt><trkpt lat="43.6282753" lon="11.420833"><ele>429.80000000000007</ele><time>2026-04-19T10:04:41.645Z</time></trkpt><trkpt lat="43.6283752" lon="11.4208008"><ele>428.40000000000003</ele><time>2026-04-19T10:04:44.644Z</time></trkpt><trkpt lat="43.6284545" lon="11.420764"><ele>427.0</ele><time>2026-04-19T10:04:46.628Z</time></trkpt><trkpt lat="43.6285281" lon="11.4207016"><ele>427.0</ele><time>2026-04-19T10:04:48.64Z</time></trkpt><trkpt lat="43.6286198" lon="11.4206565"><ele>427.00000000000006</ele><time>2026-04-19T10:04:50.642Z</time></trkpt><trkpt lat="43.6286999" lon="11.4206213"><ele>427.00000000000006</ele><time>2026-04-19T10:04:52.643Z</time></trkpt><trkpt lat="43.6287779" lon="11.4205988"><ele>427.0</ele><time>2026-04-19T10:04:54.639Z</time></trkpt><trkpt lat="43.6288635" lon="11.4206109"><ele>427.0</ele><time>2026-04-19T10:04:59.651Z</time></trkpt><trkpt lat="43.6289592" lon="11.4208594"><ele>423.83333333333337</ele><time>2026-04-19T10:05:08.623Z</time></trkpt><trkpt lat="43.6289845" lon="11.4209846"><ele>420.6666666666667</ele><time>2026-04-19T10:05:09.623Z</time></trkpt><trkpt lat="43.6289892" lon="11.4211197"><ele>417.5</ele><time>2026-04-19T10:05:10.625Z</time></trkpt><trkpt lat="43.6289645" lon="11.4212322"><ele>414.33333333333337</ele><time>2026-04-19T10:05:11.627Z</time></trkpt><trkpt lat="43.6289326" lon="11.4213192"><ele>411.1666666666667</ele><time>2026-04-19T10:05:12.626Z</time></trkpt><trkpt lat="43.6288626" lon="11.421368"><ele>408.0</ele><time>2026-04-19T10:05:13.619Z</time></trkpt><trkpt lat="43.6287847" lon="11.4214095"><ele>409.1666666666667</ele><time>2026-04-19T10:05:14.614Z</time></trkpt><trkpt lat="43.6286997" lon="11.4214478"><ele>410.33333333333337</ele><time>2026-04-19T10:05:15.629Z</time></trkpt><trkpt lat="43.6286224" lon="11.4214878"><ele>411.5</ele><time>2026-04-19T10:05:16.624Z</time></trkpt><trkpt lat="43.62856" lon="11.4215367"><ele>412.6666666666667</ele><time>2026-04-19T10:05:17.616Z</time></trkpt><trkpt lat="43.6285082" lon="11.4215979"><ele>413.83333333333337</ele><time>2026-04-19T10:05:18.62Z</time></trkpt><trkpt lat="43.6284692" lon="11.4216767"><ele>415.0</ele><time>2026-04-19T10:05:19.628Z</time></trkpt><trkpt lat="43.6284586" lon="11.4217727"><ele>415.0</ele><time>2026-04-19T10:05:20.618Z</time></trkpt><trkpt lat="43.6285299" lon="11.4220066"><ele>415.0</ele><time>2026-04-19T10:05:22.623Z</time></trkpt><trkpt lat="43.6285658" lon="11.4221124"><ele>415.0</ele><time>2026-04-19T10:05:23.623Z</time></trkpt><trkpt lat="43.6286099" lon="11.4222312"><ele>415.0</ele><time>2026-04-19T10:05:24.62Z</time></trkpt><trkpt lat="43.628642" lon="11.4223463"><ele>410.33333333333337</ele><time>2026-04-19T10:05:25.62Z</time></trkpt><trkpt lat="43.6286853" lon="11.4224478"><ele>405.6666666666667</ele><time>2026-04-19T10:05:26.622Z</time></trkpt><trkpt lat="43.6287356" lon="11.4225582"><ele>401.0</ele><time>2026-04-19T10:05:27.622Z</time></trkpt><trkpt lat="43.628791" lon="11.4226635"><ele>396.33333333333337</ele><time>2026-04-19T10:05:28.626Z</time></trkpt><trkpt lat="43.6288241" lon="11.4227656"><ele>391.6666666666667</ele><time>2026-04-19T10:05:29.622Z</time></trkpt><trkpt lat="43.6288481" lon="11.4228745"><ele>387.0</ele><time>2026-04-19T10:05:30.617Z</time></trkpt><trkpt lat="43.6288542" lon="11.423003"><ele>386.40000000000003</ele><time>2026-04-19T10:05:31.625Z</time></trkpt><trkpt lat="43.6288341" lon="11.4231675"><ele>385.8</ele><time>2026-04-19T10:05:32.619Z</time></trkpt><trkpt lat="43.6288094" lon="11.4233214"><ele>385.2</ele><time>2026-04-19T10:05:33.614Z</time></trkpt><trkpt lat="43.6287825" lon="11.4234654"><ele>384.6</ele><time>2026-04-19T10:05:34.617Z</time></trkpt><trkpt lat="43.6287442" lon="11.4236021"><ele>384.0</ele><time>2026-04-19T10:05:35.624Z</time></trkpt><trkpt lat="43.6287113" lon="11.4237334"><ele>383.0</ele><time>2026-04-19T10:05:36.627Z</time></trkpt><trkpt lat="43.6286728" lon="11.423863"><ele>382.0</ele><time>2026-04-19T10:05:37.625Z</time></trkpt><trkpt lat="43.6286397" lon="11.4239768"><ele>381.0</ele><time>2026-04-19T10:05:38.62Z</time></trkpt><trkpt lat="43.6286054" lon="11.4240707"><ele>380.0</ele><time>2026-04-19T10:05:39.618Z</time></trkpt><trkpt lat="43.6285328" lon="11.4241957"><ele>379.0</ele><time>2026-04-19T10:05:41.628Z</time></trkpt><trkpt lat="43.6284631" lon="11.4244"><ele>378.79999999999995</ele><time>2026-04-19T10:05:49.63Z</time></trkpt><trkpt lat="43.6283912" lon="11.4245716"><ele>378.59999999999997</ele><time>2026-04-19T10:05:51.633Z</time></trkpt><trkpt lat="43.6283405" lon="11.4246439"><ele>378.4</ele><time>2026-04-19T10:05:52.625Z</time></trkpt><trkpt lat="43.6282699" lon="11.4247239"><ele>378.2</ele><time>2026-04-19T10:05:53.623Z</time></trkpt><trkpt lat="43.6281816" lon="11.4248206"><ele>378.0</ele><time>2026-04-19T10:05:54.625Z</time></trkpt><trkpt lat="43.6281105" lon="11.424912"><ele>378.0</ele><time>2026-04-19T10:05:55.627Z</time></trkpt><trkpt lat="43.628039" lon="11.4250182"><ele>378.0</ele><time>2026-04-19T10:05:56.629Z</time></trkpt><trkpt lat="43.6279541" lon="11.4251275"><ele>378.0</ele><time>2026-04-19T10:05:57.628Z</time></trkpt><trkpt lat="43.627873" lon="11.4252368"><ele>378.0</ele><time>2026-04-19T10:05:58.625Z</time></trkpt><trkpt lat="43.6277825" lon="11.4253566"><ele>378.75</ele><time>2026-04-19T10:05:59.636Z</time></trkpt><trkpt lat="43.6276884" lon="11.4254753"><ele>379.5</ele><time>2026-04-19T10:06:00.638Z</time></trkpt><trkpt lat="43.6275882" lon="11.4255954"><ele>380.25</ele><time>2026-04-19T10:06:01.636Z</time></trkpt><trkpt lat="43.6275042" lon="11.425715"><ele>381.0</ele><time>2026-04-19T10:06:02.633Z</time></trkpt><trkpt lat="43.6273806" lon="11.4259551"><ele>377.6666666666667</ele><time>2026-04-19T10:06:04.623Z</time></trkpt><trkpt lat="43.6273404" lon="11.4261362"><ele>374.33333333333337</ele><time>2026-04-19T10:06:05.634Z</time></trkpt><trkpt lat="43.6273175" lon="11.4263879"><ele>371.0</ele><time>2026-04-19T10:06:06.626Z</time></trkpt><trkpt lat="43.6272911" lon="11.4266362"><ele>368.0</ele><time>2026-04-19T10:06:07.628Z</time></trkpt><trkpt lat="43.6272656" lon="11.4268462"><ele>365.0</ele><time>2026-04-19T10:06:08.624Z</time></trkpt><trkpt lat="43.6272445" lon="11.4270285"><ele>362.0</ele><time>2026-04-19T10:06:09.632Z</time></trkpt><trkpt lat="43.6272166" lon="11.4271958"><ele>359.0</ele><time>2026-04-19T10:06:10.632Z</time></trkpt><trkpt lat="43.6271838" lon="11.4273427"><ele>359.25</ele><time>2026-04-19T10:06:11.637Z</time></trkpt><trkpt lat="43.627154" lon="11.4274709"><ele>359.5</ele><time>2026-04-19T10:06:12.632Z</time></trkpt><trkpt lat="43.6270825" lon="11.4276038"><ele>359.75</ele><time>2026-04-19T10:06:13.631Z</time></trkpt><trkpt lat="43.6269946" lon="11.4277468"><ele>360.0</ele><time>2026-04-19T10:06:14.635Z</time></trkpt><trkpt lat="43.6268864" lon="11.4279027"><ele>358.6</ele><time>2026-04-19T10:06:15.633Z</time></trkpt><trkpt lat="43.6267858" lon="11.4280355"><ele>357.2</ele><time>2026-04-19T10:06:16.64Z</time></trkpt><trkpt lat="43.6266983" lon="11.4281622"><ele>355.79999999999995</ele><time>2026-04-19T10:06:17.628Z</time></trkpt><trkpt lat="43.6266351" lon="11.4282652"><ele>354.4</ele><time>2026-04-19T10:06:18.626Z</time></trkpt><trkpt lat="43.6265927" lon="11.42836"><ele>353.0</ele><time>2026-04-19T10:06:19.635Z</time></trkpt><trkpt lat="43.6265844" lon="11.4284498"><ele>353.0</ele><time>2026-04-19T10:06:20.636Z</time></trkpt><trkpt lat="43.6265948" lon="11.4285772"><ele>353.0</ele><time>2026-04-19T10:06:21.636Z</time></trkpt><trkpt lat="43.6266163" lon="11.4286861"><ele>353.0</ele><time>2026-04-19T10:06:22.635Z</time></trkpt><trkpt lat="43.6266414" lon="11.4287949"><ele>353.0</ele><time>2026-04-19T10:06:23.635Z</time></trkpt><trkpt lat="43.6266284" lon="11.4290544"><ele>353.0</ele><time>2026-04-19T10:06:25.627Z</time></trkpt><trkpt lat="43.6265891" lon="11.4292077"><ele>351.75</ele><time>2026-04-19T10:06:26.638Z</time></trkpt><trkpt lat="43.6265181" lon="11.4293769"><ele>350.5</ele><time>2026-04-19T10:06:27.631Z</time></trkpt><trkpt lat="43.6264561" lon="11.429539"><ele>349.25</ele><time>2026-04-19T10:06:28.631Z</time></trkpt><trkpt lat="43.6264112" lon="11.4296909"><ele>348.0</ele><time>2026-04-19T10:06:29.638Z</time></trkpt><trkpt lat="43.6263711" lon="11.42983"><ele>348.1666666666667</ele><time>2026-04-19T10:06:30.63Z</time></trkpt><trkpt lat="43.6263347" lon="11.4299648"><ele>348.3333333333333</ele><time>2026-04-19T10:06:31.623Z</time></trkpt><trkpt lat="43.6263017" lon="11.4300575"><ele>348.5</ele><time>2026-04-19T10:06:32.639Z</time></trkpt><trkpt lat="43.626255" lon="11.430123"><ele>348.66666666666663</ele><time>2026-04-19T10:06:33.633Z</time></trkpt><trkpt lat="43.6261994" lon="11.4301708"><ele>348.8333333333333</ele><time>2026-04-19T10:06:34.621Z</time></trkpt><trkpt lat="43.6261003" lon="11.4302002"><ele>349.0</ele><time>2026-04-19T10:06:35.626Z</time></trkpt><trkpt lat="43.6259741" lon="11.4302087"><ele>349.0</ele><time>2026-04-19T10:06:36.629Z</time></trkpt><trkpt lat="43.6258401" lon="11.4302279"><ele>349.0</ele><time>2026-04-19T10:06:37.633Z</time></trkpt><trkpt lat="43.6257142" lon="11.4302665"><ele>349.0</ele><time>2026-04-19T10:06:38.634Z</time></trkpt><trkpt lat="43.6255953" lon="11.4303077"><ele>349.0</ele><time>2026-04-19T10:06:39.64Z</time></trkpt><trkpt lat="43.6254775" lon="11.4303562"><ele>349.0</ele><time>2026-04-19T10:06:40.631Z</time></trkpt><trkpt lat="43.6253711" lon="11.4304172"><ele>349.0</ele><time>2026-04-19T10:06:41.636Z</time></trkpt><trkpt lat="43.6252805" lon="11.4304963"><ele>349.0</ele><time>2026-04-19T10:06:42.641Z</time></trkpt><trkpt lat="43.6251931" lon="11.4305856"><ele>349.0</ele><time>2026-04-19T10:06:43.639Z</time></trkpt><trkpt lat="43.6251071" lon="11.4306753"><ele>349.0</ele><time>2026-04-19T10:06:44.64Z</time></trkpt><trkpt lat="43.6249576" lon="11.4308418"><ele>346.2</ele><time>2026-04-19T10:06:46.641Z</time></trkpt><trkpt lat="43.6248808" lon="11.4309088"><ele>343.4</ele><time>2026-04-19T10:06:47.642Z</time></trkpt><trkpt lat="43.6247957" lon="11.4309672"><ele>340.6</ele><time>2026-04-19T10:06:48.643Z</time></trkpt><trkpt lat="43.6246996" lon="11.4310179"><ele>337.8</ele><time>2026-04-19T10:06:49.639Z</time></trkpt><trkpt lat="43.6245979" lon="11.4310682"><ele>335.0</ele><time>2026-04-19T10:06:50.64Z</time></trkpt><trkpt lat="43.6244972" lon="11.431143"><ele>334.75</ele><time>2026-04-19T10:06:51.641Z</time></trkpt><trkpt lat="43.6243934" lon="11.431228"><ele>334.5</ele><time>2026-04-19T10:06:52.641Z</time></trkpt><trkpt lat="43.6243" lon="11.4313041"><ele>334.25</ele><time>2026-04-19T10:06:53.64Z</time></trkpt><trkpt lat="43.6242017" lon="11.4313772"><ele>334.0</ele><time>2026-04-19T10:06:54.641Z</time></trkpt><trkpt lat="43.624097" lon="11.4314605"><ele>333.79999999999995</ele><time>2026-04-19T10:06:55.641Z</time></trkpt><trkpt lat="43.6239968" lon="11.4315318"><ele>333.59999999999997</ele><time>2026-04-19T10:06:56.646Z</time></trkpt><trkpt lat="43.6238983" lon="11.4315899"><ele>333.4</ele><time>2026-04-19T10:06:57.64Z</time></trkpt><trkpt lat="43.6237913" lon="11.4316495"><ele>333.2</ele><time>2026-04-19T10:06:58.638Z</time></trkpt><trkpt lat="43.6236899" lon="11.4317091"><ele>333.0</ele><time>2026-04-19T10:06:59.638Z</time></trkpt><trkpt lat="43.6235887" lon="11.4317565"><ele>333.0</ele><time>2026-04-19T10:07:00.628Z</time></trkpt><trkpt lat="43.6234902" lon="11.4318131"><ele>333.0</ele><time>2026-04-19T10:07:01.64Z</time></trkpt><trkpt lat="43.6234029" lon="11.4318758"><ele>333.0</ele><time>2026-04-19T10:07:02.631Z</time></trkpt><trkpt lat="43.623325" lon="11.431954"><ele>333.0</ele><time>2026-04-19T10:07:03.637Z</time></trkpt><trkpt lat="43.6232584" lon="11.4320722"><ele>333.0</ele><time>2026-04-19T10:07:04.632Z</time></trkpt><trkpt lat="43.6232083" lon="11.4322202"><ele>330.5</ele><time>2026-04-19T10:07:05.631Z</time></trkpt><trkpt lat="43.6231583" lon="11.4324784"><ele>328.0</ele><time>2026-04-19T10:07:07.631Z</time></trkpt><trkpt lat="43.6231336" lon="11.4325746"><ele>325.5</ele><time>2026-04-19T10:07:08.63Z</time></trkpt><trkpt lat="43.6231104" lon="11.4326594"><ele>323.0</ele><time>2026-04-19T10:07:09.62Z</time></trkpt><trkpt lat="43.6230053" lon="11.4327792"><ele>323.0</ele><time>2026-04-19T10:07:11.62Z</time></trkpt><trkpt lat="43.6229087" lon="11.4328161"><ele>323.0</ele><time>2026-04-19T10:07:12.623Z</time></trkpt><trkpt lat="43.6228204" lon="11.4328711"><ele>323.0</ele><time>2026-04-19T10:07:13.622Z</time></trkpt><trkpt lat="43.6227527" lon="11.4329419"><ele>323.0</ele><time>2026-04-19T10:07:14.621Z</time></trkpt><trkpt lat="43.622708" lon="11.433057"><ele>323.0</ele><time>2026-04-19T10:07:15.625Z</time></trkpt><trkpt lat="43.6226717" lon="11.4331888"><ele>322.6666666666667</ele><time>2026-04-19T10:07:16.624Z</time></trkpt><trkpt lat="43.622645" lon="11.4332952"><ele>322.33333333333337</ele><time>2026-04-19T10:07:17.62Z</time></trkpt><trkpt lat="43.6226093" lon="11.4333767"><ele>322.0</ele><time>2026-04-19T10:07:18.617Z</time></trkpt><trkpt lat="43.6225486" lon="11.4334361"><ele>321.6666666666667</ele><time>2026-04-19T10:07:19.625Z</time></trkpt><trkpt lat="43.6224635" lon="11.4334613"><ele>321.3333333333333</ele><time>2026-04-19T10:07:20.633Z</time></trkpt><trkpt lat="43.6223557" lon="11.4334593"><ele>321.0</ele><time>2026-04-19T10:07:21.63Z</time></trkpt><trkpt lat="43.622262" lon="11.4334733"><ele>321.0</ele><time>2026-04-19T10:07:22.622Z</time></trkpt><trkpt lat="43.6221948" lon="11.4335092"><ele>321.0</ele><time>2026-04-19T10:07:23.628Z</time></trkpt><trkpt lat="43.6221434" lon="11.4335641"><ele>321.0</ele><time>2026-04-19T10:07:24.632Z</time></trkpt><trkpt lat="43.6220973" lon="11.4336248"><ele>321.0</ele><time>2026-04-19T10:07:25.628Z</time></trkpt><trkpt lat="43.6219995" lon="11.433731"><ele>321.0</ele><time>2026-04-19T10:07:27.624Z</time></trkpt><trkpt lat="43.6217698" lon="11.4337657"><ele>321.0</ele><time>2026-04-19T10:07:30.631Z</time></trkpt><trkpt lat="43.6216706" lon="11.4337265"><ele>321.0</ele><time>2026-04-19T10:07:31.63Z</time></trkpt><trkpt lat="43.6215874" lon="11.4336622"><ele>321.0</ele><time>2026-04-19T10:07:32.63Z</time></trkpt><trkpt lat="43.6215162" lon="11.4335735"><ele>321.0</ele><time>2026-04-19T10:07:33.633Z</time></trkpt><trkpt lat="43.6214532" lon="11.4335024"><ele>321.0</ele><time>2026-04-19T10:07:34.616Z</time></trkpt><trkpt lat="43.6213906" lon="11.433458"><ele>321.0</ele><time>2026-04-19T10:07:35.626Z</time></trkpt><trkpt lat="43.6213219" lon="11.4334509"><ele>321.0</ele><time>2026-04-19T10:07:36.621Z</time></trkpt><trkpt lat="43.621246" lon="11.4334673"><ele>321.0</ele><time>2026-04-19T10:07:37.62Z</time></trkpt><trkpt lat="43.6211518" lon="11.4335186"><ele>321.0</ele><time>2026-04-19T10:07:38.631Z</time></trkpt><trkpt lat="43.621065" lon="11.4335674"><ele>321.0</ele><time>2026-04-19T10:07:39.62Z</time></trkpt><trkpt lat="43.6209806" lon="11.4336207"><ele>321.0</ele><time>2026-04-19T10:07:40.625Z</time></trkpt><trkpt lat="43.6208974" lon="11.4336927"><ele>318.8</ele><time>2026-04-19T10:07:41.626Z</time></trkpt><trkpt lat="43.6208116" lon="11.4337577"><ele>316.6</ele><time>2026-04-19T10:07:42.623Z</time></trkpt><trkpt lat="43.620728" lon="11.4338315"><ele>314.4</ele><time>2026-04-19T10:07:43.627Z</time></trkpt><trkpt lat="43.6206434" lon="11.4339005"><ele>312.2</ele><time>2026-04-19T10:07:44.626Z</time></trkpt><trkpt lat="43.6205622" lon="11.4339614"><ele>310.0</ele><time>2026-04-19T10:07:45.632Z</time></trkpt><trkpt lat="43.620473" lon="11.4340346"><ele>306.75</ele><time>2026-04-19T10:07:46.633Z</time></trkpt><trkpt lat="43.6203844" lon="11.4341051"><ele>303.5</ele><time>2026-04-19T10:07:47.634Z</time></trkpt><trkpt lat="43.6203012" lon="11.4341628"><ele>300.25</ele><time>2026-04-19T10:07:48.632Z</time></trkpt><trkpt lat="43.6201502" lon="11.4343042"><ele>297.0</ele><time>2026-04-19T10:07:50.634Z</time></trkpt><trkpt lat="43.6200948" lon="11.4343982"><ele>296.3333333333333</ele><time>2026-04-19T10:07:51.629Z</time></trkpt><trkpt lat="43.6200498" lon="11.4345011"><ele>295.6666666666667</ele><time>2026-04-19T10:07:52.629Z</time></trkpt><trkpt lat="43.6200173" lon="11.4346134"><ele>295.0</ele><time>2026-04-19T10:07:53.626Z</time></trkpt><trkpt lat="43.6199909" lon="11.4347331"><ele>294.33333333333337</ele><time>2026-04-19T10:07:54.621Z</time></trkpt><trkpt lat="43.6199575" lon="11.4348398"><ele>293.6666666666667</ele><time>2026-04-19T10:07:55.631Z</time></trkpt><trkpt lat="43.6199153" lon="11.4349466"><ele>293.0</ele><time>2026-04-19T10:07:56.637Z</time></trkpt><trkpt lat="43.6198802" lon="11.4350461"><ele>292.0</ele><time>2026-04-19T10:07:57.633Z</time></trkpt><trkpt lat="43.6198502" lon="11.4351235"><ele>291.0</ele><time>2026-04-19T10:07:58.631Z</time></trkpt><trkpt lat="43.6198119" lon="11.4352159"><ele>290.0</ele><time>2026-04-19T10:08:00.621Z</time></trkpt><trkpt lat="43.6197791" lon="11.4352958"><ele>289.0</ele><time>2026-04-19T10:08:04.633Z</time></trkpt><trkpt lat="43.6197453" lon="11.4353959"><ele>288.0</ele><time>2026-04-19T10:08:31.636Z</time></trkpt><trkpt lat="43.6196266" lon="11.4355425"><ele>287.0</ele><time>2026-04-19T10:08:34.634Z</time></trkpt><trkpt lat="43.6195644" lon="11.435622"><ele>285.4</ele><time>2026-04-19T10:08:35.635Z</time></trkpt><trkpt lat="43.6195039" lon="11.435705"><ele>283.79999999999995</ele><time>2026-04-19T10:08:36.634Z</time></trkpt><trkpt lat="43.6194436" lon="11.4358009"><ele>282.2</ele><time>2026-04-19T10:08:37.631Z</time></trkpt><trkpt lat="43.6193818" lon="11.4359019"><ele>280.59999999999997</ele><time>2026-04-19T10:08:38.63Z</time></trkpt><trkpt lat="43.6193169" lon="11.4359969"><ele>279.0</ele><time>2026-04-19T10:08:39.628Z</time></trkpt><trkpt lat="43.6192504" lon="11.4361014"><ele>278.8</ele><time>2026-04-19T10:08:40.63Z</time></trkpt><trkpt lat="43.6191856" lon="11.4361969"><ele>278.59999999999997</ele><time>2026-04-19T10:08:41.63Z</time></trkpt><trkpt lat="43.6191167" lon="11.4362865"><ele>278.4</ele><time>2026-04-19T10:08:42.629Z</time></trkpt><trkpt lat="43.6190483" lon="11.4363729"><ele>278.2</ele><time>2026-04-19T10:08:43.635Z</time></trkpt><trkpt lat="43.6189768" lon="11.4364529"><ele>278.0</ele><time>2026-04-19T10:08:44.633Z</time></trkpt><trkpt lat="43.6188982" lon="11.4365261"><ele>277.6</ele><time>2026-04-19T10:08:45.631Z</time></trkpt><trkpt lat="43.6188085" lon="11.4365742"><ele>277.20000000000005</ele><time>2026-04-19T10:08:46.635Z</time></trkpt><trkpt lat="43.6187136" lon="11.4366037"><ele>276.8</ele><time>2026-04-19T10:08:47.629Z</time></trkpt><trkpt lat="43.6186241" lon="11.4366374"><ele>276.40000000000003</ele><time>2026-04-19T10:08:48.626Z</time></trkpt><trkpt lat="43.618543" lon="11.436699"><ele>276.0</ele><time>2026-04-19T10:08:49.637Z</time></trkpt><trkpt lat="43.6184879" lon="11.4368074"><ele>273.6666666666667</ele><time>2026-04-19T10:08:50.624Z</time></trkpt><trkpt lat="43.6184642" lon="11.4369393"><ele>271.33333333333337</ele><time>2026-04-19T10:08:51.641Z</time></trkpt><trkpt lat="43.618464" lon="11.4371144"><ele>269.0</ele><time>2026-04-19T10:08:52.629Z</time></trkpt><trkpt lat="43.6184814" lon="11.4375145"><ele>268.5</ele><time>2026-04-19T10:08:54.636Z</time></trkpt><trkpt lat="43.6184987" lon="11.4377354"><ele>268.0</ele><time>2026-04-19T10:08:55.634Z</time></trkpt><trkpt lat="43.6185054" lon="11.4379104"><ele>267.5</ele><time>2026-04-19T10:08:56.642Z</time></trkpt><trkpt lat="43.6185141" lon="11.4380732"><ele>267.0</ele><time>2026-04-19T10:08:57.628Z</time></trkpt><trkpt lat="43.618496" lon="11.4382336"><ele>267.0</ele><time>2026-04-19T10:08:58.635Z</time></trkpt><trkpt lat="43.6184898" lon="11.4384007"><ele>267.0</ele><time>2026-04-19T10:08:59.637Z</time></trkpt><trkpt lat="43.6184801" lon="11.4385561"><ele>267.0</ele><time>2026-04-19T10:09:00.633Z</time></trkpt><trkpt lat="43.6184888" lon="11.4386947"><ele>267.0</ele><time>2026-04-19T10:09:01.631Z</time></trkpt><trkpt lat="43.6185108" lon="11.4388376"><ele>267.0</ele><time>2026-04-19T10:09:02.627Z</time></trkpt><trkpt lat="43.6185495" lon="11.4389737"><ele>266.5</ele><time>2026-04-19T10:09:03.624Z</time></trkpt><trkpt lat="43.6186066" lon="11.4391168"><ele>266.0</ele><time>2026-04-19T10:09:04.624Z</time></trkpt><trkpt lat="43.6186731" lon="11.4392444"><ele>265.5</ele><time>2026-04-19T10:09:05.633Z</time></trkpt><trkpt lat="43.6187514" lon="11.4393919"><ele>265.0</ele><time>2026-04-19T10:09:06.629Z</time></trkpt><trkpt lat="43.6188257" lon="11.4395216"><ele>264.25</ele><time>2026-04-19T10:09:07.634Z</time></trkpt><trkpt lat="43.6188974" lon="11.4396581"><ele>263.5</ele><time>2026-04-19T10:09:08.63Z</time></trkpt><trkpt lat="43.6189672" lon="11.4397939"><ele>262.75</ele><time>2026-04-19T10:09:09.63Z</time></trkpt><trkpt lat="43.6190378" lon="11.4399349"><ele>262.0</ele><time>2026-04-19T10:09:10.631Z</time></trkpt><trkpt lat="43.6191034" lon="11.4400638"><ele>262.0</ele><time>2026-04-19T10:09:11.63Z</time></trkpt><trkpt lat="43.6191638" lon="11.4401767"><ele>262.0</ele><time>2026-04-19T10:09:12.63Z</time></trkpt><trkpt lat="43.6193193" lon="11.4403558"><ele>262.0</ele><time>2026-04-19T10:09:14.626Z</time></trkpt><trkpt lat="43.6194188" lon="11.4404261"><ele>262.0</ele><time>2026-04-19T10:09:15.626Z</time></trkpt><trkpt lat="43.6195072" lon="11.440513"><ele>260.5</ele><time>2026-04-19T10:09:16.627Z</time></trkpt><trkpt lat="43.6195757" lon="11.4406263"><ele>259.0</ele><time>2026-04-19T10:09:17.636Z</time></trkpt><trkpt lat="43.6196172" lon="11.4407889"><ele>257.5</ele><time>2026-04-19T10:09:18.626Z</time></trkpt><trkpt lat="43.6196433" lon="11.4409585"><ele>256.0</ele><time>2026-04-19T10:09:19.627Z</time></trkpt><trkpt lat="43.6196693" lon="11.4411244"><ele>256.0</ele><time>2026-04-19T10:09:20.618Z</time></trkpt><trkpt lat="43.6196836" lon="11.441267"><ele>256.0</ele><time>2026-04-19T10:09:21.642Z</time></trkpt><trkpt lat="43.6196732" lon="11.4413888"><ele>256.0</ele><time>2026-04-19T10:09:22.7Z</time></trkpt><trkpt lat="43.619637" lon="11.4414941"><ele>256.0</ele><time>2026-04-19T10:09:23.71Z</time></trkpt><trkpt lat="43.6195977" lon="11.4415984"><ele>256.0</ele><time>2026-04-19T10:09:24.711Z</time></trkpt><trkpt lat="43.6195536" lon="11.4417305"><ele>254.4</ele><time>2026-04-19T10:09:25.702Z</time></trkpt><trkpt lat="43.6195094" lon="11.4418715"><ele>252.8</ele><time>2026-04-19T10:09:26.706Z</time></trkpt><trkpt lat="43.619475" lon="11.4420104"><ele>251.20000000000002</ele><time>2026-04-19T10:09:27.701Z</time></trkpt><trkpt lat="43.6194482" lon="11.4421471"><ele>249.60000000000002</ele><time>2026-04-19T10:09:28.7Z</time></trkpt><trkpt lat="43.6194267" lon="11.4422863"><ele>248.0</ele><time>2026-04-19T10:09:29.715Z</time></trkpt><trkpt lat="43.619399" lon="11.4425191"><ele>245.0</ele><time>2026-04-19T10:09:30.713Z</time></trkpt><trkpt lat="43.6194148" lon="11.4426047"><ele>242.0</ele><time>2026-04-19T10:09:31.714Z</time></trkpt><trkpt lat="43.6194472" lon="11.4427564"><ele>239.0</ele><time>2026-04-19T10:09:32.7Z</time></trkpt><trkpt lat="43.6194116" lon="11.4429988"><ele>236.0</ele><time>2026-04-19T10:09:33.698Z</time></trkpt><trkpt lat="43.6194943" lon="11.4432962"><ele>233.8</ele><time>2026-04-19T10:09:35.692Z</time></trkpt><trkpt lat="43.6195398" lon="11.4434407"><ele>231.60000000000002</ele><time>2026-04-19T10:09:36.706Z</time></trkpt><trkpt lat="43.6195829" lon="11.4435697"><ele>229.4</ele><time>2026-04-19T10:09:37.71Z</time></trkpt><trkpt lat="43.6196238" lon="11.4436842"><ele>227.2</ele><time>2026-04-19T10:09:38.706Z</time></trkpt><trkpt lat="43.619675" lon="11.4437831"><ele>225.0</ele><time>2026-04-19T10:09:39.698Z</time></trkpt><trkpt lat="43.6197374" lon="11.4438485"><ele>221.75</ele><time>2026-04-19T10:09:40.702Z</time></trkpt><trkpt lat="43.6198244" lon="11.4438737"><ele>218.5</ele><time>2026-04-19T10:09:41.694Z</time></trkpt><trkpt lat="43.619926" lon="11.4438678"><ele>215.25</ele><time>2026-04-19T10:09:42.697Z</time></trkpt><trkpt lat="43.6200522" lon="11.4438677"><ele>212.0</ele><time>2026-04-19T10:09:43.697Z</time></trkpt><trkpt lat="43.6201959" lon="11.4438902"><ele>211.6</ele><time>2026-04-19T10:09:44.699Z</time></trkpt><trkpt lat="43.6203259" lon="11.4439376"><ele>211.2</ele><time>2026-04-19T10:09:45.708Z</time></trkpt><trkpt lat="43.6204099" lon="11.4439958"><ele>210.8</ele><time>2026-04-19T10:09:46.718Z</time></trkpt><trkpt lat="43.6204874" lon="11.4440664"><ele>210.4</ele><time>2026-04-19T10:09:47.705Z</time></trkpt><trkpt lat="43.620525" lon="11.4441669"><ele>210.0</ele><time>2026-04-19T10:09:48.696Z</time></trkpt><trkpt lat="43.6205378" lon="11.4442951"><ele>210.0</ele><time>2026-04-19T10:09:49.701Z</time></trkpt><trkpt lat="43.620551" lon="11.4444501"><ele>210.0</ele><time>2026-04-19T10:09:50.695Z</time></trkpt><trkpt lat="43.6205698" lon="11.4446048"><ele>210.0</ele><time>2026-04-19T10:09:51.709Z</time></trkpt><trkpt lat="43.6205859" lon="11.4447618"><ele>210.0</ele><time>2026-04-19T10:09:52.708Z</time></trkpt><trkpt lat="43.6206032" lon="11.4449212"><ele>207.0</ele><time>2026-04-19T10:09:53.715Z</time></trkpt><trkpt lat="43.6206197" lon="11.4450827"><ele>204.0</ele><time>2026-04-19T10:09:54.71Z</time></trkpt><trkpt lat="43.6206319" lon="11.4453966"><ele>201.0</ele><time>2026-04-19T10:09:56.717Z</time></trkpt><trkpt lat="43.6206298" lon="11.4455546"><ele>198.25</ele><time>2026-04-19T10:09:57.711Z</time></trkpt><trkpt lat="43.6206248" lon="11.4457164"><ele>195.5</ele><time>2026-04-19T10:09:58.713Z</time></trkpt><trkpt lat="43.6206194" lon="11.4458779"><ele>192.75</ele><time>2026-04-19T10:09:59.725Z</time></trkpt><trkpt lat="43.6206131" lon="11.4460341"><ele>190.0</ele><time>2026-04-19T10:10:00.713Z</time></trkpt><trkpt lat="43.6206063" lon="11.4461769"><ele>188.16666666666669</ele><time>2026-04-19T10:10:01.715Z</time></trkpt><trkpt lat="43.6205968" lon="11.4463074"><ele>186.33333333333334</ele><time>2026-04-19T10:10:02.714Z</time></trkpt><trkpt lat="43.6205912" lon="11.4464294"><ele>184.5</ele><time>2026-04-19T10:10:03.711Z</time></trkpt><trkpt lat="43.6205927" lon="11.4465401"><ele>182.66666666666666</ele><time>2026-04-19T10:10:04.713Z</time></trkpt><trkpt lat="43.6206156" lon="11.4466342"><ele>180.83333333333331</ele><time>2026-04-19T10:10:05.703Z</time></trkpt><trkpt lat="43.6206642" lon="11.4467104"><ele>179.0</ele><time>2026-04-19T10:10:06.695Z</time></trkpt><trkpt lat="43.6207334" lon="11.4467906"><ele>179.0</ele><time>2026-04-19T10:10:07.702Z</time></trkpt><trkpt lat="43.6208058" lon="11.4468731"><ele>179.0</ele><time>2026-04-19T10:10:08.697Z</time></trkpt><trkpt lat="43.620883" lon="11.4469659"><ele>179.0</ele><time>2026-04-19T10:10:09.698Z</time></trkpt><trkpt lat="43.6209555" lon="11.4470512"><ele>179.0</ele><time>2026-04-19T10:10:10.71Z</time></trkpt><trkpt lat="43.6210192" lon="11.4471277"><ele>179.0</ele><time>2026-04-19T10:10:11.707Z</time></trkpt><trkpt lat="43.621079" lon="11.4471977"><ele>176.79999999999998</ele><time>2026-04-19T10:10:12.705Z</time></trkpt><trkpt lat="43.6211443" lon="11.4472575"><ele>174.6</ele><time>2026-04-19T10:10:13.709Z</time></trkpt><trkpt lat="43.6212299" lon="11.4473"><ele>172.4</ele><time>2026-04-19T10:10:14.709Z</time></trkpt><trkpt lat="43.6213227" lon="11.4473178"><ele>170.2</ele><time>2026-04-19T10:10:15.696Z</time></trkpt><trkpt lat="43.6214834" lon="11.4473331"><ele>168.0</ele><time>2026-04-19T10:10:17.697Z</time></trkpt><trkpt lat="43.6215863" lon="11.4473958"><ele>167.5</ele><time>2026-04-19T10:10:19.708Z</time></trkpt><trkpt lat="43.6216188" lon="11.4475283"><ele>167.0</ele><time>2026-04-19T10:10:21.699Z</time></trkpt><trkpt lat="43.6215889" lon="11.4476153"><ele>166.5</ele><time>2026-04-19T10:10:22.694Z</time></trkpt><trkpt lat="43.6215254" lon="11.4476852"><ele>166.0</ele><time>2026-04-19T10:10:23.699Z</time></trkpt><trkpt lat="43.6214578" lon="11.4477543"><ele>165.5</ele><time>2026-04-19T10:10:24.697Z</time></trkpt><trkpt lat="43.6214072" lon="11.4478462"><ele>165.0</ele><time>2026-04-19T10:10:25.712Z</time></trkpt><trkpt lat="43.6213678" lon="11.4479847"><ele>162.75</ele><time>2026-04-19T10:10:26.721Z</time></trkpt><trkpt lat="43.6213226" lon="11.4481403"><ele>160.5</ele><time>2026-04-19T10:10:27.694Z</time></trkpt><trkpt lat="43.6212806" lon="11.4483093"><ele>158.25</ele><time>2026-04-19T10:10:28.7Z</time></trkpt><trkpt lat="43.6212443" lon="11.4484733"><ele>156.0</ele><time>2026-04-19T10:10:29.7Z</time></trkpt><trkpt lat="43.6212205" lon="11.4486382"><ele>156.0</ele><time>2026-04-19T10:10:30.694Z</time></trkpt><trkpt lat="43.6211734" lon="11.4487739"><ele>156.0</ele><time>2026-04-19T10:10:31.702Z</time></trkpt><trkpt lat="43.6211122" lon="11.4488787"><ele>156.0</ele><time>2026-04-19T10:10:32.7Z</time></trkpt><trkpt lat="43.6210416" lon="11.448972"><ele>156.0</ele><time>2026-04-19T10:10:33.697Z</time></trkpt><trkpt lat="43.6209641" lon="11.4490385"><ele>156.0</ele><time>2026-04-19T10:10:34.697Z</time></trkpt><trkpt lat="43.6208871" lon="11.4490889"><ele>153.75</ele><time>2026-04-19T10:10:35.693Z</time></trkpt><trkpt lat="43.6208297" lon="11.449204"><ele>151.5</ele><time>2026-04-19T10:10:37.706Z</time></trkpt><trkpt lat="43.6208415" lon="11.4494209"><ele>149.25</ele><time>2026-04-19T10:10:39.694Z</time></trkpt><trkpt lat="43.6208609" lon="11.4495716"><ele>147.0</ele><time>2026-04-19T10:10:40.694Z</time></trkpt><trkpt lat="43.620885" lon="11.4497347"><ele>146.6</ele><time>2026-04-19T10:10:41.695Z</time></trkpt><trkpt lat="43.6209055" lon="11.4498968"><ele>146.2</ele><time>2026-04-19T10:10:42.69Z</time></trkpt><trkpt lat="43.620913" lon="11.4500457"><ele>145.8</ele><time>2026-04-19T10:10:43.7Z</time></trkpt><trkpt lat="43.6209057" lon="11.4501762"><ele>145.4</ele><time>2026-04-19T10:10:44.702Z</time></trkpt><trkpt lat="43.6208883" lon="11.4502886"><ele>145.0</ele><time>2026-04-19T10:10:45.692Z</time></trkpt><trkpt lat="43.6208811" lon="11.4503953"><ele>144.2</ele><time>2026-04-19T10:10:46.697Z</time></trkpt><trkpt lat="43.6208914" lon="11.4504964"><ele>143.4</ele><time>2026-04-19T10:10:47.688Z</time></trkpt><trkpt lat="43.6209256" lon="11.4506057"><ele>142.6</ele><time>2026-04-19T10:10:48.694Z</time></trkpt><trkpt lat="43.6209831" lon="11.4507204"><ele>141.8</ele><time>2026-04-19T10:10:49.709Z</time></trkpt><trkpt lat="43.6210471" lon="11.4508428"><ele>141.0</ele><time>2026-04-19T10:10:50.704Z</time></trkpt><trkpt lat="43.6211141" lon="11.4509728"><ele>141.25</ele><time>2026-04-19T10:10:51.698Z</time></trkpt><trkpt lat="43.6211621" lon="11.4511032"><ele>141.5</ele><time>2026-04-19T10:10:52.693Z</time></trkpt><trkpt lat="43.6211911" lon="11.4512461"><ele>141.75</ele><time>2026-04-19T10:10:53.695Z</time></trkpt><trkpt lat="43.6212045" lon="11.4514259"><ele>142.0</ele><time>2026-04-19T10:10:54.697Z</time></trkpt><trkpt lat="43.6212081" lon="11.4516109"><ele>142.0</ele><time>2026-04-19T10:10:55.71Z</time></trkpt><trkpt lat="43.6212075" lon="11.4517926"><ele>142.0</ele><time>2026-04-19T10:10:56.718Z</time></trkpt><trkpt lat="43.6212087" lon="11.4519763"><ele>142.0</ele><time>2026-04-19T10:10:57.712Z</time></trkpt><trkpt lat="43.6212078" lon="11.4521661"><ele>142.0</ele><time>2026-04-19T10:10:58.714Z</time></trkpt><trkpt lat="43.621227" lon="11.4525672"><ele>139.66666666666669</ele><time>2026-04-19T10:11:00.702Z</time></trkpt><trkpt lat="43.6212491" lon="11.4527826"><ele>137.33333333333334</ele><time>2026-04-19T10:11:01.709Z</time></trkpt><trkpt lat="43.6212705" lon="11.453008"><ele>135.0</ele><time>2026-04-19T10:11:02.709Z</time></trkpt><trkpt lat="43.6212884" lon="11.4532387"><ele>135.0</ele><time>2026-04-19T10:11:03.721Z</time></trkpt><trkpt lat="43.6213025" lon="11.4534694"><ele>135.0</ele><time>2026-04-19T10:11:04.715Z</time></trkpt><trkpt lat="43.6213155" lon="11.4536994"><ele>135.0</ele><time>2026-04-19T10:11:05.718Z</time></trkpt><trkpt lat="43.6213264" lon="11.4539274"><ele>134.66666666666666</ele><time>2026-04-19T10:11:06.712Z</time></trkpt><trkpt lat="43.6213443" lon="11.4541441"><ele>134.33333333333331</ele><time>2026-04-19T10:11:07.709Z</time></trkpt><trkpt lat="43.6213747" lon="11.4543614"><ele>134.0</ele><time>2026-04-19T10:11:08.708Z</time></trkpt><trkpt lat="43.6214137" lon="11.4545763"><ele>133.75</ele><time>2026-04-19T10:11:09.707Z</time></trkpt><trkpt lat="43.621465" lon="11.4547814"><ele>133.5</ele><time>2026-04-19T10:11:10.712Z</time></trkpt><trkpt lat="43.6215159" lon="11.4549739"><ele>133.25</ele><time>2026-04-19T10:11:11.701Z</time></trkpt><trkpt lat="43.6215627" lon="11.4551555"><ele>133.0</ele><time>2026-04-19T10:11:12.701Z</time></trkpt><trkpt lat="43.6216074" lon="11.4553277"><ele>133.25</ele><time>2026-04-19T10:11:13.71Z</time></trkpt><trkpt lat="43.6216571" lon="11.4554948"><ele>133.5</ele><time>2026-04-19T10:11:14.7Z</time></trkpt><trkpt lat="43.6217148" lon="11.4556602"><ele>133.75</ele><time>2026-04-19T10:11:15.712Z</time></trkpt><trkpt lat="43.6217691" lon="11.4558145"><ele>134.0</ele><time>2026-04-19T10:11:16.711Z</time></trkpt><trkpt lat="43.6218276" lon="11.45596"><ele>134.0</ele><time>2026-04-19T10:11:17.713Z</time></trkpt><trkpt lat="43.6218885" lon="11.4560969"><ele>134.0</ele><time>2026-04-19T10:11:18.708Z</time></trkpt><trkpt lat="43.6219435" lon="11.4562347"><ele>134.0</ele><time>2026-04-19T10:11:19.709Z</time></trkpt><trkpt lat="43.6220178" lon="11.4565081"><ele>134.0</ele><time>2026-04-19T10:11:21.703Z</time></trkpt><trkpt lat="43.6220125" lon="11.4566555"><ele>134.5</ele><time>2026-04-19T10:11:22.713Z</time></trkpt><trkpt lat="43.6219834" lon="11.4568111"><ele>135.0</ele><time>2026-04-19T10:11:23.707Z</time></trkpt><trkpt lat="43.6219617" lon="11.4569727"><ele>135.5</ele><time>2026-04-19T10:11:24.691Z</time></trkpt><trkpt lat="43.6219472" lon="11.4571399"><ele>136.0</ele><time>2026-04-19T10:11:25.702Z</time></trkpt><trkpt lat="43.6219355" lon="11.4572996"><ele>135.2</ele><time>2026-04-19T10:11:26.709Z</time></trkpt><trkpt lat="43.6219258" lon="11.4574594"><ele>134.39999999999998</ele><time>2026-04-19T10:11:27.721Z</time></trkpt><trkpt lat="43.6219189" lon="11.4576101"><ele>133.6</ele><time>2026-04-19T10:11:28.713Z</time></trkpt><trkpt lat="43.6219189" lon="11.457747"><ele>132.79999999999998</ele><time>2026-04-19T10:11:29.72Z</time></trkpt><trkpt lat="43.6219273" lon="11.4578721"><ele>132.0</ele><time>2026-04-19T10:11:30.718Z</time></trkpt><trkpt lat="43.621941" lon="11.4579935"><ele>131.79999999999998</ele><time>2026-04-19T10:11:31.699Z</time></trkpt><trkpt lat="43.62196" lon="11.4581014"><ele>131.6</ele><time>2026-04-19T10:11:32.699Z</time></trkpt><trkpt lat="43.6219754" lon="11.4581882"><ele>131.39999999999998</ele><time>2026-04-19T10:11:33.711Z</time></trkpt><trkpt lat="43.6219748" lon="11.4583303"><ele>131.2</ele><time>2026-04-19T10:11:35.714Z</time></trkpt><trkpt lat="43.6219427" lon="11.4584371"><ele>131.0</ele><time>2026-04-19T10:11:40.719Z</time></trkpt><trkpt lat="43.621981" lon="11.4587242"><ele>130.4</ele><time>2026-04-19T10:11:45.702Z</time></trkpt><trkpt lat="43.6220206" lon="11.4588054"><ele>129.8</ele><time>2026-04-19T10:11:46.704Z</time></trkpt><trkpt lat="43.6220411" lon="11.4588994"><ele>129.20000000000002</ele><time>2026-04-19T10:11:47.704Z</time></trkpt><trkpt lat="43.622051" lon="11.4590322"><ele>128.6</ele><time>2026-04-19T10:11:48.712Z</time></trkpt><trkpt lat="43.6220581" lon="11.4591876"><ele>128.0</ele><time>2026-04-19T10:11:49.717Z</time></trkpt><trkpt lat="43.6220797" lon="11.4593602"><ele>128.0</ele><time>2026-04-19T10:11:50.701Z</time></trkpt><trkpt lat="43.6221351" lon="11.4595513"><ele>128.0</ele><time>2026-04-19T10:11:51.705Z</time></trkpt><trkpt lat="43.6221977" lon="11.4597434"><ele>128.0</ele><time>2026-04-19T10:11:52.714Z</time></trkpt><trkpt lat="43.6222535" lon="11.4599253"><ele>128.0</ele><time>2026-04-19T10:11:53.712Z</time></trkpt><trkpt lat="43.6222965" lon="11.4601088"><ele>128.0</ele><time>2026-04-19T10:11:54.712Z</time></trkpt><trkpt lat="43.6223197" lon="11.4602904"><ele>128.0</ele><time>2026-04-19T10:11:55.703Z</time></trkpt><trkpt lat="43.6223312" lon="11.4604584"><ele>128.0</ele><time>2026-04-19T10:11:56.719Z</time></trkpt><trkpt lat="43.6223426" lon="11.4606097"><ele>128.0</ele><time>2026-04-19T10:11:57.696Z</time></trkpt><trkpt lat="43.622369" lon="11.4607748"><ele>128.0</ele><time>2026-04-19T10:11:58.694Z</time></trkpt><trkpt lat="43.622412" lon="11.4609448"><ele>128.0</ele><time>2026-04-19T10:11:59.7Z</time></trkpt><trkpt lat="43.6224678" lon="11.4611085"><ele>128.0</ele><time>2026-04-19T10:12:00.697Z</time></trkpt><trkpt lat="43.6225247" lon="11.4612625"><ele>128.0</ele><time>2026-04-19T10:12:01.714Z</time></trkpt><trkpt lat="43.6226295" lon="11.4615433"><ele>127.80000000000001</ele><time>2026-04-19T10:12:03.73Z</time></trkpt><trkpt lat="43.6226807" lon="11.4616751"><ele>127.60000000000001</ele><time>2026-04-19T10:12:04.722Z</time></trkpt><trkpt lat="43.622732" lon="11.4618063"><ele>127.39999999999999</ele><time>2026-04-19T10:12:05.719Z</time></trkpt><trkpt lat="43.6227861" lon="11.4619418"><ele>127.19999999999999</ele><time>2026-04-19T10:12:06.717Z</time></trkpt><trkpt lat="43.6228421" lon="11.4620803"><ele>127.0</ele><time>2026-04-19T10:12:07.72Z</time></trkpt><trkpt lat="43.6228971" lon="11.4622185"><ele>127.0</ele><time>2026-04-19T10:12:08.712Z</time></trkpt><trkpt lat="43.6229519" lon="11.4623531"><ele>126.99999999999999</ele><time>2026-04-19T10:12:09.718Z</time></trkpt><trkpt lat="43.6230045" lon="11.4624792"><ele>126.99999999999999</ele><time>2026-04-19T10:12:10.711Z</time></trkpt><trkpt lat="43.6230601" lon="11.4626027"><ele>127.0</ele><time>2026-04-19T10:12:11.722Z</time></trkpt><trkpt lat="43.6231177" lon="11.4627206"><ele>127.0</ele><time>2026-04-19T10:12:12.719Z</time></trkpt><trkpt lat="43.6231769" lon="11.4628333"><ele>127.0</ele><time>2026-04-19T10:12:13.722Z</time></trkpt><trkpt lat="43.6232358" lon="11.4629392"><ele>126.99999999999999</ele><time>2026-04-19T10:12:14.716Z</time></trkpt><trkpt lat="43.6232875" lon="11.4630405"><ele>126.99999999999999</ele><time>2026-04-19T10:12:15.714Z</time></trkpt><trkpt lat="43.6233384" lon="11.4631352"><ele>127.0</ele><time>2026-04-19T10:12:16.717Z</time></trkpt><trkpt lat="43.6233812" lon="11.4632217"><ele>127.0</ele><time>2026-04-19T10:12:17.712Z</time></trkpt><trkpt lat="43.623428" lon="11.4633523"><ele>126.8</ele><time>2026-04-19T10:12:19.712Z</time></trkpt><trkpt lat="43.6234467" lon="11.4634487"><ele>126.6</ele><time>2026-04-19T10:12:22.712Z</time></trkpt><trkpt lat="43.6236286" lon="11.4635001"><ele>126.39999999999999</ele><time>2026-04-19T10:12:39.626Z</time></trkpt><trkpt lat="43.6237063" lon="11.4634769"><ele>126.19999999999999</ele><time>2026-04-19T10:12:40.626Z</time></trkpt><trkpt lat="43.6237899" lon="11.463456"><ele>126.0</ele><time>2026-04-19T10:12:41.632Z</time></trkpt><trkpt lat="43.623873" lon="11.463441"><ele>126.0</ele><time>2026-04-19T10:12:42.629Z</time></trkpt><trkpt lat="43.6239572" lon="11.4634348"><ele>126.0</ele><time>2026-04-19T10:12:43.63Z</time></trkpt><trkpt lat="43.6241142" lon="11.4634177"><ele>126.0</ele><time>2026-04-19T10:12:45.629Z</time></trkpt><trkpt lat="43.6241835" lon="11.4634061"><ele>126.0</ele><time>2026-04-19T10:12:46.625Z</time></trkpt><trkpt lat="43.6242946" lon="11.4633824"><ele>126.0</ele><time>2026-04-19T10:12:48.626Z</time></trkpt><trkpt lat="43.6244054" lon="11.4633634"><ele>125.75</ele><time>2026-04-19T10:12:50.627Z</time></trkpt><trkpt lat="43.6245087" lon="11.4633347"><ele>125.5</ele><time>2026-04-19T10:12:52.632Z</time></trkpt><trkpt lat="43.624628" lon="11.463318"><ele>125.25</ele><time>2026-04-19T10:12:54.624Z</time></trkpt><trkpt lat="43.6247525" lon="11.4633109"><ele>125.0</ele><time>2026-04-19T10:12:56.626Z</time></trkpt><trkpt lat="43.6248625" lon="11.4632949"><ele>125.0</ele><time>2026-04-19T10:12:58.621Z</time></trkpt><trkpt lat="43.6249552" lon="11.4632854"><ele>125.0</ele><time>2026-04-19T10:13:00.623Z</time></trkpt><trkpt lat="43.6250641" lon="11.4632701"><ele>125.0</ele><time>2026-04-19T10:13:02.622Z</time></trkpt><trkpt lat="43.6251732" lon="11.4632532"><ele>125.0</ele><time>2026-04-19T10:13:04.625Z</time></trkpt><trkpt lat="43.6253949" lon="11.4632103"><ele>124.66666666666666</ele><time>2026-04-19T10:13:08.625Z</time></trkpt><trkpt lat="43.6254712" lon="11.4632382"><ele>124.33333333333333</ele><time>2026-04-19T10:13:10.632Z</time></trkpt><trkpt lat="43.625533" lon="11.4632704"><ele>124.0</ele><time>2026-04-19T10:13:12.627Z</time></trkpt><trkpt lat="43.6256029" lon="11.4633411"><ele>123.66666666666666</ele><time>2026-04-19T10:13:14.63Z</time></trkpt><trkpt lat="43.6256797" lon="11.4633922"><ele>123.33333333333333</ele><time>2026-04-19T10:13:16.626Z</time></trkpt><trkpt lat="43.6257673" lon="11.463396"><ele>123.0</ele><time>2026-04-19T10:13:18.621Z</time></trkpt><trkpt lat="43.6258297" lon="11.4632912"><ele>123.0</ele><time>2026-04-19T10:13:20.631Z</time></trkpt><trkpt lat="43.6258477" lon="11.4631998"><ele>123.0</ele><time>2026-04-19T10:13:21.63Z</time></trkpt><trkpt lat="43.6258869" lon="11.4631047"><ele>123.0</ele><time>2026-04-19T10:13:22.622Z</time></trkpt><trkpt lat="43.6259499" lon="11.4630108"><ele>123.0</ele><time>2026-04-19T10:13:23.636Z</time></trkpt><trkpt lat="43.6260171" lon="11.4629268"><ele>123.0</ele><time>2026-04-19T10:13:24.626Z</time></trkpt><trkpt lat="43.6260821" lon="11.4628348"><ele>123.0</ele><time>2026-04-19T10:13:25.626Z</time></trkpt><trkpt lat="43.626217" lon="11.4626684"><ele>122.60000000000001</ele><time>2026-04-19T10:13:27.625Z</time></trkpt><trkpt lat="43.626288" lon="11.4625837"><ele>122.20000000000002</ele><time>2026-04-19T10:13:28.629Z</time></trkpt><trkpt lat="43.6263545" lon="11.4624909"><ele>121.8</ele><time>2026-04-19T10:13:29.634Z</time></trkpt><trkpt lat="43.6264223" lon="11.4623932"><ele>121.4</ele><time>2026-04-19T10:13:30.629Z</time></trkpt><trkpt lat="43.6264856" lon="11.462315"><ele>121.0</ele><time>2026-04-19T10:13:31.627Z</time></trkpt><trkpt lat="43.6265403" lon="11.4622276"><ele>121.00000000000001</ele><time>2026-04-19T10:13:32.63Z</time></trkpt><trkpt lat="43.6265939" lon="11.4621375"><ele>121.0</ele><time>2026-04-19T10:13:33.628Z</time></trkpt><trkpt lat="43.6266492" lon="11.4620519"><ele>121.0</ele><time>2026-04-19T10:13:34.629Z</time></trkpt><trkpt lat="43.6267069" lon="11.4619779"><ele>121.0</ele><time>2026-04-19T10:13:35.626Z</time></trkpt><trkpt lat="43.6267652" lon="11.4619169"><ele>121.00000000000001</ele><time>2026-04-19T10:13:36.627Z</time></trkpt><trkpt lat="43.6268164" lon="11.4618593"><ele>121.0</ele><time>2026-04-19T10:13:37.632Z</time></trkpt><trkpt lat="43.6268837" lon="11.4617797"><ele>121.0</ele><time>2026-04-19T10:13:39.631Z</time></trkpt><trkpt lat="43.6268342" lon="11.4618475"><ele>121.0</ele><time>2026-04-19T10:19:19.646Z</time></trkpt><trkpt lat="43.626693" lon="11.4620361"><ele>121.0</ele><time>2026-04-19T10:19:56.642Z</time></trkpt><trkpt lat="43.6266446" lon="11.4621064"><ele>121.0</ele><time>2026-04-19T10:20:06.639Z</time></trkpt><trkpt lat="43.6265538" lon="11.4622472"><ele>121.00000000000001</ele><time>2026-04-19T10:21:00.634Z</time></trkpt><trkpt lat="43.6266072" lon="11.4621852"><ele>121.0</ele><time>2026-04-19T10:57:32.667Z</time></trkpt><trkpt lat="43.6266513" lon="11.4621127"><ele>121.0</ele><time>2026-04-19T10:57:37.657Z</time></trkpt><trkpt lat="43.6266987" lon="11.4620426"><ele>121.0</ele><time>2026-04-19T10:57:45.657Z</time></trkpt><trkpt lat="43.626811" lon="11.4619287"><ele>121.00000000000001</ele><time>2026-04-19T10:57:58.664Z</time></trkpt><trkpt lat="43.6268528" lon="11.4618618"><ele>121.0</ele><time>2026-04-19T10:58:05.663Z</time></trkpt><trkpt lat="43.6268708" lon="11.4617655"><ele>121.19999999999999</ele><time>2026-04-19T10:58:43.657Z</time></trkpt><trkpt lat="43.6267588" lon="11.4616695"><ele>121.39999999999999</ele><time>2026-04-19T10:58:53.672Z</time></trkpt><trkpt lat="43.6267591" lon="11.4617575"><ele>121.6</ele><time>2026-04-19T11:03:42.655Z</time></trkpt><trkpt lat="43.6267022" lon="11.4618517"><ele>121.8</ele><time>2026-04-19T11:05:27.657Z</time></trkpt><trkpt lat="43.6267816" lon="11.4616928"><ele>122.0</ele><time>2026-04-19T11:05:44.659Z</time></trkpt><trkpt lat="43.6268572" lon="11.4616596"><ele>121.8</ele><time>2026-04-19T11:05:52.653Z</time></trkpt><trkpt lat="43.6269848" lon="11.461606"><ele>121.6</ele><time>2026-04-19T11:05:54.644Z</time></trkpt><trkpt lat="43.6270452" lon="11.4615475"><ele>121.39999999999999</ele><time>2026-04-19T11:05:55.644Z</time></trkpt><trkpt lat="43.6271182" lon="11.4614812"><ele>121.19999999999999</ele><time>2026-04-19T11:05:56.653Z</time></trkpt><trkpt lat="43.6271957" lon="11.4614047"><ele>121.0</ele><time>2026-04-19T11:05:57.648Z</time></trkpt><trkpt lat="43.6272762" lon="11.4613211"><ele>121.0</ele><time>2026-04-19T11:05:58.655Z</time></trkpt><trkpt lat="43.627363" lon="11.4612384"><ele>121.0</ele><time>2026-04-19T11:05:59.657Z</time></trkpt><trkpt lat="43.6274542" lon="11.4611591"><ele>121.0</ele><time>2026-04-19T11:06:00.649Z</time></trkpt><trkpt lat="43.6275401" lon="11.4610898"><ele>121.0</ele><time>2026-04-19T11:06:01.642Z</time></trkpt><trkpt lat="43.6276215" lon="11.4610424"><ele>121.0</ele><time>2026-04-19T11:06:02.648Z</time></trkpt><trkpt lat="43.6276944" lon="11.460995"><ele>121.0</ele><time>2026-04-19T11:06:03.644Z</time></trkpt><trkpt lat="43.6277579" lon="11.4609282"><ele>121.0</ele><time>2026-04-19T11:06:04.65Z</time></trkpt><trkpt lat="43.6277512" lon="11.4607675"><ele>121.0</ele><time>2026-04-19T11:06:06.643Z</time></trkpt><trkpt lat="43.6276855" lon="11.4606846"><ele>121.0</ele><time>2026-04-19T11:06:07.655Z</time></trkpt><trkpt lat="43.6275945" lon="11.4606138"><ele>121.0</ele><time>2026-04-19T11:06:08.649Z</time></trkpt><trkpt lat="43.6274883" lon="11.4605469"><ele>121.4</ele><time>2026-04-19T11:06:09.648Z</time></trkpt><trkpt lat="43.6273934" lon="11.460447"><ele>121.8</ele><time>2026-04-19T11:06:10.646Z</time></trkpt><trkpt lat="43.627311" lon="11.4603466"><ele>122.20000000000002</ele><time>2026-04-19T11:06:11.65Z</time></trkpt><trkpt lat="43.6272485" lon="11.4602343"><ele>122.60000000000001</ele><time>2026-04-19T11:06:12.641Z</time></trkpt><trkpt lat="43.6272007" lon="11.4601282"><ele>123.0</ele><time>2026-04-19T11:06:13.645Z</time></trkpt><trkpt lat="43.6271339" lon="11.4599375"><ele>123.0</ele><time>2026-04-19T11:06:15.649Z</time></trkpt><trkpt lat="43.6270901" lon="11.4598401"><ele>123.0</ele><time>2026-04-19T11:06:17.648Z</time></trkpt><trkpt lat="43.6269879" lon="11.4597887"><ele>123.0</ele><time>2026-04-19T11:06:20.649Z</time></trkpt><trkpt lat="43.6269199" lon="11.4598189"><ele>123.0</ele><time>2026-04-19T11:06:21.64Z</time></trkpt><trkpt lat="43.6268414" lon="11.4598729"><ele>123.0</ele><time>2026-04-19T11:06:22.642Z</time></trkpt><trkpt lat="43.6267541" lon="11.459926"><ele>123.0</ele><time>2026-04-19T11:06:23.652Z</time></trkpt><trkpt lat="43.6266589" lon="11.4599805"><ele>123.60000000000001</ele><time>2026-04-19T11:06:24.645Z</time></trkpt><trkpt lat="43.6265561" lon="11.460033"><ele>124.20000000000002</ele><time>2026-04-19T11:06:25.647Z</time></trkpt><trkpt lat="43.6264557" lon="11.4600828"><ele>124.8</ele><time>2026-04-19T11:06:26.647Z</time></trkpt><trkpt lat="43.6263499" lon="11.4601302"><ele>125.4</ele><time>2026-04-19T11:06:27.658Z</time></trkpt><trkpt lat="43.6262399" lon="11.460181"><ele>126.0</ele><time>2026-04-19T11:06:28.651Z</time></trkpt><trkpt lat="43.6261376" lon="11.4602316"><ele>126.19999999999999</ele><time>2026-04-19T11:06:29.645Z</time></trkpt><trkpt lat="43.6260321" lon="11.4602905"><ele>126.39999999999999</ele><time>2026-04-19T11:06:30.646Z</time></trkpt><trkpt lat="43.6259303" lon="11.4603461"><ele>126.6</ele><time>2026-04-19T11:06:31.65Z</time></trkpt><trkpt lat="43.6258353" lon="11.4603949"><ele>126.8</ele><time>2026-04-19T11:06:32.647Z</time></trkpt><trkpt lat="43.6257456" lon="11.4604505"><ele>127.0</ele><time>2026-04-19T11:06:33.648Z</time></trkpt><trkpt lat="43.625665" lon="11.4604943"><ele>127.0</ele><time>2026-04-19T11:06:34.643Z</time></trkpt><trkpt lat="43.6255287" lon="11.4605761"><ele>127.0</ele><time>2026-04-19T11:06:36.639Z</time></trkpt><trkpt lat="43.6255185" lon="11.4607609"><ele>127.0</ele><time>2026-04-19T11:06:38.638Z</time></trkpt><trkpt lat="43.6255596" lon="11.4608892"><ele>127.0</ele><time>2026-04-19T11:06:39.639Z</time></trkpt><trkpt lat="43.6256114" lon="11.4610054"><ele>127.00000000000001</ele><time>2026-04-19T11:06:40.638Z</time></trkpt><trkpt lat="43.6256552" lon="11.4610978"><ele>127.0</ele><time>2026-04-19T11:06:41.635Z</time></trkpt><trkpt lat="43.6256951" lon="11.4611885"><ele>127.0</ele><time>2026-04-19T11:06:42.641Z</time></trkpt><trkpt lat="43.6257232" lon="11.4612826"><ele>127.0</ele><time>2026-04-19T11:06:43.641Z</time></trkpt><trkpt lat="43.625754" lon="11.4613843"><ele>127.00000000000001</ele><time>2026-04-19T11:06:44.647Z</time></trkpt><trkpt lat="43.6257805" lon="11.4614831"><ele>127.0</ele><time>2026-04-19T11:06:45.636Z</time></trkpt><trkpt lat="43.6258023" lon="11.4615967"><ele>126.50000000000001</ele><time>2026-04-19T11:06:47.65Z</time></trkpt><trkpt lat="43.6257313" lon="11.4616593"><ele>126.0</ele><time>2026-04-19T11:06:49.652Z</time></trkpt><trkpt lat="43.6256346" lon="11.4617077"><ele>125.5</ele><time>2026-04-19T11:06:51.648Z</time></trkpt><trkpt lat="43.6255756" lon="11.4617414"><ele>125.0</ele><time>2026-04-19T11:06:52.641Z</time></trkpt><trkpt lat="43.6254887" lon="11.4617818"><ele>124.50000000000001</ele><time>2026-04-19T11:06:53.642Z</time></trkpt><trkpt lat="43.6253975" lon="11.4618188"><ele>124.0</ele><time>2026-04-19T11:06:54.64Z</time></trkpt><trkpt lat="43.6253169" lon="11.4618699"><ele>124.4</ele><time>2026-04-19T11:06:55.643Z</time></trkpt><trkpt lat="43.6251513" lon="11.461982"><ele>124.80000000000001</ele><time>2026-04-19T11:06:57.644Z</time></trkpt><trkpt lat="43.6250727" lon="11.4620357"><ele>125.19999999999999</ele><time>2026-04-19T11:06:58.653Z</time></trkpt><trkpt lat="43.624991" lon="11.4620934"><ele>125.6</ele><time>2026-04-19T11:06:59.646Z</time></trkpt><trkpt lat="43.6249174" lon="11.4621487"><ele>126.0</ele><time>2026-04-19T11:07:00.638Z</time></trkpt><trkpt lat="43.6248548" lon="11.4621897"><ele>126.0</ele><time>2026-04-19T11:07:01.639Z</time></trkpt><trkpt lat="43.6247934" lon="11.462317"><ele>126.0</ele><time>2026-04-19T11:07:03.639Z</time></trkpt><trkpt lat="43.6248029" lon="11.4624274"><ele>126.0</ele><time>2026-04-19T11:07:04.632Z</time></trkpt><trkpt lat="43.6248127" lon="11.4625261"><ele>126.0</ele><time>2026-04-19T11:07:05.635Z</time></trkpt><trkpt lat="43.6248228" lon="11.4626199"><ele>126.0</ele><time>2026-04-19T11:07:06.631Z</time></trkpt><trkpt lat="43.6247798" lon="11.4627644"><ele>126.0</ele><time>2026-04-19T11:07:08.647Z</time></trkpt><trkpt lat="43.6247157" lon="11.4627974"><ele>126.0</ele><time>2026-04-19T11:07:09.628Z</time></trkpt><trkpt lat="43.6245969" lon="11.4628219"><ele>126.0</ele><time>2026-04-19T11:07:11.641Z</time></trkpt><trkpt lat="43.624505" lon="11.4628339"><ele>126.0</ele><time>2026-04-19T11:07:13.641Z</time></trkpt><trkpt lat="43.6244164" lon="11.4628538"><ele>126.0</ele><time>2026-04-19T11:07:16.653Z</time></trkpt><trkpt lat="43.6242525" lon="11.462829"><ele>126.0</ele><time>2026-04-19T11:07:22.651Z</time></trkpt><trkpt lat="43.6241697" lon="11.4627744"><ele>126.0</ele><time>2026-04-19T11:07:24.644Z</time></trkpt><trkpt lat="43.6242397" lon="11.4628199"><ele>126.0</ele><time>2026-04-19T11:07:29.652Z</time></trkpt><trkpt lat="43.6243083" lon="11.4627925"><ele>126.0</ele><time>2026-04-19T11:07:30.663Z</time></trkpt><trkpt lat="43.6243864" lon="11.4627799"><ele>126.0</ele><time>2026-04-19T11:07:31.646Z</time></trkpt><trkpt lat="43.6244583" lon="11.4627611"><ele>126.0</ele><time>2026-04-19T11:07:32.638Z</time></trkpt><trkpt lat="43.6245251" lon="11.4627506"><ele>126.0</ele><time>2026-04-19T11:07:33.645Z</time></trkpt><trkpt lat="43.6245884" lon="11.4627515"><ele>126.0</ele><time>2026-04-19T11:07:34.665Z</time></trkpt><trkpt lat="43.6246511" lon="11.4627392"><ele>126.0</ele><time>2026-04-19T11:07:35.644Z</time></trkpt><trkpt lat="43.6247432" lon="11.4627089"><ele>126.0</ele><time>2026-04-19T11:07:37.647Z</time></trkpt><trkpt lat="43.6248115" lon="11.4628656"><ele>126.0</ele><time>2026-04-19T11:07:40.648Z</time></trkpt><trkpt lat="43.6248103" lon="11.4629645"><ele>126.0</ele><time>2026-04-19T11:07:41.641Z</time></trkpt><trkpt lat="43.6248181" lon="11.4631113"><ele>126.0</ele><time>2026-04-19T11:07:43.639Z</time></trkpt><trkpt lat="43.624803" lon="11.4632246"><ele>126.0</ele><time>2026-04-19T11:07:45.651Z</time></trkpt><trkpt lat="43.6247041" lon="11.4633183"><ele>126.0</ele><time>2026-04-19T11:07:47.637Z</time></trkpt><trkpt lat="43.6246233" lon="11.4633524"><ele>126.0</ele><time>2026-04-19T11:07:48.641Z</time></trkpt><trkpt lat="43.6245299" lon="11.4633763"><ele>126.0</ele><time>2026-04-19T11:07:49.639Z</time></trkpt><trkpt lat="43.6244301" lon="11.4633833"><ele>126.0</ele><time>2026-04-19T11:07:50.645Z</time></trkpt><trkpt lat="43.6243237" lon="11.4633917"><ele>126.0</ele><time>2026-04-19T11:07:51.654Z</time></trkpt><trkpt lat="43.6242248" lon="11.4633945"><ele>126.0</ele><time>2026-04-19T11:07:52.648Z</time></trkpt><trkpt lat="43.624133" lon="11.4634032"><ele>126.0</ele><time>2026-04-19T11:07:53.651Z</time></trkpt><trkpt lat="43.6240348" lon="11.4634194"><ele>126.0</ele><time>2026-04-19T11:07:54.64Z</time></trkpt><trkpt lat="43.6239436" lon="11.4634322"><ele>126.0</ele><time>2026-04-19T11:07:55.645Z</time></trkpt><trkpt lat="43.6238575" lon="11.4634373"><ele>126.0</ele><time>2026-04-19T11:07:56.647Z</time></trkpt><trkpt lat="43.6237587" lon="11.4634542"><ele>126.0</ele><time>2026-04-19T11:07:57.649Z</time></trkpt><trkpt lat="43.6236664" lon="11.4634605"><ele>126.0</ele><time>2026-04-19T11:07:58.651Z</time></trkpt><trkpt lat="43.6235124" lon="11.463378"><ele>126.0</ele><time>2026-04-19T11:08:00.652Z</time></trkpt><trkpt lat="43.6234524" lon="11.4632725"><ele>126.0</ele><time>2026-04-19T11:08:01.649Z</time></trkpt><trkpt lat="43.623392" lon="11.4631581"><ele>126.0</ele><time>2026-04-19T11:08:02.649Z</time></trkpt><trkpt lat="43.6233206" lon="11.4630415"><ele>126.0</ele><time>2026-04-19T11:08:03.644Z</time></trkpt><trkpt lat="43.6232463" lon="11.4629132"><ele>126.0</ele><time>2026-04-19T11:08:04.646Z</time></trkpt><trkpt lat="43.6231811" lon="11.462777"><ele>126.25</ele><time>2026-04-19T11:08:05.646Z</time></trkpt><trkpt lat="43.6231151" lon="11.4626295"><ele>126.5</ele><time>2026-04-19T11:08:06.649Z</time></trkpt><trkpt lat="43.6230486" lon="11.4624887"><ele>126.75</ele><time>2026-04-19T11:08:07.648Z</time></trkpt><trkpt lat="43.6229884" lon="11.4623423"><ele>127.0</ele><time>2026-04-19T11:08:08.654Z</time></trkpt><trkpt lat="43.6229238" lon="11.4621951"><ele>126.75</ele><time>2026-04-19T11:08:09.649Z</time></trkpt><trkpt lat="43.6228625" lon="11.4620457"><ele>126.5</ele><time>2026-04-19T11:08:10.651Z</time></trkpt><trkpt lat="43.622804" lon="11.461896"><ele>126.25</ele><time>2026-04-19T11:08:11.656Z</time></trkpt><trkpt lat="43.6227393" lon="11.4617428"><ele>126.0</ele><time>2026-04-19T11:08:12.65Z</time></trkpt><trkpt lat="43.6226693" lon="11.4615867"><ele>126.0</ele><time>2026-04-19T11:08:13.652Z</time></trkpt><trkpt lat="43.6226103" lon="11.4614369"><ele>126.0</ele><time>2026-04-19T11:08:14.658Z</time></trkpt><trkpt lat="43.6225539" lon="11.4612995"><ele>126.0</ele><time>2026-04-19T11:08:15.657Z</time></trkpt><trkpt lat="43.6225021" lon="11.4611778"><ele>126.0</ele><time>2026-04-19T11:08:16.652Z</time></trkpt><trkpt lat="43.6224657" lon="11.461082"><ele>126.0</ele><time>2026-04-19T11:08:17.652Z</time></trkpt><trkpt lat="43.6224387" lon="11.4609938"><ele>126.4</ele><time>2026-04-19T11:08:18.649Z</time></trkpt><trkpt lat="43.6224052" lon="11.4609079"><ele>126.8</ele><time>2026-04-19T11:08:19.65Z</time></trkpt><trkpt lat="43.6222995" lon="11.4607771"><ele>127.20000000000002</ele><time>2026-04-19T11:08:21.64Z</time></trkpt><trkpt lat="43.6222168" lon="11.4607368"><ele>127.60000000000001</ele><time>2026-04-19T11:08:22.645Z</time></trkpt><trkpt lat="43.6221144" lon="11.4607114"><ele>128.0</ele><time>2026-04-19T11:08:23.647Z</time></trkpt><trkpt lat="43.6219981" lon="11.4606728"><ele>127.75</ele><time>2026-04-19T11:08:24.651Z</time></trkpt><trkpt lat="43.621867" lon="11.4606233"><ele>127.5</ele><time>2026-04-19T11:08:25.652Z</time></trkpt><trkpt lat="43.6217309" lon="11.4605785"><ele>127.25</ele><time>2026-04-19T11:08:26.654Z</time></trkpt><trkpt lat="43.6215941" lon="11.4605249"><ele>127.0</ele><time>2026-04-19T11:08:27.658Z</time></trkpt><trkpt lat="43.6214506" lon="11.4604659"><ele>127.33333333333334</ele><time>2026-04-19T11:08:28.652Z</time></trkpt><trkpt lat="43.6213077" lon="11.4603929"><ele>127.66666666666666</ele><time>2026-04-19T11:08:29.659Z</time></trkpt><trkpt lat="43.6211706" lon="11.4603196"><ele>128.0</ele><time>2026-04-19T11:08:30.651Z</time></trkpt><trkpt lat="43.6210264" lon="11.4602441"><ele>128.0</ele><time>2026-04-19T11:08:31.652Z</time></trkpt><trkpt lat="43.6208826" lon="11.4601726"><ele>128.0</ele><time>2026-04-19T11:08:32.65Z</time></trkpt><trkpt lat="43.6207339" lon="11.4601059"><ele>128.0</ele><time>2026-04-19T11:08:33.652Z</time></trkpt><trkpt lat="43.6205912" lon="11.4600358"><ele>128.0</ele><time>2026-04-19T11:08:34.652Z</time></trkpt><trkpt lat="43.6204486" lon="11.4599639"><ele>128.0</ele><time>2026-04-19T11:08:35.65Z</time></trkpt><trkpt lat="43.6203124" lon="11.4598918"><ele>128.0</ele><time>2026-04-19T11:08:36.651Z</time></trkpt><trkpt lat="43.620177" lon="11.4598182"><ele>128.0</ele><time>2026-04-19T11:08:37.663Z</time></trkpt><trkpt lat="43.6200435" lon="11.4597493"><ele>128.66666666666666</ele><time>2026-04-19T11:08:38.66Z</time></trkpt><trkpt lat="43.6199139" lon="11.4596708"><ele>129.33333333333334</ele><time>2026-04-19T11:08:39.657Z</time></trkpt><trkpt lat="43.6197724" lon="11.4596099"><ele>130.0</ele><time>2026-04-19T11:08:40.656Z</time></trkpt><trkpt lat="43.6194843" lon="11.4594952"><ele>130.0</ele><time>2026-04-19T11:08:42.653Z</time></trkpt><trkpt lat="43.6193431" lon="11.4594778"><ele>130.0</ele><time>2026-04-19T11:08:43.658Z</time></trkpt><trkpt lat="43.6191898" lon="11.4594507"><ele>130.0</ele><time>2026-04-19T11:08:44.656Z</time></trkpt><trkpt lat="43.6190344" lon="11.4594255"><ele>130.0</ele><time>2026-04-19T11:08:45.658Z</time></trkpt><trkpt lat="43.6188633" lon="11.4594141"><ele>130.0</ele><time>2026-04-19T11:08:46.654Z</time></trkpt><trkpt lat="43.6187059" lon="11.4594251"><ele>130.0</ele><time>2026-04-19T11:08:47.668Z</time></trkpt><trkpt lat="43.618543" lon="11.4594376"><ele>130.33333333333334</ele><time>2026-04-19T11:08:48.656Z</time></trkpt><trkpt lat="43.6183895" lon="11.4594516"><ele>130.66666666666666</ele><time>2026-04-19T11:08:49.658Z</time></trkpt><trkpt lat="43.6182292" lon="11.4594703"><ele>131.0</ele><time>2026-04-19T11:08:50.658Z</time></trkpt><trkpt lat="43.6180629" lon="11.459484"><ele>131.0</ele><time>2026-04-19T11:08:51.658Z</time></trkpt><trkpt lat="43.6179" lon="11.4594989"><ele>131.0</ele><time>2026-04-19T11:08:52.654Z</time></trkpt><trkpt lat="43.6177302" lon="11.4595161"><ele>131.0</ele><time>2026-04-19T11:08:53.654Z</time></trkpt><trkpt lat="43.617561" lon="11.4594897"><ele>131.33333333333331</ele><time>2026-04-19T11:08:54.654Z</time></trkpt><trkpt lat="43.6174044" lon="11.4594229"><ele>131.66666666666666</ele><time>2026-04-19T11:08:55.658Z</time></trkpt><trkpt lat="43.6172435" lon="11.4593356"><ele>132.0</ele><time>2026-04-19T11:08:56.661Z</time></trkpt><trkpt lat="43.6170913" lon="11.4592643"><ele>132.33333333333334</ele><time>2026-04-19T11:08:57.666Z</time></trkpt><trkpt lat="43.6169342" lon="11.4592109"><ele>132.66666666666669</ele><time>2026-04-19T11:08:58.657Z</time></trkpt><trkpt lat="43.6167744" lon="11.4591632"><ele>133.0</ele><time>2026-04-19T11:08:59.664Z</time></trkpt><trkpt lat="43.6166162" lon="11.4591351"><ele>133.0</ele><time>2026-04-19T11:09:00.66Z</time></trkpt><trkpt lat="43.6164614" lon="11.4591129"><ele>133.0</ele><time>2026-04-19T11:09:01.662Z</time></trkpt><trkpt lat="43.616128" lon="11.4590498"><ele>133.33333333333334</ele><time>2026-04-19T11:09:03.66Z</time></trkpt><trkpt lat="43.6159636" lon="11.4590229"><ele>133.66666666666666</ele><time>2026-04-19T11:09:04.659Z</time></trkpt><trkpt lat="43.6157931" lon="11.4589656"><ele>134.0</ele><time>2026-04-19T11:09:05.654Z</time></trkpt><trkpt lat="43.6156394" lon="11.4588737"><ele>134.33333333333331</ele><time>2026-04-19T11:09:06.652Z</time></trkpt><trkpt lat="43.6155003" lon="11.4587519"><ele>134.66666666666666</ele><time>2026-04-19T11:09:07.661Z</time></trkpt><trkpt lat="43.6153608" lon="11.4586005"><ele>135.0</ele><time>2026-04-19T11:09:08.655Z</time></trkpt><trkpt lat="43.6152276" lon="11.4584478"><ele>135.0</ele><time>2026-04-19T11:09:09.661Z</time></trkpt><trkpt lat="43.6151096" lon="11.4582986"><ele>135.0</ele><time>2026-04-19T11:09:10.658Z</time></trkpt><trkpt lat="43.6150012" lon="11.4581531"><ele>135.0</ele><time>2026-04-19T11:09:11.656Z</time></trkpt><trkpt lat="43.6148922" lon="11.458016"><ele>135.0</ele><time>2026-04-19T11:09:12.665Z</time></trkpt><trkpt lat="43.6147951" lon="11.457893"><ele>135.0</ele><time>2026-04-19T11:09:13.655Z</time></trkpt><trkpt lat="43.6147086" lon="11.4577787"><ele>135.0</ele><time>2026-04-19T11:09:14.654Z</time></trkpt><trkpt lat="43.614654" lon="11.4576242"><ele>135.0</ele><time>2026-04-19T11:09:15.655Z</time></trkpt><trkpt lat="43.6146097" lon="11.457445"><ele>135.0</ele><time>2026-04-19T11:09:16.658Z</time></trkpt><trkpt lat="43.6145628" lon="11.4572641"><ele>135.0</ele><time>2026-04-19T11:09:17.658Z</time></trkpt><trkpt lat="43.6145046" lon="11.4570955"><ele>135.0</ele><time>2026-04-19T11:09:18.661Z</time></trkpt><trkpt lat="43.6144575" lon="11.4569346"><ele>135.0</ele><time>2026-04-19T11:09:19.654Z</time></trkpt><trkpt lat="43.614416" lon="11.4567767"><ele>137.0</ele><time>2026-04-19T11:09:20.657Z</time></trkpt><trkpt lat="43.6143911" lon="11.456606"><ele>139.0</ele><time>2026-04-19T11:09:21.656Z</time></trkpt><trkpt lat="43.6143827" lon="11.456424"><ele>141.0</ele><time>2026-04-19T11:09:22.658Z</time></trkpt><trkpt lat="43.6143545" lon="11.4560781"><ele>141.0</ele><time>2026-04-19T11:09:24.659Z</time></trkpt><trkpt lat="43.6143388" lon="11.4558996"><ele>141.0</ele><time>2026-04-19T11:09:25.659Z</time></trkpt><trkpt lat="43.6143195" lon="11.4557227"><ele>141.0</ele><time>2026-04-19T11:09:26.661Z</time></trkpt><trkpt lat="43.614298" lon="11.4555514"><ele>141.0</ele><time>2026-04-19T11:09:27.666Z</time></trkpt><trkpt lat="43.6142706" lon="11.4554015"><ele>140.4</ele><time>2026-04-19T11:09:28.661Z</time></trkpt><trkpt lat="43.6142515" lon="11.4552629"><ele>139.8</ele><time>2026-04-19T11:09:29.664Z</time></trkpt><trkpt lat="43.6142289" lon="11.4551337"><ele>139.20000000000002</ele><time>2026-04-19T11:09:30.658Z</time></trkpt><trkpt lat="43.614206" lon="11.4550055"><ele>138.6</ele><time>2026-04-19T11:09:31.657Z</time></trkpt><trkpt lat="43.614184" lon="11.454867"><ele>138.0</ele><time>2026-04-19T11:09:32.656Z</time></trkpt><trkpt lat="43.6141642" lon="11.4547388"><ele>138.5</ele><time>2026-04-19T11:09:33.654Z</time></trkpt><trkpt lat="43.6141431" lon="11.4545961"><ele>139.0</ele><time>2026-04-19T11:09:34.651Z</time></trkpt><trkpt lat="43.6141218" lon="11.4544406"><ele>139.5</ele><time>2026-04-19T11:09:35.645Z</time></trkpt><trkpt lat="43.6141066" lon="11.4542758"><ele>140.0</ele><time>2026-04-19T11:09:36.645Z</time></trkpt><trkpt lat="43.6140858" lon="11.4541049"><ele>140.0</ele><time>2026-04-19T11:09:37.66Z</time></trkpt><trkpt lat="43.6140699" lon="11.4539296"><ele>140.0</ele><time>2026-04-19T11:09:38.645Z</time></trkpt><trkpt lat="43.6140514" lon="11.4537558"><ele>140.0</ele><time>2026-04-19T11:09:39.649Z</time></trkpt><trkpt lat="43.6140207" lon="11.4535805"><ele>140.0</ele><time>2026-04-19T11:09:40.645Z</time></trkpt><trkpt lat="43.6139943" lon="11.4534053"><ele>141.33333333333331</ele><time>2026-04-19T11:09:41.641Z</time></trkpt><trkpt lat="43.6139735" lon="11.4532345"><ele>142.66666666666666</ele><time>2026-04-19T11:09:42.644Z</time></trkpt><trkpt lat="43.6139585" lon="11.4530724"><ele>144.0</ele><time>2026-04-19T11:09:43.647Z</time></trkpt><trkpt lat="43.6139991" lon="11.4527533"><ele>145.5</ele><time>2026-04-19T11:09:45.648Z</time></trkpt><trkpt lat="43.6140473" lon="11.4526017"><ele>147.0</ele><time>2026-04-19T11:09:46.649Z</time></trkpt><trkpt lat="43.6141054" lon="11.4524503"><ele>148.5</ele><time>2026-04-19T11:09:47.66Z</time></trkpt><trkpt lat="43.6141618" lon="11.4523009"><ele>150.0</ele><time>2026-04-19T11:09:48.652Z</time></trkpt><trkpt lat="43.6142055" lon="11.4521631"><ele>151.6</ele><time>2026-04-19T11:09:49.649Z</time></trkpt><trkpt lat="43.6142266" lon="11.4520481"><ele>153.2</ele><time>2026-04-19T11:09:50.644Z</time></trkpt><trkpt lat="43.6142162" lon="11.4519567"><ele>154.8</ele><time>2026-04-19T11:09:51.649Z</time></trkpt><trkpt lat="43.6140925" lon="11.451926"><ele>156.4</ele><time>2026-04-19T11:09:53.651Z</time></trkpt><trkpt lat="43.6139925" lon="11.4519885"><ele>158.0</ele><time>2026-04-19T11:09:54.644Z</time></trkpt><trkpt lat="43.6138794" lon="11.4520655"><ele>156.8</ele><time>2026-04-19T11:09:55.648Z</time></trkpt><trkpt lat="43.6137634" lon="11.4521255"><ele>155.60000000000002</ele><time>2026-04-19T11:09:56.672Z</time></trkpt><trkpt lat="43.6136556" lon="11.4521707"><ele>154.39999999999998</ele><time>2026-04-19T11:09:57.665Z</time></trkpt><trkpt lat="43.6135568" lon="11.4521734"><ele>153.2</ele><time>2026-04-19T11:09:58.737Z</time></trkpt><trkpt lat="43.6134665" lon="11.4521607"><ele>152.0</ele><time>2026-04-19T11:09:59.742Z</time></trkpt><trkpt lat="43.6133799" lon="11.4521392"><ele>155.75</ele><time>2026-04-19T11:10:00.736Z</time></trkpt><trkpt lat="43.6132961" lon="11.4521047"><ele>159.5</ele><time>2026-04-19T11:10:01.72Z</time></trkpt><trkpt lat="43.6130926" lon="11.4518515"><ele>163.25</ele><time>2026-04-19T11:10:03.726Z</time></trkpt><trkpt lat="43.6130802" lon="11.4517428"><ele>167.0</ele><time>2026-04-19T11:10:04.722Z</time></trkpt><trkpt lat="43.6130483" lon="11.451466"><ele>167.0</ele><time>2026-04-19T11:10:06.734Z</time></trkpt><trkpt lat="43.6130756" lon="11.4513311"><ele>167.0</ele><time>2026-04-19T11:10:07.745Z</time></trkpt><trkpt lat="43.6131181" lon="11.4512012"><ele>167.0</ele><time>2026-04-19T11:10:08.726Z</time></trkpt><trkpt lat="43.6131799" lon="11.4510634"><ele>167.0</ele><time>2026-04-19T11:10:09.72Z</time></trkpt><trkpt lat="43.6132384" lon="11.4509233"><ele>167.0</ele><time>2026-04-19T11:10:10.73Z</time></trkpt><trkpt lat="43.613299" lon="11.4507845"><ele>169.25</ele><time>2026-04-19T11:10:11.729Z</time></trkpt><trkpt lat="43.6133379" lon="11.4506545"><ele>171.5</ele><time>2026-04-19T11:10:12.742Z</time></trkpt><trkpt lat="43.613389" lon="11.4505076"><ele>173.75</ele><time>2026-04-19T11:10:13.748Z</time></trkpt><trkpt lat="43.6134341" lon="11.4503535"><ele>176.0</ele><time>2026-04-19T11:10:14.741Z</time></trkpt><trkpt lat="43.6134696" lon="11.4501951"><ele>177.5</ele><time>2026-04-19T11:10:15.739Z</time></trkpt><trkpt lat="43.6134901" lon="11.4500294"><ele>179.0</ele><time>2026-04-19T11:10:16.743Z</time></trkpt><trkpt lat="43.6134918" lon="11.4498698"><ele>180.5</ele><time>2026-04-19T11:10:17.736Z</time></trkpt><trkpt lat="43.6134779" lon="11.4497117"><ele>182.0</ele><time>2026-04-19T11:10:18.729Z</time></trkpt><trkpt lat="43.6134512" lon="11.4495776"><ele>183.6</ele><time>2026-04-19T11:10:19.726Z</time></trkpt><trkpt lat="43.6134045" lon="11.4494732"><ele>185.2</ele><time>2026-04-19T11:10:20.729Z</time></trkpt><trkpt lat="43.6133284" lon="11.4493779"><ele>186.8</ele><time>2026-04-19T11:10:21.739Z</time></trkpt><trkpt lat="43.6132311" lon="11.4493011"><ele>188.4</ele><time>2026-04-19T11:10:22.734Z</time></trkpt><trkpt lat="43.6131257" lon="11.4492472"><ele>190.0</ele><time>2026-04-19T11:10:23.732Z</time></trkpt><trkpt lat="43.613015" lon="11.4492052"><ele>190.0</ele><time>2026-04-19T11:10:24.729Z</time></trkpt><trkpt lat="43.6128913" lon="11.4491506"><ele>190.0</ele><time>2026-04-19T11:10:25.728Z</time></trkpt><trkpt lat="43.6126403" lon="11.4490306"><ele>190.0</ele><time>2026-04-19T11:10:27.751Z</time></trkpt><trkpt lat="43.612522" lon="11.4489762"><ele>190.6</ele><time>2026-04-19T11:10:28.758Z</time></trkpt><trkpt lat="43.6124118" lon="11.4489128"><ele>191.2</ele><time>2026-04-19T11:10:29.741Z</time></trkpt><trkpt lat="43.6123182" lon="11.4488329"><ele>191.8</ele><time>2026-04-19T11:10:30.732Z</time></trkpt><trkpt lat="43.6122413" lon="11.4487393"><ele>192.4</ele><time>2026-04-19T11:10:31.739Z</time></trkpt><trkpt lat="43.6121746" lon="11.4486447"><ele>193.0</ele><time>2026-04-19T11:10:32.727Z</time></trkpt><trkpt lat="43.6121092" lon="11.4485447"><ele>193.60000000000002</ele><time>2026-04-19T11:10:33.727Z</time></trkpt><trkpt lat="43.6120472" lon="11.4484417"><ele>194.20000000000002</ele><time>2026-04-19T11:10:34.722Z</time></trkpt><trkpt lat="43.6119902" lon="11.4483331"><ele>194.8</ele><time>2026-04-19T11:10:35.722Z</time></trkpt><trkpt lat="43.6119424" lon="11.4482172"><ele>195.4</ele><time>2026-04-19T11:10:36.738Z</time></trkpt><trkpt lat="43.6119041" lon="11.4480837"><ele>196.0</ele><time>2026-04-19T11:10:37.737Z</time></trkpt><trkpt lat="43.6118783" lon="11.447943"><ele>198.0</ele><time>2026-04-19T11:10:38.735Z</time></trkpt><trkpt lat="43.6118637" lon="11.4477947"><ele>200.0</ele><time>2026-04-19T11:10:39.728Z</time></trkpt><trkpt lat="43.6118606" lon="11.4476432"><ele>202.0</ele><time>2026-04-19T11:10:40.724Z</time></trkpt><trkpt lat="43.6118625" lon="11.4474828"><ele>204.0</ele><time>2026-04-19T11:10:41.725Z</time></trkpt><trkpt lat="43.6118588" lon="11.4473225"><ele>204.0</ele><time>2026-04-19T11:10:42.737Z</time></trkpt><trkpt lat="43.6118453" lon="11.4471693"><ele>204.0</ele><time>2026-04-19T11:10:43.737Z</time></trkpt><trkpt lat="43.6118188" lon="11.4470243"><ele>204.0</ele><time>2026-04-19T11:10:44.738Z</time></trkpt><trkpt lat="43.6117756" lon="11.4468918"><ele>204.0</ele><time>2026-04-19T11:10:45.719Z</time></trkpt><trkpt lat="43.6117207" lon="11.4467746"><ele>204.0</ele><time>2026-04-19T11:10:46.721Z</time></trkpt><trkpt lat="43.6116451" lon="11.4465404"><ele>206.33333333333334</ele><time>2026-04-19T11:10:48.732Z</time></trkpt><trkpt lat="43.6116296" lon="11.4464352"><ele>208.66666666666669</ele><time>2026-04-19T11:10:49.737Z</time></trkpt><trkpt lat="43.6116159" lon="11.446346"><ele>211.0</ele><time>2026-04-19T11:10:50.747Z</time></trkpt><trkpt lat="43.6115988" lon="11.4462009"><ele>213.33333333333334</ele><time>2026-04-19T11:10:52.738Z</time></trkpt><trkpt lat="43.6115884" lon="11.4460664"><ele>215.66666666666669</ele><time>2026-04-19T11:10:54.74Z</time></trkpt><trkpt lat="43.6115803" lon="11.4459281"><ele>218.0</ele><time>2026-04-19T11:10:56.737Z</time></trkpt><trkpt lat="43.611562" lon="11.4457958"><ele>220.8</ele><time>2026-04-19T11:10:58.734Z</time></trkpt><trkpt lat="43.6115517" lon="11.4456541"><ele>223.60000000000002</ele><time>2026-04-19T11:11:00.723Z</time></trkpt><trkpt lat="43.61156" lon="11.4455113"><ele>226.39999999999998</ele><time>2026-04-19T11:11:02.739Z</time></trkpt><trkpt lat="43.6115587" lon="11.4453758"><ele>229.2</ele><time>2026-04-19T11:11:04.747Z</time></trkpt><trkpt lat="43.6115193" lon="11.4452378"><ele>232.0</ele><time>2026-04-19T11:11:06.735Z</time></trkpt><trkpt lat="43.6114745" lon="11.4451061"><ele>232.25</ele><time>2026-04-19T11:11:08.736Z</time></trkpt><trkpt lat="43.6113553" lon="11.4448397"><ele>232.5</ele><time>2026-04-19T11:11:12.731Z</time></trkpt><trkpt lat="43.6112956" lon="11.4447269"><ele>232.75</ele><time>2026-04-19T11:11:14.741Z</time></trkpt><trkpt lat="43.6112415" lon="11.4446335"><ele>233.0</ele><time>2026-04-19T11:11:16.746Z</time></trkpt><trkpt lat="43.6111977" lon="11.4445098"><ele>233.4</ele><time>2026-04-19T11:11:18.735Z</time></trkpt><trkpt lat="43.6111531" lon="11.4443874"><ele>233.8</ele><time>2026-04-19T11:11:20.743Z</time></trkpt><trkpt lat="43.6111077" lon="11.4442604"><ele>234.2</ele><time>2026-04-19T11:11:22.724Z</time></trkpt><trkpt lat="43.6110501" lon="11.4441327"><ele>234.6</ele><time>2026-04-19T11:11:24.727Z</time></trkpt><trkpt lat="43.6109902" lon="11.4439762"><ele>235.0</ele><time>2026-04-19T11:11:26.748Z</time></trkpt><trkpt lat="43.6109501" lon="11.4438247"><ele>237.0</ele><time>2026-04-19T11:11:28.743Z</time></trkpt><trkpt lat="43.6109533" lon="11.4436927"><ele>239.0</ele><time>2026-04-19T11:11:29.657Z</time></trkpt><trkpt lat="43.6110119" lon="11.4434632"><ele>241.0</ele><time>2026-04-19T11:11:32.653Z</time></trkpt><trkpt lat="43.6110634" lon="11.443339"><ele>243.0</ele><time>2026-04-19T11:11:34.65Z</time></trkpt><trkpt lat="43.6111204" lon="11.4432436"><ele>242.60000000000002</ele><time>2026-04-19T11:11:36.644Z</time></trkpt><trkpt lat="43.6111574" lon="11.4431275"><ele>242.20000000000002</ele><time>2026-04-19T11:11:38.653Z</time></trkpt><trkpt lat="43.6111964" lon="11.4429876"><ele>241.8</ele><time>2026-04-19T11:11:40.653Z</time></trkpt><trkpt lat="43.6112278" lon="11.4428439"><ele>241.4</ele><time>2026-04-19T11:11:42.652Z</time></trkpt><trkpt lat="43.6112315" lon="11.442711"><ele>241.0</ele><time>2026-04-19T11:11:44.66Z</time></trkpt><trkpt lat="43.6112266" lon="11.4425929"><ele>242.0</ele><time>2026-04-19T11:11:46.659Z</time></trkpt><trkpt lat="43.611204" lon="11.4424774"><ele>243.00000000000003</ele><time>2026-04-19T11:11:48.653Z</time></trkpt><trkpt lat="43.611182" lon="11.4423455"><ele>244.00000000000003</ele><time>2026-04-19T11:11:50.659Z</time></trkpt><trkpt lat="43.6112089" lon="11.4421593"><ele>245.0</ele><time>2026-04-19T11:11:55.659Z</time></trkpt><trkpt lat="43.6112261" lon="11.4420126"><ele>246.0</ele><time>2026-04-19T11:11:57.658Z</time></trkpt><trkpt lat="43.6112039" lon="11.4418991"><ele>246.33333333333334</ele><time>2026-04-19T11:11:58.66Z</time></trkpt><trkpt lat="43.6111855" lon="11.4417887"><ele>246.66666666666669</ele><time>2026-04-19T11:11:59.66Z</time></trkpt><trkpt lat="43.6111673" lon="11.4416596"><ele>247.0</ele><time>2026-04-19T11:12:00.658Z</time></trkpt><trkpt lat="43.6111508" lon="11.4415614"><ele>247.33333333333334</ele><time>2026-04-19T11:12:01.653Z</time></trkpt><trkpt lat="43.6111389" lon="11.4414736"><ele>247.66666666666669</ele><time>2026-04-19T11:12:02.656Z</time></trkpt><trkpt lat="43.6111363" lon="11.4413324"><ele>248.0</ele><time>2026-04-19T11:12:04.651Z</time></trkpt><trkpt lat="43.6111297" lon="11.4412379"><ele>248.60000000000002</ele><time>2026-04-19T11:12:06.658Z</time></trkpt><trkpt lat="43.6111372" lon="11.4411339"><ele>249.20000000000002</ele><time>2026-04-19T11:12:25.653Z</time></trkpt><trkpt lat="43.6111761" lon="11.4409086"><ele>249.8</ele><time>2026-04-19T11:12:27.652Z</time></trkpt><trkpt lat="43.6111876" lon="11.4407816"><ele>250.4</ele><time>2026-04-19T11:12:28.654Z</time></trkpt><trkpt lat="43.611209" lon="11.4406406"><ele>251.0</ele><time>2026-04-19T11:12:29.665Z</time></trkpt><trkpt lat="43.611234" lon="11.4405046"><ele>252.20000000000002</ele><time>2026-04-19T11:12:30.651Z</time></trkpt><trkpt lat="43.6112543" lon="11.4403638"><ele>253.40000000000003</ele><time>2026-04-19T11:12:31.653Z</time></trkpt><trkpt lat="43.6112758" lon="11.4402166"><ele>254.6</ele><time>2026-04-19T11:12:32.657Z</time></trkpt><trkpt lat="43.6112975" lon="11.4400732"><ele>255.8</ele><time>2026-04-19T11:12:33.651Z</time></trkpt><trkpt lat="43.611325" lon="11.4399294"><ele>257.0</ele><time>2026-04-19T11:12:34.654Z</time></trkpt><trkpt lat="43.6113447" lon="11.4398049"><ele>257.0</ele><time>2026-04-19T11:12:35.65Z</time></trkpt><trkpt lat="43.6113448" lon="11.4396913"><ele>257.0</ele><time>2026-04-19T11:12:36.648Z</time></trkpt><trkpt lat="43.611346" lon="11.4395904"><ele>257.0</ele><time>2026-04-19T11:12:37.648Z</time></trkpt><trkpt lat="43.6113597" lon="11.4394942"><ele>257.0</ele><time>2026-04-19T11:12:38.653Z</time></trkpt><trkpt lat="43.6113731" lon="11.4393935"><ele>257.0</ele><time>2026-04-19T11:12:39.649Z</time></trkpt><trkpt lat="43.6113956" lon="11.4392666"><ele>257.0</ele><time>2026-04-19T11:12:40.651Z</time></trkpt><trkpt lat="43.6114054" lon="11.4391442"><ele>258.0</ele><time>2026-04-19T11:12:41.642Z</time></trkpt><trkpt lat="43.6114266" lon="11.438981"><ele>259.0</ele><time>2026-04-19T11:12:43.653Z</time></trkpt><trkpt lat="43.6114603" lon="11.4388347"><ele>260.0</ele><time>2026-04-19T11:12:45.654Z</time></trkpt><trkpt lat="43.6114711" lon="11.4387292"><ele>261.0</ele><time>2026-04-19T11:12:46.65Z</time></trkpt><trkpt lat="43.6114927" lon="11.4384907"><ele>261.6</ele><time>2026-04-19T11:12:48.649Z</time></trkpt><trkpt lat="43.6114971" lon="11.4383649"><ele>262.20000000000005</ele><time>2026-04-19T11:12:49.649Z</time></trkpt><trkpt lat="43.6115105" lon="11.4382422"><ele>262.79999999999995</ele><time>2026-04-19T11:12:50.651Z</time></trkpt><trkpt lat="43.6115323" lon="11.4381112"><ele>263.4</ele><time>2026-04-19T11:12:51.656Z</time></trkpt><trkpt lat="43.611549" lon="11.4379732"><ele>264.0</ele><time>2026-04-19T11:12:52.645Z</time></trkpt><trkpt lat="43.6115587" lon="11.4378352"><ele>264.2</ele><time>2026-04-19T11:12:53.663Z</time></trkpt><trkpt lat="43.6115719" lon="11.4377103"><ele>264.4</ele><time>2026-04-19T11:12:54.655Z</time></trkpt><trkpt lat="43.6115906" lon="11.4375841"><ele>264.6</ele><time>2026-04-19T11:12:55.657Z</time></trkpt><trkpt lat="43.6116162" lon="11.4374633"><ele>264.8</ele><time>2026-04-19T11:12:56.654Z</time></trkpt><trkpt lat="43.6116521" lon="11.4373297"><ele>265.0</ele><time>2026-04-19T11:12:57.651Z</time></trkpt><trkpt lat="43.6116767" lon="11.4372025"><ele>265.4</ele><time>2026-04-19T11:12:58.649Z</time></trkpt><trkpt lat="43.6116959" lon="11.4370652"><ele>265.8</ele><time>2026-04-19T11:12:59.658Z</time></trkpt><trkpt lat="43.6117161" lon="11.4369084"><ele>266.2</ele><time>2026-04-19T11:13:00.641Z</time></trkpt><trkpt lat="43.6117433" lon="11.4367588"><ele>266.6</ele><time>2026-04-19T11:13:01.65Z</time></trkpt><trkpt lat="43.6117616" lon="11.4366247"><ele>267.0</ele><time>2026-04-19T11:13:02.651Z</time></trkpt><trkpt lat="43.611784" lon="11.4364873"><ele>267.0</ele><time>2026-04-19T11:13:03.651Z</time></trkpt><trkpt lat="43.6118008" lon="11.4363378"><ele>267.0</ele><time>2026-04-19T11:13:04.649Z</time></trkpt><trkpt lat="43.6118162" lon="11.4361961"><ele>267.0</ele><time>2026-04-19T11:13:05.654Z</time></trkpt><trkpt lat="43.6118366" lon="11.4360556"><ele>267.0</ele><time>2026-04-19T11:13:06.648Z</time></trkpt><trkpt lat="43.6118578" lon="11.435906"><ele>267.0</ele><time>2026-04-19T11:13:07.654Z</time></trkpt><trkpt lat="43.6119072" lon="11.4356104"><ele>268.0</ele><time>2026-04-19T11:13:09.655Z</time></trkpt><trkpt lat="43.6119328" lon="11.4354661"><ele>269.0</ele><time>2026-04-19T11:13:10.652Z</time></trkpt><trkpt lat="43.6119464" lon="11.4353388"><ele>270.0</ele><time>2026-04-19T11:13:11.654Z</time></trkpt><trkpt lat="43.6119568" lon="11.4352114"><ele>271.0</ele><time>2026-04-19T11:13:12.652Z</time></trkpt><trkpt lat="43.6119757" lon="11.4350777"><ele>272.0</ele><time>2026-04-19T11:13:13.652Z</time></trkpt><trkpt lat="43.6120003" lon="11.4349253"><ele>272.6</ele><time>2026-04-19T11:13:14.654Z</time></trkpt><trkpt lat="43.6120243" lon="11.434771"><ele>273.2</ele><time>2026-04-19T11:13:15.655Z</time></trkpt><trkpt lat="43.6120459" lon="11.4346241"><ele>273.8</ele><time>2026-04-19T11:13:16.652Z</time></trkpt><trkpt lat="43.6120629" lon="11.4345069"><ele>274.4</ele><time>2026-04-19T11:13:17.656Z</time></trkpt><trkpt lat="43.6120783" lon="11.4343878"><ele>275.0</ele><time>2026-04-19T11:13:18.653Z</time></trkpt><trkpt lat="43.612091" lon="11.4342559"><ele>275.5</ele><time>2026-04-19T11:13:19.652Z</time></trkpt><trkpt lat="43.6121149" lon="11.4341313"><ele>276.0</ele><time>2026-04-19T11:13:20.653Z</time></trkpt><trkpt lat="43.612132" lon="11.4340004"><ele>276.5</ele><time>2026-04-19T11:13:21.651Z</time></trkpt><trkpt lat="43.6121472" lon="11.4338908"><ele>277.0</ele><time>2026-04-19T11:13:22.646Z</time></trkpt><trkpt lat="43.6121585" lon="11.4338052"><ele>277.5</ele><time>2026-04-19T11:13:23.651Z</time></trkpt><trkpt lat="43.6121728" lon="11.4336809"><ele>278.0</ele><time>2026-04-19T11:13:25.652Z</time></trkpt><trkpt lat="43.6121958" lon="11.433583"><ele>278.0</ele><time>2026-04-19T11:13:27.654Z</time></trkpt><trkpt lat="43.6122738" lon="11.4335311"><ele>278.0</ele><time>2026-04-19T11:13:31.643Z</time></trkpt><trkpt lat="43.6124173" lon="11.4336542"><ele>278.0</ele><time>2026-04-19T11:13:34.651Z</time></trkpt><trkpt lat="43.6124774" lon="11.4337254"><ele>278.0</ele><time>2026-04-19T11:13:35.647Z</time></trkpt><trkpt lat="43.6125501" lon="11.4337882"><ele>278.0</ele><time>2026-04-19T11:13:36.652Z</time></trkpt><trkpt lat="43.6126231" lon="11.4338641"><ele>278.0</ele><time>2026-04-19T11:13:37.654Z</time></trkpt><trkpt lat="43.6126963" lon="11.4339479"><ele>278.0</ele><time>2026-04-19T11:13:38.668Z</time></trkpt><trkpt lat="43.6127754" lon="11.4340241"><ele>278.0</ele><time>2026-04-19T11:13:39.655Z</time></trkpt><trkpt lat="43.6128772" lon="11.4340989"><ele>278.0</ele><time>2026-04-19T11:13:40.652Z</time></trkpt><trkpt lat="43.6129713" lon="11.4341791"><ele>278.0</ele><time>2026-04-19T11:13:41.668Z</time></trkpt><trkpt lat="43.6130758" lon="11.4342493"><ele>278.5</ele><time>2026-04-19T11:13:42.742Z</time></trkpt><trkpt lat="43.6131888" lon="11.4343239"><ele>279.0</ele><time>2026-04-19T11:13:43.743Z</time></trkpt><trkpt lat="43.6133095" lon="11.434404"><ele>279.5</ele><time>2026-04-19T11:13:44.745Z</time></trkpt><trkpt lat="43.6134301" lon="11.4344554"><ele>280.0</ele><time>2026-04-19T11:13:45.74Z</time></trkpt><trkpt lat="43.6135604" lon="11.4345052"><ele>280.25</ele><time>2026-04-19T11:13:46.747Z</time></trkpt><trkpt lat="43.6136949" lon="11.4345612"><ele>280.5</ele><time>2026-04-19T11:13:47.74Z</time></trkpt><trkpt lat="43.6138314" lon="11.4346241"><ele>280.75</ele><time>2026-04-19T11:13:48.746Z</time></trkpt><trkpt lat="43.6139706" lon="11.4346916"><ele>281.0</ele><time>2026-04-19T11:13:49.741Z</time></trkpt><trkpt lat="43.6141146" lon="11.4347629"><ele>280.6666666666667</ele><time>2026-04-19T11:13:50.737Z</time></trkpt><trkpt lat="43.6142493" lon="11.4348346"><ele>280.3333333333333</ele><time>2026-04-19T11:13:51.745Z</time></trkpt><trkpt lat="43.6143801" lon="11.4349165"><ele>280.0</ele><time>2026-04-19T11:13:52.734Z</time></trkpt><trkpt lat="43.6146213" lon="11.4351625"><ele>280.0</ele><time>2026-04-19T11:13:54.726Z</time></trkpt><trkpt lat="43.6147153" lon="11.4353139"><ele>280.0</ele><time>2026-04-19T11:13:55.735Z</time></trkpt><trkpt lat="43.6147957" lon="11.435461"><ele>280.0</ele><time>2026-04-19T11:13:56.719Z</time></trkpt><trkpt lat="43.614883" lon="11.435595"><ele>280.0</ele><time>2026-04-19T11:13:57.721Z</time></trkpt><trkpt lat="43.6149666" lon="11.435707"><ele>278.2</ele><time>2026-04-19T11:13:58.72Z</time></trkpt><trkpt lat="43.6150528" lon="11.4357858"><ele>276.4</ele><time>2026-04-19T11:13:59.725Z</time></trkpt><trkpt lat="43.6151393" lon="11.4358285"><ele>274.6</ele><time>2026-04-19T11:14:00.737Z</time></trkpt><trkpt lat="43.6152357" lon="11.435824"><ele>272.8</ele><time>2026-04-19T11:14:01.741Z</time></trkpt><trkpt lat="43.615354" lon="11.4358106"><ele>271.0</ele><time>2026-04-19T11:14:02.727Z</time></trkpt><trkpt lat="43.6154831" lon="11.4358202"><ele>269.75</ele><time>2026-04-19T11:14:03.726Z</time></trkpt><trkpt lat="43.6156152" lon="11.4358656"><ele>268.5</ele><time>2026-04-19T11:14:04.732Z</time></trkpt><trkpt lat="43.6157546" lon="11.4359319"><ele>267.25</ele><time>2026-04-19T11:14:05.732Z</time></trkpt><trkpt lat="43.6159049" lon="11.4360089"><ele>266.0</ele><time>2026-04-19T11:14:06.747Z</time></trkpt><trkpt lat="43.6160525" lon="11.4360799"><ele>265.0</ele><time>2026-04-19T11:14:07.738Z</time></trkpt><trkpt lat="43.6161935" lon="11.4361439"><ele>264.0</ele><time>2026-04-19T11:14:08.751Z</time></trkpt><trkpt lat="43.6163276" lon="11.4362056"><ele>263.0</ele><time>2026-04-19T11:14:09.746Z</time></trkpt><trkpt lat="43.616453" lon="11.4362695"><ele>262.0</ele><time>2026-04-19T11:14:10.745Z</time></trkpt><trkpt lat="43.6165696" lon="11.4363336"><ele>262.0</ele><time>2026-04-19T11:14:11.748Z</time></trkpt><trkpt lat="43.6166804" lon="11.4363876"><ele>262.0</ele><time>2026-04-19T11:14:12.746Z</time></trkpt><trkpt lat="43.6167917" lon="11.4364437"><ele>262.0</ele><time>2026-04-19T11:14:13.746Z</time></trkpt><trkpt lat="43.6170169" lon="11.4365443"><ele>262.0</ele><time>2026-04-19T11:14:15.753Z</time></trkpt><trkpt lat="43.6171281" lon="11.4365676"><ele>262.0</ele><time>2026-04-19T11:14:16.736Z</time></trkpt><trkpt lat="43.6172434" lon="11.4365575"><ele>262.0</ele><time>2026-04-19T11:14:17.754Z</time></trkpt><trkpt lat="43.6173523" lon="11.4365041"><ele>262.0</ele><time>2026-04-19T11:14:18.75Z</time></trkpt><trkpt lat="43.6174573" lon="11.4364086"><ele>262.5</ele><time>2026-04-19T11:14:19.734Z</time></trkpt><trkpt lat="43.6175503" lon="11.436288"><ele>263.0</ele><time>2026-04-19T11:14:20.729Z</time></trkpt><trkpt lat="43.6176304" lon="11.4361448"><ele>263.5</ele><time>2026-04-19T11:14:21.73Z</time></trkpt><trkpt lat="43.6177062" lon="11.4359974"><ele>264.0</ele><time>2026-04-19T11:14:22.732Z</time></trkpt><trkpt lat="43.6177911" lon="11.4358528"><ele>265.75</ele><time>2026-04-19T11:14:23.747Z</time></trkpt><trkpt lat="43.6178871" lon="11.4357248"><ele>267.5</ele><time>2026-04-19T11:14:24.742Z</time></trkpt><trkpt lat="43.6179965" lon="11.4356149"><ele>269.25</ele><time>2026-04-19T11:14:25.739Z</time></trkpt><trkpt lat="43.6181122" lon="11.4355302"><ele>271.0</ele><time>2026-04-19T11:14:26.734Z</time></trkpt><trkpt lat="43.6182319" lon="11.4354536"><ele>272.0</ele><time>2026-04-19T11:14:27.73Z</time></trkpt><trkpt lat="43.6183482" lon="11.4353771"><ele>273.0</ele><time>2026-04-19T11:14:28.731Z</time></trkpt><trkpt lat="43.6184648" lon="11.4352999"><ele>274.0</ele><time>2026-04-19T11:14:29.737Z</time></trkpt><trkpt lat="43.6185845" lon="11.4352212"><ele>275.0</ele><time>2026-04-19T11:14:30.752Z</time></trkpt><trkpt lat="43.6187024" lon="11.4351425"><ele>276.5</ele><time>2026-04-19T11:14:31.751Z</time></trkpt><trkpt lat="43.6188204" lon="11.4350622"><ele>278.0</ele><time>2026-04-19T11:14:32.752Z</time></trkpt><trkpt lat="43.618938" lon="11.4349885"><ele>279.5</ele><time>2026-04-19T11:14:33.744Z</time></trkpt><trkpt lat="43.6190568" lon="11.434926"><ele>281.0</ele><time>2026-04-19T11:14:34.746Z</time></trkpt><trkpt lat="43.6192751" lon="11.4348786"><ele>281.0</ele><time>2026-04-19T11:14:36.742Z</time></trkpt><trkpt lat="43.6193728" lon="11.4348967"><ele>281.0</ele><time>2026-04-19T11:14:37.725Z</time></trkpt><trkpt lat="43.6194599" lon="11.4349474"><ele>281.0</ele><time>2026-04-19T11:14:38.724Z</time></trkpt><trkpt lat="43.6195286" lon="11.4350326"><ele>281.0</ele><time>2026-04-19T11:14:39.721Z</time></trkpt><trkpt lat="43.6195792" lon="11.4351253"><ele>281.0</ele><time>2026-04-19T11:14:40.72Z</time></trkpt><trkpt lat="43.6196161" lon="11.4352079"><ele>281.0</ele><time>2026-04-19T11:14:41.741Z</time></trkpt><trkpt lat="43.6196527" lon="11.4352924"><ele>282.0</ele><time>2026-04-19T11:14:43.734Z</time></trkpt><trkpt lat="43.6197172" lon="11.4353439"><ele>283.0</ele><time>2026-04-19T11:14:46.746Z</time></trkpt><trkpt lat="43.6197743" lon="11.4353053"><ele>284.0</ele><time>2026-04-19T11:14:48.75Z</time></trkpt><trkpt lat="43.6198339" lon="11.4351453"><ele>285.0</ele><time>2026-04-19T11:14:50.753Z</time></trkpt><trkpt lat="43.6198684" lon="11.4350513"><ele>286.0</ele><time>2026-04-19T11:14:51.747Z</time></trkpt><trkpt lat="43.6199012" lon="11.4349579"><ele>287.0</ele><time>2026-04-19T11:14:52.753Z</time></trkpt><trkpt lat="43.6199325" lon="11.4348696"><ele>287.0</ele><time>2026-04-19T11:14:53.751Z</time></trkpt><trkpt lat="43.6199633" lon="11.4347791"><ele>287.0</ele><time>2026-04-19T11:14:54.75Z</time></trkpt><trkpt lat="43.6199944" lon="11.434687"><ele>287.0</ele><time>2026-04-19T11:14:55.742Z</time></trkpt><trkpt lat="43.620069" lon="11.4344944"><ele>287.0</ele><time>2026-04-19T11:14:57.738Z</time></trkpt><trkpt lat="43.6201185" lon="11.4344031"><ele>287.0</ele><time>2026-04-19T11:14:58.736Z</time></trkpt><trkpt lat="43.6201782" lon="11.4343174"><ele>288.5</ele><time>2026-04-19T11:14:59.744Z</time></trkpt><trkpt lat="43.620247" lon="11.4342383"><ele>290.0</ele><time>2026-04-19T11:15:00.724Z</time></trkpt><trkpt lat="43.6204164" lon="11.4340845"><ele>291.5</ele><time>2026-04-19T11:15:02.72Z</time></trkpt><trkpt lat="43.620504" lon="11.4340082"><ele>293.0</ele><time>2026-04-19T11:15:03.733Z</time></trkpt><trkpt lat="43.6205953" lon="11.4339321"><ele>293.8</ele><time>2026-04-19T11:15:04.749Z</time></trkpt><trkpt lat="43.6206923" lon="11.4338617"><ele>294.6</ele><time>2026-04-19T11:15:05.747Z</time></trkpt><trkpt lat="43.6207875" lon="11.4337934"><ele>295.4</ele><time>2026-04-19T11:15:06.752Z</time></trkpt><trkpt lat="43.62088" lon="11.4337254"><ele>296.2</ele><time>2026-04-19T11:15:07.749Z</time></trkpt><trkpt lat="43.6209745" lon="11.4336551"><ele>297.0</ele><time>2026-04-19T11:15:08.75Z</time></trkpt><trkpt lat="43.6210676" lon="11.4335856"><ele>301.0</ele><time>2026-04-19T11:15:09.748Z</time></trkpt><trkpt lat="43.6211573" lon="11.4335172"><ele>305.0</ele><time>2026-04-19T11:15:10.746Z</time></trkpt><trkpt lat="43.6212442" lon="11.4334619"><ele>309.0</ele><time>2026-04-19T11:15:11.743Z</time></trkpt><trkpt lat="43.621323" lon="11.4334609"><ele>313.0</ele><time>2026-04-19T11:15:12.741Z</time></trkpt><trkpt lat="43.6213899" lon="11.4334905"><ele>317.0</ele><time>2026-04-19T11:15:13.734Z</time></trkpt><trkpt lat="43.6214581" lon="11.4335772"><ele>321.0</ele><time>2026-04-19T11:15:14.727Z</time></trkpt><trkpt lat="43.6215386" lon="11.4336676"><ele>321.0</ele><time>2026-04-19T11:15:15.725Z</time></trkpt><trkpt lat="43.6216343" lon="11.4337461"><ele>321.0</ele><time>2026-04-19T11:15:16.723Z</time></trkpt><trkpt lat="43.621827" lon="11.433794"><ele>321.0</ele><time>2026-04-19T11:15:18.739Z</time></trkpt><trkpt lat="43.6219143" lon="11.4337835"><ele>321.0</ele><time>2026-04-19T11:15:19.739Z</time></trkpt><trkpt lat="43.6219952" lon="11.433743"><ele>321.0</ele><time>2026-04-19T11:15:20.729Z</time></trkpt><trkpt lat="43.6220762" lon="11.4336614"><ele>321.0</ele><time>2026-04-19T11:15:21.727Z</time></trkpt><trkpt lat="43.6221387" lon="11.4335277"><ele>321.0</ele><time>2026-04-19T11:15:22.634Z</time></trkpt><trkpt lat="43.6222166" lon="11.4334402"><ele>321.0</ele><time>2026-04-19T11:15:23.638Z</time></trkpt><trkpt lat="43.6222908" lon="11.4334089"><ele>321.0</ele><time>2026-04-19T11:15:24.645Z</time></trkpt><trkpt lat="43.6223623" lon="11.433409"><ele>321.0</ele><time>2026-04-19T11:15:25.649Z</time></trkpt><trkpt lat="43.6224333" lon="11.4334153"><ele>321.0</ele><time>2026-04-19T11:15:26.655Z</time></trkpt><trkpt lat="43.6225062" lon="11.4334011"><ele>321.0</ele><time>2026-04-19T11:15:27.651Z</time></trkpt><trkpt lat="43.6225701" lon="11.4333653"><ele>321.0</ele><time>2026-04-19T11:15:28.657Z</time></trkpt><trkpt lat="43.6226267" lon="11.4332904"><ele>321.0</ele><time>2026-04-19T11:15:29.665Z</time></trkpt><trkpt lat="43.6226691" lon="11.4331855"><ele>321.0</ele><time>2026-04-19T11:15:30.657Z</time></trkpt><trkpt lat="43.6226993" lon="11.4330863"><ele>321.0</ele><time>2026-04-19T11:15:31.657Z</time></trkpt><trkpt lat="43.6227261" lon="11.4329982"><ele>321.0</ele><time>2026-04-19T11:15:32.654Z</time></trkpt><trkpt lat="43.622766" lon="11.4329142"><ele>321.0</ele><time>2026-04-19T11:15:33.655Z</time></trkpt><trkpt lat="43.622816" lon="11.4328577"><ele>321.0</ele><time>2026-04-19T11:15:34.649Z</time></trkpt><trkpt lat="43.6228752" lon="11.4328054"><ele>321.0</ele><time>2026-04-19T11:15:35.652Z</time></trkpt><trkpt lat="43.6229324" lon="11.4327658"><ele>321.0</ele><time>2026-04-19T11:15:36.656Z</time></trkpt><trkpt lat="43.6230473" lon="11.4327089"><ele>321.5</ele><time>2026-04-19T11:15:38.644Z</time></trkpt><trkpt lat="43.6231656" lon="11.4324451"><ele>322.0</ele><time>2026-04-19T11:15:41.662Z</time></trkpt><trkpt lat="43.623184" lon="11.4323187"><ele>322.5</ele><time>2026-04-19T11:15:42.658Z</time></trkpt><trkpt lat="43.6232109" lon="11.4322076"><ele>323.0</ele><time>2026-04-19T11:15:43.661Z</time></trkpt><trkpt lat="43.6232511" lon="11.4321088"><ele>324.33333333333337</ele><time>2026-04-19T11:15:44.661Z</time></trkpt><trkpt lat="43.6233008" lon="11.4320104"><ele>325.6666666666667</ele><time>2026-04-19T11:15:45.66Z</time></trkpt><trkpt lat="43.6233566" lon="11.4319229"><ele>327.0</ele><time>2026-04-19T11:15:46.66Z</time></trkpt><trkpt lat="43.6234229" lon="11.4318443"><ele>328.3333333333333</ele><time>2026-04-19T11:15:47.653Z</time></trkpt><trkpt lat="43.6234981" lon="11.4317854"><ele>329.66666666666663</ele><time>2026-04-19T11:15:48.658Z</time></trkpt><trkpt lat="43.6235801" lon="11.4317469"><ele>331.0</ele><time>2026-04-19T11:15:49.66Z</time></trkpt><trkpt lat="43.6236585" lon="11.4317183"><ele>331.0</ele><time>2026-04-19T11:15:50.664Z</time></trkpt><trkpt lat="43.6237263" lon="11.431692"><ele>331.0</ele><time>2026-04-19T11:15:51.658Z</time></trkpt><trkpt lat="43.6238195" lon="11.4316298"><ele>331.0</ele><time>2026-04-19T11:15:53.656Z</time></trkpt><trkpt lat="43.6238913" lon="11.4315395"><ele>331.0</ele><time>2026-04-19T11:16:23.664Z</time></trkpt><trkpt lat="43.6240929" lon="11.431394"><ele>331.0</ele><time>2026-04-19T11:16:26.662Z</time></trkpt><trkpt lat="43.6241748" lon="11.4313247"><ele>331.0</ele><time>2026-04-19T11:16:27.658Z</time></trkpt><trkpt lat="43.6242621" lon="11.4312597"><ele>331.0</ele><time>2026-04-19T11:16:28.662Z</time></trkpt><trkpt lat="43.6243398" lon="11.4311894"><ele>331.0</ele><time>2026-04-19T11:16:29.666Z</time></trkpt><trkpt lat="43.6244102" lon="11.4311335"><ele>331.0</ele><time>2026-04-19T11:16:30.662Z</time></trkpt><trkpt lat="43.6244801" lon="11.4310817"><ele>331.0</ele><time>2026-04-19T11:16:31.662Z</time></trkpt><trkpt lat="43.6245536" lon="11.4310384"><ele>331.8</ele><time>2026-04-19T11:16:32.663Z</time></trkpt><trkpt lat="43.6246374" lon="11.4309919"><ele>332.6</ele><time>2026-04-19T11:16:33.664Z</time></trkpt><trkpt lat="43.6247244" lon="11.4309603"><ele>333.4</ele><time>2026-04-19T11:16:34.664Z</time></trkpt><trkpt lat="43.6248108" lon="11.4309256"><ele>334.2</ele><time>2026-04-19T11:16:35.662Z</time></trkpt><trkpt lat="43.6248948" lon="11.4308704"><ele>335.0</ele><time>2026-04-19T11:16:36.648Z</time></trkpt><trkpt lat="43.6249767" lon="11.4307926"><ele>335.0</ele><time>2026-04-19T11:16:37.661Z</time></trkpt><trkpt lat="43.6250638" lon="11.4307035"><ele>335.0</ele><time>2026-04-19T11:16:38.662Z</time></trkpt><trkpt lat="43.6251582" lon="11.4306061"><ele>335.0</ele><time>2026-04-19T11:16:39.664Z</time></trkpt><trkpt lat="43.6252496" lon="11.4305088"><ele>335.0</ele><time>2026-04-19T11:16:40.664Z</time></trkpt><trkpt lat="43.6253384" lon="11.4304248"><ele>335.0</ele><time>2026-04-19T11:16:41.663Z</time></trkpt><trkpt lat="43.6254321" lon="11.4303489"><ele>338.5</ele><time>2026-04-19T11:16:42.662Z</time></trkpt><trkpt lat="43.6255334" lon="11.4302923"><ele>342.0</ele><time>2026-04-19T11:16:43.662Z</time></trkpt><trkpt lat="43.6257488" lon="11.430224"><ele>345.5</ele><time>2026-04-19T11:16:45.66Z</time></trkpt><trkpt lat="43.6258466" lon="11.4301887"><ele>349.0</ele><time>2026-04-19T11:16:46.662Z</time></trkpt><trkpt lat="43.6259382" lon="11.4301657"><ele>349.0</ele><time>2026-04-19T11:16:47.662Z</time></trkpt><trkpt lat="43.6260186" lon="11.4301497"><ele>349.0</ele><time>2026-04-19T11:16:48.654Z</time></trkpt><trkpt lat="43.6260976" lon="11.4301376"><ele>349.0</ele><time>2026-04-19T11:16:49.655Z</time></trkpt><trkpt lat="43.6261757" lon="11.4301283"><ele>349.0</ele><time>2026-04-19T11:16:50.652Z</time></trkpt><trkpt lat="43.6262404" lon="11.4300965"><ele>349.0</ele><time>2026-04-19T11:16:51.645Z</time></trkpt><trkpt lat="43.6263012" lon="11.4300298"><ele>349.0</ele><time>2026-04-19T11:16:52.666Z</time></trkpt><trkpt lat="43.626346" lon="11.42992"><ele>348.79999999999995</ele><time>2026-04-19T11:16:53.668Z</time></trkpt><trkpt lat="43.6263782" lon="11.4297699"><ele>348.59999999999997</ele><time>2026-04-19T11:16:54.661Z</time></trkpt><trkpt lat="43.6264178" lon="11.4296386"><ele>348.4</ele><time>2026-04-19T11:16:55.661Z</time></trkpt><trkpt lat="43.6264574" lon="11.4295182"><ele>348.2</ele><time>2026-04-19T11:16:56.672Z</time></trkpt><trkpt lat="43.6264948" lon="11.4293948"><ele>348.0</ele><time>2026-04-19T11:16:57.666Z</time></trkpt><trkpt lat="43.6265344" lon="11.4292819"><ele>348.0</ele><time>2026-04-19T11:16:58.666Z</time></trkpt><trkpt lat="43.6265721" lon="11.4291649"><ele>348.0</ele><time>2026-04-19T11:16:59.669Z</time></trkpt><trkpt lat="43.6266104" lon="11.4290533"><ele>348.0</ele><time>2026-04-19T11:17:00.666Z</time></trkpt><trkpt lat="43.6266353" lon="11.4289368"><ele>348.0</ele><time>2026-04-19T11:17:01.664Z</time></trkpt><trkpt lat="43.6266472" lon="11.4288292"><ele>348.0</ele><time>2026-04-19T11:17:02.658Z</time></trkpt><trkpt lat="43.6266451" lon="11.4287218"><ele>348.0</ele><time>2026-04-19T11:17:03.655Z</time></trkpt><trkpt lat="43.6266217" lon="11.4286214"><ele>349.0</ele><time>2026-04-19T11:17:04.649Z</time></trkpt><trkpt lat="43.6265783" lon="11.4284271"><ele>350.0</ele><time>2026-04-19T11:17:06.65Z</time></trkpt><trkpt lat="43.6266096" lon="11.4283254"><ele>351.0</ele><time>2026-04-19T11:17:07.666Z</time></trkpt><trkpt lat="43.6266761" lon="11.4282097"><ele>352.0</ele><time>2026-04-19T11:17:08.661Z</time></trkpt><trkpt lat="43.6267517" lon="11.4280908"><ele>353.0</ele><time>2026-04-19T11:17:09.662Z</time></trkpt><trkpt lat="43.6268194" lon="11.4279843"><ele>352.5</ele><time>2026-04-19T11:17:10.665Z</time></trkpt><trkpt lat="43.6268757" lon="11.4278929"><ele>352.0</ele><time>2026-04-19T11:17:11.665Z</time></trkpt><trkpt lat="43.6269265" lon="11.4278028"><ele>351.5</ele><time>2026-04-19T11:17:12.668Z</time></trkpt><trkpt lat="43.6269835" lon="11.4277156"><ele>351.0</ele><time>2026-04-19T11:17:13.663Z</time></trkpt><trkpt lat="43.6270385" lon="11.4276424"><ele>350.5</ele><time>2026-04-19T11:17:14.664Z</time></trkpt><trkpt lat="43.6270948" lon="11.4275592"><ele>350.0</ele><time>2026-04-19T11:17:15.667Z</time></trkpt><trkpt lat="43.6271496" lon="11.4274763"><ele>350.0</ele><time>2026-04-19T11:17:16.668Z</time></trkpt><trkpt lat="43.6271842" lon="11.4273925"><ele>350.0</ele><time>2026-04-19T11:17:17.662Z</time></trkpt><trkpt lat="43.6272096" lon="11.4272756"><ele>350.0</ele><time>2026-04-19T11:17:18.657Z</time></trkpt><trkpt lat="43.62723" lon="11.4271455"><ele>350.0</ele><time>2026-04-19T11:17:19.66Z</time></trkpt><trkpt lat="43.627272" lon="11.4268663"><ele>351.8</ele><time>2026-04-19T11:17:21.66Z</time></trkpt><trkpt lat="43.6272834" lon="11.4267382"><ele>353.6</ele><time>2026-04-19T11:17:22.656Z</time></trkpt><trkpt lat="43.6272968" lon="11.4266089"><ele>355.4</ele><time>2026-04-19T11:17:23.662Z</time></trkpt><trkpt lat="43.6273044" lon="11.4264688"><ele>357.2</ele><time>2026-04-19T11:17:24.646Z</time></trkpt><trkpt lat="43.627324" lon="11.4263152"><ele>359.0</ele><time>2026-04-19T11:17:25.655Z</time></trkpt><trkpt lat="43.627368" lon="11.4260287"><ele>361.4</ele><time>2026-04-19T11:17:27.661Z</time></trkpt><trkpt lat="43.6274005" lon="11.4259078"><ele>363.79999999999995</ele><time>2026-04-19T11:17:28.659Z</time></trkpt><trkpt lat="43.6274525" lon="11.4257916"><ele>366.20000000000005</ele><time>2026-04-19T11:17:29.67Z</time></trkpt><trkpt lat="43.6275141" lon="11.4256866"><ele>368.6</ele><time>2026-04-19T11:17:30.659Z</time></trkpt><trkpt lat="43.6275905" lon="11.4255741"><ele>371.0</ele><time>2026-04-19T11:17:31.668Z</time></trkpt><trkpt lat="43.6276837" lon="11.4254555"><ele>372.75</ele><time>2026-04-19T11:17:32.664Z</time></trkpt><trkpt lat="43.6277695" lon="11.4253261"><ele>374.5</ele><time>2026-04-19T11:17:33.665Z</time></trkpt><trkpt lat="43.6278578" lon="11.4251865"><ele>376.25</ele><time>2026-04-19T11:17:34.665Z</time></trkpt><trkpt lat="43.6279516" lon="11.425061"><ele>378.0</ele><time>2026-04-19T11:17:35.666Z</time></trkpt><trkpt lat="43.6280403" lon="11.424933"><ele>378.0</ele><time>2026-04-19T11:17:36.66Z</time></trkpt><trkpt lat="43.6281239" lon="11.4248182"><ele>378.0</ele><time>2026-04-19T11:17:37.653Z</time></trkpt><trkpt lat="43.6281968" lon="11.4247079"><ele>378.0</ele><time>2026-04-19T11:17:38.66Z</time></trkpt><trkpt lat="43.628263" lon="11.4246149"><ele>378.0</ele><time>2026-04-19T11:17:39.658Z</time></trkpt><trkpt lat="43.6283293" lon="11.4245185"><ele>378.0</ele><time>2026-04-19T11:17:40.659Z</time></trkpt><trkpt lat="43.6283946" lon="11.4244077"><ele>382.0</ele><time>2026-04-19T11:17:41.647Z</time></trkpt><trkpt lat="43.6284525" lon="11.424299"><ele>386.0</ele><time>2026-04-19T11:17:42.662Z</time></trkpt><trkpt lat="43.6284859" lon="11.4241537"><ele>390.0</ele><time>2026-04-19T11:17:43.659Z</time></trkpt><trkpt lat="43.6285317" lon="11.4240026"><ele>394.0</ele><time>2026-04-19T11:17:44.66Z</time></trkpt><trkpt lat="43.6285797" lon="11.4238459"><ele>390.6666666666667</ele><time>2026-04-19T11:17:45.659Z</time></trkpt><trkpt lat="43.6286335" lon="11.423695"><ele>387.33333333333337</ele><time>2026-04-19T11:17:46.662Z</time></trkpt><trkpt lat="43.6287493" lon="11.4233599"><ele>384.0</ele><time>2026-04-19T11:17:48.656Z</time></trkpt><trkpt lat="43.6287958" lon="11.4232052"><ele>384.0</ele><time>2026-04-19T11:17:49.66Z</time></trkpt><trkpt lat="43.6288287" lon="11.4230698"><ele>384.0</ele><time>2026-04-19T11:17:50.651Z</time></trkpt><trkpt lat="43.6288668" lon="11.4229556"><ele>384.0</ele><time>2026-04-19T11:17:51.663Z</time></trkpt><trkpt lat="43.6288894" lon="11.4228568"><ele>384.0</ele><time>2026-04-19T11:17:52.658Z</time></trkpt><trkpt lat="43.6288682" lon="11.4227692"><ele>384.0</ele><time>2026-04-19T11:17:53.66Z</time></trkpt><trkpt lat="43.6288223" lon="11.4226876"><ele>384.0</ele><time>2026-04-19T11:17:54.649Z</time></trkpt><trkpt lat="43.6287505" lon="11.4225957"><ele>390.75</ele><time>2026-04-19T11:17:55.657Z</time></trkpt><trkpt lat="43.6285993" lon="11.4224003"><ele>397.5</ele><time>2026-04-19T11:17:57.654Z</time></trkpt><trkpt lat="43.6285739" lon="11.422268"><ele>404.25</ele><time>2026-04-19T11:17:58.652Z</time></trkpt><trkpt lat="43.6285549" lon="11.4221304"><ele>411.0</ele><time>2026-04-19T11:17:59.66Z</time></trkpt><trkpt lat="43.6285279" lon="11.4220007"><ele>411.6666666666667</ele><time>2026-04-19T11:18:00.653Z</time></trkpt><trkpt lat="43.6284944" lon="11.4218694"><ele>412.33333333333337</ele><time>2026-04-19T11:18:01.652Z</time></trkpt><trkpt lat="43.6284556" lon="11.4217527"><ele>413.0</ele><time>2026-04-19T11:18:02.645Z</time></trkpt><trkpt lat="43.6284282" lon="11.4216451"><ele>413.6666666666667</ele><time>2026-04-19T11:18:03.655Z</time></trkpt><trkpt lat="43.6284506" lon="11.421552"><ele>414.33333333333337</ele><time>2026-04-19T11:18:04.658Z</time></trkpt><trkpt lat="43.6285109" lon="11.421486"><ele>415.0</ele><time>2026-04-19T11:18:05.652Z</time></trkpt><trkpt lat="43.6286" lon="11.4214182"><ele>413.25</ele><time>2026-04-19T11:18:06.653Z</time></trkpt><trkpt lat="43.628713" lon="11.4213672"><ele>411.5</ele><time>2026-04-19T11:18:07.648Z</time></trkpt><trkpt lat="43.6289156" lon="11.4213074"><ele>409.75</ele><time>2026-04-19T11:18:09.648Z</time></trkpt><trkpt lat="43.6289833" lon="11.4212526"><ele>408.0</ele><time>2026-04-19T11:18:10.656Z</time></trkpt><trkpt lat="43.6290238" lon="11.4211662"><ele>408.0</ele><time>2026-04-19T11:18:11.656Z</time></trkpt><trkpt lat="43.6290457" lon="11.4210715"><ele>408.0</ele><time>2026-04-19T11:18:12.65Z</time></trkpt><trkpt lat="43.6290403" lon="11.4209483"><ele>408.0</ele><time>2026-04-19T11:18:13.645Z</time></trkpt><trkpt lat="43.6290155" lon="11.4208334"><ele>408.0</ele><time>2026-04-19T11:18:14.65Z</time></trkpt><trkpt lat="43.6289772" lon="11.4207524"><ele>408.0</ele><time>2026-04-19T11:18:15.643Z</time></trkpt><trkpt lat="43.6289075" lon="11.4206211"><ele>408.0</ele><time>2026-04-19T11:18:17.652Z</time></trkpt><trkpt lat="43.6287946" lon="11.4205485"><ele>408.0</ele><time>2026-04-19T11:18:19.645Z</time></trkpt><trkpt lat="43.6287259" lon="11.4205523"><ele>408.0</ele><time>2026-04-19T11:18:20.647Z</time></trkpt><trkpt lat="43.628656" lon="11.4205978"><ele>408.0</ele><time>2026-04-19T11:18:21.654Z</time></trkpt><trkpt lat="43.6285851" lon="11.4206564"><ele>408.0</ele><time>2026-04-19T11:18:22.657Z</time></trkpt><trkpt lat="43.6285159" lon="11.4207111"><ele>408.0</ele><time>2026-04-19T11:18:23.648Z</time></trkpt><trkpt lat="43.6284458" lon="11.4207674"><ele>408.0</ele><time>2026-04-19T11:18:24.642Z</time></trkpt><trkpt lat="43.6283856" lon="11.4208205"><ele>411.79999999999995</ele><time>2026-04-19T11:18:25.647Z</time></trkpt><trkpt lat="43.6283189" lon="11.4208606"><ele>415.6</ele><time>2026-04-19T11:18:26.653Z</time></trkpt><trkpt lat="43.6282393" lon="11.4208796"><ele>419.40000000000003</ele><time>2026-04-19T11:18:27.643Z</time></trkpt><trkpt lat="43.6281571" lon="11.4208856"><ele>423.20000000000005</ele><time>2026-04-19T11:18:28.658Z</time></trkpt><trkpt lat="43.6279999" lon="11.4207243"><ele>427.0</ele><time>2026-04-19T11:18:31.651Z</time></trkpt><trkpt lat="43.627987" lon="11.4206125"><ele>427.0</ele><time>2026-04-19T11:18:32.651Z</time></trkpt><trkpt lat="43.6279885" lon="11.420485"><ele>427.00000000000006</ele><time>2026-04-19T11:18:33.662Z</time></trkpt><trkpt lat="43.6279974" lon="11.4203522"><ele>427.00000000000006</ele><time>2026-04-19T11:18:34.66Z</time></trkpt><trkpt lat="43.6279988" lon="11.4202202"><ele>427.0</ele><time>2026-04-19T11:18:35.66Z</time></trkpt><trkpt lat="43.6279986" lon="11.4200824"><ele>427.0</ele><time>2026-04-19T11:18:36.66Z</time></trkpt><trkpt lat="43.6280011" lon="11.41994"><ele>428.75</ele><time>2026-04-19T11:18:37.659Z</time></trkpt><trkpt lat="43.6280022" lon="11.4196901"><ele>430.5</ele><time>2026-04-19T11:18:39.659Z</time></trkpt><trkpt lat="43.6280016" lon="11.4195518"><ele>432.25</ele><time>2026-04-19T11:18:40.662Z</time></trkpt><trkpt lat="43.6280128" lon="11.4194222"><ele>434.0</ele><time>2026-04-19T11:18:41.651Z</time></trkpt><trkpt lat="43.6280106" lon="11.4193174"><ele>436.2</ele><time>2026-04-19T11:18:42.65Z</time></trkpt><trkpt lat="43.6280092" lon="11.4192131"><ele>438.4</ele><time>2026-04-19T11:18:43.647Z</time></trkpt><trkpt lat="43.6279848" lon="11.4190602"><ele>440.6</ele><time>2026-04-19T11:18:45.647Z</time></trkpt><trkpt lat="43.6279309" lon="11.4189817"><ele>442.8</ele><time>2026-04-19T11:18:46.643Z</time></trkpt><trkpt lat="43.6278608" lon="11.4189238"><ele>445.0</ele><time>2026-04-19T11:18:47.663Z</time></trkpt><trkpt lat="43.6277592" lon="11.4189449"><ele>451.0</ele><time>2026-04-19T11:18:48.659Z</time></trkpt><trkpt lat="43.6276579" lon="11.4190332"><ele>457.0</ele><time>2026-04-19T11:18:49.656Z</time></trkpt><trkpt lat="43.6275024" lon="11.4192795"><ele>463.0</ele><time>2026-04-19T11:18:51.646Z</time></trkpt><trkpt lat="43.6274406" lon="11.4194036"><ele>463.00000000000006</ele><time>2026-04-19T11:18:52.647Z</time></trkpt><trkpt lat="43.6273897" lon="11.4194947"><ele>463.0</ele><time>2026-04-19T11:18:53.648Z</time></trkpt><trkpt lat="43.6273273" lon="11.4195526"><ele>463.0</ele><time>2026-04-19T11:18:54.646Z</time></trkpt><trkpt lat="43.6272496" lon="11.4195953"><ele>463.0</ele><time>2026-04-19T11:18:55.664Z</time></trkpt><trkpt lat="43.6271729" lon="11.4195785"><ele>463.00000000000006</ele><time>2026-04-19T11:18:56.659Z</time></trkpt><trkpt lat="43.6271072" lon="11.4195038"><ele>463.0</ele><time>2026-04-19T11:18:57.656Z</time></trkpt><trkpt lat="43.62705" lon="11.4194222"><ele>463.0</ele><time>2026-04-19T11:18:58.648Z</time></trkpt><trkpt lat="43.626982" lon="11.4193305"><ele>462.99999999999994</ele><time>2026-04-19T11:18:59.656Z</time></trkpt><trkpt lat="43.6269237" lon="11.4192087"><ele>462.99999999999994</ele><time>2026-04-19T11:19:00.659Z</time></trkpt><trkpt lat="43.6268618" lon="11.4190632"><ele>463.0</ele><time>2026-04-19T11:19:01.662Z</time></trkpt><trkpt lat="43.6268068" lon="11.4189209"><ele>463.0</ele><time>2026-04-19T11:19:02.661Z</time></trkpt><trkpt lat="43.6267536" lon="11.4187859"><ele>465.2</ele><time>2026-04-19T11:19:03.657Z</time></trkpt><trkpt lat="43.6266932" lon="11.4186568"><ele>467.4</ele><time>2026-04-19T11:19:04.653Z</time></trkpt><trkpt lat="43.6266307" lon="11.4185334"><ele>469.59999999999997</ele><time>2026-04-19T11:19:05.655Z</time></trkpt><trkpt lat="43.6265567" lon="11.4184108"><ele>471.79999999999995</ele><time>2026-04-19T11:19:06.657Z</time></trkpt><trkpt lat="43.6264784" lon="11.4183095"><ele>474.0</ele><time>2026-04-19T11:19:07.659Z</time></trkpt><trkpt lat="43.6264051" lon="11.4182043"><ele>474.0</ele><time>2026-04-19T11:19:08.659Z</time></trkpt><trkpt lat="43.6263309" lon="11.4181227"><ele>474.0</ele><time>2026-04-19T11:19:09.653Z</time></trkpt><trkpt lat="43.6262428" lon="11.4180691"><ele>474.0</ele><time>2026-04-19T11:19:10.644Z</time></trkpt><trkpt lat="43.6260334" lon="11.4179999"><ele>474.0</ele><time>2026-04-19T11:19:12.653Z</time></trkpt><trkpt lat="43.6259259" lon="11.4179656"><ele>476.2</ele><time>2026-04-19T11:19:13.654Z</time></trkpt><trkpt lat="43.6258241" lon="11.4179161"><ele>478.4</ele><time>2026-04-19T11:19:14.651Z</time></trkpt><trkpt lat="43.6257226" lon="11.4178451"><ele>480.6</ele><time>2026-04-19T11:19:15.651Z</time></trkpt><trkpt lat="43.6256452" lon="11.4177487"><ele>482.8</ele><time>2026-04-19T11:19:16.65Z</time></trkpt><trkpt lat="43.6255627" lon="11.417646"><ele>485.0</ele><time>2026-04-19T11:19:17.65Z</time></trkpt><trkpt lat="43.6254816" lon="11.4175257"><ele>485.0</ele><time>2026-04-19T11:19:18.66Z</time></trkpt><trkpt lat="43.6254153" lon="11.4174051"><ele>485.0</ele><time>2026-04-19T11:19:19.659Z</time></trkpt><trkpt lat="43.6253552" lon="11.4172657"><ele>485.0</ele><time>2026-04-19T11:19:20.65Z</time></trkpt><trkpt lat="43.6253133" lon="11.4171207"><ele>485.0</ele><time>2026-04-19T11:19:21.65Z</time></trkpt><trkpt lat="43.6252779" lon="11.4169751"><ele>484.25</ele><time>2026-04-19T11:19:22.654Z</time></trkpt><trkpt lat="43.6252386" lon="11.416836"><ele>483.5</ele><time>2026-04-19T11:19:23.657Z</time></trkpt><trkpt lat="43.6251871" lon="11.4166879"><ele>482.75</ele><time>2026-04-19T11:19:24.653Z</time></trkpt><trkpt lat="43.6251345" lon="11.4165471"><ele>482.0</ele><time>2026-04-19T11:19:25.658Z</time></trkpt><trkpt lat="43.6250814" lon="11.4164078"><ele>484.40000000000003</ele><time>2026-04-19T11:19:26.665Z</time></trkpt><trkpt lat="43.6250298" lon="11.4162735"><ele>486.80000000000007</ele><time>2026-04-19T11:19:27.661Z</time></trkpt><trkpt lat="43.6249881" lon="11.4161369"><ele>489.2</ele><time>2026-04-19T11:19:28.666Z</time></trkpt><trkpt lat="43.624943" lon="11.4160035"><ele>491.6</ele><time>2026-04-19T11:19:29.67Z</time></trkpt><trkpt lat="43.624886" lon="11.4158855"><ele>494.0</ele><time>2026-04-19T11:19:30.664Z</time></trkpt><trkpt lat="43.6248241" lon="11.415781"><ele>494.0</ele><time>2026-04-19T11:19:31.659Z</time></trkpt><trkpt lat="43.6246941" lon="11.415616"><ele>494.0</ele><time>2026-04-19T11:19:33.667Z</time></trkpt><trkpt lat="43.6246227" lon="11.4155901"><ele>494.0</ele><time>2026-04-19T11:19:34.656Z</time></trkpt><trkpt lat="43.6245361" lon="11.4155802"><ele>494.0</ele><time>2026-04-19T11:19:35.665Z</time></trkpt><trkpt lat="43.624424" lon="11.4155974"><ele>493.6</ele><time>2026-04-19T11:19:36.738Z</time></trkpt><trkpt lat="43.6242893" lon="11.4156074"><ele>493.2</ele><time>2026-04-19T11:19:37.745Z</time></trkpt><trkpt lat="43.6241669" lon="11.4156156"><ele>492.80000000000007</ele><time>2026-04-19T11:19:38.746Z</time></trkpt><trkpt lat="43.6240629" lon="11.4156251"><ele>492.40000000000003</ele><time>2026-04-19T11:19:39.747Z</time></trkpt><trkpt lat="43.6239834" lon="11.415631"><ele>492.0</ele><time>2026-04-19T11:19:40.749Z</time></trkpt><trkpt lat="43.6239204" lon="11.4156335"><ele>492.0</ele><time>2026-04-19T11:19:41.743Z</time></trkpt><trkpt lat="43.6238456" lon="11.415635"><ele>492.00000000000006</ele><time>2026-04-19T11:19:42.743Z</time></trkpt><trkpt lat="43.6237456" lon="11.4156081"><ele>492.00000000000006</ele><time>2026-04-19T11:19:43.741Z</time></trkpt><trkpt lat="43.6236523" lon="11.4155354"><ele>492.0</ele><time>2026-04-19T11:19:44.74Z</time></trkpt><trkpt lat="43.6235674" lon="11.4154424"><ele>492.0</ele><time>2026-04-19T11:19:45.727Z</time></trkpt><trkpt lat="43.6234854" lon="11.4153382"><ele>494.0</ele><time>2026-04-19T11:19:46.731Z</time></trkpt><trkpt lat="43.6232889" lon="11.4151619"><ele>496.0</ele><time>2026-04-19T11:19:47.731Z</time></trkpt><trkpt lat="43.6232314" lon="11.4150714"><ele>498.0</ele><time>2026-04-19T11:19:48.725Z</time></trkpt><trkpt lat="43.6231787" lon="11.4149935"><ele>500.0</ele><time>2026-04-19T11:19:49.739Z</time></trkpt><trkpt lat="43.6230771" lon="11.4148778"><ele>500.0</ele><time>2026-04-19T11:19:51.729Z</time></trkpt><trkpt lat="43.6230106" lon="11.4148082"><ele>500.0</ele><time>2026-04-19T11:19:53.737Z</time></trkpt><trkpt lat="43.6229737" lon="11.414621"><ele>500.0</ele><time>2026-04-19T11:19:58.759Z</time></trkpt><trkpt lat="43.6229425" lon="11.4145235"><ele>500.0</ele><time>2026-04-19T11:20:02.753Z</time></trkpt><trkpt lat="43.6229797" lon="11.4146344"><ele>500.0</ele><time>2026-04-19T11:20:03.754Z</time></trkpt><trkpt lat="43.6229437" lon="11.4147435"><ele>500.0</ele><time>2026-04-19T11:21:24.69Z</time></trkpt><trkpt lat="43.6231104" lon="11.4149005"><ele>500.0</ele><time>2026-04-19T11:21:58.667Z</time></trkpt><trkpt lat="43.6231618" lon="11.4149568"><ele>500.0</ele><time>2026-04-19T11:21:59.665Z</time></trkpt><trkpt lat="43.6232197" lon="11.4150165"><ele>500.0</ele><time>2026-04-19T11:22:00.657Z</time></trkpt><trkpt lat="43.6232666" lon="11.4150774"><ele>500.0</ele><time>2026-04-19T11:22:01.663Z</time></trkpt><trkpt lat="43.623352" lon="11.4152078"><ele>499.99999999999994</ele><time>2026-04-19T11:22:03.668Z</time></trkpt><trkpt lat="43.6234291" lon="11.4153437"><ele>500.0</ele><time>2026-04-19T11:22:05.67Z</time></trkpt><trkpt lat="43.6234727" lon="11.4154206"><ele>500.0</ele><time>2026-04-19T11:22:06.666Z</time></trkpt><trkpt lat="43.6235305" lon="11.4154991"><ele>500.0</ele><time>2026-04-19T11:22:07.666Z</time></trkpt><trkpt lat="43.6235877" lon="11.4155694"><ele>499.99999999999994</ele><time>2026-04-19T11:22:08.668Z</time></trkpt><trkpt lat="43.6236513" lon="11.4156326"><ele>500.0</ele><time>2026-04-19T11:22:09.667Z</time></trkpt><trkpt lat="43.6237158" lon="11.4156662"><ele>498.4</ele><time>2026-04-19T11:22:10.669Z</time></trkpt><trkpt lat="43.6238016" lon="11.4156814"><ele>496.8</ele><time>2026-04-19T11:22:11.669Z</time></trkpt><trkpt lat="43.6238878" lon="11.4156727"><ele>495.20000000000005</ele><time>2026-04-19T11:22:12.665Z</time></trkpt><trkpt lat="43.6239827" lon="11.4156545"><ele>493.6</ele><time>2026-04-19T11:22:13.671Z</time></trkpt><trkpt lat="43.6240785" lon="11.4156377"><ele>492.0</ele><time>2026-04-19T11:22:14.669Z</time></trkpt><trkpt lat="43.6241715" lon="11.4156132"><ele>492.0</ele><time>2026-04-19T11:22:15.663Z</time></trkpt><trkpt lat="43.6242744" lon="11.4155971"><ele>492.0</ele><time>2026-04-19T11:22:16.666Z</time></trkpt><trkpt lat="43.624371" lon="11.4155934"><ele>492.0</ele><time>2026-04-19T11:22:17.664Z</time></trkpt><trkpt lat="43.624552" lon="11.4155674"><ele>492.0</ele><time>2026-04-19T11:22:19.659Z</time></trkpt><trkpt lat="43.6246371" lon="11.4155754"><ele>492.40000000000003</ele><time>2026-04-19T11:22:20.648Z</time></trkpt><trkpt lat="43.6247235" lon="11.4156128"><ele>492.80000000000007</ele><time>2026-04-19T11:22:21.662Z</time></trkpt><trkpt lat="43.6248029" lon="11.4156936"><ele>493.2</ele><time>2026-04-19T11:22:22.653Z</time></trkpt><trkpt lat="43.6248736" lon="11.4158168"><ele>493.6</ele><time>2026-04-19T11:22:23.659Z</time></trkpt><trkpt lat="43.6249475" lon="11.415945"><ele>494.0</ele><time>2026-04-19T11:22:24.652Z</time></trkpt><trkpt lat="43.6250177" lon="11.4160821"><ele>494.0</ele><time>2026-04-19T11:22:25.661Z</time></trkpt><trkpt lat="43.625073" lon="11.416227"><ele>494.0</ele><time>2026-04-19T11:22:26.662Z</time></trkpt><trkpt lat="43.6251266" lon="11.4163745"><ele>494.0</ele><time>2026-04-19T11:22:27.666Z</time></trkpt><trkpt lat="43.625181" lon="11.4165204"><ele>494.0</ele><time>2026-04-19T11:22:28.664Z</time></trkpt><trkpt lat="43.6252338" lon="11.4166584"><ele>493.6</ele><time>2026-04-19T11:22:29.667Z</time></trkpt><trkpt lat="43.625272" lon="11.4168015"><ele>493.2</ele><time>2026-04-19T11:22:30.664Z</time></trkpt><trkpt lat="43.6253079" lon="11.4169461"><ele>492.80000000000007</ele><time>2026-04-19T11:22:31.657Z</time></trkpt><trkpt lat="43.6253368" lon="11.4170801"><ele>492.40000000000003</ele><time>2026-04-19T11:22:32.657Z</time></trkpt><trkpt lat="43.62537" lon="11.4172162"><ele>492.0</ele><time>2026-04-19T11:22:33.654Z</time></trkpt><trkpt lat="43.6254137" lon="11.4173339"><ele>490.6</ele><time>2026-04-19T11:22:34.655Z</time></trkpt><trkpt lat="43.6254698" lon="11.4174412"><ele>489.20000000000005</ele><time>2026-04-19T11:22:35.661Z</time></trkpt><trkpt lat="43.6255323" lon="11.4175547"><ele>487.8</ele><time>2026-04-19T11:22:36.666Z</time></trkpt><trkpt lat="43.625589" lon="11.4176484"><ele>486.4</ele><time>2026-04-19T11:22:37.666Z</time></trkpt><trkpt lat="43.6256486" lon="11.4177368"><ele>485.0</ele><time>2026-04-19T11:22:38.67Z</time></trkpt><trkpt lat="43.6257931" lon="11.4178853"><ele>485.0</ele><time>2026-04-19T11:22:40.664Z</time></trkpt><trkpt lat="43.6258839" lon="11.4179307"><ele>485.0</ele><time>2026-04-19T11:22:41.671Z</time></trkpt><trkpt lat="43.625975" lon="11.417973"><ele>485.0</ele><time>2026-04-19T11:22:42.667Z</time></trkpt><trkpt lat="43.6260681" lon="11.4180047"><ele>485.0</ele><time>2026-04-19T11:22:43.669Z</time></trkpt><trkpt lat="43.6261518" lon="11.418048"><ele>485.0</ele><time>2026-04-19T11:22:44.658Z</time></trkpt><trkpt lat="43.6262482" lon="11.4180979"><ele>482.8</ele><time>2026-04-19T11:22:45.663Z</time></trkpt><trkpt lat="43.6263379" lon="11.4181554"><ele>480.6</ele><time>2026-04-19T11:22:46.664Z</time></trkpt><trkpt lat="43.626421" lon="11.4182511"><ele>478.4</ele><time>2026-04-19T11:22:47.668Z</time></trkpt><trkpt lat="43.626501" lon="11.4183614"><ele>476.2</ele><time>2026-04-19T11:22:48.67Z</time></trkpt><trkpt lat="43.6265768" lon="11.4184718"><ele>474.0</ele><time>2026-04-19T11:22:49.674Z</time></trkpt><trkpt lat="43.626653" lon="11.4185849"><ele>474.0</ele><time>2026-04-19T11:22:50.667Z</time></trkpt><trkpt lat="43.6267188" lon="11.4186968"><ele>474.0</ele><time>2026-04-19T11:22:51.669Z</time></trkpt><trkpt lat="43.6267804" lon="11.418816"><ele>474.0</ele><time>2026-04-19T11:22:52.668Z</time></trkpt><trkpt lat="43.6268404" lon="11.4189517"><ele>474.0</ele><time>2026-04-19T11:22:53.669Z</time></trkpt><trkpt lat="43.6268996" lon="11.4190805"><ele>474.0</ele><time>2026-04-19T11:22:54.666Z</time></trkpt><trkpt lat="43.6269648" lon="11.4192076"><ele>471.79999999999995</ele><time>2026-04-19T11:22:55.671Z</time></trkpt><trkpt lat="43.6270247" lon="11.4193346"><ele>469.59999999999997</ele><time>2026-04-19T11:22:56.672Z</time></trkpt><trkpt lat="43.6270874" lon="11.419437"><ele>467.4</ele><time>2026-04-19T11:22:57.658Z</time></trkpt><trkpt lat="43.6271515" lon="11.4195176"><ele>465.2</ele><time>2026-04-19T11:22:58.66Z</time></trkpt><trkpt lat="43.6272192" lon="11.4195488"><ele>463.0</ele><time>2026-04-19T11:22:59.665Z</time></trkpt><trkpt lat="43.6273929" lon="11.4195102"><ele>463.00000000000006</ele><time>2026-04-19T11:23:02.658Z</time></trkpt><trkpt lat="43.6274566" lon="11.4194337"><ele>463.0</ele><time>2026-04-19T11:23:03.662Z</time></trkpt><trkpt lat="43.6275186" lon="11.4193563"><ele>463.0</ele><time>2026-04-19T11:23:04.664Z</time></trkpt><trkpt lat="43.6275708" lon="11.4192704"><ele>463.0</ele><time>2026-04-19T11:23:05.67Z</time></trkpt><trkpt lat="43.6276219" lon="11.419176"><ele>463.00000000000006</ele><time>2026-04-19T11:23:06.659Z</time></trkpt><trkpt lat="43.6276765" lon="11.4191028"><ele>463.0</ele><time>2026-04-19T11:23:07.653Z</time></trkpt><trkpt lat="43.6277284" lon="11.4190446"><ele>463.0</ele><time>2026-04-19T11:23:08.656Z</time></trkpt><trkpt lat="43.627791" lon="11.4189951"><ele>462.99999999999994</ele><time>2026-04-19T11:23:09.654Z</time></trkpt><trkpt lat="43.6278944" lon="11.4189856"><ele>462.99999999999994</ele><time>2026-04-19T11:23:11.662Z</time></trkpt><trkpt lat="43.6279806" lon="11.4190839"><ele>463.0</ele><time>2026-04-19T11:23:13.647Z</time></trkpt><trkpt lat="43.6279919" lon="11.4192086"><ele>463.0</ele><time>2026-04-19T11:23:14.64Z</time></trkpt><trkpt lat="43.6279954" lon="11.4193439"><ele>459.4</ele><time>2026-04-19T11:23:15.642Z</time></trkpt><trkpt lat="43.6280014" lon="11.4194748"><ele>455.79999999999995</ele><time>2026-04-19T11:23:16.647Z</time></trkpt><trkpt lat="43.6280125" lon="11.4196054"><ele>452.2</ele><time>2026-04-19T11:23:17.643Z</time></trkpt><trkpt lat="43.6280161" lon="11.4197479"><ele>448.6</ele><time>2026-04-19T11:23:18.645Z</time></trkpt><trkpt lat="43.6280093" lon="11.4199159"><ele>445.0</ele><time>2026-04-19T11:23:19.648Z</time></trkpt><trkpt lat="43.6280046" lon="11.4200754"><ele>442.8</ele><time>2026-04-19T11:23:20.65Z</time></trkpt><trkpt lat="43.6280086" lon="11.4203381"><ele>440.6</ele><time>2026-04-19T11:23:22.655Z</time></trkpt><trkpt lat="43.6280062" lon="11.420447"><ele>438.4</ele><time>2026-04-19T11:23:23.657Z</time></trkpt><trkpt lat="43.6280062" lon="11.4205432"><ele>436.2</ele><time>2026-04-19T11:23:24.654Z</time></trkpt><trkpt lat="43.6280179" lon="11.4206432"><ele>434.0</ele><time>2026-04-19T11:23:25.654Z</time></trkpt><trkpt lat="43.6280409" lon="11.4207309"><ele>432.8333333333333</ele><time>2026-04-19T11:23:26.652Z</time></trkpt><trkpt lat="43.6280867" lon="11.4208052"><ele>431.66666666666663</ele><time>2026-04-19T11:23:27.656Z</time></trkpt><trkpt lat="43.6281307" lon="11.4208737"><ele>430.5</ele><time>2026-04-19T11:23:28.662Z</time></trkpt><trkpt lat="43.628255" lon="11.4208847"><ele>429.33333333333337</ele><time>2026-04-19T11:23:30.671Z</time></trkpt><trkpt lat="43.6283279" lon="11.4208383"><ele>428.1666666666667</ele><time>2026-04-19T11:23:31.657Z</time></trkpt><trkpt lat="43.628407" lon="11.4207938"><ele>427.0</ele><time>2026-04-19T11:23:32.661Z</time></trkpt><trkpt lat="43.6284858" lon="11.4207453"><ele>427.00000000000006</ele><time>2026-04-19T11:23:33.66Z</time></trkpt><trkpt lat="43.6285537" lon="11.4207095"><ele>427.0</ele><time>2026-04-19T11:23:34.652Z</time></trkpt><trkpt lat="43.6286167" lon="11.4206732"><ele>427.0</ele><time>2026-04-19T11:23:35.653Z</time></trkpt><trkpt lat="43.6287263" lon="11.4206131"><ele>427.0</ele><time>2026-04-19T11:23:37.648Z</time></trkpt><trkpt lat="43.6287925" lon="11.4206058"><ele>427.00000000000006</ele><time>2026-04-19T11:23:38.655Z</time></trkpt><trkpt lat="43.6288612" lon="11.4206357"><ele>427.0</ele><time>2026-04-19T11:23:39.658Z</time></trkpt><trkpt lat="43.6289142" lon="11.4206959"><ele>423.20000000000005</ele><time>2026-04-19T11:23:40.664Z</time></trkpt><trkpt lat="43.6289541" lon="11.4207857"><ele>419.40000000000003</ele><time>2026-04-19T11:23:41.661Z</time></trkpt><trkpt lat="43.6290195" lon="11.421"><ele>415.6</ele><time>2026-04-19T11:23:43.666Z</time></trkpt><trkpt lat="43.6290374" lon="11.4210959"><ele>411.79999999999995</ele><time>2026-04-19T11:23:44.677Z</time></trkpt><trkpt lat="43.6290216" lon="11.4211934"><ele>408.0</ele><time>2026-04-19T11:23:45.663Z</time></trkpt><trkpt lat="43.6289848" lon="11.421275"><ele>409.1666666666667</ele><time>2026-04-19T11:23:46.658Z</time></trkpt><trkpt lat="43.6289214" lon="11.4213358"><ele>410.33333333333337</ele><time>2026-04-19T11:23:47.654Z</time></trkpt><trkpt lat="43.628859" lon="11.4213814"><ele>411.5</ele><time>2026-04-19T11:23:48.651Z</time></trkpt><trkpt lat="43.6287777" lon="11.4213992"><ele>412.6666666666667</ele><time>2026-04-19T11:23:49.653Z</time></trkpt><trkpt lat="43.6286958" lon="11.4214186"><ele>413.83333333333337</ele><time>2026-04-19T11:23:50.666Z</time></trkpt><trkpt lat="43.6286123" lon="11.4214512"><ele>415.0</ele><time>2026-04-19T11:23:51.668Z</time></trkpt><trkpt lat="43.6285406" lon="11.4215081"><ele>415.0</ele><time>2026-04-19T11:23:52.657Z</time></trkpt><trkpt lat="43.6284801" lon="11.4215691"><ele>415.0</ele><time>2026-04-19T11:23:53.661Z</time></trkpt><trkpt lat="43.6284084" lon="11.4216902"><ele>415.0</ele><time>2026-04-19T11:23:55.655Z</time></trkpt><trkpt lat="43.6284158" lon="11.4217769"><ele>415.0</ele><time>2026-04-19T11:23:56.665Z</time></trkpt><trkpt lat="43.6284618" lon="11.4218896"><ele>415.0</ele><time>2026-04-19T11:23:57.657Z</time></trkpt><trkpt lat="43.628516" lon="11.4220209"><ele>414.2</ele><time>2026-04-19T11:23:58.662Z</time></trkpt><trkpt lat="43.628566" lon="11.4221575"><ele>413.4</ele><time>2026-04-19T11:23:59.663Z</time></trkpt><trkpt lat="43.6286011" lon="11.4222914"><ele>412.6</ele><time>2026-04-19T11:24:00.644Z</time></trkpt><trkpt lat="43.6286259" lon="11.4224122"><ele>411.8</ele><time>2026-04-19T11:24:01.65Z</time></trkpt><trkpt lat="43.6286637" lon="11.4225312"><ele>411.0</ele><time>2026-04-19T11:24:02.645Z</time></trkpt><trkpt lat="43.6287779" lon="11.4227218"><ele>407.0</ele><time>2026-04-19T11:24:04.67Z</time></trkpt><trkpt lat="43.6288214" lon="11.4228041"><ele>403.0</ele><time>2026-04-19T11:24:05.659Z</time></trkpt><trkpt lat="43.6288388" lon="11.4228948"><ele>399.0</ele><time>2026-04-19T11:24:06.654Z</time></trkpt><trkpt lat="43.6288361" lon="11.423014"><ele>395.0</ele><time>2026-04-19T11:24:07.65Z</time></trkpt><trkpt lat="43.6288104" lon="11.4231455"><ele>391.0</ele><time>2026-04-19T11:24:08.658Z</time></trkpt><trkpt lat="43.6287757" lon="11.4233049"><ele>387.0</ele><time>2026-04-19T11:24:09.652Z</time></trkpt><trkpt lat="43.6287331" lon="11.4234686"><ele>386.25</ele><time>2026-04-19T11:24:10.677Z</time></trkpt><trkpt lat="43.6286771" lon="11.423628"><ele>385.5</ele><time>2026-04-19T11:24:11.665Z</time></trkpt><trkpt lat="43.6286277" lon="11.4237868"><ele>384.75</ele><time>2026-04-19T11:24:12.747Z</time></trkpt><trkpt lat="43.6285822" lon="11.4239299"><ele>384.0</ele><time>2026-04-19T11:24:13.747Z</time></trkpt><trkpt lat="43.6285315" lon="11.42409"><ele>382.0</ele><time>2026-04-19T11:24:14.756Z</time></trkpt><trkpt lat="43.6284708" lon="11.4242848"><ele>380.0</ele><time>2026-04-19T11:24:15.738Z</time></trkpt><trkpt lat="43.6284041" lon="11.4244958"><ele>378.0</ele><time>2026-04-19T11:24:16.745Z</time></trkpt><trkpt lat="43.628335" lon="11.4246905"><ele>378.0</ele><time>2026-04-19T11:24:17.751Z</time></trkpt><trkpt lat="43.6282905" lon="11.4247582"><ele>378.0</ele><time>2026-04-19T11:24:18.746Z</time></trkpt><trkpt lat="43.6282366" lon="11.4248064"><ele>378.0</ele><time>2026-04-19T11:24:19.747Z</time></trkpt><trkpt lat="43.628159" lon="11.4249097"><ele>378.0</ele><time>2026-04-19T11:24:20.73Z</time></trkpt><trkpt lat="43.628082" lon="11.4250045"><ele>378.0</ele><time>2026-04-19T11:24:21.733Z</time></trkpt><trkpt lat="43.6280016" lon="11.4250992"><ele>378.0</ele><time>2026-04-19T11:24:22.737Z</time></trkpt><trkpt lat="43.6277949" lon="11.4253135"><ele>378.75</ele><time>2026-04-19T11:24:24.757Z</time></trkpt><trkpt lat="43.6277106" lon="11.4254268"><ele>379.5</ele><time>2026-04-19T11:24:25.757Z</time></trkpt><trkpt lat="43.6276258" lon="11.4255417"><ele>380.25</ele><time>2026-04-19T11:24:26.758Z</time></trkpt><trkpt lat="43.6275445" lon="11.4256556"><ele>381.0</ele><time>2026-04-19T11:24:27.753Z</time></trkpt><trkpt lat="43.6274676" lon="11.4257734"><ele>378.5</ele><time>2026-04-19T11:24:28.766Z</time></trkpt><trkpt lat="43.627382" lon="11.4258958"><ele>376.0</ele><time>2026-04-19T11:24:29.754Z</time></trkpt><trkpt lat="43.6272931" lon="11.4259944"><ele>373.5</ele><time>2026-04-19T11:24:30.727Z</time></trkpt><trkpt lat="43.627163" lon="11.4260849"><ele>371.0</ele><time>2026-04-19T11:24:31.716Z</time></trkpt><trkpt lat="43.6271365" lon="11.4261952"><ele>368.0</ele><time>2026-04-19T11:24:32.709Z</time></trkpt><trkpt lat="43.6271324" lon="11.4263444"><ele>365.0</ele><time>2026-04-19T11:24:33.708Z</time></trkpt><trkpt lat="43.6271416" lon="11.4265215"><ele>362.0</ele><time>2026-04-19T11:24:34.718Z</time></trkpt><trkpt lat="43.6271905" lon="11.4267236"><ele>359.0</ele><time>2026-04-19T11:24:35.748Z</time></trkpt><trkpt lat="43.6271857" lon="11.4269164"><ele>359.0</ele><time>2026-04-19T11:24:36.742Z</time></trkpt><trkpt lat="43.6271753" lon="11.4271002"><ele>359.0</ele><time>2026-04-19T11:24:37.748Z</time></trkpt><trkpt lat="43.6271511" lon="11.4272578"><ele>359.0</ele><time>2026-04-19T11:24:38.758Z</time></trkpt><trkpt lat="43.627128" lon="11.427417"><ele>359.0</ele><time>2026-04-19T11:24:39.744Z</time></trkpt><trkpt lat="43.6271078" lon="11.4275627"><ele>359.25</ele><time>2026-04-19T11:24:40.751Z</time></trkpt><trkpt lat="43.6270206" lon="11.4277192"><ele>359.5</ele><time>2026-04-19T11:24:41.662Z</time></trkpt><trkpt lat="43.6269265" lon="11.4278447"><ele>359.75</ele><time>2026-04-19T11:24:42.666Z</time></trkpt><trkpt lat="43.626832" lon="11.42797"><ele>360.0</ele><time>2026-04-19T11:24:43.668Z</time></trkpt><trkpt lat="43.6266603" lon="11.4282057"><ele>358.8333333333333</ele><time>2026-04-19T11:24:45.661Z</time></trkpt><trkpt lat="43.6265994" lon="11.4283057"><ele>357.6666666666667</ele><time>2026-04-19T11:24:46.668Z</time></trkpt><trkpt lat="43.6265591" lon="11.4283988"><ele>356.5</ele><time>2026-04-19T11:24:47.664Z</time></trkpt><trkpt lat="43.6265427" lon="11.4284846"><ele>355.33333333333337</ele><time>2026-04-19T11:24:48.67Z</time></trkpt><trkpt lat="43.6265623" lon="11.4285948"><ele>354.1666666666667</ele><time>2026-04-19T11:24:49.661Z</time></trkpt><trkpt lat="43.6266006" lon="11.4287134"><ele>353.0</ele><time>2026-04-19T11:24:50.669Z</time></trkpt><trkpt lat="43.6266255" lon="11.4288472"><ele>351.75</ele><time>2026-04-19T11:24:51.664Z</time></trkpt><trkpt lat="43.6266162" lon="11.4289899"><ele>350.5</ele><time>2026-04-19T11:24:52.66Z</time></trkpt><trkpt lat="43.6265891" lon="11.4291359"><ele>349.25</ele><time>2026-04-19T11:24:53.66Z</time></trkpt><trkpt lat="43.6265357" lon="11.4292875"><ele>348.0</ele><time>2026-04-19T11:24:54.662Z</time></trkpt><trkpt lat="43.62648" lon="11.4294312"><ele>348.0</ele><time>2026-04-19T11:24:55.665Z</time></trkpt><trkpt lat="43.6264298" lon="11.4295796"><ele>348.0</ele><time>2026-04-19T11:24:56.668Z</time></trkpt><trkpt lat="43.6263882" lon="11.4297271"><ele>348.0</ele><time>2026-04-19T11:24:57.668Z</time></trkpt><trkpt lat="43.6263557" lon="11.4298727"><ele>348.0</ele><time>2026-04-19T11:24:58.661Z</time></trkpt><trkpt lat="43.6263235" lon="11.4299909"><ele>348.0</ele><time>2026-04-19T11:24:59.671Z</time></trkpt><trkpt lat="43.6263025" lon="11.430084"><ele>348.25</ele><time>2026-04-19T11:25:00.652Z</time></trkpt><trkpt lat="43.6262052" lon="11.4301935"><ele>348.5</ele><time>2026-04-19T11:25:02.666Z</time></trkpt><trkpt lat="43.6261101" lon="11.4302176"><ele>348.75</ele><time>2026-04-19T11:25:03.665Z</time></trkpt><trkpt lat="43.6259845" lon="11.4302308"><ele>349.0</ele><time>2026-04-19T11:25:04.652Z</time></trkpt><trkpt lat="43.6257168" lon="11.4302578"><ele>349.0</ele><time>2026-04-19T11:25:06.664Z</time></trkpt><trkpt lat="43.6255899" lon="11.4302913"><ele>349.0</ele><time>2026-04-19T11:25:07.668Z</time></trkpt><trkpt lat="43.6254826" lon="11.4303286"><ele>349.0</ele><time>2026-04-19T11:25:08.661Z</time></trkpt><trkpt lat="43.62539" lon="11.4303831"><ele>349.0</ele><time>2026-04-19T11:25:09.664Z</time></trkpt><trkpt lat="43.6253057" lon="11.4304586"><ele>349.0</ele><time>2026-04-19T11:25:10.662Z</time></trkpt><trkpt lat="43.6252296" lon="11.4305505"><ele>346.2</ele><time>2026-04-19T11:25:11.671Z</time></trkpt><trkpt lat="43.6251543" lon="11.4306434"><ele>343.4</ele><time>2026-04-19T11:25:12.659Z</time></trkpt><trkpt lat="43.6250726" lon="11.43072"><ele>340.6</ele><time>2026-04-19T11:25:13.666Z</time></trkpt><trkpt lat="43.6249908" lon="11.4307922"><ele>337.8</ele><time>2026-04-19T11:25:14.662Z</time></trkpt><trkpt lat="43.624903" lon="11.4308681"><ele>335.0</ele><time>2026-04-19T11:25:15.663Z</time></trkpt><trkpt lat="43.6248144" lon="11.4309352"><ele>335.0</ele><time>2026-04-19T11:25:16.662Z</time></trkpt><trkpt lat="43.6247176" lon="11.4309836"><ele>335.0</ele><time>2026-04-19T11:25:17.669Z</time></trkpt><trkpt lat="43.6246261" lon="11.4310237"><ele>335.0</ele><time>2026-04-19T11:25:18.668Z</time></trkpt><trkpt lat="43.6245342" lon="11.4310742"><ele>335.0</ele><time>2026-04-19T11:25:19.665Z</time></trkpt><trkpt lat="43.6244563" lon="11.4311302"><ele>335.0</ele><time>2026-04-19T11:25:20.67Z</time></trkpt><trkpt lat="43.6243725" lon="11.4311908"><ele>334.8</ele><time>2026-04-19T11:25:21.678Z</time></trkpt><trkpt lat="43.6242896" lon="11.4312607"><ele>334.6</ele><time>2026-04-19T11:25:22.672Z</time></trkpt><trkpt lat="43.6242224" lon="11.4313239"><ele>334.4</ele><time>2026-04-19T11:25:23.674Z</time></trkpt><trkpt lat="43.6241463" lon="11.4313829"><ele>334.2</ele><time>2026-04-19T11:25:24.674Z</time></trkpt><trkpt lat="43.6240701" lon="11.4314432"><ele>334.0</ele><time>2026-04-19T11:25:25.675Z</time></trkpt><trkpt lat="43.6239256" lon="11.4315468"><ele>333.79999999999995</ele><time>2026-04-19T11:25:28.67Z</time></trkpt><trkpt lat="43.6238313" lon="11.4315904"><ele>333.59999999999997</ele><time>2026-04-19T11:25:30.665Z</time></trkpt><trkpt lat="43.6237251" lon="11.4316792"><ele>333.4</ele><time>2026-04-19T11:25:32.666Z</time></trkpt><trkpt lat="43.6236395" lon="11.431727"><ele>333.2</ele><time>2026-04-19T11:25:33.656Z</time></trkpt><trkpt lat="43.6235565" lon="11.4317521"><ele>333.0</ele><time>2026-04-19T11:25:34.665Z</time></trkpt><trkpt lat="43.6234737" lon="11.4317945"><ele>333.0</ele><time>2026-04-19T11:25:35.666Z</time></trkpt><trkpt lat="43.623388" lon="11.4318447"><ele>333.0</ele><time>2026-04-19T11:25:36.666Z</time></trkpt><trkpt lat="43.6233173" lon="11.4319139"><ele>333.0</ele><time>2026-04-19T11:25:37.663Z</time></trkpt><trkpt lat="43.623261" lon="11.4320084"><ele>333.0</ele><time>2026-04-19T11:25:38.657Z</time></trkpt><trkpt lat="43.6232127" lon="11.4321159"><ele>333.0</ele><time>2026-04-19T11:25:39.655Z</time></trkpt><trkpt lat="43.6231792" lon="11.4322275"><ele>333.0</ele><time>2026-04-19T11:25:40.657Z</time></trkpt><trkpt lat="43.6231579" lon="11.4323576"><ele>331.3333333333333</ele><time>2026-04-19T11:25:41.66Z</time></trkpt><trkpt lat="43.6231537" lon="11.4324711"><ele>329.6666666666667</ele><time>2026-04-19T11:25:42.664Z</time></trkpt><trkpt lat="43.6231414" lon="11.4325671"><ele>328.0</ele><time>2026-04-19T11:25:43.667Z</time></trkpt><trkpt lat="43.6231179" lon="11.4326501"><ele>326.33333333333337</ele><time>2026-04-19T11:25:44.661Z</time></trkpt><trkpt lat="43.6230675" lon="11.4327153"><ele>324.6666666666667</ele><time>2026-04-19T11:25:45.664Z</time></trkpt><trkpt lat="43.6230005" lon="11.4327453"><ele>323.0</ele><time>2026-04-19T11:25:46.658Z</time></trkpt><trkpt lat="43.6228405" lon="11.432799"><ele>322.59999999999997</ele><time>2026-04-19T11:25:48.655Z</time></trkpt><trkpt lat="43.6227637" lon="11.4328632"><ele>322.2</ele><time>2026-04-19T11:25:49.663Z</time></trkpt><trkpt lat="43.6227105" lon="11.432966"><ele>321.8</ele><time>2026-04-19T11:25:50.65Z</time></trkpt><trkpt lat="43.6226731" lon="11.4330856"><ele>321.4</ele><time>2026-04-19T11:25:51.646Z</time></trkpt><trkpt lat="43.6226435" lon="11.4332108"><ele>321.0</ele><time>2026-04-19T11:25:52.644Z</time></trkpt><trkpt lat="43.6226016" lon="11.4333153"><ele>321.0</ele><time>2026-04-19T11:25:53.659Z</time></trkpt><trkpt lat="43.6225498" lon="11.4333781"><ele>321.0</ele><time>2026-04-19T11:25:54.651Z</time></trkpt><trkpt lat="43.6224875" lon="11.4334152"><ele>321.0</ele><time>2026-04-19T11:25:55.657Z</time></trkpt><trkpt lat="43.6224111" lon="11.4334232"><ele>321.0</ele><time>2026-04-19T11:25:56.652Z</time></trkpt><trkpt lat="43.622334" lon="11.4334199"><ele>321.0</ele><time>2026-04-19T11:25:57.648Z</time></trkpt><trkpt lat="43.6222565" lon="11.4334417"><ele>321.0</ele><time>2026-04-19T11:25:58.651Z</time></trkpt><trkpt lat="43.6221762" lon="11.4335116"><ele>321.0</ele><time>2026-04-19T11:25:59.653Z</time></trkpt><trkpt lat="43.6221128" lon="11.4335923"><ele>321.0</ele><time>2026-04-19T11:26:00.652Z</time></trkpt><trkpt lat="43.6220482" lon="11.4336638"><ele>321.0</ele><time>2026-04-19T11:26:01.65Z</time></trkpt><trkpt lat="43.6219754" lon="11.4337231"><ele>321.0</ele><time>2026-04-19T11:26:02.645Z</time></trkpt><trkpt lat="43.6218962" lon="11.4337706"><ele>321.0</ele><time>2026-04-19T11:26:03.648Z</time></trkpt><trkpt lat="43.6218133" lon="11.4338043"><ele>321.0</ele><time>2026-04-19T11:26:04.65Z</time></trkpt><trkpt lat="43.6217321" lon="11.4338174"><ele>321.0</ele><time>2026-04-19T11:26:05.651Z</time></trkpt><trkpt lat="43.6216477" lon="11.4337891"><ele>321.0</ele><time>2026-04-19T11:26:06.653Z</time></trkpt><trkpt lat="43.6215696" lon="11.4337268"><ele>321.0</ele><time>2026-04-19T11:26:07.66Z</time></trkpt><trkpt lat="43.6214534" lon="11.4335513"><ele>321.0</ele><time>2026-04-19T11:26:09.658Z</time></trkpt><trkpt lat="43.6214056" lon="11.4334842"><ele>321.0</ele><time>2026-04-19T11:26:10.649Z</time></trkpt><trkpt lat="43.6212764" lon="11.4334367"><ele>321.0</ele><time>2026-04-19T11:26:12.653Z</time></trkpt><trkpt lat="43.6211968" lon="11.4334678"><ele>321.0</ele><time>2026-04-19T11:26:13.658Z</time></trkpt><trkpt lat="43.621116" lon="11.433524"><ele>321.0</ele><time>2026-04-19T11:26:14.654Z</time></trkpt><trkpt lat="43.6210256" lon="11.4335819"><ele>321.0</ele><time>2026-04-19T11:26:15.657Z</time></trkpt><trkpt lat="43.6209286" lon="11.433652"><ele>321.0</ele><time>2026-04-19T11:26:16.66Z</time></trkpt><trkpt lat="43.6208124" lon="11.4337282"><ele>315.0</ele><time>2026-04-19T11:26:17.668Z</time></trkpt><trkpt lat="43.6206991" lon="11.4338167"><ele>309.0</ele><time>2026-04-19T11:26:18.667Z</time></trkpt><trkpt lat="43.6205866" lon="11.4339118"><ele>303.0</ele><time>2026-04-19T11:26:19.667Z</time></trkpt><trkpt lat="43.6204783" lon="11.4340106"><ele>297.0</ele><time>2026-04-19T11:26:20.663Z</time></trkpt><trkpt lat="43.6203694" lon="11.4341031"><ele>296.2</ele><time>2026-04-19T11:26:21.666Z</time></trkpt><trkpt lat="43.6202739" lon="11.4341881"><ele>295.4</ele><time>2026-04-19T11:26:22.666Z</time></trkpt><trkpt lat="43.6201897" lon="11.4342743"><ele>294.6</ele><time>2026-04-19T11:26:23.661Z</time></trkpt><trkpt lat="43.6201239" lon="11.4343698"><ele>293.8</ele><time>2026-04-19T11:26:24.662Z</time></trkpt><trkpt lat="43.6200654" lon="11.4344835"><ele>293.0</ele><time>2026-04-19T11:26:25.664Z</time></trkpt><trkpt lat="43.6200057" lon="11.4346075"><ele>291.0</ele><time>2026-04-19T11:26:26.667Z</time></trkpt><trkpt lat="43.6199584" lon="11.4347523"><ele>289.0</ele><time>2026-04-19T11:26:27.661Z</time></trkpt><trkpt lat="43.6199143" lon="11.4349077"><ele>287.0</ele><time>2026-04-19T11:26:28.665Z</time></trkpt><trkpt lat="43.619818" lon="11.435203"><ele>287.0</ele><time>2026-04-19T11:26:30.651Z</time></trkpt><trkpt lat="43.6197828" lon="11.4353076"><ele>287.0</ele><time>2026-04-19T11:26:31.653Z</time></trkpt><trkpt lat="43.6197369" lon="11.4353894"><ele>287.0</ele><time>2026-04-19T11:26:33.655Z</time></trkpt><trkpt lat="43.6196325" lon="11.4353191"><ele>287.0</ele><time>2026-04-19T11:26:36.661Z</time></trkpt><trkpt lat="43.6196" lon="11.4352332"><ele>287.0</ele><time>2026-04-19T11:26:37.661Z</time></trkpt><trkpt lat="43.6195623" lon="11.4351387"><ele>287.0</ele><time>2026-04-19T11:26:38.66Z</time></trkpt><trkpt lat="43.6195146" lon="11.4350487"><ele>286.0</ele><time>2026-04-19T11:26:39.667Z</time></trkpt><trkpt lat="43.6194654" lon="11.4349782"><ele>285.0</ele><time>2026-04-19T11:26:40.659Z</time></trkpt><trkpt lat="43.6194066" lon="11.4349232"><ele>284.0</ele><time>2026-04-19T11:26:41.663Z</time></trkpt><trkpt lat="43.6193365" lon="11.4348856"><ele>283.0</ele><time>2026-04-19T11:26:42.659Z</time></trkpt><trkpt lat="43.6192577" lon="11.4348691"><ele>282.0</ele><time>2026-04-19T11:26:43.657Z</time></trkpt><trkpt lat="43.6191785" lon="11.4348625"><ele>281.0</ele><time>2026-04-19T11:26:44.663Z</time></trkpt><trkpt lat="43.6190887" lon="11.4348818"><ele>281.0</ele><time>2026-04-19T11:26:45.665Z</time></trkpt><trkpt lat="43.6189967" lon="11.4349224"><ele>281.0</ele><time>2026-04-19T11:26:46.669Z</time></trkpt><trkpt lat="43.6189014" lon="11.4349862"><ele>281.0</ele><time>2026-04-19T11:26:47.68Z</time></trkpt><trkpt lat="43.6188112" lon="11.4350535"><ele>281.0</ele><time>2026-04-19T11:26:48.669Z</time></trkpt><trkpt lat="43.6187204" lon="11.4351217"><ele>281.0</ele><time>2026-04-19T11:26:49.666Z</time></trkpt><trkpt lat="43.6185142" lon="11.4352686"><ele>279.5</ele><time>2026-04-19T11:26:51.669Z</time></trkpt><trkpt lat="43.6184117" lon="11.4353404"><ele>278.0</ele><time>2026-04-19T11:26:52.672Z</time></trkpt><trkpt lat="43.6183003" lon="11.4354195"><ele>276.5</ele><time>2026-04-19T11:26:53.672Z</time></trkpt><trkpt lat="43.6181877" lon="11.4354907"><ele>275.0</ele><time>2026-04-19T11:26:54.657Z</time></trkpt><trkpt lat="43.6180811" lon="11.4355645"><ele>274.0</ele><time>2026-04-19T11:26:55.671Z</time></trkpt><trkpt lat="43.617977" lon="11.4356395"><ele>273.0</ele><time>2026-04-19T11:26:56.672Z</time></trkpt><trkpt lat="43.6178837" lon="11.4357246"><ele>272.0</ele><time>2026-04-19T11:26:57.668Z</time></trkpt><trkpt lat="43.6177904" lon="11.4358459"><ele>271.0</ele><time>2026-04-19T11:26:58.668Z</time></trkpt><trkpt lat="43.6177115" lon="11.4359745"><ele>269.25</ele><time>2026-04-19T11:26:59.669Z</time></trkpt><trkpt lat="43.6176449" lon="11.4361026"><ele>267.5</ele><time>2026-04-19T11:27:00.662Z</time></trkpt><trkpt lat="43.6175702" lon="11.4362399"><ele>265.75</ele><time>2026-04-19T11:27:01.669Z</time></trkpt><trkpt lat="43.6174975" lon="11.4363484"><ele>264.0</ele><time>2026-04-19T11:27:02.655Z</time></trkpt><trkpt lat="43.617421" lon="11.4364466"><ele>263.59999999999997</ele><time>2026-04-19T11:27:03.653Z</time></trkpt><trkpt lat="43.6173375" lon="11.4365176"><ele>263.2</ele><time>2026-04-19T11:27:04.657Z</time></trkpt><trkpt lat="43.6172532" lon="11.4365622"><ele>262.79999999999995</ele><time>2026-04-19T11:27:05.655Z</time></trkpt><trkpt lat="43.6171523" lon="11.4365824"><ele>262.4</ele><time>2026-04-19T11:27:06.657Z</time></trkpt><trkpt lat="43.617047" lon="11.4365791"><ele>262.0</ele><time>2026-04-19T11:27:07.649Z</time></trkpt><trkpt lat="43.616938" lon="11.436548"><ele>262.0</ele><time>2026-04-19T11:27:08.67Z</time></trkpt><trkpt lat="43.6168229" lon="11.4364916"><ele>262.0</ele><time>2026-04-19T11:27:09.656Z</time></trkpt><trkpt lat="43.6166993" lon="11.4364204"><ele>262.0</ele><time>2026-04-19T11:27:10.666Z</time></trkpt><trkpt lat="43.6164565" lon="11.4362911"><ele>262.0</ele><time>2026-04-19T11:27:12.667Z</time></trkpt><trkpt lat="43.6163717" lon="11.4362417"><ele>262.0</ele><time>2026-04-19T11:27:13.653Z</time></trkpt><trkpt lat="43.6162901" lon="11.4361959"><ele>262.0</ele><time>2026-04-19T11:27:15.66Z</time></trkpt><trkpt lat="43.6162239" lon="11.436169"><ele>262.0</ele><time>2026-04-19T11:28:45.673Z</time></trkpt><trkpt lat="43.6160436" lon="11.4360982"><ele>262.0</ele><time>2026-04-19T11:28:48.666Z</time></trkpt><trkpt lat="43.6159509" lon="11.436058"><ele>263.0</ele><time>2026-04-19T11:28:49.662Z</time></trkpt><trkpt lat="43.6158552" lon="11.4360053"><ele>264.0</ele><time>2026-04-19T11:28:50.66Z</time></trkpt><trkpt lat="43.6157455" lon="11.4359428"><ele>265.0</ele><time>2026-04-19T11:28:51.672Z</time></trkpt><trkpt lat="43.6156347" lon="11.4358839"><ele>266.0</ele><time>2026-04-19T11:28:52.673Z</time></trkpt><trkpt lat="43.6155249" lon="11.4358325"><ele>266.0</ele><time>2026-04-19T11:28:53.674Z</time></trkpt><trkpt lat="43.6154216" lon="11.4357959"><ele>266.0</ele><time>2026-04-19T11:28:54.664Z</time></trkpt><trkpt lat="43.6153204" lon="11.4357829"><ele>266.0</ele><time>2026-04-19T11:28:55.668Z</time></trkpt><trkpt lat="43.615219" lon="11.4357907"><ele>266.0</ele><time>2026-04-19T11:28:56.672Z</time></trkpt><trkpt lat="43.6151118" lon="11.4357829"><ele>266.0</ele><time>2026-04-19T11:28:57.668Z</time></trkpt><trkpt lat="43.6150094" lon="11.4357614"><ele>267.25</ele><time>2026-04-19T11:28:58.656Z</time></trkpt><trkpt lat="43.6149191" lon="11.4356996"><ele>268.5</ele><time>2026-04-19T11:28:59.68Z</time></trkpt><trkpt lat="43.6148403" lon="11.4355885"><ele>269.75</ele><time>2026-04-19T11:29:00.659Z</time></trkpt><trkpt lat="43.61476" lon="11.4354482"><ele>271.0</ele><time>2026-04-19T11:29:01.66Z</time></trkpt><trkpt lat="43.6146807" lon="11.4353067"><ele>273.0</ele><time>2026-04-19T11:29:02.657Z</time></trkpt><trkpt lat="43.6145923" lon="11.4351516"><ele>275.0</ele><time>2026-04-19T11:29:03.652Z</time></trkpt><trkpt lat="43.6144914" lon="11.4350146"><ele>277.0</ele><time>2026-04-19T11:29:04.652Z</time></trkpt><trkpt lat="43.6143732" lon="11.4348858"><ele>279.0</ele><time>2026-04-19T11:29:05.654Z</time></trkpt><trkpt lat="43.6142218" lon="11.4348039"><ele>279.0</ele><time>2026-04-19T11:29:06.646Z</time></trkpt><trkpt lat="43.6139336" lon="11.4346641"><ele>279.0</ele><time>2026-04-19T11:29:08.649Z</time></trkpt><trkpt lat="43.6138066" lon="11.4345915"><ele>279.0</ele><time>2026-04-19T11:29:09.664Z</time></trkpt><trkpt lat="43.6136603" lon="11.4345228"><ele>279.25</ele><time>2026-04-19T11:29:10.666Z</time></trkpt><trkpt lat="43.6135257" lon="11.4344557"><ele>279.5</ele><time>2026-04-19T11:29:11.663Z</time></trkpt><trkpt lat="43.6133933" lon="11.4344053"><ele>279.75</ele><time>2026-04-19T11:29:12.668Z</time></trkpt><trkpt lat="43.6132703" lon="11.4343615"><ele>280.0</ele><time>2026-04-19T11:29:13.663Z</time></trkpt><trkpt lat="43.6131437" lon="11.4342904"><ele>280.0</ele><time>2026-04-19T11:29:14.666Z</time></trkpt><trkpt lat="43.6130131" lon="11.4342016"><ele>280.0</ele><time>2026-04-19T11:29:15.666Z</time></trkpt><trkpt lat="43.6128877" lon="11.4340924"><ele>280.0</ele><time>2026-04-19T11:29:16.669Z</time></trkpt><trkpt lat="43.6127609" lon="11.4339902"><ele>280.0</ele><time>2026-04-19T11:29:17.67Z</time></trkpt><trkpt lat="43.6126324" lon="11.4338825"><ele>281.66666666666663</ele><time>2026-04-19T11:29:18.673Z</time></trkpt><trkpt lat="43.6124967" lon="11.4337619"><ele>283.3333333333333</ele><time>2026-04-19T11:29:19.668Z</time></trkpt><trkpt lat="43.6123624" lon="11.4336382"><ele>285.0</ele><time>2026-04-19T11:29:20.671Z</time></trkpt><trkpt lat="43.6122365" lon="11.4335092"><ele>285.0</ele><time>2026-04-19T11:29:21.672Z</time></trkpt><trkpt lat="43.612105" lon="11.433378"><ele>285.0</ele><time>2026-04-19T11:29:22.666Z</time></trkpt><trkpt lat="43.6119722" lon="11.4332612"><ele>285.0</ele><time>2026-04-19T11:29:23.673Z</time></trkpt><trkpt lat="43.6118466" lon="11.4331564"><ele>282.3333333333333</ele><time>2026-04-19T11:29:24.671Z</time></trkpt><trkpt lat="43.6117142" lon="11.4330343"><ele>279.66666666666663</ele><time>2026-04-19T11:29:25.671Z</time></trkpt><trkpt lat="43.6115832" lon="11.4329048"><ele>277.0</ele><time>2026-04-19T11:29:26.672Z</time></trkpt><trkpt lat="43.6114547" lon="11.432773"><ele>277.0</ele><time>2026-04-19T11:29:27.676Z</time></trkpt><trkpt lat="43.6111808" lon="11.4324924"><ele>277.0</ele><time>2026-04-19T11:29:29.674Z</time></trkpt><trkpt lat="43.6110421" lon="11.4323709"><ele>277.3333333333333</ele><time>2026-04-19T11:29:30.668Z</time></trkpt><trkpt lat="43.6109138" lon="11.4322607"><ele>277.6666666666667</ele><time>2026-04-19T11:29:31.668Z</time></trkpt><trkpt lat="43.6107784" lon="11.4321394"><ele>278.0</ele><time>2026-04-19T11:29:32.671Z</time></trkpt><trkpt lat="43.610638" lon="11.4320131"><ele>278.0</ele><time>2026-04-19T11:29:33.666Z</time></trkpt><trkpt lat="43.6105144" lon="11.4318784"><ele>278.0</ele><time>2026-04-19T11:29:34.669Z</time></trkpt><trkpt lat="43.6103778" lon="11.4317454"><ele>278.0</ele><time>2026-04-19T11:29:35.663Z</time></trkpt><trkpt lat="43.6102496" lon="11.4316056"><ele>279.0</ele><time>2026-04-19T11:29:36.671Z</time></trkpt><trkpt lat="43.6101332" lon="11.4314839"><ele>280.0</ele><time>2026-04-19T11:29:37.667Z</time></trkpt><trkpt lat="43.610026" lon="11.4313648"><ele>281.0</ele><time>2026-04-19T11:29:38.662Z</time></trkpt><trkpt lat="43.609937" lon="11.4312448"><ele>282.0</ele><time>2026-04-19T11:29:39.656Z</time></trkpt><trkpt lat="43.6098645" lon="11.4311038"><ele>282.0</ele><time>2026-04-19T11:29:40.661Z</time></trkpt><trkpt lat="43.6098057" lon="11.4309623"><ele>282.0</ele><time>2026-04-19T11:29:41.667Z</time></trkpt><trkpt lat="43.6097575" lon="11.4308208"><ele>282.0</ele><time>2026-04-19T11:29:42.675Z</time></trkpt><trkpt lat="43.6097136" lon="11.4306844"><ele>282.0</ele><time>2026-04-19T11:29:43.666Z</time></trkpt><trkpt lat="43.6097086" lon="11.4305229"><ele>281.6666666666667</ele><time>2026-04-19T11:29:44.666Z</time></trkpt><trkpt lat="43.6097394" lon="11.430344"><ele>281.33333333333337</ele><time>2026-04-19T11:29:45.659Z</time></trkpt><trkpt lat="43.6097749" lon="11.4301384"><ele>281.0</ele><time>2026-04-19T11:29:46.656Z</time></trkpt><trkpt lat="43.6098243" lon="11.429903"><ele>281.0</ele><time>2026-04-19T11:29:47.656Z</time></trkpt><trkpt lat="43.6098576" lon="11.4296627"><ele>281.0</ele><time>2026-04-19T11:29:48.662Z</time></trkpt><trkpt lat="43.6099227" lon="11.4292374"><ele>281.25</ele><time>2026-04-19T11:29:50.66Z</time></trkpt><trkpt lat="43.6099525" lon="11.4290251"><ele>281.5</ele><time>2026-04-19T11:29:51.662Z</time></trkpt><trkpt lat="43.6099831" lon="11.4288419"><ele>281.75</ele><time>2026-04-19T11:29:52.657Z</time></trkpt><trkpt lat="43.6100028" lon="11.4286842"><ele>282.0</ele><time>2026-04-19T11:29:53.658Z</time></trkpt><trkpt lat="43.6100398" lon="11.4285444"><ele>282.5</ele><time>2026-04-19T11:29:54.662Z</time></trkpt><trkpt lat="43.6100477" lon="11.4284173"><ele>283.0</ele><time>2026-04-19T11:29:55.653Z</time></trkpt><trkpt lat="43.6100359" lon="11.4283102"><ele>283.5</ele><time>2026-04-19T11:29:56.667Z</time></trkpt><trkpt lat="43.6099878" lon="11.4282401"><ele>284.0</ele><time>2026-04-19T11:29:57.652Z</time></trkpt><trkpt lat="43.6099123" lon="11.4281815"><ele>284.5</ele><time>2026-04-19T11:29:58.651Z</time></trkpt><trkpt lat="43.6098169" lon="11.4281337"><ele>285.0</ele><time>2026-04-19T11:29:59.662Z</time></trkpt><trkpt lat="43.6097" lon="11.4280968"><ele>285.0</ele><time>2026-04-19T11:30:00.661Z</time></trkpt><trkpt lat="43.6095621" lon="11.4280702"><ele>285.0</ele><time>2026-04-19T11:30:01.669Z</time></trkpt><trkpt lat="43.6094216" lon="11.4280353"><ele>285.0</ele><time>2026-04-19T11:30:02.67Z</time></trkpt><trkpt lat="43.6092805" lon="11.4280008"><ele>285.0</ele><time>2026-04-19T11:30:03.666Z</time></trkpt><trkpt lat="43.6091312" lon="11.4279831"><ele>283.6666666666667</ele><time>2026-04-19T11:30:04.679Z</time></trkpt><trkpt lat="43.6089795" lon="11.4279277"><ele>282.33333333333337</ele><time>2026-04-19T11:30:05.681Z</time></trkpt><trkpt lat="43.6088246" lon="11.4278892"><ele>281.0</ele><time>2026-04-19T11:30:06.753Z</time></trkpt><trkpt lat="43.6086675" lon="11.4278489"><ele>279.6666666666667</ele><time>2026-04-19T11:30:07.769Z</time></trkpt><trkpt lat="43.6085098" lon="11.4278091"><ele>278.3333333333333</ele><time>2026-04-19T11:30:08.759Z</time></trkpt><trkpt lat="43.6083551" lon="11.4277651"><ele>277.0</ele><time>2026-04-19T11:30:09.761Z</time></trkpt><trkpt lat="43.6080458" lon="11.4276871"><ele>277.0</ele><time>2026-04-19T11:30:11.756Z</time></trkpt><trkpt lat="43.6079041" lon="11.4276471"><ele>277.0</ele><time>2026-04-19T11:30:12.756Z</time></trkpt><trkpt lat="43.6077831" lon="11.427602"><ele>277.0</ele><time>2026-04-19T11:30:13.758Z</time></trkpt><trkpt lat="43.6076869" lon="11.4275684"><ele>277.0</ele><time>2026-04-19T11:30:14.747Z</time></trkpt><trkpt lat="43.6067102" lon="11.4261635"><ele>289.0</ele><time>2026-04-19T11:31:40.654Z</time></trkpt><trkpt lat="43.6040278" lon="11.4184118"><ele>289.0</ele><time>2026-04-19T11:32:16.663Z</time></trkpt></trkseg><trkseg><trkpt lat="43.4451837" lon="11.3474219"><ele>406.99999999999994</ele><time>2026-04-19T14:42:00.456Z</time></trkpt><trkpt lat="43.445186" lon="11.3473205"><ele>407.0</ele><time>2026-04-19T14:42:11.46Z</time></trkpt><trkpt lat="43.4452124" lon="11.3474014"><ele>407.0</ele><time>2026-04-19T14:42:30.47Z</time></trkpt><trkpt lat="43.4452665" lon="11.347457"><ele>407.0</ele><time>2026-04-19T14:42:41.471Z</time></trkpt><trkpt lat="43.4452702" lon="11.347356"><ele>406.99999999999994</ele><time>2026-04-19T14:43:20.513Z</time></trkpt><trkpt lat="43.4451895" lon="11.3473602"><ele>407.0</ele><time>2026-04-19T14:43:46.506Z</time></trkpt><trkpt lat="43.4450882" lon="11.3473397"><ele>406.99999999999994</ele><time>2026-04-19T14:44:03.51Z</time></trkpt><trkpt lat="43.4450226" lon="11.3473562"><ele>407.0</ele><time>2026-04-19T14:44:04.527Z</time></trkpt><trkpt lat="43.4449609" lon="11.3473841"><ele>407.0</ele><time>2026-04-19T14:44:05.514Z</time></trkpt><trkpt lat="43.444843" lon="11.3474105"><ele>407.0</ele><time>2026-04-19T14:44:07.522Z</time></trkpt><trkpt lat="43.4447485" lon="11.3473835"><ele>406.99999999999994</ele><time>2026-04-19T14:44:10.52Z</time></trkpt><trkpt lat="43.4446611" lon="11.3473371"><ele>407.0</ele><time>2026-04-19T14:44:12.523Z</time></trkpt><trkpt lat="43.4445986" lon="11.3473206"><ele>406.99999999999994</ele><time>2026-04-19T14:45:45.543Z</time></trkpt><trkpt lat="43.4445207" lon="11.3472913"><ele>407.0</ele><time>2026-04-19T14:45:56.531Z</time></trkpt><trkpt lat="43.4445866" lon="11.3473316"><ele>407.0</ele><time>2026-04-19T14:50:13.561Z</time></trkpt><trkpt lat="43.4446658" lon="11.3473453"><ele>407.0</ele><time>2026-04-19T14:50:36.556Z</time></trkpt><trkpt lat="43.4447297" lon="11.3473489"><ele>406.99999999999994</ele><time>2026-04-19T14:50:38.546Z</time></trkpt><trkpt lat="43.4448071" lon="11.3473851"><ele>407.0</ele><time>2026-04-19T14:50:41.553Z</time></trkpt><trkpt lat="43.4448975" lon="11.3473821"><ele>407.00000000000006</ele><time>2026-04-19T14:50:44.553Z</time></trkpt><trkpt lat="43.4449759" lon="11.3473764"><ele>407.0</ele><time>2026-04-19T14:50:47.553Z</time></trkpt><trkpt lat="43.4450443" lon="11.3473903"><ele>407.0</ele><time>2026-04-19T14:50:50.553Z</time></trkpt><trkpt lat="43.4451182" lon="11.3474227"><ele>407.0</ele><time>2026-04-19T14:50:53.557Z</time></trkpt><trkpt lat="43.4451853" lon="11.3474676"><ele>407.0</ele><time>2026-04-19T14:51:37.554Z</time></trkpt><trkpt lat="43.4452486" lon="11.347466"><ele>407.00000000000006</ele><time>2026-04-19T14:51:40.558Z</time></trkpt><trkpt lat="43.4453141" lon="11.3474216"><ele>407.0</ele><time>2026-04-19T14:51:44.563Z</time></trkpt><trkpt lat="43.4453785" lon="11.3474509"><ele>406.99999999999994</ele><time>2026-04-19T14:52:10.555Z</time></trkpt><trkpt lat="43.4454166" lon="11.3475445"><ele>407.0</ele><time>2026-04-19T14:52:16.557Z</time></trkpt><trkpt lat="43.445457" lon="11.3476359"><ele>407.0</ele><time>2026-04-19T14:52:20.549Z</time></trkpt><trkpt lat="43.4454917" lon="11.3477093"><ele>407.0</ele><time>2026-04-19T14:52:23.549Z</time></trkpt><trkpt lat="43.445565" lon="11.3477852"><ele>406.99999999999994</ele><time>2026-04-19T14:53:40.555Z</time></trkpt><trkpt lat="43.4456476" lon="11.3478194"><ele>407.0</ele><time>2026-04-19T14:53:43.556Z</time></trkpt><trkpt lat="43.4456928" lon="11.3478941"><ele>405.28571428571433</ele><time>2026-04-19T14:53:49.565Z</time></trkpt><trkpt lat="43.4457272" lon="11.34797"><ele>403.57142857142856</ele><time>2026-04-19T14:53:57.568Z</time></trkpt><trkpt lat="43.4457164" lon="11.3480688"><ele>401.8571428571429</ele><time>2026-04-19T14:54:05.555Z</time></trkpt><trkpt lat="43.4457087" lon="11.3481689"><ele>400.14285714285717</ele><time>2026-04-19T14:54:07.554Z</time></trkpt><trkpt lat="43.4457122" lon="11.3482632"><ele>398.42857142857144</ele><time>2026-04-19T14:54:09.539Z</time></trkpt><trkpt lat="43.4457318" lon="11.3483824"><ele>396.7142857142857</ele><time>2026-04-19T14:54:11.549Z</time></trkpt><trkpt lat="43.4457227" lon="11.3484862"><ele>395.0</ele><time>2026-04-19T14:54:13.542Z</time></trkpt><trkpt lat="43.4457169" lon="11.348609"><ele>393.4</ele><time>2026-04-19T14:54:15.558Z</time></trkpt><trkpt lat="43.4457164" lon="11.3487482"><ele>391.8</ele><time>2026-04-19T14:54:17.556Z</time></trkpt><trkpt lat="43.4457297" lon="11.3488784"><ele>390.20000000000005</ele><time>2026-04-19T14:54:19.549Z</time></trkpt><trkpt lat="43.4457437" lon="11.3489988"><ele>388.6</ele><time>2026-04-19T14:54:21.549Z</time></trkpt><trkpt lat="43.4457555" lon="11.3491337"><ele>387.0</ele><time>2026-04-19T14:54:23.55Z</time></trkpt><trkpt lat="43.4457514" lon="11.3492332"><ele>385.5</ele><time>2026-04-19T14:54:25.55Z</time></trkpt><trkpt lat="43.4457494" lon="11.3493256"><ele>384.0</ele><time>2026-04-19T14:54:28.554Z</time></trkpt><trkpt lat="43.4457378" lon="11.3494419"><ele>382.5</ele><time>2026-04-19T14:54:30.549Z</time></trkpt><trkpt lat="43.4457224" lon="11.3495464"><ele>381.0</ele><time>2026-04-19T14:54:33.555Z</time></trkpt><trkpt lat="43.4457093" lon="11.3496624"><ele>379.5</ele><time>2026-04-19T14:54:36.558Z</time></trkpt><trkpt lat="43.4456885" lon="11.3497618"><ele>378.0</ele><time>2026-04-19T14:54:38.546Z</time></trkpt><trkpt lat="43.4456691" lon="11.3498637"><ele>376.2</ele><time>2026-04-19T14:54:40.551Z</time></trkpt><trkpt lat="43.4456309" lon="11.3499429"><ele>374.4</ele><time>2026-04-19T14:54:42.558Z</time></trkpt><trkpt lat="43.4456173" lon="11.3500803"><ele>372.59999999999997</ele><time>2026-04-19T14:54:44.555Z</time></trkpt><trkpt lat="43.445619" lon="11.3502414"><ele>370.79999999999995</ele><time>2026-04-19T14:54:46.544Z</time></trkpt><trkpt lat="43.4456426" lon="11.3503453"><ele>369.0</ele><time>2026-04-19T14:54:48.562Z</time></trkpt><trkpt lat="43.4457047" lon="11.3504647"><ele>369.0</ele><time>2026-04-19T14:54:55.57Z</time></trkpt><trkpt lat="43.4457539" lon="11.3505339"><ele>369.0</ele><time>2026-04-19T14:54:58.569Z</time></trkpt><trkpt lat="43.4457954" lon="11.3506045"><ele>369.0</ele><time>2026-04-19T14:55:00.56Z</time></trkpt><trkpt lat="43.4458127" lon="11.3507186"><ele>369.0</ele><time>2026-04-19T14:55:02.559Z</time></trkpt><trkpt lat="43.44582" lon="11.3508427"><ele>369.0</ele><time>2026-04-19T14:55:05.563Z</time></trkpt><trkpt lat="43.4458684" lon="11.3509248"><ele>369.0</ele><time>2026-04-19T14:55:08.559Z</time></trkpt><trkpt lat="43.4459231" lon="11.3509882"><ele>367.2857142857143</ele><time>2026-04-19T14:55:12.57Z</time></trkpt><trkpt lat="43.4459905" lon="11.3510406"><ele>365.57142857142856</ele><time>2026-04-19T14:55:15.569Z</time></trkpt><trkpt lat="43.4460475" lon="11.3510833"><ele>363.8571428571429</ele><time>2026-04-19T14:55:17.564Z</time></trkpt><trkpt lat="43.4460706" lon="11.3511652"><ele>362.1428571428571</ele><time>2026-04-19T14:55:19.561Z</time></trkpt><trkpt lat="43.4460662" lon="11.3512629"><ele>360.42857142857144</ele><time>2026-04-19T14:55:21.566Z</time></trkpt><trkpt lat="43.4460493" lon="11.3513861"><ele>358.7142857142857</ele><time>2026-04-19T14:55:23.563Z</time></trkpt><trkpt lat="43.4460087" lon="11.3514731"><ele>357.0</ele><time>2026-04-19T14:55:25.574Z</time></trkpt><trkpt lat="43.4459566" lon="11.351576"><ele>354.6666666666667</ele><time>2026-04-19T14:55:27.57Z</time></trkpt><trkpt lat="43.4458977" lon="11.3516748"><ele>352.3333333333333</ele><time>2026-04-19T14:55:29.567Z</time></trkpt><trkpt lat="43.4458598" lon="11.3517461"><ele>350.0</ele><time>2026-04-19T14:55:30.552Z</time></trkpt><trkpt lat="43.4458065" lon="11.3518619"><ele>347.66666666666663</ele><time>2026-04-19T14:55:32.558Z</time></trkpt><trkpt lat="43.4457542" lon="11.3519245"><ele>345.3333333333333</ele><time>2026-04-19T14:55:34.57Z</time></trkpt><trkpt lat="43.4456701" lon="11.3519668"><ele>343.0</ele><time>2026-04-19T14:55:37.574Z</time></trkpt><trkpt lat="43.4455821" lon="11.3519848"><ele>343.0</ele><time>2026-04-19T14:55:41.562Z</time></trkpt><trkpt lat="43.445515" lon="11.3519691"><ele>343.0</ele><time>2026-04-19T14:55:48.572Z</time></trkpt><trkpt lat="43.4454506" lon="11.3519994"><ele>343.0</ele><time>2026-04-19T14:55:51.563Z</time></trkpt><trkpt lat="43.4454352" lon="11.3520906"><ele>343.0</ele><time>2026-04-19T14:55:55.547Z</time></trkpt><trkpt lat="43.4454243" lon="11.352176"><ele>343.0</ele><time>2026-04-19T14:55:58.567Z</time></trkpt><trkpt lat="43.4454044" lon="11.3522713"><ele>343.0</ele><time>2026-04-19T14:56:02.552Z</time></trkpt><trkpt lat="43.4453492" lon="11.3523207"><ele>343.0</ele><time>2026-04-19T14:57:01.566Z</time></trkpt><trkpt lat="43.4452831" lon="11.3523527"><ele>341.5</ele><time>2026-04-19T14:57:04.564Z</time></trkpt><trkpt lat="43.445233" lon="11.3524054"><ele>340.0</ele><time>2026-04-19T14:57:07.556Z</time></trkpt><trkpt lat="43.4451791" lon="11.3525036"><ele>338.5</ele><time>2026-04-19T14:57:10.562Z</time></trkpt><trkpt lat="43.4451413" lon="11.3525886"><ele>337.0</ele><time>2026-04-19T14:57:12.561Z</time></trkpt><trkpt lat="43.4450954" lon="11.352695"><ele>335.5</ele><time>2026-04-19T14:57:14.562Z</time></trkpt><trkpt lat="43.4450574" lon="11.3528433"><ele>334.0</ele><time>2026-04-19T14:57:16.558Z</time></trkpt><trkpt lat="43.4450305" lon="11.352961"><ele>333.0</ele><time>2026-04-19T14:57:18.548Z</time></trkpt><trkpt lat="43.4450002" lon="11.3530448"><ele>332.0</ele><time>2026-04-19T14:57:20.565Z</time></trkpt><trkpt lat="43.4449465" lon="11.3531364"><ele>331.0</ele><time>2026-04-19T14:57:23.557Z</time></trkpt><trkpt lat="43.4449201" lon="11.3532357"><ele>330.0</ele><time>2026-04-19T14:57:25.562Z</time></trkpt><trkpt lat="43.4448947" lon="11.3533278"><ele>329.0</ele><time>2026-04-19T14:58:09.542Z</time></trkpt><trkpt lat="43.4448552" lon="11.3533955"><ele>328.0</ele><time>2026-04-19T14:58:18.552Z</time></trkpt><trkpt lat="43.4448992" lon="11.3534851"><ele>327.0</ele><time>2026-04-19T15:00:38.546Z</time></trkpt><trkpt lat="43.4449844" lon="11.3534581"><ele>327.0</ele><time>2026-04-19T15:00:43.553Z</time></trkpt><trkpt lat="43.4450585" lon="11.3533708"><ele>327.0</ele><time>2026-04-19T15:00:46.565Z</time></trkpt><trkpt lat="43.4451265" lon="11.3532934"><ele>327.0</ele><time>2026-04-19T15:00:48.547Z</time></trkpt><trkpt lat="43.4452152" lon="11.3532188"><ele>327.0</ele><time>2026-04-19T15:00:50.555Z</time></trkpt><trkpt lat="43.4452886" lon="11.3531489"><ele>327.0</ele><time>2026-04-19T15:00:52.557Z</time></trkpt><trkpt lat="43.4453594" lon="11.3531002"><ele>327.0</ele><time>2026-04-19T15:00:55.553Z</time></trkpt><trkpt lat="43.4454381" lon="11.3530714"><ele>327.0</ele><time>2026-04-19T15:01:04.55Z</time></trkpt><trkpt lat="43.4455645" lon="11.3530041"><ele>327.0</ele><time>2026-04-19T15:01:06.546Z</time></trkpt><trkpt lat="43.445646" lon="11.3529475"><ele>327.0</ele><time>2026-04-19T15:01:07.545Z</time></trkpt><trkpt lat="43.4457285" lon="11.3528966"><ele>327.0</ele><time>2026-04-19T15:01:08.537Z</time></trkpt><trkpt lat="43.445812" lon="11.3528344"><ele>327.8</ele><time>2026-04-19T15:01:09.539Z</time></trkpt><trkpt lat="43.4459017" lon="11.3527774"><ele>328.6</ele><time>2026-04-19T15:01:10.539Z</time></trkpt><trkpt lat="43.4459939" lon="11.3527201"><ele>329.40000000000003</ele><time>2026-04-19T15:01:11.537Z</time></trkpt><trkpt lat="43.4460837" lon="11.3526503"><ele>330.20000000000005</ele><time>2026-04-19T15:01:12.543Z</time></trkpt><trkpt lat="43.446181" lon="11.352594"><ele>331.0</ele><time>2026-04-19T15:01:13.55Z</time></trkpt><trkpt lat="43.4462789" lon="11.3525226"><ele>331.6</ele><time>2026-04-19T15:01:14.541Z</time></trkpt><trkpt lat="43.4463743" lon="11.3524554"><ele>332.20000000000005</ele><time>2026-04-19T15:01:15.545Z</time></trkpt><trkpt lat="43.4464624" lon="11.3523855"><ele>332.79999999999995</ele><time>2026-04-19T15:01:16.546Z</time></trkpt><trkpt lat="43.4465568" lon="11.3523063"><ele>333.4</ele><time>2026-04-19T15:01:17.54Z</time></trkpt><trkpt lat="43.4466489" lon="11.3522198"><ele>334.0</ele><time>2026-04-19T15:01:18.548Z</time></trkpt><trkpt lat="43.4467457" lon="11.3521286"><ele>334.0</ele><time>2026-04-19T15:01:19.542Z</time></trkpt><trkpt lat="43.4468395" lon="11.3520349"><ele>334.0</ele><time>2026-04-19T15:01:20.549Z</time></trkpt><trkpt lat="43.446934" lon="11.3519345"><ele>334.0</ele><time>2026-04-19T15:01:21.541Z</time></trkpt><trkpt lat="43.4470314" lon="11.3518339"><ele>334.0</ele><time>2026-04-19T15:01:22.554Z</time></trkpt><trkpt lat="43.4471288" lon="11.351737"><ele>334.75</ele><time>2026-04-19T15:01:23.542Z</time></trkpt><trkpt lat="43.4472278" lon="11.3516457"><ele>335.5</ele><time>2026-04-19T15:01:24.547Z</time></trkpt><trkpt lat="43.4473287" lon="11.3515577"><ele>336.25</ele><time>2026-04-19T15:01:25.555Z</time></trkpt><trkpt lat="43.4474322" lon="11.3514831"><ele>337.0</ele><time>2026-04-19T15:01:26.545Z</time></trkpt><trkpt lat="43.4475404" lon="11.3514168"><ele>337.25</ele><time>2026-04-19T15:01:27.554Z</time></trkpt><trkpt lat="43.4476484" lon="11.3513403"><ele>337.5</ele><time>2026-04-19T15:01:28.551Z</time></trkpt><trkpt lat="43.447761" lon="11.3512672"><ele>337.75</ele><time>2026-04-19T15:01:29.547Z</time></trkpt><trkpt lat="43.4478711" lon="11.3511823"><ele>338.0</ele><time>2026-04-19T15:01:30.556Z</time></trkpt><trkpt lat="43.4479893" lon="11.3510893"><ele>338.0</ele><time>2026-04-19T15:01:31.549Z</time></trkpt><trkpt lat="43.4481095" lon="11.3510002"><ele>338.0</ele><time>2026-04-19T15:01:32.555Z</time></trkpt><trkpt lat="43.4482208" lon="11.3509217"><ele>338.0</ele><time>2026-04-19T15:01:33.546Z</time></trkpt><trkpt lat="43.448319" lon="11.3508627"><ele>338.0</ele><time>2026-04-19T15:01:34.554Z</time></trkpt><trkpt lat="43.448407" lon="11.3508037"><ele>338.0</ele><time>2026-04-19T15:01:35.546Z</time></trkpt><trkpt lat="43.4484888" lon="11.3507308"><ele>338.0</ele><time>2026-04-19T15:01:36.551Z</time></trkpt><trkpt lat="43.4485554" lon="11.3506315"><ele>338.0</ele><time>2026-04-19T15:01:37.553Z</time></trkpt><trkpt lat="43.4486227" lon="11.3505115"><ele>338.0</ele><time>2026-04-19T15:01:38.555Z</time></trkpt><trkpt lat="43.4486943" lon="11.350383"><ele>338.0</ele><time>2026-04-19T15:01:39.558Z</time></trkpt><trkpt lat="43.4487768" lon="11.3502578"><ele>338.75</ele><time>2026-04-19T15:01:40.552Z</time></trkpt><trkpt lat="43.448877" lon="11.3501503"><ele>339.5</ele><time>2026-04-19T15:01:41.558Z</time></trkpt><trkpt lat="43.4489845" lon="11.3500502"><ele>340.25</ele><time>2026-04-19T15:01:42.563Z</time></trkpt><trkpt lat="43.4490905" lon="11.3499467"><ele>341.0</ele><time>2026-04-19T15:01:43.562Z</time></trkpt><trkpt lat="43.4491966" lon="11.3498285"><ele>340.5</ele><time>2026-04-19T15:01:44.554Z</time></trkpt><trkpt lat="43.4493021" lon="11.3497067"><ele>340.0</ele><time>2026-04-19T15:01:45.554Z</time></trkpt><trkpt lat="43.4494053" lon="11.3495773"><ele>339.5</ele><time>2026-04-19T15:01:46.553Z</time></trkpt><trkpt lat="43.4495064" lon="11.3494412"><ele>339.0</ele><time>2026-04-19T15:01:47.552Z</time></trkpt><trkpt lat="43.4496082" lon="11.3493012"><ele>339.75</ele><time>2026-04-19T15:01:48.562Z</time></trkpt><trkpt lat="43.4497058" lon="11.3491653"><ele>340.5</ele><time>2026-04-19T15:01:49.553Z</time></trkpt><trkpt lat="43.4497962" lon="11.3490211"><ele>341.25</ele><time>2026-04-19T15:01:50.553Z</time></trkpt><trkpt lat="43.4498667" lon="11.3488716"><ele>342.0</ele><time>2026-04-19T15:01:51.548Z</time></trkpt><trkpt lat="43.4499366" lon="11.3487582"><ele>342.0</ele><time>2026-04-19T15:01:52.553Z</time></trkpt><trkpt lat="43.4500026" lon="11.3486516"><ele>342.0</ele><time>2026-04-19T15:01:53.548Z</time></trkpt><trkpt lat="43.4500661" lon="11.348511"><ele>342.0</ele><time>2026-04-19T15:01:54.558Z</time></trkpt><trkpt lat="43.450119" lon="11.3483691"><ele>342.0</ele><time>2026-04-19T15:01:55.55Z</time></trkpt><trkpt lat="43.4501808" lon="11.348212"><ele>342.0</ele><time>2026-04-19T15:01:56.551Z</time></trkpt><trkpt lat="43.4502588" lon="11.3480894"><ele>342.0</ele><time>2026-04-19T15:01:57.564Z</time></trkpt><trkpt lat="43.4503438" lon="11.3479646"><ele>342.0</ele><time>2026-04-19T15:01:58.551Z</time></trkpt><trkpt lat="43.45044" lon="11.347848"><ele>342.0</ele><time>2026-04-19T15:01:59.552Z</time></trkpt><trkpt lat="43.4505375" lon="11.3477343"><ele>343.25</ele><time>2026-04-19T15:02:00.55Z</time></trkpt><trkpt lat="43.450642" lon="11.3476239"><ele>344.5</ele><time>2026-04-19T15:02:01.545Z</time></trkpt><trkpt lat="43.4507559" lon="11.3475161"><ele>345.75</ele><time>2026-04-19T15:02:02.549Z</time></trkpt><trkpt lat="43.4508631" lon="11.3474039"><ele>347.0</ele><time>2026-04-19T15:02:03.548Z</time></trkpt><trkpt lat="43.4509845" lon="11.3473081"><ele>347.0</ele><time>2026-04-19T15:02:04.554Z</time></trkpt><trkpt lat="43.4510583" lon="11.3472221"><ele>347.0</ele><time>2026-04-19T15:02:05.537Z</time></trkpt><trkpt lat="43.451147" lon="11.3471114"><ele>347.0</ele><time>2026-04-19T15:02:06.553Z</time></trkpt><trkpt lat="43.4512177" lon="11.3469622"><ele>347.0</ele><time>2026-04-19T15:02:07.545Z</time></trkpt><trkpt lat="43.4512769" lon="11.3468073"><ele>348.75</ele><time>2026-04-19T15:02:08.554Z</time></trkpt><trkpt lat="43.4513371" lon="11.3466248"><ele>350.5</ele><time>2026-04-19T15:02:09.552Z</time></trkpt><trkpt lat="43.4514122" lon="11.3464813"><ele>352.25</ele><time>2026-04-19T15:02:10.551Z</time></trkpt><trkpt lat="43.4514947" lon="11.3463549"><ele>354.0</ele><time>2026-04-19T15:02:11.553Z</time></trkpt><trkpt lat="43.4515638" lon="11.3462116"><ele>354.0</ele><time>2026-04-19T15:02:12.553Z</time></trkpt><trkpt lat="43.4516137" lon="11.3460721"><ele>354.0</ele><time>2026-04-19T15:02:13.552Z</time></trkpt><trkpt lat="43.4516663" lon="11.3459438"><ele>354.0</ele><time>2026-04-19T15:02:14.551Z</time></trkpt><trkpt lat="43.4517211" lon="11.3458286"><ele>354.0</ele><time>2026-04-19T15:02:15.547Z</time></trkpt><trkpt lat="43.4517937" lon="11.3457289"><ele>354.0</ele><time>2026-04-19T15:02:16.549Z</time></trkpt><trkpt lat="43.4518777" lon="11.3456649"><ele>354.0</ele><time>2026-04-19T15:02:17.551Z</time></trkpt><trkpt lat="43.4519778" lon="11.3456064"><ele>354.0</ele><time>2026-04-19T15:02:18.551Z</time></trkpt><trkpt lat="43.4520876" lon="11.3455582"><ele>354.0</ele><time>2026-04-19T15:02:19.552Z</time></trkpt><trkpt lat="43.4521945" lon="11.3455033"><ele>354.0</ele><time>2026-04-19T15:02:20.551Z</time></trkpt><trkpt lat="43.4522987" lon="11.345428"><ele>357.0</ele><time>2026-04-19T15:02:21.548Z</time></trkpt><trkpt lat="43.4524027" lon="11.3453671"><ele>360.0</ele><time>2026-04-19T15:02:22.548Z</time></trkpt><trkpt lat="43.4525005" lon="11.3453215"><ele>363.0</ele><time>2026-04-19T15:02:23.554Z</time></trkpt><trkpt lat="43.4525786" lon="11.3452968"><ele>366.0</ele><time>2026-04-19T15:02:24.551Z</time></trkpt><trkpt lat="43.4526432" lon="11.3452627"><ele>369.0</ele><time>2026-04-19T15:02:25.554Z</time></trkpt><trkpt lat="43.4527442" lon="11.3451919"><ele>369.0</ele><time>2026-04-19T15:02:27.566Z</time></trkpt><trkpt lat="43.4527416" lon="11.3450427"><ele>369.0</ele><time>2026-04-19T15:02:29.566Z</time></trkpt><trkpt lat="43.4526935" lon="11.3449793"><ele>369.0</ele><time>2026-04-19T15:02:30.553Z</time></trkpt><trkpt lat="43.4526386" lon="11.3449259"><ele>369.0</ele><time>2026-04-19T15:02:31.554Z</time></trkpt><trkpt lat="43.4525531" lon="11.3448589"><ele>369.0</ele><time>2026-04-19T15:02:32.563Z</time></trkpt><trkpt lat="43.4524678" lon="11.3447691"><ele>369.0</ele><time>2026-04-19T15:02:33.578Z</time></trkpt><trkpt lat="43.452383" lon="11.3446727"><ele>371.0</ele><time>2026-04-19T15:02:34.571Z</time></trkpt><trkpt lat="43.4523127" lon="11.344577"><ele>373.0</ele><time>2026-04-19T15:02:35.565Z</time></trkpt><trkpt lat="43.4522596" lon="11.3444831"><ele>375.0</ele><time>2026-04-19T15:02:36.575Z</time></trkpt><trkpt lat="43.4522209" lon="11.3443915"><ele>377.0</ele><time>2026-04-19T15:02:37.566Z</time></trkpt><trkpt lat="43.4521897" lon="11.3443074"><ele>379.0</ele><time>2026-04-19T15:02:38.572Z</time></trkpt><trkpt lat="43.4521859" lon="11.3442075"><ele>381.0</ele><time>2026-04-19T15:02:39.572Z</time></trkpt><trkpt lat="43.452212" lon="11.3441237"><ele>381.0</ele><time>2026-04-19T15:02:40.574Z</time></trkpt><trkpt lat="43.4523115" lon="11.3440288"><ele>381.0</ele><time>2026-04-19T15:02:42.572Z</time></trkpt><trkpt lat="43.4523949" lon="11.344009"><ele>381.0</ele><time>2026-04-19T15:02:43.563Z</time></trkpt><trkpt lat="43.4524876" lon="11.343988"><ele>381.0</ele><time>2026-04-19T15:02:44.571Z</time></trkpt><trkpt lat="43.4525761" lon="11.3439628"><ele>381.0</ele><time>2026-04-19T15:02:45.558Z</time></trkpt><trkpt lat="43.4526559" lon="11.3438965"><ele>383.0</ele><time>2026-04-19T15:02:46.573Z</time></trkpt><trkpt lat="43.4527082" lon="11.343817"><ele>385.0</ele><time>2026-04-19T15:02:47.575Z</time></trkpt><trkpt lat="43.4527439" lon="11.3437193"><ele>387.0</ele><time>2026-04-19T15:02:48.558Z</time></trkpt><trkpt lat="43.4527768" lon="11.3435807"><ele>389.0</ele><time>2026-04-19T15:02:49.555Z</time></trkpt><trkpt lat="43.4527933" lon="11.3434236"><ele>391.0</ele><time>2026-04-19T15:02:50.567Z</time></trkpt><trkpt lat="43.4528352" lon="11.3432689"><ele>391.0</ele><time>2026-04-19T15:02:51.56Z</time></trkpt><trkpt lat="43.4528893" lon="11.3431322"><ele>391.0</ele><time>2026-04-19T15:02:52.549Z</time></trkpt><trkpt lat="43.4529517" lon="11.3430043"><ele>391.0</ele><time>2026-04-19T15:02:53.545Z</time></trkpt><trkpt lat="43.4530081" lon="11.3428734"><ele>391.0</ele><time>2026-04-19T15:02:54.548Z</time></trkpt><trkpt lat="43.453073" lon="11.3427461"><ele>391.0</ele><time>2026-04-19T15:02:55.561Z</time></trkpt><trkpt lat="43.4531409" lon="11.3426108"><ele>393.6</ele><time>2026-04-19T15:02:56.557Z</time></trkpt><trkpt lat="43.4532003" lon="11.3424807"><ele>396.20000000000005</ele><time>2026-04-19T15:02:57.558Z</time></trkpt><trkpt lat="43.4532512" lon="11.3423413"><ele>398.79999999999995</ele><time>2026-04-19T15:02:58.554Z</time></trkpt><trkpt lat="43.4533085" lon="11.3422132"><ele>401.4</ele><time>2026-04-19T15:02:59.547Z</time></trkpt><trkpt lat="43.4533561" lon="11.3420773"><ele>404.0</ele><time>2026-04-19T15:03:00.555Z</time></trkpt><trkpt lat="43.4534101" lon="11.3419639"><ele>405.4</ele><time>2026-04-19T15:03:01.55Z</time></trkpt><trkpt lat="43.4534658" lon="11.3418518"><ele>406.79999999999995</ele><time>2026-04-19T15:03:02.556Z</time></trkpt><trkpt lat="43.4535252" lon="11.3417406"><ele>408.20000000000005</ele><time>2026-04-19T15:03:03.553Z</time></trkpt><trkpt lat="43.4535808" lon="11.341613"><ele>409.6</ele><time>2026-04-19T15:03:04.548Z</time></trkpt><trkpt lat="43.4536347" lon="11.3414785"><ele>411.0</ele><time>2026-04-19T15:03:05.55Z</time></trkpt><trkpt lat="43.4537016" lon="11.3413672"><ele>411.0</ele><time>2026-04-19T15:03:06.557Z</time></trkpt><trkpt lat="43.4537612" lon="11.3412414"><ele>411.0</ele><time>2026-04-19T15:03:07.562Z</time></trkpt><trkpt lat="43.4538139" lon="11.3410945"><ele>411.0</ele><time>2026-04-19T15:03:08.558Z</time></trkpt><trkpt lat="43.4538745" lon="11.3409448"><ele>411.0</ele><time>2026-04-19T15:03:09.566Z</time></trkpt><trkpt lat="43.4539322" lon="11.3408137"><ele>414.25</ele><time>2026-04-19T15:03:10.558Z</time></trkpt><trkpt lat="43.4539899" lon="11.340673"><ele>417.5</ele><time>2026-04-19T15:03:11.567Z</time></trkpt><trkpt lat="43.4540574" lon="11.3405353"><ele>420.75</ele><time>2026-04-19T15:03:12.547Z</time></trkpt><trkpt lat="43.4541322" lon="11.3404031"><ele>424.0</ele><time>2026-04-19T15:03:13.554Z</time></trkpt><trkpt lat="43.4542161" lon="11.34029"><ele>424.5</ele><time>2026-04-19T15:03:14.563Z</time></trkpt><trkpt lat="43.4542982" lon="11.3401748"><ele>425.0</ele><time>2026-04-19T15:03:15.558Z</time></trkpt><trkpt lat="43.4543791" lon="11.3400587"><ele>425.5</ele><time>2026-04-19T15:03:16.561Z</time></trkpt><trkpt lat="43.4544583" lon="11.3399503"><ele>426.0</ele><time>2026-04-19T15:03:17.565Z</time></trkpt><trkpt lat="43.4545427" lon="11.3398371"><ele>427.75</ele><time>2026-04-19T15:03:18.563Z</time></trkpt><trkpt lat="43.4546293" lon="11.3397293"><ele>429.5</ele><time>2026-04-19T15:03:19.566Z</time></trkpt><trkpt lat="43.4547152" lon="11.3396159"><ele>431.25</ele><time>2026-04-19T15:03:20.564Z</time></trkpt><trkpt lat="43.4548062" lon="11.3395031"><ele>433.0</ele><time>2026-04-19T15:03:21.565Z</time></trkpt><trkpt lat="43.4548933" lon="11.3393772"><ele>434.75</ele><time>2026-04-19T15:03:22.563Z</time></trkpt><trkpt lat="43.4549844" lon="11.3392343"><ele>436.5</ele><time>2026-04-19T15:03:23.563Z</time></trkpt><trkpt lat="43.4550814" lon="11.3390806"><ele>438.25</ele><time>2026-04-19T15:03:24.566Z</time></trkpt><trkpt lat="43.4551825" lon="11.3389038"><ele>440.0</ele><time>2026-04-19T15:03:25.564Z</time></trkpt><trkpt lat="43.4552586" lon="11.3387606"><ele>440.5</ele><time>2026-04-19T15:03:26.57Z</time></trkpt><trkpt lat="43.4553546" lon="11.3386017"><ele>441.0</ele><time>2026-04-19T15:03:27.57Z</time></trkpt><trkpt lat="43.455442" lon="11.338444"><ele>441.5</ele><time>2026-04-19T15:03:28.566Z</time></trkpt><trkpt lat="43.4555072" lon="11.3383082"><ele>442.0</ele><time>2026-04-19T15:03:29.562Z</time></trkpt><trkpt lat="43.4555958" lon="11.3381771"><ele>446.75</ele><time>2026-04-19T15:03:30.558Z</time></trkpt><trkpt lat="43.4556899" lon="11.3380605"><ele>451.5</ele><time>2026-04-19T15:03:31.566Z</time></trkpt><trkpt lat="43.4557767" lon="11.3379345"><ele>456.25</ele><time>2026-04-19T15:03:32.558Z</time></trkpt><trkpt lat="43.455853" lon="11.337792"><ele>461.0</ele><time>2026-04-19T15:03:33.569Z</time></trkpt><trkpt lat="43.4559082" lon="11.3376332"><ele>461.25</ele><time>2026-04-19T15:03:34.563Z</time></trkpt><trkpt lat="43.4559711" lon="11.3374454"><ele>461.5</ele><time>2026-04-19T15:03:35.566Z</time></trkpt><trkpt lat="43.4560243" lon="11.3372773"><ele>461.75</ele><time>2026-04-19T15:03:36.556Z</time></trkpt><trkpt lat="43.4560681" lon="11.337149"><ele>462.0</ele><time>2026-04-19T15:03:37.573Z</time></trkpt><trkpt lat="43.4561344" lon="11.3370607"><ele>461.40000000000003</ele><time>2026-04-19T15:03:38.565Z</time></trkpt><trkpt lat="43.4562002" lon="11.3369644"><ele>460.80000000000007</ele><time>2026-04-19T15:03:39.556Z</time></trkpt><trkpt lat="43.4562453" lon="11.3368116"><ele>460.2</ele><time>2026-04-19T15:03:40.563Z</time></trkpt><trkpt lat="43.4562557" lon="11.3366398"><ele>459.6</ele><time>2026-04-19T15:03:41.554Z</time></trkpt><trkpt lat="43.4562514" lon="11.3364912"><ele>459.0</ele><time>2026-04-19T15:03:42.561Z</time></trkpt><trkpt lat="43.4562824" lon="11.3363041"><ele>461.0</ele><time>2026-04-19T15:03:43.555Z</time></trkpt><trkpt lat="43.4562697" lon="11.3361243"><ele>463.0</ele><time>2026-04-19T15:03:44.554Z</time></trkpt><trkpt lat="43.4562786" lon="11.3359513"><ele>465.0</ele><time>2026-04-19T15:03:45.555Z</time></trkpt><trkpt lat="43.4562837" lon="11.3357941"><ele>467.0</ele><time>2026-04-19T15:03:46.555Z</time></trkpt><trkpt lat="43.4562735" lon="11.3356686"><ele>467.0</ele><time>2026-04-19T15:03:47.557Z</time></trkpt><trkpt lat="43.4562514" lon="11.3355825"><ele>467.00000000000006</ele><time>2026-04-19T15:03:48.557Z</time></trkpt><trkpt lat="43.4561988" lon="11.3354978"><ele>467.00000000000006</ele><time>2026-04-19T15:03:49.551Z</time></trkpt><trkpt lat="43.4561293" lon="11.3353894"><ele>467.0</ele><time>2026-04-19T15:03:50.555Z</time></trkpt><trkpt lat="43.4560487" lon="11.3352743"><ele>467.0</ele><time>2026-04-19T15:03:51.561Z</time></trkpt><trkpt lat="43.4559759" lon="11.3351604"><ele>469.49999999999994</ele><time>2026-04-19T15:03:52.564Z</time></trkpt><trkpt lat="43.4559204" lon="11.3350493"><ele>472.0</ele><time>2026-04-19T15:03:53.559Z</time></trkpt><trkpt lat="43.4558801" lon="11.3349412"><ele>474.5</ele><time>2026-04-19T15:03:54.567Z</time></trkpt><trkpt lat="43.4558541" lon="11.3348478"><ele>477.0</ele><time>2026-04-19T15:03:55.559Z</time></trkpt><trkpt lat="43.4558698" lon="11.3347343"><ele>479.49999999999994</ele><time>2026-04-19T15:03:56.552Z</time></trkpt><trkpt lat="43.4558963" lon="11.3346082"><ele>482.0</ele><time>2026-04-19T15:03:57.572Z</time></trkpt><trkpt lat="43.4559447" lon="11.3344822"><ele>482.20000000000005</ele><time>2026-04-19T15:03:58.562Z</time></trkpt><trkpt lat="43.4559863" lon="11.3343407"><ele>482.40000000000003</ele><time>2026-04-19T15:03:59.548Z</time></trkpt><trkpt lat="43.456021" lon="11.3342014"><ele>482.59999999999997</ele><time>2026-04-19T15:04:00.551Z</time></trkpt><trkpt lat="43.4560527" lon="11.3340474"><ele>482.79999999999995</ele><time>2026-04-19T15:04:01.557Z</time></trkpt><trkpt lat="43.4560817" lon="11.3339114"><ele>483.0</ele><time>2026-04-19T15:04:02.556Z</time></trkpt><trkpt lat="43.4561071" lon="11.3337824"><ele>483.0</ele><time>2026-04-19T15:04:03.554Z</time></trkpt><trkpt lat="43.4561184" lon="11.3336742"><ele>483.0</ele><time>2026-04-19T15:04:04.553Z</time></trkpt><trkpt lat="43.4561308" lon="11.3335862"><ele>483.0</ele><time>2026-04-19T15:04:05.545Z</time></trkpt><trkpt lat="43.4561967" lon="11.3334399"><ele>483.0</ele><time>2026-04-19T15:04:07.55Z</time></trkpt><trkpt lat="43.4562546" lon="11.3333746"><ele>483.0</ele><time>2026-04-19T15:04:08.561Z</time></trkpt><trkpt lat="43.4563086" lon="11.3333105"><ele>483.0</ele><time>2026-04-19T15:04:09.558Z</time></trkpt><trkpt lat="43.4563378" lon="11.333224"><ele>484.0</ele><time>2026-04-19T15:04:10.561Z</time></trkpt><trkpt lat="43.4563434" lon="11.3330576"><ele>485.0</ele><time>2026-04-19T15:04:12.56Z</time></trkpt><trkpt lat="43.4562845" lon="11.3329329"><ele>486.0</ele><time>2026-04-19T15:04:13.558Z</time></trkpt><trkpt lat="43.4562048" lon="11.3327781"><ele>487.0</ele><time>2026-04-19T15:04:14.56Z</time></trkpt><trkpt lat="43.456127" lon="11.3326248"><ele>487.0</ele><time>2026-04-19T15:04:15.565Z</time></trkpt><trkpt lat="43.4560566" lon="11.3324701"><ele>487.00000000000006</ele><time>2026-04-19T15:04:16.556Z</time></trkpt><trkpt lat="43.4559926" lon="11.3323325"><ele>487.00000000000006</ele><time>2026-04-19T15:04:17.555Z</time></trkpt><trkpt lat="43.4559614" lon="11.3322022"><ele>487.0</ele><time>2026-04-19T15:04:18.558Z</time></trkpt><trkpt lat="43.4559433" lon="11.3320741"><ele>487.0</ele><time>2026-04-19T15:04:19.56Z</time></trkpt><trkpt lat="43.455925" lon="11.331964"><ele>487.6</ele><time>2026-04-19T15:04:20.559Z</time></trkpt><trkpt lat="43.4559147" lon="11.3318433"><ele>488.20000000000005</ele><time>2026-04-19T15:04:21.555Z</time></trkpt><trkpt lat="43.4558886" lon="11.3317262"><ele>488.8</ele><time>2026-04-19T15:04:22.564Z</time></trkpt><trkpt lat="43.4558619" lon="11.3315953"><ele>489.4</ele><time>2026-04-19T15:04:23.563Z</time></trkpt><trkpt lat="43.455829" lon="11.3314756"><ele>490.0</ele><time>2026-04-19T15:04:24.548Z</time></trkpt><trkpt lat="43.455793" lon="11.3313477"><ele>490.0</ele><time>2026-04-19T15:04:25.562Z</time></trkpt><trkpt lat="43.4557735" lon="11.3312078"><ele>490.0</ele><time>2026-04-19T15:04:26.558Z</time></trkpt><trkpt lat="43.4557539" lon="11.3310552"><ele>490.0</ele><time>2026-04-19T15:04:27.564Z</time></trkpt><trkpt lat="43.4557418" lon="11.3308845"><ele>490.0</ele><time>2026-04-19T15:04:28.562Z</time></trkpt><trkpt lat="43.4557415" lon="11.3307141"><ele>490.25</ele><time>2026-04-19T15:04:29.566Z</time></trkpt><trkpt lat="43.4557541" lon="11.3305486"><ele>490.5</ele><time>2026-04-19T15:04:30.556Z</time></trkpt><trkpt lat="43.4557627" lon="11.3303784"><ele>490.75</ele><time>2026-04-19T15:04:31.562Z</time></trkpt><trkpt lat="43.4557775" lon="11.3302345"><ele>491.0</ele><time>2026-04-19T15:04:32.556Z</time></trkpt><trkpt lat="43.4557861" lon="11.3300947"><ele>490.99999999999994</ele><time>2026-04-19T15:04:33.561Z</time></trkpt><trkpt lat="43.455806" lon="11.3299695"><ele>491.0</ele><time>2026-04-19T15:04:34.562Z</time></trkpt><trkpt lat="43.4558259" lon="11.3298494"><ele>491.0</ele><time>2026-04-19T15:04:35.564Z</time></trkpt><trkpt lat="43.4558487" lon="11.3297252"><ele>491.0</ele><time>2026-04-19T15:04:36.561Z</time></trkpt><trkpt lat="43.4558556" lon="11.3296129"><ele>490.99999999999994</ele><time>2026-04-19T15:04:37.566Z</time></trkpt><trkpt lat="43.4558418" lon="11.3295081"><ele>491.0</ele><time>2026-04-19T15:04:38.563Z</time></trkpt><trkpt lat="43.4558048" lon="11.3293943"><ele>489.75</ele><time>2026-04-19T15:04:39.572Z</time></trkpt><trkpt lat="43.4557399" lon="11.3292894"><ele>488.5</ele><time>2026-04-19T15:04:40.55Z</time></trkpt><trkpt lat="43.4556442" lon="11.3291718"><ele>487.25</ele><time>2026-04-19T15:04:41.555Z</time></trkpt><trkpt lat="43.4555645" lon="11.3290501"><ele>486.0</ele><time>2026-04-19T15:04:42.559Z</time></trkpt><trkpt lat="43.4555037" lon="11.3289257"><ele>484.0</ele><time>2026-04-19T15:04:43.552Z</time></trkpt><trkpt lat="43.4554679" lon="11.3287933"><ele>482.0</ele><time>2026-04-19T15:04:44.556Z</time></trkpt><trkpt lat="43.4554587" lon="11.3286571"><ele>480.0</ele><time>2026-04-19T15:04:45.557Z</time></trkpt><trkpt lat="43.4554633" lon="11.32851"><ele>478.0</ele><time>2026-04-19T15:04:46.554Z</time></trkpt><trkpt lat="43.4554767" lon="11.3283704"><ele>476.0</ele><time>2026-04-19T15:04:47.561Z</time></trkpt><trkpt lat="43.4554796" lon="11.3282435"><ele>476.0</ele><time>2026-04-19T15:04:48.56Z</time></trkpt><trkpt lat="43.4554827" lon="11.3281355"><ele>476.0</ele><time>2026-04-19T15:04:49.556Z</time></trkpt><trkpt lat="43.4555004" lon="11.3280126"><ele>476.0</ele><time>2026-04-19T15:04:50.558Z</time></trkpt><trkpt lat="43.4555286" lon="11.3278762"><ele>476.0</ele><time>2026-04-19T15:04:51.552Z</time></trkpt><trkpt lat="43.4555822" lon="11.327743"><ele>476.0</ele><time>2026-04-19T15:04:52.553Z</time></trkpt><trkpt lat="43.4556565" lon="11.3275763"><ele>476.25</ele><time>2026-04-19T15:04:53.558Z</time></trkpt><trkpt lat="43.4557325" lon="11.327409"><ele>476.5</ele><time>2026-04-19T15:04:54.564Z</time></trkpt><trkpt lat="43.4558091" lon="11.3272142"><ele>476.75</ele><time>2026-04-19T15:04:55.556Z</time></trkpt><trkpt lat="43.4558851" lon="11.3270577"><ele>477.0</ele><time>2026-04-19T15:04:56.556Z</time></trkpt><trkpt lat="43.4559751" lon="11.3268931"><ele>477.5</ele><time>2026-04-19T15:04:57.56Z</time></trkpt><trkpt lat="43.4560585" lon="11.3267368"><ele>478.0</ele><time>2026-04-19T15:04:58.558Z</time></trkpt><trkpt lat="43.4561303" lon="11.3266002"><ele>478.5</ele><time>2026-04-19T15:04:59.563Z</time></trkpt><trkpt lat="43.4561764" lon="11.3264661"><ele>479.0</ele><time>2026-04-19T15:05:00.559Z</time></trkpt><trkpt lat="43.4562132" lon="11.3262967"><ele>479.25</ele><time>2026-04-19T15:05:01.558Z</time></trkpt><trkpt lat="43.4562302" lon="11.3261338"><ele>479.5</ele><time>2026-04-19T15:05:02.563Z</time></trkpt><trkpt lat="43.4562477" lon="11.3259584"><ele>479.75</ele><time>2026-04-19T15:05:03.561Z</time></trkpt><trkpt lat="43.4562741" lon="11.3257673"><ele>480.0</ele><time>2026-04-19T15:05:04.562Z</time></trkpt><trkpt lat="43.4563071" lon="11.3255731"><ele>485.75</ele><time>2026-04-19T15:05:05.559Z</time></trkpt><trkpt lat="43.4563524" lon="11.3254038"><ele>491.5</ele><time>2026-04-19T15:05:06.559Z</time></trkpt><trkpt lat="43.4563724" lon="11.3252138"><ele>497.25</ele><time>2026-04-19T15:05:07.559Z</time></trkpt><trkpt lat="43.4564013" lon="11.325013"><ele>503.0</ele><time>2026-04-19T15:05:08.556Z</time></trkpt><trkpt lat="43.4564348" lon="11.3248336"><ele>506.25</ele><time>2026-04-19T15:05:09.555Z</time></trkpt><trkpt lat="43.4564468" lon="11.3246555"><ele>509.5</ele><time>2026-04-19T15:05:10.555Z</time></trkpt><trkpt lat="43.4564558" lon="11.3244694"><ele>512.75</ele><time>2026-04-19T15:05:11.555Z</time></trkpt><trkpt lat="43.4564714" lon="11.3243014"><ele>516.0</ele><time>2026-04-19T15:05:12.552Z</time></trkpt><trkpt lat="43.4564867" lon="11.3241231"><ele>516.0</ele><time>2026-04-19T15:05:13.561Z</time></trkpt><trkpt lat="43.4565085" lon="11.3239364"><ele>516.0</ele><time>2026-04-19T15:05:14.558Z</time></trkpt><trkpt lat="43.4565396" lon="11.3237464"><ele>516.0</ele><time>2026-04-19T15:05:15.551Z</time></trkpt><trkpt lat="43.4565594" lon="11.3235571"><ele>516.0</ele><time>2026-04-19T15:05:16.558Z</time></trkpt><trkpt lat="43.4565914" lon="11.3233697"><ele>518.75</ele><time>2026-04-19T15:05:17.556Z</time></trkpt><trkpt lat="43.456616" lon="11.3231938"><ele>521.5</ele><time>2026-04-19T15:05:18.562Z</time></trkpt><trkpt lat="43.4566239" lon="11.323"><ele>524.25</ele><time>2026-04-19T15:05:19.558Z</time></trkpt><trkpt lat="43.4566531" lon="11.3228248"><ele>527.0</ele><time>2026-04-19T15:05:20.55Z</time></trkpt><trkpt lat="43.4566678" lon="11.3226295"><ele>528.25</ele><time>2026-04-19T15:05:21.562Z</time></trkpt><trkpt lat="43.4567001" lon="11.322446"><ele>529.5</ele><time>2026-04-19T15:05:22.559Z</time></trkpt><trkpt lat="43.4567393" lon="11.3222565"><ele>530.75</ele><time>2026-04-19T15:05:23.561Z</time></trkpt><trkpt lat="43.4567965" lon="11.3220545"><ele>532.0</ele><time>2026-04-19T15:05:24.556Z</time></trkpt><trkpt lat="43.4568319" lon="11.3218831"><ele>532.75</ele><time>2026-04-19T15:05:25.556Z</time></trkpt><trkpt lat="43.4568628" lon="11.3217007"><ele>533.5</ele><time>2026-04-19T15:05:26.559Z</time></trkpt><trkpt lat="43.4569101" lon="11.3215267"><ele>534.25</ele><time>2026-04-19T15:05:27.553Z</time></trkpt><trkpt lat="43.4569485" lon="11.3213506"><ele>535.0</ele><time>2026-04-19T15:05:28.552Z</time></trkpt><trkpt lat="43.4569811" lon="11.3211703"><ele>536.5</ele><time>2026-04-19T15:05:29.554Z</time></trkpt><trkpt lat="43.4570078" lon="11.3210162"><ele>538.0</ele><time>2026-04-19T15:05:30.54Z</time></trkpt><trkpt lat="43.4570386" lon="11.3208359"><ele>539.5</ele><time>2026-04-19T15:05:31.537Z</time></trkpt><trkpt lat="43.4570635" lon="11.3206485"><ele>541.0</ele><time>2026-04-19T15:05:32.549Z</time></trkpt><trkpt lat="43.457057" lon="11.3204607"><ele>543.8</ele><time>2026-04-19T15:05:33.539Z</time></trkpt><trkpt lat="43.4570461" lon="11.3203156"><ele>546.6</ele><time>2026-04-19T15:05:34.55Z</time></trkpt><trkpt lat="43.4570321" lon="11.3201618"><ele>549.4</ele><time>2026-04-19T15:05:35.552Z</time></trkpt><trkpt lat="43.4570383" lon="11.3200153"><ele>552.2</ele><time>2026-04-19T15:05:36.555Z</time></trkpt><trkpt lat="43.4570496" lon="11.319906"><ele>555.0</ele><time>2026-04-19T15:05:37.555Z</time></trkpt><trkpt lat="43.4570919" lon="11.3198262"><ele>556.0</ele><time>2026-04-19T15:05:38.546Z</time></trkpt><trkpt lat="43.4571623" lon="11.3197296"><ele>557.0</ele><time>2026-04-19T15:05:39.544Z</time></trkpt><trkpt lat="43.4572453" lon="11.3196358"><ele>558.0</ele><time>2026-04-19T15:05:40.549Z</time></trkpt><trkpt lat="43.4573131" lon="11.3195257"><ele>559.0</ele><time>2026-04-19T15:05:41.559Z</time></trkpt><trkpt lat="43.4573665" lon="11.3193965"><ele>560.0</ele><time>2026-04-19T15:05:42.552Z</time></trkpt><trkpt lat="43.457405" lon="11.3192508"><ele>560.0</ele><time>2026-04-19T15:05:43.556Z</time></trkpt><trkpt lat="43.4574179" lon="11.3190682"><ele>560.0</ele><time>2026-04-19T15:05:44.558Z</time></trkpt><trkpt lat="43.4574294" lon="11.31887"><ele>560.0</ele><time>2026-04-19T15:05:45.562Z</time></trkpt><trkpt lat="43.4574366" lon="11.3186947"><ele>560.0</ele><time>2026-04-19T15:05:46.558Z</time></trkpt><trkpt lat="43.4574563" lon="11.3185274"><ele>560.8</ele><time>2026-04-19T15:05:47.547Z</time></trkpt><trkpt lat="43.45749" lon="11.3183784"><ele>561.6</ele><time>2026-04-19T15:05:48.554Z</time></trkpt><trkpt lat="43.4575312" lon="11.3182461"><ele>562.4</ele><time>2026-04-19T15:05:49.55Z</time></trkpt><trkpt lat="43.4575813" lon="11.3181222"><ele>563.2</ele><time>2026-04-19T15:05:50.56Z</time></trkpt><trkpt lat="43.4576257" lon="11.3180011"><ele>564.0</ele><time>2026-04-19T15:05:51.552Z</time></trkpt><trkpt lat="43.4576732" lon="11.3178873"><ele>564.8</ele><time>2026-04-19T15:05:52.558Z</time></trkpt><trkpt lat="43.4577287" lon="11.317757"><ele>565.5999999999999</ele><time>2026-04-19T15:05:53.556Z</time></trkpt><trkpt lat="43.4577912" lon="11.3176299"><ele>566.4</ele><time>2026-04-19T15:05:54.557Z</time></trkpt><trkpt lat="43.4578507" lon="11.3174908"><ele>567.1999999999999</ele><time>2026-04-19T15:05:55.555Z</time></trkpt><trkpt lat="43.4579255" lon="11.31738"><ele>568.0</ele><time>2026-04-19T15:05:56.555Z</time></trkpt><trkpt lat="43.4580021" lon="11.3172566"><ele>566.0</ele><time>2026-04-19T15:05:57.545Z</time></trkpt><trkpt lat="43.4580736" lon="11.3171211"><ele>564.0</ele><time>2026-04-19T15:05:58.548Z</time></trkpt><trkpt lat="43.4581402" lon="11.3169851"><ele>562.0</ele><time>2026-04-19T15:05:59.555Z</time></trkpt><trkpt lat="43.4582025" lon="11.3168541"><ele>560.0</ele><time>2026-04-19T15:06:00.545Z</time></trkpt><trkpt lat="43.4582589" lon="11.3167334"><ele>560.0</ele><time>2026-04-19T15:06:01.552Z</time></trkpt><trkpt lat="43.4583194" lon="11.3166232"><ele>560.0</ele><time>2026-04-19T15:06:02.554Z</time></trkpt><trkpt lat="43.4583889" lon="11.3165232"><ele>560.0</ele><time>2026-04-19T15:06:03.559Z</time></trkpt><trkpt lat="43.4584609" lon="11.3164339"><ele>560.0</ele><time>2026-04-19T15:06:04.556Z</time></trkpt><trkpt lat="43.4585183" lon="11.3163617"><ele>560.0</ele><time>2026-04-19T15:06:05.556Z</time></trkpt><trkpt lat="43.4585794" lon="11.3162567"><ele>560.2</ele><time>2026-04-19T15:06:06.549Z</time></trkpt><trkpt lat="43.458632" lon="11.3161414"><ele>560.4</ele><time>2026-04-19T15:06:07.543Z</time></trkpt><trkpt lat="43.4586727" lon="11.3160326"><ele>560.6</ele><time>2026-04-19T15:06:08.555Z</time></trkpt><trkpt lat="43.4587039" lon="11.315909"><ele>560.8</ele><time>2026-04-19T15:06:09.558Z</time></trkpt><trkpt lat="43.4587317" lon="11.3158006"><ele>561.0</ele><time>2026-04-19T15:06:10.552Z</time></trkpt><trkpt lat="43.4587804" lon="11.3156492"><ele>560.25</ele><time>2026-04-19T15:06:11.557Z</time></trkpt><trkpt lat="43.4588307" lon="11.3154731"><ele>559.5</ele><time>2026-04-19T15:06:12.559Z</time></trkpt><trkpt lat="43.458893" lon="11.3153052"><ele>558.75</ele><time>2026-04-19T15:06:13.556Z</time></trkpt><trkpt lat="43.4589485" lon="11.3151419"><ele>558.0</ele><time>2026-04-19T15:06:14.554Z</time></trkpt><trkpt lat="43.4589865" lon="11.3149794"><ele>558.0</ele><time>2026-04-19T15:06:15.554Z</time></trkpt><trkpt lat="43.4590199" lon="11.3148336"><ele>558.0</ele><time>2026-04-19T15:06:16.558Z</time></trkpt><trkpt lat="43.4590508" lon="11.3146898"><ele>558.0</ele><time>2026-04-19T15:06:17.547Z</time></trkpt><trkpt lat="43.4590866" lon="11.3145386"><ele>558.0</ele><time>2026-04-19T15:06:18.544Z</time></trkpt><trkpt lat="43.4591276" lon="11.31441"><ele>558.0</ele><time>2026-04-19T15:06:19.549Z</time></trkpt><trkpt lat="43.459187" lon="11.3142717"><ele>557.0</ele><time>2026-04-19T15:06:20.535Z</time></trkpt><trkpt lat="43.4592382" lon="11.3141174"><ele>556.0</ele><time>2026-04-19T15:06:21.543Z</time></trkpt><trkpt lat="43.4592863" lon="11.3139851"><ele>555.0</ele><time>2026-04-19T15:06:22.545Z</time></trkpt><trkpt lat="43.4593484" lon="11.3138674"><ele>554.0</ele><time>2026-04-19T15:06:23.549Z</time></trkpt><trkpt lat="43.4594087" lon="11.3137416"><ele>553.0</ele><time>2026-04-19T15:06:24.536Z</time></trkpt><trkpt lat="43.4594927" lon="11.3136491"><ele>551.8</ele><time>2026-04-19T15:06:25.535Z</time></trkpt><trkpt lat="43.4595723" lon="11.3135448"><ele>550.5999999999999</ele><time>2026-04-19T15:06:26.546Z</time></trkpt><trkpt lat="43.4596665" lon="11.3134746"><ele>549.4000000000001</ele><time>2026-04-19T15:06:27.54Z</time></trkpt><trkpt lat="43.4597604" lon="11.3134095"><ele>548.2</ele><time>2026-04-19T15:06:28.544Z</time></trkpt><trkpt lat="43.4598418" lon="11.3133535"><ele>547.0</ele><time>2026-04-19T15:06:29.544Z</time></trkpt><trkpt lat="43.4599242" lon="11.3133115"><ele>546.8000000000001</ele><time>2026-04-19T15:06:30.558Z</time></trkpt><trkpt lat="43.4599873" lon="11.3132434"><ele>546.6</ele><time>2026-04-19T15:06:31.559Z</time></trkpt><trkpt lat="43.4600412" lon="11.3131483"><ele>546.4000000000001</ele><time>2026-04-19T15:06:32.561Z</time></trkpt><trkpt lat="43.4600854" lon="11.3129929"><ele>546.2</ele><time>2026-04-19T15:06:33.561Z</time></trkpt><trkpt lat="43.4601149" lon="11.3128427"><ele>546.0</ele><time>2026-04-19T15:06:34.568Z</time></trkpt><trkpt lat="43.4601254" lon="11.3126912"><ele>543.75</ele><time>2026-04-19T15:06:35.57Z</time></trkpt><trkpt lat="43.4601157" lon="11.3125206"><ele>541.5</ele><time>2026-04-19T15:06:36.567Z</time></trkpt><trkpt lat="43.4600858" lon="11.3123521"><ele>539.25</ele><time>2026-04-19T15:06:37.574Z</time></trkpt><trkpt lat="43.4600172" lon="11.3121679"><ele>537.0</ele><time>2026-04-19T15:06:38.562Z</time></trkpt><trkpt lat="43.4599281" lon="11.3119913"><ele>536.3333333333334</ele><time>2026-04-19T15:06:39.574Z</time></trkpt><trkpt lat="43.4598268" lon="11.3118071"><ele>535.6666666666667</ele><time>2026-04-19T15:06:40.566Z</time></trkpt><trkpt lat="43.4597085" lon="11.31166"><ele>535.0</ele><time>2026-04-19T15:06:41.567Z</time></trkpt><trkpt lat="43.4595942" lon="11.3115261"><ele>535.0</ele><time>2026-04-19T15:06:42.559Z</time></trkpt><trkpt lat="43.4594732" lon="11.3114182"><ele>535.0</ele><time>2026-04-19T15:06:43.559Z</time></trkpt><trkpt lat="43.4593522" lon="11.3113393"><ele>535.0</ele><time>2026-04-19T15:06:44.556Z</time></trkpt><trkpt lat="43.4591817" lon="11.3112645"><ele>535.6666666666667</ele><time>2026-04-19T15:06:45.562Z</time></trkpt><trkpt lat="43.4590197" lon="11.3111925"><ele>536.3333333333334</ele><time>2026-04-19T15:06:46.555Z</time></trkpt><trkpt lat="43.4588827" lon="11.3111022"><ele>537.0</ele><time>2026-04-19T15:06:47.562Z</time></trkpt><trkpt lat="43.4587392" lon="11.3110062"><ele>537.5</ele><time>2026-04-19T15:06:48.563Z</time></trkpt><trkpt lat="43.4586129" lon="11.3109102"><ele>538.0</ele><time>2026-04-19T15:06:49.56Z</time></trkpt><trkpt lat="43.458507" lon="11.310817"><ele>538.5</ele><time>2026-04-19T15:06:50.57Z</time></trkpt><trkpt lat="43.4583992" lon="11.3107132"><ele>539.0</ele><time>2026-04-19T15:06:51.559Z</time></trkpt><trkpt lat="43.4583192" lon="11.3105851"><ele>540.0</ele><time>2026-04-19T15:06:52.562Z</time></trkpt><trkpt lat="43.4582535" lon="11.31045"><ele>541.0</ele><time>2026-04-19T15:06:53.567Z</time></trkpt><trkpt lat="43.4581889" lon="11.3103088"><ele>542.0</ele><time>2026-04-19T15:06:54.567Z</time></trkpt><trkpt lat="43.4580932" lon="11.3101777"><ele>543.0</ele><time>2026-04-19T15:06:55.562Z</time></trkpt><trkpt lat="43.4580073" lon="11.3100444"><ele>542.75</ele><time>2026-04-19T15:06:56.563Z</time></trkpt><trkpt lat="43.457925" lon="11.3099005"><ele>542.5</ele><time>2026-04-19T15:06:57.562Z</time></trkpt><trkpt lat="43.4578438" lon="11.3097501"><ele>542.25</ele><time>2026-04-19T15:06:58.56Z</time></trkpt><trkpt lat="43.4577862" lon="11.3096087"><ele>542.0</ele><time>2026-04-19T15:06:59.563Z</time></trkpt><trkpt lat="43.4577519" lon="11.3094582"><ele>542.25</ele><time>2026-04-19T15:07:00.553Z</time></trkpt><trkpt lat="43.4577195" lon="11.3092864"><ele>542.5</ele><time>2026-04-19T15:07:01.55Z</time></trkpt><trkpt lat="43.4576868" lon="11.3091212"><ele>542.75</ele><time>2026-04-19T15:07:02.564Z</time></trkpt><trkpt lat="43.457641" lon="11.3089575"><ele>543.0</ele><time>2026-04-19T15:07:03.553Z</time></trkpt><trkpt lat="43.4576043" lon="11.3087775"><ele>543.0</ele><time>2026-04-19T15:07:04.558Z</time></trkpt><trkpt lat="43.4575473" lon="11.3086169"><ele>543.0</ele><time>2026-04-19T15:07:05.557Z</time></trkpt><trkpt lat="43.4575045" lon="11.30846"><ele>543.0</ele><time>2026-04-19T15:07:06.556Z</time></trkpt><trkpt lat="43.4574578" lon="11.3082949"><ele>543.0</ele><time>2026-04-19T15:07:07.564Z</time></trkpt><trkpt lat="43.4574334" lon="11.308125"><ele>543.25</ele><time>2026-04-19T15:07:08.557Z</time></trkpt><trkpt lat="43.4574176" lon="11.3079575"><ele>543.5</ele><time>2026-04-19T15:07:09.563Z</time></trkpt><trkpt lat="43.4574028" lon="11.3077909"><ele>543.75</ele><time>2026-04-19T15:07:10.563Z</time></trkpt><trkpt lat="43.4573904" lon="11.3076294"><ele>544.0</ele><time>2026-04-19T15:07:11.558Z</time></trkpt><trkpt lat="43.4573757" lon="11.3074591"><ele>544.0</ele><time>2026-04-19T15:07:12.567Z</time></trkpt><trkpt lat="43.457357" lon="11.3072975"><ele>544.0</ele><time>2026-04-19T15:07:13.565Z</time></trkpt><trkpt lat="43.4573429" lon="11.3071481"><ele>544.0</ele><time>2026-04-19T15:07:14.567Z</time></trkpt><trkpt lat="43.4573368" lon="11.3069909"><ele>544.0</ele><time>2026-04-19T15:07:15.56Z</time></trkpt><trkpt lat="43.4573498" lon="11.30684"><ele>544.5</ele><time>2026-04-19T15:07:16.557Z</time></trkpt><trkpt lat="43.4573631" lon="11.3066745"><ele>545.0</ele><time>2026-04-19T15:07:17.561Z</time></trkpt><trkpt lat="43.4573711" lon="11.3065167"><ele>545.5</ele><time>2026-04-19T15:07:18.561Z</time></trkpt><trkpt lat="43.4573571" lon="11.3063688"><ele>546.0</ele><time>2026-04-19T15:07:19.554Z</time></trkpt><trkpt lat="43.4573254" lon="11.3062084"><ele>546.0</ele><time>2026-04-19T15:07:20.561Z</time></trkpt><trkpt lat="43.4572894" lon="11.3060472"><ele>546.0</ele><time>2026-04-19T15:07:21.556Z</time></trkpt><trkpt lat="43.4572611" lon="11.305879"><ele>546.0</ele><time>2026-04-19T15:07:22.556Z</time></trkpt><trkpt lat="43.457238" lon="11.3057123"><ele>546.0</ele><time>2026-04-19T15:07:23.55Z</time></trkpt><trkpt lat="43.4572177" lon="11.3055337"><ele>545.25</ele><time>2026-04-19T15:07:24.554Z</time></trkpt><trkpt lat="43.4572039" lon="11.3053502"><ele>544.5</ele><time>2026-04-19T15:07:25.565Z</time></trkpt><trkpt lat="43.4571712" lon="11.3051868"><ele>543.75</ele><time>2026-04-19T15:07:26.552Z</time></trkpt><trkpt lat="43.4571265" lon="11.3050249"><ele>543.0</ele><time>2026-04-19T15:07:27.563Z</time></trkpt><trkpt lat="43.4570771" lon="11.3048742"><ele>545.6</ele><time>2026-04-19T15:07:28.559Z</time></trkpt><trkpt lat="43.4570403" lon="11.3047126"><ele>548.1999999999999</ele><time>2026-04-19T15:07:29.555Z</time></trkpt><trkpt lat="43.4570216" lon="11.3045574"><ele>550.8</ele><time>2026-04-19T15:07:30.56Z</time></trkpt><trkpt lat="43.4569996" lon="11.3044223"><ele>553.4</ele><time>2026-04-19T15:07:31.558Z</time></trkpt><trkpt lat="43.4569786" lon="11.3043093"><ele>556.0</ele><time>2026-04-19T15:07:32.556Z</time></trkpt><trkpt lat="43.4569487" lon="11.3042084"><ele>556.0</ele><time>2026-04-19T15:07:33.558Z</time></trkpt><trkpt lat="43.4569177" lon="11.3041095"><ele>556.0</ele><time>2026-04-19T15:07:34.553Z</time></trkpt><trkpt lat="43.4568667" lon="11.3040097"><ele>556.0</ele><time>2026-04-19T15:07:35.55Z</time></trkpt><trkpt lat="43.4568022" lon="11.3038981"><ele>556.0</ele><time>2026-04-19T15:07:36.563Z</time></trkpt><trkpt lat="43.4567328" lon="11.3037879"><ele>556.0</ele><time>2026-04-19T15:07:37.551Z</time></trkpt><trkpt lat="43.4566674" lon="11.3036712"><ele>556.1666666666667</ele><time>2026-04-19T15:07:38.551Z</time></trkpt><trkpt lat="43.456591" lon="11.3035795"><ele>556.3333333333334</ele><time>2026-04-19T15:07:39.556Z</time></trkpt><trkpt lat="43.4565236" lon="11.3034832"><ele>556.5</ele><time>2026-04-19T15:07:40.553Z</time></trkpt><trkpt lat="43.4564597" lon="11.3034044"><ele>556.6666666666666</ele><time>2026-04-19T15:07:41.549Z</time></trkpt><trkpt lat="43.4563963" lon="11.3033453"><ele>556.8333333333333</ele><time>2026-04-19T15:07:42.557Z</time></trkpt><trkpt lat="43.4563489" lon="11.303285"><ele>557.0</ele><time>2026-04-19T15:07:43.558Z</time></trkpt><trkpt lat="43.456304" lon="11.3031527"><ele>557.3333333333333</ele><time>2026-04-19T15:07:45.566Z</time></trkpt><trkpt lat="43.4563286" lon="11.3030644"><ele>557.6666666666666</ele><time>2026-04-19T15:07:46.557Z</time></trkpt><trkpt lat="43.4563693" lon="11.3029713"><ele>558.0</ele><time>2026-04-19T15:07:47.564Z</time></trkpt><trkpt lat="43.4564114" lon="11.302873"><ele>558.3333333333334</ele><time>2026-04-19T15:07:48.55Z</time></trkpt><trkpt lat="43.4564372" lon="11.3027466"><ele>558.6666666666667</ele><time>2026-04-19T15:07:49.543Z</time></trkpt><trkpt lat="43.4564378" lon="11.3026151"><ele>559.0</ele><time>2026-04-19T15:07:50.561Z</time></trkpt><trkpt lat="43.4564091" lon="11.3024921"><ele>559.0</ele><time>2026-04-19T15:07:51.547Z</time></trkpt><trkpt lat="43.4563536" lon="11.3023915"><ele>559.0</ele><time>2026-04-19T15:07:52.552Z</time></trkpt><trkpt lat="43.4562954" lon="11.3022771"><ele>559.0</ele><time>2026-04-19T15:07:53.559Z</time></trkpt><trkpt lat="43.4562146" lon="11.3021663"><ele>559.0</ele><time>2026-04-19T15:07:54.557Z</time></trkpt><trkpt lat="43.4561299" lon="11.3020471"><ele>559.0</ele><time>2026-04-19T15:07:55.563Z</time></trkpt><trkpt lat="43.4560531" lon="11.3019216"><ele>559.2</ele><time>2026-04-19T15:07:56.562Z</time></trkpt><trkpt lat="43.4559929" lon="11.3017955"><ele>559.4</ele><time>2026-04-19T15:07:57.566Z</time></trkpt><trkpt lat="43.4559352" lon="11.3016765"><ele>559.6</ele><time>2026-04-19T15:07:58.554Z</time></trkpt><trkpt lat="43.4558806" lon="11.3015669"><ele>559.8</ele><time>2026-04-19T15:07:59.555Z</time></trkpt><trkpt lat="43.4558264" lon="11.3014599"><ele>560.0</ele><time>2026-04-19T15:08:00.563Z</time></trkpt><trkpt lat="43.4557788" lon="11.3013414"><ele>560.0</ele><time>2026-04-19T15:08:01.556Z</time></trkpt><trkpt lat="43.4557293" lon="11.3012163"><ele>560.0</ele><time>2026-04-19T15:08:02.554Z</time></trkpt><trkpt lat="43.4556826" lon="11.3010688"><ele>560.0</ele><time>2026-04-19T15:08:03.557Z</time></trkpt><trkpt lat="43.4556649" lon="11.3008978"><ele>560.0</ele><time>2026-04-19T15:08:04.553Z</time></trkpt><trkpt lat="43.4556457" lon="11.3007057"><ele>561.25</ele><time>2026-04-19T15:08:05.555Z</time></trkpt><trkpt lat="43.4556479" lon="11.3005212"><ele>562.5</ele><time>2026-04-19T15:08:06.563Z</time></trkpt><trkpt lat="43.4556574" lon="11.3003422"><ele>563.75</ele><time>2026-04-19T15:08:07.568Z</time></trkpt><trkpt lat="43.455676" lon="11.3001842"><ele>565.0</ele><time>2026-04-19T15:08:08.559Z</time></trkpt><trkpt lat="43.4556867" lon="11.3000496"><ele>565.0</ele><time>2026-04-19T15:08:09.558Z</time></trkpt><trkpt lat="43.4556936" lon="11.2999272"><ele>565.0</ele><time>2026-04-19T15:08:10.559Z</time></trkpt><trkpt lat="43.4557101" lon="11.2998131"><ele>565.0</ele><time>2026-04-19T15:08:11.558Z</time></trkpt><trkpt lat="43.4557612" lon="11.2997415"><ele>565.0</ele><time>2026-04-19T15:08:12.552Z</time></trkpt><trkpt lat="43.4558424" lon="11.2996825"><ele>565.0</ele><time>2026-04-19T15:08:13.561Z</time></trkpt><trkpt lat="43.4559465" lon="11.299624"><ele>566.75</ele><time>2026-04-19T15:08:14.555Z</time></trkpt><trkpt lat="43.4560498" lon="11.2995526"><ele>568.5</ele><time>2026-04-19T15:08:15.547Z</time></trkpt><trkpt lat="43.4561348" lon="11.2994379"><ele>570.25</ele><time>2026-04-19T15:08:16.563Z</time></trkpt><trkpt lat="43.4562197" lon="11.2992921"><ele>572.0</ele><time>2026-04-19T15:08:17.556Z</time></trkpt><trkpt lat="43.456302" lon="11.299127"><ele>572.0</ele><time>2026-04-19T15:08:18.549Z</time></trkpt><trkpt lat="43.4563685" lon="11.2989747"><ele>572.0</ele><time>2026-04-19T15:08:19.559Z</time></trkpt><trkpt lat="43.4564368" lon="11.2988558"><ele>572.0</ele><time>2026-04-19T15:08:20.559Z</time></trkpt><trkpt lat="43.4564803" lon="11.2987217"><ele>572.0</ele><time>2026-04-19T15:08:21.555Z</time></trkpt><trkpt lat="43.4565108" lon="11.2985419"><ele>573.75</ele><time>2026-04-19T15:08:22.553Z</time></trkpt><trkpt lat="43.4565176" lon="11.2983788"><ele>575.5</ele><time>2026-04-19T15:08:23.561Z</time></trkpt><trkpt lat="43.4565395" lon="11.2981965"><ele>577.25</ele><time>2026-04-19T15:08:24.558Z</time></trkpt><trkpt lat="43.4565669" lon="11.2980414"><ele>579.0</ele><time>2026-04-19T15:08:25.561Z</time></trkpt><trkpt lat="43.4565686" lon="11.2978964"><ele>579.0</ele><time>2026-04-19T15:08:26.554Z</time></trkpt><trkpt lat="43.4565572" lon="11.2977553"><ele>579.0</ele><time>2026-04-19T15:08:27.566Z</time></trkpt><trkpt lat="43.4565221" lon="11.2975882"><ele>579.0</ele><time>2026-04-19T15:08:28.558Z</time></trkpt><trkpt lat="43.4564707" lon="11.2974248"><ele>579.0</ele><time>2026-04-19T15:08:29.558Z</time></trkpt><trkpt lat="43.4564187" lon="11.2972606"><ele>579.0</ele><time>2026-04-19T15:08:30.559Z</time></trkpt><trkpt lat="43.4563864" lon="11.2971008"><ele>579.0</ele><time>2026-04-19T15:08:31.556Z</time></trkpt><trkpt lat="43.4563607" lon="11.2969499"><ele>579.0</ele><time>2026-04-19T15:08:32.557Z</time></trkpt><trkpt lat="43.4563488" lon="11.2968199"><ele>579.0</ele><time>2026-04-19T15:08:33.547Z</time></trkpt><trkpt lat="43.4563422" lon="11.2966926"><ele>579.0</ele><time>2026-04-19T15:08:34.554Z</time></trkpt><trkpt lat="43.4563342" lon="11.2965666"><ele>579.0</ele><time>2026-04-19T15:08:35.555Z</time></trkpt><trkpt lat="43.4563612" lon="11.2964462"><ele>579.0</ele><time>2026-04-19T15:08:36.558Z</time></trkpt><trkpt lat="43.4563987" lon="11.2963409"><ele>579.0</ele><time>2026-04-19T15:08:37.555Z</time></trkpt><trkpt lat="43.4564818" lon="11.2962202"><ele>579.0</ele><time>2026-04-19T15:08:38.556Z</time></trkpt><trkpt lat="43.4565823" lon="11.296093"><ele>579.0</ele><time>2026-04-19T15:08:39.551Z</time></trkpt><trkpt lat="43.4566904" lon="11.2959505"><ele>580.0</ele><time>2026-04-19T15:08:40.558Z</time></trkpt><trkpt lat="43.4568035" lon="11.295782"><ele>581.0</ele><time>2026-04-19T15:08:41.563Z</time></trkpt><trkpt lat="43.4569227" lon="11.2955975"><ele>582.0</ele><time>2026-04-19T15:08:42.561Z</time></trkpt><trkpt lat="43.4570092" lon="11.2954207"><ele>583.0</ele><time>2026-04-19T15:08:43.563Z</time></trkpt><trkpt lat="43.4570892" lon="11.2952455"><ele>584.0</ele><time>2026-04-19T15:08:44.566Z</time></trkpt><trkpt lat="43.4571683" lon="11.2950765"><ele>585.0</ele><time>2026-04-19T15:08:45.565Z</time></trkpt><trkpt lat="43.4572272" lon="11.2949001"><ele>586.0</ele><time>2026-04-19T15:08:46.566Z</time></trkpt><trkpt lat="43.4572744" lon="11.2947268"><ele>587.75</ele><time>2026-04-19T15:08:47.568Z</time></trkpt><trkpt lat="43.4573382" lon="11.2945562"><ele>589.5</ele><time>2026-04-19T15:08:48.571Z</time></trkpt><trkpt lat="43.4574042" lon="11.2943748"><ele>591.25</ele><time>2026-04-19T15:08:49.561Z</time></trkpt><trkpt lat="43.4574684" lon="11.2942176"><ele>593.0</ele><time>2026-04-19T15:08:50.566Z</time></trkpt><trkpt lat="43.4575239" lon="11.2940434"><ele>591.8</ele><time>2026-04-19T15:08:51.562Z</time></trkpt><trkpt lat="43.4575798" lon="11.2938999"><ele>590.5999999999999</ele><time>2026-04-19T15:08:52.564Z</time></trkpt><trkpt lat="43.4576295" lon="11.2937444"><ele>589.4000000000001</ele><time>2026-04-19T15:08:53.547Z</time></trkpt><trkpt lat="43.4576725" lon="11.2936227"><ele>588.2</ele><time>2026-04-19T15:08:54.547Z</time></trkpt><trkpt lat="43.4577193" lon="11.2935156"><ele>587.0</ele><time>2026-04-19T15:08:55.56Z</time></trkpt><trkpt lat="43.4577503" lon="11.2934099"><ele>587.0</ele><time>2026-04-19T15:08:56.554Z</time></trkpt><trkpt lat="43.4577619" lon="11.293291"><ele>587.0</ele><time>2026-04-19T15:08:57.559Z</time></trkpt><trkpt lat="43.4577493" lon="11.2931521"><ele>587.0</ele><time>2026-04-19T15:08:58.564Z</time></trkpt><trkpt lat="43.4577063" lon="11.293027"><ele>587.0</ele><time>2026-04-19T15:08:59.555Z</time></trkpt><trkpt lat="43.4576458" lon="11.2929077"><ele>587.0</ele><time>2026-04-19T15:09:00.558Z</time></trkpt><trkpt lat="43.4575728" lon="11.2927953"><ele>586.0</ele><time>2026-04-19T15:09:01.55Z</time></trkpt><trkpt lat="43.4574925" lon="11.2926949"><ele>585.0</ele><time>2026-04-19T15:09:02.55Z</time></trkpt><trkpt lat="43.4573956" lon="11.2926299"><ele>584.0</ele><time>2026-04-19T15:09:03.552Z</time></trkpt><trkpt lat="43.4573011" lon="11.2925856"><ele>583.0</ele><time>2026-04-19T15:09:04.552Z</time></trkpt><trkpt lat="43.4572009" lon="11.2925559"><ele>582.0</ele><time>2026-04-19T15:09:05.558Z</time></trkpt><trkpt lat="43.4570892" lon="11.292546"><ele>581.0</ele><time>2026-04-19T15:09:06.554Z</time></trkpt><trkpt lat="43.4569831" lon="11.2925463"><ele>580.0</ele><time>2026-04-19T15:09:07.555Z</time></trkpt><trkpt lat="43.4568853" lon="11.2925517"><ele>579.0</ele><time>2026-04-19T15:09:08.559Z</time></trkpt><trkpt lat="43.4568085" lon="11.292549"><ele>578.0</ele><time>2026-04-19T15:09:09.554Z</time></trkpt><trkpt lat="43.456711" lon="11.2925206"><ele>577.0</ele><time>2026-04-19T15:09:11.554Z</time></trkpt><trkpt lat="43.4566998" lon="11.2924298"><ele>576.0</ele><time>2026-04-19T15:09:41.562Z</time></trkpt><trkpt lat="43.4567535" lon="11.2923734"><ele>576.0</ele><time>2026-04-19T15:09:44.551Z</time></trkpt><trkpt lat="43.4568975" lon="11.2923295"><ele>576.0</ele><time>2026-04-19T15:09:46.559Z</time></trkpt><trkpt lat="43.4569853" lon="11.29231"><ele>576.0</ele><time>2026-04-19T15:09:47.554Z</time></trkpt><trkpt lat="43.4570743" lon="11.2922868"><ele>576.0</ele><time>2026-04-19T15:09:48.566Z</time></trkpt><trkpt lat="43.457165" lon="11.292255"><ele>576.0</ele><time>2026-04-19T15:09:49.554Z</time></trkpt><trkpt lat="43.4572676" lon="11.2922291"><ele>572.5</ele><time>2026-04-19T15:09:50.556Z</time></trkpt><trkpt lat="43.4573847" lon="11.292203"><ele>569.0</ele><time>2026-04-19T15:09:51.567Z</time></trkpt><trkpt lat="43.4575053" lon="11.2921676"><ele>565.5</ele><time>2026-04-19T15:09:52.553Z</time></trkpt><trkpt lat="43.4576309" lon="11.2921315"><ele>562.0</ele><time>2026-04-19T15:09:53.549Z</time></trkpt><trkpt lat="43.4577621" lon="11.2920982"><ele>562.0</ele><time>2026-04-19T15:09:54.557Z</time></trkpt><trkpt lat="43.4578856" lon="11.2920695"><ele>562.0</ele><time>2026-04-19T15:09:55.557Z</time></trkpt><trkpt lat="43.4580096" lon="11.2920374"><ele>562.0</ele><time>2026-04-19T15:09:56.554Z</time></trkpt><trkpt lat="43.4581345" lon="11.2920048"><ele>562.0</ele><time>2026-04-19T15:09:57.558Z</time></trkpt><trkpt lat="43.4582597" lon="11.2919778"><ele>562.25</ele><time>2026-04-19T15:09:58.555Z</time></trkpt><trkpt lat="43.4583914" lon="11.2919362"><ele>562.5</ele><time>2026-04-19T15:09:59.549Z</time></trkpt><trkpt lat="43.458521" lon="11.2918878"><ele>562.75</ele><time>2026-04-19T15:10:00.556Z</time></trkpt><trkpt lat="43.4586424" lon="11.291829"><ele>563.0</ele><time>2026-04-19T15:10:01.552Z</time></trkpt><trkpt lat="43.4587629" lon="11.2917691"><ele>564.5</ele><time>2026-04-19T15:10:02.552Z</time></trkpt><trkpt lat="43.4588941" lon="11.2916928"><ele>566.0</ele><time>2026-04-19T15:10:03.556Z</time></trkpt><trkpt lat="43.4590325" lon="11.2916182"><ele>567.5</ele><time>2026-04-19T15:10:04.55Z</time></trkpt><trkpt lat="43.459172" lon="11.2915464"><ele>569.0</ele><time>2026-04-19T15:10:05.553Z</time></trkpt><trkpt lat="43.4593256" lon="11.2914729"><ele>566.0</ele><time>2026-04-19T15:10:06.555Z</time></trkpt><trkpt lat="43.459478" lon="11.291409"><ele>563.0</ele><time>2026-04-19T15:10:07.56Z</time></trkpt><trkpt lat="43.4596221" lon="11.2913325"><ele>560.0</ele><time>2026-04-19T15:10:08.554Z</time></trkpt><trkpt lat="43.4597637" lon="11.2912643"><ele>560.0</ele><time>2026-04-19T15:10:09.555Z</time></trkpt><trkpt lat="43.4599248" lon="11.2912125"><ele>560.0</ele><time>2026-04-19T15:10:10.562Z</time></trkpt><trkpt lat="43.4600667" lon="11.2911418"><ele>560.0</ele><time>2026-04-19T15:10:11.555Z</time></trkpt><trkpt lat="43.4601937" lon="11.2910638"><ele>560.0</ele><time>2026-04-19T15:10:12.561Z</time></trkpt><trkpt lat="43.4603409" lon="11.2909955"><ele>560.0</ele><time>2026-04-19T15:10:13.553Z</time></trkpt><trkpt lat="43.4604856" lon="11.2909197"><ele>560.0</ele><time>2026-04-19T15:10:14.554Z</time></trkpt><trkpt lat="43.4606184" lon="11.2908437"><ele>558.75</ele><time>2026-04-19T15:10:15.554Z</time></trkpt><trkpt lat="43.4607573" lon="11.2907743"><ele>557.5</ele><time>2026-04-19T15:10:16.555Z</time></trkpt><trkpt lat="43.4608939" lon="11.2907246"><ele>556.25</ele><time>2026-04-19T15:10:17.556Z</time></trkpt><trkpt lat="43.461032" lon="11.290648"><ele>555.0</ele><time>2026-04-19T15:10:18.558Z</time></trkpt><trkpt lat="43.4611526" lon="11.2905848"><ele>556.5</ele><time>2026-04-19T15:10:19.558Z</time></trkpt><trkpt lat="43.4612855" lon="11.2904943"><ele>558.0</ele><time>2026-04-19T15:10:20.57Z</time></trkpt><trkpt lat="43.4614219" lon="11.2904313"><ele>559.5</ele><time>2026-04-19T15:10:21.561Z</time></trkpt><trkpt lat="43.4615669" lon="11.2903518"><ele>561.0</ele><time>2026-04-19T15:10:22.566Z</time></trkpt><trkpt lat="43.4616921" lon="11.2903013"><ele>561.0</ele><time>2026-04-19T15:10:23.566Z</time></trkpt><trkpt lat="43.4618339" lon="11.2902474"><ele>561.0</ele><time>2026-04-19T15:10:24.564Z</time></trkpt><trkpt lat="43.4619685" lon="11.290208"><ele>561.0</ele><time>2026-04-19T15:10:25.562Z</time></trkpt><trkpt lat="43.4621075" lon="11.2901772"><ele>561.0</ele><time>2026-04-19T15:10:26.566Z</time></trkpt><trkpt lat="43.4622463" lon="11.2901691"><ele>561.25</ele><time>2026-04-19T15:10:27.564Z</time></trkpt><trkpt lat="43.4623885" lon="11.2901206"><ele>561.5</ele><time>2026-04-19T15:10:28.559Z</time></trkpt><trkpt lat="43.4625332" lon="11.2901128"><ele>561.75</ele><time>2026-04-19T15:10:29.562Z</time></trkpt><trkpt lat="43.4626616" lon="11.2900927"><ele>562.0</ele><time>2026-04-19T15:10:30.569Z</time></trkpt><trkpt lat="43.4627942" lon="11.2900535"><ele>562.0</ele><time>2026-04-19T15:10:31.565Z</time></trkpt><trkpt lat="43.4629195" lon="11.2900287"><ele>562.0</ele><time>2026-04-19T15:10:32.562Z</time></trkpt><trkpt lat="43.4630609" lon="11.2899953"><ele>562.0</ele><time>2026-04-19T15:10:33.556Z</time></trkpt><trkpt lat="43.4632012" lon="11.2899448"><ele>562.0</ele><time>2026-04-19T15:10:34.563Z</time></trkpt><trkpt lat="43.4633373" lon="11.2899006"><ele>561.75</ele><time>2026-04-19T15:10:35.558Z</time></trkpt><trkpt lat="43.4634731" lon="11.2898448"><ele>561.5</ele><time>2026-04-19T15:10:36.559Z</time></trkpt><trkpt lat="43.4635926" lon="11.2898257"><ele>561.25</ele><time>2026-04-19T15:10:37.569Z</time></trkpt><trkpt lat="43.4637187" lon="11.2897869"><ele>561.0</ele><time>2026-04-19T15:10:38.562Z</time></trkpt><trkpt lat="43.463829" lon="11.2897561"><ele>561.0</ele><time>2026-04-19T15:10:39.568Z</time></trkpt><trkpt lat="43.4639395" lon="11.2897209"><ele>561.0</ele><time>2026-04-19T15:10:40.58Z</time></trkpt><trkpt lat="43.464052" lon="11.2896932"><ele>561.0</ele><time>2026-04-19T15:10:41.567Z</time></trkpt><trkpt lat="43.4641297" lon="11.2896474"><ele>561.0</ele><time>2026-04-19T15:10:42.568Z</time></trkpt><trkpt lat="43.4642261" lon="11.2896068"><ele>561.0</ele><time>2026-04-19T15:10:43.572Z</time></trkpt><trkpt lat="43.4643142" lon="11.2895829"><ele>561.0</ele><time>2026-04-19T15:10:44.569Z</time></trkpt><trkpt lat="43.4644041" lon="11.2895614"><ele>561.0</ele><time>2026-04-19T15:10:45.566Z</time></trkpt><trkpt lat="43.4644915" lon="11.2895299"><ele>561.0</ele><time>2026-04-19T15:10:46.57Z</time></trkpt><trkpt lat="43.4645816" lon="11.289501"><ele>561.0</ele><time>2026-04-19T15:10:47.568Z</time></trkpt><trkpt lat="43.4646786" lon="11.2894768"><ele>561.0</ele><time>2026-04-19T15:10:48.567Z</time></trkpt><trkpt lat="43.4647737" lon="11.2894498"><ele>561.6</ele><time>2026-04-19T15:10:49.564Z</time></trkpt><trkpt lat="43.4648624" lon="11.2894244"><ele>562.2</ele><time>2026-04-19T15:10:50.591Z</time></trkpt><trkpt lat="43.4649507" lon="11.289404"><ele>562.8</ele><time>2026-04-19T15:10:51.571Z</time></trkpt><trkpt lat="43.4650343" lon="11.2893745"><ele>563.4</ele><time>2026-04-19T15:10:52.564Z</time></trkpt><trkpt lat="43.4651221" lon="11.2893436"><ele>564.0</ele><time>2026-04-19T15:10:53.556Z</time></trkpt><trkpt lat="43.4652136" lon="11.2893165"><ele>564.0</ele><time>2026-04-19T15:10:54.56Z</time></trkpt><trkpt lat="43.4653163" lon="11.2892896"><ele>564.0</ele><time>2026-04-19T15:10:55.561Z</time></trkpt><trkpt lat="43.4654088" lon="11.2892629"><ele>564.0</ele><time>2026-04-19T15:10:56.562Z</time></trkpt><trkpt lat="43.4655023" lon="11.2892283"><ele>564.0</ele><time>2026-04-19T15:10:57.565Z</time></trkpt><trkpt lat="43.4656039" lon="11.2892015"><ele>564.0</ele><time>2026-04-19T15:10:58.563Z</time></trkpt><trkpt lat="43.4657041" lon="11.2891625"><ele>564.6</ele><time>2026-04-19T15:10:59.561Z</time></trkpt><trkpt lat="43.4658029" lon="11.2891255"><ele>565.2</ele><time>2026-04-19T15:11:00.564Z</time></trkpt><trkpt lat="43.4658952" lon="11.2890941"><ele>565.8000000000001</ele><time>2026-04-19T15:11:01.562Z</time></trkpt><trkpt lat="43.4659887" lon="11.2890568"><ele>566.4</ele><time>2026-04-19T15:11:02.555Z</time></trkpt><trkpt lat="43.4660862" lon="11.2890259"><ele>567.0</ele><time>2026-04-19T15:11:03.549Z</time></trkpt><trkpt lat="43.4661859" lon="11.2889865"><ele>567.0</ele><time>2026-04-19T15:11:04.557Z</time></trkpt><trkpt lat="43.4662766" lon="11.2889474"><ele>567.0</ele><time>2026-04-19T15:11:05.554Z</time></trkpt><trkpt lat="43.4663658" lon="11.2888956"><ele>567.0</ele><time>2026-04-19T15:11:06.55Z</time></trkpt><trkpt lat="43.4664592" lon="11.2888381"><ele>567.0</ele><time>2026-04-19T15:11:07.563Z</time></trkpt><trkpt lat="43.4665438" lon="11.2887766"><ele>567.0</ele><time>2026-04-19T15:11:08.557Z</time></trkpt><trkpt lat="43.4666267" lon="11.288725"><ele>567.8333333333334</ele><time>2026-04-19T15:11:09.568Z</time></trkpt><trkpt lat="43.4667105" lon="11.2886739"><ele>568.6666666666666</ele><time>2026-04-19T15:11:10.57Z</time></trkpt><trkpt lat="43.4667852" lon="11.2886283"><ele>569.5</ele><time>2026-04-19T15:11:11.566Z</time></trkpt><trkpt lat="43.4668609" lon="11.2885879"><ele>570.3333333333333</ele><time>2026-04-19T15:11:12.571Z</time></trkpt><trkpt lat="43.4669421" lon="11.2885484"><ele>571.1666666666666</ele><time>2026-04-19T15:11:13.572Z</time></trkpt><trkpt lat="43.4670181" lon="11.2884971"><ele>572.0</ele><time>2026-04-19T15:11:14.566Z</time></trkpt><trkpt lat="43.4670933" lon="11.2884223"><ele>571.4</ele><time>2026-04-19T15:11:15.567Z</time></trkpt><trkpt lat="43.4671656" lon="11.2883361"><ele>570.8000000000001</ele><time>2026-04-19T15:11:16.575Z</time></trkpt><trkpt lat="43.4672289" lon="11.2882346"><ele>570.2</ele><time>2026-04-19T15:11:17.564Z</time></trkpt><trkpt lat="43.4672892" lon="11.2881233"><ele>569.6</ele><time>2026-04-19T15:11:18.562Z</time></trkpt><trkpt lat="43.4673479" lon="11.2880111"><ele>569.0</ele><time>2026-04-19T15:11:19.57Z</time></trkpt><trkpt lat="43.4674009" lon="11.2878939"><ele>569.0</ele><time>2026-04-19T15:11:20.578Z</time></trkpt><trkpt lat="43.4674456" lon="11.2877859"><ele>569.0</ele><time>2026-04-19T15:11:21.573Z</time></trkpt><trkpt lat="43.4674904" lon="11.2876946"><ele>569.0</ele><time>2026-04-19T15:11:22.567Z</time></trkpt><trkpt lat="43.4675363" lon="11.287629"><ele>569.0</ele><time>2026-04-19T15:11:23.571Z</time></trkpt><trkpt lat="43.4676166" lon="11.2874941"><ele>569.0</ele><time>2026-04-19T15:11:25.566Z</time></trkpt><trkpt lat="43.4676961" lon="11.2873591"><ele>569.0</ele><time>2026-04-19T15:11:27.566Z</time></trkpt><trkpt lat="43.4677539" lon="11.287304"><ele>569.0</ele><time>2026-04-19T15:11:28.563Z</time></trkpt><trkpt lat="43.467827" lon="11.2872678"><ele>569.0</ele><time>2026-04-19T15:11:29.552Z</time></trkpt><trkpt lat="43.4679014" lon="11.2872399"><ele>569.0</ele><time>2026-04-19T15:11:30.57Z</time></trkpt><trkpt lat="43.4679769" lon="11.2872113"><ele>569.0</ele><time>2026-04-19T15:11:31.56Z</time></trkpt><trkpt lat="43.4680537" lon="11.287195"><ele>569.0</ele><time>2026-04-19T15:11:32.554Z</time></trkpt><trkpt lat="43.4681293" lon="11.2871629"><ele>568.4</ele><time>2026-04-19T15:11:33.56Z</time></trkpt><trkpt lat="43.4682106" lon="11.2871128"><ele>567.8</ele><time>2026-04-19T15:11:34.548Z</time></trkpt><trkpt lat="43.4682837" lon="11.2870494"><ele>567.2</ele><time>2026-04-19T15:11:35.558Z</time></trkpt><trkpt lat="43.4683482" lon="11.286987"><ele>566.6</ele><time>2026-04-19T15:11:36.561Z</time></trkpt><trkpt lat="43.4684224" lon="11.2868897"><ele>566.0</ele><time>2026-04-19T15:11:37.563Z</time></trkpt><trkpt lat="43.4684992" lon="11.2867869"><ele>566.0</ele><time>2026-04-19T15:11:38.556Z</time></trkpt><trkpt lat="43.4685655" lon="11.2866753"><ele>566.0</ele><time>2026-04-19T15:11:39.554Z</time></trkpt><trkpt lat="43.4686251" lon="11.2865872"><ele>566.0</ele><time>2026-04-19T15:11:40.562Z</time></trkpt><trkpt lat="43.4686826" lon="11.2865091"><ele>566.0</ele><time>2026-04-19T15:11:41.557Z</time></trkpt><trkpt lat="43.4687422" lon="11.2864308"><ele>566.0</ele><time>2026-04-19T15:11:42.541Z</time></trkpt><trkpt lat="43.4688114" lon="11.2863496"><ele>566.0</ele><time>2026-04-19T15:11:43.551Z</time></trkpt><trkpt lat="43.4688844" lon="11.2862679"><ele>566.0</ele><time>2026-04-19T15:11:44.546Z</time></trkpt><trkpt lat="43.4689537" lon="11.2861915"><ele>566.0</ele><time>2026-04-19T15:11:45.549Z</time></trkpt><trkpt lat="43.4690451" lon="11.2861373"><ele>566.0</ele><time>2026-04-19T15:11:46.544Z</time></trkpt><trkpt lat="43.4691447" lon="11.2861001"><ele>566.0</ele><time>2026-04-19T15:11:47.552Z</time></trkpt><trkpt lat="43.4692595" lon="11.2860804"><ele>566.0</ele><time>2026-04-19T15:11:48.548Z</time></trkpt><trkpt lat="43.4693632" lon="11.2860581"><ele>566.0</ele><time>2026-04-19T15:11:49.552Z</time></trkpt><trkpt lat="43.4694774" lon="11.2860598"><ele>566.0</ele><time>2026-04-19T15:11:50.57Z</time></trkpt><trkpt lat="43.4695829" lon="11.2860527"><ele>566.0</ele><time>2026-04-19T15:11:51.56Z</time></trkpt><trkpt lat="43.4696855" lon="11.286058"><ele>566.0</ele><time>2026-04-19T15:11:52.564Z</time></trkpt><trkpt lat="43.4697981" lon="11.2860554"><ele>566.0</ele><time>2026-04-19T15:11:53.551Z</time></trkpt><trkpt lat="43.4698963" lon="11.2860432"><ele>566.4</ele><time>2026-04-19T15:11:54.549Z</time></trkpt><trkpt lat="43.4699999" lon="11.2860175"><ele>566.8</ele><time>2026-04-19T15:11:55.545Z</time></trkpt><trkpt lat="43.4700906" lon="11.2859729"><ele>567.1999999999999</ele><time>2026-04-19T15:11:56.558Z</time></trkpt><trkpt lat="43.4701794" lon="11.2859092"><ele>567.6</ele><time>2026-04-19T15:11:57.557Z</time></trkpt><trkpt lat="43.4702571" lon="11.2858493"><ele>568.0</ele><time>2026-04-19T15:11:58.552Z</time></trkpt><trkpt lat="43.470333" lon="11.2858046"><ele>568.0</ele><time>2026-04-19T15:11:59.549Z</time></trkpt><trkpt lat="43.4704092" lon="11.2857648"><ele>568.0</ele><time>2026-04-19T15:12:00.545Z</time></trkpt><trkpt lat="43.4704809" lon="11.2857342"><ele>568.0</ele><time>2026-04-19T15:12:01.569Z</time></trkpt><trkpt lat="43.4705446" lon="11.2856967"><ele>568.0</ele><time>2026-04-19T15:12:02.572Z</time></trkpt><trkpt lat="43.470612" lon="11.285661"><ele>568.0</ele><time>2026-04-19T15:12:03.562Z</time></trkpt><trkpt lat="43.4706821" lon="11.285613"><ele>568.0</ele><time>2026-04-19T15:12:04.566Z</time></trkpt><trkpt lat="43.4707482" lon="11.2855645"><ele>567.0</ele><time>2026-04-19T15:12:05.573Z</time></trkpt><trkpt lat="43.4708157" lon="11.2855194"><ele>566.0</ele><time>2026-04-19T15:12:06.567Z</time></trkpt><trkpt lat="43.4708905" lon="11.285481"><ele>565.0</ele><time>2026-04-19T15:12:07.569Z</time></trkpt><trkpt lat="43.470969" lon="11.2854459"><ele>564.0</ele><time>2026-04-19T15:12:08.569Z</time></trkpt><trkpt lat="43.4710337" lon="11.2854201"><ele>563.0</ele><time>2026-04-19T15:12:09.573Z</time></trkpt><trkpt lat="43.471122" lon="11.2854077"><ele>562.0</ele><time>2026-04-19T15:12:11.566Z</time></trkpt><trkpt lat="43.4712125" lon="11.2854234"><ele>564.3333333333334</ele><time>2026-04-19T15:12:14.563Z</time></trkpt><trkpt lat="43.4712996" lon="11.2854019"><ele>566.6666666666667</ele><time>2026-04-19T15:12:25.574Z</time></trkpt><trkpt lat="43.4713482" lon="11.2853397"><ele>569.0</ele><time>2026-04-19T15:12:41.59Z</time></trkpt><trkpt lat="43.4713407" lon="11.2852331"><ele>571.3333333333334</ele><time>2026-04-19T15:13:06.561Z</time></trkpt><trkpt lat="43.471282" lon="11.2852769"><ele>573.6666666666666</ele><time>2026-04-19T15:13:10.572Z</time></trkpt><trkpt lat="43.4713121" lon="11.2853531"><ele>576.0</ele><time>2026-04-19T15:14:44.575Z</time></trkpt><trkpt lat="43.4713671" lon="11.2854799"><ele>576.0</ele><time>2026-04-19T15:16:51.539Z</time></trkpt><trkpt lat="43.4713195" lon="11.2855557"><ele>576.0</ele><time>2026-04-19T15:17:20.569Z</time></trkpt><trkpt lat="43.4713767" lon="11.2855026"><ele>576.0</ele><time>2026-04-19T15:18:03.55Z</time></trkpt></trkseg></trk></gpx>